<?xml version="1.0" encoding="UTF-8" standalone="no" ?>
<gpx xmlns="http://www.topografix.com/GPX/1/1" xmlns:xsi="http://www.w3.org/2001/XMLSchema-instance" xsi:schemaLocation="http://www.topografix.com/GPX/1/1 http://www.topografix.com/GPX/1/1/gpx.xsd" version="1.1" creator="VisuGPX - https://www.visugpx.com">
  <metadata>
    <name>Aiguille Grive</name>
  </metadata>
  <trk>
    <name><![CDATA[Aiguille Grive]]></name>
    <trkseg>
      <trkpt lat="45.54955" lon="6.76448">
        <ele>1629.9</ele>
        <time>2021-03-25T08:28:02Z</time>
      </trkpt>
      <trkpt lat="45.54963" lon="6.76439">
        <ele>1629.5</ele>
        <time>2021-03-25T08:28:03Z</time>
      </trkpt>
      <trkpt lat="45.54964" lon="6.76439">
        <ele>1629.5</ele>
        <time>2021-03-25T08:28:04Z</time>
      </trkpt>
      <trkpt lat="45.54964" lon="6.76439">
        <ele>1629.4</ele>
        <time>2021-03-25T08:28:05Z</time>
      </trkpt>
      <trkpt lat="45.54965" lon="6.76438">
        <ele>1629.4</ele>
        <time>2021-03-25T08:28:06Z</time>
      </trkpt>
      <trkpt lat="45.54966" lon="6.76438">
        <ele>1629.4</ele>
        <time>2021-03-25T08:28:07Z</time>
      </trkpt>
      <trkpt lat="45.54966" lon="6.76437">
        <ele>1629.4</ele>
        <time>2021-03-25T08:28:08Z</time>
      </trkpt>
      <trkpt lat="45.54967" lon="6.76437">
        <ele>1629.3</ele>
        <time>2021-03-25T08:28:09Z</time>
      </trkpt>
      <trkpt lat="45.54967" lon="6.76437">
        <ele>1629.3</ele>
        <time>2021-03-25T08:28:10Z</time>
      </trkpt>
      <trkpt lat="45.54968" lon="6.76436">
        <ele>1629.3</ele>
        <time>2021-03-25T08:28:11Z</time>
      </trkpt>
      <trkpt lat="45.54968" lon="6.76436">
        <ele>1629.3</ele>
        <time>2021-03-25T08:28:12Z</time>
      </trkpt>
      <trkpt lat="45.54969" lon="6.76435">
        <ele>1629.2</ele>
        <time>2021-03-25T08:28:13Z</time>
      </trkpt>
      <trkpt lat="45.54969" lon="6.76435">
        <ele>1629.2</ele>
        <time>2021-03-25T08:29:22Z</time>
      </trkpt>
      <trkpt lat="45.5497" lon="6.76435">
        <ele>1629.2</ele>
        <time>2021-03-25T08:29:23Z</time>
      </trkpt>
      <trkpt lat="45.5497" lon="6.76434">
        <ele>1629.2</ele>
        <time>2021-03-25T08:29:24Z</time>
      </trkpt>
      <trkpt lat="45.54971" lon="6.76434">
        <ele>1629.1</ele>
        <time>2021-03-25T08:29:25Z</time>
      </trkpt>
      <trkpt lat="45.54972" lon="6.76434">
        <ele>1629.1</ele>
        <time>2021-03-25T08:29:26Z</time>
      </trkpt>
      <trkpt lat="45.54972" lon="6.76433">
        <ele>1629.1</ele>
        <time>2021-03-25T08:29:27Z</time>
      </trkpt>
      <trkpt lat="45.54973" lon="6.76433">
        <ele>1629.1</ele>
        <time>2021-03-25T08:29:28Z</time>
      </trkpt>
      <trkpt lat="45.54973" lon="6.76432">
        <ele>1629.1</ele>
        <time>2021-03-25T08:29:29Z</time>
      </trkpt>
      <trkpt lat="45.54974" lon="6.76432">
        <ele>1629</ele>
        <time>2021-03-25T08:29:30Z</time>
      </trkpt>
      <trkpt lat="45.54974" lon="6.76432">
        <ele>1629</ele>
        <time>2021-03-25T08:29:31Z</time>
      </trkpt>
      <trkpt lat="45.54975" lon="6.76431">
        <ele>1629</ele>
        <time>2021-03-25T08:29:32Z</time>
      </trkpt>
      <trkpt lat="45.54975" lon="6.76431">
        <ele>1629</ele>
        <time>2021-03-25T08:29:33Z</time>
      </trkpt>
      <trkpt lat="45.54976" lon="6.7643">
        <ele>1628.9</ele>
        <time>2021-03-25T08:29:34Z</time>
      </trkpt>
      <trkpt lat="45.54976" lon="6.7643">
        <ele>1628.9</ele>
        <time>2021-03-25T08:29:36Z</time>
      </trkpt>
      <trkpt lat="45.54977" lon="6.7643">
        <ele>1628.9</ele>
        <time>2021-03-25T08:29:37Z</time>
      </trkpt>
      <trkpt lat="45.54978" lon="6.76429">
        <ele>1628.9</ele>
        <time>2021-03-25T08:29:38Z</time>
      </trkpt>
      <trkpt lat="45.54979" lon="6.76429">
        <ele>1628.8</ele>
        <time>2021-03-25T08:29:39Z</time>
      </trkpt>
      <trkpt lat="45.5498" lon="6.76429">
        <ele>1628.8</ele>
        <time>2021-03-25T08:29:40Z</time>
      </trkpt>
      <trkpt lat="45.5498" lon="6.76428">
        <ele>1628.8</ele>
        <time>2021-03-25T08:29:41Z</time>
      </trkpt>
      <trkpt lat="45.54981" lon="6.76428">
        <ele>1628.7</ele>
        <time>2021-03-25T08:29:42Z</time>
      </trkpt>
      <trkpt lat="45.54982" lon="6.76428">
        <ele>1628.7</ele>
        <time>2021-03-25T08:29:43Z</time>
      </trkpt>
      <trkpt lat="45.54982" lon="6.76428">
        <ele>1628.7</ele>
        <time>2021-03-25T08:29:44Z</time>
      </trkpt>
      <trkpt lat="45.54982" lon="6.76428">
        <ele>1628.7</ele>
        <time>2021-03-25T08:29:45Z</time>
      </trkpt>
      <trkpt lat="45.54983" lon="6.76428">
        <ele>1628.7</ele>
        <time>2021-03-25T08:29:46Z</time>
      </trkpt>
      <trkpt lat="45.54983" lon="6.76428">
        <ele>1628.7</ele>
        <time>2021-03-25T08:29:47Z</time>
      </trkpt>
      <trkpt lat="45.54984" lon="6.76428">
        <ele>1628.7</ele>
        <time>2021-03-25T08:29:48Z</time>
      </trkpt>
      <trkpt lat="45.54984" lon="6.76429">
        <ele>1628.7</ele>
        <time>2021-03-25T08:29:49Z</time>
      </trkpt>
      <trkpt lat="45.54985" lon="6.76429">
        <ele>1628.6</ele>
        <time>2021-03-25T08:29:50Z</time>
      </trkpt>
      <trkpt lat="45.54987" lon="6.76429">
        <ele>1628.6</ele>
        <time>2021-03-25T08:29:51Z</time>
      </trkpt>
      <trkpt lat="45.54988" lon="6.76428">
        <ele>1628.5</ele>
        <time>2021-03-25T08:29:52Z</time>
      </trkpt>
      <trkpt lat="45.54989" lon="6.76428">
        <ele>1628.5</ele>
        <time>2021-03-25T08:29:53Z</time>
      </trkpt>
      <trkpt lat="45.5499" lon="6.76428">
        <ele>1628.6</ele>
        <time>2021-03-25T08:29:54Z</time>
      </trkpt>
      <trkpt lat="45.54992" lon="6.76427">
        <ele>1628.5</ele>
        <time>2021-03-25T08:29:55Z</time>
      </trkpt>
      <trkpt lat="45.54993" lon="6.76426">
        <ele>1628.4</ele>
        <time>2021-03-25T08:29:56Z</time>
      </trkpt>
      <trkpt lat="45.54994" lon="6.76426">
        <ele>1628.4</ele>
        <time>2021-03-25T08:29:57Z</time>
      </trkpt>
      <trkpt lat="45.54996" lon="6.76424">
        <ele>1628.2</ele>
        <time>2021-03-25T08:29:58Z</time>
      </trkpt>
      <trkpt lat="45.54996" lon="6.76424">
        <ele>1628.2</ele>
        <time>2021-03-25T08:29:59Z</time>
      </trkpt>
      <trkpt lat="45.54997" lon="6.76423">
        <ele>1628.1</ele>
        <time>2021-03-25T08:30:00Z</time>
      </trkpt>
      <trkpt lat="45.54998" lon="6.76422">
        <ele>1628</ele>
        <time>2021-03-25T08:30:01Z</time>
      </trkpt>
      <trkpt lat="45.54999" lon="6.76422">
        <ele>1627.9</ele>
        <time>2021-03-25T08:30:02Z</time>
      </trkpt>
      <trkpt lat="45.55001" lon="6.76421">
        <ele>1627.8</ele>
        <time>2021-03-25T08:30:03Z</time>
      </trkpt>
      <trkpt lat="45.55003" lon="6.76421">
        <ele>1627.6</ele>
        <time>2021-03-25T08:30:04Z</time>
      </trkpt>
      <trkpt lat="45.55004" lon="6.7642">
        <ele>1627.6</ele>
        <time>2021-03-25T08:30:05Z</time>
      </trkpt>
      <trkpt lat="45.55004" lon="6.7642">
        <ele>1627.5</ele>
        <time>2021-03-25T08:30:06Z</time>
      </trkpt>
      <trkpt lat="45.55006" lon="6.7642">
        <ele>1627.4</ele>
        <time>2021-03-25T08:30:07Z</time>
      </trkpt>
      <trkpt lat="45.55007" lon="6.7642">
        <ele>1627.2</ele>
        <time>2021-03-25T08:30:08Z</time>
      </trkpt>
      <trkpt lat="45.55009" lon="6.7642">
        <ele>1627.1</ele>
        <time>2021-03-25T08:30:09Z</time>
      </trkpt>
      <trkpt lat="45.5501" lon="6.7642">
        <ele>1627</ele>
        <time>2021-03-25T08:30:10Z</time>
      </trkpt>
      <trkpt lat="45.55012" lon="6.7642">
        <ele>1626.8</ele>
        <time>2021-03-25T08:30:11Z</time>
      </trkpt>
      <trkpt lat="45.55013" lon="6.7642">
        <ele>1626.7</ele>
        <time>2021-03-25T08:30:12Z</time>
      </trkpt>
      <trkpt lat="45.55014" lon="6.7642">
        <ele>1626.6</ele>
        <time>2021-03-25T08:30:13Z</time>
      </trkpt>
      <trkpt lat="45.55016" lon="6.76419">
        <ele>1626.5</ele>
        <time>2021-03-25T08:30:14Z</time>
      </trkpt>
      <trkpt lat="45.55017" lon="6.76419">
        <ele>1626.3</ele>
        <time>2021-03-25T08:30:15Z</time>
      </trkpt>
      <trkpt lat="45.55018" lon="6.76419">
        <ele>1626.2</ele>
        <time>2021-03-25T08:30:16Z</time>
      </trkpt>
      <trkpt lat="45.55019" lon="6.76419">
        <ele>1626.1</ele>
        <time>2021-03-25T08:30:17Z</time>
      </trkpt>
      <trkpt lat="45.5502" lon="6.76418">
        <ele>1626</ele>
        <time>2021-03-25T08:30:18Z</time>
      </trkpt>
      <trkpt lat="45.55021" lon="6.76418">
        <ele>1625.9</ele>
        <time>2021-03-25T08:30:19Z</time>
      </trkpt>
      <trkpt lat="45.55022" lon="6.76417">
        <ele>1625.8</ele>
        <time>2021-03-25T08:30:20Z</time>
      </trkpt>
      <trkpt lat="45.55023" lon="6.76417">
        <ele>1625.7</ele>
        <time>2021-03-25T08:30:21Z</time>
      </trkpt>
      <trkpt lat="45.55024" lon="6.76417">
        <ele>1625.5</ele>
        <time>2021-03-25T08:30:22Z</time>
      </trkpt>
      <trkpt lat="45.55026" lon="6.76417">
        <ele>1625.4</ele>
        <time>2021-03-25T08:30:23Z</time>
      </trkpt>
      <trkpt lat="45.55027" lon="6.76417">
        <ele>1625.2</ele>
        <time>2021-03-25T08:30:24Z</time>
      </trkpt>
      <trkpt lat="45.55028" lon="6.76416">
        <ele>1625.1</ele>
        <time>2021-03-25T08:30:25Z</time>
      </trkpt>
      <trkpt lat="45.55029" lon="6.76416">
        <ele>1624.9</ele>
        <time>2021-03-25T08:30:26Z</time>
      </trkpt>
      <trkpt lat="45.5503" lon="6.76415">
        <ele>1624.8</ele>
        <time>2021-03-25T08:30:27Z</time>
      </trkpt>
      <trkpt lat="45.55031" lon="6.76415">
        <ele>1624.7</ele>
        <time>2021-03-25T08:30:28Z</time>
      </trkpt>
      <trkpt lat="45.55032" lon="6.76415">
        <ele>1624.5</ele>
        <time>2021-03-25T08:30:29Z</time>
      </trkpt>
      <trkpt lat="45.55033" lon="6.76414">
        <ele>1624.4</ele>
        <time>2021-03-25T08:30:30Z</time>
      </trkpt>
      <trkpt lat="45.55034" lon="6.76414">
        <ele>1624.3</ele>
        <time>2021-03-25T08:30:31Z</time>
      </trkpt>
      <trkpt lat="45.55036" lon="6.76414">
        <ele>1624.1</ele>
        <time>2021-03-25T08:30:32Z</time>
      </trkpt>
      <trkpt lat="45.55037" lon="6.76414">
        <ele>1624</ele>
        <time>2021-03-25T08:30:33Z</time>
      </trkpt>
      <trkpt lat="45.55038" lon="6.76414">
        <ele>1623.8</ele>
        <time>2021-03-25T08:30:34Z</time>
      </trkpt>
      <trkpt lat="45.55039" lon="6.76414">
        <ele>1623.7</ele>
        <time>2021-03-25T08:30:35Z</time>
      </trkpt>
      <trkpt lat="45.5504" lon="6.76414">
        <ele>1623.6</ele>
        <time>2021-03-25T08:30:36Z</time>
      </trkpt>
      <trkpt lat="45.5504" lon="6.76415">
        <ele>1623.5</ele>
        <time>2021-03-25T08:30:37Z</time>
      </trkpt>
      <trkpt lat="45.55041" lon="6.76415">
        <ele>1623.4</ele>
        <time>2021-03-25T08:30:38Z</time>
      </trkpt>
      <trkpt lat="45.55042" lon="6.76415">
        <ele>1623.2</ele>
        <time>2021-03-25T08:30:39Z</time>
      </trkpt>
      <trkpt lat="45.55043" lon="6.76415">
        <ele>1623.1</ele>
        <time>2021-03-25T08:30:40Z</time>
      </trkpt>
      <trkpt lat="45.55044" lon="6.76415">
        <ele>1623</ele>
        <time>2021-03-25T08:30:41Z</time>
      </trkpt>
      <trkpt lat="45.55045" lon="6.76415">
        <ele>1622.8</ele>
        <time>2021-03-25T08:30:42Z</time>
      </trkpt>
      <trkpt lat="45.55047" lon="6.76415">
        <ele>1622.6</ele>
        <time>2021-03-25T08:30:43Z</time>
      </trkpt>
      <trkpt lat="45.55048" lon="6.76415">
        <ele>1622.4</ele>
        <time>2021-03-25T08:30:44Z</time>
      </trkpt>
      <trkpt lat="45.55049" lon="6.76415">
        <ele>1622.3</ele>
        <time>2021-03-25T08:30:45Z</time>
      </trkpt>
      <trkpt lat="45.5505" lon="6.76415">
        <ele>1622.1</ele>
        <time>2021-03-25T08:30:46Z</time>
      </trkpt>
      <trkpt lat="45.55052" lon="6.76416">
        <ele>1621.8</ele>
        <time>2021-03-25T08:30:47Z</time>
      </trkpt>
      <trkpt lat="45.55053" lon="6.76417">
        <ele>1621.7</ele>
        <time>2021-03-25T08:30:48Z</time>
      </trkpt>
      <trkpt lat="45.55054" lon="6.76417">
        <ele>1621.6</ele>
        <time>2021-03-25T08:30:49Z</time>
      </trkpt>
      <trkpt lat="45.55055" lon="6.76417">
        <ele>1621.4</ele>
        <time>2021-03-25T08:30:50Z</time>
      </trkpt>
      <trkpt lat="45.55056" lon="6.76418">
        <ele>1621.3</ele>
        <time>2021-03-25T08:30:51Z</time>
      </trkpt>
      <trkpt lat="45.55056" lon="6.76418">
        <ele>1621.1</ele>
        <time>2021-03-25T08:30:52Z</time>
      </trkpt>
      <trkpt lat="45.55057" lon="6.76418">
        <ele>1621</ele>
        <time>2021-03-25T08:30:53Z</time>
      </trkpt>
      <trkpt lat="45.55058" lon="6.76418">
        <ele>1620.9</ele>
        <time>2021-03-25T08:30:54Z</time>
      </trkpt>
      <trkpt lat="45.55059" lon="6.76419">
        <ele>1620.7</ele>
        <time>2021-03-25T08:30:55Z</time>
      </trkpt>
      <trkpt lat="45.55061" lon="6.76419">
        <ele>1620.4</ele>
        <time>2021-03-25T08:30:56Z</time>
      </trkpt>
      <trkpt lat="45.55062" lon="6.76419">
        <ele>1620.3</ele>
        <time>2021-03-25T08:30:57Z</time>
      </trkpt>
      <trkpt lat="45.55063" lon="6.76419">
        <ele>1620.2</ele>
        <time>2021-03-25T08:30:58Z</time>
      </trkpt>
      <trkpt lat="45.55064" lon="6.76419">
        <ele>1620</ele>
        <time>2021-03-25T08:30:59Z</time>
      </trkpt>
      <trkpt lat="45.55065" lon="6.7642">
        <ele>1619.9</ele>
        <time>2021-03-25T08:31:00Z</time>
      </trkpt>
      <trkpt lat="45.55066" lon="6.7642">
        <ele>1619.8</ele>
        <time>2021-03-25T08:31:01Z</time>
      </trkpt>
      <trkpt lat="45.55067" lon="6.7642">
        <ele>1619.6</ele>
        <time>2021-03-25T08:31:02Z</time>
      </trkpt>
      <trkpt lat="45.55068" lon="6.76421">
        <ele>1619.4</ele>
        <time>2021-03-25T08:31:03Z</time>
      </trkpt>
      <trkpt lat="45.55069" lon="6.76421">
        <ele>1619.2</ele>
        <time>2021-03-25T08:31:04Z</time>
      </trkpt>
      <trkpt lat="45.5507" lon="6.76421">
        <ele>1619.1</ele>
        <time>2021-03-25T08:31:05Z</time>
      </trkpt>
      <trkpt lat="45.55072" lon="6.76422">
        <ele>1618.9</ele>
        <time>2021-03-25T08:31:06Z</time>
      </trkpt>
      <trkpt lat="45.55073" lon="6.76422">
        <ele>1618.7</ele>
        <time>2021-03-25T08:31:07Z</time>
      </trkpt>
      <trkpt lat="45.55074" lon="6.76422">
        <ele>1618.6</ele>
        <time>2021-03-25T08:31:08Z</time>
      </trkpt>
      <trkpt lat="45.55075" lon="6.76422">
        <ele>1618.5</ele>
        <time>2021-03-25T08:31:09Z</time>
      </trkpt>
      <trkpt lat="45.55076" lon="6.76422">
        <ele>1618.3</ele>
        <time>2021-03-25T08:31:10Z</time>
      </trkpt>
      <trkpt lat="45.55077" lon="6.76421">
        <ele>1618.1</ele>
        <time>2021-03-25T08:31:11Z</time>
      </trkpt>
      <trkpt lat="45.55078" lon="6.7642">
        <ele>1617.9</ele>
        <time>2021-03-25T08:31:12Z</time>
      </trkpt>
      <trkpt lat="45.55079" lon="6.76419">
        <ele>1617.7</ele>
        <time>2021-03-25T08:31:13Z</time>
      </trkpt>
      <trkpt lat="45.55079" lon="6.76419">
        <ele>1617.7</ele>
        <time>2021-03-25T08:31:14Z</time>
      </trkpt>
      <trkpt lat="45.5508" lon="6.76419">
        <ele>1617.7</ele>
        <time>2021-03-25T08:31:15Z</time>
      </trkpt>
      <trkpt lat="45.5508" lon="6.76419">
        <ele>1617.6</ele>
        <time>2021-03-25T08:31:16Z</time>
      </trkpt>
      <trkpt lat="45.5508" lon="6.76419">
        <ele>1617.6</ele>
        <time>2021-03-25T08:31:17Z</time>
      </trkpt>
      <trkpt lat="45.5508" lon="6.76419">
        <ele>1617.6</ele>
        <time>2021-03-25T08:31:18Z</time>
      </trkpt>
      <trkpt lat="45.5508" lon="6.7642">
        <ele>1617.5</ele>
        <time>2021-03-25T08:31:19Z</time>
      </trkpt>
      <trkpt lat="45.55081" lon="6.7642">
        <ele>1617.5</ele>
        <time>2021-03-25T08:31:20Z</time>
      </trkpt>
      <trkpt lat="45.55081" lon="6.7642">
        <ele>1617.5</ele>
        <time>2021-03-25T08:31:21Z</time>
      </trkpt>
      <trkpt lat="45.55081" lon="6.7642">
        <ele>1617.5</ele>
        <time>2021-03-25T08:31:22Z</time>
      </trkpt>
      <trkpt lat="45.55081" lon="6.7642">
        <ele>1617.4</ele>
        <time>2021-03-25T08:31:23Z</time>
      </trkpt>
      <trkpt lat="45.55082" lon="6.7642">
        <ele>1617.4</ele>
        <time>2021-03-25T08:31:24Z</time>
      </trkpt>
      <trkpt lat="45.55082" lon="6.7642">
        <ele>1617.3</ele>
        <time>2021-03-25T08:32:56Z</time>
      </trkpt>
      <trkpt lat="45.55082" lon="6.7642">
        <ele>1617.3</ele>
        <time>2021-03-25T08:32:57Z</time>
      </trkpt>
      <trkpt lat="45.55082" lon="6.7642">
        <ele>1617.3</ele>
        <time>2021-03-25T08:32:58Z</time>
      </trkpt>
      <trkpt lat="45.55082" lon="6.7642">
        <ele>1617.2</ele>
        <time>2021-03-25T08:32:59Z</time>
      </trkpt>
      <trkpt lat="45.55083" lon="6.7642">
        <ele>1617.2</ele>
        <time>2021-03-25T08:33:00Z</time>
      </trkpt>
      <trkpt lat="45.55083" lon="6.7642">
        <ele>1617.2</ele>
        <time>2021-03-25T08:33:01Z</time>
      </trkpt>
      <trkpt lat="45.55084" lon="6.7642">
        <ele>1617.1</ele>
        <time>2021-03-25T08:33:02Z</time>
      </trkpt>
      <trkpt lat="45.55085" lon="6.76421">
        <ele>1617</ele>
        <time>2021-03-25T08:33:03Z</time>
      </trkpt>
      <trkpt lat="45.55085" lon="6.76422">
        <ele>1617</ele>
        <time>2021-03-25T08:33:04Z</time>
      </trkpt>
      <trkpt lat="45.55086" lon="6.76422">
        <ele>1617</ele>
        <time>2021-03-25T08:33:05Z</time>
      </trkpt>
      <trkpt lat="45.55087" lon="6.76423">
        <ele>1617</ele>
        <time>2021-03-25T08:33:06Z</time>
      </trkpt>
      <trkpt lat="45.55087" lon="6.76424">
        <ele>1617.8</ele>
        <time>2021-03-25T08:33:07Z</time>
      </trkpt>
      <trkpt lat="45.55088" lon="6.76425">
        <ele>1617.8</ele>
        <time>2021-03-25T08:33:08Z</time>
      </trkpt>
      <trkpt lat="45.55088" lon="6.76425">
        <ele>1617.8</ele>
        <time>2021-03-25T08:33:09Z</time>
      </trkpt>
      <trkpt lat="45.55089" lon="6.76426">
        <ele>1617.8</ele>
        <time>2021-03-25T08:33:10Z</time>
      </trkpt>
      <trkpt lat="45.55089" lon="6.76426">
        <ele>1617.8</ele>
        <time>2021-03-25T08:33:11Z</time>
      </trkpt>
      <trkpt lat="45.5509" lon="6.76427">
        <ele>1617.8</ele>
        <time>2021-03-25T08:33:12Z</time>
      </trkpt>
      <trkpt lat="45.5509" lon="6.76427">
        <ele>1618.7</ele>
        <time>2021-03-25T08:33:13Z</time>
      </trkpt>
      <trkpt lat="45.5509" lon="6.76428">
        <ele>1618.6</ele>
        <time>2021-03-25T08:33:14Z</time>
      </trkpt>
      <trkpt lat="45.55091" lon="6.76428">
        <ele>1618.6</ele>
        <time>2021-03-25T08:33:15Z</time>
      </trkpt>
      <trkpt lat="45.55091" lon="6.76429">
        <ele>1618.6</ele>
        <time>2021-03-25T08:33:16Z</time>
      </trkpt>
      <trkpt lat="45.55091" lon="6.76429">
        <ele>1618.6</ele>
        <time>2021-03-25T08:33:17Z</time>
      </trkpt>
      <trkpt lat="45.55092" lon="6.7643">
        <ele>1618.6</ele>
        <time>2021-03-25T08:33:18Z</time>
      </trkpt>
      <trkpt lat="45.55092" lon="6.76431">
        <ele>1618.6</ele>
        <time>2021-03-25T08:33:19Z</time>
      </trkpt>
      <trkpt lat="45.55093" lon="6.76431">
        <ele>1618.6</ele>
        <time>2021-03-25T08:33:20Z</time>
      </trkpt>
      <trkpt lat="45.55093" lon="6.76432">
        <ele>1619.5</ele>
        <time>2021-03-25T08:33:21Z</time>
      </trkpt>
      <trkpt lat="45.55094" lon="6.76433">
        <ele>1619.5</ele>
        <time>2021-03-25T08:33:22Z</time>
      </trkpt>
      <trkpt lat="45.55095" lon="6.76433">
        <ele>1619.5</ele>
        <time>2021-03-25T08:33:23Z</time>
      </trkpt>
      <trkpt lat="45.55095" lon="6.76434">
        <ele>1619.5</ele>
        <time>2021-03-25T08:33:24Z</time>
      </trkpt>
      <trkpt lat="45.55096" lon="6.76435">
        <ele>1619.5</ele>
        <time>2021-03-25T08:33:25Z</time>
      </trkpt>
      <trkpt lat="45.55096" lon="6.76436">
        <ele>1619.4</ele>
        <time>2021-03-25T08:33:26Z</time>
      </trkpt>
      <trkpt lat="45.55097" lon="6.76436">
        <ele>1620.3</ele>
        <time>2021-03-25T08:33:27Z</time>
      </trkpt>
      <trkpt lat="45.55098" lon="6.76437">
        <ele>1620.3</ele>
        <time>2021-03-25T08:33:28Z</time>
      </trkpt>
      <trkpt lat="45.55098" lon="6.76438">
        <ele>1620.3</ele>
        <time>2021-03-25T08:33:29Z</time>
      </trkpt>
      <trkpt lat="45.55099" lon="6.76439">
        <ele>1620.3</ele>
        <time>2021-03-25T08:33:30Z</time>
      </trkpt>
      <trkpt lat="45.551" lon="6.76439">
        <ele>1620.3</ele>
        <time>2021-03-25T08:33:31Z</time>
      </trkpt>
      <trkpt lat="45.55101" lon="6.7644">
        <ele>1621.2</ele>
        <time>2021-03-25T08:33:32Z</time>
      </trkpt>
      <trkpt lat="45.55101" lon="6.76441">
        <ele>1621.2</ele>
        <time>2021-03-25T08:33:33Z</time>
      </trkpt>
      <trkpt lat="45.55102" lon="6.76441">
        <ele>1621.2</ele>
        <time>2021-03-25T08:33:34Z</time>
      </trkpt>
      <trkpt lat="45.55102" lon="6.76441">
        <ele>1621.2</ele>
        <time>2021-03-25T08:33:35Z</time>
      </trkpt>
      <trkpt lat="45.55103" lon="6.76442">
        <ele>1621.2</ele>
        <time>2021-03-25T08:33:36Z</time>
      </trkpt>
      <trkpt lat="45.55103" lon="6.76442">
        <ele>1621.2</ele>
        <time>2021-03-25T08:33:37Z</time>
      </trkpt>
      <trkpt lat="45.55104" lon="6.76443">
        <ele>1621.2</ele>
        <time>2021-03-25T08:33:38Z</time>
      </trkpt>
      <trkpt lat="45.55104" lon="6.76443">
        <ele>1621.2</ele>
        <time>2021-03-25T08:33:39Z</time>
      </trkpt>
      <trkpt lat="45.55104" lon="6.76443">
        <ele>1621.2</ele>
        <time>2021-03-25T08:33:40Z</time>
      </trkpt>
      <trkpt lat="45.55105" lon="6.76444">
        <ele>1621.2</ele>
        <time>2021-03-25T08:33:41Z</time>
      </trkpt>
      <trkpt lat="45.55105" lon="6.76444">
        <ele>1621.2</ele>
        <time>2021-03-25T08:33:42Z</time>
      </trkpt>
      <trkpt lat="45.55106" lon="6.76444">
        <ele>1621.2</ele>
        <time>2021-03-25T08:34:43Z</time>
      </trkpt>
      <trkpt lat="45.55106" lon="6.76445">
        <ele>1622.2</ele>
        <time>2021-03-25T08:34:44Z</time>
      </trkpt>
      <trkpt lat="45.55107" lon="6.76445">
        <ele>1622.2</ele>
        <time>2021-03-25T08:34:45Z</time>
      </trkpt>
      <trkpt lat="45.55107" lon="6.76445">
        <ele>1622.2</ele>
        <time>2021-03-25T08:34:46Z</time>
      </trkpt>
      <trkpt lat="45.55108" lon="6.76446">
        <ele>1622.2</ele>
        <time>2021-03-25T08:34:47Z</time>
      </trkpt>
      <trkpt lat="45.55108" lon="6.76447">
        <ele>1622.2</ele>
        <time>2021-03-25T08:34:48Z</time>
      </trkpt>
      <trkpt lat="45.55109" lon="6.76448">
        <ele>1622.2</ele>
        <time>2021-03-25T08:34:49Z</time>
      </trkpt>
      <trkpt lat="45.55109" lon="6.76448">
        <ele>1622.2</ele>
        <time>2021-03-25T08:34:50Z</time>
      </trkpt>
      <trkpt lat="45.5511" lon="6.76449">
        <ele>1622.2</ele>
        <time>2021-03-25T08:34:51Z</time>
      </trkpt>
      <trkpt lat="45.5511" lon="6.76449">
        <ele>1623.2</ele>
        <time>2021-03-25T08:34:52Z</time>
      </trkpt>
      <trkpt lat="45.55111" lon="6.7645">
        <ele>1623.2</ele>
        <time>2021-03-25T08:34:53Z</time>
      </trkpt>
      <trkpt lat="45.55112" lon="6.7645">
        <ele>1623.3</ele>
        <time>2021-03-25T08:34:54Z</time>
      </trkpt>
      <trkpt lat="45.55112" lon="6.76451">
        <ele>1623.3</ele>
        <time>2021-03-25T08:34:55Z</time>
      </trkpt>
      <trkpt lat="45.55113" lon="6.76451">
        <ele>1623.3</ele>
        <time>2021-03-25T08:34:56Z</time>
      </trkpt>
      <trkpt lat="45.55114" lon="6.76452">
        <ele>1623.3</ele>
        <time>2021-03-25T08:34:57Z</time>
      </trkpt>
      <trkpt lat="45.55114" lon="6.76452">
        <ele>1623.3</ele>
        <time>2021-03-25T08:34:58Z</time>
      </trkpt>
      <trkpt lat="45.55115" lon="6.76452">
        <ele>1623.3</ele>
        <time>2021-03-25T08:34:59Z</time>
      </trkpt>
      <trkpt lat="45.55115" lon="6.76452">
        <ele>1623.3</ele>
        <time>2021-03-25T08:35:00Z</time>
      </trkpt>
      <trkpt lat="45.55115" lon="6.76453">
        <ele>1623.3</ele>
        <time>2021-03-25T08:35:01Z</time>
      </trkpt>
      <trkpt lat="45.55115" lon="6.76453">
        <ele>1623.3</ele>
        <time>2021-03-25T08:35:02Z</time>
      </trkpt>
      <trkpt lat="45.55116" lon="6.76454">
        <ele>1624.4</ele>
        <time>2021-03-25T08:35:03Z</time>
      </trkpt>
      <trkpt lat="45.55117" lon="6.76455">
        <ele>1624.4</ele>
        <time>2021-03-25T08:35:04Z</time>
      </trkpt>
      <trkpt lat="45.55117" lon="6.76455">
        <ele>1624.4</ele>
        <time>2021-03-25T08:35:05Z</time>
      </trkpt>
      <trkpt lat="45.55117" lon="6.76456">
        <ele>1624.4</ele>
        <time>2021-03-25T08:35:06Z</time>
      </trkpt>
      <trkpt lat="45.55117" lon="6.76456">
        <ele>1624.4</ele>
        <time>2021-03-25T08:35:07Z</time>
      </trkpt>
      <trkpt lat="45.55118" lon="6.76456">
        <ele>1624.4</ele>
        <time>2021-03-25T08:35:08Z</time>
      </trkpt>
      <trkpt lat="45.55118" lon="6.76457">
        <ele>1624.4</ele>
        <time>2021-03-25T08:35:09Z</time>
      </trkpt>
      <trkpt lat="45.55119" lon="6.76457">
        <ele>1624.4</ele>
        <time>2021-03-25T08:35:10Z</time>
      </trkpt>
      <trkpt lat="45.5512" lon="6.76457">
        <ele>1624.5</ele>
        <time>2021-03-25T08:35:11Z</time>
      </trkpt>
      <trkpt lat="45.55121" lon="6.76457">
        <ele>1624.5</ele>
        <time>2021-03-25T08:35:12Z</time>
      </trkpt>
      <trkpt lat="45.55122" lon="6.76457">
        <ele>1624.5</ele>
        <time>2021-03-25T08:35:13Z</time>
      </trkpt>
      <trkpt lat="45.55122" lon="6.76457">
        <ele>1624.5</ele>
        <time>2021-03-25T08:35:14Z</time>
      </trkpt>
      <trkpt lat="45.55123" lon="6.76458">
        <ele>1625.6</ele>
        <time>2021-03-25T08:35:15Z</time>
      </trkpt>
      <trkpt lat="45.55123" lon="6.76458">
        <ele>1625.6</ele>
        <time>2021-03-25T08:35:16Z</time>
      </trkpt>
      <trkpt lat="45.55124" lon="6.76458">
        <ele>1625.7</ele>
        <time>2021-03-25T08:35:17Z</time>
      </trkpt>
      <trkpt lat="45.55125" lon="6.76458">
        <ele>1625.7</ele>
        <time>2021-03-25T08:35:18Z</time>
      </trkpt>
      <trkpt lat="45.55125" lon="6.76458">
        <ele>1625.7</ele>
        <time>2021-03-25T08:35:19Z</time>
      </trkpt>
      <trkpt lat="45.55126" lon="6.76458">
        <ele>1625.7</ele>
        <time>2021-03-25T08:35:20Z</time>
      </trkpt>
      <trkpt lat="45.55126" lon="6.76458">
        <ele>1625.7</ele>
        <time>2021-03-25T08:35:21Z</time>
      </trkpt>
      <trkpt lat="45.55127" lon="6.76458">
        <ele>1625.8</ele>
        <time>2021-03-25T08:35:22Z</time>
      </trkpt>
      <trkpt lat="45.55128" lon="6.76458">
        <ele>1625.8</ele>
        <time>2021-03-25T08:36:01Z</time>
      </trkpt>
      <trkpt lat="45.55128" lon="6.76459">
        <ele>1625.8</ele>
        <time>2021-03-25T08:36:02Z</time>
      </trkpt>
      <trkpt lat="45.55129" lon="6.76459">
        <ele>1625.8</ele>
        <time>2021-03-25T08:36:03Z</time>
      </trkpt>
      <trkpt lat="45.55129" lon="6.76459">
        <ele>1625.8</ele>
        <time>2021-03-25T08:36:04Z</time>
      </trkpt>
      <trkpt lat="45.5513" lon="6.76459">
        <ele>1625.8</ele>
        <time>2021-03-25T08:36:05Z</time>
      </trkpt>
      <trkpt lat="45.55131" lon="6.76459">
        <ele>1625.8</ele>
        <time>2021-03-25T08:36:06Z</time>
      </trkpt>
      <trkpt lat="45.55132" lon="6.7646">
        <ele>1625.8</ele>
        <time>2021-03-25T08:36:07Z</time>
      </trkpt>
      <trkpt lat="45.55132" lon="6.76461">
        <ele>1625.8</ele>
        <time>2021-03-25T08:36:08Z</time>
      </trkpt>
      <trkpt lat="45.55133" lon="6.76461">
        <ele>1625.9</ele>
        <time>2021-03-25T08:36:09Z</time>
      </trkpt>
      <trkpt lat="45.55133" lon="6.76461">
        <ele>1625.9</ele>
        <time>2021-03-25T08:36:10Z</time>
      </trkpt>
      <trkpt lat="45.55133" lon="6.76462">
        <ele>1627</ele>
        <time>2021-03-25T08:36:11Z</time>
      </trkpt>
      <trkpt lat="45.55134" lon="6.76462">
        <ele>1627</ele>
        <time>2021-03-25T08:36:12Z</time>
      </trkpt>
      <trkpt lat="45.55135" lon="6.76463">
        <ele>1627</ele>
        <time>2021-03-25T08:36:13Z</time>
      </trkpt>
      <trkpt lat="45.55136" lon="6.76464">
        <ele>1627.1</ele>
        <time>2021-03-25T08:36:14Z</time>
      </trkpt>
      <trkpt lat="45.55136" lon="6.76465">
        <ele>1627.1</ele>
        <time>2021-03-25T08:36:15Z</time>
      </trkpt>
      <trkpt lat="45.55137" lon="6.76465">
        <ele>1627.1</ele>
        <time>2021-03-25T08:36:16Z</time>
      </trkpt>
      <trkpt lat="45.55137" lon="6.76466">
        <ele>1627.1</ele>
        <time>2021-03-25T08:36:17Z</time>
      </trkpt>
      <trkpt lat="45.55137" lon="6.76466">
        <ele>1628.1</ele>
        <time>2021-03-25T08:36:18Z</time>
      </trkpt>
      <trkpt lat="45.55138" lon="6.76467">
        <ele>1628.1</ele>
        <time>2021-03-25T08:36:19Z</time>
      </trkpt>
      <trkpt lat="45.55138" lon="6.76468">
        <ele>1628.2</ele>
        <time>2021-03-25T08:36:20Z</time>
      </trkpt>
      <trkpt lat="45.55139" lon="6.76469">
        <ele>1628.2</ele>
        <time>2021-03-25T08:36:21Z</time>
      </trkpt>
      <trkpt lat="45.5514" lon="6.76471">
        <ele>1629.2</ele>
        <time>2021-03-25T08:36:22Z</time>
      </trkpt>
      <trkpt lat="45.5514" lon="6.76472">
        <ele>1629.2</ele>
        <time>2021-03-25T08:36:23Z</time>
      </trkpt>
      <trkpt lat="45.5514" lon="6.76474">
        <ele>1629.2</ele>
        <time>2021-03-25T08:36:24Z</time>
      </trkpt>
      <trkpt lat="45.5514" lon="6.76475">
        <ele>1630.1</ele>
        <time>2021-03-25T08:36:25Z</time>
      </trkpt>
      <trkpt lat="45.5514" lon="6.76477">
        <ele>1630.1</ele>
        <time>2021-03-25T08:36:26Z</time>
      </trkpt>
      <trkpt lat="45.5514" lon="6.76478">
        <ele>1630.1</ele>
        <time>2021-03-25T08:36:27Z</time>
      </trkpt>
      <trkpt lat="45.5514" lon="6.76479">
        <ele>1631</ele>
        <time>2021-03-25T08:36:28Z</time>
      </trkpt>
      <trkpt lat="45.55139" lon="6.76481">
        <ele>1631</ele>
        <time>2021-03-25T08:36:29Z</time>
      </trkpt>
      <trkpt lat="45.55139" lon="6.76482">
        <ele>1631</ele>
        <time>2021-03-25T08:36:30Z</time>
      </trkpt>
      <trkpt lat="45.55139" lon="6.76484">
        <ele>1631.9</ele>
        <time>2021-03-25T08:36:31Z</time>
      </trkpt>
      <trkpt lat="45.55139" lon="6.76485">
        <ele>1631.9</ele>
        <time>2021-03-25T08:36:32Z</time>
      </trkpt>
      <trkpt lat="45.55139" lon="6.76486">
        <ele>1631.9</ele>
        <time>2021-03-25T08:36:33Z</time>
      </trkpt>
      <trkpt lat="45.55139" lon="6.76487">
        <ele>1631.9</ele>
        <time>2021-03-25T08:36:34Z</time>
      </trkpt>
      <trkpt lat="45.55139" lon="6.76488">
        <ele>1632.8</ele>
        <time>2021-03-25T08:36:35Z</time>
      </trkpt>
      <trkpt lat="45.55139" lon="6.76489">
        <ele>1632.8</ele>
        <time>2021-03-25T08:36:36Z</time>
      </trkpt>
      <trkpt lat="45.55139" lon="6.76491">
        <ele>1632.8</ele>
        <time>2021-03-25T08:36:37Z</time>
      </trkpt>
      <trkpt lat="45.55139" lon="6.76492">
        <ele>1633.8</ele>
        <time>2021-03-25T08:36:38Z</time>
      </trkpt>
      <trkpt lat="45.55138" lon="6.76493">
        <ele>1633.8</ele>
        <time>2021-03-25T08:36:39Z</time>
      </trkpt>
      <trkpt lat="45.55138" lon="6.76495">
        <ele>1633.7</ele>
        <time>2021-03-25T08:36:40Z</time>
      </trkpt>
      <trkpt lat="45.55138" lon="6.76496">
        <ele>1633.7</ele>
        <time>2021-03-25T08:36:41Z</time>
      </trkpt>
      <trkpt lat="45.55138" lon="6.76497">
        <ele>1634.7</ele>
        <time>2021-03-25T08:36:42Z</time>
      </trkpt>
      <trkpt lat="45.55138" lon="6.76498">
        <ele>1634.7</ele>
        <time>2021-03-25T08:36:43Z</time>
      </trkpt>
      <trkpt lat="45.55138" lon="6.76499">
        <ele>1634.7</ele>
        <time>2021-03-25T08:36:44Z</time>
      </trkpt>
      <trkpt lat="45.55138" lon="6.76501">
        <ele>1635.8</ele>
        <time>2021-03-25T08:36:45Z</time>
      </trkpt>
      <trkpt lat="45.55138" lon="6.76502">
        <ele>1635.8</ele>
        <time>2021-03-25T08:36:46Z</time>
      </trkpt>
      <trkpt lat="45.55138" lon="6.76503">
        <ele>1635.8</ele>
        <time>2021-03-25T08:36:47Z</time>
      </trkpt>
      <trkpt lat="45.55138" lon="6.76504">
        <ele>1635.8</ele>
        <time>2021-03-25T08:36:48Z</time>
      </trkpt>
      <trkpt lat="45.55138" lon="6.76505">
        <ele>1636.8</ele>
        <time>2021-03-25T08:36:49Z</time>
      </trkpt>
      <trkpt lat="45.55138" lon="6.76506">
        <ele>1636.8</ele>
        <time>2021-03-25T08:36:50Z</time>
      </trkpt>
      <trkpt lat="45.55138" lon="6.76507">
        <ele>1636.8</ele>
        <time>2021-03-25T08:36:51Z</time>
      </trkpt>
      <trkpt lat="45.55138" lon="6.76508">
        <ele>1636.8</ele>
        <time>2021-03-25T08:36:52Z</time>
      </trkpt>
      <trkpt lat="45.55138" lon="6.76509">
        <ele>1638</ele>
        <time>2021-03-25T08:36:53Z</time>
      </trkpt>
      <trkpt lat="45.55139" lon="6.76511">
        <ele>1638</ele>
        <time>2021-03-25T08:36:54Z</time>
      </trkpt>
      <trkpt lat="45.55139" lon="6.76512">
        <ele>1638</ele>
        <time>2021-03-25T08:36:55Z</time>
      </trkpt>
      <trkpt lat="45.55139" lon="6.76513">
        <ele>1638</ele>
        <time>2021-03-25T08:36:56Z</time>
      </trkpt>
      <trkpt lat="45.55139" lon="6.76514">
        <ele>1639</ele>
        <time>2021-03-25T08:36:57Z</time>
      </trkpt>
      <trkpt lat="45.55139" lon="6.76515">
        <ele>1639</ele>
        <time>2021-03-25T08:36:58Z</time>
      </trkpt>
      <trkpt lat="45.55139" lon="6.76517">
        <ele>1639</ele>
        <time>2021-03-25T08:36:59Z</time>
      </trkpt>
      <trkpt lat="45.55139" lon="6.76517">
        <ele>1639</ele>
        <time>2021-03-25T08:37:00Z</time>
      </trkpt>
      <trkpt lat="45.5514" lon="6.76519">
        <ele>1640.1</ele>
        <time>2021-03-25T08:37:01Z</time>
      </trkpt>
      <trkpt lat="45.5514" lon="6.76519">
        <ele>1640.1</ele>
        <time>2021-03-25T08:37:02Z</time>
      </trkpt>
      <trkpt lat="45.5514" lon="6.7652">
        <ele>1640.1</ele>
        <time>2021-03-25T08:37:03Z</time>
      </trkpt>
      <trkpt lat="45.55141" lon="6.76521">
        <ele>1640.1</ele>
        <time>2021-03-25T08:37:04Z</time>
      </trkpt>
      <trkpt lat="45.55141" lon="6.76522">
        <ele>1641.1</ele>
        <time>2021-03-25T08:37:05Z</time>
      </trkpt>
      <trkpt lat="45.55142" lon="6.76523">
        <ele>1641.3</ele>
        <time>2021-03-25T08:37:06Z</time>
      </trkpt>
      <trkpt lat="45.55142" lon="6.76524">
        <ele>1641.3</ele>
        <time>2021-03-25T08:37:07Z</time>
      </trkpt>
      <trkpt lat="45.55143" lon="6.76525">
        <ele>1641.3</ele>
        <time>2021-03-25T08:37:08Z</time>
      </trkpt>
      <trkpt lat="45.55143" lon="6.76525">
        <ele>1641.3</ele>
        <time>2021-03-25T08:37:09Z</time>
      </trkpt>
      <trkpt lat="45.55144" lon="6.76526">
        <ele>1642.3</ele>
        <time>2021-03-25T08:37:10Z</time>
      </trkpt>
      <trkpt lat="45.55145" lon="6.76527">
        <ele>1642.5</ele>
        <time>2021-03-25T08:37:11Z</time>
      </trkpt>
      <trkpt lat="45.55145" lon="6.76528">
        <ele>1642.5</ele>
        <time>2021-03-25T08:37:12Z</time>
      </trkpt>
      <trkpt lat="45.55146" lon="6.76528">
        <ele>1642.5</ele>
        <time>2021-03-25T08:37:13Z</time>
      </trkpt>
      <trkpt lat="45.55147" lon="6.76529">
        <ele>1642.5</ele>
        <time>2021-03-25T08:37:14Z</time>
      </trkpt>
      <trkpt lat="45.55147" lon="6.76529">
        <ele>1642.7</ele>
        <time>2021-03-25T08:37:15Z</time>
      </trkpt>
      <trkpt lat="45.55148" lon="6.7653">
        <ele>1642.7</ele>
        <time>2021-03-25T08:37:16Z</time>
      </trkpt>
      <trkpt lat="45.55149" lon="6.7653">
        <ele>1642.7</ele>
        <time>2021-03-25T08:37:17Z</time>
      </trkpt>
      <trkpt lat="45.5515" lon="6.7653">
        <ele>1642.7</ele>
        <time>2021-03-25T08:37:18Z</time>
      </trkpt>
      <trkpt lat="45.5515" lon="6.7653">
        <ele>1643.8</ele>
        <time>2021-03-25T08:37:19Z</time>
      </trkpt>
      <trkpt lat="45.55151" lon="6.76531">
        <ele>1644</ele>
        <time>2021-03-25T08:37:20Z</time>
      </trkpt>
      <trkpt lat="45.55152" lon="6.76531">
        <ele>1644</ele>
        <time>2021-03-25T08:37:21Z</time>
      </trkpt>
      <trkpt lat="45.55153" lon="6.76531">
        <ele>1644</ele>
        <time>2021-03-25T08:37:22Z</time>
      </trkpt>
      <trkpt lat="45.55153" lon="6.76531">
        <ele>1644</ele>
        <time>2021-03-25T08:37:23Z</time>
      </trkpt>
      <trkpt lat="45.55154" lon="6.76531">
        <ele>1644.3</ele>
        <time>2021-03-25T08:37:24Z</time>
      </trkpt>
      <trkpt lat="45.55154" lon="6.76532">
        <ele>1644.3</ele>
        <time>2021-03-25T08:37:25Z</time>
      </trkpt>
      <trkpt lat="45.55155" lon="6.76532">
        <ele>1644.3</ele>
        <time>2021-03-25T08:37:26Z</time>
      </trkpt>
      <trkpt lat="45.55156" lon="6.76532">
        <ele>1644.3</ele>
        <time>2021-03-25T08:37:27Z</time>
      </trkpt>
      <trkpt lat="45.55156" lon="6.76532">
        <ele>1644.3</ele>
        <time>2021-03-25T08:37:28Z</time>
      </trkpt>
      <trkpt lat="45.55157" lon="6.76532">
        <ele>1644.5</ele>
        <time>2021-03-25T08:37:29Z</time>
      </trkpt>
      <trkpt lat="45.55157" lon="6.76532">
        <ele>1644.5</ele>
        <time>2021-03-25T08:37:30Z</time>
      </trkpt>
      <trkpt lat="45.55158" lon="6.76532">
        <ele>1644.5</ele>
        <time>2021-03-25T08:37:31Z</time>
      </trkpt>
      <trkpt lat="45.55159" lon="6.76532">
        <ele>1644.5</ele>
        <time>2021-03-25T08:37:32Z</time>
      </trkpt>
      <trkpt lat="45.5516" lon="6.76532">
        <ele>1644.8</ele>
        <time>2021-03-25T08:37:33Z</time>
      </trkpt>
      <trkpt lat="45.5516" lon="6.76532">
        <ele>1644.8</ele>
        <time>2021-03-25T08:37:34Z</time>
      </trkpt>
      <trkpt lat="45.55161" lon="6.76532">
        <ele>1644.8</ele>
        <time>2021-03-25T08:37:35Z</time>
      </trkpt>
      <trkpt lat="45.55162" lon="6.76532">
        <ele>1644.8</ele>
        <time>2021-03-25T08:37:36Z</time>
      </trkpt>
      <trkpt lat="45.55163" lon="6.76532">
        <ele>1645.1</ele>
        <time>2021-03-25T08:37:37Z</time>
      </trkpt>
      <trkpt lat="45.55163" lon="6.76533">
        <ele>1645.1</ele>
        <time>2021-03-25T08:37:38Z</time>
      </trkpt>
      <trkpt lat="45.55164" lon="6.76533">
        <ele>1645.1</ele>
        <time>2021-03-25T08:37:39Z</time>
      </trkpt>
      <trkpt lat="45.55165" lon="6.76534">
        <ele>1645.1</ele>
        <time>2021-03-25T08:37:40Z</time>
      </trkpt>
      <trkpt lat="45.55166" lon="6.76534">
        <ele>1645.4</ele>
        <time>2021-03-25T08:37:41Z</time>
      </trkpt>
      <trkpt lat="45.55167" lon="6.76534">
        <ele>1645.4</ele>
        <time>2021-03-25T08:37:42Z</time>
      </trkpt>
      <trkpt lat="45.55167" lon="6.76535">
        <ele>1646.5</ele>
        <time>2021-03-25T08:37:43Z</time>
      </trkpt>
      <trkpt lat="45.55168" lon="6.76535">
        <ele>1646.5</ele>
        <time>2021-03-25T08:37:44Z</time>
      </trkpt>
      <trkpt lat="45.55169" lon="6.76536">
        <ele>1646.8</ele>
        <time>2021-03-25T08:37:45Z</time>
      </trkpt>
      <trkpt lat="45.5517" lon="6.76536">
        <ele>1646.8</ele>
        <time>2021-03-25T08:37:46Z</time>
      </trkpt>
      <trkpt lat="45.5517" lon="6.76536">
        <ele>1646.8</ele>
        <time>2021-03-25T08:37:47Z</time>
      </trkpt>
      <trkpt lat="45.55171" lon="6.76536">
        <ele>1646.8</ele>
        <time>2021-03-25T08:37:48Z</time>
      </trkpt>
      <trkpt lat="45.55172" lon="6.76537">
        <ele>1647.2</ele>
        <time>2021-03-25T08:37:49Z</time>
      </trkpt>
      <trkpt lat="45.55173" lon="6.76537">
        <ele>1647.2</ele>
        <time>2021-03-25T08:37:50Z</time>
      </trkpt>
      <trkpt lat="45.55174" lon="6.76538">
        <ele>1647.2</ele>
        <time>2021-03-25T08:37:51Z</time>
      </trkpt>
      <trkpt lat="45.55175" lon="6.76538">
        <ele>1647.5</ele>
        <time>2021-03-25T08:37:52Z</time>
      </trkpt>
      <trkpt lat="45.55175" lon="6.76539">
        <ele>1648.6</ele>
        <time>2021-03-25T08:37:53Z</time>
      </trkpt>
      <trkpt lat="45.55176" lon="6.7654">
        <ele>1648.6</ele>
        <time>2021-03-25T08:37:54Z</time>
      </trkpt>
      <trkpt lat="45.55177" lon="6.7654">
        <ele>1648.6</ele>
        <time>2021-03-25T08:37:55Z</time>
      </trkpt>
      <trkpt lat="45.55178" lon="6.76541">
        <ele>1649</ele>
        <time>2021-03-25T08:37:56Z</time>
      </trkpt>
      <trkpt lat="45.55179" lon="6.76541">
        <ele>1649</ele>
        <time>2021-03-25T08:37:57Z</time>
      </trkpt>
      <trkpt lat="45.5518" lon="6.76542">
        <ele>1649</ele>
        <time>2021-03-25T08:37:58Z</time>
      </trkpt>
      <trkpt lat="45.55181" lon="6.76542">
        <ele>1649.3</ele>
        <time>2021-03-25T08:37:59Z</time>
      </trkpt>
      <trkpt lat="45.55182" lon="6.76543">
        <ele>1649.3</ele>
        <time>2021-03-25T08:38:00Z</time>
      </trkpt>
      <trkpt lat="45.55183" lon="6.76543">
        <ele>1650.4</ele>
        <time>2021-03-25T08:38:01Z</time>
      </trkpt>
      <trkpt lat="45.55184" lon="6.76544">
        <ele>1650.8</ele>
        <time>2021-03-25T08:38:02Z</time>
      </trkpt>
      <trkpt lat="45.55185" lon="6.76544">
        <ele>1650.8</ele>
        <time>2021-03-25T08:38:03Z</time>
      </trkpt>
      <trkpt lat="45.55186" lon="6.76544">
        <ele>1650.8</ele>
        <time>2021-03-25T08:38:04Z</time>
      </trkpt>
      <trkpt lat="45.55187" lon="6.76545">
        <ele>1651.2</ele>
        <time>2021-03-25T08:38:05Z</time>
      </trkpt>
      <trkpt lat="45.55188" lon="6.76545">
        <ele>1651.2</ele>
        <time>2021-03-25T08:38:06Z</time>
      </trkpt>
      <trkpt lat="45.55189" lon="6.76545">
        <ele>1651.2</ele>
        <time>2021-03-25T08:38:07Z</time>
      </trkpt>
      <trkpt lat="45.5519" lon="6.76545">
        <ele>1651.6</ele>
        <time>2021-03-25T08:38:08Z</time>
      </trkpt>
      <trkpt lat="45.5519" lon="6.76545">
        <ele>1651.6</ele>
        <time>2021-03-25T08:38:09Z</time>
      </trkpt>
      <trkpt lat="45.55191" lon="6.76545">
        <ele>1651.6</ele>
        <time>2021-03-25T08:38:10Z</time>
      </trkpt>
      <trkpt lat="45.55192" lon="6.76545">
        <ele>1651.6</ele>
        <time>2021-03-25T08:38:11Z</time>
      </trkpt>
      <trkpt lat="45.55193" lon="6.76546">
        <ele>1652</ele>
        <time>2021-03-25T08:38:12Z</time>
      </trkpt>
      <trkpt lat="45.55194" lon="6.76546">
        <ele>1652</ele>
        <time>2021-03-25T08:38:13Z</time>
      </trkpt>
      <trkpt lat="45.55195" lon="6.76546">
        <ele>1652</ele>
        <time>2021-03-25T08:38:14Z</time>
      </trkpt>
      <trkpt lat="45.55195" lon="6.76546">
        <ele>1652</ele>
        <time>2021-03-25T08:38:15Z</time>
      </trkpt>
      <trkpt lat="45.55196" lon="6.76546">
        <ele>1652.4</ele>
        <time>2021-03-25T08:38:16Z</time>
      </trkpt>
      <trkpt lat="45.55197" lon="6.76546">
        <ele>1652.4</ele>
        <time>2021-03-25T08:38:17Z</time>
      </trkpt>
      <trkpt lat="45.55198" lon="6.76547">
        <ele>1652.4</ele>
        <time>2021-03-25T08:38:18Z</time>
      </trkpt>
      <trkpt lat="45.55198" lon="6.76547">
        <ele>1652.4</ele>
        <time>2021-03-25T08:38:19Z</time>
      </trkpt>
      <trkpt lat="45.55199" lon="6.76547">
        <ele>1652.9</ele>
        <time>2021-03-25T08:38:20Z</time>
      </trkpt>
      <trkpt lat="45.552" lon="6.76548">
        <ele>1654.1</ele>
        <time>2021-03-25T08:38:21Z</time>
      </trkpt>
      <trkpt lat="45.552" lon="6.76548">
        <ele>1654.1</ele>
        <time>2021-03-25T08:38:22Z</time>
      </trkpt>
      <trkpt lat="45.55201" lon="6.76548">
        <ele>1654.1</ele>
        <time>2021-03-25T08:38:23Z</time>
      </trkpt>
      <trkpt lat="45.55201" lon="6.76549">
        <ele>1654.1</ele>
        <time>2021-03-25T08:38:24Z</time>
      </trkpt>
      <trkpt lat="45.55202" lon="6.76549">
        <ele>1654.5</ele>
        <time>2021-03-25T08:38:25Z</time>
      </trkpt>
      <trkpt lat="45.55202" lon="6.76549">
        <ele>1654.5</ele>
        <time>2021-03-25T08:38:26Z</time>
      </trkpt>
      <trkpt lat="45.55203" lon="6.76549">
        <ele>1654.5</ele>
        <time>2021-03-25T08:38:27Z</time>
      </trkpt>
      <trkpt lat="45.55203" lon="6.76549">
        <ele>1654.5</ele>
        <time>2021-03-25T08:38:28Z</time>
      </trkpt>
      <trkpt lat="45.55204" lon="6.76549">
        <ele>1654.5</ele>
        <time>2021-03-25T08:38:29Z</time>
      </trkpt>
      <trkpt lat="45.55204" lon="6.76548">
        <ele>1654.5</ele>
        <time>2021-03-25T08:38:30Z</time>
      </trkpt>
      <trkpt lat="45.55205" lon="6.76548">
        <ele>1654.8</ele>
        <time>2021-03-25T08:38:31Z</time>
      </trkpt>
      <trkpt lat="45.55206" lon="6.76548">
        <ele>1654.8</ele>
        <time>2021-03-25T08:38:32Z</time>
      </trkpt>
      <trkpt lat="45.55206" lon="6.76548">
        <ele>1653.6</ele>
        <time>2021-03-25T08:38:33Z</time>
      </trkpt>
      <trkpt lat="45.55207" lon="6.76547">
        <ele>1653.6</ele>
        <time>2021-03-25T08:38:34Z</time>
      </trkpt>
      <trkpt lat="45.55207" lon="6.76547">
        <ele>1653.6</ele>
        <time>2021-03-25T08:38:35Z</time>
      </trkpt>
      <trkpt lat="45.55208" lon="6.76547">
        <ele>1653.9</ele>
        <time>2021-03-25T08:38:36Z</time>
      </trkpt>
      <trkpt lat="45.55208" lon="6.76547">
        <ele>1653.9</ele>
        <time>2021-03-25T08:38:37Z</time>
      </trkpt>
      <trkpt lat="45.55209" lon="6.76547">
        <ele>1653.9</ele>
        <time>2021-03-25T08:38:38Z</time>
      </trkpt>
      <trkpt lat="45.5521" lon="6.76547">
        <ele>1653.9</ele>
        <time>2021-03-25T08:38:39Z</time>
      </trkpt>
      <trkpt lat="45.55211" lon="6.76547">
        <ele>1654.2</ele>
        <time>2021-03-25T08:38:40Z</time>
      </trkpt>
      <trkpt lat="45.55212" lon="6.76547">
        <ele>1654.2</ele>
        <time>2021-03-25T08:38:41Z</time>
      </trkpt>
      <trkpt lat="45.55212" lon="6.76547">
        <ele>1654.2</ele>
        <time>2021-03-25T08:38:42Z</time>
      </trkpt>
      <trkpt lat="45.55213" lon="6.76547">
        <ele>1654.2</ele>
        <time>2021-03-25T08:38:43Z</time>
      </trkpt>
      <trkpt lat="45.55214" lon="6.76548">
        <ele>1654.5</ele>
        <time>2021-03-25T08:38:44Z</time>
      </trkpt>
      <trkpt lat="45.55214" lon="6.76548">
        <ele>1655.8</ele>
        <time>2021-03-25T08:38:45Z</time>
      </trkpt>
      <trkpt lat="45.55215" lon="6.76548">
        <ele>1655.8</ele>
        <time>2021-03-25T08:38:46Z</time>
      </trkpt>
      <trkpt lat="45.55215" lon="6.76549">
        <ele>1655.8</ele>
        <time>2021-03-25T08:38:47Z</time>
      </trkpt>
      <trkpt lat="45.55216" lon="6.76549">
        <ele>1655.8</ele>
        <time>2021-03-25T08:38:48Z</time>
      </trkpt>
      <trkpt lat="45.55217" lon="6.7655">
        <ele>1656</ele>
        <time>2021-03-25T08:38:49Z</time>
      </trkpt>
      <trkpt lat="45.55217" lon="6.7655">
        <ele>1656</ele>
        <time>2021-03-25T08:38:50Z</time>
      </trkpt>
      <trkpt lat="45.55218" lon="6.76551">
        <ele>1656</ele>
        <time>2021-03-25T08:38:51Z</time>
      </trkpt>
      <trkpt lat="45.55218" lon="6.76552">
        <ele>1656</ele>
        <time>2021-03-25T08:38:52Z</time>
      </trkpt>
      <trkpt lat="45.55219" lon="6.76553">
        <ele>1657.3</ele>
        <time>2021-03-25T08:38:53Z</time>
      </trkpt>
      <trkpt lat="45.5522" lon="6.76554">
        <ele>1657.5</ele>
        <time>2021-03-25T08:38:54Z</time>
      </trkpt>
      <trkpt lat="45.5522" lon="6.76555">
        <ele>1657.5</ele>
        <time>2021-03-25T08:38:55Z</time>
      </trkpt>
      <trkpt lat="45.55221" lon="6.76555">
        <ele>1657.5</ele>
        <time>2021-03-25T08:38:56Z</time>
      </trkpt>
      <trkpt lat="45.55222" lon="6.76556">
        <ele>1657.5</ele>
        <time>2021-03-25T08:38:57Z</time>
      </trkpt>
      <trkpt lat="45.55222" lon="6.76557">
        <ele>1658.7</ele>
        <time>2021-03-25T08:38:58Z</time>
      </trkpt>
      <trkpt lat="45.55223" lon="6.76558">
        <ele>1658.9</ele>
        <time>2021-03-25T08:38:59Z</time>
      </trkpt>
      <trkpt lat="45.55223" lon="6.76559">
        <ele>1658.9</ele>
        <time>2021-03-25T08:39:00Z</time>
      </trkpt>
      <trkpt lat="45.55224" lon="6.7656">
        <ele>1658.9</ele>
        <time>2021-03-25T08:39:01Z</time>
      </trkpt>
      <trkpt lat="45.55224" lon="6.7656">
        <ele>1658.9</ele>
        <time>2021-03-25T08:39:02Z</time>
      </trkpt>
      <trkpt lat="45.55225" lon="6.76561">
        <ele>1660</ele>
        <time>2021-03-25T08:39:03Z</time>
      </trkpt>
      <trkpt lat="45.55225" lon="6.76561">
        <ele>1660</ele>
        <time>2021-03-25T08:39:04Z</time>
      </trkpt>
      <trkpt lat="45.55226" lon="6.76562">
        <ele>1660.1</ele>
        <time>2021-03-25T08:39:05Z</time>
      </trkpt>
      <trkpt lat="45.55227" lon="6.76563">
        <ele>1660.1</ele>
        <time>2021-03-25T08:39:06Z</time>
      </trkpt>
      <trkpt lat="45.55227" lon="6.76564">
        <ele>1660.1</ele>
        <time>2021-03-25T08:39:07Z</time>
      </trkpt>
      <trkpt lat="45.55228" lon="6.76565">
        <ele>1660.1</ele>
        <time>2021-03-25T08:39:08Z</time>
      </trkpt>
      <trkpt lat="45.55228" lon="6.76566">
        <ele>1661.2</ele>
        <time>2021-03-25T08:39:09Z</time>
      </trkpt>
      <trkpt lat="45.55229" lon="6.76567">
        <ele>1661.3</ele>
        <time>2021-03-25T08:39:10Z</time>
      </trkpt>
      <trkpt lat="45.5523" lon="6.76567">
        <ele>1661.3</ele>
        <time>2021-03-25T08:39:11Z</time>
      </trkpt>
      <trkpt lat="45.5523" lon="6.76568">
        <ele>1661.3</ele>
        <time>2021-03-25T08:39:12Z</time>
      </trkpt>
      <trkpt lat="45.55231" lon="6.76569">
        <ele>1662.3</ele>
        <time>2021-03-25T08:39:13Z</time>
      </trkpt>
      <trkpt lat="45.55231" lon="6.7657">
        <ele>1662.3</ele>
        <time>2021-03-25T08:39:14Z</time>
      </trkpt>
      <trkpt lat="45.55232" lon="6.76571">
        <ele>1662.5</ele>
        <time>2021-03-25T08:39:15Z</time>
      </trkpt>
      <trkpt lat="45.55232" lon="6.76572">
        <ele>1662.5</ele>
        <time>2021-03-25T08:39:16Z</time>
      </trkpt>
      <trkpt lat="45.55233" lon="6.76573">
        <ele>1662.5</ele>
        <time>2021-03-25T08:39:17Z</time>
      </trkpt>
      <trkpt lat="45.55233" lon="6.76573">
        <ele>1663.5</ele>
        <time>2021-03-25T08:39:18Z</time>
      </trkpt>
      <trkpt lat="45.55234" lon="6.76574">
        <ele>1663.5</ele>
        <time>2021-03-25T08:39:19Z</time>
      </trkpt>
      <trkpt lat="45.55234" lon="6.76575">
        <ele>1663.5</ele>
        <time>2021-03-25T08:39:20Z</time>
      </trkpt>
      <trkpt lat="45.55235" lon="6.76576">
        <ele>1663.6</ele>
        <time>2021-03-25T08:39:21Z</time>
      </trkpt>
      <trkpt lat="45.55235" lon="6.76577">
        <ele>1663.6</ele>
        <time>2021-03-25T08:39:22Z</time>
      </trkpt>
      <trkpt lat="45.55235" lon="6.76578">
        <ele>1664.7</ele>
        <time>2021-03-25T08:39:23Z</time>
      </trkpt>
      <trkpt lat="45.55236" lon="6.76579">
        <ele>1664.7</ele>
        <time>2021-03-25T08:39:24Z</time>
      </trkpt>
      <trkpt lat="45.55236" lon="6.7658">
        <ele>1664.7</ele>
        <time>2021-03-25T08:39:25Z</time>
      </trkpt>
      <trkpt lat="45.55237" lon="6.76581">
        <ele>1664.7</ele>
        <time>2021-03-25T08:39:26Z</time>
      </trkpt>
      <trkpt lat="45.55237" lon="6.76581">
        <ele>1664.7</ele>
        <time>2021-03-25T08:39:27Z</time>
      </trkpt>
      <trkpt lat="45.55238" lon="6.76582">
        <ele>1666</ele>
        <time>2021-03-25T08:39:28Z</time>
      </trkpt>
      <trkpt lat="45.55238" lon="6.76583">
        <ele>1666</ele>
        <time>2021-03-25T08:39:29Z</time>
      </trkpt>
      <trkpt lat="45.55238" lon="6.76584">
        <ele>1666</ele>
        <time>2021-03-25T08:39:30Z</time>
      </trkpt>
      <trkpt lat="45.55239" lon="6.76584">
        <ele>1666</ele>
        <time>2021-03-25T08:39:31Z</time>
      </trkpt>
      <trkpt lat="45.55239" lon="6.76585">
        <ele>1666</ele>
        <time>2021-03-25T08:39:32Z</time>
      </trkpt>
      <trkpt lat="45.55239" lon="6.76586">
        <ele>1667.2</ele>
        <time>2021-03-25T08:39:33Z</time>
      </trkpt>
      <trkpt lat="45.55239" lon="6.76587">
        <ele>1667.2</ele>
        <time>2021-03-25T08:39:34Z</time>
      </trkpt>
      <trkpt lat="45.55239" lon="6.76588">
        <ele>1667.2</ele>
        <time>2021-03-25T08:39:35Z</time>
      </trkpt>
      <trkpt lat="45.55239" lon="6.76589">
        <ele>1667.2</ele>
        <time>2021-03-25T08:39:36Z</time>
      </trkpt>
      <trkpt lat="45.55239" lon="6.7659">
        <ele>1667.2</ele>
        <time>2021-03-25T08:39:37Z</time>
      </trkpt>
      <trkpt lat="45.55239" lon="6.76591">
        <ele>1668.4</ele>
        <time>2021-03-25T08:39:38Z</time>
      </trkpt>
      <trkpt lat="45.55238" lon="6.76592">
        <ele>1668.4</ele>
        <time>2021-03-25T08:39:39Z</time>
      </trkpt>
      <trkpt lat="45.55238" lon="6.76593">
        <ele>1668.4</ele>
        <time>2021-03-25T08:39:40Z</time>
      </trkpt>
      <trkpt lat="45.55238" lon="6.76594">
        <ele>1668.4</ele>
        <time>2021-03-25T08:39:41Z</time>
      </trkpt>
      <trkpt lat="45.55237" lon="6.76595">
        <ele>1669.4</ele>
        <time>2021-03-25T08:39:42Z</time>
      </trkpt>
      <trkpt lat="45.55237" lon="6.76596">
        <ele>1669.4</ele>
        <time>2021-03-25T08:39:43Z</time>
      </trkpt>
      <trkpt lat="45.55237" lon="6.76598">
        <ele>1669.4</ele>
        <time>2021-03-25T08:39:44Z</time>
      </trkpt>
      <trkpt lat="45.55236" lon="6.76599">
        <ele>1669.4</ele>
        <time>2021-03-25T08:39:45Z</time>
      </trkpt>
      <trkpt lat="45.55235" lon="6.766">
        <ele>1670.4</ele>
        <time>2021-03-25T08:39:46Z</time>
      </trkpt>
      <trkpt lat="45.55235" lon="6.76601">
        <ele>1670.4</ele>
        <time>2021-03-25T08:39:47Z</time>
      </trkpt>
      <trkpt lat="45.55234" lon="6.76601">
        <ele>1670.2</ele>
        <time>2021-03-25T08:39:48Z</time>
      </trkpt>
      <trkpt lat="45.55234" lon="6.76602">
        <ele>1670.2</ele>
        <time>2021-03-25T08:39:49Z</time>
      </trkpt>
      <trkpt lat="45.55233" lon="6.76603">
        <ele>1670.2</ele>
        <time>2021-03-25T08:39:50Z</time>
      </trkpt>
      <trkpt lat="45.55233" lon="6.76604">
        <ele>1671.2</ele>
        <time>2021-03-25T08:39:51Z</time>
      </trkpt>
      <trkpt lat="45.55232" lon="6.76604">
        <ele>1671.2</ele>
        <time>2021-03-25T08:39:52Z</time>
      </trkpt>
      <trkpt lat="45.55232" lon="6.76605">
        <ele>1671.2</ele>
        <time>2021-03-25T08:39:53Z</time>
      </trkpt>
      <trkpt lat="45.55232" lon="6.76605">
        <ele>1671.2</ele>
        <time>2021-03-25T08:39:54Z</time>
      </trkpt>
      <trkpt lat="45.55232" lon="6.76606">
        <ele>1671.2</ele>
        <time>2021-03-25T08:39:55Z</time>
      </trkpt>
      <trkpt lat="45.55231" lon="6.76607">
        <ele>1671</ele>
        <time>2021-03-25T08:39:56Z</time>
      </trkpt>
      <trkpt lat="45.55232" lon="6.76607">
        <ele>1671.2</ele>
        <time>2021-03-25T08:39:57Z</time>
      </trkpt>
      <trkpt lat="45.55232" lon="6.76608">
        <ele>1671.2</ele>
        <time>2021-03-25T08:39:58Z</time>
      </trkpt>
      <trkpt lat="45.55232" lon="6.76608">
        <ele>1672.2</ele>
        <time>2021-03-25T08:39:59Z</time>
      </trkpt>
      <trkpt lat="45.55233" lon="6.76608">
        <ele>1672.2</ele>
        <time>2021-03-25T08:40:00Z</time>
      </trkpt>
      <trkpt lat="45.55233" lon="6.76608">
        <ele>1672.2</ele>
        <time>2021-03-25T08:40:01Z</time>
      </trkpt>
      <trkpt lat="45.55233" lon="6.76608">
        <ele>1672.2</ele>
        <time>2021-03-25T08:40:02Z</time>
      </trkpt>
      <trkpt lat="45.55234" lon="6.76608">
        <ele>1672.2</ele>
        <time>2021-03-25T08:40:03Z</time>
      </trkpt>
      <trkpt lat="45.55234" lon="6.76608">
        <ele>1672.2</ele>
        <time>2021-03-25T08:40:04Z</time>
      </trkpt>
      <trkpt lat="45.55234" lon="6.76608">
        <ele>1672.2</ele>
        <time>2021-03-25T08:40:05Z</time>
      </trkpt>
      <trkpt lat="45.55234" lon="6.76609">
        <ele>1672.2</ele>
        <time>2021-03-25T08:40:06Z</time>
      </trkpt>
      <trkpt lat="45.55235" lon="6.76609">
        <ele>1672.4</ele>
        <time>2021-03-25T08:40:07Z</time>
      </trkpt>
      <trkpt lat="45.55236" lon="6.7661">
        <ele>1672.4</ele>
        <time>2021-03-25T08:40:08Z</time>
      </trkpt>
      <trkpt lat="45.55236" lon="6.7661">
        <ele>1672.4</ele>
        <time>2021-03-25T08:40:09Z</time>
      </trkpt>
      <trkpt lat="45.55237" lon="6.7661">
        <ele>1672.4</ele>
        <time>2021-03-25T08:40:10Z</time>
      </trkpt>
      <trkpt lat="45.55238" lon="6.76611">
        <ele>1672.6</ele>
        <time>2021-03-25T08:40:14Z</time>
      </trkpt>
      <trkpt lat="45.55238" lon="6.76611">
        <ele>1672.6</ele>
        <time>2021-03-25T08:40:15Z</time>
      </trkpt>
      <trkpt lat="45.55239" lon="6.76612">
        <ele>1672.6</ele>
        <time>2021-03-25T08:40:16Z</time>
      </trkpt>
      <trkpt lat="45.5524" lon="6.76612">
        <ele>1672.6</ele>
        <time>2021-03-25T08:40:17Z</time>
      </trkpt>
      <trkpt lat="45.5524" lon="6.76612">
        <ele>1673.5</ele>
        <time>2021-03-25T08:40:18Z</time>
      </trkpt>
      <trkpt lat="45.55241" lon="6.76613">
        <ele>1673.7</ele>
        <time>2021-03-25T08:40:19Z</time>
      </trkpt>
      <trkpt lat="45.55241" lon="6.76614">
        <ele>1673.7</ele>
        <time>2021-03-25T08:40:20Z</time>
      </trkpt>
      <trkpt lat="45.55242" lon="6.76614">
        <ele>1673.7</ele>
        <time>2021-03-25T08:40:21Z</time>
      </trkpt>
      <trkpt lat="45.55242" lon="6.76615">
        <ele>1673.7</ele>
        <time>2021-03-25T08:40:22Z</time>
      </trkpt>
      <trkpt lat="45.55243" lon="6.76615">
        <ele>1673.7</ele>
        <time>2021-03-25T08:40:23Z</time>
      </trkpt>
      <trkpt lat="45.55243" lon="6.76616">
        <ele>1673.7</ele>
        <time>2021-03-25T08:40:24Z</time>
      </trkpt>
      <trkpt lat="45.55244" lon="6.76616">
        <ele>1674.9</ele>
        <time>2021-03-25T08:40:25Z</time>
      </trkpt>
      <trkpt lat="45.55244" lon="6.76617">
        <ele>1674.9</ele>
        <time>2021-03-25T08:40:26Z</time>
      </trkpt>
      <trkpt lat="45.55244" lon="6.76618">
        <ele>1674.9</ele>
        <time>2021-03-25T08:40:27Z</time>
      </trkpt>
      <trkpt lat="45.55244" lon="6.76619">
        <ele>1674.9</ele>
        <time>2021-03-25T08:40:28Z</time>
      </trkpt>
      <trkpt lat="45.55244" lon="6.76619">
        <ele>1674.9</ele>
        <time>2021-03-25T08:40:29Z</time>
      </trkpt>
      <trkpt lat="45.55244" lon="6.7662">
        <ele>1674.7</ele>
        <time>2021-03-25T08:40:30Z</time>
      </trkpt>
      <trkpt lat="45.55243" lon="6.76622">
        <ele>1675.6</ele>
        <time>2021-03-25T08:40:31Z</time>
      </trkpt>
      <trkpt lat="45.55243" lon="6.76622">
        <ele>1675.6</ele>
        <time>2021-03-25T08:40:32Z</time>
      </trkpt>
      <trkpt lat="45.55242" lon="6.76623">
        <ele>1675.6</ele>
        <time>2021-03-25T08:40:33Z</time>
      </trkpt>
      <trkpt lat="45.55242" lon="6.76624">
        <ele>1675.6</ele>
        <time>2021-03-25T08:40:34Z</time>
      </trkpt>
      <trkpt lat="45.55241" lon="6.76625">
        <ele>1675.6</ele>
        <time>2021-03-25T08:40:35Z</time>
      </trkpt>
      <trkpt lat="45.55241" lon="6.76625">
        <ele>1676.4</ele>
        <time>2021-03-25T08:40:36Z</time>
      </trkpt>
      <trkpt lat="45.5524" lon="6.76626">
        <ele>1676.4</ele>
        <time>2021-03-25T08:40:37Z</time>
      </trkpt>
      <trkpt lat="45.5524" lon="6.76627">
        <ele>1676.4</ele>
        <time>2021-03-25T08:40:38Z</time>
      </trkpt>
      <trkpt lat="45.55239" lon="6.76627">
        <ele>1676.4</ele>
        <time>2021-03-25T08:40:39Z</time>
      </trkpt>
      <trkpt lat="45.55239" lon="6.76628">
        <ele>1676.4</ele>
        <time>2021-03-25T08:40:40Z</time>
      </trkpt>
      <trkpt lat="45.55238" lon="6.76629">
        <ele>1676.4</ele>
        <time>2021-03-25T08:40:41Z</time>
      </trkpt>
      <trkpt lat="45.55238" lon="6.7663">
        <ele>1677.5</ele>
        <time>2021-03-25T08:40:42Z</time>
      </trkpt>
      <trkpt lat="45.55238" lon="6.7663">
        <ele>1677.5</ele>
        <time>2021-03-25T08:40:43Z</time>
      </trkpt>
      <trkpt lat="45.55237" lon="6.76631">
        <ele>1677.2</ele>
        <time>2021-03-25T08:40:44Z</time>
      </trkpt>
      <trkpt lat="45.55237" lon="6.76632">
        <ele>1677.2</ele>
        <time>2021-03-25T08:40:45Z</time>
      </trkpt>
      <trkpt lat="45.55237" lon="6.76633">
        <ele>1677.2</ele>
        <time>2021-03-25T08:40:46Z</time>
      </trkpt>
      <trkpt lat="45.55237" lon="6.76634">
        <ele>1678.4</ele>
        <time>2021-03-25T08:40:47Z</time>
      </trkpt>
      <trkpt lat="45.55237" lon="6.76635">
        <ele>1678.4</ele>
        <time>2021-03-25T08:40:48Z</time>
      </trkpt>
      <trkpt lat="45.55236" lon="6.76636">
        <ele>1678.4</ele>
        <time>2021-03-25T08:40:49Z</time>
      </trkpt>
      <trkpt lat="45.55236" lon="6.76637">
        <ele>1678.4</ele>
        <time>2021-03-25T08:40:50Z</time>
      </trkpt>
      <trkpt lat="45.55236" lon="6.76638">
        <ele>1679.5</ele>
        <time>2021-03-25T08:40:51Z</time>
      </trkpt>
      <trkpt lat="45.55235" lon="6.76639">
        <ele>1679.5</ele>
        <time>2021-03-25T08:40:52Z</time>
      </trkpt>
      <trkpt lat="45.55236" lon="6.7664">
        <ele>1679.5</ele>
        <time>2021-03-25T08:40:53Z</time>
      </trkpt>
      <trkpt lat="45.55236" lon="6.76641">
        <ele>1679.5</ele>
        <time>2021-03-25T08:40:54Z</time>
      </trkpt>
      <trkpt lat="45.55237" lon="6.76641">
        <ele>1679.5</ele>
        <time>2021-03-25T08:40:55Z</time>
      </trkpt>
      <trkpt lat="45.55237" lon="6.76642">
        <ele>1679.5</ele>
        <time>2021-03-25T08:40:56Z</time>
      </trkpt>
      <trkpt lat="45.55238" lon="6.76643">
        <ele>1680.9</ele>
        <time>2021-03-25T08:40:57Z</time>
      </trkpt>
      <trkpt lat="45.55238" lon="6.76644">
        <ele>1680.9</ele>
        <time>2021-03-25T08:40:58Z</time>
      </trkpt>
      <trkpt lat="45.55239" lon="6.76645">
        <ele>1680.9</ele>
        <time>2021-03-25T08:40:59Z</time>
      </trkpt>
      <trkpt lat="45.55239" lon="6.76645">
        <ele>1680.9</ele>
        <time>2021-03-25T08:41:00Z</time>
      </trkpt>
      <trkpt lat="45.5524" lon="6.76646">
        <ele>1680.9</ele>
        <time>2021-03-25T08:41:01Z</time>
      </trkpt>
      <trkpt lat="45.5524" lon="6.76647">
        <ele>1682</ele>
        <time>2021-03-25T08:41:02Z</time>
      </trkpt>
      <trkpt lat="45.55241" lon="6.76648">
        <ele>1682</ele>
        <time>2021-03-25T08:41:03Z</time>
      </trkpt>
      <trkpt lat="45.55241" lon="6.76648">
        <ele>1682.3</ele>
        <time>2021-03-25T08:41:04Z</time>
      </trkpt>
      <trkpt lat="45.55242" lon="6.76649">
        <ele>1682.3</ele>
        <time>2021-03-25T08:41:05Z</time>
      </trkpt>
      <trkpt lat="45.55242" lon="6.7665">
        <ele>1682.3</ele>
        <time>2021-03-25T08:41:06Z</time>
      </trkpt>
      <trkpt lat="45.55242" lon="6.76651">
        <ele>1682.3</ele>
        <time>2021-03-25T08:41:07Z</time>
      </trkpt>
      <trkpt lat="45.55243" lon="6.76651">
        <ele>1683.4</ele>
        <time>2021-03-25T08:41:08Z</time>
      </trkpt>
      <trkpt lat="45.55243" lon="6.76652">
        <ele>1683.4</ele>
        <time>2021-03-25T08:41:09Z</time>
      </trkpt>
      <trkpt lat="45.55244" lon="6.76653">
        <ele>1683.6</ele>
        <time>2021-03-25T08:41:10Z</time>
      </trkpt>
      <trkpt lat="45.55244" lon="6.76653">
        <ele>1683.6</ele>
        <time>2021-03-25T08:41:11Z</time>
      </trkpt>
      <trkpt lat="45.55245" lon="6.76654">
        <ele>1683.6</ele>
        <time>2021-03-25T08:41:12Z</time>
      </trkpt>
      <trkpt lat="45.55246" lon="6.76655">
        <ele>1684.7</ele>
        <time>2021-03-25T08:41:13Z</time>
      </trkpt>
      <trkpt lat="45.55246" lon="6.76656">
        <ele>1684.7</ele>
        <time>2021-03-25T08:41:14Z</time>
      </trkpt>
      <trkpt lat="45.55247" lon="6.76657">
        <ele>1684.9</ele>
        <time>2021-03-25T08:41:15Z</time>
      </trkpt>
      <trkpt lat="45.55247" lon="6.76657">
        <ele>1684.9</ele>
        <time>2021-03-25T08:41:16Z</time>
      </trkpt>
      <trkpt lat="45.55248" lon="6.76658">
        <ele>1684.9</ele>
        <time>2021-03-25T08:41:17Z</time>
      </trkpt>
      <trkpt lat="45.55248" lon="6.76659">
        <ele>1684.9</ele>
        <time>2021-03-25T08:41:18Z</time>
      </trkpt>
      <trkpt lat="45.55249" lon="6.76659">
        <ele>1684.9</ele>
        <time>2021-03-25T08:41:19Z</time>
      </trkpt>
      <trkpt lat="45.55249" lon="6.7666">
        <ele>1685.9</ele>
        <time>2021-03-25T08:41:20Z</time>
      </trkpt>
      <trkpt lat="45.5525" lon="6.7666">
        <ele>1686.2</ele>
        <time>2021-03-25T08:41:21Z</time>
      </trkpt>
      <trkpt lat="45.55251" lon="6.76661">
        <ele>1686.2</ele>
        <time>2021-03-25T08:41:22Z</time>
      </trkpt>
      <trkpt lat="45.55252" lon="6.76661">
        <ele>1686.2</ele>
        <time>2021-03-25T08:41:23Z</time>
      </trkpt>
      <trkpt lat="45.55252" lon="6.76661">
        <ele>1686.2</ele>
        <time>2021-03-25T08:41:24Z</time>
      </trkpt>
      <trkpt lat="45.55253" lon="6.76661">
        <ele>1686.5</ele>
        <time>2021-03-25T08:41:25Z</time>
      </trkpt>
      <trkpt lat="45.55253" lon="6.76661">
        <ele>1686.5</ele>
        <time>2021-03-25T08:41:26Z</time>
      </trkpt>
      <trkpt lat="45.55253" lon="6.76661">
        <ele>1686.5</ele>
        <time>2021-03-25T08:41:27Z</time>
      </trkpt>
      <trkpt lat="45.55254" lon="6.76661">
        <ele>1686.5</ele>
        <time>2021-03-25T08:41:28Z</time>
      </trkpt>
      <trkpt lat="45.55254" lon="6.76662">
        <ele>1686.5</ele>
        <time>2021-03-25T08:41:29Z</time>
      </trkpt>
      <trkpt lat="45.55254" lon="6.76662">
        <ele>1686.5</ele>
        <time>2021-03-25T08:41:30Z</time>
      </trkpt>
      <trkpt lat="45.55254" lon="6.76663">
        <ele>1686.5</ele>
        <time>2021-03-25T08:41:31Z</time>
      </trkpt>
      <trkpt lat="45.55254" lon="6.76663">
        <ele>1687.5</ele>
        <time>2021-03-25T08:41:32Z</time>
      </trkpt>
      <trkpt lat="45.55254" lon="6.76664">
        <ele>1687.5</ele>
        <time>2021-03-25T08:41:33Z</time>
      </trkpt>
      <trkpt lat="45.55253" lon="6.76665">
        <ele>1687.5</ele>
        <time>2021-03-25T08:41:34Z</time>
      </trkpt>
      <trkpt lat="45.55253" lon="6.76666">
        <ele>1687.5</ele>
        <time>2021-03-25T08:41:35Z</time>
      </trkpt>
      <trkpt lat="45.55252" lon="6.76667">
        <ele>1687.2</ele>
        <time>2021-03-25T08:41:36Z</time>
      </trkpt>
      <trkpt lat="45.55252" lon="6.76668">
        <ele>1688.3</ele>
        <time>2021-03-25T08:41:37Z</time>
      </trkpt>
      <trkpt lat="45.55251" lon="6.76669">
        <ele>1688.3</ele>
        <time>2021-03-25T08:41:38Z</time>
      </trkpt>
      <trkpt lat="45.55251" lon="6.7667">
        <ele>1688.3</ele>
        <time>2021-03-25T08:41:39Z</time>
      </trkpt>
      <trkpt lat="45.55251" lon="6.76671">
        <ele>1688.3</ele>
        <time>2021-03-25T08:41:40Z</time>
      </trkpt>
      <trkpt lat="45.5525" lon="6.76672">
        <ele>1688.3</ele>
        <time>2021-03-25T08:41:41Z</time>
      </trkpt>
      <trkpt lat="45.5525" lon="6.76672">
        <ele>1689.2</ele>
        <time>2021-03-25T08:41:42Z</time>
      </trkpt>
      <trkpt lat="45.55249" lon="6.76673">
        <ele>1689.2</ele>
        <time>2021-03-25T08:41:43Z</time>
      </trkpt>
      <trkpt lat="45.55249" lon="6.76674">
        <ele>1689.2</ele>
        <time>2021-03-25T08:41:44Z</time>
      </trkpt>
      <trkpt lat="45.55248" lon="6.76675">
        <ele>1689.2</ele>
        <time>2021-03-25T08:41:45Z</time>
      </trkpt>
      <trkpt lat="45.55247" lon="6.76675">
        <ele>1689.2</ele>
        <time>2021-03-25T08:41:46Z</time>
      </trkpt>
      <trkpt lat="45.55247" lon="6.76676">
        <ele>1689.2</ele>
        <time>2021-03-25T08:41:47Z</time>
      </trkpt>
      <trkpt lat="45.55246" lon="6.76676">
        <ele>1690.2</ele>
        <time>2021-03-25T08:41:48Z</time>
      </trkpt>
      <trkpt lat="45.55246" lon="6.76677">
        <ele>1690.2</ele>
        <time>2021-03-25T08:41:49Z</time>
      </trkpt>
      <trkpt lat="45.55246" lon="6.76678">
        <ele>1690.2</ele>
        <time>2021-03-25T08:41:50Z</time>
      </trkpt>
      <trkpt lat="45.55245" lon="6.76679">
        <ele>1690.2</ele>
        <time>2021-03-25T08:41:51Z</time>
      </trkpt>
      <trkpt lat="45.55246" lon="6.76679">
        <ele>1690.2</ele>
        <time>2021-03-25T08:41:52Z</time>
      </trkpt>
      <trkpt lat="45.55246" lon="6.7668">
        <ele>1690.2</ele>
        <time>2021-03-25T08:41:53Z</time>
      </trkpt>
      <trkpt lat="45.55247" lon="6.76681">
        <ele>1691.4</ele>
        <time>2021-03-25T08:41:54Z</time>
      </trkpt>
      <trkpt lat="45.55247" lon="6.76681">
        <ele>1691.6</ele>
        <time>2021-03-25T08:41:55Z</time>
      </trkpt>
      <trkpt lat="45.55248" lon="6.76682">
        <ele>1691.6</ele>
        <time>2021-03-25T08:41:56Z</time>
      </trkpt>
      <trkpt lat="45.55249" lon="6.76682">
        <ele>1691.6</ele>
        <time>2021-03-25T08:41:57Z</time>
      </trkpt>
      <trkpt lat="45.55249" lon="6.76683">
        <ele>1691.6</ele>
        <time>2021-03-25T08:41:58Z</time>
      </trkpt>
      <trkpt lat="45.5525" lon="6.76683">
        <ele>1691.8</ele>
        <time>2021-03-25T08:41:59Z</time>
      </trkpt>
      <trkpt lat="45.5525" lon="6.76683">
        <ele>1691.8</ele>
        <time>2021-03-25T08:42:00Z</time>
      </trkpt>
      <trkpt lat="45.55251" lon="6.76684">
        <ele>1691.8</ele>
        <time>2021-03-25T08:42:01Z</time>
      </trkpt>
      <trkpt lat="45.55252" lon="6.76684">
        <ele>1691.8</ele>
        <time>2021-03-25T08:42:02Z</time>
      </trkpt>
      <trkpt lat="45.55252" lon="6.76684">
        <ele>1691.8</ele>
        <time>2021-03-25T08:42:03Z</time>
      </trkpt>
      <trkpt lat="45.55253" lon="6.76684">
        <ele>1692.1</ele>
        <time>2021-03-25T08:42:04Z</time>
      </trkpt>
      <trkpt lat="45.55253" lon="6.76685">
        <ele>1692.1</ele>
        <time>2021-03-25T08:42:05Z</time>
      </trkpt>
      <trkpt lat="45.55254" lon="6.76685">
        <ele>1692.1</ele>
        <time>2021-03-25T08:42:06Z</time>
      </trkpt>
      <trkpt lat="45.55255" lon="6.76685">
        <ele>1693.3</ele>
        <time>2021-03-25T08:42:07Z</time>
      </trkpt>
      <trkpt lat="45.55255" lon="6.76685">
        <ele>1693.3</ele>
        <time>2021-03-25T08:42:08Z</time>
      </trkpt>
      <trkpt lat="45.55256" lon="6.76686">
        <ele>1693.5</ele>
        <time>2021-03-25T08:42:09Z</time>
      </trkpt>
      <trkpt lat="45.55256" lon="6.76686">
        <ele>1693.5</ele>
        <time>2021-03-25T08:42:10Z</time>
      </trkpt>
      <trkpt lat="45.55257" lon="6.76686">
        <ele>1693.5</ele>
        <time>2021-03-25T08:42:11Z</time>
      </trkpt>
      <trkpt lat="45.55258" lon="6.76686">
        <ele>1693.5</ele>
        <time>2021-03-25T08:42:12Z</time>
      </trkpt>
      <trkpt lat="45.55258" lon="6.76686">
        <ele>1693.5</ele>
        <time>2021-03-25T08:42:13Z</time>
      </trkpt>
      <trkpt lat="45.55259" lon="6.76686">
        <ele>1693.6</ele>
        <time>2021-03-25T08:42:14Z</time>
      </trkpt>
      <trkpt lat="45.55259" lon="6.76686">
        <ele>1693.6</ele>
        <time>2021-03-25T08:42:15Z</time>
      </trkpt>
      <trkpt lat="45.5526" lon="6.76686">
        <ele>1693.6</ele>
        <time>2021-03-25T08:42:16Z</time>
      </trkpt>
      <trkpt lat="45.55261" lon="6.76686">
        <ele>1693.6</ele>
        <time>2021-03-25T08:42:17Z</time>
      </trkpt>
      <trkpt lat="45.55261" lon="6.76686">
        <ele>1693.6</ele>
        <time>2021-03-25T08:42:18Z</time>
      </trkpt>
      <trkpt lat="45.55261" lon="6.76686">
        <ele>1693.6</ele>
        <time>2021-03-25T08:42:19Z</time>
      </trkpt>
      <trkpt lat="45.55261" lon="6.76686">
        <ele>1693.6</ele>
        <time>2021-03-25T08:42:20Z</time>
      </trkpt>
      <trkpt lat="45.55261" lon="6.76687">
        <ele>1693.6</ele>
        <time>2021-03-25T08:42:21Z</time>
      </trkpt>
      <trkpt lat="45.55261" lon="6.76687">
        <ele>1693.6</ele>
        <time>2021-03-25T08:42:22Z</time>
      </trkpt>
      <trkpt lat="45.55261" lon="6.76688">
        <ele>1693.6</ele>
        <time>2021-03-25T08:42:23Z</time>
      </trkpt>
      <trkpt lat="45.5526" lon="6.76689">
        <ele>1693.6</ele>
        <time>2021-03-25T08:42:24Z</time>
      </trkpt>
      <trkpt lat="45.5526" lon="6.7669">
        <ele>1694.8</ele>
        <time>2021-03-25T08:42:25Z</time>
      </trkpt>
      <trkpt lat="45.5526" lon="6.76691">
        <ele>1694.8</ele>
        <time>2021-03-25T08:42:26Z</time>
      </trkpt>
      <trkpt lat="45.5526" lon="6.76692">
        <ele>1694.8</ele>
        <time>2021-03-25T08:42:27Z</time>
      </trkpt>
      <trkpt lat="45.55259" lon="6.76693">
        <ele>1694.8</ele>
        <time>2021-03-25T08:42:28Z</time>
      </trkpt>
      <trkpt lat="45.55259" lon="6.76694">
        <ele>1696</ele>
        <time>2021-03-25T08:42:29Z</time>
      </trkpt>
      <trkpt lat="45.55259" lon="6.76695">
        <ele>1696</ele>
        <time>2021-03-25T08:42:30Z</time>
      </trkpt>
      <trkpt lat="45.55259" lon="6.76695">
        <ele>1695.9</ele>
        <time>2021-03-25T08:42:31Z</time>
      </trkpt>
      <trkpt lat="45.55258" lon="6.76696">
        <ele>1695.9</ele>
        <time>2021-03-25T08:42:32Z</time>
      </trkpt>
      <trkpt lat="45.55258" lon="6.76697">
        <ele>1695.9</ele>
        <time>2021-03-25T08:42:33Z</time>
      </trkpt>
      <trkpt lat="45.55258" lon="6.76698">
        <ele>1697.1</ele>
        <time>2021-03-25T08:42:34Z</time>
      </trkpt>
      <trkpt lat="45.55257" lon="6.76699">
        <ele>1697.1</ele>
        <time>2021-03-25T08:42:35Z</time>
      </trkpt>
      <trkpt lat="45.55257" lon="6.76699">
        <ele>1697.1</ele>
        <time>2021-03-25T08:42:36Z</time>
      </trkpt>
      <trkpt lat="45.55256" lon="6.767">
        <ele>1697.1</ele>
        <time>2021-03-25T08:42:37Z</time>
      </trkpt>
      <trkpt lat="45.55256" lon="6.76701">
        <ele>1697.1</ele>
        <time>2021-03-25T08:42:38Z</time>
      </trkpt>
      <trkpt lat="45.55255" lon="6.76701">
        <ele>1696.9</ele>
        <time>2021-03-25T08:42:39Z</time>
      </trkpt>
      <trkpt lat="45.55255" lon="6.76702">
        <ele>1698.1</ele>
        <time>2021-03-25T08:42:40Z</time>
      </trkpt>
      <trkpt lat="45.55255" lon="6.76703">
        <ele>1698.1</ele>
        <time>2021-03-25T08:42:41Z</time>
      </trkpt>
      <trkpt lat="45.55254" lon="6.76704">
        <ele>1698.1</ele>
        <time>2021-03-25T08:42:42Z</time>
      </trkpt>
      <trkpt lat="45.55254" lon="6.76704">
        <ele>1698.1</ele>
        <time>2021-03-25T08:42:43Z</time>
      </trkpt>
      <trkpt lat="45.55254" lon="6.76705">
        <ele>1698.1</ele>
        <time>2021-03-25T08:42:44Z</time>
      </trkpt>
      <trkpt lat="45.55253" lon="6.76705">
        <ele>1698.1</ele>
        <time>2021-03-25T08:42:45Z</time>
      </trkpt>
      <trkpt lat="45.55253" lon="6.76706">
        <ele>1698.1</ele>
        <time>2021-03-25T08:42:46Z</time>
      </trkpt>
      <trkpt lat="45.55253" lon="6.76707">
        <ele>1699.3</ele>
        <time>2021-03-25T08:42:47Z</time>
      </trkpt>
      <trkpt lat="45.55252" lon="6.76707">
        <ele>1699</ele>
        <time>2021-03-25T08:42:48Z</time>
      </trkpt>
      <trkpt lat="45.55252" lon="6.76708">
        <ele>1699</ele>
        <time>2021-03-25T08:42:49Z</time>
      </trkpt>
      <trkpt lat="45.55252" lon="6.76708">
        <ele>1699</ele>
        <time>2021-03-25T08:42:50Z</time>
      </trkpt>
      <trkpt lat="45.55251" lon="6.76709">
        <ele>1699</ele>
        <time>2021-03-25T08:42:51Z</time>
      </trkpt>
      <trkpt lat="45.55251" lon="6.76709">
        <ele>1699</ele>
        <time>2021-03-25T08:42:52Z</time>
      </trkpt>
      <trkpt lat="45.55251" lon="6.7671">
        <ele>1699</ele>
        <time>2021-03-25T08:42:53Z</time>
      </trkpt>
      <trkpt lat="45.55251" lon="6.7671">
        <ele>1699</ele>
        <time>2021-03-25T08:42:54Z</time>
      </trkpt>
      <trkpt lat="45.55252" lon="6.76711">
        <ele>1700.2</ele>
        <time>2021-03-25T08:42:55Z</time>
      </trkpt>
      <trkpt lat="45.55253" lon="6.76711">
        <ele>1700.2</ele>
        <time>2021-03-25T08:42:56Z</time>
      </trkpt>
      <trkpt lat="45.55253" lon="6.76712">
        <ele>1700.6</ele>
        <time>2021-03-25T08:42:57Z</time>
      </trkpt>
      <trkpt lat="45.55254" lon="6.76712">
        <ele>1700.6</ele>
        <time>2021-03-25T08:42:58Z</time>
      </trkpt>
      <trkpt lat="45.55254" lon="6.76712">
        <ele>1700.6</ele>
        <time>2021-03-25T08:42:59Z</time>
      </trkpt>
      <trkpt lat="45.55255" lon="6.76712">
        <ele>1700.6</ele>
        <time>2021-03-25T08:43:00Z</time>
      </trkpt>
      <trkpt lat="45.55256" lon="6.76712">
        <ele>1700.7</ele>
        <time>2021-03-25T08:43:01Z</time>
      </trkpt>
      <trkpt lat="45.55256" lon="6.76713">
        <ele>1700.7</ele>
        <time>2021-03-25T08:43:02Z</time>
      </trkpt>
      <trkpt lat="45.55257" lon="6.76713">
        <ele>1700.7</ele>
        <time>2021-03-25T08:43:03Z</time>
      </trkpt>
      <trkpt lat="45.55258" lon="6.76713">
        <ele>1700.7</ele>
        <time>2021-03-25T08:43:04Z</time>
      </trkpt>
      <trkpt lat="45.55259" lon="6.76713">
        <ele>1700.9</ele>
        <time>2021-03-25T08:43:05Z</time>
      </trkpt>
      <trkpt lat="45.5526" lon="6.76713">
        <ele>1700.9</ele>
        <time>2021-03-25T08:43:06Z</time>
      </trkpt>
      <trkpt lat="45.55261" lon="6.76714">
        <ele>1700.9</ele>
        <time>2021-03-25T08:43:07Z</time>
      </trkpt>
      <trkpt lat="45.55261" lon="6.76714">
        <ele>1700.9</ele>
        <time>2021-03-25T08:43:08Z</time>
      </trkpt>
      <trkpt lat="45.55262" lon="6.76715">
        <ele>1702.3</ele>
        <time>2021-03-25T08:43:09Z</time>
      </trkpt>
      <trkpt lat="45.55262" lon="6.76716">
        <ele>1702.3</ele>
        <time>2021-03-25T08:43:10Z</time>
      </trkpt>
      <trkpt lat="45.55262" lon="6.76717">
        <ele>1702.3</ele>
        <time>2021-03-25T08:43:11Z</time>
      </trkpt>
      <trkpt lat="45.55263" lon="6.76719">
        <ele>1702.3</ele>
        <time>2021-03-25T08:43:12Z</time>
      </trkpt>
      <trkpt lat="45.55263" lon="6.7672">
        <ele>1703.8</ele>
        <time>2021-03-25T08:43:13Z</time>
      </trkpt>
      <trkpt lat="45.55263" lon="6.76722">
        <ele>1703.8</ele>
        <time>2021-03-25T08:43:14Z</time>
      </trkpt>
      <trkpt lat="45.55263" lon="6.76723">
        <ele>1703.8</ele>
        <time>2021-03-25T08:43:15Z</time>
      </trkpt>
      <trkpt lat="45.55263" lon="6.76724">
        <ele>1705.3</ele>
        <time>2021-03-25T08:43:16Z</time>
      </trkpt>
      <trkpt lat="45.55263" lon="6.76726">
        <ele>1705.3</ele>
        <time>2021-03-25T08:43:17Z</time>
      </trkpt>
      <trkpt lat="45.55263" lon="6.76727">
        <ele>1705.3</ele>
        <time>2021-03-25T08:43:18Z</time>
      </trkpt>
      <trkpt lat="45.55263" lon="6.76729">
        <ele>1706.8</ele>
        <time>2021-03-25T08:43:19Z</time>
      </trkpt>
      <trkpt lat="45.55264" lon="6.7673">
        <ele>1706.8</ele>
        <time>2021-03-25T08:43:20Z</time>
      </trkpt>
      <trkpt lat="45.55264" lon="6.7673">
        <ele>1706.8</ele>
        <time>2021-03-25T08:43:21Z</time>
      </trkpt>
      <trkpt lat="45.55264" lon="6.76731">
        <ele>1706.8</ele>
        <time>2021-03-25T08:43:22Z</time>
      </trkpt>
      <trkpt lat="45.55264" lon="6.76732">
        <ele>1706.8</ele>
        <time>2021-03-25T08:43:23Z</time>
      </trkpt>
      <trkpt lat="45.55264" lon="6.76732">
        <ele>1708.2</ele>
        <time>2021-03-25T08:43:24Z</time>
      </trkpt>
      <trkpt lat="45.55265" lon="6.76733">
        <ele>1708.2</ele>
        <time>2021-03-25T08:43:25Z</time>
      </trkpt>
      <trkpt lat="45.55265" lon="6.76733">
        <ele>1708.3</ele>
        <time>2021-03-25T08:43:26Z</time>
      </trkpt>
      <trkpt lat="45.55265" lon="6.76734">
        <ele>1708.3</ele>
        <time>2021-03-25T08:43:27Z</time>
      </trkpt>
      <trkpt lat="45.55265" lon="6.76735">
        <ele>1708.3</ele>
        <time>2021-03-25T08:43:28Z</time>
      </trkpt>
      <trkpt lat="45.55265" lon="6.76735">
        <ele>1708.3</ele>
        <time>2021-03-25T08:43:29Z</time>
      </trkpt>
      <trkpt lat="45.55266" lon="6.76736">
        <ele>1708.3</ele>
        <time>2021-03-25T08:43:30Z</time>
      </trkpt>
      <trkpt lat="45.55266" lon="6.76737">
        <ele>1709.7</ele>
        <time>2021-03-25T08:43:31Z</time>
      </trkpt>
      <trkpt lat="45.55266" lon="6.76737">
        <ele>1709.7</ele>
        <time>2021-03-25T08:46:16Z</time>
      </trkpt>
      <trkpt lat="45.55266" lon="6.76738">
        <ele>1709.7</ele>
        <time>2021-03-25T08:46:17Z</time>
      </trkpt>
      <trkpt lat="45.55266" lon="6.76738">
        <ele>1709.7</ele>
        <time>2021-03-25T08:46:18Z</time>
      </trkpt>
      <trkpt lat="45.55267" lon="6.76739">
        <ele>1709.7</ele>
        <time>2021-03-25T08:46:19Z</time>
      </trkpt>
      <trkpt lat="45.55267" lon="6.76739">
        <ele>1709.7</ele>
        <time>2021-03-25T08:46:20Z</time>
      </trkpt>
      <trkpt lat="45.55267" lon="6.7674">
        <ele>1709.7</ele>
        <time>2021-03-25T08:46:21Z</time>
      </trkpt>
      <trkpt lat="45.55268" lon="6.7674">
        <ele>1709.7</ele>
        <time>2021-03-25T08:46:22Z</time>
      </trkpt>
      <trkpt lat="45.55268" lon="6.7674">
        <ele>1709.7</ele>
        <time>2021-03-25T08:46:23Z</time>
      </trkpt>
      <trkpt lat="45.55268" lon="6.7674">
        <ele>1709.7</ele>
        <time>2021-03-25T08:46:24Z</time>
      </trkpt>
      <trkpt lat="45.55269" lon="6.7674">
        <ele>1709.7</ele>
        <time>2021-03-25T08:46:25Z</time>
      </trkpt>
      <trkpt lat="45.55269" lon="6.76741">
        <ele>1709.7</ele>
        <time>2021-03-25T08:46:26Z</time>
      </trkpt>
      <trkpt lat="45.5527" lon="6.76741">
        <ele>1711</ele>
        <time>2021-03-25T08:46:27Z</time>
      </trkpt>
      <trkpt lat="45.5527" lon="6.76742">
        <ele>1711</ele>
        <time>2021-03-25T08:46:28Z</time>
      </trkpt>
      <trkpt lat="45.55271" lon="6.76742">
        <ele>1711.1</ele>
        <time>2021-03-25T08:46:29Z</time>
      </trkpt>
      <trkpt lat="45.55271" lon="6.76743">
        <ele>1711.1</ele>
        <time>2021-03-25T08:46:30Z</time>
      </trkpt>
      <trkpt lat="45.55272" lon="6.76744">
        <ele>1711.1</ele>
        <time>2021-03-25T08:46:31Z</time>
      </trkpt>
      <trkpt lat="45.55273" lon="6.76744">
        <ele>1711.1</ele>
        <time>2021-03-25T08:46:32Z</time>
      </trkpt>
      <trkpt lat="45.55273" lon="6.76745">
        <ele>1712.3</ele>
        <time>2021-03-25T08:46:33Z</time>
      </trkpt>
      <trkpt lat="45.55274" lon="6.76746">
        <ele>1712.4</ele>
        <time>2021-03-25T08:46:34Z</time>
      </trkpt>
      <trkpt lat="45.55274" lon="6.76747">
        <ele>1712.4</ele>
        <time>2021-03-25T08:46:35Z</time>
      </trkpt>
      <trkpt lat="45.55275" lon="6.76748">
        <ele>1712.4</ele>
        <time>2021-03-25T08:46:36Z</time>
      </trkpt>
      <trkpt lat="45.55275" lon="6.76748">
        <ele>1712.4</ele>
        <time>2021-03-25T08:46:37Z</time>
      </trkpt>
      <trkpt lat="45.55275" lon="6.76749">
        <ele>1712.4</ele>
        <time>2021-03-25T08:46:38Z</time>
      </trkpt>
      <trkpt lat="45.55276" lon="6.76749">
        <ele>1713.6</ele>
        <time>2021-03-25T08:46:39Z</time>
      </trkpt>
      <trkpt lat="45.55276" lon="6.7675">
        <ele>1713.6</ele>
        <time>2021-03-25T08:46:40Z</time>
      </trkpt>
      <trkpt lat="45.55276" lon="6.76751">
        <ele>1713.6</ele>
        <time>2021-03-25T08:46:41Z</time>
      </trkpt>
      <trkpt lat="45.55277" lon="6.76752">
        <ele>1713.7</ele>
        <time>2021-03-25T08:46:42Z</time>
      </trkpt>
      <trkpt lat="45.55277" lon="6.76753">
        <ele>1713.6</ele>
        <time>2021-03-25T08:46:43Z</time>
      </trkpt>
      <trkpt lat="45.55277" lon="6.76754">
        <ele>1715</ele>
        <time>2021-03-25T08:46:44Z</time>
      </trkpt>
      <trkpt lat="45.55277" lon="6.76755">
        <ele>1715</ele>
        <time>2021-03-25T08:46:45Z</time>
      </trkpt>
      <trkpt lat="45.55277" lon="6.76756">
        <ele>1715</ele>
        <time>2021-03-25T08:46:46Z</time>
      </trkpt>
      <trkpt lat="45.55277" lon="6.76757">
        <ele>1715</ele>
        <time>2021-03-25T08:46:47Z</time>
      </trkpt>
      <trkpt lat="45.55277" lon="6.76758">
        <ele>1715</ele>
        <time>2021-03-25T08:46:48Z</time>
      </trkpt>
      <trkpt lat="45.55277" lon="6.76759">
        <ele>1717.1</ele>
        <time>2021-03-25T08:46:49Z</time>
      </trkpt>
      <trkpt lat="45.55277" lon="6.76759">
        <ele>1717.1</ele>
        <time>2021-03-25T08:46:50Z</time>
      </trkpt>
      <trkpt lat="45.55277" lon="6.7676">
        <ele>1717.1</ele>
        <time>2021-03-25T08:46:51Z</time>
      </trkpt>
      <trkpt lat="45.55277" lon="6.76761">
        <ele>1717.1</ele>
        <time>2021-03-25T08:46:52Z</time>
      </trkpt>
      <trkpt lat="45.55277" lon="6.76762">
        <ele>1718.5</ele>
        <time>2021-03-25T08:46:53Z</time>
      </trkpt>
      <trkpt lat="45.55277" lon="6.76763">
        <ele>1718.5</ele>
        <time>2021-03-25T08:46:54Z</time>
      </trkpt>
      <trkpt lat="45.55277" lon="6.76764">
        <ele>1718.5</ele>
        <time>2021-03-25T08:46:55Z</time>
      </trkpt>
      <trkpt lat="45.55277" lon="6.76765">
        <ele>1718.5</ele>
        <time>2021-03-25T08:46:56Z</time>
      </trkpt>
      <trkpt lat="45.55277" lon="6.76766">
        <ele>1718.5</ele>
        <time>2021-03-25T08:46:57Z</time>
      </trkpt>
      <trkpt lat="45.55277" lon="6.76767">
        <ele>1719.9</ele>
        <time>2021-03-25T08:46:58Z</time>
      </trkpt>
      <trkpt lat="45.55277" lon="6.76768">
        <ele>1719.9</ele>
        <time>2021-03-25T08:46:59Z</time>
      </trkpt>
      <trkpt lat="45.55277" lon="6.76769">
        <ele>1719.9</ele>
        <time>2021-03-25T08:47:00Z</time>
      </trkpt>
      <trkpt lat="45.55277" lon="6.7677">
        <ele>1719.9</ele>
        <time>2021-03-25T08:47:01Z</time>
      </trkpt>
      <trkpt lat="45.55277" lon="6.7677">
        <ele>1719.9</ele>
        <time>2021-03-25T08:47:02Z</time>
      </trkpt>
      <trkpt lat="45.55277" lon="6.76771">
        <ele>1721.4</ele>
        <time>2021-03-25T08:47:03Z</time>
      </trkpt>
      <trkpt lat="45.55277" lon="6.76772">
        <ele>1721.4</ele>
        <time>2021-03-25T08:47:04Z</time>
      </trkpt>
      <trkpt lat="45.55277" lon="6.76773">
        <ele>1721.4</ele>
        <time>2021-03-25T08:47:05Z</time>
      </trkpt>
      <trkpt lat="45.55277" lon="6.76774">
        <ele>1721.4</ele>
        <time>2021-03-25T08:47:06Z</time>
      </trkpt>
      <trkpt lat="45.55277" lon="6.76775">
        <ele>1721.4</ele>
        <time>2021-03-25T08:47:07Z</time>
      </trkpt>
      <trkpt lat="45.55277" lon="6.76776">
        <ele>1722.8</ele>
        <time>2021-03-25T08:47:08Z</time>
      </trkpt>
      <trkpt lat="45.55277" lon="6.76777">
        <ele>1722.8</ele>
        <time>2021-03-25T08:47:09Z</time>
      </trkpt>
      <trkpt lat="45.55276" lon="6.76777">
        <ele>1722.8</ele>
        <time>2021-03-25T08:47:10Z</time>
      </trkpt>
      <trkpt lat="45.55276" lon="6.76778">
        <ele>1722.8</ele>
        <time>2021-03-25T08:47:11Z</time>
      </trkpt>
      <trkpt lat="45.55276" lon="6.76779">
        <ele>1722.8</ele>
        <time>2021-03-25T08:47:12Z</time>
      </trkpt>
      <trkpt lat="45.55276" lon="6.7678">
        <ele>1724.2</ele>
        <time>2021-03-25T08:47:13Z</time>
      </trkpt>
      <trkpt lat="45.55276" lon="6.7678">
        <ele>1724.2</ele>
        <time>2021-03-25T08:47:14Z</time>
      </trkpt>
      <trkpt lat="45.55276" lon="6.7678">
        <ele>1724.2</ele>
        <time>2021-03-25T08:47:15Z</time>
      </trkpt>
      <trkpt lat="45.55275" lon="6.7678">
        <ele>1724.2</ele>
        <time>2021-03-25T08:47:16Z</time>
      </trkpt>
      <trkpt lat="45.55275" lon="6.76781">
        <ele>1724.2</ele>
        <time>2021-03-25T08:47:17Z</time>
      </trkpt>
      <trkpt lat="45.55275" lon="6.76781">
        <ele>1724.2</ele>
        <time>2021-03-25T08:47:18Z</time>
      </trkpt>
      <trkpt lat="45.55275" lon="6.76782">
        <ele>1724.2</ele>
        <time>2021-03-25T08:47:19Z</time>
      </trkpt>
      <trkpt lat="45.55275" lon="6.76782">
        <ele>1724.2</ele>
        <time>2021-03-25T08:47:20Z</time>
      </trkpt>
      <trkpt lat="45.55275" lon="6.76783">
        <ele>1724.2</ele>
        <time>2021-03-25T08:47:21Z</time>
      </trkpt>
      <trkpt lat="45.55275" lon="6.76784">
        <ele>1725.5</ele>
        <time>2021-03-25T08:47:22Z</time>
      </trkpt>
      <trkpt lat="45.55274" lon="6.76785">
        <ele>1725.5</ele>
        <time>2021-03-25T08:47:23Z</time>
      </trkpt>
      <trkpt lat="45.55274" lon="6.76785">
        <ele>1725.5</ele>
        <time>2021-03-25T08:47:24Z</time>
      </trkpt>
      <trkpt lat="45.55274" lon="6.76786">
        <ele>1725.5</ele>
        <time>2021-03-25T08:47:25Z</time>
      </trkpt>
      <trkpt lat="45.55274" lon="6.76787">
        <ele>1725.5</ele>
        <time>2021-03-25T08:47:26Z</time>
      </trkpt>
      <trkpt lat="45.55274" lon="6.76788">
        <ele>1726.8</ele>
        <time>2021-03-25T08:47:27Z</time>
      </trkpt>
      <trkpt lat="45.55274" lon="6.76788">
        <ele>1726.8</ele>
        <time>2021-03-25T08:47:28Z</time>
      </trkpt>
      <trkpt lat="45.55274" lon="6.76788">
        <ele>1726.8</ele>
        <time>2021-03-25T08:47:29Z</time>
      </trkpt>
      <trkpt lat="45.55274" lon="6.76788">
        <ele>1726.8</ele>
        <time>2021-03-25T08:47:30Z</time>
      </trkpt>
      <trkpt lat="45.55274" lon="6.76789">
        <ele>1726.7</ele>
        <time>2021-03-25T08:47:31Z</time>
      </trkpt>
      <trkpt lat="45.55274" lon="6.76789">
        <ele>1726.8</ele>
        <time>2021-03-25T08:47:32Z</time>
      </trkpt>
      <trkpt lat="45.55275" lon="6.76788">
        <ele>1726.8</ele>
        <time>2021-03-25T08:47:33Z</time>
      </trkpt>
      <trkpt lat="45.55275" lon="6.76786">
        <ele>1725.5</ele>
        <time>2021-03-25T08:47:34Z</time>
      </trkpt>
      <trkpt lat="45.55275" lon="6.76785">
        <ele>1725.5</ele>
        <time>2021-03-25T08:47:35Z</time>
      </trkpt>
      <trkpt lat="45.55275" lon="6.76785">
        <ele>1725.5</ele>
        <time>2021-03-25T08:47:36Z</time>
      </trkpt>
      <trkpt lat="45.55274" lon="6.76786">
        <ele>1725.5</ele>
        <time>2021-03-25T08:47:37Z</time>
      </trkpt>
      <trkpt lat="45.55274" lon="6.76786">
        <ele>1725.5</ele>
        <time>2021-03-25T08:47:38Z</time>
      </trkpt>
      <trkpt lat="45.55273" lon="6.76787">
        <ele>1725.5</ele>
        <time>2021-03-25T08:47:39Z</time>
      </trkpt>
      <trkpt lat="45.55273" lon="6.76787">
        <ele>1725.5</ele>
        <time>2021-03-25T08:47:40Z</time>
      </trkpt>
      <trkpt lat="45.55272" lon="6.76788">
        <ele>1725.5</ele>
        <time>2021-03-25T08:47:41Z</time>
      </trkpt>
      <trkpt lat="45.55272" lon="6.76788">
        <ele>1726.7</ele>
        <time>2021-03-25T08:47:42Z</time>
      </trkpt>
      <trkpt lat="45.55272" lon="6.76789">
        <ele>1726.7</ele>
        <time>2021-03-25T08:47:43Z</time>
      </trkpt>
      <trkpt lat="45.55271" lon="6.76789">
        <ele>1726.7</ele>
        <time>2021-03-25T08:47:44Z</time>
      </trkpt>
      <trkpt lat="45.55271" lon="6.7679">
        <ele>1726.7</ele>
        <time>2021-03-25T08:47:45Z</time>
      </trkpt>
      <trkpt lat="45.5527" lon="6.7679">
        <ele>1726.7</ele>
        <time>2021-03-25T08:48:07Z</time>
      </trkpt>
      <trkpt lat="45.5527" lon="6.76791">
        <ele>1726.7</ele>
        <time>2021-03-25T08:48:08Z</time>
      </trkpt>
      <trkpt lat="45.55269" lon="6.76791">
        <ele>1726.7</ele>
        <time>2021-03-25T08:48:09Z</time>
      </trkpt>
      <trkpt lat="45.55269" lon="6.76792">
        <ele>1726.7</ele>
        <time>2021-03-25T08:48:10Z</time>
      </trkpt>
      <trkpt lat="45.55268" lon="6.76793">
        <ele>1728</ele>
        <time>2021-03-25T08:48:11Z</time>
      </trkpt>
      <trkpt lat="45.55269" lon="6.76794">
        <ele>1728</ele>
        <time>2021-03-25T08:48:12Z</time>
      </trkpt>
      <trkpt lat="45.5527" lon="6.76794">
        <ele>1728</ele>
        <time>2021-03-25T08:48:13Z</time>
      </trkpt>
      <trkpt lat="45.5527" lon="6.76795">
        <ele>1728</ele>
        <time>2021-03-25T08:48:14Z</time>
      </trkpt>
      <trkpt lat="45.55271" lon="6.76795">
        <ele>1728</ele>
        <time>2021-03-25T08:48:15Z</time>
      </trkpt>
      <trkpt lat="45.55271" lon="6.76796">
        <ele>1728</ele>
        <time>2021-03-25T08:48:16Z</time>
      </trkpt>
      <trkpt lat="45.55272" lon="6.76796">
        <ele>1728</ele>
        <time>2021-03-25T08:48:17Z</time>
      </trkpt>
      <trkpt lat="45.55272" lon="6.76797">
        <ele>1729.3</ele>
        <time>2021-03-25T08:48:18Z</time>
      </trkpt>
      <trkpt lat="45.55273" lon="6.76797">
        <ele>1729.3</ele>
        <time>2021-03-25T08:48:19Z</time>
      </trkpt>
      <trkpt lat="45.55273" lon="6.76798">
        <ele>1729.3</ele>
        <time>2021-03-25T08:48:20Z</time>
      </trkpt>
      <trkpt lat="45.55274" lon="6.76798">
        <ele>1729.3</ele>
        <time>2021-03-25T08:48:21Z</time>
      </trkpt>
      <trkpt lat="45.55274" lon="6.76799">
        <ele>1729.3</ele>
        <time>2021-03-25T08:48:22Z</time>
      </trkpt>
      <trkpt lat="45.55275" lon="6.76799">
        <ele>1729.3</ele>
        <time>2021-03-25T08:48:30Z</time>
      </trkpt>
      <trkpt lat="45.55276" lon="6.768">
        <ele>1729.3</ele>
        <time>2021-03-25T08:48:31Z</time>
      </trkpt>
      <trkpt lat="45.55276" lon="6.768">
        <ele>1729.3</ele>
        <time>2021-03-25T08:48:32Z</time>
      </trkpt>
      <trkpt lat="45.55277" lon="6.76801">
        <ele>1729.3</ele>
        <time>2021-03-25T08:48:33Z</time>
      </trkpt>
      <trkpt lat="45.55278" lon="6.76802">
        <ele>1730.6</ele>
        <time>2021-03-25T08:48:34Z</time>
      </trkpt>
      <trkpt lat="45.55278" lon="6.76802">
        <ele>1730.6</ele>
        <time>2021-03-25T08:48:35Z</time>
      </trkpt>
      <trkpt lat="45.55279" lon="6.76803">
        <ele>1730.6</ele>
        <time>2021-03-25T08:48:36Z</time>
      </trkpt>
      <trkpt lat="45.55279" lon="6.76804">
        <ele>1730.6</ele>
        <time>2021-03-25T08:48:37Z</time>
      </trkpt>
      <trkpt lat="45.55279" lon="6.76805">
        <ele>1732</ele>
        <time>2021-03-25T08:48:38Z</time>
      </trkpt>
      <trkpt lat="45.5528" lon="6.76806">
        <ele>1731.9</ele>
        <time>2021-03-25T08:48:39Z</time>
      </trkpt>
      <trkpt lat="45.5528" lon="6.76807">
        <ele>1731.9</ele>
        <time>2021-03-25T08:48:40Z</time>
      </trkpt>
      <trkpt lat="45.5528" lon="6.76808">
        <ele>1731.9</ele>
        <time>2021-03-25T08:48:41Z</time>
      </trkpt>
      <trkpt lat="45.55281" lon="6.76809">
        <ele>1731.9</ele>
        <time>2021-03-25T08:48:42Z</time>
      </trkpt>
      <trkpt lat="45.55281" lon="6.7681">
        <ele>1733.3</ele>
        <time>2021-03-25T08:48:43Z</time>
      </trkpt>
      <trkpt lat="45.55282" lon="6.7681">
        <ele>1733.3</ele>
        <time>2021-03-25T08:48:44Z</time>
      </trkpt>
      <trkpt lat="45.55283" lon="6.76811">
        <ele>1733.2</ele>
        <time>2021-03-25T08:48:45Z</time>
      </trkpt>
      <trkpt lat="45.55284" lon="6.76812">
        <ele>1733.2</ele>
        <time>2021-03-25T08:48:46Z</time>
      </trkpt>
      <trkpt lat="45.55284" lon="6.76813">
        <ele>1733.2</ele>
        <time>2021-03-25T08:48:47Z</time>
      </trkpt>
      <trkpt lat="45.55284" lon="6.76814">
        <ele>1734.6</ele>
        <time>2021-03-25T08:48:48Z</time>
      </trkpt>
      <trkpt lat="45.55284" lon="6.76815">
        <ele>1734.6</ele>
        <time>2021-03-25T08:48:49Z</time>
      </trkpt>
      <trkpt lat="45.55284" lon="6.76815">
        <ele>1734.6</ele>
        <time>2021-03-25T08:48:50Z</time>
      </trkpt>
      <trkpt lat="45.55284" lon="6.76815">
        <ele>1734.6</ele>
        <time>2021-03-25T08:48:51Z</time>
      </trkpt>
      <trkpt lat="45.55284" lon="6.76816">
        <ele>1734.6</ele>
        <time>2021-03-25T08:48:52Z</time>
      </trkpt>
      <trkpt lat="45.55284" lon="6.76816">
        <ele>1734.6</ele>
        <time>2021-03-25T08:48:53Z</time>
      </trkpt>
      <trkpt lat="45.55284" lon="6.76816">
        <ele>1734.6</ele>
        <time>2021-03-25T08:48:54Z</time>
      </trkpt>
      <trkpt lat="45.55284" lon="6.76816">
        <ele>1734.6</ele>
        <time>2021-03-25T08:48:55Z</time>
      </trkpt>
      <trkpt lat="45.55284" lon="6.76816">
        <ele>1734.6</ele>
        <time>2021-03-25T08:48:56Z</time>
      </trkpt>
      <trkpt lat="45.55284" lon="6.76816">
        <ele>1734.6</ele>
        <time>2021-03-25T08:48:57Z</time>
      </trkpt>
      <trkpt lat="45.55284" lon="6.76817">
        <ele>1734.6</ele>
        <time>2021-03-25T08:48:58Z</time>
      </trkpt>
      <trkpt lat="45.55285" lon="6.7682">
        <ele>1735.9</ele>
        <time>2021-03-25T08:48:59Z</time>
      </trkpt>
      <trkpt lat="45.55285" lon="6.76821">
        <ele>1735.9</ele>
        <time>2021-03-25T08:49:03Z</time>
      </trkpt>
      <trkpt lat="45.55286" lon="6.76822">
        <ele>1735.9</ele>
        <time>2021-03-25T08:49:04Z</time>
      </trkpt>
      <trkpt lat="45.55286" lon="6.76823">
        <ele>1737.1</ele>
        <time>2021-03-25T08:49:05Z</time>
      </trkpt>
      <trkpt lat="45.55287" lon="6.76825">
        <ele>1737.1</ele>
        <time>2021-03-25T08:49:06Z</time>
      </trkpt>
      <trkpt lat="45.55287" lon="6.76826">
        <ele>1737.1</ele>
        <time>2021-03-25T08:49:07Z</time>
      </trkpt>
      <trkpt lat="45.55287" lon="6.76827">
        <ele>1738.4</ele>
        <time>2021-03-25T08:49:08Z</time>
      </trkpt>
      <trkpt lat="45.55288" lon="6.76828">
        <ele>1738.4</ele>
        <time>2021-03-25T08:49:09Z</time>
      </trkpt>
      <trkpt lat="45.55288" lon="6.76828">
        <ele>1738.4</ele>
        <time>2021-03-25T08:49:10Z</time>
      </trkpt>
      <trkpt lat="45.55288" lon="6.7683">
        <ele>1738.4</ele>
        <time>2021-03-25T08:49:11Z</time>
      </trkpt>
      <trkpt lat="45.55288" lon="6.7683">
        <ele>1738.4</ele>
        <time>2021-03-25T08:49:12Z</time>
      </trkpt>
      <trkpt lat="45.55288" lon="6.76831">
        <ele>1739.6</ele>
        <time>2021-03-25T08:49:13Z</time>
      </trkpt>
      <trkpt lat="45.55288" lon="6.76832">
        <ele>1739.6</ele>
        <time>2021-03-25T08:49:14Z</time>
      </trkpt>
      <trkpt lat="45.55289" lon="6.76833">
        <ele>1739.5</ele>
        <time>2021-03-25T08:49:15Z</time>
      </trkpt>
      <trkpt lat="45.55289" lon="6.76835">
        <ele>1739.5</ele>
        <time>2021-03-25T08:49:16Z</time>
      </trkpt>
      <trkpt lat="45.55289" lon="6.76835">
        <ele>1740.7</ele>
        <time>2021-03-25T08:49:17Z</time>
      </trkpt>
      <trkpt lat="45.55289" lon="6.76836">
        <ele>1740.7</ele>
        <time>2021-03-25T08:49:18Z</time>
      </trkpt>
      <trkpt lat="45.55289" lon="6.76838">
        <ele>1740.7</ele>
        <time>2021-03-25T08:49:19Z</time>
      </trkpt>
      <trkpt lat="45.55289" lon="6.76838">
        <ele>1740.7</ele>
        <time>2021-03-25T08:49:20Z</time>
      </trkpt>
      <trkpt lat="45.5529" lon="6.7684">
        <ele>1741.9</ele>
        <time>2021-03-25T08:49:21Z</time>
      </trkpt>
      <trkpt lat="45.5529" lon="6.76841">
        <ele>1741.9</ele>
        <time>2021-03-25T08:49:22Z</time>
      </trkpt>
      <trkpt lat="45.5529" lon="6.76842">
        <ele>1741.9</ele>
        <time>2021-03-25T08:49:23Z</time>
      </trkpt>
      <trkpt lat="45.5529" lon="6.76843">
        <ele>1741.9</ele>
        <time>2021-03-25T08:49:24Z</time>
      </trkpt>
      <trkpt lat="45.5529" lon="6.76844">
        <ele>1743.1</ele>
        <time>2021-03-25T08:49:25Z</time>
      </trkpt>
      <trkpt lat="45.55289" lon="6.76845">
        <ele>1743.1</ele>
        <time>2021-03-25T08:49:26Z</time>
      </trkpt>
      <trkpt lat="45.55289" lon="6.76845">
        <ele>1743.1</ele>
        <time>2021-03-25T08:49:27Z</time>
      </trkpt>
      <trkpt lat="45.55288" lon="6.76846">
        <ele>1743.2</ele>
        <time>2021-03-25T08:49:28Z</time>
      </trkpt>
      <trkpt lat="45.55287" lon="6.76847">
        <ele>1743.2</ele>
        <time>2021-03-25T08:49:29Z</time>
      </trkpt>
      <trkpt lat="45.55287" lon="6.76847">
        <ele>1743.2</ele>
        <time>2021-03-25T08:49:30Z</time>
      </trkpt>
      <trkpt lat="45.55286" lon="6.76847">
        <ele>1743.2</ele>
        <time>2021-03-25T08:49:31Z</time>
      </trkpt>
      <trkpt lat="45.55285" lon="6.76848">
        <ele>1743.3</ele>
        <time>2021-03-25T08:49:32Z</time>
      </trkpt>
      <trkpt lat="45.55285" lon="6.76848">
        <ele>1744.6</ele>
        <time>2021-03-25T08:49:33Z</time>
      </trkpt>
      <trkpt lat="45.55284" lon="6.76849">
        <ele>1744.6</ele>
        <time>2021-03-25T08:49:34Z</time>
      </trkpt>
      <trkpt lat="45.55283" lon="6.7685">
        <ele>1744.6</ele>
        <time>2021-03-25T08:49:35Z</time>
      </trkpt>
      <trkpt lat="45.55282" lon="6.7685">
        <ele>1744.6</ele>
        <time>2021-03-25T08:49:36Z</time>
      </trkpt>
      <trkpt lat="45.55282" lon="6.76851">
        <ele>1744.6</ele>
        <time>2021-03-25T08:49:37Z</time>
      </trkpt>
      <trkpt lat="45.55281" lon="6.76851">
        <ele>1744.6</ele>
        <time>2021-03-25T08:49:38Z</time>
      </trkpt>
      <trkpt lat="45.5528" lon="6.76852">
        <ele>1744.6</ele>
        <time>2021-03-25T08:49:39Z</time>
      </trkpt>
      <trkpt lat="45.55279" lon="6.76852">
        <ele>1744.7</ele>
        <time>2021-03-25T08:49:40Z</time>
      </trkpt>
      <trkpt lat="45.55278" lon="6.76853">
        <ele>1746</ele>
        <time>2021-03-25T08:49:41Z</time>
      </trkpt>
      <trkpt lat="45.55278" lon="6.76853">
        <ele>1746</ele>
        <time>2021-03-25T08:49:42Z</time>
      </trkpt>
      <trkpt lat="45.55277" lon="6.76854">
        <ele>1746</ele>
        <time>2021-03-25T08:49:43Z</time>
      </trkpt>
      <trkpt lat="45.55276" lon="6.76855">
        <ele>1746.1</ele>
        <time>2021-03-25T08:49:44Z</time>
      </trkpt>
      <trkpt lat="45.55275" lon="6.76855">
        <ele>1746.1</ele>
        <time>2021-03-25T08:49:45Z</time>
      </trkpt>
      <trkpt lat="45.55275" lon="6.76856">
        <ele>1746.1</ele>
        <time>2021-03-25T08:49:46Z</time>
      </trkpt>
      <trkpt lat="45.55274" lon="6.76856">
        <ele>1746.1</ele>
        <time>2021-03-25T08:49:47Z</time>
      </trkpt>
      <trkpt lat="45.55274" lon="6.76857">
        <ele>1747.4</ele>
        <time>2021-03-25T08:49:48Z</time>
      </trkpt>
      <trkpt lat="45.55273" lon="6.76857">
        <ele>1747.4</ele>
        <time>2021-03-25T08:49:49Z</time>
      </trkpt>
      <trkpt lat="45.55272" lon="6.76858">
        <ele>1747.4</ele>
        <time>2021-03-25T08:49:50Z</time>
      </trkpt>
      <trkpt lat="45.55272" lon="6.76858">
        <ele>1747.4</ele>
        <time>2021-03-25T08:49:51Z</time>
      </trkpt>
      <trkpt lat="45.55271" lon="6.76859">
        <ele>1747.4</ele>
        <time>2021-03-25T08:49:52Z</time>
      </trkpt>
      <trkpt lat="45.5527" lon="6.7686">
        <ele>1747.4</ele>
        <time>2021-03-25T08:49:53Z</time>
      </trkpt>
      <trkpt lat="45.5527" lon="6.76861">
        <ele>1748.8</ele>
        <time>2021-03-25T08:49:54Z</time>
      </trkpt>
      <trkpt lat="45.5527" lon="6.76862">
        <ele>1748.8</ele>
        <time>2021-03-25T08:49:55Z</time>
      </trkpt>
      <trkpt lat="45.55271" lon="6.76863">
        <ele>1748.8</ele>
        <time>2021-03-25T08:49:56Z</time>
      </trkpt>
      <trkpt lat="45.55271" lon="6.76864">
        <ele>1748.8</ele>
        <time>2021-03-25T08:49:57Z</time>
      </trkpt>
      <trkpt lat="45.55272" lon="6.76864">
        <ele>1748.8</ele>
        <time>2021-03-25T08:49:58Z</time>
      </trkpt>
      <trkpt lat="45.55272" lon="6.76865">
        <ele>1748.8</ele>
        <time>2021-03-25T08:49:59Z</time>
      </trkpt>
      <trkpt lat="45.55273" lon="6.76866">
        <ele>1750.2</ele>
        <time>2021-03-25T08:50:00Z</time>
      </trkpt>
      <trkpt lat="45.55273" lon="6.76866">
        <ele>1750.2</ele>
        <time>2021-03-25T08:50:01Z</time>
      </trkpt>
      <trkpt lat="45.55274" lon="6.76867">
        <ele>1750.1</ele>
        <time>2021-03-25T08:50:02Z</time>
      </trkpt>
      <trkpt lat="45.55275" lon="6.76868">
        <ele>1750.1</ele>
        <time>2021-03-25T08:50:03Z</time>
      </trkpt>
      <trkpt lat="45.55275" lon="6.76869">
        <ele>1750.1</ele>
        <time>2021-03-25T08:50:04Z</time>
      </trkpt>
      <trkpt lat="45.55276" lon="6.7687">
        <ele>1751.4</ele>
        <time>2021-03-25T08:50:05Z</time>
      </trkpt>
      <trkpt lat="45.55276" lon="6.7687">
        <ele>1751.4</ele>
        <time>2021-03-25T08:50:06Z</time>
      </trkpt>
      <trkpt lat="45.55277" lon="6.76871">
        <ele>1751.4</ele>
        <time>2021-03-25T08:50:07Z</time>
      </trkpt>
      <trkpt lat="45.55277" lon="6.76872">
        <ele>1751.4</ele>
        <time>2021-03-25T08:50:08Z</time>
      </trkpt>
      <trkpt lat="45.55278" lon="6.76872">
        <ele>1751.4</ele>
        <time>2021-03-25T08:50:09Z</time>
      </trkpt>
      <trkpt lat="45.55278" lon="6.76873">
        <ele>1751.4</ele>
        <time>2021-03-25T08:50:10Z</time>
      </trkpt>
      <trkpt lat="45.55278" lon="6.76874">
        <ele>1752.6</ele>
        <time>2021-03-25T08:50:11Z</time>
      </trkpt>
      <trkpt lat="45.55279" lon="6.76875">
        <ele>1752.6</ele>
        <time>2021-03-25T08:50:12Z</time>
      </trkpt>
      <trkpt lat="45.55279" lon="6.76875">
        <ele>1752.6</ele>
        <time>2021-03-25T08:50:13Z</time>
      </trkpt>
      <trkpt lat="45.55279" lon="6.76876">
        <ele>1752.6</ele>
        <time>2021-03-25T08:50:14Z</time>
      </trkpt>
      <trkpt lat="45.55279" lon="6.76877">
        <ele>1752.6</ele>
        <time>2021-03-25T08:50:15Z</time>
      </trkpt>
      <trkpt lat="45.5528" lon="6.76878">
        <ele>1752.5</ele>
        <time>2021-03-25T08:50:16Z</time>
      </trkpt>
      <trkpt lat="45.5528" lon="6.76879">
        <ele>1753.7</ele>
        <time>2021-03-25T08:50:17Z</time>
      </trkpt>
      <trkpt lat="45.5528" lon="6.7688">
        <ele>1753.7</ele>
        <time>2021-03-25T08:50:18Z</time>
      </trkpt>
      <trkpt lat="45.55281" lon="6.76881">
        <ele>1753.7</ele>
        <time>2021-03-25T08:50:19Z</time>
      </trkpt>
      <trkpt lat="45.55281" lon="6.76881">
        <ele>1753.7</ele>
        <time>2021-03-25T08:50:20Z</time>
      </trkpt>
      <trkpt lat="45.55281" lon="6.76882">
        <ele>1753.7</ele>
        <time>2021-03-25T08:50:21Z</time>
      </trkpt>
      <trkpt lat="45.55282" lon="6.76883">
        <ele>1754.8</ele>
        <time>2021-03-25T08:50:22Z</time>
      </trkpt>
      <trkpt lat="45.55282" lon="6.76884">
        <ele>1754.8</ele>
        <time>2021-03-25T08:50:23Z</time>
      </trkpt>
      <trkpt lat="45.55282" lon="6.76885">
        <ele>1754.8</ele>
        <time>2021-03-25T08:50:24Z</time>
      </trkpt>
      <trkpt lat="45.55283" lon="6.76886">
        <ele>1754.8</ele>
        <time>2021-03-25T08:50:25Z</time>
      </trkpt>
      <trkpt lat="45.55283" lon="6.76886">
        <ele>1754.8</ele>
        <time>2021-03-25T08:50:26Z</time>
      </trkpt>
      <trkpt lat="45.55283" lon="6.76887">
        <ele>1756</ele>
        <time>2021-03-25T08:50:27Z</time>
      </trkpt>
      <trkpt lat="45.55284" lon="6.76888">
        <ele>1756</ele>
        <time>2021-03-25T08:50:28Z</time>
      </trkpt>
      <trkpt lat="45.55284" lon="6.76889">
        <ele>1756</ele>
        <time>2021-03-25T08:50:29Z</time>
      </trkpt>
      <trkpt lat="45.55284" lon="6.7689">
        <ele>1756</ele>
        <time>2021-03-25T08:50:30Z</time>
      </trkpt>
      <trkpt lat="45.55285" lon="6.76891">
        <ele>1757.2</ele>
        <time>2021-03-25T08:50:31Z</time>
      </trkpt>
      <trkpt lat="45.55286" lon="6.76892">
        <ele>1757.2</ele>
        <time>2021-03-25T08:50:32Z</time>
      </trkpt>
      <trkpt lat="45.55286" lon="6.76893">
        <ele>1757.2</ele>
        <time>2021-03-25T08:50:33Z</time>
      </trkpt>
      <trkpt lat="45.55287" lon="6.76893">
        <ele>1757.2</ele>
        <time>2021-03-25T08:50:34Z</time>
      </trkpt>
      <trkpt lat="45.55287" lon="6.76894">
        <ele>1757.2</ele>
        <time>2021-03-25T08:50:35Z</time>
      </trkpt>
      <trkpt lat="45.55287" lon="6.76895">
        <ele>1757.2</ele>
        <time>2021-03-25T08:50:36Z</time>
      </trkpt>
      <trkpt lat="45.55288" lon="6.76895">
        <ele>1758.5</ele>
        <time>2021-03-25T08:50:37Z</time>
      </trkpt>
      <trkpt lat="45.55288" lon="6.76896">
        <ele>1758.5</ele>
        <time>2021-03-25T08:50:38Z</time>
      </trkpt>
      <trkpt lat="45.55288" lon="6.76897">
        <ele>1758.5</ele>
        <time>2021-03-25T08:50:39Z</time>
      </trkpt>
      <trkpt lat="45.55289" lon="6.76898">
        <ele>1758.5</ele>
        <time>2021-03-25T08:50:40Z</time>
      </trkpt>
      <trkpt lat="45.55288" lon="6.76898">
        <ele>1758.5</ele>
        <time>2021-03-25T08:50:41Z</time>
      </trkpt>
      <trkpt lat="45.55288" lon="6.76899">
        <ele>1758.5</ele>
        <time>2021-03-25T08:50:42Z</time>
      </trkpt>
      <trkpt lat="45.55288" lon="6.76899">
        <ele>1758.5</ele>
        <time>2021-03-25T08:50:43Z</time>
      </trkpt>
      <trkpt lat="45.55287" lon="6.769">
        <ele>1759.7</ele>
        <time>2021-03-25T08:50:44Z</time>
      </trkpt>
      <trkpt lat="45.55286" lon="6.76901">
        <ele>1759.7</ele>
        <time>2021-03-25T08:50:45Z</time>
      </trkpt>
      <trkpt lat="45.55286" lon="6.76901">
        <ele>1759.7</ele>
        <time>2021-03-25T08:50:46Z</time>
      </trkpt>
      <trkpt lat="45.55285" lon="6.76902">
        <ele>1759.8</ele>
        <time>2021-03-25T08:50:47Z</time>
      </trkpt>
      <trkpt lat="45.55284" lon="6.76903">
        <ele>1759.8</ele>
        <time>2021-03-25T08:50:48Z</time>
      </trkpt>
      <trkpt lat="45.55284" lon="6.76903">
        <ele>1759.8</ele>
        <time>2021-03-25T08:50:49Z</time>
      </trkpt>
      <trkpt lat="45.55283" lon="6.76904">
        <ele>1761</ele>
        <time>2021-03-25T08:50:50Z</time>
      </trkpt>
      <trkpt lat="45.55282" lon="6.76904">
        <ele>1761</ele>
        <time>2021-03-25T08:50:51Z</time>
      </trkpt>
      <trkpt lat="45.55282" lon="6.76904">
        <ele>1761</ele>
        <time>2021-03-25T08:50:52Z</time>
      </trkpt>
      <trkpt lat="45.55281" lon="6.76905">
        <ele>1761</ele>
        <time>2021-03-25T08:50:53Z</time>
      </trkpt>
      <trkpt lat="45.5528" lon="6.76905">
        <ele>1761</ele>
        <time>2021-03-25T08:50:54Z</time>
      </trkpt>
      <trkpt lat="45.55279" lon="6.76905">
        <ele>1761</ele>
        <time>2021-03-25T08:50:55Z</time>
      </trkpt>
      <trkpt lat="45.55279" lon="6.76906">
        <ele>1761</ele>
        <time>2021-03-25T08:50:56Z</time>
      </trkpt>
      <trkpt lat="45.55278" lon="6.76906">
        <ele>1761</ele>
        <time>2021-03-25T08:50:57Z</time>
      </trkpt>
      <trkpt lat="45.55277" lon="6.76907">
        <ele>1761</ele>
        <time>2021-03-25T08:50:58Z</time>
      </trkpt>
      <trkpt lat="45.55276" lon="6.76908">
        <ele>1760.9</ele>
        <time>2021-03-25T08:50:59Z</time>
      </trkpt>
      <trkpt lat="45.55276" lon="6.76908">
        <ele>1762.2</ele>
        <time>2021-03-25T08:51:00Z</time>
      </trkpt>
      <trkpt lat="45.55275" lon="6.76909">
        <ele>1762.2</ele>
        <time>2021-03-25T08:51:01Z</time>
      </trkpt>
      <trkpt lat="45.55274" lon="6.76909">
        <ele>1762.2</ele>
        <time>2021-03-25T08:51:02Z</time>
      </trkpt>
      <trkpt lat="45.55274" lon="6.7691">
        <ele>1762.2</ele>
        <time>2021-03-25T08:51:03Z</time>
      </trkpt>
      <trkpt lat="45.55273" lon="6.7691">
        <ele>1762.1</ele>
        <time>2021-03-25T08:51:04Z</time>
      </trkpt>
      <trkpt lat="45.55272" lon="6.7691">
        <ele>1762.1</ele>
        <time>2021-03-25T08:51:05Z</time>
      </trkpt>
      <trkpt lat="45.55272" lon="6.76911">
        <ele>1762.1</ele>
        <time>2021-03-25T08:51:06Z</time>
      </trkpt>
      <trkpt lat="45.55271" lon="6.76911">
        <ele>1762.1</ele>
        <time>2021-03-25T08:51:07Z</time>
      </trkpt>
      <trkpt lat="45.5527" lon="6.76911">
        <ele>1762</ele>
        <time>2021-03-25T08:51:08Z</time>
      </trkpt>
      <trkpt lat="45.55269" lon="6.76912">
        <ele>1762</ele>
        <time>2021-03-25T08:51:09Z</time>
      </trkpt>
      <trkpt lat="45.55269" lon="6.76912">
        <ele>1762</ele>
        <time>2021-03-25T08:51:10Z</time>
      </trkpt>
      <trkpt lat="45.55268" lon="6.76912">
        <ele>1762</ele>
        <time>2021-03-25T08:51:11Z</time>
      </trkpt>
      <trkpt lat="45.55268" lon="6.76913">
        <ele>1763.1</ele>
        <time>2021-03-25T08:51:12Z</time>
      </trkpt>
      <trkpt lat="45.55267" lon="6.76913">
        <ele>1763.1</ele>
        <time>2021-03-25T08:51:13Z</time>
      </trkpt>
      <trkpt lat="45.55266" lon="6.76914">
        <ele>1763.1</ele>
        <time>2021-03-25T08:51:14Z</time>
      </trkpt>
      <trkpt lat="45.55266" lon="6.76914">
        <ele>1763.1</ele>
        <time>2021-03-25T08:51:15Z</time>
      </trkpt>
      <trkpt lat="45.55265" lon="6.76915">
        <ele>1763.1</ele>
        <time>2021-03-25T08:51:16Z</time>
      </trkpt>
      <trkpt lat="45.55265" lon="6.76915">
        <ele>1763.1</ele>
        <time>2021-03-25T08:51:17Z</time>
      </trkpt>
      <trkpt lat="45.55264" lon="6.76916">
        <ele>1762.9</ele>
        <time>2021-03-25T08:51:18Z</time>
      </trkpt>
      <trkpt lat="45.55264" lon="6.76916">
        <ele>1762.9</ele>
        <time>2021-03-25T08:51:19Z</time>
      </trkpt>
      <trkpt lat="45.55263" lon="6.76917">
        <ele>1764.1</ele>
        <time>2021-03-25T08:51:20Z</time>
      </trkpt>
      <trkpt lat="45.55262" lon="6.76917">
        <ele>1764.1</ele>
        <time>2021-03-25T08:51:21Z</time>
      </trkpt>
      <trkpt lat="45.55262" lon="6.76918">
        <ele>1764</ele>
        <time>2021-03-25T08:51:22Z</time>
      </trkpt>
      <trkpt lat="45.55261" lon="6.76918">
        <ele>1764</ele>
        <time>2021-03-25T08:51:23Z</time>
      </trkpt>
      <trkpt lat="45.5526" lon="6.76919">
        <ele>1764</ele>
        <time>2021-03-25T08:51:24Z</time>
      </trkpt>
      <trkpt lat="45.5526" lon="6.7692">
        <ele>1764</ele>
        <time>2021-03-25T08:51:25Z</time>
      </trkpt>
      <trkpt lat="45.55259" lon="6.76921">
        <ele>1764</ele>
        <time>2021-03-25T08:51:26Z</time>
      </trkpt>
      <trkpt lat="45.55259" lon="6.76922">
        <ele>1765.2</ele>
        <time>2021-03-25T08:51:27Z</time>
      </trkpt>
      <trkpt lat="45.55259" lon="6.76923">
        <ele>1765.2</ele>
        <time>2021-03-25T08:51:28Z</time>
      </trkpt>
      <trkpt lat="45.55259" lon="6.76923">
        <ele>1765</ele>
        <time>2021-03-25T08:51:29Z</time>
      </trkpt>
      <trkpt lat="45.55259" lon="6.76924">
        <ele>1765.2</ele>
        <time>2021-03-25T08:51:30Z</time>
      </trkpt>
      <trkpt lat="45.55259" lon="6.76925">
        <ele>1765.2</ele>
        <time>2021-03-25T08:51:31Z</time>
      </trkpt>
      <trkpt lat="45.55259" lon="6.76925">
        <ele>1766.3</ele>
        <time>2021-03-25T08:51:32Z</time>
      </trkpt>
      <trkpt lat="45.55259" lon="6.76926">
        <ele>1766.3</ele>
        <time>2021-03-25T08:51:33Z</time>
      </trkpt>
      <trkpt lat="45.55259" lon="6.76927">
        <ele>1766.3</ele>
        <time>2021-03-25T08:51:34Z</time>
      </trkpt>
      <trkpt lat="45.5526" lon="6.76928">
        <ele>1766.3</ele>
        <time>2021-03-25T08:51:35Z</time>
      </trkpt>
      <trkpt lat="45.5526" lon="6.76928">
        <ele>1766.3</ele>
        <time>2021-03-25T08:51:36Z</time>
      </trkpt>
      <trkpt lat="45.55261" lon="6.76929">
        <ele>1766.3</ele>
        <time>2021-03-25T08:51:37Z</time>
      </trkpt>
      <trkpt lat="45.55261" lon="6.76929">
        <ele>1766.3</ele>
        <time>2021-03-25T08:51:38Z</time>
      </trkpt>
      <trkpt lat="45.55262" lon="6.7693">
        <ele>1767.7</ele>
        <time>2021-03-25T08:51:39Z</time>
      </trkpt>
      <trkpt lat="45.55262" lon="6.76931">
        <ele>1767.7</ele>
        <time>2021-03-25T08:51:40Z</time>
      </trkpt>
      <trkpt lat="45.55263" lon="6.76931">
        <ele>1767.7</ele>
        <time>2021-03-25T08:51:41Z</time>
      </trkpt>
      <trkpt lat="45.55263" lon="6.76932">
        <ele>1767.7</ele>
        <time>2021-03-25T08:51:42Z</time>
      </trkpt>
      <trkpt lat="45.55264" lon="6.76932">
        <ele>1767.7</ele>
        <time>2021-03-25T08:51:43Z</time>
      </trkpt>
      <trkpt lat="45.55264" lon="6.76933">
        <ele>1767.7</ele>
        <time>2021-03-25T08:51:44Z</time>
      </trkpt>
      <trkpt lat="45.55265" lon="6.76933">
        <ele>1767.8</ele>
        <time>2021-03-25T08:51:45Z</time>
      </trkpt>
      <trkpt lat="45.55266" lon="6.76934">
        <ele>1769</ele>
        <time>2021-03-25T08:51:46Z</time>
      </trkpt>
      <trkpt lat="45.55266" lon="6.76934">
        <ele>1769</ele>
        <time>2021-03-25T08:51:47Z</time>
      </trkpt>
      <trkpt lat="45.55267" lon="6.76935">
        <ele>1769</ele>
        <time>2021-03-25T08:51:48Z</time>
      </trkpt>
      <trkpt lat="45.55267" lon="6.76935">
        <ele>1769</ele>
        <time>2021-03-25T08:51:49Z</time>
      </trkpt>
      <trkpt lat="45.55268" lon="6.76936">
        <ele>1769.1</ele>
        <time>2021-03-25T08:51:50Z</time>
      </trkpt>
      <trkpt lat="45.55269" lon="6.76937">
        <ele>1769.1</ele>
        <time>2021-03-25T08:51:51Z</time>
      </trkpt>
      <trkpt lat="45.55269" lon="6.76937">
        <ele>1769.1</ele>
        <time>2021-03-25T08:51:52Z</time>
      </trkpt>
      <trkpt lat="45.5527" lon="6.76938">
        <ele>1769.1</ele>
        <time>2021-03-25T08:51:53Z</time>
      </trkpt>
      <trkpt lat="45.5527" lon="6.76938">
        <ele>1770.4</ele>
        <time>2021-03-25T08:51:54Z</time>
      </trkpt>
      <trkpt lat="45.55271" lon="6.76939">
        <ele>1770.4</ele>
        <time>2021-03-25T08:51:55Z</time>
      </trkpt>
      <trkpt lat="45.55271" lon="6.7694">
        <ele>1770.4</ele>
        <time>2021-03-25T08:51:56Z</time>
      </trkpt>
      <trkpt lat="45.55272" lon="6.7694">
        <ele>1770.4</ele>
        <time>2021-03-25T08:51:57Z</time>
      </trkpt>
      <trkpt lat="45.55272" lon="6.76941">
        <ele>1770.4</ele>
        <time>2021-03-25T08:51:58Z</time>
      </trkpt>
      <trkpt lat="45.55273" lon="6.76941">
        <ele>1770.4</ele>
        <time>2021-03-25T08:51:59Z</time>
      </trkpt>
      <trkpt lat="45.55274" lon="6.76942">
        <ele>1770.4</ele>
        <time>2021-03-25T08:52:00Z</time>
      </trkpt>
      <trkpt lat="45.55274" lon="6.76943">
        <ele>1771.6</ele>
        <time>2021-03-25T08:52:01Z</time>
      </trkpt>
      <trkpt lat="45.55275" lon="6.76943">
        <ele>1771.6</ele>
        <time>2021-03-25T08:52:02Z</time>
      </trkpt>
      <trkpt lat="45.55275" lon="6.76944">
        <ele>1771.6</ele>
        <time>2021-03-25T08:52:03Z</time>
      </trkpt>
      <trkpt lat="45.55276" lon="6.76944">
        <ele>1771.6</ele>
        <time>2021-03-25T08:52:04Z</time>
      </trkpt>
      <trkpt lat="45.55276" lon="6.76945">
        <ele>1771.6</ele>
        <time>2021-03-25T08:52:05Z</time>
      </trkpt>
      <trkpt lat="45.55277" lon="6.76945">
        <ele>1771.6</ele>
        <time>2021-03-25T08:52:06Z</time>
      </trkpt>
      <trkpt lat="45.55277" lon="6.76946">
        <ele>1771.6</ele>
        <time>2021-03-25T08:52:07Z</time>
      </trkpt>
      <trkpt lat="45.55278" lon="6.76946">
        <ele>1771.6</ele>
        <time>2021-03-25T08:52:08Z</time>
      </trkpt>
      <trkpt lat="45.55279" lon="6.76947">
        <ele>1772.8</ele>
        <time>2021-03-25T08:52:09Z</time>
      </trkpt>
      <trkpt lat="45.55279" lon="6.76947">
        <ele>1772.8</ele>
        <time>2021-03-25T08:52:10Z</time>
      </trkpt>
      <trkpt lat="45.5528" lon="6.76948">
        <ele>1772.7</ele>
        <time>2021-03-25T08:52:11Z</time>
      </trkpt>
      <trkpt lat="45.5528" lon="6.76948">
        <ele>1772.7</ele>
        <time>2021-03-25T08:52:12Z</time>
      </trkpt>
      <trkpt lat="45.55281" lon="6.76949">
        <ele>1772.7</ele>
        <time>2021-03-25T08:52:13Z</time>
      </trkpt>
      <trkpt lat="45.55281" lon="6.76949">
        <ele>1772.7</ele>
        <time>2021-03-25T08:52:14Z</time>
      </trkpt>
      <trkpt lat="45.55282" lon="6.76949">
        <ele>1772.7</ele>
        <time>2021-03-25T08:52:15Z</time>
      </trkpt>
      <trkpt lat="45.55282" lon="6.7695">
        <ele>1772.7</ele>
        <time>2021-03-25T08:52:16Z</time>
      </trkpt>
      <trkpt lat="45.55283" lon="6.7695">
        <ele>1772.7</ele>
        <time>2021-03-25T08:52:17Z</time>
      </trkpt>
      <trkpt lat="45.55283" lon="6.76951">
        <ele>1773.9</ele>
        <time>2021-03-25T08:52:18Z</time>
      </trkpt>
      <trkpt lat="45.55283" lon="6.76952">
        <ele>1773.9</ele>
        <time>2021-03-25T08:52:19Z</time>
      </trkpt>
      <trkpt lat="45.55284" lon="6.76953">
        <ele>1773.9</ele>
        <time>2021-03-25T08:52:20Z</time>
      </trkpt>
      <trkpt lat="45.55284" lon="6.76953">
        <ele>1773.9</ele>
        <time>2021-03-25T08:52:21Z</time>
      </trkpt>
      <trkpt lat="45.55285" lon="6.76954">
        <ele>1773.9</ele>
        <time>2021-03-25T08:52:22Z</time>
      </trkpt>
      <trkpt lat="45.55285" lon="6.76955">
        <ele>1773.9</ele>
        <time>2021-03-25T08:52:23Z</time>
      </trkpt>
      <trkpt lat="45.55285" lon="6.76955">
        <ele>1775</ele>
        <time>2021-03-25T08:52:24Z</time>
      </trkpt>
      <trkpt lat="45.55286" lon="6.76956">
        <ele>1774.9</ele>
        <time>2021-03-25T08:52:25Z</time>
      </trkpt>
      <trkpt lat="45.55286" lon="6.76956">
        <ele>1774.9</ele>
        <time>2021-03-25T08:52:26Z</time>
      </trkpt>
      <trkpt lat="45.55286" lon="6.76957">
        <ele>1775</ele>
        <time>2021-03-25T08:52:27Z</time>
      </trkpt>
      <trkpt lat="45.55285" lon="6.76958">
        <ele>1775</ele>
        <time>2021-03-25T08:52:28Z</time>
      </trkpt>
      <trkpt lat="45.55285" lon="6.76958">
        <ele>1775</ele>
        <time>2021-03-25T08:52:29Z</time>
      </trkpt>
      <trkpt lat="45.55284" lon="6.76959">
        <ele>1775</ele>
        <time>2021-03-25T08:52:30Z</time>
      </trkpt>
      <trkpt lat="45.55283" lon="6.7696">
        <ele>1776.1</ele>
        <time>2021-03-25T08:52:31Z</time>
      </trkpt>
      <trkpt lat="45.55283" lon="6.7696">
        <ele>1776.1</ele>
        <time>2021-03-25T08:52:32Z</time>
      </trkpt>
      <trkpt lat="45.55282" lon="6.76961">
        <ele>1776.3</ele>
        <time>2021-03-25T08:52:33Z</time>
      </trkpt>
      <trkpt lat="45.55281" lon="6.76962">
        <ele>1776.3</ele>
        <time>2021-03-25T08:52:34Z</time>
      </trkpt>
      <trkpt lat="45.55281" lon="6.76962">
        <ele>1776.3</ele>
        <time>2021-03-25T08:52:35Z</time>
      </trkpt>
      <trkpt lat="45.5528" lon="6.76963">
        <ele>1776.3</ele>
        <time>2021-03-25T08:52:36Z</time>
      </trkpt>
      <trkpt lat="45.55279" lon="6.76963">
        <ele>1776.4</ele>
        <time>2021-03-25T08:52:37Z</time>
      </trkpt>
      <trkpt lat="45.55278" lon="6.76964">
        <ele>1776.4</ele>
        <time>2021-03-25T08:52:38Z</time>
      </trkpt>
      <trkpt lat="45.55278" lon="6.76965">
        <ele>1777.5</ele>
        <time>2021-03-25T08:52:39Z</time>
      </trkpt>
      <trkpt lat="45.55277" lon="6.76965">
        <ele>1777.5</ele>
        <time>2021-03-25T08:52:40Z</time>
      </trkpt>
      <trkpt lat="45.55276" lon="6.76965">
        <ele>1777.7</ele>
        <time>2021-03-25T08:52:41Z</time>
      </trkpt>
      <trkpt lat="45.55276" lon="6.76966">
        <ele>1777.7</ele>
        <time>2021-03-25T08:52:42Z</time>
      </trkpt>
      <trkpt lat="45.55275" lon="6.76966">
        <ele>1777.7</ele>
        <time>2021-03-25T08:52:43Z</time>
      </trkpt>
      <trkpt lat="45.55274" lon="6.76967">
        <ele>1777.7</ele>
        <time>2021-03-25T08:52:44Z</time>
      </trkpt>
      <trkpt lat="45.55274" lon="6.76967">
        <ele>1777.7</ele>
        <time>2021-03-25T08:52:45Z</time>
      </trkpt>
      <trkpt lat="45.55273" lon="6.76967">
        <ele>1777.8</ele>
        <time>2021-03-25T08:52:46Z</time>
      </trkpt>
      <trkpt lat="45.55272" lon="6.76967">
        <ele>1777.8</ele>
        <time>2021-03-25T08:52:47Z</time>
      </trkpt>
      <trkpt lat="45.55272" lon="6.76968">
        <ele>1777.8</ele>
        <time>2021-03-25T08:52:48Z</time>
      </trkpt>
      <trkpt lat="45.55271" lon="6.76968">
        <ele>1777.8</ele>
        <time>2021-03-25T08:52:49Z</time>
      </trkpt>
      <trkpt lat="45.5527" lon="6.76969">
        <ele>1779</ele>
        <time>2021-03-25T08:52:50Z</time>
      </trkpt>
      <trkpt lat="45.5527" lon="6.76969">
        <ele>1779</ele>
        <time>2021-03-25T08:52:51Z</time>
      </trkpt>
      <trkpt lat="45.55269" lon="6.76969">
        <ele>1779</ele>
        <time>2021-03-25T08:52:52Z</time>
      </trkpt>
      <trkpt lat="45.55269" lon="6.76969">
        <ele>1779</ele>
        <time>2021-03-25T08:52:53Z</time>
      </trkpt>
      <trkpt lat="45.55268" lon="6.7697">
        <ele>1779</ele>
        <time>2021-03-25T08:52:54Z</time>
      </trkpt>
      <trkpt lat="45.55267" lon="6.7697">
        <ele>1779</ele>
        <time>2021-03-25T08:52:55Z</time>
      </trkpt>
      <trkpt lat="45.55266" lon="6.76971">
        <ele>1779</ele>
        <time>2021-03-25T08:52:56Z</time>
      </trkpt>
      <trkpt lat="45.55266" lon="6.76972">
        <ele>1779</ele>
        <time>2021-03-25T08:52:57Z</time>
      </trkpt>
      <trkpt lat="45.55265" lon="6.76972">
        <ele>1779</ele>
        <time>2021-03-25T08:52:58Z</time>
      </trkpt>
      <trkpt lat="45.55265" lon="6.76973">
        <ele>1780.1</ele>
        <time>2021-03-25T08:52:59Z</time>
      </trkpt>
      <trkpt lat="45.55264" lon="6.76973">
        <ele>1780.1</ele>
        <time>2021-03-25T08:53:00Z</time>
      </trkpt>
      <trkpt lat="45.55264" lon="6.76974">
        <ele>1780.1</ele>
        <time>2021-03-25T08:53:01Z</time>
      </trkpt>
      <trkpt lat="45.55263" lon="6.76975">
        <ele>1780.1</ele>
        <time>2021-03-25T08:53:02Z</time>
      </trkpt>
      <trkpt lat="45.55262" lon="6.76975">
        <ele>1780.1</ele>
        <time>2021-03-25T08:53:03Z</time>
      </trkpt>
      <trkpt lat="45.55262" lon="6.76976">
        <ele>1780.1</ele>
        <time>2021-03-25T08:53:04Z</time>
      </trkpt>
      <trkpt lat="45.55261" lon="6.76977">
        <ele>1780.1</ele>
        <time>2021-03-25T08:53:05Z</time>
      </trkpt>
      <trkpt lat="45.55261" lon="6.76977">
        <ele>1781.2</ele>
        <time>2021-03-25T08:53:06Z</time>
      </trkpt>
      <trkpt lat="45.5526" lon="6.76978">
        <ele>1781.2</ele>
        <time>2021-03-25T08:53:07Z</time>
      </trkpt>
      <trkpt lat="45.55259" lon="6.76979">
        <ele>1781.2</ele>
        <time>2021-03-25T08:53:08Z</time>
      </trkpt>
      <trkpt lat="45.55259" lon="6.76979">
        <ele>1781.2</ele>
        <time>2021-03-25T08:53:09Z</time>
      </trkpt>
      <trkpt lat="45.55258" lon="6.7698">
        <ele>1781.1</ele>
        <time>2021-03-25T08:53:10Z</time>
      </trkpt>
      <trkpt lat="45.55257" lon="6.76981">
        <ele>1781.1</ele>
        <time>2021-03-25T08:53:11Z</time>
      </trkpt>
      <trkpt lat="45.55257" lon="6.76982">
        <ele>1782.3</ele>
        <time>2021-03-25T08:53:12Z</time>
      </trkpt>
      <trkpt lat="45.55256" lon="6.76982">
        <ele>1782.3</ele>
        <time>2021-03-25T08:53:13Z</time>
      </trkpt>
      <trkpt lat="45.55256" lon="6.76983">
        <ele>1782.3</ele>
        <time>2021-03-25T08:53:14Z</time>
      </trkpt>
      <trkpt lat="45.55255" lon="6.76983">
        <ele>1782.2</ele>
        <time>2021-03-25T08:53:15Z</time>
      </trkpt>
      <trkpt lat="45.55255" lon="6.76984">
        <ele>1782.2</ele>
        <time>2021-03-25T08:53:16Z</time>
      </trkpt>
      <trkpt lat="45.55255" lon="6.76985">
        <ele>1782.2</ele>
        <time>2021-03-25T08:53:17Z</time>
      </trkpt>
      <trkpt lat="45.55255" lon="6.76985">
        <ele>1783.4</ele>
        <time>2021-03-25T08:53:18Z</time>
      </trkpt>
      <trkpt lat="45.55256" lon="6.76986">
        <ele>1783.4</ele>
        <time>2021-03-25T08:53:19Z</time>
      </trkpt>
      <trkpt lat="45.55256" lon="6.76987">
        <ele>1783.4</ele>
        <time>2021-03-25T08:53:20Z</time>
      </trkpt>
      <trkpt lat="45.55257" lon="6.76988">
        <ele>1783.4</ele>
        <time>2021-03-25T08:53:21Z</time>
      </trkpt>
      <trkpt lat="45.55257" lon="6.76988">
        <ele>1783.4</ele>
        <time>2021-03-25T08:53:22Z</time>
      </trkpt>
      <trkpt lat="45.55258" lon="6.76989">
        <ele>1783.4</ele>
        <time>2021-03-25T08:53:23Z</time>
      </trkpt>
      <trkpt lat="45.55258" lon="6.76989">
        <ele>1783.4</ele>
        <time>2021-03-25T08:53:24Z</time>
      </trkpt>
      <trkpt lat="45.55259" lon="6.7699">
        <ele>1784.6</ele>
        <time>2021-03-25T08:53:25Z</time>
      </trkpt>
      <trkpt lat="45.55259" lon="6.76991">
        <ele>1784.6</ele>
        <time>2021-03-25T08:53:26Z</time>
      </trkpt>
      <trkpt lat="45.5526" lon="6.76992">
        <ele>1784.6</ele>
        <time>2021-03-25T08:53:27Z</time>
      </trkpt>
      <trkpt lat="45.5526" lon="6.76993">
        <ele>1784.6</ele>
        <time>2021-03-25T08:53:28Z</time>
      </trkpt>
      <trkpt lat="45.5526" lon="6.76994">
        <ele>1785.8</ele>
        <time>2021-03-25T08:53:29Z</time>
      </trkpt>
      <trkpt lat="45.5526" lon="6.76995">
        <ele>1785.8</ele>
        <time>2021-03-25T08:53:30Z</time>
      </trkpt>
      <trkpt lat="45.55261" lon="6.76996">
        <ele>1785.8</ele>
        <time>2021-03-25T08:53:31Z</time>
      </trkpt>
      <trkpt lat="45.55261" lon="6.76997">
        <ele>1785.8</ele>
        <time>2021-03-25T08:53:32Z</time>
      </trkpt>
      <trkpt lat="45.55261" lon="6.76999">
        <ele>1787</ele>
        <time>2021-03-25T08:53:33Z</time>
      </trkpt>
      <trkpt lat="45.55262" lon="6.77">
        <ele>1787</ele>
        <time>2021-03-25T08:53:34Z</time>
      </trkpt>
      <trkpt lat="45.55262" lon="6.77001">
        <ele>1787</ele>
        <time>2021-03-25T08:53:35Z</time>
      </trkpt>
      <trkpt lat="45.55262" lon="6.77002">
        <ele>1787</ele>
        <time>2021-03-25T08:53:36Z</time>
      </trkpt>
      <trkpt lat="45.55262" lon="6.77003">
        <ele>1788.2</ele>
        <time>2021-03-25T08:53:37Z</time>
      </trkpt>
      <trkpt lat="45.55263" lon="6.77004">
        <ele>1788.2</ele>
        <time>2021-03-25T08:53:38Z</time>
      </trkpt>
      <trkpt lat="45.55263" lon="6.77005">
        <ele>1788.2</ele>
        <time>2021-03-25T08:53:39Z</time>
      </trkpt>
      <trkpt lat="45.55263" lon="6.77006">
        <ele>1788.2</ele>
        <time>2021-03-25T08:53:40Z</time>
      </trkpt>
      <trkpt lat="45.55263" lon="6.77008">
        <ele>1789.3</ele>
        <time>2021-03-25T08:53:41Z</time>
      </trkpt>
      <trkpt lat="45.55263" lon="6.77008">
        <ele>1789.3</ele>
        <time>2021-03-25T08:53:42Z</time>
      </trkpt>
      <trkpt lat="45.55263" lon="6.7701">
        <ele>1789.3</ele>
        <time>2021-03-25T08:53:43Z</time>
      </trkpt>
      <trkpt lat="45.55263" lon="6.77011">
        <ele>1789.3</ele>
        <time>2021-03-25T08:53:44Z</time>
      </trkpt>
      <trkpt lat="45.55263" lon="6.77012">
        <ele>1790.3</ele>
        <time>2021-03-25T08:53:45Z</time>
      </trkpt>
      <trkpt lat="45.55263" lon="6.77013">
        <ele>1790.3</ele>
        <time>2021-03-25T08:53:46Z</time>
      </trkpt>
      <trkpt lat="45.55263" lon="6.77014">
        <ele>1790.3</ele>
        <time>2021-03-25T08:53:47Z</time>
      </trkpt>
      <trkpt lat="45.55263" lon="6.77015">
        <ele>1791.3</ele>
        <time>2021-03-25T08:53:48Z</time>
      </trkpt>
      <trkpt lat="45.55263" lon="6.77016">
        <ele>1791.3</ele>
        <time>2021-03-25T08:53:49Z</time>
      </trkpt>
      <trkpt lat="45.55263" lon="6.77017">
        <ele>1791.3</ele>
        <time>2021-03-25T08:53:50Z</time>
      </trkpt>
      <trkpt lat="45.55263" lon="6.77018">
        <ele>1791.3</ele>
        <time>2021-03-25T08:53:51Z</time>
      </trkpt>
      <trkpt lat="45.55262" lon="6.77019">
        <ele>1791.3</ele>
        <time>2021-03-25T08:53:52Z</time>
      </trkpt>
      <trkpt lat="45.55262" lon="6.77021">
        <ele>1792.3</ele>
        <time>2021-03-25T08:53:53Z</time>
      </trkpt>
      <trkpt lat="45.55262" lon="6.77022">
        <ele>1792.3</ele>
        <time>2021-03-25T08:53:54Z</time>
      </trkpt>
      <trkpt lat="45.55262" lon="6.77023">
        <ele>1792.3</ele>
        <time>2021-03-25T08:53:55Z</time>
      </trkpt>
      <trkpt lat="45.55262" lon="6.77024">
        <ele>1793.3</ele>
        <time>2021-03-25T08:53:56Z</time>
      </trkpt>
      <trkpt lat="45.55262" lon="6.77025">
        <ele>1793.3</ele>
        <time>2021-03-25T08:53:57Z</time>
      </trkpt>
      <trkpt lat="45.55262" lon="6.77026">
        <ele>1793.3</ele>
        <time>2021-03-25T08:53:58Z</time>
      </trkpt>
      <trkpt lat="45.55262" lon="6.77027">
        <ele>1793.3</ele>
        <time>2021-03-25T08:53:59Z</time>
      </trkpt>
      <trkpt lat="45.55262" lon="6.77028">
        <ele>1793.3</ele>
        <time>2021-03-25T08:54:00Z</time>
      </trkpt>
      <trkpt lat="45.55262" lon="6.77029">
        <ele>1794.3</ele>
        <time>2021-03-25T08:54:01Z</time>
      </trkpt>
      <trkpt lat="45.55262" lon="6.77029">
        <ele>1794.3</ele>
        <time>2021-03-25T08:54:02Z</time>
      </trkpt>
      <trkpt lat="45.55262" lon="6.7703">
        <ele>1794.3</ele>
        <time>2021-03-25T08:54:03Z</time>
      </trkpt>
      <trkpt lat="45.55262" lon="6.77031">
        <ele>1794.3</ele>
        <time>2021-03-25T08:54:04Z</time>
      </trkpt>
      <trkpt lat="45.55262" lon="6.77032">
        <ele>1794.3</ele>
        <time>2021-03-25T08:54:05Z</time>
      </trkpt>
      <trkpt lat="45.55262" lon="6.77033">
        <ele>1795.3</ele>
        <time>2021-03-25T08:54:06Z</time>
      </trkpt>
      <trkpt lat="45.55263" lon="6.77034">
        <ele>1795.3</ele>
        <time>2021-03-25T08:54:07Z</time>
      </trkpt>
      <trkpt lat="45.55263" lon="6.77035">
        <ele>1795.3</ele>
        <time>2021-03-25T08:54:08Z</time>
      </trkpt>
      <trkpt lat="45.55263" lon="6.77036">
        <ele>1795.3</ele>
        <time>2021-03-25T08:54:09Z</time>
      </trkpt>
      <trkpt lat="45.55263" lon="6.77037">
        <ele>1796.4</ele>
        <time>2021-03-25T08:54:10Z</time>
      </trkpt>
      <trkpt lat="45.55263" lon="6.77038">
        <ele>1796.4</ele>
        <time>2021-03-25T08:54:11Z</time>
      </trkpt>
      <trkpt lat="45.55264" lon="6.77039">
        <ele>1796.4</ele>
        <time>2021-03-25T08:54:12Z</time>
      </trkpt>
      <trkpt lat="45.55264" lon="6.77039">
        <ele>1796.4</ele>
        <time>2021-03-25T08:54:13Z</time>
      </trkpt>
      <trkpt lat="45.55264" lon="6.7704">
        <ele>1796.4</ele>
        <time>2021-03-25T08:54:14Z</time>
      </trkpt>
      <trkpt lat="45.55264" lon="6.77041">
        <ele>1796.4</ele>
        <time>2021-03-25T08:54:15Z</time>
      </trkpt>
      <trkpt lat="45.55265" lon="6.77041">
        <ele>1797.4</ele>
        <time>2021-03-25T08:54:16Z</time>
      </trkpt>
      <trkpt lat="45.55265" lon="6.77042">
        <ele>1797.4</ele>
        <time>2021-03-25T08:54:17Z</time>
      </trkpt>
      <trkpt lat="45.55266" lon="6.77043">
        <ele>1797.4</ele>
        <time>2021-03-25T08:54:18Z</time>
      </trkpt>
      <trkpt lat="45.55266" lon="6.77044">
        <ele>1797.4</ele>
        <time>2021-03-25T08:54:19Z</time>
      </trkpt>
      <trkpt lat="45.55267" lon="6.77044">
        <ele>1797.4</ele>
        <time>2021-03-25T08:54:20Z</time>
      </trkpt>
      <trkpt lat="45.55267" lon="6.77045">
        <ele>1797.4</ele>
        <time>2021-03-25T08:54:21Z</time>
      </trkpt>
      <trkpt lat="45.55267" lon="6.77046">
        <ele>1798.4</ele>
        <time>2021-03-25T08:54:22Z</time>
      </trkpt>
      <trkpt lat="45.55268" lon="6.77047">
        <ele>1798.4</ele>
        <time>2021-03-25T08:54:23Z</time>
      </trkpt>
      <trkpt lat="45.55269" lon="6.77048">
        <ele>1798.4</ele>
        <time>2021-03-25T08:54:24Z</time>
      </trkpt>
      <trkpt lat="45.55269" lon="6.77049">
        <ele>1798.4</ele>
        <time>2021-03-25T08:54:25Z</time>
      </trkpt>
      <trkpt lat="45.5527" lon="6.77049">
        <ele>1798.4</ele>
        <time>2021-03-25T08:54:26Z</time>
      </trkpt>
      <trkpt lat="45.55271" lon="6.7705">
        <ele>1799.2</ele>
        <time>2021-03-25T08:54:27Z</time>
      </trkpt>
      <trkpt lat="45.55271" lon="6.77051">
        <ele>1799.2</ele>
        <time>2021-03-25T08:54:28Z</time>
      </trkpt>
      <trkpt lat="45.55272" lon="6.77052">
        <ele>1799.2</ele>
        <time>2021-03-25T08:54:29Z</time>
      </trkpt>
      <trkpt lat="45.55272" lon="6.77053">
        <ele>1799.2</ele>
        <time>2021-03-25T08:54:30Z</time>
      </trkpt>
      <trkpt lat="45.55272" lon="6.77053">
        <ele>1799.2</ele>
        <time>2021-03-25T08:54:31Z</time>
      </trkpt>
      <trkpt lat="45.55273" lon="6.77054">
        <ele>1799.2</ele>
        <time>2021-03-25T08:54:32Z</time>
      </trkpt>
      <trkpt lat="45.55273" lon="6.77055">
        <ele>1800.2</ele>
        <time>2021-03-25T08:54:33Z</time>
      </trkpt>
      <trkpt lat="45.55274" lon="6.77056">
        <ele>1800</ele>
        <time>2021-03-25T08:54:34Z</time>
      </trkpt>
      <trkpt lat="45.55274" lon="6.77056">
        <ele>1800</ele>
        <time>2021-03-25T08:54:35Z</time>
      </trkpt>
      <trkpt lat="45.55275" lon="6.77057">
        <ele>1800</ele>
        <time>2021-03-25T08:54:36Z</time>
      </trkpt>
      <trkpt lat="45.55276" lon="6.77058">
        <ele>1800</ele>
        <time>2021-03-25T08:54:37Z</time>
      </trkpt>
      <trkpt lat="45.55276" lon="6.77059">
        <ele>1800.9</ele>
        <time>2021-03-25T08:54:38Z</time>
      </trkpt>
      <trkpt lat="45.55277" lon="6.77059">
        <ele>1800.6</ele>
        <time>2021-03-25T08:54:39Z</time>
      </trkpt>
      <trkpt lat="45.55277" lon="6.7706">
        <ele>1800.6</ele>
        <time>2021-03-25T08:54:40Z</time>
      </trkpt>
      <trkpt lat="45.55277" lon="6.77061">
        <ele>1800.6</ele>
        <time>2021-03-25T08:54:41Z</time>
      </trkpt>
      <trkpt lat="45.55277" lon="6.77062">
        <ele>1800.6</ele>
        <time>2021-03-25T08:54:42Z</time>
      </trkpt>
      <trkpt lat="45.55277" lon="6.77063">
        <ele>1801.5</ele>
        <time>2021-03-25T08:54:43Z</time>
      </trkpt>
      <trkpt lat="45.55276" lon="6.77064">
        <ele>1801.7</ele>
        <time>2021-03-25T08:54:44Z</time>
      </trkpt>
      <trkpt lat="45.55276" lon="6.77066">
        <ele>1801.7</ele>
        <time>2021-03-25T08:54:45Z</time>
      </trkpt>
      <trkpt lat="45.55276" lon="6.77067">
        <ele>1801.7</ele>
        <time>2021-03-25T08:54:46Z</time>
      </trkpt>
      <trkpt lat="45.55275" lon="6.77068">
        <ele>1802.5</ele>
        <time>2021-03-25T08:54:47Z</time>
      </trkpt>
      <trkpt lat="45.55274" lon="6.77068">
        <ele>1802.5</ele>
        <time>2021-03-25T08:54:48Z</time>
      </trkpt>
      <trkpt lat="45.55273" lon="6.77069">
        <ele>1802.7</ele>
        <time>2021-03-25T08:54:49Z</time>
      </trkpt>
      <trkpt lat="45.55273" lon="6.7707">
        <ele>1802.7</ele>
        <time>2021-03-25T08:54:50Z</time>
      </trkpt>
      <trkpt lat="45.55272" lon="6.77071">
        <ele>1803.6</ele>
        <time>2021-03-25T08:54:51Z</time>
      </trkpt>
      <trkpt lat="45.55272" lon="6.77073">
        <ele>1803.6</ele>
        <time>2021-03-25T08:54:52Z</time>
      </trkpt>
      <trkpt lat="45.55271" lon="6.77074">
        <ele>1803.6</ele>
        <time>2021-03-25T08:54:53Z</time>
      </trkpt>
      <trkpt lat="45.5527" lon="6.77075">
        <ele>1803.8</ele>
        <time>2021-03-25T08:54:54Z</time>
      </trkpt>
      <trkpt lat="45.5527" lon="6.77076">
        <ele>1804.6</ele>
        <time>2021-03-25T08:54:55Z</time>
      </trkpt>
      <trkpt lat="45.55269" lon="6.77077">
        <ele>1804.6</ele>
        <time>2021-03-25T08:54:56Z</time>
      </trkpt>
      <trkpt lat="45.55268" lon="6.77078">
        <ele>1804.6</ele>
        <time>2021-03-25T08:54:57Z</time>
      </trkpt>
      <trkpt lat="45.55268" lon="6.77079">
        <ele>1804.6</ele>
        <time>2021-03-25T08:54:58Z</time>
      </trkpt>
      <trkpt lat="45.55267" lon="6.7708">
        <ele>1805.7</ele>
        <time>2021-03-25T08:54:59Z</time>
      </trkpt>
      <trkpt lat="45.55267" lon="6.77081">
        <ele>1805.7</ele>
        <time>2021-03-25T08:55:00Z</time>
      </trkpt>
      <trkpt lat="45.55267" lon="6.77082">
        <ele>1805.7</ele>
        <time>2021-03-25T08:55:01Z</time>
      </trkpt>
      <trkpt lat="45.55266" lon="6.77083">
        <ele>1805.7</ele>
        <time>2021-03-25T08:55:02Z</time>
      </trkpt>
      <trkpt lat="45.55266" lon="6.77084">
        <ele>1806.6</ele>
        <time>2021-03-25T08:55:03Z</time>
      </trkpt>
      <trkpt lat="45.55266" lon="6.77086">
        <ele>1806.6</ele>
        <time>2021-03-25T08:55:04Z</time>
      </trkpt>
      <trkpt lat="45.55265" lon="6.77087">
        <ele>1806.6</ele>
        <time>2021-03-25T08:55:05Z</time>
      </trkpt>
      <trkpt lat="45.55265" lon="6.77088">
        <ele>1806.6</ele>
        <time>2021-03-25T08:55:06Z</time>
      </trkpt>
      <trkpt lat="45.55265" lon="6.77089">
        <ele>1807.5</ele>
        <time>2021-03-25T08:55:07Z</time>
      </trkpt>
      <trkpt lat="45.55265" lon="6.7709">
        <ele>1807.5</ele>
        <time>2021-03-25T08:55:08Z</time>
      </trkpt>
      <trkpt lat="45.55265" lon="6.77091">
        <ele>1807.5</ele>
        <time>2021-03-25T08:55:09Z</time>
      </trkpt>
      <trkpt lat="45.55265" lon="6.77092">
        <ele>1807.5</ele>
        <time>2021-03-25T08:55:10Z</time>
      </trkpt>
      <trkpt lat="45.55265" lon="6.77094">
        <ele>1808.4</ele>
        <time>2021-03-25T08:55:11Z</time>
      </trkpt>
      <trkpt lat="45.55265" lon="6.77094">
        <ele>1808.4</ele>
        <time>2021-03-25T08:55:12Z</time>
      </trkpt>
      <trkpt lat="45.55265" lon="6.77095">
        <ele>1808.4</ele>
        <time>2021-03-25T08:55:13Z</time>
      </trkpt>
      <trkpt lat="45.55265" lon="6.77095">
        <ele>1808.4</ele>
        <time>2021-03-25T08:55:14Z</time>
      </trkpt>
      <trkpt lat="45.55265" lon="6.77096">
        <ele>1808.4</ele>
        <time>2021-03-25T08:55:15Z</time>
      </trkpt>
      <trkpt lat="45.55265" lon="6.77096">
        <ele>1808.4</ele>
        <time>2021-03-25T08:55:16Z</time>
      </trkpt>
      <trkpt lat="45.55265" lon="6.77097">
        <ele>1809.2</ele>
        <time>2021-03-25T08:55:17Z</time>
      </trkpt>
      <trkpt lat="45.55265" lon="6.77097">
        <ele>1809.4</ele>
        <time>2021-03-25T08:55:18Z</time>
      </trkpt>
      <trkpt lat="45.55264" lon="6.77098">
        <ele>1809.4</ele>
        <time>2021-03-25T08:55:19Z</time>
      </trkpt>
      <trkpt lat="45.55264" lon="6.77099">
        <ele>1809.4</ele>
        <time>2021-03-25T08:55:20Z</time>
      </trkpt>
      <trkpt lat="45.55264" lon="6.77099">
        <ele>1809.5</ele>
        <time>2021-03-25T08:55:33Z</time>
      </trkpt>
      <trkpt lat="45.55264" lon="6.771">
        <ele>1809.5</ele>
        <time>2021-03-25T08:55:34Z</time>
      </trkpt>
      <trkpt lat="45.55264" lon="6.771">
        <ele>1809.6</ele>
        <time>2021-03-25T08:55:35Z</time>
      </trkpt>
      <trkpt lat="45.55264" lon="6.77101">
        <ele>1809.6</ele>
        <time>2021-03-25T08:55:36Z</time>
      </trkpt>
      <trkpt lat="45.55264" lon="6.77102">
        <ele>1810.4</ele>
        <time>2021-03-25T08:55:37Z</time>
      </trkpt>
      <trkpt lat="45.55264" lon="6.77103">
        <ele>1810.5</ele>
        <time>2021-03-25T08:55:38Z</time>
      </trkpt>
      <trkpt lat="45.55263" lon="6.77104">
        <ele>1810.5</ele>
        <time>2021-03-25T08:55:39Z</time>
      </trkpt>
      <trkpt lat="45.55263" lon="6.77105">
        <ele>1810.6</ele>
        <time>2021-03-25T08:55:40Z</time>
      </trkpt>
      <trkpt lat="45.55263" lon="6.77106">
        <ele>1811.3</ele>
        <time>2021-03-25T08:55:41Z</time>
      </trkpt>
      <trkpt lat="45.55263" lon="6.77107">
        <ele>1811.3</ele>
        <time>2021-03-25T08:55:42Z</time>
      </trkpt>
      <trkpt lat="45.55263" lon="6.77109">
        <ele>1811.4</ele>
        <time>2021-03-25T08:55:43Z</time>
      </trkpt>
      <trkpt lat="45.55263" lon="6.7711">
        <ele>1812.2</ele>
        <time>2021-03-25T08:55:44Z</time>
      </trkpt>
      <trkpt lat="45.55263" lon="6.77111">
        <ele>1812.3</ele>
        <time>2021-03-25T08:55:45Z</time>
      </trkpt>
      <trkpt lat="45.55262" lon="6.77113">
        <ele>1812.3</ele>
        <time>2021-03-25T08:55:46Z</time>
      </trkpt>
      <trkpt lat="45.55262" lon="6.77114">
        <ele>1812.3</ele>
        <time>2021-03-25T08:55:47Z</time>
      </trkpt>
      <trkpt lat="45.55262" lon="6.77114">
        <ele>1813.2</ele>
        <time>2021-03-25T08:55:48Z</time>
      </trkpt>
      <trkpt lat="45.55261" lon="6.77115">
        <ele>1813.4</ele>
        <time>2021-03-25T08:55:49Z</time>
      </trkpt>
      <trkpt lat="45.55261" lon="6.77115">
        <ele>1813.5</ele>
        <time>2021-03-25T08:55:50Z</time>
      </trkpt>
      <trkpt lat="45.55261" lon="6.77116">
        <ele>1813.5</ele>
        <time>2021-03-25T08:55:51Z</time>
      </trkpt>
      <trkpt lat="45.55261" lon="6.77116">
        <ele>1813.5</ele>
        <time>2021-03-25T08:55:52Z</time>
      </trkpt>
      <trkpt lat="45.55261" lon="6.77118">
        <ele>1813.6</ele>
        <time>2021-03-25T08:55:53Z</time>
      </trkpt>
      <trkpt lat="45.55261" lon="6.77118">
        <ele>1813.6</ele>
        <time>2021-03-25T08:55:54Z</time>
      </trkpt>
      <trkpt lat="45.5526" lon="6.7712">
        <ele>1814.5</ele>
        <time>2021-03-25T08:55:55Z</time>
      </trkpt>
      <trkpt lat="45.5526" lon="6.77121">
        <ele>1814.5</ele>
        <time>2021-03-25T08:55:56Z</time>
      </trkpt>
      <trkpt lat="45.5526" lon="6.77122">
        <ele>1814.5</ele>
        <time>2021-03-25T08:55:57Z</time>
      </trkpt>
      <trkpt lat="45.55259" lon="6.77122">
        <ele>1814.6</ele>
        <time>2021-03-25T08:55:58Z</time>
      </trkpt>
      <trkpt lat="45.55259" lon="6.77123">
        <ele>1815.4</ele>
        <time>2021-03-25T08:55:59Z</time>
      </trkpt>
      <trkpt lat="45.55258" lon="6.77123">
        <ele>1815.7</ele>
        <time>2021-03-25T08:56:00Z</time>
      </trkpt>
      <trkpt lat="45.55258" lon="6.77124">
        <ele>1815.7</ele>
        <time>2021-03-25T08:56:01Z</time>
      </trkpt>
      <trkpt lat="45.55257" lon="6.77125">
        <ele>1815.7</ele>
        <time>2021-03-25T08:56:02Z</time>
      </trkpt>
      <trkpt lat="45.55257" lon="6.77125">
        <ele>1815.8</ele>
        <time>2021-03-25T08:56:03Z</time>
      </trkpt>
      <trkpt lat="45.55256" lon="6.77126">
        <ele>1815.8</ele>
        <time>2021-03-25T08:56:04Z</time>
      </trkpt>
      <trkpt lat="45.55256" lon="6.77126">
        <ele>1815.9</ele>
        <time>2021-03-25T08:56:05Z</time>
      </trkpt>
      <trkpt lat="45.55255" lon="6.77127">
        <ele>1816.1</ele>
        <time>2021-03-25T08:56:06Z</time>
      </trkpt>
      <trkpt lat="45.55254" lon="6.77127">
        <ele>1816.9</ele>
        <time>2021-03-25T08:56:07Z</time>
      </trkpt>
      <trkpt lat="45.55254" lon="6.77128">
        <ele>1817</ele>
        <time>2021-03-25T08:56:08Z</time>
      </trkpt>
      <trkpt lat="45.55253" lon="6.77128">
        <ele>1817</ele>
        <time>2021-03-25T08:56:09Z</time>
      </trkpt>
      <trkpt lat="45.55252" lon="6.77129">
        <ele>1817.6</ele>
        <time>2021-03-25T08:56:10Z</time>
      </trkpt>
      <trkpt lat="45.55252" lon="6.7713">
        <ele>1817.6</ele>
        <time>2021-03-25T08:56:11Z</time>
      </trkpt>
      <trkpt lat="45.55252" lon="6.7713">
        <ele>1817.6</ele>
        <time>2021-03-25T08:56:12Z</time>
      </trkpt>
      <trkpt lat="45.55251" lon="6.77131">
        <ele>1818.5</ele>
        <time>2021-03-25T08:56:13Z</time>
      </trkpt>
      <trkpt lat="45.55251" lon="6.77132">
        <ele>1818.5</ele>
        <time>2021-03-25T08:56:14Z</time>
      </trkpt>
      <trkpt lat="45.55251" lon="6.77133">
        <ele>1818.6</ele>
        <time>2021-03-25T08:56:15Z</time>
      </trkpt>
      <trkpt lat="45.55251" lon="6.77135">
        <ele>1818.6</ele>
        <time>2021-03-25T08:56:16Z</time>
      </trkpt>
      <trkpt lat="45.55251" lon="6.77136">
        <ele>1819.4</ele>
        <time>2021-03-25T08:56:17Z</time>
      </trkpt>
      <trkpt lat="45.55251" lon="6.77137">
        <ele>1819.4</ele>
        <time>2021-03-25T08:56:18Z</time>
      </trkpt>
      <trkpt lat="45.55251" lon="6.77137">
        <ele>1819.5</ele>
        <time>2021-03-25T08:56:19Z</time>
      </trkpt>
      <trkpt lat="45.55251" lon="6.77139">
        <ele>1819.5</ele>
        <time>2021-03-25T08:56:20Z</time>
      </trkpt>
      <trkpt lat="45.5525" lon="6.7714">
        <ele>1819.6</ele>
        <time>2021-03-25T08:56:21Z</time>
      </trkpt>
      <trkpt lat="45.5525" lon="6.7714">
        <ele>1820.3</ele>
        <time>2021-03-25T08:56:22Z</time>
      </trkpt>
      <trkpt lat="45.5525" lon="6.77141">
        <ele>1820.4</ele>
        <time>2021-03-25T08:56:23Z</time>
      </trkpt>
      <trkpt lat="45.5525" lon="6.77142">
        <ele>1820.4</ele>
        <time>2021-03-25T08:56:24Z</time>
      </trkpt>
      <trkpt lat="45.5525" lon="6.77143">
        <ele>1820.5</ele>
        <time>2021-03-25T08:56:25Z</time>
      </trkpt>
      <trkpt lat="45.55249" lon="6.77144">
        <ele>1820.8</ele>
        <time>2021-03-25T08:56:26Z</time>
      </trkpt>
      <trkpt lat="45.5525" lon="6.77145">
        <ele>1821.6</ele>
        <time>2021-03-25T08:56:27Z</time>
      </trkpt>
      <trkpt lat="45.5525" lon="6.77146">
        <ele>1821.3</ele>
        <time>2021-03-25T08:56:28Z</time>
      </trkpt>
      <trkpt lat="45.5525" lon="6.77147">
        <ele>1821.3</ele>
        <time>2021-03-25T08:56:29Z</time>
      </trkpt>
      <trkpt lat="45.5525" lon="6.77148">
        <ele>1821.7</ele>
        <time>2021-03-25T08:56:30Z</time>
      </trkpt>
      <trkpt lat="45.55249" lon="6.77149">
        <ele>1822.5</ele>
        <time>2021-03-25T08:56:31Z</time>
      </trkpt>
      <trkpt lat="45.55249" lon="6.7715">
        <ele>1822.5</ele>
        <time>2021-03-25T08:56:32Z</time>
      </trkpt>
      <trkpt lat="45.55248" lon="6.77151">
        <ele>1822.6</ele>
        <time>2021-03-25T08:56:33Z</time>
      </trkpt>
      <trkpt lat="45.55248" lon="6.77151">
        <ele>1822.6</ele>
        <time>2021-03-25T08:56:34Z</time>
      </trkpt>
      <trkpt lat="45.55247" lon="6.77152">
        <ele>1822.7</ele>
        <time>2021-03-25T08:56:35Z</time>
      </trkpt>
      <trkpt lat="45.55247" lon="6.77153">
        <ele>1823.4</ele>
        <time>2021-03-25T08:56:36Z</time>
      </trkpt>
      <trkpt lat="45.55246" lon="6.77154">
        <ele>1823.7</ele>
        <time>2021-03-25T08:56:37Z</time>
      </trkpt>
      <trkpt lat="45.55246" lon="6.77155">
        <ele>1823.8</ele>
        <time>2021-03-25T08:56:38Z</time>
      </trkpt>
      <trkpt lat="45.55245" lon="6.77156">
        <ele>1823.8</ele>
        <time>2021-03-25T08:56:39Z</time>
      </trkpt>
      <trkpt lat="45.55245" lon="6.77156">
        <ele>1823.9</ele>
        <time>2021-03-25T08:56:40Z</time>
      </trkpt>
      <trkpt lat="45.55245" lon="6.77157">
        <ele>1823.9</ele>
        <time>2021-03-25T08:56:41Z</time>
      </trkpt>
      <trkpt lat="45.55244" lon="6.77157">
        <ele>1824.7</ele>
        <time>2021-03-25T08:56:42Z</time>
      </trkpt>
      <trkpt lat="45.55244" lon="6.77158">
        <ele>1824.7</ele>
        <time>2021-03-25T08:56:43Z</time>
      </trkpt>
      <trkpt lat="45.55244" lon="6.77158">
        <ele>1825</ele>
        <time>2021-03-25T08:56:44Z</time>
      </trkpt>
      <trkpt lat="45.55243" lon="6.77159">
        <ele>1825.1</ele>
        <time>2021-03-25T08:56:45Z</time>
      </trkpt>
      <trkpt lat="45.55243" lon="6.7716">
        <ele>1825.1</ele>
        <time>2021-03-25T08:56:46Z</time>
      </trkpt>
      <trkpt lat="45.55242" lon="6.7716">
        <ele>1825.2</ele>
        <time>2021-03-25T08:56:47Z</time>
      </trkpt>
      <trkpt lat="45.55242" lon="6.77161">
        <ele>1825.2</ele>
        <time>2021-03-25T08:56:55Z</time>
      </trkpt>
      <trkpt lat="45.55242" lon="6.77161">
        <ele>1826</ele>
        <time>2021-03-25T08:56:56Z</time>
      </trkpt>
      <trkpt lat="45.55241" lon="6.77162">
        <ele>1826.1</ele>
        <time>2021-03-25T08:56:57Z</time>
      </trkpt>
      <trkpt lat="45.55241" lon="6.77163">
        <ele>1826.1</ele>
        <time>2021-03-25T08:56:58Z</time>
      </trkpt>
      <trkpt lat="45.55241" lon="6.77163">
        <ele>1826.4</ele>
        <time>2021-03-25T08:56:59Z</time>
      </trkpt>
      <trkpt lat="45.5524" lon="6.77165">
        <ele>1826.5</ele>
        <time>2021-03-25T08:57:00Z</time>
      </trkpt>
      <trkpt lat="45.5524" lon="6.77165">
        <ele>1826.5</ele>
        <time>2021-03-25T08:57:01Z</time>
      </trkpt>
      <trkpt lat="45.5524" lon="6.77166">
        <ele>1827.5</ele>
        <time>2021-03-25T08:57:02Z</time>
      </trkpt>
      <trkpt lat="45.5524" lon="6.77168">
        <ele>1827.5</ele>
        <time>2021-03-25T08:57:03Z</time>
      </trkpt>
      <trkpt lat="45.5524" lon="6.77169">
        <ele>1827.5</ele>
        <time>2021-03-25T08:57:04Z</time>
      </trkpt>
      <trkpt lat="45.5524" lon="6.7717">
        <ele>1828.4</ele>
        <time>2021-03-25T08:57:05Z</time>
      </trkpt>
      <trkpt lat="45.55239" lon="6.77171">
        <ele>1828.4</ele>
        <time>2021-03-25T08:57:06Z</time>
      </trkpt>
      <trkpt lat="45.55239" lon="6.77172">
        <ele>1828.5</ele>
        <time>2021-03-25T08:57:07Z</time>
      </trkpt>
      <trkpt lat="45.55239" lon="6.77173">
        <ele>1828.5</ele>
        <time>2021-03-25T08:57:08Z</time>
      </trkpt>
      <trkpt lat="45.55239" lon="6.77174">
        <ele>1828.5</ele>
        <time>2021-03-25T08:57:09Z</time>
      </trkpt>
      <trkpt lat="45.55239" lon="6.77175">
        <ele>1829.4</ele>
        <time>2021-03-25T08:57:10Z</time>
      </trkpt>
      <trkpt lat="45.55239" lon="6.77176">
        <ele>1829.4</ele>
        <time>2021-03-25T08:57:11Z</time>
      </trkpt>
      <trkpt lat="45.55239" lon="6.77177">
        <ele>1829.5</ele>
        <time>2021-03-25T08:57:12Z</time>
      </trkpt>
      <trkpt lat="45.55239" lon="6.77178">
        <ele>1829.5</ele>
        <time>2021-03-25T08:57:13Z</time>
      </trkpt>
      <trkpt lat="45.55239" lon="6.77179">
        <ele>1830.3</ele>
        <time>2021-03-25T08:57:14Z</time>
      </trkpt>
      <trkpt lat="45.55238" lon="6.7718">
        <ele>1830.4</ele>
        <time>2021-03-25T08:57:15Z</time>
      </trkpt>
      <trkpt lat="45.55238" lon="6.77181">
        <ele>1830.4</ele>
        <time>2021-03-25T08:57:16Z</time>
      </trkpt>
      <trkpt lat="45.55238" lon="6.77182">
        <ele>1830.5</ele>
        <time>2021-03-25T08:57:17Z</time>
      </trkpt>
      <trkpt lat="45.55238" lon="6.77183">
        <ele>1831.2</ele>
        <time>2021-03-25T08:57:18Z</time>
      </trkpt>
      <trkpt lat="45.55238" lon="6.77184">
        <ele>1831.2</ele>
        <time>2021-03-25T08:57:19Z</time>
      </trkpt>
      <trkpt lat="45.55238" lon="6.77185">
        <ele>1831.2</ele>
        <time>2021-03-25T08:57:20Z</time>
      </trkpt>
      <trkpt lat="45.55238" lon="6.77187">
        <ele>1831.2</ele>
        <time>2021-03-25T08:57:21Z</time>
      </trkpt>
      <trkpt lat="45.55238" lon="6.77188">
        <ele>1831.9</ele>
        <time>2021-03-25T08:57:22Z</time>
      </trkpt>
      <trkpt lat="45.55238" lon="6.77189">
        <ele>1831.9</ele>
        <time>2021-03-25T08:57:23Z</time>
      </trkpt>
      <trkpt lat="45.55237" lon="6.7719">
        <ele>1832.2</ele>
        <time>2021-03-25T08:57:24Z</time>
      </trkpt>
      <trkpt lat="45.55237" lon="6.77191">
        <ele>1832.2</ele>
        <time>2021-03-25T08:57:25Z</time>
      </trkpt>
      <trkpt lat="45.55237" lon="6.77192">
        <ele>1832.9</ele>
        <time>2021-03-25T08:57:26Z</time>
      </trkpt>
      <trkpt lat="45.55238" lon="6.77193">
        <ele>1832.6</ele>
        <time>2021-03-25T08:57:27Z</time>
      </trkpt>
      <trkpt lat="45.55238" lon="6.77194">
        <ele>1832.6</ele>
        <time>2021-03-25T08:57:28Z</time>
      </trkpt>
      <trkpt lat="45.55238" lon="6.77195">
        <ele>1832.6</ele>
        <time>2021-03-25T08:57:29Z</time>
      </trkpt>
      <trkpt lat="45.55238" lon="6.77196">
        <ele>1833.2</ele>
        <time>2021-03-25T08:57:30Z</time>
      </trkpt>
      <trkpt lat="45.55237" lon="6.77197">
        <ele>1833.5</ele>
        <time>2021-03-25T08:57:31Z</time>
      </trkpt>
      <trkpt lat="45.55237" lon="6.77198">
        <ele>1833.5</ele>
        <time>2021-03-25T08:57:32Z</time>
      </trkpt>
      <trkpt lat="45.55237" lon="6.77199">
        <ele>1833.5</ele>
        <time>2021-03-25T08:57:33Z</time>
      </trkpt>
      <trkpt lat="45.55237" lon="6.772">
        <ele>1834.1</ele>
        <time>2021-03-25T08:57:34Z</time>
      </trkpt>
      <trkpt lat="45.55236" lon="6.77201">
        <ele>1834.1</ele>
        <time>2021-03-25T08:57:35Z</time>
      </trkpt>
      <trkpt lat="45.55236" lon="6.77202">
        <ele>1834.1</ele>
        <time>2021-03-25T08:57:36Z</time>
      </trkpt>
      <trkpt lat="45.55236" lon="6.77202">
        <ele>1834.1</ele>
        <time>2021-03-25T08:57:37Z</time>
      </trkpt>
      <trkpt lat="45.55236" lon="6.77203">
        <ele>1834.1</ele>
        <time>2021-03-25T08:57:38Z</time>
      </trkpt>
      <trkpt lat="45.55236" lon="6.77204">
        <ele>1834.1</ele>
        <time>2021-03-25T08:57:39Z</time>
      </trkpt>
      <trkpt lat="45.55235" lon="6.77204">
        <ele>1834.8</ele>
        <time>2021-03-25T08:57:40Z</time>
      </trkpt>
      <trkpt lat="45.55235" lon="6.77205">
        <ele>1834.8</ele>
        <time>2021-03-25T08:57:41Z</time>
      </trkpt>
      <trkpt lat="45.55235" lon="6.77206">
        <ele>1834.8</ele>
        <time>2021-03-25T08:57:42Z</time>
      </trkpt>
      <trkpt lat="45.55235" lon="6.77207">
        <ele>1834.8</ele>
        <time>2021-03-25T08:57:43Z</time>
      </trkpt>
      <trkpt lat="45.55234" lon="6.77208">
        <ele>1835.2</ele>
        <time>2021-03-25T08:57:44Z</time>
      </trkpt>
      <trkpt lat="45.55234" lon="6.77208">
        <ele>1835.2</ele>
        <time>2021-03-25T08:57:45Z</time>
      </trkpt>
      <trkpt lat="45.55234" lon="6.77209">
        <ele>1835.8</ele>
        <time>2021-03-25T08:57:46Z</time>
      </trkpt>
      <trkpt lat="45.55234" lon="6.7721">
        <ele>1835.8</ele>
        <time>2021-03-25T08:57:47Z</time>
      </trkpt>
      <trkpt lat="45.55233" lon="6.77211">
        <ele>1835.8</ele>
        <time>2021-03-25T08:57:48Z</time>
      </trkpt>
      <trkpt lat="45.55233" lon="6.77212">
        <ele>1835.8</ele>
        <time>2021-03-25T08:57:49Z</time>
      </trkpt>
      <trkpt lat="45.55233" lon="6.77213">
        <ele>1836.6</ele>
        <time>2021-03-25T08:57:50Z</time>
      </trkpt>
      <trkpt lat="45.55233" lon="6.77214">
        <ele>1836.6</ele>
        <time>2021-03-25T08:57:51Z</time>
      </trkpt>
      <trkpt lat="45.55232" lon="6.77215">
        <ele>1836.6</ele>
        <time>2021-03-25T08:57:52Z</time>
      </trkpt>
      <trkpt lat="45.55232" lon="6.77215">
        <ele>1836.6</ele>
        <time>2021-03-25T08:57:53Z</time>
      </trkpt>
      <trkpt lat="45.55232" lon="6.77216">
        <ele>1836.6</ele>
        <time>2021-03-25T08:57:54Z</time>
      </trkpt>
      <trkpt lat="45.55232" lon="6.77217">
        <ele>1837.4</ele>
        <time>2021-03-25T08:57:55Z</time>
      </trkpt>
      <trkpt lat="45.55231" lon="6.77218">
        <ele>1837.7</ele>
        <time>2021-03-25T08:57:56Z</time>
      </trkpt>
      <trkpt lat="45.55231" lon="6.77219">
        <ele>1837.7</ele>
        <time>2021-03-25T08:57:57Z</time>
      </trkpt>
      <trkpt lat="45.55231" lon="6.7722">
        <ele>1837.7</ele>
        <time>2021-03-25T08:57:58Z</time>
      </trkpt>
      <trkpt lat="45.5523" lon="6.7722">
        <ele>1837.7</ele>
        <time>2021-03-25T08:57:59Z</time>
      </trkpt>
      <trkpt lat="45.5523" lon="6.77221">
        <ele>1837.7</ele>
        <time>2021-03-25T08:58:00Z</time>
      </trkpt>
      <trkpt lat="45.55229" lon="6.77222">
        <ele>1838.5</ele>
        <time>2021-03-25T08:58:01Z</time>
      </trkpt>
      <trkpt lat="45.55229" lon="6.77222">
        <ele>1838.5</ele>
        <time>2021-03-25T08:58:02Z</time>
      </trkpt>
      <trkpt lat="45.55228" lon="6.77223">
        <ele>1838.9</ele>
        <time>2021-03-25T08:58:03Z</time>
      </trkpt>
      <trkpt lat="45.55228" lon="6.77224">
        <ele>1838.9</ele>
        <time>2021-03-25T08:58:04Z</time>
      </trkpt>
      <trkpt lat="45.55228" lon="6.77225">
        <ele>1838.9</ele>
        <time>2021-03-25T08:58:05Z</time>
      </trkpt>
      <trkpt lat="45.55227" lon="6.77226">
        <ele>1839.7</ele>
        <time>2021-03-25T08:58:06Z</time>
      </trkpt>
      <trkpt lat="45.55227" lon="6.77227">
        <ele>1839.7</ele>
        <time>2021-03-25T08:58:07Z</time>
      </trkpt>
      <trkpt lat="45.55227" lon="6.77228">
        <ele>1839.7</ele>
        <time>2021-03-25T08:58:08Z</time>
      </trkpt>
      <trkpt lat="45.55226" lon="6.77228">
        <ele>1839.7</ele>
        <time>2021-03-25T08:58:09Z</time>
      </trkpt>
      <trkpt lat="45.55226" lon="6.77229">
        <ele>1839.7</ele>
        <time>2021-03-25T08:58:10Z</time>
      </trkpt>
      <trkpt lat="45.55226" lon="6.7723">
        <ele>1840.4</ele>
        <time>2021-03-25T08:58:11Z</time>
      </trkpt>
      <trkpt lat="45.55226" lon="6.77231">
        <ele>1840.4</ele>
        <time>2021-03-25T08:58:12Z</time>
      </trkpt>
      <trkpt lat="45.55225" lon="6.77232">
        <ele>1840.8</ele>
        <time>2021-03-25T08:58:13Z</time>
      </trkpt>
      <trkpt lat="45.55225" lon="6.77232">
        <ele>1840.8</ele>
        <time>2021-03-25T08:58:14Z</time>
      </trkpt>
      <trkpt lat="45.55225" lon="6.77233">
        <ele>1840.8</ele>
        <time>2021-03-25T08:58:15Z</time>
      </trkpt>
      <trkpt lat="45.55224" lon="6.77234">
        <ele>1840.8</ele>
        <time>2021-03-25T08:58:16Z</time>
      </trkpt>
      <trkpt lat="45.55224" lon="6.77235">
        <ele>1841.5</ele>
        <time>2021-03-25T08:58:17Z</time>
      </trkpt>
      <trkpt lat="45.55224" lon="6.77236">
        <ele>1841.5</ele>
        <time>2021-03-25T08:58:18Z</time>
      </trkpt>
      <trkpt lat="45.55224" lon="6.77236">
        <ele>1841.5</ele>
        <time>2021-03-25T08:58:19Z</time>
      </trkpt>
      <trkpt lat="45.55223" lon="6.77237">
        <ele>1841.5</ele>
        <time>2021-03-25T08:58:20Z</time>
      </trkpt>
      <trkpt lat="45.55223" lon="6.77238">
        <ele>1841.5</ele>
        <time>2021-03-25T08:58:21Z</time>
      </trkpt>
      <trkpt lat="45.55223" lon="6.77239">
        <ele>1842.2</ele>
        <time>2021-03-25T08:58:22Z</time>
      </trkpt>
      <trkpt lat="45.55223" lon="6.7724">
        <ele>1842.2</ele>
        <time>2021-03-25T08:58:23Z</time>
      </trkpt>
      <trkpt lat="45.55222" lon="6.77241">
        <ele>1842.6</ele>
        <time>2021-03-25T08:58:24Z</time>
      </trkpt>
      <trkpt lat="45.55222" lon="6.77241">
        <ele>1842.6</ele>
        <time>2021-03-25T08:58:25Z</time>
      </trkpt>
      <trkpt lat="45.55222" lon="6.77242">
        <ele>1842.6</ele>
        <time>2021-03-25T08:58:26Z</time>
      </trkpt>
      <trkpt lat="45.55221" lon="6.77243">
        <ele>1842.6</ele>
        <time>2021-03-25T08:58:27Z</time>
      </trkpt>
      <trkpt lat="45.55221" lon="6.77244">
        <ele>1843.3</ele>
        <time>2021-03-25T08:58:28Z</time>
      </trkpt>
      <trkpt lat="45.55221" lon="6.77244">
        <ele>1843.3</ele>
        <time>2021-03-25T08:58:29Z</time>
      </trkpt>
      <trkpt lat="45.5522" lon="6.77245">
        <ele>1843.3</ele>
        <time>2021-03-25T08:58:30Z</time>
      </trkpt>
      <trkpt lat="45.5522" lon="6.77246">
        <ele>1843.3</ele>
        <time>2021-03-25T08:58:31Z</time>
      </trkpt>
      <trkpt lat="45.5522" lon="6.77246">
        <ele>1843.3</ele>
        <time>2021-03-25T08:58:32Z</time>
      </trkpt>
      <trkpt lat="45.55219" lon="6.77247">
        <ele>1843.7</ele>
        <time>2021-03-25T08:58:33Z</time>
      </trkpt>
      <trkpt lat="45.55219" lon="6.77248">
        <ele>1844.4</ele>
        <time>2021-03-25T08:58:34Z</time>
      </trkpt>
      <trkpt lat="45.55219" lon="6.77249">
        <ele>1844.4</ele>
        <time>2021-03-25T08:58:35Z</time>
      </trkpt>
      <trkpt lat="45.55218" lon="6.77249">
        <ele>1844.4</ele>
        <time>2021-03-25T08:58:36Z</time>
      </trkpt>
      <trkpt lat="45.55218" lon="6.7725">
        <ele>1844.4</ele>
        <time>2021-03-25T08:58:37Z</time>
      </trkpt>
      <trkpt lat="45.55217" lon="6.77251">
        <ele>1844.4</ele>
        <time>2021-03-25T08:58:38Z</time>
      </trkpt>
      <trkpt lat="45.55217" lon="6.77252">
        <ele>1845.1</ele>
        <time>2021-03-25T08:58:39Z</time>
      </trkpt>
      <trkpt lat="45.55216" lon="6.77253">
        <ele>1845.5</ele>
        <time>2021-03-25T08:58:40Z</time>
      </trkpt>
      <trkpt lat="45.55216" lon="6.77254">
        <ele>1845.5</ele>
        <time>2021-03-25T08:58:41Z</time>
      </trkpt>
      <trkpt lat="45.55216" lon="6.77255">
        <ele>1845.5</ele>
        <time>2021-03-25T08:58:42Z</time>
      </trkpt>
      <trkpt lat="45.55216" lon="6.77256">
        <ele>1846.3</ele>
        <time>2021-03-25T08:58:43Z</time>
      </trkpt>
      <trkpt lat="45.55216" lon="6.77257">
        <ele>1846.3</ele>
        <time>2021-03-25T08:58:44Z</time>
      </trkpt>
      <trkpt lat="45.55216" lon="6.77257">
        <ele>1846.3</ele>
        <time>2021-03-25T08:58:45Z</time>
      </trkpt>
      <trkpt lat="45.55217" lon="6.77258">
        <ele>1845.9</ele>
        <time>2021-03-25T08:58:46Z</time>
      </trkpt>
      <trkpt lat="45.55217" lon="6.77259">
        <ele>1845.9</ele>
        <time>2021-03-25T08:58:47Z</time>
      </trkpt>
      <trkpt lat="45.55217" lon="6.77259">
        <ele>1845.9</ele>
        <time>2021-03-25T08:58:48Z</time>
      </trkpt>
      <trkpt lat="45.55217" lon="6.7726">
        <ele>1845.9</ele>
        <time>2021-03-25T08:58:49Z</time>
      </trkpt>
      <trkpt lat="45.55217" lon="6.77261">
        <ele>1846.6</ele>
        <time>2021-03-25T08:58:50Z</time>
      </trkpt>
      <trkpt lat="45.55217" lon="6.77261">
        <ele>1846.6</ele>
        <time>2021-03-25T08:58:51Z</time>
      </trkpt>
      <trkpt lat="45.55217" lon="6.77262">
        <ele>1846.6</ele>
        <time>2021-03-25T08:58:52Z</time>
      </trkpt>
      <trkpt lat="45.55218" lon="6.77263">
        <ele>1846.6</ele>
        <time>2021-03-25T08:58:53Z</time>
      </trkpt>
      <trkpt lat="45.55218" lon="6.77263">
        <ele>1846.6</ele>
        <time>2021-03-25T09:02:40Z</time>
      </trkpt>
      <trkpt lat="45.55218" lon="6.77264">
        <ele>1846.6</ele>
        <time>2021-03-25T09:02:41Z</time>
      </trkpt>
      <trkpt lat="45.55218" lon="6.77265">
        <ele>1847.3</ele>
        <time>2021-03-25T09:02:42Z</time>
      </trkpt>
      <trkpt lat="45.55218" lon="6.77265">
        <ele>1847.3</ele>
        <time>2021-03-25T09:02:43Z</time>
      </trkpt>
      <trkpt lat="45.55219" lon="6.77267">
        <ele>1847.3</ele>
        <time>2021-03-25T09:02:44Z</time>
      </trkpt>
      <trkpt lat="45.55219" lon="6.77268">
        <ele>1847.3</ele>
        <time>2021-03-25T09:02:45Z</time>
      </trkpt>
      <trkpt lat="45.55219" lon="6.77268">
        <ele>1847.3</ele>
        <time>2021-03-25T09:02:46Z</time>
      </trkpt>
      <trkpt lat="45.55219" lon="6.77268">
        <ele>1847.3</ele>
        <time>2021-03-25T09:02:47Z</time>
      </trkpt>
      <trkpt lat="45.55219" lon="6.7727">
        <ele>1847.9</ele>
        <time>2021-03-25T09:02:48Z</time>
      </trkpt>
      <trkpt lat="45.55219" lon="6.7727">
        <ele>1847.9</ele>
        <time>2021-03-25T09:02:49Z</time>
      </trkpt>
      <trkpt lat="45.55219" lon="6.77271">
        <ele>1847.9</ele>
        <time>2021-03-25T09:02:50Z</time>
      </trkpt>
      <trkpt lat="45.55219" lon="6.77272">
        <ele>1847.9</ele>
        <time>2021-03-25T09:02:51Z</time>
      </trkpt>
      <trkpt lat="45.55219" lon="6.77273">
        <ele>1848.6</ele>
        <time>2021-03-25T09:02:52Z</time>
      </trkpt>
      <trkpt lat="45.55219" lon="6.77274">
        <ele>1848.6</ele>
        <time>2021-03-25T09:02:53Z</time>
      </trkpt>
      <trkpt lat="45.55219" lon="6.77275">
        <ele>1848.6</ele>
        <time>2021-03-25T09:02:54Z</time>
      </trkpt>
      <trkpt lat="45.55219" lon="6.77276">
        <ele>1848.6</ele>
        <time>2021-03-25T09:02:55Z</time>
      </trkpt>
      <trkpt lat="45.55219" lon="6.77277">
        <ele>1849.2</ele>
        <time>2021-03-25T09:02:56Z</time>
      </trkpt>
      <trkpt lat="45.55219" lon="6.77279">
        <ele>1849.2</ele>
        <time>2021-03-25T09:02:57Z</time>
      </trkpt>
      <trkpt lat="45.55219" lon="6.7728">
        <ele>1849.2</ele>
        <time>2021-03-25T09:02:58Z</time>
      </trkpt>
      <trkpt lat="45.55219" lon="6.77281">
        <ele>1849.7</ele>
        <time>2021-03-25T09:02:59Z</time>
      </trkpt>
      <trkpt lat="45.55219" lon="6.77282">
        <ele>1849.7</ele>
        <time>2021-03-25T09:03:00Z</time>
      </trkpt>
      <trkpt lat="45.55218" lon="6.77283">
        <ele>1849.7</ele>
        <time>2021-03-25T09:03:01Z</time>
      </trkpt>
      <trkpt lat="45.55218" lon="6.77284">
        <ele>1849.7</ele>
        <time>2021-03-25T09:03:02Z</time>
      </trkpt>
      <trkpt lat="45.55218" lon="6.77285">
        <ele>1849.7</ele>
        <time>2021-03-25T09:03:03Z</time>
      </trkpt>
      <trkpt lat="45.55218" lon="6.77286">
        <ele>1849.7</ele>
        <time>2021-03-25T09:03:04Z</time>
      </trkpt>
      <trkpt lat="45.55218" lon="6.77286">
        <ele>1850.2</ele>
        <time>2021-03-25T09:03:05Z</time>
      </trkpt>
      <trkpt lat="45.55217" lon="6.77287">
        <ele>1850.2</ele>
        <time>2021-03-25T09:03:06Z</time>
      </trkpt>
      <trkpt lat="45.55217" lon="6.77288">
        <ele>1850.2</ele>
        <time>2021-03-25T09:03:07Z</time>
      </trkpt>
      <trkpt lat="45.55217" lon="6.77289">
        <ele>1850.2</ele>
        <time>2021-03-25T09:03:08Z</time>
      </trkpt>
      <trkpt lat="45.55217" lon="6.77289">
        <ele>1850.2</ele>
        <time>2021-03-25T09:03:09Z</time>
      </trkpt>
      <trkpt lat="45.55217" lon="6.7729">
        <ele>1850.7</ele>
        <time>2021-03-25T09:03:10Z</time>
      </trkpt>
      <trkpt lat="45.55217" lon="6.77291">
        <ele>1850.7</ele>
        <time>2021-03-25T09:03:11Z</time>
      </trkpt>
      <trkpt lat="45.55217" lon="6.77292">
        <ele>1850.7</ele>
        <time>2021-03-25T09:03:12Z</time>
      </trkpt>
      <trkpt lat="45.55216" lon="6.77293">
        <ele>1851.1</ele>
        <time>2021-03-25T09:03:13Z</time>
      </trkpt>
      <trkpt lat="45.55216" lon="6.77293">
        <ele>1851.1</ele>
        <time>2021-03-25T09:03:14Z</time>
      </trkpt>
      <trkpt lat="45.55216" lon="6.77294">
        <ele>1851.1</ele>
        <time>2021-03-25T09:03:15Z</time>
      </trkpt>
      <trkpt lat="45.55216" lon="6.77295">
        <ele>1851.6</ele>
        <time>2021-03-25T09:03:16Z</time>
      </trkpt>
      <trkpt lat="45.55215" lon="6.77296">
        <ele>1851.6</ele>
        <time>2021-03-25T09:03:17Z</time>
      </trkpt>
      <trkpt lat="45.55215" lon="6.77296">
        <ele>1851.6</ele>
        <time>2021-03-25T09:03:18Z</time>
      </trkpt>
      <trkpt lat="45.55215" lon="6.77297">
        <ele>1851.6</ele>
        <time>2021-03-25T09:03:19Z</time>
      </trkpt>
      <trkpt lat="45.55215" lon="6.77298">
        <ele>1851.6</ele>
        <time>2021-03-25T09:03:20Z</time>
      </trkpt>
      <trkpt lat="45.55214" lon="6.77299">
        <ele>1852.1</ele>
        <time>2021-03-25T09:03:21Z</time>
      </trkpt>
      <trkpt lat="45.55214" lon="6.77299">
        <ele>1852.1</ele>
        <time>2021-03-25T09:03:22Z</time>
      </trkpt>
      <trkpt lat="45.55213" lon="6.773">
        <ele>1852.5</ele>
        <time>2021-03-25T09:03:23Z</time>
      </trkpt>
      <trkpt lat="45.55213" lon="6.77301">
        <ele>1852.5</ele>
        <time>2021-03-25T09:03:24Z</time>
      </trkpt>
      <trkpt lat="45.55213" lon="6.77302">
        <ele>1852.5</ele>
        <time>2021-03-25T09:03:25Z</time>
      </trkpt>
      <trkpt lat="45.55213" lon="6.77303">
        <ele>1852.5</ele>
        <time>2021-03-25T09:03:26Z</time>
      </trkpt>
      <trkpt lat="45.55212" lon="6.77304">
        <ele>1853</ele>
        <time>2021-03-25T09:03:27Z</time>
      </trkpt>
      <trkpt lat="45.55212" lon="6.77304">
        <ele>1853</ele>
        <time>2021-03-25T09:03:28Z</time>
      </trkpt>
      <trkpt lat="45.55212" lon="6.77305">
        <ele>1853</ele>
        <time>2021-03-25T09:03:29Z</time>
      </trkpt>
      <trkpt lat="45.55211" lon="6.77306">
        <ele>1853</ele>
        <time>2021-03-25T09:03:30Z</time>
      </trkpt>
      <trkpt lat="45.55211" lon="6.77307">
        <ele>1853</ele>
        <time>2021-03-25T09:03:31Z</time>
      </trkpt>
      <trkpt lat="45.55211" lon="6.77308">
        <ele>1853.7</ele>
        <time>2021-03-25T09:03:32Z</time>
      </trkpt>
      <trkpt lat="45.5521" lon="6.77309">
        <ele>1854</ele>
        <time>2021-03-25T09:03:33Z</time>
      </trkpt>
      <trkpt lat="45.5521" lon="6.7731">
        <ele>1854</ele>
        <time>2021-03-25T09:03:34Z</time>
      </trkpt>
      <trkpt lat="45.5521" lon="6.77311">
        <ele>1854</ele>
        <time>2021-03-25T09:03:35Z</time>
      </trkpt>
      <trkpt lat="45.55209" lon="6.77311">
        <ele>1854</ele>
        <time>2021-03-25T09:03:36Z</time>
      </trkpt>
      <trkpt lat="45.55209" lon="6.77312">
        <ele>1854.6</ele>
        <time>2021-03-25T09:03:37Z</time>
      </trkpt>
      <trkpt lat="45.55209" lon="6.77313">
        <ele>1854.6</ele>
        <time>2021-03-25T09:03:38Z</time>
      </trkpt>
      <trkpt lat="45.55209" lon="6.77314">
        <ele>1854.6</ele>
        <time>2021-03-25T09:03:39Z</time>
      </trkpt>
      <trkpt lat="45.55209" lon="6.77315">
        <ele>1854.6</ele>
        <time>2021-03-25T09:03:40Z</time>
      </trkpt>
      <trkpt lat="45.55209" lon="6.77316">
        <ele>1854.6</ele>
        <time>2021-03-25T09:03:41Z</time>
      </trkpt>
      <trkpt lat="45.55209" lon="6.77316">
        <ele>1855.3</ele>
        <time>2021-03-25T09:03:42Z</time>
      </trkpt>
      <trkpt lat="45.55209" lon="6.77317">
        <ele>1855.3</ele>
        <time>2021-03-25T09:03:43Z</time>
      </trkpt>
      <trkpt lat="45.55209" lon="6.77318">
        <ele>1855.3</ele>
        <time>2021-03-25T09:03:44Z</time>
      </trkpt>
      <trkpt lat="45.55209" lon="6.77319">
        <ele>1855.3</ele>
        <time>2021-03-25T09:03:45Z</time>
      </trkpt>
      <trkpt lat="45.55209" lon="6.7732">
        <ele>1855.3</ele>
        <time>2021-03-25T09:03:46Z</time>
      </trkpt>
      <trkpt lat="45.55209" lon="6.77321">
        <ele>1855.9</ele>
        <time>2021-03-25T09:03:47Z</time>
      </trkpt>
      <trkpt lat="45.55209" lon="6.77322">
        <ele>1855.9</ele>
        <time>2021-03-25T09:03:48Z</time>
      </trkpt>
      <trkpt lat="45.55209" lon="6.77322">
        <ele>1855.9</ele>
        <time>2021-03-25T09:03:49Z</time>
      </trkpt>
      <trkpt lat="45.55209" lon="6.77323">
        <ele>1855.9</ele>
        <time>2021-03-25T09:03:50Z</time>
      </trkpt>
      <trkpt lat="45.55209" lon="6.77324">
        <ele>1855.9</ele>
        <time>2021-03-25T09:03:51Z</time>
      </trkpt>
      <trkpt lat="45.55209" lon="6.77325">
        <ele>1856.5</ele>
        <time>2021-03-25T09:03:52Z</time>
      </trkpt>
      <trkpt lat="45.55209" lon="6.77326">
        <ele>1856.5</ele>
        <time>2021-03-25T09:03:53Z</time>
      </trkpt>
      <trkpt lat="45.55209" lon="6.77327">
        <ele>1856.5</ele>
        <time>2021-03-25T09:03:54Z</time>
      </trkpt>
      <trkpt lat="45.55208" lon="6.77327">
        <ele>1856.5</ele>
        <time>2021-03-25T09:03:55Z</time>
      </trkpt>
      <trkpt lat="45.55208" lon="6.77328">
        <ele>1856.5</ele>
        <time>2021-03-25T09:03:56Z</time>
      </trkpt>
      <trkpt lat="45.55208" lon="6.77329">
        <ele>1857.1</ele>
        <time>2021-03-25T09:03:57Z</time>
      </trkpt>
      <trkpt lat="45.55208" lon="6.7733">
        <ele>1857.1</ele>
        <time>2021-03-25T09:03:58Z</time>
      </trkpt>
      <trkpt lat="45.55208" lon="6.77331">
        <ele>1857.1</ele>
        <time>2021-03-25T09:03:59Z</time>
      </trkpt>
      <trkpt lat="45.55208" lon="6.77332">
        <ele>1857.1</ele>
        <time>2021-03-25T09:04:00Z</time>
      </trkpt>
      <trkpt lat="45.55208" lon="6.77332">
        <ele>1857.1</ele>
        <time>2021-03-25T09:04:01Z</time>
      </trkpt>
      <trkpt lat="45.55208" lon="6.77333">
        <ele>1857.1</ele>
        <time>2021-03-25T09:04:02Z</time>
      </trkpt>
      <trkpt lat="45.55208" lon="6.77334">
        <ele>1857.7</ele>
        <time>2021-03-25T09:04:03Z</time>
      </trkpt>
      <trkpt lat="45.55207" lon="6.77334">
        <ele>1858.1</ele>
        <time>2021-03-25T09:04:04Z</time>
      </trkpt>
      <trkpt lat="45.55207" lon="6.77335">
        <ele>1858.1</ele>
        <time>2021-03-25T09:04:05Z</time>
      </trkpt>
      <trkpt lat="45.55207" lon="6.77336">
        <ele>1858.1</ele>
        <time>2021-03-25T09:04:06Z</time>
      </trkpt>
      <trkpt lat="45.55207" lon="6.77337">
        <ele>1858.1</ele>
        <time>2021-03-25T09:04:07Z</time>
      </trkpt>
      <trkpt lat="45.55207" lon="6.77338">
        <ele>1858.7</ele>
        <time>2021-03-25T09:04:08Z</time>
      </trkpt>
      <trkpt lat="45.55206" lon="6.77339">
        <ele>1858.7</ele>
        <time>2021-03-25T09:04:09Z</time>
      </trkpt>
      <trkpt lat="45.55206" lon="6.77339">
        <ele>1858.7</ele>
        <time>2021-03-25T09:04:10Z</time>
      </trkpt>
      <trkpt lat="45.55206" lon="6.7734">
        <ele>1858.7</ele>
        <time>2021-03-25T09:04:11Z</time>
      </trkpt>
      <trkpt lat="45.55205" lon="6.77341">
        <ele>1858.7</ele>
        <time>2021-03-25T09:04:12Z</time>
      </trkpt>
      <trkpt lat="45.55204" lon="6.77341">
        <ele>1859.1</ele>
        <time>2021-03-25T09:04:13Z</time>
      </trkpt>
      <trkpt lat="45.55204" lon="6.77342">
        <ele>1859.7</ele>
        <time>2021-03-25T09:04:14Z</time>
      </trkpt>
      <trkpt lat="45.55203" lon="6.77342">
        <ele>1859.7</ele>
        <time>2021-03-25T09:04:15Z</time>
      </trkpt>
      <trkpt lat="45.55203" lon="6.77342">
        <ele>1859.7</ele>
        <time>2021-03-25T09:04:16Z</time>
      </trkpt>
      <trkpt lat="45.55202" lon="6.77342">
        <ele>1859.7</ele>
        <time>2021-03-25T09:04:17Z</time>
      </trkpt>
      <trkpt lat="45.55201" lon="6.77342">
        <ele>1860.1</ele>
        <time>2021-03-25T09:04:18Z</time>
      </trkpt>
      <trkpt lat="45.55201" lon="6.77342">
        <ele>1860.1</ele>
        <time>2021-03-25T09:04:19Z</time>
      </trkpt>
      <trkpt lat="45.552" lon="6.77342">
        <ele>1860.1</ele>
        <time>2021-03-25T09:04:20Z</time>
      </trkpt>
      <trkpt lat="45.552" lon="6.77342">
        <ele>1860.1</ele>
        <time>2021-03-25T09:04:21Z</time>
      </trkpt>
      <trkpt lat="45.55199" lon="6.77342">
        <ele>1860.1</ele>
        <time>2021-03-25T09:04:22Z</time>
      </trkpt>
      <trkpt lat="45.55198" lon="6.77342">
        <ele>1860.5</ele>
        <time>2021-03-25T09:04:23Z</time>
      </trkpt>
      <trkpt lat="45.55198" lon="6.77342">
        <ele>1860.5</ele>
        <time>2021-03-25T09:04:24Z</time>
      </trkpt>
      <trkpt lat="45.55197" lon="6.77342">
        <ele>1860.5</ele>
        <time>2021-03-25T09:04:25Z</time>
      </trkpt>
      <trkpt lat="45.55196" lon="6.77342">
        <ele>1860.5</ele>
        <time>2021-03-25T09:04:26Z</time>
      </trkpt>
      <trkpt lat="45.55195" lon="6.77343">
        <ele>1861</ele>
        <time>2021-03-25T09:04:27Z</time>
      </trkpt>
      <trkpt lat="45.55195" lon="6.77343">
        <ele>1861</ele>
        <time>2021-03-25T09:04:28Z</time>
      </trkpt>
      <trkpt lat="45.55194" lon="6.77343">
        <ele>1861</ele>
        <time>2021-03-25T09:04:29Z</time>
      </trkpt>
      <trkpt lat="45.55193" lon="6.77343">
        <ele>1861</ele>
        <time>2021-03-25T09:04:30Z</time>
      </trkpt>
      <trkpt lat="45.55193" lon="6.77343">
        <ele>1861</ele>
        <time>2021-03-25T09:04:31Z</time>
      </trkpt>
      <trkpt lat="45.55192" lon="6.77343">
        <ele>1861.4</ele>
        <time>2021-03-25T09:04:32Z</time>
      </trkpt>
      <trkpt lat="45.55191" lon="6.77343">
        <ele>1861.4</ele>
        <time>2021-03-25T09:04:33Z</time>
      </trkpt>
      <trkpt lat="45.55191" lon="6.77344">
        <ele>1861.4</ele>
        <time>2021-03-25T09:04:34Z</time>
      </trkpt>
      <trkpt lat="45.5519" lon="6.77344">
        <ele>1861.4</ele>
        <time>2021-03-25T09:04:35Z</time>
      </trkpt>
      <trkpt lat="45.55189" lon="6.77344">
        <ele>1861.9</ele>
        <time>2021-03-25T09:04:36Z</time>
      </trkpt>
      <trkpt lat="45.55188" lon="6.77344">
        <ele>1861.9</ele>
        <time>2021-03-25T09:04:37Z</time>
      </trkpt>
      <trkpt lat="45.55188" lon="6.77345">
        <ele>1861.9</ele>
        <time>2021-03-25T09:04:38Z</time>
      </trkpt>
      <trkpt lat="45.55187" lon="6.77345">
        <ele>1861.9</ele>
        <time>2021-03-25T09:04:39Z</time>
      </trkpt>
      <trkpt lat="45.55186" lon="6.77345">
        <ele>1862.3</ele>
        <time>2021-03-25T09:04:40Z</time>
      </trkpt>
      <trkpt lat="45.55186" lon="6.77345">
        <ele>1862.3</ele>
        <time>2021-03-25T09:04:41Z</time>
      </trkpt>
      <trkpt lat="45.55185" lon="6.77346">
        <ele>1862.3</ele>
        <time>2021-03-25T09:04:42Z</time>
      </trkpt>
      <trkpt lat="45.55184" lon="6.77346">
        <ele>1862.3</ele>
        <time>2021-03-25T09:04:43Z</time>
      </trkpt>
      <trkpt lat="45.55183" lon="6.77346">
        <ele>1863.2</ele>
        <time>2021-03-25T09:04:44Z</time>
      </trkpt>
      <trkpt lat="45.55183" lon="6.77346">
        <ele>1863.2</ele>
        <time>2021-03-25T09:04:45Z</time>
      </trkpt>
      <trkpt lat="45.55182" lon="6.77347">
        <ele>1863.2</ele>
        <time>2021-03-25T09:04:46Z</time>
      </trkpt>
      <trkpt lat="45.55182" lon="6.77347">
        <ele>1863.2</ele>
        <time>2021-03-25T09:04:47Z</time>
      </trkpt>
      <trkpt lat="45.55181" lon="6.77347">
        <ele>1863.2</ele>
        <time>2021-03-25T09:04:48Z</time>
      </trkpt>
      <trkpt lat="45.5518" lon="6.77348">
        <ele>1863.6</ele>
        <time>2021-03-25T09:04:49Z</time>
      </trkpt>
      <trkpt lat="45.5518" lon="6.77348">
        <ele>1863.6</ele>
        <time>2021-03-25T09:04:50Z</time>
      </trkpt>
      <trkpt lat="45.55179" lon="6.77348">
        <ele>1863.6</ele>
        <time>2021-03-25T09:04:51Z</time>
      </trkpt>
      <trkpt lat="45.55179" lon="6.77348">
        <ele>1863.6</ele>
        <time>2021-03-25T09:04:52Z</time>
      </trkpt>
      <trkpt lat="45.55178" lon="6.77349">
        <ele>1863.6</ele>
        <time>2021-03-25T09:04:53Z</time>
      </trkpt>
      <trkpt lat="45.55177" lon="6.77349">
        <ele>1864</ele>
        <time>2021-03-25T09:04:54Z</time>
      </trkpt>
      <trkpt lat="45.55177" lon="6.77349">
        <ele>1864</ele>
        <time>2021-03-25T09:04:55Z</time>
      </trkpt>
      <trkpt lat="45.55176" lon="6.77349">
        <ele>1864</ele>
        <time>2021-03-25T09:04:56Z</time>
      </trkpt>
      <trkpt lat="45.55175" lon="6.77349">
        <ele>1864</ele>
        <time>2021-03-25T09:04:57Z</time>
      </trkpt>
      <trkpt lat="45.55175" lon="6.7735">
        <ele>1864</ele>
        <time>2021-03-25T09:04:58Z</time>
      </trkpt>
      <trkpt lat="45.55174" lon="6.7735">
        <ele>1864.5</ele>
        <time>2021-03-25T09:04:59Z</time>
      </trkpt>
      <trkpt lat="45.55173" lon="6.7735">
        <ele>1865.1</ele>
        <time>2021-03-25T09:05:00Z</time>
      </trkpt>
      <trkpt lat="45.55173" lon="6.77351">
        <ele>1865.1</ele>
        <time>2021-03-25T09:05:01Z</time>
      </trkpt>
      <trkpt lat="45.55172" lon="6.77351">
        <ele>1865.1</ele>
        <time>2021-03-25T09:05:02Z</time>
      </trkpt>
      <trkpt lat="45.55172" lon="6.77352">
        <ele>1865.1</ele>
        <time>2021-03-25T09:05:03Z</time>
      </trkpt>
      <trkpt lat="45.55171" lon="6.77353">
        <ele>1865.5</ele>
        <time>2021-03-25T09:05:04Z</time>
      </trkpt>
      <trkpt lat="45.55171" lon="6.77353">
        <ele>1865.5</ele>
        <time>2021-03-25T09:05:05Z</time>
      </trkpt>
      <trkpt lat="45.5517" lon="6.77354">
        <ele>1865.5</ele>
        <time>2021-03-25T09:05:06Z</time>
      </trkpt>
      <trkpt lat="45.55169" lon="6.77354">
        <ele>1865.5</ele>
        <time>2021-03-25T09:05:07Z</time>
      </trkpt>
      <trkpt lat="45.55169" lon="6.77355">
        <ele>1866.1</ele>
        <time>2021-03-25T09:05:08Z</time>
      </trkpt>
      <trkpt lat="45.55168" lon="6.77356">
        <ele>1866.6</ele>
        <time>2021-03-25T09:05:09Z</time>
      </trkpt>
      <trkpt lat="45.55168" lon="6.77356">
        <ele>1866.6</ele>
        <time>2021-03-25T09:05:10Z</time>
      </trkpt>
      <trkpt lat="45.55167" lon="6.77357">
        <ele>1866.6</ele>
        <time>2021-03-25T09:05:11Z</time>
      </trkpt>
      <trkpt lat="45.55167" lon="6.77358">
        <ele>1866.6</ele>
        <time>2021-03-25T09:05:12Z</time>
      </trkpt>
      <trkpt lat="45.55166" lon="6.77358">
        <ele>1866.6</ele>
        <time>2021-03-25T09:05:13Z</time>
      </trkpt>
      <trkpt lat="45.55166" lon="6.77359">
        <ele>1867.2</ele>
        <time>2021-03-25T09:05:14Z</time>
      </trkpt>
      <trkpt lat="45.55165" lon="6.7736">
        <ele>1867.7</ele>
        <time>2021-03-25T09:05:15Z</time>
      </trkpt>
      <trkpt lat="45.55164" lon="6.77361">
        <ele>1867.7</ele>
        <time>2021-03-25T09:05:16Z</time>
      </trkpt>
      <trkpt lat="45.55164" lon="6.77361">
        <ele>1867.7</ele>
        <time>2021-03-25T09:05:17Z</time>
      </trkpt>
      <trkpt lat="45.55163" lon="6.77362">
        <ele>1867.7</ele>
        <time>2021-03-25T09:05:18Z</time>
      </trkpt>
      <trkpt lat="45.55163" lon="6.77363">
        <ele>1868.3</ele>
        <time>2021-03-25T09:05:19Z</time>
      </trkpt>
      <trkpt lat="45.55162" lon="6.77364">
        <ele>1868.7</ele>
        <time>2021-03-25T09:05:20Z</time>
      </trkpt>
      <trkpt lat="45.55162" lon="6.77365">
        <ele>1868.7</ele>
        <time>2021-03-25T09:05:21Z</time>
      </trkpt>
      <trkpt lat="45.55161" lon="6.77365">
        <ele>1868.7</ele>
        <time>2021-03-25T09:05:22Z</time>
      </trkpt>
      <trkpt lat="45.55161" lon="6.77366">
        <ele>1868.7</ele>
        <time>2021-03-25T09:05:23Z</time>
      </trkpt>
      <trkpt lat="45.5516" lon="6.77367">
        <ele>1868.7</ele>
        <time>2021-03-25T09:05:24Z</time>
      </trkpt>
      <trkpt lat="45.5516" lon="6.77367">
        <ele>1869.3</ele>
        <time>2021-03-25T09:05:25Z</time>
      </trkpt>
      <trkpt lat="45.55159" lon="6.77368">
        <ele>1869.7</ele>
        <time>2021-03-25T09:05:26Z</time>
      </trkpt>
      <trkpt lat="45.55159" lon="6.77369">
        <ele>1869.7</ele>
        <time>2021-03-25T09:05:27Z</time>
      </trkpt>
      <trkpt lat="45.55158" lon="6.7737">
        <ele>1869.7</ele>
        <time>2021-03-25T09:05:28Z</time>
      </trkpt>
      <trkpt lat="45.55157" lon="6.7737">
        <ele>1869.7</ele>
        <time>2021-03-25T09:05:29Z</time>
      </trkpt>
      <trkpt lat="45.55157" lon="6.77371">
        <ele>1869.7</ele>
        <time>2021-03-25T09:05:30Z</time>
      </trkpt>
      <trkpt lat="45.55156" lon="6.77372">
        <ele>1870.7</ele>
        <time>2021-03-25T09:05:31Z</time>
      </trkpt>
      <trkpt lat="45.55156" lon="6.77373">
        <ele>1870.7</ele>
        <time>2021-03-25T09:05:32Z</time>
      </trkpt>
      <trkpt lat="45.55155" lon="6.77374">
        <ele>1870.7</ele>
        <time>2021-03-25T09:05:33Z</time>
      </trkpt>
      <trkpt lat="45.55155" lon="6.77374">
        <ele>1870.7</ele>
        <time>2021-03-25T09:05:34Z</time>
      </trkpt>
      <trkpt lat="45.55154" lon="6.77375">
        <ele>1870.7</ele>
        <time>2021-03-25T09:05:35Z</time>
      </trkpt>
      <trkpt lat="45.55153" lon="6.77376">
        <ele>1871.6</ele>
        <time>2021-03-25T09:05:36Z</time>
      </trkpt>
      <trkpt lat="45.55152" lon="6.77377">
        <ele>1871.6</ele>
        <time>2021-03-25T09:05:37Z</time>
      </trkpt>
      <trkpt lat="45.55152" lon="6.77378">
        <ele>1871.6</ele>
        <time>2021-03-25T09:05:38Z</time>
      </trkpt>
      <trkpt lat="45.55151" lon="6.77378">
        <ele>1871.6</ele>
        <time>2021-03-25T09:05:39Z</time>
      </trkpt>
      <trkpt lat="45.55151" lon="6.77379">
        <ele>1871.6</ele>
        <time>2021-03-25T09:05:40Z</time>
      </trkpt>
      <trkpt lat="45.5515" lon="6.7738">
        <ele>1872.6</ele>
        <time>2021-03-25T09:05:41Z</time>
      </trkpt>
      <trkpt lat="45.55149" lon="6.77381">
        <ele>1872.6</ele>
        <time>2021-03-25T09:05:42Z</time>
      </trkpt>
      <trkpt lat="45.55149" lon="6.77382">
        <ele>1872.6</ele>
        <time>2021-03-25T09:05:43Z</time>
      </trkpt>
      <trkpt lat="45.55148" lon="6.77382">
        <ele>1872.6</ele>
        <time>2021-03-25T09:05:44Z</time>
      </trkpt>
      <trkpt lat="45.55147" lon="6.77383">
        <ele>1872.6</ele>
        <time>2021-03-25T09:05:45Z</time>
      </trkpt>
      <trkpt lat="45.55147" lon="6.77384">
        <ele>1873.1</ele>
        <time>2021-03-25T09:05:46Z</time>
      </trkpt>
      <trkpt lat="45.55146" lon="6.77385">
        <ele>1873.7</ele>
        <time>2021-03-25T09:05:47Z</time>
      </trkpt>
      <trkpt lat="45.55146" lon="6.77385">
        <ele>1873.7</ele>
        <time>2021-03-25T09:05:48Z</time>
      </trkpt>
      <trkpt lat="45.55145" lon="6.77386">
        <ele>1873.7</ele>
        <time>2021-03-25T09:05:49Z</time>
      </trkpt>
      <trkpt lat="45.55145" lon="6.77387">
        <ele>1873.7</ele>
        <time>2021-03-25T09:05:50Z</time>
      </trkpt>
      <trkpt lat="45.55144" lon="6.77387">
        <ele>1874.1</ele>
        <time>2021-03-25T09:05:51Z</time>
      </trkpt>
      <trkpt lat="45.55144" lon="6.77388">
        <ele>1874.1</ele>
        <time>2021-03-25T09:05:52Z</time>
      </trkpt>
      <trkpt lat="45.55143" lon="6.77389">
        <ele>1874.7</ele>
        <time>2021-03-25T09:05:53Z</time>
      </trkpt>
      <trkpt lat="45.55143" lon="6.77389">
        <ele>1874.7</ele>
        <time>2021-03-25T09:05:54Z</time>
      </trkpt>
      <trkpt lat="45.55142" lon="6.7739">
        <ele>1874.7</ele>
        <time>2021-03-25T09:05:55Z</time>
      </trkpt>
      <trkpt lat="45.55142" lon="6.77391">
        <ele>1874.7</ele>
        <time>2021-03-25T09:05:56Z</time>
      </trkpt>
      <trkpt lat="45.55141" lon="6.77391">
        <ele>1875.1</ele>
        <time>2021-03-25T09:05:57Z</time>
      </trkpt>
      <trkpt lat="45.55141" lon="6.77392">
        <ele>1875.1</ele>
        <time>2021-03-25T09:05:58Z</time>
      </trkpt>
      <trkpt lat="45.5514" lon="6.77393">
        <ele>1875.1</ele>
        <time>2021-03-25T09:05:59Z</time>
      </trkpt>
      <trkpt lat="45.5514" lon="6.77393">
        <ele>1875.8</ele>
        <time>2021-03-25T09:06:00Z</time>
      </trkpt>
      <trkpt lat="45.55139" lon="6.77394">
        <ele>1875.8</ele>
        <time>2021-03-25T09:06:01Z</time>
      </trkpt>
      <trkpt lat="45.55139" lon="6.77395">
        <ele>1875.8</ele>
        <time>2021-03-25T09:06:02Z</time>
      </trkpt>
      <trkpt lat="45.55138" lon="6.77395">
        <ele>1876.2</ele>
        <time>2021-03-25T09:06:03Z</time>
      </trkpt>
      <trkpt lat="45.55138" lon="6.77396">
        <ele>1876.2</ele>
        <time>2021-03-25T09:06:04Z</time>
      </trkpt>
      <trkpt lat="45.55137" lon="6.77397">
        <ele>1876.2</ele>
        <time>2021-03-25T09:06:05Z</time>
      </trkpt>
      <trkpt lat="45.55137" lon="6.77398">
        <ele>1876.8</ele>
        <time>2021-03-25T09:06:06Z</time>
      </trkpt>
      <trkpt lat="45.55136" lon="6.77398">
        <ele>1876.8</ele>
        <time>2021-03-25T09:06:07Z</time>
      </trkpt>
      <trkpt lat="45.55136" lon="6.77399">
        <ele>1876.8</ele>
        <time>2021-03-25T09:06:08Z</time>
      </trkpt>
      <trkpt lat="45.55135" lon="6.774">
        <ele>1877.2</ele>
        <time>2021-03-25T09:06:09Z</time>
      </trkpt>
      <trkpt lat="45.55135" lon="6.77401">
        <ele>1877.2</ele>
        <time>2021-03-25T09:06:10Z</time>
      </trkpt>
      <trkpt lat="45.55135" lon="6.77401">
        <ele>1877.2</ele>
        <time>2021-03-25T09:06:11Z</time>
      </trkpt>
      <trkpt lat="45.55134" lon="6.77402">
        <ele>1877.9</ele>
        <time>2021-03-25T09:06:12Z</time>
      </trkpt>
      <trkpt lat="45.55134" lon="6.77403">
        <ele>1877.9</ele>
        <time>2021-03-25T09:06:13Z</time>
      </trkpt>
      <trkpt lat="45.55134" lon="6.77404">
        <ele>1877.9</ele>
        <time>2021-03-25T09:06:14Z</time>
      </trkpt>
      <trkpt lat="45.55133" lon="6.77405">
        <ele>1877.9</ele>
        <time>2021-03-25T09:06:15Z</time>
      </trkpt>
      <trkpt lat="45.55133" lon="6.77406">
        <ele>1878.6</ele>
        <time>2021-03-25T09:06:16Z</time>
      </trkpt>
      <trkpt lat="45.55132" lon="6.77407">
        <ele>1878.9</ele>
        <time>2021-03-25T09:06:17Z</time>
      </trkpt>
      <trkpt lat="45.55132" lon="6.77408">
        <ele>1878.9</ele>
        <time>2021-03-25T09:06:18Z</time>
      </trkpt>
      <trkpt lat="45.55132" lon="6.77409">
        <ele>1878.9</ele>
        <time>2021-03-25T09:06:19Z</time>
      </trkpt>
      <trkpt lat="45.55131" lon="6.7741">
        <ele>1879.6</ele>
        <time>2021-03-25T09:06:20Z</time>
      </trkpt>
      <trkpt lat="45.55131" lon="6.77411">
        <ele>1879.6</ele>
        <time>2021-03-25T09:06:21Z</time>
      </trkpt>
      <trkpt lat="45.55131" lon="6.77412">
        <ele>1879.6</ele>
        <time>2021-03-25T09:06:22Z</time>
      </trkpt>
      <trkpt lat="45.5513" lon="6.77413">
        <ele>1879.6</ele>
        <time>2021-03-25T09:06:23Z</time>
      </trkpt>
      <trkpt lat="45.5513" lon="6.77414">
        <ele>1879.6</ele>
        <time>2021-03-25T09:06:24Z</time>
      </trkpt>
      <trkpt lat="45.5513" lon="6.77415">
        <ele>1880.3</ele>
        <time>2021-03-25T09:06:25Z</time>
      </trkpt>
      <trkpt lat="45.55129" lon="6.77415">
        <ele>1880.7</ele>
        <time>2021-03-25T09:06:26Z</time>
      </trkpt>
      <trkpt lat="45.55129" lon="6.77417">
        <ele>1880.7</ele>
        <time>2021-03-25T09:06:27Z</time>
      </trkpt>
      <trkpt lat="45.55129" lon="6.77417">
        <ele>1880.7</ele>
        <time>2021-03-25T09:06:28Z</time>
      </trkpt>
      <trkpt lat="45.55129" lon="6.77418">
        <ele>1880.7</ele>
        <time>2021-03-25T09:06:29Z</time>
      </trkpt>
      <trkpt lat="45.55129" lon="6.77419">
        <ele>1881.4</ele>
        <time>2021-03-25T09:06:30Z</time>
      </trkpt>
      <trkpt lat="45.55128" lon="6.7742">
        <ele>1881.4</ele>
        <time>2021-03-25T09:06:31Z</time>
      </trkpt>
      <trkpt lat="45.55128" lon="6.77421">
        <ele>1881.4</ele>
        <time>2021-03-25T09:06:32Z</time>
      </trkpt>
      <trkpt lat="45.55128" lon="6.77422">
        <ele>1881.4</ele>
        <time>2021-03-25T09:06:33Z</time>
      </trkpt>
      <trkpt lat="45.55127" lon="6.77423">
        <ele>1881.4</ele>
        <time>2021-03-25T09:06:34Z</time>
      </trkpt>
      <trkpt lat="45.55127" lon="6.77423">
        <ele>1882</ele>
        <time>2021-03-25T09:06:35Z</time>
      </trkpt>
      <trkpt lat="45.55127" lon="6.77424">
        <ele>1882</ele>
        <time>2021-03-25T09:06:36Z</time>
      </trkpt>
      <trkpt lat="45.55126" lon="6.77425">
        <ele>1882.4</ele>
        <time>2021-03-25T09:06:37Z</time>
      </trkpt>
      <trkpt lat="45.55126" lon="6.77426">
        <ele>1882.4</ele>
        <time>2021-03-25T09:06:38Z</time>
      </trkpt>
      <trkpt lat="45.55126" lon="6.77427">
        <ele>1882.4</ele>
        <time>2021-03-25T09:06:39Z</time>
      </trkpt>
      <trkpt lat="45.55125" lon="6.77428">
        <ele>1883.1</ele>
        <time>2021-03-25T09:06:40Z</time>
      </trkpt>
      <trkpt lat="45.55125" lon="6.77429">
        <ele>1883.1</ele>
        <time>2021-03-25T09:06:41Z</time>
      </trkpt>
      <trkpt lat="45.55125" lon="6.7743">
        <ele>1883.1</ele>
        <time>2021-03-25T09:06:42Z</time>
      </trkpt>
      <trkpt lat="45.55124" lon="6.7743">
        <ele>1883.1</ele>
        <time>2021-03-25T09:06:43Z</time>
      </trkpt>
      <trkpt lat="45.55124" lon="6.77431">
        <ele>1883.1</ele>
        <time>2021-03-25T09:06:44Z</time>
      </trkpt>
      <trkpt lat="45.55124" lon="6.77432">
        <ele>1883.7</ele>
        <time>2021-03-25T09:06:45Z</time>
      </trkpt>
      <trkpt lat="45.55123" lon="6.77433">
        <ele>1884.1</ele>
        <time>2021-03-25T09:06:46Z</time>
      </trkpt>
      <trkpt lat="45.55123" lon="6.77434">
        <ele>1884.1</ele>
        <time>2021-03-25T09:06:47Z</time>
      </trkpt>
      <trkpt lat="45.55122" lon="6.77435">
        <ele>1884.1</ele>
        <time>2021-03-25T09:06:48Z</time>
      </trkpt>
      <trkpt lat="45.55121" lon="6.77435">
        <ele>1884.1</ele>
        <time>2021-03-25T09:06:49Z</time>
      </trkpt>
      <trkpt lat="45.55121" lon="6.77436">
        <ele>1884.8</ele>
        <time>2021-03-25T09:06:50Z</time>
      </trkpt>
      <trkpt lat="45.5512" lon="6.77437">
        <ele>1885.3</ele>
        <time>2021-03-25T09:06:51Z</time>
      </trkpt>
      <trkpt lat="45.5512" lon="6.77438">
        <ele>1885.3</ele>
        <time>2021-03-25T09:06:52Z</time>
      </trkpt>
      <trkpt lat="45.55119" lon="6.77438">
        <ele>1885.3</ele>
        <time>2021-03-25T09:06:53Z</time>
      </trkpt>
      <trkpt lat="45.55119" lon="6.77439">
        <ele>1885.3</ele>
        <time>2021-03-25T09:06:54Z</time>
      </trkpt>
      <trkpt lat="45.55118" lon="6.7744">
        <ele>1885.3</ele>
        <time>2021-03-25T09:06:55Z</time>
      </trkpt>
      <trkpt lat="45.55117" lon="6.7744">
        <ele>1886</ele>
        <time>2021-03-25T09:06:56Z</time>
      </trkpt>
      <trkpt lat="45.55117" lon="6.77441">
        <ele>1886.4</ele>
        <time>2021-03-25T09:06:57Z</time>
      </trkpt>
      <trkpt lat="45.55116" lon="6.77442">
        <ele>1886.4</ele>
        <time>2021-03-25T09:06:58Z</time>
      </trkpt>
      <trkpt lat="45.55116" lon="6.77443">
        <ele>1886.4</ele>
        <time>2021-03-25T09:06:59Z</time>
      </trkpt>
      <trkpt lat="45.55115" lon="6.77444">
        <ele>1886.4</ele>
        <time>2021-03-25T09:07:00Z</time>
      </trkpt>
      <trkpt lat="45.55115" lon="6.77444">
        <ele>1886.4</ele>
        <time>2021-03-25T09:07:01Z</time>
      </trkpt>
      <trkpt lat="45.55114" lon="6.77445">
        <ele>1887.7</ele>
        <time>2021-03-25T09:07:02Z</time>
      </trkpt>
      <trkpt lat="45.55114" lon="6.77446">
        <ele>1887.7</ele>
        <time>2021-03-25T09:07:03Z</time>
      </trkpt>
      <trkpt lat="45.55113" lon="6.77447">
        <ele>1887.7</ele>
        <time>2021-03-25T09:07:04Z</time>
      </trkpt>
      <trkpt lat="45.55113" lon="6.77448">
        <ele>1887.7</ele>
        <time>2021-03-25T09:07:05Z</time>
      </trkpt>
      <trkpt lat="45.55113" lon="6.77449">
        <ele>1888.4</ele>
        <time>2021-03-25T09:07:06Z</time>
      </trkpt>
      <trkpt lat="45.55113" lon="6.7745">
        <ele>1888.4</ele>
        <time>2021-03-25T09:07:07Z</time>
      </trkpt>
      <trkpt lat="45.55112" lon="6.7745">
        <ele>1888.4</ele>
        <time>2021-03-25T09:07:08Z</time>
      </trkpt>
      <trkpt lat="45.55112" lon="6.77451">
        <ele>1888.4</ele>
        <time>2021-03-25T09:07:09Z</time>
      </trkpt>
      <trkpt lat="45.55112" lon="6.77452">
        <ele>1888.4</ele>
        <time>2021-03-25T09:07:10Z</time>
      </trkpt>
      <trkpt lat="45.55112" lon="6.77453">
        <ele>1889.1</ele>
        <time>2021-03-25T09:07:11Z</time>
      </trkpt>
      <trkpt lat="45.55111" lon="6.77454">
        <ele>1889.1</ele>
        <time>2021-03-25T09:07:12Z</time>
      </trkpt>
      <trkpt lat="45.55111" lon="6.77455">
        <ele>1889.6</ele>
        <time>2021-03-25T09:07:13Z</time>
      </trkpt>
      <trkpt lat="45.55111" lon="6.77456">
        <ele>1889.6</ele>
        <time>2021-03-25T09:07:14Z</time>
      </trkpt>
      <trkpt lat="45.55111" lon="6.77457">
        <ele>1889.6</ele>
        <time>2021-03-25T09:07:15Z</time>
      </trkpt>
      <trkpt lat="45.5511" lon="6.77458">
        <ele>1890.3</ele>
        <time>2021-03-25T09:07:16Z</time>
      </trkpt>
      <trkpt lat="45.5511" lon="6.77458">
        <ele>1890.3</ele>
        <time>2021-03-25T09:07:17Z</time>
      </trkpt>
      <trkpt lat="45.5511" lon="6.77459">
        <ele>1890.3</ele>
        <time>2021-03-25T09:07:18Z</time>
      </trkpt>
      <trkpt lat="45.55109" lon="6.7746">
        <ele>1890.3</ele>
        <time>2021-03-25T09:07:19Z</time>
      </trkpt>
      <trkpt lat="45.55109" lon="6.77461">
        <ele>1890.3</ele>
        <time>2021-03-25T09:07:20Z</time>
      </trkpt>
      <trkpt lat="45.55109" lon="6.77461">
        <ele>1890.3</ele>
        <time>2021-03-25T09:07:21Z</time>
      </trkpt>
      <trkpt lat="45.55109" lon="6.77462">
        <ele>1891</ele>
        <time>2021-03-25T09:07:22Z</time>
      </trkpt>
      <trkpt lat="45.55109" lon="6.77463">
        <ele>1891</ele>
        <time>2021-03-25T09:07:23Z</time>
      </trkpt>
      <trkpt lat="45.55108" lon="6.77464">
        <ele>1891</ele>
        <time>2021-03-25T09:07:24Z</time>
      </trkpt>
      <trkpt lat="45.55108" lon="6.77465">
        <ele>1891.4</ele>
        <time>2021-03-25T09:07:25Z</time>
      </trkpt>
      <trkpt lat="45.55108" lon="6.77466">
        <ele>1891.4</ele>
        <time>2021-03-25T09:07:26Z</time>
      </trkpt>
      <trkpt lat="45.55107" lon="6.77467">
        <ele>1892.1</ele>
        <time>2021-03-25T09:07:27Z</time>
      </trkpt>
      <trkpt lat="45.55107" lon="6.77468">
        <ele>1892.1</ele>
        <time>2021-03-25T09:07:28Z</time>
      </trkpt>
      <trkpt lat="45.55107" lon="6.77469">
        <ele>1892.1</ele>
        <time>2021-03-25T09:07:29Z</time>
      </trkpt>
      <trkpt lat="45.55106" lon="6.7747">
        <ele>1892.1</ele>
        <time>2021-03-25T09:07:30Z</time>
      </trkpt>
      <trkpt lat="45.55106" lon="6.77471">
        <ele>1892.7</ele>
        <time>2021-03-25T09:07:31Z</time>
      </trkpt>
      <trkpt lat="45.55106" lon="6.77472">
        <ele>1892.7</ele>
        <time>2021-03-25T09:07:32Z</time>
      </trkpt>
      <trkpt lat="45.55105" lon="6.77473">
        <ele>1892.7</ele>
        <time>2021-03-25T09:07:33Z</time>
      </trkpt>
      <trkpt lat="45.55105" lon="6.77474">
        <ele>1892.7</ele>
        <time>2021-03-25T09:07:34Z</time>
      </trkpt>
      <trkpt lat="45.55105" lon="6.77475">
        <ele>1893.8</ele>
        <time>2021-03-25T09:07:35Z</time>
      </trkpt>
      <trkpt lat="45.55105" lon="6.77476">
        <ele>1893.8</ele>
        <time>2021-03-25T09:07:36Z</time>
      </trkpt>
      <trkpt lat="45.55105" lon="6.77477">
        <ele>1893.8</ele>
        <time>2021-03-25T09:07:37Z</time>
      </trkpt>
      <trkpt lat="45.55105" lon="6.77478">
        <ele>1893.8</ele>
        <time>2021-03-25T09:07:38Z</time>
      </trkpt>
      <trkpt lat="45.55104" lon="6.77479">
        <ele>1894.4</ele>
        <time>2021-03-25T09:07:39Z</time>
      </trkpt>
      <trkpt lat="45.55104" lon="6.7748">
        <ele>1894.4</ele>
        <time>2021-03-25T09:07:40Z</time>
      </trkpt>
      <trkpt lat="45.55104" lon="6.77481">
        <ele>1894.4</ele>
        <time>2021-03-25T09:07:41Z</time>
      </trkpt>
      <trkpt lat="45.55103" lon="6.77482">
        <ele>1894.4</ele>
        <time>2021-03-25T09:07:42Z</time>
      </trkpt>
      <trkpt lat="45.55103" lon="6.77483">
        <ele>1894.4</ele>
        <time>2021-03-25T09:07:43Z</time>
      </trkpt>
      <trkpt lat="45.55103" lon="6.77484">
        <ele>1895.1</ele>
        <time>2021-03-25T09:07:44Z</time>
      </trkpt>
      <trkpt lat="45.55103" lon="6.77484">
        <ele>1895.1</ele>
        <time>2021-03-25T09:07:45Z</time>
      </trkpt>
      <trkpt lat="45.55102" lon="6.77485">
        <ele>1895.1</ele>
        <time>2021-03-25T09:07:46Z</time>
      </trkpt>
      <trkpt lat="45.55102" lon="6.77486">
        <ele>1895.4</ele>
        <time>2021-03-25T09:07:47Z</time>
      </trkpt>
      <trkpt lat="45.55102" lon="6.77487">
        <ele>1895.4</ele>
        <time>2021-03-25T09:07:48Z</time>
      </trkpt>
      <trkpt lat="45.55101" lon="6.77488">
        <ele>1896.1</ele>
        <time>2021-03-25T09:07:49Z</time>
      </trkpt>
      <trkpt lat="45.55101" lon="6.77489">
        <ele>1896.1</ele>
        <time>2021-03-25T09:07:50Z</time>
      </trkpt>
      <trkpt lat="45.55101" lon="6.7749">
        <ele>1896.1</ele>
        <time>2021-03-25T09:07:51Z</time>
      </trkpt>
      <trkpt lat="45.551" lon="6.77491">
        <ele>1896.1</ele>
        <time>2021-03-25T09:07:52Z</time>
      </trkpt>
      <trkpt lat="45.551" lon="6.77492">
        <ele>1896.1</ele>
        <time>2021-03-25T09:07:53Z</time>
      </trkpt>
      <trkpt lat="45.551" lon="6.77493">
        <ele>1896.8</ele>
        <time>2021-03-25T09:07:54Z</time>
      </trkpt>
      <trkpt lat="45.551" lon="6.77494">
        <ele>1896.8</ele>
        <time>2021-03-25T09:07:55Z</time>
      </trkpt>
      <trkpt lat="45.55099" lon="6.77495">
        <ele>1896.8</ele>
        <time>2021-03-25T09:07:56Z</time>
      </trkpt>
      <trkpt lat="45.55099" lon="6.77496">
        <ele>1897.2</ele>
        <time>2021-03-25T09:07:57Z</time>
      </trkpt>
      <trkpt lat="45.55099" lon="6.77497">
        <ele>1897.9</ele>
        <time>2021-03-25T09:07:58Z</time>
      </trkpt>
      <trkpt lat="45.55098" lon="6.77498">
        <ele>1897.9</ele>
        <time>2021-03-25T09:07:59Z</time>
      </trkpt>
      <trkpt lat="45.55098" lon="6.77499">
        <ele>1897.9</ele>
        <time>2021-03-25T09:08:00Z</time>
      </trkpt>
      <trkpt lat="45.55098" lon="6.775">
        <ele>1897.9</ele>
        <time>2021-03-25T09:08:01Z</time>
      </trkpt>
      <trkpt lat="45.55098" lon="6.775">
        <ele>1898.6</ele>
        <time>2021-03-25T09:08:02Z</time>
      </trkpt>
      <trkpt lat="45.55097" lon="6.77501">
        <ele>1898.6</ele>
        <time>2021-03-25T09:08:03Z</time>
      </trkpt>
      <trkpt lat="45.55097" lon="6.77502">
        <ele>1898.6</ele>
        <time>2021-03-25T09:08:04Z</time>
      </trkpt>
      <trkpt lat="45.55097" lon="6.77503">
        <ele>1898.6</ele>
        <time>2021-03-25T09:08:05Z</time>
      </trkpt>
      <trkpt lat="45.55097" lon="6.77504">
        <ele>1898.6</ele>
        <time>2021-03-25T09:08:06Z</time>
      </trkpt>
      <trkpt lat="45.55097" lon="6.77505">
        <ele>1899.4</ele>
        <time>2021-03-25T09:08:07Z</time>
      </trkpt>
      <trkpt lat="45.55096" lon="6.77506">
        <ele>1899.4</ele>
        <time>2021-03-25T09:08:08Z</time>
      </trkpt>
      <trkpt lat="45.55096" lon="6.77507">
        <ele>1899.8</ele>
        <time>2021-03-25T09:08:09Z</time>
      </trkpt>
      <trkpt lat="45.55096" lon="6.77508">
        <ele>1899.8</ele>
        <time>2021-03-25T09:08:10Z</time>
      </trkpt>
      <trkpt lat="45.55096" lon="6.77509">
        <ele>1899.8</ele>
        <time>2021-03-25T09:08:11Z</time>
      </trkpt>
      <trkpt lat="45.55096" lon="6.7751">
        <ele>1900.5</ele>
        <time>2021-03-25T09:08:12Z</time>
      </trkpt>
      <trkpt lat="45.55096" lon="6.77511">
        <ele>1900.5</ele>
        <time>2021-03-25T09:08:13Z</time>
      </trkpt>
      <trkpt lat="45.55096" lon="6.77512">
        <ele>1900.5</ele>
        <time>2021-03-25T09:08:14Z</time>
      </trkpt>
      <trkpt lat="45.55096" lon="6.77513">
        <ele>1900.5</ele>
        <time>2021-03-25T09:08:15Z</time>
      </trkpt>
      <trkpt lat="45.55096" lon="6.77513">
        <ele>1901.2</ele>
        <time>2021-03-25T09:08:16Z</time>
      </trkpt>
      <trkpt lat="45.55096" lon="6.77515">
        <ele>1901.2</ele>
        <time>2021-03-25T09:08:17Z</time>
      </trkpt>
      <trkpt lat="45.55095" lon="6.77515">
        <ele>1901.2</ele>
        <time>2021-03-25T09:08:18Z</time>
      </trkpt>
      <trkpt lat="45.55095" lon="6.77516">
        <ele>1901.2</ele>
        <time>2021-03-25T09:08:19Z</time>
      </trkpt>
      <trkpt lat="45.55095" lon="6.77517">
        <ele>1901.2</ele>
        <time>2021-03-25T09:08:20Z</time>
      </trkpt>
      <trkpt lat="45.55095" lon="6.77518">
        <ele>1901.9</ele>
        <time>2021-03-25T09:08:21Z</time>
      </trkpt>
      <trkpt lat="45.55095" lon="6.7752">
        <ele>1901.9</ele>
        <time>2021-03-25T09:08:22Z</time>
      </trkpt>
      <trkpt lat="45.55094" lon="6.7752">
        <ele>1901.9</ele>
        <time>2021-03-25T09:08:23Z</time>
      </trkpt>
      <trkpt lat="45.55094" lon="6.77522">
        <ele>1901.9</ele>
        <time>2021-03-25T09:08:24Z</time>
      </trkpt>
      <trkpt lat="45.55094" lon="6.77522">
        <ele>1902.7</ele>
        <time>2021-03-25T09:08:25Z</time>
      </trkpt>
      <trkpt lat="45.55094" lon="6.77523">
        <ele>1902.7</ele>
        <time>2021-03-25T09:08:26Z</time>
      </trkpt>
      <trkpt lat="45.55094" lon="6.77524">
        <ele>1902.7</ele>
        <time>2021-03-25T09:08:27Z</time>
      </trkpt>
      <trkpt lat="45.55094" lon="6.77525">
        <ele>1902.7</ele>
        <time>2021-03-25T09:08:28Z</time>
      </trkpt>
      <trkpt lat="45.55094" lon="6.77526">
        <ele>1903.5</ele>
        <time>2021-03-25T09:08:29Z</time>
      </trkpt>
      <trkpt lat="45.55094" lon="6.77527">
        <ele>1903.5</ele>
        <time>2021-03-25T09:08:30Z</time>
      </trkpt>
      <trkpt lat="45.55093" lon="6.77528">
        <ele>1903.5</ele>
        <time>2021-03-25T09:08:31Z</time>
      </trkpt>
      <trkpt lat="45.55093" lon="6.77529">
        <ele>1903.9</ele>
        <time>2021-03-25T09:08:32Z</time>
      </trkpt>
      <trkpt lat="45.55093" lon="6.7753">
        <ele>1903.9</ele>
        <time>2021-03-25T09:08:33Z</time>
      </trkpt>
      <trkpt lat="45.55093" lon="6.77531">
        <ele>1904.7</ele>
        <time>2021-03-25T09:08:34Z</time>
      </trkpt>
      <trkpt lat="45.55092" lon="6.77532">
        <ele>1904.7</ele>
        <time>2021-03-25T09:08:35Z</time>
      </trkpt>
      <trkpt lat="45.55092" lon="6.77533">
        <ele>1904.7</ele>
        <time>2021-03-25T09:08:36Z</time>
      </trkpt>
      <trkpt lat="45.55092" lon="6.77534">
        <ele>1904.7</ele>
        <time>2021-03-25T09:08:37Z</time>
      </trkpt>
      <trkpt lat="45.55092" lon="6.77535">
        <ele>1905.4</ele>
        <time>2021-03-25T09:08:38Z</time>
      </trkpt>
      <trkpt lat="45.55092" lon="6.77536">
        <ele>1905.4</ele>
        <time>2021-03-25T09:08:39Z</time>
      </trkpt>
      <trkpt lat="45.55092" lon="6.77537">
        <ele>1905.4</ele>
        <time>2021-03-25T09:08:40Z</time>
      </trkpt>
      <trkpt lat="45.55091" lon="6.77538">
        <ele>1905.4</ele>
        <time>2021-03-25T09:08:41Z</time>
      </trkpt>
      <trkpt lat="45.55091" lon="6.77539">
        <ele>1906.2</ele>
        <time>2021-03-25T09:08:42Z</time>
      </trkpt>
      <trkpt lat="45.55091" lon="6.7754">
        <ele>1906.2</ele>
        <time>2021-03-25T09:08:43Z</time>
      </trkpt>
      <trkpt lat="45.5509" lon="6.77541">
        <ele>1906.2</ele>
        <time>2021-03-25T09:08:44Z</time>
      </trkpt>
      <trkpt lat="45.5509" lon="6.77542">
        <ele>1906.6</ele>
        <time>2021-03-25T09:08:45Z</time>
      </trkpt>
      <trkpt lat="45.5509" lon="6.77543">
        <ele>1907.3</ele>
        <time>2021-03-25T09:08:46Z</time>
      </trkpt>
      <trkpt lat="45.5509" lon="6.77544">
        <ele>1907.3</ele>
        <time>2021-03-25T09:08:47Z</time>
      </trkpt>
      <trkpt lat="45.55089" lon="6.77545">
        <ele>1907.3</ele>
        <time>2021-03-25T09:08:48Z</time>
      </trkpt>
      <trkpt lat="45.55089" lon="6.77546">
        <ele>1907.3</ele>
        <time>2021-03-25T09:08:49Z</time>
      </trkpt>
      <trkpt lat="45.55088" lon="6.77547">
        <ele>1907.3</ele>
        <time>2021-03-25T09:08:50Z</time>
      </trkpt>
      <trkpt lat="45.55088" lon="6.77548">
        <ele>1907.9</ele>
        <time>2021-03-25T09:08:51Z</time>
      </trkpt>
      <trkpt lat="45.55088" lon="6.77549">
        <ele>1907.9</ele>
        <time>2021-03-25T09:08:52Z</time>
      </trkpt>
      <trkpt lat="45.55087" lon="6.7755">
        <ele>1907.9</ele>
        <time>2021-03-25T09:08:53Z</time>
      </trkpt>
      <trkpt lat="45.55087" lon="6.77551">
        <ele>1908.3</ele>
        <time>2021-03-25T09:08:54Z</time>
      </trkpt>
      <trkpt lat="45.55087" lon="6.77552">
        <ele>1909</ele>
        <time>2021-03-25T09:08:55Z</time>
      </trkpt>
      <trkpt lat="45.55087" lon="6.77553">
        <ele>1909</ele>
        <time>2021-03-25T09:08:56Z</time>
      </trkpt>
      <trkpt lat="45.55086" lon="6.77554">
        <ele>1909</ele>
        <time>2021-03-25T09:08:57Z</time>
      </trkpt>
      <trkpt lat="45.55086" lon="6.77555">
        <ele>1909</ele>
        <time>2021-03-25T09:08:58Z</time>
      </trkpt>
      <trkpt lat="45.55086" lon="6.77556">
        <ele>1909.6</ele>
        <time>2021-03-25T09:08:59Z</time>
      </trkpt>
      <trkpt lat="45.55086" lon="6.77557">
        <ele>1909.6</ele>
        <time>2021-03-25T09:09:00Z</time>
      </trkpt>
      <trkpt lat="45.55085" lon="6.77558">
        <ele>1909.6</ele>
        <time>2021-03-25T09:09:01Z</time>
      </trkpt>
      <trkpt lat="45.55085" lon="6.77559">
        <ele>1909.6</ele>
        <time>2021-03-25T09:09:02Z</time>
      </trkpt>
      <trkpt lat="45.55085" lon="6.77561">
        <ele>1910.2</ele>
        <time>2021-03-25T09:09:03Z</time>
      </trkpt>
      <trkpt lat="45.55085" lon="6.77562">
        <ele>1910.2</ele>
        <time>2021-03-25T09:09:04Z</time>
      </trkpt>
      <trkpt lat="45.55084" lon="6.77563">
        <ele>1910.2</ele>
        <time>2021-03-25T09:09:05Z</time>
      </trkpt>
      <trkpt lat="45.55084" lon="6.77564">
        <ele>1910.6</ele>
        <time>2021-03-25T09:09:06Z</time>
      </trkpt>
      <trkpt lat="45.55084" lon="6.77565">
        <ele>1911.3</ele>
        <time>2021-03-25T09:09:07Z</time>
      </trkpt>
      <trkpt lat="45.55084" lon="6.77566">
        <ele>1911.3</ele>
        <time>2021-03-25T09:09:08Z</time>
      </trkpt>
      <trkpt lat="45.55084" lon="6.77567">
        <ele>1911.3</ele>
        <time>2021-03-25T09:09:09Z</time>
      </trkpt>
      <trkpt lat="45.55084" lon="6.77569">
        <ele>1911.3</ele>
        <time>2021-03-25T09:09:10Z</time>
      </trkpt>
      <trkpt lat="45.55084" lon="6.7757">
        <ele>1912</ele>
        <time>2021-03-25T09:09:11Z</time>
      </trkpt>
      <trkpt lat="45.55084" lon="6.77571">
        <ele>1912</ele>
        <time>2021-03-25T09:09:12Z</time>
      </trkpt>
      <trkpt lat="45.55083" lon="6.77572">
        <ele>1912</ele>
        <time>2021-03-25T09:09:13Z</time>
      </trkpt>
      <trkpt lat="45.55083" lon="6.77573">
        <ele>1912.7</ele>
        <time>2021-03-25T09:09:14Z</time>
      </trkpt>
      <trkpt lat="45.55083" lon="6.77574">
        <ele>1912.7</ele>
        <time>2021-03-25T09:09:15Z</time>
      </trkpt>
      <trkpt lat="45.55082" lon="6.77575">
        <ele>1912.7</ele>
        <time>2021-03-25T09:09:16Z</time>
      </trkpt>
      <trkpt lat="45.55082" lon="6.77576">
        <ele>1912.7</ele>
        <time>2021-03-25T09:09:17Z</time>
      </trkpt>
      <trkpt lat="45.55081" lon="6.77577">
        <ele>1913</ele>
        <time>2021-03-25T09:09:18Z</time>
      </trkpt>
      <trkpt lat="45.55081" lon="6.77578">
        <ele>1913.7</ele>
        <time>2021-03-25T09:09:19Z</time>
      </trkpt>
      <trkpt lat="45.55081" lon="6.77579">
        <ele>1913.7</ele>
        <time>2021-03-25T09:09:20Z</time>
      </trkpt>
      <trkpt lat="45.5508" lon="6.7758">
        <ele>1913.7</ele>
        <time>2021-03-25T09:09:21Z</time>
      </trkpt>
      <trkpt lat="45.5508" lon="6.77581">
        <ele>1913.7</ele>
        <time>2021-03-25T09:09:22Z</time>
      </trkpt>
      <trkpt lat="45.5508" lon="6.77581">
        <ele>1913.7</ele>
        <time>2021-03-25T09:09:23Z</time>
      </trkpt>
      <trkpt lat="45.5508" lon="6.77582">
        <ele>1914.5</ele>
        <time>2021-03-25T09:09:24Z</time>
      </trkpt>
      <trkpt lat="45.55079" lon="6.77583">
        <ele>1914.5</ele>
        <time>2021-03-25T09:09:25Z</time>
      </trkpt>
      <trkpt lat="45.55079" lon="6.77584">
        <ele>1914.5</ele>
        <time>2021-03-25T09:09:26Z</time>
      </trkpt>
      <trkpt lat="45.55079" lon="6.77585">
        <ele>1914.5</ele>
        <time>2021-03-25T09:09:27Z</time>
      </trkpt>
      <trkpt lat="45.55078" lon="6.77586">
        <ele>1915.2</ele>
        <time>2021-03-25T09:09:28Z</time>
      </trkpt>
      <trkpt lat="45.55078" lon="6.77587">
        <ele>1915.5</ele>
        <time>2021-03-25T09:09:29Z</time>
      </trkpt>
      <trkpt lat="45.55078" lon="6.77588">
        <ele>1915.5</ele>
        <time>2021-03-25T09:09:30Z</time>
      </trkpt>
      <trkpt lat="45.55077" lon="6.77589">
        <ele>1915.5</ele>
        <time>2021-03-25T09:09:31Z</time>
      </trkpt>
      <trkpt lat="45.55077" lon="6.7759">
        <ele>1915.5</ele>
        <time>2021-03-25T09:09:32Z</time>
      </trkpt>
      <trkpt lat="45.55077" lon="6.77591">
        <ele>1916.2</ele>
        <time>2021-03-25T09:09:33Z</time>
      </trkpt>
      <trkpt lat="45.55076" lon="6.77592">
        <ele>1916.2</ele>
        <time>2021-03-25T09:09:34Z</time>
      </trkpt>
      <trkpt lat="45.55076" lon="6.77593">
        <ele>1916.2</ele>
        <time>2021-03-25T09:09:35Z</time>
      </trkpt>
      <trkpt lat="45.55076" lon="6.77594">
        <ele>1916.2</ele>
        <time>2021-03-25T09:09:36Z</time>
      </trkpt>
      <trkpt lat="45.55076" lon="6.77595">
        <ele>1916.8</ele>
        <time>2021-03-25T09:09:37Z</time>
      </trkpt>
      <trkpt lat="45.55075" lon="6.77596">
        <ele>1917.1</ele>
        <time>2021-03-25T09:09:38Z</time>
      </trkpt>
      <trkpt lat="45.55075" lon="6.77597">
        <ele>1917.1</ele>
        <time>2021-03-25T09:09:39Z</time>
      </trkpt>
      <trkpt lat="45.55075" lon="6.77598">
        <ele>1917.1</ele>
        <time>2021-03-25T09:09:40Z</time>
      </trkpt>
      <trkpt lat="45.55074" lon="6.77599">
        <ele>1917.1</ele>
        <time>2021-03-25T09:09:41Z</time>
      </trkpt>
      <trkpt lat="45.55074" lon="6.776">
        <ele>1917.7</ele>
        <time>2021-03-25T09:09:42Z</time>
      </trkpt>
      <trkpt lat="45.55074" lon="6.77601">
        <ele>1917.7</ele>
        <time>2021-03-25T09:09:43Z</time>
      </trkpt>
      <trkpt lat="45.55073" lon="6.77602">
        <ele>1917.7</ele>
        <time>2021-03-25T09:09:44Z</time>
      </trkpt>
      <trkpt lat="45.55073" lon="6.77603">
        <ele>1917.7</ele>
        <time>2021-03-25T09:09:45Z</time>
      </trkpt>
      <trkpt lat="45.55073" lon="6.77604">
        <ele>1918.4</ele>
        <time>2021-03-25T09:09:46Z</time>
      </trkpt>
      <trkpt lat="45.55073" lon="6.77605">
        <ele>1918.4</ele>
        <time>2021-03-25T09:09:47Z</time>
      </trkpt>
      <trkpt lat="45.55073" lon="6.77606">
        <ele>1918.4</ele>
        <time>2021-03-25T09:09:48Z</time>
      </trkpt>
      <trkpt lat="45.55073" lon="6.77608">
        <ele>1919.1</ele>
        <time>2021-03-25T09:09:49Z</time>
      </trkpt>
      <trkpt lat="45.55073" lon="6.77609">
        <ele>1919.1</ele>
        <time>2021-03-25T09:09:50Z</time>
      </trkpt>
      <trkpt lat="45.55073" lon="6.7761">
        <ele>1919.1</ele>
        <time>2021-03-25T09:09:51Z</time>
      </trkpt>
      <trkpt lat="45.55072" lon="6.7761">
        <ele>1919.1</ele>
        <time>2021-03-25T09:09:52Z</time>
      </trkpt>
      <trkpt lat="45.55072" lon="6.77611">
        <ele>1919.3</ele>
        <time>2021-03-25T09:09:53Z</time>
      </trkpt>
      <trkpt lat="45.55072" lon="6.77612">
        <ele>1919.3</ele>
        <time>2021-03-25T09:09:54Z</time>
      </trkpt>
      <trkpt lat="45.55072" lon="6.77613">
        <ele>1920.1</ele>
        <time>2021-03-25T09:09:55Z</time>
      </trkpt>
      <trkpt lat="45.55071" lon="6.77614">
        <ele>1920.1</ele>
        <time>2021-03-25T09:09:56Z</time>
      </trkpt>
      <trkpt lat="45.55071" lon="6.77614">
        <ele>1920.1</ele>
        <time>2021-03-25T09:09:57Z</time>
      </trkpt>
      <trkpt lat="45.55071" lon="6.77615">
        <ele>1920.1</ele>
        <time>2021-03-25T09:09:58Z</time>
      </trkpt>
      <trkpt lat="45.55071" lon="6.77616">
        <ele>1920.1</ele>
        <time>2021-03-25T09:09:59Z</time>
      </trkpt>
      <trkpt lat="45.55071" lon="6.77617">
        <ele>1920.8</ele>
        <time>2021-03-25T09:10:00Z</time>
      </trkpt>
      <trkpt lat="45.55071" lon="6.77618">
        <ele>1920.8</ele>
        <time>2021-03-25T09:10:01Z</time>
      </trkpt>
      <trkpt lat="45.5507" lon="6.77619">
        <ele>1920.8</ele>
        <time>2021-03-25T09:10:02Z</time>
      </trkpt>
      <trkpt lat="45.5507" lon="6.77619">
        <ele>1920.8</ele>
        <time>2021-03-25T09:10:03Z</time>
      </trkpt>
      <trkpt lat="45.5507" lon="6.7762">
        <ele>1920.8</ele>
        <time>2021-03-25T09:10:04Z</time>
      </trkpt>
      <trkpt lat="45.5507" lon="6.77621">
        <ele>1921.5</ele>
        <time>2021-03-25T09:10:05Z</time>
      </trkpt>
      <trkpt lat="45.55069" lon="6.77622">
        <ele>1921.8</ele>
        <time>2021-03-25T09:10:06Z</time>
      </trkpt>
      <trkpt lat="45.55069" lon="6.77622">
        <ele>1921.8</ele>
        <time>2021-03-25T09:10:07Z</time>
      </trkpt>
      <trkpt lat="45.55069" lon="6.77623">
        <ele>1921.8</ele>
        <time>2021-03-25T09:10:08Z</time>
      </trkpt>
      <trkpt lat="45.55069" lon="6.77624">
        <ele>1921.8</ele>
        <time>2021-03-25T09:10:09Z</time>
      </trkpt>
      <trkpt lat="45.55069" lon="6.77625">
        <ele>1921.8</ele>
        <time>2021-03-25T09:10:10Z</time>
      </trkpt>
      <trkpt lat="45.55069" lon="6.77626">
        <ele>1922.5</ele>
        <time>2021-03-25T09:10:11Z</time>
      </trkpt>
      <trkpt lat="45.55069" lon="6.77627">
        <ele>1922.5</ele>
        <time>2021-03-25T09:10:12Z</time>
      </trkpt>
      <trkpt lat="45.55069" lon="6.77628">
        <ele>1922.5</ele>
        <time>2021-03-25T09:10:13Z</time>
      </trkpt>
      <trkpt lat="45.55069" lon="6.77629">
        <ele>1922.5</ele>
        <time>2021-03-25T09:10:14Z</time>
      </trkpt>
      <trkpt lat="45.55069" lon="6.7763">
        <ele>1923.3</ele>
        <time>2021-03-25T09:10:15Z</time>
      </trkpt>
      <trkpt lat="45.55069" lon="6.77631">
        <ele>1923.3</ele>
        <time>2021-03-25T09:10:16Z</time>
      </trkpt>
      <trkpt lat="45.55068" lon="6.77631">
        <ele>1923.3</ele>
        <time>2021-03-25T09:10:17Z</time>
      </trkpt>
      <trkpt lat="45.55068" lon="6.77632">
        <ele>1923.3</ele>
        <time>2021-03-25T09:10:18Z</time>
      </trkpt>
      <trkpt lat="45.55068" lon="6.77634">
        <ele>1923.9</ele>
        <time>2021-03-25T09:10:19Z</time>
      </trkpt>
      <trkpt lat="45.55068" lon="6.77635">
        <ele>1923.9</ele>
        <time>2021-03-25T09:10:20Z</time>
      </trkpt>
      <trkpt lat="45.55068" lon="6.77636">
        <ele>1923.9</ele>
        <time>2021-03-25T09:10:21Z</time>
      </trkpt>
      <trkpt lat="45.55067" lon="6.77637">
        <ele>1923.9</ele>
        <time>2021-03-25T09:10:22Z</time>
      </trkpt>
      <trkpt lat="45.55067" lon="6.77638">
        <ele>1924.6</ele>
        <time>2021-03-25T09:10:23Z</time>
      </trkpt>
      <trkpt lat="45.55067" lon="6.77639">
        <ele>1924.6</ele>
        <time>2021-03-25T09:10:24Z</time>
      </trkpt>
      <trkpt lat="45.55067" lon="6.7764">
        <ele>1924.6</ele>
        <time>2021-03-25T09:10:25Z</time>
      </trkpt>
      <trkpt lat="45.55067" lon="6.77641">
        <ele>1924.6</ele>
        <time>2021-03-25T09:10:26Z</time>
      </trkpt>
      <trkpt lat="45.55067" lon="6.77642">
        <ele>1924.6</ele>
        <time>2021-03-25T09:10:27Z</time>
      </trkpt>
      <trkpt lat="45.55067" lon="6.77643">
        <ele>1925.2</ele>
        <time>2021-03-25T09:10:28Z</time>
      </trkpt>
      <trkpt lat="45.55067" lon="6.77644">
        <ele>1925.2</ele>
        <time>2021-03-25T09:10:29Z</time>
      </trkpt>
      <trkpt lat="45.55067" lon="6.77644">
        <ele>1925.2</ele>
        <time>2021-03-25T09:10:30Z</time>
      </trkpt>
      <trkpt lat="45.55067" lon="6.77645">
        <ele>1925.2</ele>
        <time>2021-03-25T09:10:31Z</time>
      </trkpt>
      <trkpt lat="45.55067" lon="6.77646">
        <ele>1925.2</ele>
        <time>2021-03-25T09:10:32Z</time>
      </trkpt>
      <trkpt lat="45.55067" lon="6.77647">
        <ele>1925.8</ele>
        <time>2021-03-25T09:10:33Z</time>
      </trkpt>
      <trkpt lat="45.55067" lon="6.77648">
        <ele>1925.8</ele>
        <time>2021-03-25T09:10:34Z</time>
      </trkpt>
      <trkpt lat="45.55067" lon="6.77649">
        <ele>1925.8</ele>
        <time>2021-03-25T09:10:35Z</time>
      </trkpt>
      <trkpt lat="45.55067" lon="6.7765">
        <ele>1925.8</ele>
        <time>2021-03-25T09:10:36Z</time>
      </trkpt>
      <trkpt lat="45.55067" lon="6.77651">
        <ele>1926.4</ele>
        <time>2021-03-25T09:10:37Z</time>
      </trkpt>
      <trkpt lat="45.55067" lon="6.77652">
        <ele>1926.4</ele>
        <time>2021-03-25T09:10:38Z</time>
      </trkpt>
      <trkpt lat="45.55067" lon="6.77653">
        <ele>1926.4</ele>
        <time>2021-03-25T09:10:39Z</time>
      </trkpt>
      <trkpt lat="45.55067" lon="6.77654">
        <ele>1926.4</ele>
        <time>2021-03-25T09:10:40Z</time>
      </trkpt>
      <trkpt lat="45.55067" lon="6.77655">
        <ele>1927.1</ele>
        <time>2021-03-25T09:10:41Z</time>
      </trkpt>
      <trkpt lat="45.55068" lon="6.77656">
        <ele>1927.1</ele>
        <time>2021-03-25T09:10:42Z</time>
      </trkpt>
      <trkpt lat="45.55068" lon="6.77657">
        <ele>1927.1</ele>
        <time>2021-03-25T09:10:43Z</time>
      </trkpt>
      <trkpt lat="45.55068" lon="6.77658">
        <ele>1927.1</ele>
        <time>2021-03-25T09:10:44Z</time>
      </trkpt>
      <trkpt lat="45.55068" lon="6.77659">
        <ele>1927.1</ele>
        <time>2021-03-25T09:10:45Z</time>
      </trkpt>
      <trkpt lat="45.55067" lon="6.7766">
        <ele>1927.7</ele>
        <time>2021-03-25T09:10:46Z</time>
      </trkpt>
      <trkpt lat="45.55067" lon="6.77661">
        <ele>1927.7</ele>
        <time>2021-03-25T09:10:47Z</time>
      </trkpt>
      <trkpt lat="45.55067" lon="6.77662">
        <ele>1927.7</ele>
        <time>2021-03-25T09:10:48Z</time>
      </trkpt>
      <trkpt lat="45.55067" lon="6.77662">
        <ele>1927.7</ele>
        <time>2021-03-25T09:10:49Z</time>
      </trkpt>
      <trkpt lat="45.55067" lon="6.77663">
        <ele>1928.5</ele>
        <time>2021-03-25T09:10:50Z</time>
      </trkpt>
      <trkpt lat="45.55067" lon="6.77664">
        <ele>1928.5</ele>
        <time>2021-03-25T09:10:51Z</time>
      </trkpt>
      <trkpt lat="45.55067" lon="6.77665">
        <ele>1928.5</ele>
        <time>2021-03-25T09:10:52Z</time>
      </trkpt>
      <trkpt lat="45.55067" lon="6.77666">
        <ele>1928.5</ele>
        <time>2021-03-25T09:10:53Z</time>
      </trkpt>
      <trkpt lat="45.55067" lon="6.77667">
        <ele>1928.5</ele>
        <time>2021-03-25T09:10:54Z</time>
      </trkpt>
      <trkpt lat="45.55067" lon="6.77668">
        <ele>1929.2</ele>
        <time>2021-03-25T09:10:55Z</time>
      </trkpt>
      <trkpt lat="45.55067" lon="6.77669">
        <ele>1929.2</ele>
        <time>2021-03-25T09:10:56Z</time>
      </trkpt>
      <trkpt lat="45.55067" lon="6.7767">
        <ele>1929.2</ele>
        <time>2021-03-25T09:10:57Z</time>
      </trkpt>
      <trkpt lat="45.55067" lon="6.77671">
        <ele>1929.2</ele>
        <time>2021-03-25T09:10:58Z</time>
      </trkpt>
      <trkpt lat="45.55066" lon="6.77672">
        <ele>1930.3</ele>
        <time>2021-03-25T09:10:59Z</time>
      </trkpt>
      <trkpt lat="45.55066" lon="6.77673">
        <ele>1930.3</ele>
        <time>2021-03-25T09:11:00Z</time>
      </trkpt>
      <trkpt lat="45.55066" lon="6.77674">
        <ele>1930.3</ele>
        <time>2021-03-25T09:11:01Z</time>
      </trkpt>
      <trkpt lat="45.55065" lon="6.77675">
        <ele>1930.3</ele>
        <time>2021-03-25T09:11:02Z</time>
      </trkpt>
      <trkpt lat="45.55065" lon="6.77676">
        <ele>1930.3</ele>
        <time>2021-03-25T09:11:03Z</time>
      </trkpt>
      <trkpt lat="45.55065" lon="6.77677">
        <ele>1931.1</ele>
        <time>2021-03-25T09:11:04Z</time>
      </trkpt>
      <trkpt lat="45.55064" lon="6.77678">
        <ele>1931.1</ele>
        <time>2021-03-25T09:11:05Z</time>
      </trkpt>
      <trkpt lat="45.55064" lon="6.77678">
        <ele>1931.1</ele>
        <time>2021-03-25T09:11:06Z</time>
      </trkpt>
      <trkpt lat="45.55064" lon="6.77679">
        <ele>1931.1</ele>
        <time>2021-03-25T09:11:07Z</time>
      </trkpt>
      <trkpt lat="45.55063" lon="6.7768">
        <ele>1931.1</ele>
        <time>2021-03-25T09:11:08Z</time>
      </trkpt>
      <trkpt lat="45.55063" lon="6.77681">
        <ele>1932.2</ele>
        <time>2021-03-25T09:11:09Z</time>
      </trkpt>
      <trkpt lat="45.55063" lon="6.77682">
        <ele>1932.2</ele>
        <time>2021-03-25T09:11:10Z</time>
      </trkpt>
      <trkpt lat="45.55062" lon="6.77683">
        <ele>1932.2</ele>
        <time>2021-03-25T09:11:11Z</time>
      </trkpt>
      <trkpt lat="45.55062" lon="6.77684">
        <ele>1932.2</ele>
        <time>2021-03-25T09:11:12Z</time>
      </trkpt>
      <trkpt lat="45.55061" lon="6.77684">
        <ele>1932.2</ele>
        <time>2021-03-25T09:11:13Z</time>
      </trkpt>
      <trkpt lat="45.55061" lon="6.77685">
        <ele>1932.9</ele>
        <time>2021-03-25T09:11:14Z</time>
      </trkpt>
      <trkpt lat="45.5506" lon="6.77686">
        <ele>1932.9</ele>
        <time>2021-03-25T09:11:15Z</time>
      </trkpt>
      <trkpt lat="45.5506" lon="6.77686">
        <ele>1933.2</ele>
        <time>2021-03-25T09:11:16Z</time>
      </trkpt>
      <trkpt lat="45.5506" lon="6.77687">
        <ele>1933.2</ele>
        <time>2021-03-25T09:11:17Z</time>
      </trkpt>
      <trkpt lat="45.55059" lon="6.77688">
        <ele>1933.2</ele>
        <time>2021-03-25T09:11:18Z</time>
      </trkpt>
      <trkpt lat="45.55059" lon="6.77688">
        <ele>1933.2</ele>
        <time>2021-03-25T09:11:19Z</time>
      </trkpt>
      <trkpt lat="45.55058" lon="6.77689">
        <ele>1933.2</ele>
        <time>2021-03-25T09:11:20Z</time>
      </trkpt>
      <trkpt lat="45.55057" lon="6.77689">
        <ele>1934</ele>
        <time>2021-03-25T09:11:21Z</time>
      </trkpt>
      <trkpt lat="45.55057" lon="6.7769">
        <ele>1934.3</ele>
        <time>2021-03-25T09:11:22Z</time>
      </trkpt>
      <trkpt lat="45.55056" lon="6.7769">
        <ele>1934.3</ele>
        <time>2021-03-25T09:11:23Z</time>
      </trkpt>
      <trkpt lat="45.55056" lon="6.77691">
        <ele>1934.3</ele>
        <time>2021-03-25T09:11:24Z</time>
      </trkpt>
      <trkpt lat="45.55055" lon="6.77691">
        <ele>1934.3</ele>
        <time>2021-03-25T09:11:25Z</time>
      </trkpt>
      <trkpt lat="45.55055" lon="6.77692">
        <ele>1934.3</ele>
        <time>2021-03-25T09:11:26Z</time>
      </trkpt>
      <trkpt lat="45.55054" lon="6.77692">
        <ele>1934.3</ele>
        <time>2021-03-25T09:11:27Z</time>
      </trkpt>
      <trkpt lat="45.55054" lon="6.77693">
        <ele>1934.3</ele>
        <time>2021-03-25T09:11:28Z</time>
      </trkpt>
      <trkpt lat="45.55054" lon="6.77694">
        <ele>1935.3</ele>
        <time>2021-03-25T09:11:29Z</time>
      </trkpt>
      <trkpt lat="45.55054" lon="6.77695">
        <ele>1935.1</ele>
        <time>2021-03-25T09:11:30Z</time>
      </trkpt>
      <trkpt lat="45.55055" lon="6.77696">
        <ele>1935.1</ele>
        <time>2021-03-25T09:11:31Z</time>
      </trkpt>
      <trkpt lat="45.55055" lon="6.77697">
        <ele>1935.1</ele>
        <time>2021-03-25T09:11:32Z</time>
      </trkpt>
      <trkpt lat="45.55055" lon="6.77698">
        <ele>1935.9</ele>
        <time>2021-03-25T09:11:33Z</time>
      </trkpt>
      <trkpt lat="45.55055" lon="6.77699">
        <ele>1935.9</ele>
        <time>2021-03-25T09:11:34Z</time>
      </trkpt>
      <trkpt lat="45.55056" lon="6.777">
        <ele>1935.9</ele>
        <time>2021-03-25T09:11:35Z</time>
      </trkpt>
      <trkpt lat="45.55056" lon="6.77701">
        <ele>1935.9</ele>
        <time>2021-03-25T09:11:36Z</time>
      </trkpt>
      <trkpt lat="45.55056" lon="6.77702">
        <ele>1936.8</ele>
        <time>2021-03-25T09:11:37Z</time>
      </trkpt>
      <trkpt lat="45.55056" lon="6.77703">
        <ele>1936.8</ele>
        <time>2021-03-25T09:11:38Z</time>
      </trkpt>
      <trkpt lat="45.55057" lon="6.77704">
        <ele>1936.8</ele>
        <time>2021-03-25T09:11:39Z</time>
      </trkpt>
      <trkpt lat="45.55057" lon="6.77705">
        <ele>1936.8</ele>
        <time>2021-03-25T09:11:40Z</time>
      </trkpt>
      <trkpt lat="45.55057" lon="6.77706">
        <ele>1936.8</ele>
        <time>2021-03-25T09:11:41Z</time>
      </trkpt>
      <trkpt lat="45.55057" lon="6.77707">
        <ele>1937.4</ele>
        <time>2021-03-25T09:11:42Z</time>
      </trkpt>
      <trkpt lat="45.55058" lon="6.77708">
        <ele>1937.4</ele>
        <time>2021-03-25T09:11:43Z</time>
      </trkpt>
      <trkpt lat="45.55058" lon="6.77708">
        <ele>1937.4</ele>
        <time>2021-03-25T09:11:44Z</time>
      </trkpt>
      <trkpt lat="45.55058" lon="6.77709">
        <ele>1937.4</ele>
        <time>2021-03-25T09:11:45Z</time>
      </trkpt>
      <trkpt lat="45.55058" lon="6.7771">
        <ele>1937.4</ele>
        <time>2021-03-25T09:11:46Z</time>
      </trkpt>
      <trkpt lat="45.55058" lon="6.77711">
        <ele>1938.4</ele>
        <time>2021-03-25T09:11:47Z</time>
      </trkpt>
      <trkpt lat="45.55058" lon="6.77712">
        <ele>1938.4</ele>
        <time>2021-03-25T09:11:48Z</time>
      </trkpt>
      <trkpt lat="45.55058" lon="6.77714">
        <ele>1938.4</ele>
        <time>2021-03-25T09:11:49Z</time>
      </trkpt>
      <trkpt lat="45.55058" lon="6.77715">
        <ele>1938.4</ele>
        <time>2021-03-25T09:11:50Z</time>
      </trkpt>
      <trkpt lat="45.55058" lon="6.77715">
        <ele>1939.4</ele>
        <time>2021-03-25T09:11:51Z</time>
      </trkpt>
      <trkpt lat="45.55059" lon="6.77716">
        <ele>1939.4</ele>
        <time>2021-03-25T09:11:52Z</time>
      </trkpt>
      <trkpt lat="45.55058" lon="6.77717">
        <ele>1939.4</ele>
        <time>2021-03-25T09:11:53Z</time>
      </trkpt>
      <trkpt lat="45.55058" lon="6.77718">
        <ele>1939.4</ele>
        <time>2021-03-25T09:11:54Z</time>
      </trkpt>
      <trkpt lat="45.55058" lon="6.77719">
        <ele>1939.4</ele>
        <time>2021-03-25T09:11:55Z</time>
      </trkpt>
      <trkpt lat="45.55057" lon="6.77719">
        <ele>1940.4</ele>
        <time>2021-03-25T09:11:56Z</time>
      </trkpt>
      <trkpt lat="45.55057" lon="6.7772">
        <ele>1940.7</ele>
        <time>2021-03-25T09:11:57Z</time>
      </trkpt>
      <trkpt lat="45.55056" lon="6.7772">
        <ele>1940.7</ele>
        <time>2021-03-25T09:11:58Z</time>
      </trkpt>
      <trkpt lat="45.55056" lon="6.77721">
        <ele>1940.7</ele>
        <time>2021-03-25T09:11:59Z</time>
      </trkpt>
      <trkpt lat="45.55055" lon="6.77722">
        <ele>1940.7</ele>
        <time>2021-03-25T09:12:00Z</time>
      </trkpt>
      <trkpt lat="45.55055" lon="6.77723">
        <ele>1940.7</ele>
        <time>2021-03-25T09:12:01Z</time>
      </trkpt>
      <trkpt lat="45.55054" lon="6.77723">
        <ele>1940.9</ele>
        <time>2021-03-25T09:12:02Z</time>
      </trkpt>
      <trkpt lat="45.55053" lon="6.77724">
        <ele>1941.9</ele>
        <time>2021-03-25T09:12:03Z</time>
      </trkpt>
      <trkpt lat="45.55053" lon="6.77724">
        <ele>1941.9</ele>
        <time>2021-03-25T09:12:04Z</time>
      </trkpt>
      <trkpt lat="45.55052" lon="6.77725">
        <ele>1941.9</ele>
        <time>2021-03-25T09:12:05Z</time>
      </trkpt>
      <trkpt lat="45.55051" lon="6.77725">
        <ele>1941.9</ele>
        <time>2021-03-25T09:12:06Z</time>
      </trkpt>
      <trkpt lat="45.55051" lon="6.77725">
        <ele>1942.1</ele>
        <time>2021-03-25T09:12:07Z</time>
      </trkpt>
      <trkpt lat="45.5505" lon="6.77725">
        <ele>1942.1</ele>
        <time>2021-03-25T09:12:08Z</time>
      </trkpt>
      <trkpt lat="45.5505" lon="6.77726">
        <ele>1942.1</ele>
        <time>2021-03-25T09:12:09Z</time>
      </trkpt>
      <trkpt lat="45.55049" lon="6.77726">
        <ele>1942.1</ele>
        <time>2021-03-25T09:12:10Z</time>
      </trkpt>
      <trkpt lat="45.55049" lon="6.77726">
        <ele>1942.1</ele>
        <time>2021-03-25T09:12:11Z</time>
      </trkpt>
      <trkpt lat="45.55048" lon="6.77727">
        <ele>1942.2</ele>
        <time>2021-03-25T09:12:12Z</time>
      </trkpt>
      <trkpt lat="45.55047" lon="6.77727">
        <ele>1942.2</ele>
        <time>2021-03-25T09:12:13Z</time>
      </trkpt>
      <trkpt lat="45.55047" lon="6.77727">
        <ele>1942.2</ele>
        <time>2021-03-25T09:12:14Z</time>
      </trkpt>
      <trkpt lat="45.55046" lon="6.77728">
        <ele>1943.2</ele>
        <time>2021-03-25T09:12:15Z</time>
      </trkpt>
      <trkpt lat="45.55046" lon="6.77729">
        <ele>1943.2</ele>
        <time>2021-03-25T09:12:16Z</time>
      </trkpt>
      <trkpt lat="45.55046" lon="6.77729">
        <ele>1943.2</ele>
        <time>2021-03-25T09:12:17Z</time>
      </trkpt>
      <trkpt lat="45.55046" lon="6.7773">
        <ele>1943.2</ele>
        <time>2021-03-25T09:12:18Z</time>
      </trkpt>
      <trkpt lat="45.55046" lon="6.77731">
        <ele>1943.2</ele>
        <time>2021-03-25T09:12:19Z</time>
      </trkpt>
      <trkpt lat="45.55046" lon="6.77732">
        <ele>1944.1</ele>
        <time>2021-03-25T09:12:20Z</time>
      </trkpt>
      <trkpt lat="45.55046" lon="6.77733">
        <ele>1944.1</ele>
        <time>2021-03-25T09:12:21Z</time>
      </trkpt>
      <trkpt lat="45.55047" lon="6.77734">
        <ele>1944.1</ele>
        <time>2021-03-25T09:12:22Z</time>
      </trkpt>
      <trkpt lat="45.55047" lon="6.77735">
        <ele>1944.1</ele>
        <time>2021-03-25T09:12:23Z</time>
      </trkpt>
      <trkpt lat="45.55048" lon="6.77736">
        <ele>1944.1</ele>
        <time>2021-03-25T09:12:24Z</time>
      </trkpt>
      <trkpt lat="45.55048" lon="6.77737">
        <ele>1945</ele>
        <time>2021-03-25T09:12:25Z</time>
      </trkpt>
      <trkpt lat="45.55048" lon="6.77737">
        <ele>1944.8</ele>
        <time>2021-03-25T09:12:26Z</time>
      </trkpt>
      <trkpt lat="45.55048" lon="6.77738">
        <ele>1944.8</ele>
        <time>2021-03-25T09:12:27Z</time>
      </trkpt>
      <trkpt lat="45.55049" lon="6.77739">
        <ele>1944.8</ele>
        <time>2021-03-25T09:12:28Z</time>
      </trkpt>
      <trkpt lat="45.55049" lon="6.77739">
        <ele>1944.8</ele>
        <time>2021-03-25T09:12:29Z</time>
      </trkpt>
      <trkpt lat="45.55049" lon="6.7774">
        <ele>1944.8</ele>
        <time>2021-03-25T09:12:30Z</time>
      </trkpt>
      <trkpt lat="45.5505" lon="6.77741">
        <ele>1945.7</ele>
        <time>2021-03-25T09:12:31Z</time>
      </trkpt>
      <trkpt lat="45.5505" lon="6.77742">
        <ele>1945.7</ele>
        <time>2021-03-25T09:12:32Z</time>
      </trkpt>
      <trkpt lat="45.5505" lon="6.77743">
        <ele>1945.7</ele>
        <time>2021-03-25T09:12:33Z</time>
      </trkpt>
      <trkpt lat="45.55051" lon="6.77744">
        <ele>1945.7</ele>
        <time>2021-03-25T09:12:34Z</time>
      </trkpt>
      <trkpt lat="45.55051" lon="6.77744">
        <ele>1945.7</ele>
        <time>2021-03-25T09:12:35Z</time>
      </trkpt>
      <trkpt lat="45.55051" lon="6.77745">
        <ele>1946.6</ele>
        <time>2021-03-25T09:12:36Z</time>
      </trkpt>
      <trkpt lat="45.55051" lon="6.77746">
        <ele>1946.4</ele>
        <time>2021-03-25T09:12:37Z</time>
      </trkpt>
      <trkpt lat="45.55052" lon="6.77747">
        <ele>1946.4</ele>
        <time>2021-03-25T09:12:38Z</time>
      </trkpt>
      <trkpt lat="45.55052" lon="6.77747">
        <ele>1946.4</ele>
        <time>2021-03-25T09:12:39Z</time>
      </trkpt>
      <trkpt lat="45.55052" lon="6.77748">
        <ele>1946.4</ele>
        <time>2021-03-25T09:12:40Z</time>
      </trkpt>
      <trkpt lat="45.55052" lon="6.77749">
        <ele>1946.4</ele>
        <time>2021-03-25T09:12:41Z</time>
      </trkpt>
      <trkpt lat="45.55052" lon="6.7775">
        <ele>1947.3</ele>
        <time>2021-03-25T09:12:42Z</time>
      </trkpt>
      <trkpt lat="45.55053" lon="6.7775">
        <ele>1947.3</ele>
        <time>2021-03-25T09:12:43Z</time>
      </trkpt>
      <trkpt lat="45.55053" lon="6.77751">
        <ele>1947.3</ele>
        <time>2021-03-25T09:12:44Z</time>
      </trkpt>
      <trkpt lat="45.55053" lon="6.77752">
        <ele>1947.3</ele>
        <time>2021-03-25T09:12:45Z</time>
      </trkpt>
      <trkpt lat="45.55053" lon="6.77753">
        <ele>1947.3</ele>
        <time>2021-03-25T09:12:46Z</time>
      </trkpt>
      <trkpt lat="45.55053" lon="6.77754">
        <ele>1948.3</ele>
        <time>2021-03-25T09:12:47Z</time>
      </trkpt>
      <trkpt lat="45.55054" lon="6.77754">
        <ele>1948.3</ele>
        <time>2021-03-25T09:12:48Z</time>
      </trkpt>
      <trkpt lat="45.55054" lon="6.77755">
        <ele>1948.3</ele>
        <time>2021-03-25T09:12:49Z</time>
      </trkpt>
      <trkpt lat="45.55054" lon="6.77756">
        <ele>1948.3</ele>
        <time>2021-03-25T09:12:50Z</time>
      </trkpt>
      <trkpt lat="45.55054" lon="6.77757">
        <ele>1948.3</ele>
        <time>2021-03-25T09:12:51Z</time>
      </trkpt>
      <trkpt lat="45.55053" lon="6.77758">
        <ele>1949.3</ele>
        <time>2021-03-25T09:12:52Z</time>
      </trkpt>
      <trkpt lat="45.55053" lon="6.77759">
        <ele>1949.3</ele>
        <time>2021-03-25T09:12:53Z</time>
      </trkpt>
      <trkpt lat="45.55052" lon="6.7776">
        <ele>1949.3</ele>
        <time>2021-03-25T09:12:54Z</time>
      </trkpt>
      <trkpt lat="45.55052" lon="6.77761">
        <ele>1949.3</ele>
        <time>2021-03-25T09:12:55Z</time>
      </trkpt>
      <trkpt lat="45.55051" lon="6.77761">
        <ele>1949.6</ele>
        <time>2021-03-25T09:12:56Z</time>
      </trkpt>
      <trkpt lat="45.5505" lon="6.77762">
        <ele>1949.6</ele>
        <time>2021-03-25T09:12:57Z</time>
      </trkpt>
      <trkpt lat="45.55049" lon="6.77762">
        <ele>1950.6</ele>
        <time>2021-03-25T09:12:58Z</time>
      </trkpt>
      <trkpt lat="45.55049" lon="6.77763">
        <ele>1950.6</ele>
        <time>2021-03-25T09:12:59Z</time>
      </trkpt>
      <trkpt lat="45.55048" lon="6.77763">
        <ele>1950.8</ele>
        <time>2021-03-25T09:13:00Z</time>
      </trkpt>
      <trkpt lat="45.55047" lon="6.77764">
        <ele>1950.8</ele>
        <time>2021-03-25T09:13:01Z</time>
      </trkpt>
      <trkpt lat="45.55046" lon="6.77764">
        <ele>1950.8</ele>
        <time>2021-03-25T09:13:02Z</time>
      </trkpt>
      <trkpt lat="45.55046" lon="6.77764">
        <ele>1950.8</ele>
        <time>2021-03-25T09:13:03Z</time>
      </trkpt>
      <trkpt lat="45.55045" lon="6.77765">
        <ele>1951.1</ele>
        <time>2021-03-25T09:13:04Z</time>
      </trkpt>
      <trkpt lat="45.55044" lon="6.77765">
        <ele>1951.1</ele>
        <time>2021-03-25T09:13:05Z</time>
      </trkpt>
      <trkpt lat="45.55044" lon="6.77765">
        <ele>1951.1</ele>
        <time>2021-03-25T09:13:06Z</time>
      </trkpt>
      <trkpt lat="45.55043" lon="6.77766">
        <ele>1951.1</ele>
        <time>2021-03-25T09:13:07Z</time>
      </trkpt>
      <trkpt lat="45.55042" lon="6.77766">
        <ele>1951.1</ele>
        <time>2021-03-25T09:13:08Z</time>
      </trkpt>
      <trkpt lat="45.55042" lon="6.77767">
        <ele>1952.3</ele>
        <time>2021-03-25T09:13:09Z</time>
      </trkpt>
      <trkpt lat="45.55041" lon="6.77767">
        <ele>1952.3</ele>
        <time>2021-03-25T09:13:10Z</time>
      </trkpt>
      <trkpt lat="45.55041" lon="6.77768">
        <ele>1952.3</ele>
        <time>2021-03-25T09:13:11Z</time>
      </trkpt>
      <trkpt lat="45.5504" lon="6.77768">
        <ele>1952.3</ele>
        <time>2021-03-25T09:13:12Z</time>
      </trkpt>
      <trkpt lat="45.5504" lon="6.77769">
        <ele>1952.3</ele>
        <time>2021-03-25T09:13:13Z</time>
      </trkpt>
      <trkpt lat="45.55039" lon="6.77769">
        <ele>1952.3</ele>
        <time>2021-03-25T09:13:14Z</time>
      </trkpt>
      <trkpt lat="45.55039" lon="6.7777">
        <ele>1952.6</ele>
        <time>2021-03-25T09:13:15Z</time>
      </trkpt>
      <trkpt lat="45.55038" lon="6.7777">
        <ele>1952.6</ele>
        <time>2021-03-25T09:13:16Z</time>
      </trkpt>
      <trkpt lat="45.55038" lon="6.77771">
        <ele>1953.5</ele>
        <time>2021-03-25T09:13:17Z</time>
      </trkpt>
      <trkpt lat="45.55037" lon="6.77771">
        <ele>1953.5</ele>
        <time>2021-03-25T09:13:18Z</time>
      </trkpt>
      <trkpt lat="45.55036" lon="6.77772">
        <ele>1953.5</ele>
        <time>2021-03-25T09:13:19Z</time>
      </trkpt>
      <trkpt lat="45.55036" lon="6.77772">
        <ele>1953.8</ele>
        <time>2021-03-25T09:13:20Z</time>
      </trkpt>
      <trkpt lat="45.55035" lon="6.77772">
        <ele>1953.8</ele>
        <time>2021-03-25T09:13:21Z</time>
      </trkpt>
      <trkpt lat="45.55035" lon="6.77773">
        <ele>1953.8</ele>
        <time>2021-03-25T09:13:22Z</time>
      </trkpt>
      <trkpt lat="45.55035" lon="6.77773">
        <ele>1953.8</ele>
        <time>2021-03-25T09:13:23Z</time>
      </trkpt>
      <trkpt lat="45.55035" lon="6.77774">
        <ele>1953.8</ele>
        <time>2021-03-25T09:13:24Z</time>
      </trkpt>
      <trkpt lat="45.55035" lon="6.77774">
        <ele>1953.8</ele>
        <time>2021-03-25T09:13:25Z</time>
      </trkpt>
      <trkpt lat="45.55035" lon="6.77775">
        <ele>1953.8</ele>
        <time>2021-03-25T09:13:26Z</time>
      </trkpt>
      <trkpt lat="45.55035" lon="6.77775">
        <ele>1953.8</ele>
        <time>2021-03-25T09:13:27Z</time>
      </trkpt>
      <trkpt lat="45.55035" lon="6.77775">
        <ele>1954.8</ele>
        <time>2021-03-25T09:13:28Z</time>
      </trkpt>
      <trkpt lat="45.55035" lon="6.77776">
        <ele>1954.8</ele>
        <time>2021-03-25T09:13:29Z</time>
      </trkpt>
      <trkpt lat="45.55035" lon="6.77777">
        <ele>1954.8</ele>
        <time>2021-03-25T09:13:30Z</time>
      </trkpt>
      <trkpt lat="45.55035" lon="6.77778">
        <ele>1954.8</ele>
        <time>2021-03-25T09:13:31Z</time>
      </trkpt>
      <trkpt lat="45.55035" lon="6.77779">
        <ele>1954.8</ele>
        <time>2021-03-25T09:13:32Z</time>
      </trkpt>
      <trkpt lat="45.55035" lon="6.77779">
        <ele>1955.7</ele>
        <time>2021-03-25T09:13:33Z</time>
      </trkpt>
      <trkpt lat="45.55035" lon="6.7778">
        <ele>1955.7</ele>
        <time>2021-03-25T09:13:34Z</time>
      </trkpt>
      <trkpt lat="45.55036" lon="6.77781">
        <ele>1955.7</ele>
        <time>2021-03-25T09:13:35Z</time>
      </trkpt>
      <trkpt lat="45.55036" lon="6.77782">
        <ele>1955.7</ele>
        <time>2021-03-25T09:13:36Z</time>
      </trkpt>
      <trkpt lat="45.55036" lon="6.77782">
        <ele>1955.7</ele>
        <time>2021-03-25T09:13:37Z</time>
      </trkpt>
      <trkpt lat="45.55036" lon="6.77783">
        <ele>1955.4</ele>
        <time>2021-03-25T09:13:38Z</time>
      </trkpt>
      <trkpt lat="45.55037" lon="6.77784">
        <ele>1956.4</ele>
        <time>2021-03-25T09:13:39Z</time>
      </trkpt>
      <trkpt lat="45.55037" lon="6.77785">
        <ele>1956.4</ele>
        <time>2021-03-25T09:13:40Z</time>
      </trkpt>
      <trkpt lat="45.55037" lon="6.77786">
        <ele>1956.4</ele>
        <time>2021-03-25T09:13:41Z</time>
      </trkpt>
      <trkpt lat="45.55037" lon="6.77786">
        <ele>1956.4</ele>
        <time>2021-03-25T09:13:42Z</time>
      </trkpt>
      <trkpt lat="45.55037" lon="6.77787">
        <ele>1956.4</ele>
        <time>2021-03-25T09:13:43Z</time>
      </trkpt>
      <trkpt lat="45.55037" lon="6.77788">
        <ele>1957.4</ele>
        <time>2021-03-25T09:13:44Z</time>
      </trkpt>
      <trkpt lat="45.55038" lon="6.77789">
        <ele>1957.4</ele>
        <time>2021-03-25T09:13:45Z</time>
      </trkpt>
      <trkpt lat="45.55038" lon="6.7779">
        <ele>1957.4</ele>
        <time>2021-03-25T09:13:46Z</time>
      </trkpt>
      <trkpt lat="45.55038" lon="6.77791">
        <ele>1957.4</ele>
        <time>2021-03-25T09:13:47Z</time>
      </trkpt>
      <trkpt lat="45.55039" lon="6.77792">
        <ele>1957.4</ele>
        <time>2021-03-25T09:13:48Z</time>
      </trkpt>
      <trkpt lat="45.55039" lon="6.77793">
        <ele>1958.4</ele>
        <time>2021-03-25T09:13:49Z</time>
      </trkpt>
      <trkpt lat="45.55039" lon="6.77794">
        <ele>1958.4</ele>
        <time>2021-03-25T09:13:50Z</time>
      </trkpt>
      <trkpt lat="45.55039" lon="6.77795">
        <ele>1958.1</ele>
        <time>2021-03-25T09:13:51Z</time>
      </trkpt>
      <trkpt lat="45.55039" lon="6.77796">
        <ele>1958.1</ele>
        <time>2021-03-25T09:13:52Z</time>
      </trkpt>
      <trkpt lat="45.55039" lon="6.77797">
        <ele>1959.3</ele>
        <time>2021-03-25T09:13:53Z</time>
      </trkpt>
      <trkpt lat="45.5504" lon="6.77797">
        <ele>1959.3</ele>
        <time>2021-03-25T09:13:54Z</time>
      </trkpt>
      <trkpt lat="45.55039" lon="6.77798">
        <ele>1959.3</ele>
        <time>2021-03-25T09:13:55Z</time>
      </trkpt>
      <trkpt lat="45.55039" lon="6.77799">
        <ele>1959.3</ele>
        <time>2021-03-25T09:13:56Z</time>
      </trkpt>
      <trkpt lat="45.55039" lon="6.778">
        <ele>1959.3</ele>
        <time>2021-03-25T09:13:57Z</time>
      </trkpt>
      <trkpt lat="45.55039" lon="6.77801">
        <ele>1960.8</ele>
        <time>2021-03-25T09:13:58Z</time>
      </trkpt>
      <trkpt lat="45.55039" lon="6.77802">
        <ele>1960.8</ele>
        <time>2021-03-25T09:13:59Z</time>
      </trkpt>
      <trkpt lat="45.55039" lon="6.77804">
        <ele>1960.5</ele>
        <time>2021-03-25T09:14:00Z</time>
      </trkpt>
      <trkpt lat="45.55039" lon="6.77805">
        <ele>1960.5</ele>
        <time>2021-03-25T09:14:01Z</time>
      </trkpt>
      <trkpt lat="45.55039" lon="6.77806">
        <ele>1961.7</ele>
        <time>2021-03-25T09:14:02Z</time>
      </trkpt>
      <trkpt lat="45.5504" lon="6.77806">
        <ele>1961.7</ele>
        <time>2021-03-25T09:14:03Z</time>
      </trkpt>
      <trkpt lat="45.5504" lon="6.77807">
        <ele>1961.7</ele>
        <time>2021-03-25T09:14:04Z</time>
      </trkpt>
      <trkpt lat="45.5504" lon="6.77808">
        <ele>1961.7</ele>
        <time>2021-03-25T09:14:05Z</time>
      </trkpt>
      <trkpt lat="45.5504" lon="6.77809">
        <ele>1961.7</ele>
        <time>2021-03-25T09:14:06Z</time>
      </trkpt>
      <trkpt lat="45.5504" lon="6.7781">
        <ele>1963</ele>
        <time>2021-03-25T09:14:07Z</time>
      </trkpt>
      <trkpt lat="45.5504" lon="6.77811">
        <ele>1963</ele>
        <time>2021-03-25T09:14:08Z</time>
      </trkpt>
      <trkpt lat="45.5504" lon="6.77812">
        <ele>1963</ele>
        <time>2021-03-25T09:14:09Z</time>
      </trkpt>
      <trkpt lat="45.55039" lon="6.77812">
        <ele>1963</ele>
        <time>2021-03-25T09:14:10Z</time>
      </trkpt>
      <trkpt lat="45.55039" lon="6.77813">
        <ele>1963</ele>
        <time>2021-03-25T09:14:11Z</time>
      </trkpt>
      <trkpt lat="45.55039" lon="6.77814">
        <ele>1964.2</ele>
        <time>2021-03-25T09:14:12Z</time>
      </trkpt>
      <trkpt lat="45.55039" lon="6.77815">
        <ele>1964.5</ele>
        <time>2021-03-25T09:14:13Z</time>
      </trkpt>
      <trkpt lat="45.55039" lon="6.77816">
        <ele>1964.5</ele>
        <time>2021-03-25T09:14:14Z</time>
      </trkpt>
      <trkpt lat="45.55038" lon="6.77817">
        <ele>1964.5</ele>
        <time>2021-03-25T09:14:15Z</time>
      </trkpt>
      <trkpt lat="45.55038" lon="6.77817">
        <ele>1964.5</ele>
        <time>2021-03-25T09:14:16Z</time>
      </trkpt>
      <trkpt lat="45.55038" lon="6.77818">
        <ele>1964.5</ele>
        <time>2021-03-25T09:14:17Z</time>
      </trkpt>
      <trkpt lat="45.55037" lon="6.77818">
        <ele>1965.6</ele>
        <time>2021-03-25T09:14:18Z</time>
      </trkpt>
      <trkpt lat="45.55037" lon="6.77819">
        <ele>1965.6</ele>
        <time>2021-03-25T09:14:19Z</time>
      </trkpt>
      <trkpt lat="45.55036" lon="6.7782">
        <ele>1965.6</ele>
        <time>2021-03-25T09:14:20Z</time>
      </trkpt>
      <trkpt lat="45.55036" lon="6.7782">
        <ele>1965.9</ele>
        <time>2021-03-25T09:14:21Z</time>
      </trkpt>
      <trkpt lat="45.55035" lon="6.77821">
        <ele>1965.9</ele>
        <time>2021-03-25T09:14:22Z</time>
      </trkpt>
      <trkpt lat="45.55035" lon="6.77821">
        <ele>1965.9</ele>
        <time>2021-03-25T09:14:23Z</time>
      </trkpt>
      <trkpt lat="45.55034" lon="6.77822">
        <ele>1965.9</ele>
        <time>2021-03-25T09:14:24Z</time>
      </trkpt>
      <trkpt lat="45.55033" lon="6.77823">
        <ele>1967</ele>
        <time>2021-03-25T09:14:25Z</time>
      </trkpt>
      <trkpt lat="45.55033" lon="6.77823">
        <ele>1967.3</ele>
        <time>2021-03-25T09:14:26Z</time>
      </trkpt>
      <trkpt lat="45.55032" lon="6.77824">
        <ele>1967.3</ele>
        <time>2021-03-25T09:14:27Z</time>
      </trkpt>
      <trkpt lat="45.55031" lon="6.77825">
        <ele>1967.3</ele>
        <time>2021-03-25T09:14:28Z</time>
      </trkpt>
      <trkpt lat="45.55031" lon="6.77825">
        <ele>1967.3</ele>
        <time>2021-03-25T09:14:29Z</time>
      </trkpt>
      <trkpt lat="45.5503" lon="6.77826">
        <ele>1967.3</ele>
        <time>2021-03-25T09:14:30Z</time>
      </trkpt>
      <trkpt lat="45.5503" lon="6.77826">
        <ele>1967.6</ele>
        <time>2021-03-25T09:14:31Z</time>
      </trkpt>
      <trkpt lat="45.55029" lon="6.77827">
        <ele>1968.7</ele>
        <time>2021-03-25T09:14:32Z</time>
      </trkpt>
      <trkpt lat="45.55029" lon="6.77827">
        <ele>1968.7</ele>
        <time>2021-03-25T09:14:33Z</time>
      </trkpt>
      <trkpt lat="45.55028" lon="6.77828">
        <ele>1968.7</ele>
        <time>2021-03-25T09:14:34Z</time>
      </trkpt>
      <trkpt lat="45.55027" lon="6.77828">
        <ele>1968.7</ele>
        <time>2021-03-25T09:14:35Z</time>
      </trkpt>
      <trkpt lat="45.55027" lon="6.77829">
        <ele>1969</ele>
        <time>2021-03-25T09:14:36Z</time>
      </trkpt>
      <trkpt lat="45.55027" lon="6.77829">
        <ele>1969</ele>
        <time>2021-03-25T09:14:37Z</time>
      </trkpt>
      <trkpt lat="45.55026" lon="6.7783">
        <ele>1969</ele>
        <time>2021-03-25T09:14:38Z</time>
      </trkpt>
      <trkpt lat="45.55026" lon="6.77831">
        <ele>1969</ele>
        <time>2021-03-25T09:14:39Z</time>
      </trkpt>
      <trkpt lat="45.55026" lon="6.77831">
        <ele>1970.1</ele>
        <time>2021-03-25T09:14:40Z</time>
      </trkpt>
      <trkpt lat="45.55026" lon="6.77832">
        <ele>1970.1</ele>
        <time>2021-03-25T09:14:41Z</time>
      </trkpt>
      <trkpt lat="45.55027" lon="6.77833">
        <ele>1970.1</ele>
        <time>2021-03-25T09:14:42Z</time>
      </trkpt>
      <trkpt lat="45.55027" lon="6.77834">
        <ele>1970.1</ele>
        <time>2021-03-25T09:14:43Z</time>
      </trkpt>
      <trkpt lat="45.55028" lon="6.77835">
        <ele>1969.7</ele>
        <time>2021-03-25T09:14:44Z</time>
      </trkpt>
      <trkpt lat="45.55028" lon="6.77836">
        <ele>1970.8</ele>
        <time>2021-03-25T09:14:45Z</time>
      </trkpt>
      <trkpt lat="45.55028" lon="6.77836">
        <ele>1970.8</ele>
        <time>2021-03-25T09:14:46Z</time>
      </trkpt>
      <trkpt lat="45.55029" lon="6.77837">
        <ele>1970.8</ele>
        <time>2021-03-25T09:14:47Z</time>
      </trkpt>
      <trkpt lat="45.55029" lon="6.77838">
        <ele>1970.8</ele>
        <time>2021-03-25T09:14:48Z</time>
      </trkpt>
      <trkpt lat="45.55029" lon="6.77839">
        <ele>1970.8</ele>
        <time>2021-03-25T09:14:49Z</time>
      </trkpt>
      <trkpt lat="45.55029" lon="6.77839">
        <ele>1971.9</ele>
        <time>2021-03-25T09:14:50Z</time>
      </trkpt>
      <trkpt lat="45.5503" lon="6.7784">
        <ele>1971.9</ele>
        <time>2021-03-25T09:14:51Z</time>
      </trkpt>
      <trkpt lat="45.5503" lon="6.77841">
        <ele>1971.9</ele>
        <time>2021-03-25T09:14:52Z</time>
      </trkpt>
      <trkpt lat="45.5503" lon="6.77842">
        <ele>1971.5</ele>
        <time>2021-03-25T09:14:53Z</time>
      </trkpt>
      <trkpt lat="45.5503" lon="6.77842">
        <ele>1971.5</ele>
        <time>2021-03-25T09:14:54Z</time>
      </trkpt>
      <trkpt lat="45.5503" lon="6.77843">
        <ele>1971.5</ele>
        <time>2021-03-25T09:14:55Z</time>
      </trkpt>
      <trkpt lat="45.55031" lon="6.77844">
        <ele>1972.7</ele>
        <time>2021-03-25T09:14:56Z</time>
      </trkpt>
      <trkpt lat="45.55031" lon="6.77844">
        <ele>1972.7</ele>
        <time>2021-03-25T09:14:57Z</time>
      </trkpt>
      <trkpt lat="45.55031" lon="6.77845">
        <ele>1972.7</ele>
        <time>2021-03-25T09:14:58Z</time>
      </trkpt>
      <trkpt lat="45.55031" lon="6.77846">
        <ele>1972.7</ele>
        <time>2021-03-25T09:14:59Z</time>
      </trkpt>
      <trkpt lat="45.55031" lon="6.77847">
        <ele>1972.7</ele>
        <time>2021-03-25T09:15:00Z</time>
      </trkpt>
      <trkpt lat="45.55032" lon="6.77847">
        <ele>1972.7</ele>
        <time>2021-03-25T09:15:01Z</time>
      </trkpt>
      <trkpt lat="45.55032" lon="6.77848">
        <ele>1973.8</ele>
        <time>2021-03-25T09:15:02Z</time>
      </trkpt>
      <trkpt lat="45.55032" lon="6.77849">
        <ele>1973.8</ele>
        <time>2021-03-25T09:15:03Z</time>
      </trkpt>
      <trkpt lat="45.55032" lon="6.7785">
        <ele>1973.8</ele>
        <time>2021-03-25T09:15:04Z</time>
      </trkpt>
      <trkpt lat="45.55032" lon="6.77851">
        <ele>1973.8</ele>
        <time>2021-03-25T09:15:05Z</time>
      </trkpt>
      <trkpt lat="45.55033" lon="6.77852">
        <ele>1973.8</ele>
        <time>2021-03-25T09:15:06Z</time>
      </trkpt>
      <trkpt lat="45.55033" lon="6.77852">
        <ele>1974.9</ele>
        <time>2021-03-25T09:15:07Z</time>
      </trkpt>
      <trkpt lat="45.55033" lon="6.77853">
        <ele>1974.9</ele>
        <time>2021-03-25T09:15:08Z</time>
      </trkpt>
      <trkpt lat="45.55033" lon="6.77854">
        <ele>1974.9</ele>
        <time>2021-03-25T09:15:09Z</time>
      </trkpt>
      <trkpt lat="45.55033" lon="6.77854">
        <ele>1974.9</ele>
        <time>2021-03-25T09:15:10Z</time>
      </trkpt>
      <trkpt lat="45.55032" lon="6.77855">
        <ele>1974.9</ele>
        <time>2021-03-25T09:15:11Z</time>
      </trkpt>
      <trkpt lat="45.55032" lon="6.77856">
        <ele>1974.9</ele>
        <time>2021-03-25T09:15:12Z</time>
      </trkpt>
      <trkpt lat="45.55032" lon="6.77856">
        <ele>1974.9</ele>
        <time>2021-03-25T09:15:13Z</time>
      </trkpt>
      <trkpt lat="45.55031" lon="6.77857">
        <ele>1976.8</ele>
        <time>2021-03-25T09:15:14Z</time>
      </trkpt>
      <trkpt lat="45.55031" lon="6.77858">
        <ele>1976.8</ele>
        <time>2021-03-25T09:15:15Z</time>
      </trkpt>
      <trkpt lat="45.5503" lon="6.77858">
        <ele>1977.1</ele>
        <time>2021-03-25T09:15:16Z</time>
      </trkpt>
      <trkpt lat="45.55029" lon="6.77859">
        <ele>1977.1</ele>
        <time>2021-03-25T09:15:17Z</time>
      </trkpt>
      <trkpt lat="45.55029" lon="6.77859">
        <ele>1977.1</ele>
        <time>2021-03-25T09:15:18Z</time>
      </trkpt>
      <trkpt lat="45.55028" lon="6.7786">
        <ele>1977.1</ele>
        <time>2021-03-25T09:15:19Z</time>
      </trkpt>
      <trkpt lat="45.55028" lon="6.7786">
        <ele>1977.1</ele>
        <time>2021-03-25T09:15:20Z</time>
      </trkpt>
      <trkpt lat="45.55027" lon="6.77861">
        <ele>1977.1</ele>
        <time>2021-03-25T09:15:21Z</time>
      </trkpt>
      <trkpt lat="45.55027" lon="6.77861">
        <ele>1978.4</ele>
        <time>2021-03-25T09:15:22Z</time>
      </trkpt>
      <trkpt lat="45.55026" lon="6.77862">
        <ele>1978.4</ele>
        <time>2021-03-25T09:15:23Z</time>
      </trkpt>
      <trkpt lat="45.55026" lon="6.77862">
        <ele>1978.4</ele>
        <time>2021-03-25T09:15:24Z</time>
      </trkpt>
      <trkpt lat="45.55026" lon="6.77863">
        <ele>1978.4</ele>
        <time>2021-03-25T09:15:25Z</time>
      </trkpt>
      <trkpt lat="45.55025" lon="6.77863">
        <ele>1978.4</ele>
        <time>2021-03-25T09:15:26Z</time>
      </trkpt>
      <trkpt lat="45.55025" lon="6.77864">
        <ele>1978.4</ele>
        <time>2021-03-25T09:15:27Z</time>
      </trkpt>
      <trkpt lat="45.55024" lon="6.77864">
        <ele>1978.4</ele>
        <time>2021-03-25T09:15:28Z</time>
      </trkpt>
      <trkpt lat="45.55024" lon="6.77865">
        <ele>1978.7</ele>
        <time>2021-03-25T09:15:29Z</time>
      </trkpt>
      <trkpt lat="45.55023" lon="6.77865">
        <ele>1979.7</ele>
        <time>2021-03-25T09:15:30Z</time>
      </trkpt>
      <trkpt lat="45.55023" lon="6.77866">
        <ele>1979.7</ele>
        <time>2021-03-25T09:15:31Z</time>
      </trkpt>
      <trkpt lat="45.55022" lon="6.77867">
        <ele>1979.7</ele>
        <time>2021-03-25T09:15:32Z</time>
      </trkpt>
      <trkpt lat="45.55022" lon="6.77867">
        <ele>1979.7</ele>
        <time>2021-03-25T09:15:33Z</time>
      </trkpt>
      <trkpt lat="45.55021" lon="6.77868">
        <ele>1979.7</ele>
        <time>2021-03-25T09:15:34Z</time>
      </trkpt>
      <trkpt lat="45.55021" lon="6.77868">
        <ele>1979.9</ele>
        <time>2021-03-25T09:15:35Z</time>
      </trkpt>
      <trkpt lat="45.5502" lon="6.77869">
        <ele>1979.9</ele>
        <time>2021-03-25T09:15:36Z</time>
      </trkpt>
      <trkpt lat="45.5502" lon="6.7787">
        <ele>1980.9</ele>
        <time>2021-03-25T09:15:37Z</time>
      </trkpt>
      <trkpt lat="45.5502" lon="6.77871">
        <ele>1980.9</ele>
        <time>2021-03-25T09:15:38Z</time>
      </trkpt>
      <trkpt lat="45.55019" lon="6.77871">
        <ele>1980.9</ele>
        <time>2021-03-25T09:15:39Z</time>
      </trkpt>
      <trkpt lat="45.55019" lon="6.77872">
        <ele>1980.9</ele>
        <time>2021-03-25T09:15:40Z</time>
      </trkpt>
      <trkpt lat="45.55018" lon="6.77872">
        <ele>1980.9</ele>
        <time>2021-03-25T09:15:41Z</time>
      </trkpt>
      <trkpt lat="45.55018" lon="6.77873">
        <ele>1981.1</ele>
        <time>2021-03-25T09:15:42Z</time>
      </trkpt>
      <trkpt lat="45.55018" lon="6.77874">
        <ele>1982.1</ele>
        <time>2021-03-25T09:15:43Z</time>
      </trkpt>
      <trkpt lat="45.55018" lon="6.77875">
        <ele>1982.1</ele>
        <time>2021-03-25T09:15:44Z</time>
      </trkpt>
      <trkpt lat="45.55018" lon="6.77876">
        <ele>1981.9</ele>
        <time>2021-03-25T09:15:45Z</time>
      </trkpt>
      <trkpt lat="45.55018" lon="6.77877">
        <ele>1981.9</ele>
        <time>2021-03-25T09:15:46Z</time>
      </trkpt>
      <trkpt lat="45.55019" lon="6.77878">
        <ele>1981.9</ele>
        <time>2021-03-25T09:15:47Z</time>
      </trkpt>
      <trkpt lat="45.55019" lon="6.77879">
        <ele>1982.9</ele>
        <time>2021-03-25T09:15:48Z</time>
      </trkpt>
      <trkpt lat="45.5502" lon="6.77879">
        <ele>1982.9</ele>
        <time>2021-03-25T09:15:49Z</time>
      </trkpt>
      <trkpt lat="45.5502" lon="6.7788">
        <ele>1982.9</ele>
        <time>2021-03-25T09:15:50Z</time>
      </trkpt>
      <trkpt lat="45.5502" lon="6.77881">
        <ele>1982.9</ele>
        <time>2021-03-25T09:15:51Z</time>
      </trkpt>
      <trkpt lat="45.5502" lon="6.77882">
        <ele>1982.9</ele>
        <time>2021-03-25T09:15:52Z</time>
      </trkpt>
      <trkpt lat="45.5502" lon="6.77883">
        <ele>1984</ele>
        <time>2021-03-25T09:15:53Z</time>
      </trkpt>
      <trkpt lat="45.55021" lon="6.77884">
        <ele>1984</ele>
        <time>2021-03-25T09:15:54Z</time>
      </trkpt>
      <trkpt lat="45.55021" lon="6.77884">
        <ele>1984</ele>
        <time>2021-03-25T09:15:55Z</time>
      </trkpt>
      <trkpt lat="45.55022" lon="6.77885">
        <ele>1983.9</ele>
        <time>2021-03-25T09:15:56Z</time>
      </trkpt>
      <trkpt lat="45.55022" lon="6.77886">
        <ele>1983.9</ele>
        <time>2021-03-25T09:15:57Z</time>
      </trkpt>
      <trkpt lat="45.55022" lon="6.77887">
        <ele>1985</ele>
        <time>2021-03-25T09:15:58Z</time>
      </trkpt>
      <trkpt lat="45.55023" lon="6.77888">
        <ele>1985</ele>
        <time>2021-03-25T09:15:59Z</time>
      </trkpt>
      <trkpt lat="45.55023" lon="6.77888">
        <ele>1985</ele>
        <time>2021-03-25T09:16:00Z</time>
      </trkpt>
      <trkpt lat="45.55024" lon="6.77889">
        <ele>1985</ele>
        <time>2021-03-25T09:16:01Z</time>
      </trkpt>
      <trkpt lat="45.55024" lon="6.7789">
        <ele>1985</ele>
        <time>2021-03-25T09:16:02Z</time>
      </trkpt>
      <trkpt lat="45.55024" lon="6.77891">
        <ele>1985.9</ele>
        <time>2021-03-25T09:16:03Z</time>
      </trkpt>
      <trkpt lat="45.55025" lon="6.77892">
        <ele>1985.9</ele>
        <time>2021-03-25T09:16:04Z</time>
      </trkpt>
      <trkpt lat="45.55025" lon="6.77893">
        <ele>1985.9</ele>
        <time>2021-03-25T09:16:05Z</time>
      </trkpt>
      <trkpt lat="45.55025" lon="6.77893">
        <ele>1985.9</ele>
        <time>2021-03-25T09:16:06Z</time>
      </trkpt>
      <trkpt lat="45.55025" lon="6.77894">
        <ele>1985.9</ele>
        <time>2021-03-25T09:16:07Z</time>
      </trkpt>
      <trkpt lat="45.55026" lon="6.77895">
        <ele>1987</ele>
        <time>2021-03-25T09:16:08Z</time>
      </trkpt>
      <trkpt lat="45.55026" lon="6.77896">
        <ele>1987</ele>
        <time>2021-03-25T09:16:09Z</time>
      </trkpt>
      <trkpt lat="45.55027" lon="6.77897">
        <ele>1987</ele>
        <time>2021-03-25T09:16:10Z</time>
      </trkpt>
      <trkpt lat="45.55027" lon="6.77898">
        <ele>1987</ele>
        <time>2021-03-25T09:16:11Z</time>
      </trkpt>
      <trkpt lat="45.55027" lon="6.77899">
        <ele>1986.8</ele>
        <time>2021-03-25T09:16:12Z</time>
      </trkpt>
      <trkpt lat="45.55028" lon="6.779">
        <ele>1987.9</ele>
        <time>2021-03-25T09:16:13Z</time>
      </trkpt>
      <trkpt lat="45.55028" lon="6.77901">
        <ele>1987.9</ele>
        <time>2021-03-25T09:16:14Z</time>
      </trkpt>
      <trkpt lat="45.55028" lon="6.77901">
        <ele>1987.9</ele>
        <time>2021-03-25T09:16:15Z</time>
      </trkpt>
      <trkpt lat="45.55028" lon="6.77902">
        <ele>1987.9</ele>
        <time>2021-03-25T09:16:16Z</time>
      </trkpt>
      <trkpt lat="45.55029" lon="6.77903">
        <ele>1987.9</ele>
        <time>2021-03-25T09:16:17Z</time>
      </trkpt>
      <trkpt lat="45.55029" lon="6.77904">
        <ele>1988.8</ele>
        <time>2021-03-25T09:16:18Z</time>
      </trkpt>
      <trkpt lat="45.55029" lon="6.77905">
        <ele>1988.8</ele>
        <time>2021-03-25T09:16:19Z</time>
      </trkpt>
      <trkpt lat="45.55029" lon="6.77906">
        <ele>1988.8</ele>
        <time>2021-03-25T09:16:20Z</time>
      </trkpt>
      <trkpt lat="45.55029" lon="6.77907">
        <ele>1988.8</ele>
        <time>2021-03-25T09:16:21Z</time>
      </trkpt>
      <trkpt lat="45.55029" lon="6.77908">
        <ele>1988.8</ele>
        <time>2021-03-25T09:16:22Z</time>
      </trkpt>
      <trkpt lat="45.55029" lon="6.77909">
        <ele>1989.7</ele>
        <time>2021-03-25T09:16:23Z</time>
      </trkpt>
      <trkpt lat="45.5503" lon="6.7791">
        <ele>1989.7</ele>
        <time>2021-03-25T09:16:24Z</time>
      </trkpt>
      <trkpt lat="45.5503" lon="6.77911">
        <ele>1989.7</ele>
        <time>2021-03-25T09:16:25Z</time>
      </trkpt>
      <trkpt lat="45.5503" lon="6.77911">
        <ele>1989.7</ele>
        <time>2021-03-25T09:16:26Z</time>
      </trkpt>
      <trkpt lat="45.5503" lon="6.77912">
        <ele>1990.4</ele>
        <time>2021-03-25T09:16:27Z</time>
      </trkpt>
      <trkpt lat="45.55031" lon="6.77913">
        <ele>1990.4</ele>
        <time>2021-03-25T09:16:28Z</time>
      </trkpt>
      <trkpt lat="45.55031" lon="6.77914">
        <ele>1990.4</ele>
        <time>2021-03-25T09:16:29Z</time>
      </trkpt>
      <trkpt lat="45.55031" lon="6.77915">
        <ele>1990.4</ele>
        <time>2021-03-25T09:16:30Z</time>
      </trkpt>
      <trkpt lat="45.55031" lon="6.77915">
        <ele>1990.4</ele>
        <time>2021-03-25T09:16:31Z</time>
      </trkpt>
      <trkpt lat="45.55032" lon="6.77916">
        <ele>1990.4</ele>
        <time>2021-03-25T09:16:32Z</time>
      </trkpt>
      <trkpt lat="45.55032" lon="6.77917">
        <ele>1991.2</ele>
        <time>2021-03-25T09:16:33Z</time>
      </trkpt>
      <trkpt lat="45.55032" lon="6.77918">
        <ele>1991.2</ele>
        <time>2021-03-25T09:16:34Z</time>
      </trkpt>
      <trkpt lat="45.55033" lon="6.77919">
        <ele>1991.2</ele>
        <time>2021-03-25T09:16:35Z</time>
      </trkpt>
      <trkpt lat="45.55033" lon="6.77919">
        <ele>1991.2</ele>
        <time>2021-03-25T09:16:36Z</time>
      </trkpt>
      <trkpt lat="45.55033" lon="6.7792">
        <ele>1991.2</ele>
        <time>2021-03-25T09:16:37Z</time>
      </trkpt>
      <trkpt lat="45.55033" lon="6.77921">
        <ele>1992.1</ele>
        <time>2021-03-25T09:16:38Z</time>
      </trkpt>
      <trkpt lat="45.55033" lon="6.77922">
        <ele>1992.1</ele>
        <time>2021-03-25T09:16:39Z</time>
      </trkpt>
      <trkpt lat="45.55033" lon="6.77923">
        <ele>1991.9</ele>
        <time>2021-03-25T09:16:40Z</time>
      </trkpt>
      <trkpt lat="45.55034" lon="6.77924">
        <ele>1991.9</ele>
        <time>2021-03-25T09:16:41Z</time>
      </trkpt>
      <trkpt lat="45.55034" lon="6.77924">
        <ele>1991.9</ele>
        <time>2021-03-25T09:16:42Z</time>
      </trkpt>
      <trkpt lat="45.55034" lon="6.77925">
        <ele>1991.9</ele>
        <time>2021-03-25T09:16:43Z</time>
      </trkpt>
      <trkpt lat="45.55034" lon="6.77926">
        <ele>1992.8</ele>
        <time>2021-03-25T09:16:44Z</time>
      </trkpt>
      <trkpt lat="45.55034" lon="6.77927">
        <ele>1992.8</ele>
        <time>2021-03-25T09:16:45Z</time>
      </trkpt>
      <trkpt lat="45.55035" lon="6.77928">
        <ele>1992.8</ele>
        <time>2021-03-25T09:16:46Z</time>
      </trkpt>
      <trkpt lat="45.55035" lon="6.77928">
        <ele>1992.8</ele>
        <time>2021-03-25T09:16:47Z</time>
      </trkpt>
      <trkpt lat="45.55035" lon="6.77929">
        <ele>1992.8</ele>
        <time>2021-03-25T09:16:48Z</time>
      </trkpt>
      <trkpt lat="45.55036" lon="6.7793">
        <ele>1993.7</ele>
        <time>2021-03-25T09:16:49Z</time>
      </trkpt>
      <trkpt lat="45.55036" lon="6.77931">
        <ele>1993.7</ele>
        <time>2021-03-25T09:16:50Z</time>
      </trkpt>
      <trkpt lat="45.55036" lon="6.77931">
        <ele>1993.5</ele>
        <time>2021-03-25T09:16:51Z</time>
      </trkpt>
      <trkpt lat="45.55037" lon="6.77932">
        <ele>1993.5</ele>
        <time>2021-03-25T09:16:52Z</time>
      </trkpt>
      <trkpt lat="45.55037" lon="6.77933">
        <ele>1993.5</ele>
        <time>2021-03-25T09:16:53Z</time>
      </trkpt>
      <trkpt lat="45.55037" lon="6.77934">
        <ele>1994.5</ele>
        <time>2021-03-25T09:16:54Z</time>
      </trkpt>
      <trkpt lat="45.55038" lon="6.77935">
        <ele>1994.5</ele>
        <time>2021-03-25T09:16:55Z</time>
      </trkpt>
      <trkpt lat="45.55038" lon="6.77936">
        <ele>1994.5</ele>
        <time>2021-03-25T09:16:56Z</time>
      </trkpt>
      <trkpt lat="45.55039" lon="6.77937">
        <ele>1994.5</ele>
        <time>2021-03-25T09:16:57Z</time>
      </trkpt>
      <trkpt lat="45.55039" lon="6.77937">
        <ele>1994.5</ele>
        <time>2021-03-25T09:16:58Z</time>
      </trkpt>
      <trkpt lat="45.55039" lon="6.77938">
        <ele>1995.3</ele>
        <time>2021-03-25T09:16:59Z</time>
      </trkpt>
      <trkpt lat="45.5504" lon="6.77939">
        <ele>1995.3</ele>
        <time>2021-03-25T09:17:00Z</time>
      </trkpt>
      <trkpt lat="45.5504" lon="6.7794">
        <ele>1995.3</ele>
        <time>2021-03-25T09:17:01Z</time>
      </trkpt>
      <trkpt lat="45.5504" lon="6.77941">
        <ele>1995.3</ele>
        <time>2021-03-25T09:17:02Z</time>
      </trkpt>
      <trkpt lat="45.5504" lon="6.77942">
        <ele>1995.3</ele>
        <time>2021-03-25T09:17:03Z</time>
      </trkpt>
      <trkpt lat="45.5504" lon="6.77943">
        <ele>1996.4</ele>
        <time>2021-03-25T09:17:04Z</time>
      </trkpt>
      <trkpt lat="45.55041" lon="6.77944">
        <ele>1996.4</ele>
        <time>2021-03-25T09:17:05Z</time>
      </trkpt>
      <trkpt lat="45.55041" lon="6.77945">
        <ele>1996.4</ele>
        <time>2021-03-25T09:17:06Z</time>
      </trkpt>
      <trkpt lat="45.55041" lon="6.77945">
        <ele>1996.4</ele>
        <time>2021-03-25T09:17:07Z</time>
      </trkpt>
      <trkpt lat="45.55041" lon="6.77946">
        <ele>1996.4</ele>
        <time>2021-03-25T09:17:08Z</time>
      </trkpt>
      <trkpt lat="45.55042" lon="6.77947">
        <ele>1997.4</ele>
        <time>2021-03-25T09:17:09Z</time>
      </trkpt>
      <trkpt lat="45.55042" lon="6.77948">
        <ele>1997.4</ele>
        <time>2021-03-25T09:17:10Z</time>
      </trkpt>
      <trkpt lat="45.55042" lon="6.77949">
        <ele>1997.4</ele>
        <time>2021-03-25T09:17:11Z</time>
      </trkpt>
      <trkpt lat="45.55042" lon="6.7795">
        <ele>1997.4</ele>
        <time>2021-03-25T09:17:12Z</time>
      </trkpt>
      <trkpt lat="45.55042" lon="6.77951">
        <ele>1997.2</ele>
        <time>2021-03-25T09:17:13Z</time>
      </trkpt>
      <trkpt lat="45.55043" lon="6.77952">
        <ele>1998.2</ele>
        <time>2021-03-25T09:17:14Z</time>
      </trkpt>
      <trkpt lat="45.55043" lon="6.77953">
        <ele>1998.2</ele>
        <time>2021-03-25T09:17:15Z</time>
      </trkpt>
      <trkpt lat="45.55043" lon="6.77954">
        <ele>1998.2</ele>
        <time>2021-03-25T09:17:16Z</time>
      </trkpt>
      <trkpt lat="45.55044" lon="6.77955">
        <ele>1998.2</ele>
        <time>2021-03-25T09:17:17Z</time>
      </trkpt>
      <trkpt lat="45.55044" lon="6.77955">
        <ele>1999</ele>
        <time>2021-03-25T09:17:18Z</time>
      </trkpt>
      <trkpt lat="45.55045" lon="6.77956">
        <ele>1999</ele>
        <time>2021-03-25T09:17:19Z</time>
      </trkpt>
      <trkpt lat="45.55045" lon="6.77957">
        <ele>1999</ele>
        <time>2021-03-25T09:17:20Z</time>
      </trkpt>
      <trkpt lat="45.55045" lon="6.77957">
        <ele>1998.8</ele>
        <time>2021-03-25T09:17:21Z</time>
      </trkpt>
      <trkpt lat="45.55046" lon="6.77958">
        <ele>1998.8</ele>
        <time>2021-03-25T09:17:22Z</time>
      </trkpt>
      <trkpt lat="45.55046" lon="6.77959">
        <ele>1998.8</ele>
        <time>2021-03-25T09:17:23Z</time>
      </trkpt>
      <trkpt lat="45.55047" lon="6.77959">
        <ele>1998.8</ele>
        <time>2021-03-25T09:17:24Z</time>
      </trkpt>
      <trkpt lat="45.55047" lon="6.7796">
        <ele>1999.7</ele>
        <time>2021-03-25T09:17:25Z</time>
      </trkpt>
      <trkpt lat="45.55048" lon="6.77961">
        <ele>1999.7</ele>
        <time>2021-03-25T09:17:26Z</time>
      </trkpt>
      <trkpt lat="45.55049" lon="6.77961">
        <ele>1999.4</ele>
        <time>2021-03-25T09:17:27Z</time>
      </trkpt>
      <trkpt lat="45.55049" lon="6.77962">
        <ele>1999.4</ele>
        <time>2021-03-25T09:17:28Z</time>
      </trkpt>
      <trkpt lat="45.55049" lon="6.77963">
        <ele>1999.4</ele>
        <time>2021-03-25T09:17:29Z</time>
      </trkpt>
      <trkpt lat="45.5505" lon="6.77964">
        <ele>2000.3</ele>
        <time>2021-03-25T09:17:30Z</time>
      </trkpt>
      <trkpt lat="45.5505" lon="6.77965">
        <ele>2000.3</ele>
        <time>2021-03-25T09:17:31Z</time>
      </trkpt>
      <trkpt lat="45.55051" lon="6.77966">
        <ele>2000.3</ele>
        <time>2021-03-25T09:17:32Z</time>
      </trkpt>
      <trkpt lat="45.55051" lon="6.77967">
        <ele>2000.3</ele>
        <time>2021-03-25T09:17:33Z</time>
      </trkpt>
      <trkpt lat="45.55051" lon="6.77967">
        <ele>2000</ele>
        <time>2021-03-25T09:17:34Z</time>
      </trkpt>
      <trkpt lat="45.55052" lon="6.77968">
        <ele>2000.9</ele>
        <time>2021-03-25T09:17:35Z</time>
      </trkpt>
      <trkpt lat="45.55052" lon="6.77969">
        <ele>2000.9</ele>
        <time>2021-03-25T09:17:36Z</time>
      </trkpt>
      <trkpt lat="45.55052" lon="6.7797">
        <ele>2000.9</ele>
        <time>2021-03-25T09:17:37Z</time>
      </trkpt>
      <trkpt lat="45.55052" lon="6.7797">
        <ele>2000.9</ele>
        <time>2021-03-25T09:17:38Z</time>
      </trkpt>
      <trkpt lat="45.55053" lon="6.77971">
        <ele>2000.9</ele>
        <time>2021-03-25T09:17:39Z</time>
      </trkpt>
      <trkpt lat="45.55053" lon="6.77972">
        <ele>2000.9</ele>
        <time>2021-03-25T09:17:40Z</time>
      </trkpt>
      <trkpt lat="45.55053" lon="6.77972">
        <ele>2000.9</ele>
        <time>2021-03-25T09:17:41Z</time>
      </trkpt>
      <trkpt lat="45.55054" lon="6.77973">
        <ele>2001.7</ele>
        <time>2021-03-25T09:17:42Z</time>
      </trkpt>
      <trkpt lat="45.55054" lon="6.77974">
        <ele>2001.7</ele>
        <time>2021-03-25T09:17:43Z</time>
      </trkpt>
      <trkpt lat="45.55054" lon="6.77974">
        <ele>2001.7</ele>
        <time>2021-03-25T09:17:44Z</time>
      </trkpt>
      <trkpt lat="45.55055" lon="6.77975">
        <ele>2001.5</ele>
        <time>2021-03-25T09:17:45Z</time>
      </trkpt>
      <trkpt lat="45.55055" lon="6.77975">
        <ele>2001.5</ele>
        <time>2021-03-25T09:17:46Z</time>
      </trkpt>
      <trkpt lat="45.55055" lon="6.77976">
        <ele>2001.5</ele>
        <time>2021-03-25T09:17:47Z</time>
      </trkpt>
      <trkpt lat="45.55056" lon="6.77976">
        <ele>2001.5</ele>
        <time>2021-03-25T09:17:48Z</time>
      </trkpt>
      <trkpt lat="45.55056" lon="6.77977">
        <ele>2002.4</ele>
        <time>2021-03-25T09:17:49Z</time>
      </trkpt>
      <trkpt lat="45.55057" lon="6.77978">
        <ele>2002.4</ele>
        <time>2021-03-25T09:17:50Z</time>
      </trkpt>
      <trkpt lat="45.55057" lon="6.77979">
        <ele>2002.4</ele>
        <time>2021-03-25T09:17:51Z</time>
      </trkpt>
      <trkpt lat="45.55057" lon="6.77979">
        <ele>2002.1</ele>
        <time>2021-03-25T09:17:52Z</time>
      </trkpt>
      <trkpt lat="45.55058" lon="6.77979">
        <ele>2002.1</ele>
        <time>2021-03-25T09:17:53Z</time>
      </trkpt>
      <trkpt lat="45.55058" lon="6.7798">
        <ele>2002.1</ele>
        <time>2021-03-25T09:17:54Z</time>
      </trkpt>
      <trkpt lat="45.55059" lon="6.7798">
        <ele>2002.1</ele>
        <time>2021-03-25T09:17:55Z</time>
      </trkpt>
      <trkpt lat="45.55059" lon="6.77981">
        <ele>2003</ele>
        <time>2021-03-25T09:17:56Z</time>
      </trkpt>
      <trkpt lat="45.55059" lon="6.77982">
        <ele>2003</ele>
        <time>2021-03-25T09:17:57Z</time>
      </trkpt>
      <trkpt lat="45.5506" lon="6.77983">
        <ele>2003</ele>
        <time>2021-03-25T09:17:58Z</time>
      </trkpt>
      <trkpt lat="45.5506" lon="6.77983">
        <ele>2003</ele>
        <time>2021-03-25T09:17:59Z</time>
      </trkpt>
      <trkpt lat="45.5506" lon="6.77984">
        <ele>2002.8</ele>
        <time>2021-03-25T09:18:00Z</time>
      </trkpt>
      <trkpt lat="45.55061" lon="6.77985">
        <ele>2002.8</ele>
        <time>2021-03-25T09:18:01Z</time>
      </trkpt>
      <trkpt lat="45.55061" lon="6.77986">
        <ele>2003.7</ele>
        <time>2021-03-25T09:18:02Z</time>
      </trkpt>
      <trkpt lat="45.55061" lon="6.77987">
        <ele>2003.7</ele>
        <time>2021-03-25T09:18:03Z</time>
      </trkpt>
      <trkpt lat="45.55061" lon="6.77988">
        <ele>2003.7</ele>
        <time>2021-03-25T09:18:04Z</time>
      </trkpt>
      <trkpt lat="45.55061" lon="6.7799">
        <ele>2004.5</ele>
        <time>2021-03-25T09:18:05Z</time>
      </trkpt>
      <trkpt lat="45.55061" lon="6.77991">
        <ele>2004.5</ele>
        <time>2021-03-25T09:18:06Z</time>
      </trkpt>
      <trkpt lat="45.55061" lon="6.77992">
        <ele>2004.5</ele>
        <time>2021-03-25T09:18:07Z</time>
      </trkpt>
      <trkpt lat="45.55061" lon="6.77994">
        <ele>2004.5</ele>
        <time>2021-03-25T09:18:08Z</time>
      </trkpt>
      <trkpt lat="45.55061" lon="6.77996">
        <ele>2005.4</ele>
        <time>2021-03-25T09:18:09Z</time>
      </trkpt>
      <trkpt lat="45.55062" lon="6.77996">
        <ele>2005.4</ele>
        <time>2021-03-25T09:18:10Z</time>
      </trkpt>
      <trkpt lat="45.55062" lon="6.77997">
        <ele>2005.4</ele>
        <time>2021-03-25T09:18:11Z</time>
      </trkpt>
      <trkpt lat="45.55062" lon="6.77998">
        <ele>2005.4</ele>
        <time>2021-03-25T09:18:12Z</time>
      </trkpt>
      <trkpt lat="45.55062" lon="6.77999">
        <ele>2006.2</ele>
        <time>2021-03-25T09:18:13Z</time>
      </trkpt>
      <trkpt lat="45.55063" lon="6.78">
        <ele>2006.2</ele>
        <time>2021-03-25T09:18:14Z</time>
      </trkpt>
      <trkpt lat="45.55063" lon="6.78">
        <ele>2006.2</ele>
        <time>2021-03-25T09:18:15Z</time>
      </trkpt>
      <trkpt lat="45.55063" lon="6.78001">
        <ele>2006.2</ele>
        <time>2021-03-25T09:18:16Z</time>
      </trkpt>
      <trkpt lat="45.55063" lon="6.78002">
        <ele>2006</ele>
        <time>2021-03-25T09:18:17Z</time>
      </trkpt>
      <trkpt lat="45.55064" lon="6.78003">
        <ele>2006.8</ele>
        <time>2021-03-25T09:18:18Z</time>
      </trkpt>
      <trkpt lat="45.55064" lon="6.78004">
        <ele>2006.8</ele>
        <time>2021-03-25T09:18:19Z</time>
      </trkpt>
      <trkpt lat="45.55064" lon="6.78004">
        <ele>2006.8</ele>
        <time>2021-03-25T09:18:26Z</time>
      </trkpt>
      <trkpt lat="45.55064" lon="6.78005">
        <ele>2006.8</ele>
        <time>2021-03-25T09:18:27Z</time>
      </trkpt>
      <trkpt lat="45.55065" lon="6.78006">
        <ele>2006.8</ele>
        <time>2021-03-25T09:18:28Z</time>
      </trkpt>
      <trkpt lat="45.55065" lon="6.78007">
        <ele>2007.6</ele>
        <time>2021-03-25T09:18:29Z</time>
      </trkpt>
      <trkpt lat="45.55065" lon="6.78008">
        <ele>2007.6</ele>
        <time>2021-03-25T09:18:30Z</time>
      </trkpt>
      <trkpt lat="45.55065" lon="6.78009">
        <ele>2007.6</ele>
        <time>2021-03-25T09:18:31Z</time>
      </trkpt>
      <trkpt lat="45.55065" lon="6.78011">
        <ele>2007.6</ele>
        <time>2021-03-25T09:18:32Z</time>
      </trkpt>
      <trkpt lat="45.55066" lon="6.78012">
        <ele>2008.4</ele>
        <time>2021-03-25T09:18:33Z</time>
      </trkpt>
      <trkpt lat="45.55066" lon="6.78013">
        <ele>2008.4</ele>
        <time>2021-03-25T09:18:34Z</time>
      </trkpt>
      <trkpt lat="45.55066" lon="6.78014">
        <ele>2008.4</ele>
        <time>2021-03-25T09:18:35Z</time>
      </trkpt>
      <trkpt lat="45.55067" lon="6.78015">
        <ele>2008.2</ele>
        <time>2021-03-25T09:18:36Z</time>
      </trkpt>
      <trkpt lat="45.55067" lon="6.78016">
        <ele>2009</ele>
        <time>2021-03-25T09:18:37Z</time>
      </trkpt>
      <trkpt lat="45.55067" lon="6.78017">
        <ele>2009</ele>
        <time>2021-03-25T09:18:38Z</time>
      </trkpt>
      <trkpt lat="45.55067" lon="6.78017">
        <ele>2009</ele>
        <time>2021-03-25T09:18:39Z</time>
      </trkpt>
      <trkpt lat="45.55068" lon="6.78018">
        <ele>2009</ele>
        <time>2021-03-25T09:18:40Z</time>
      </trkpt>
      <trkpt lat="45.55068" lon="6.78019">
        <ele>2009</ele>
        <time>2021-03-25T09:18:41Z</time>
      </trkpt>
      <trkpt lat="45.55068" lon="6.78019">
        <ele>2009</ele>
        <time>2021-03-25T09:18:42Z</time>
      </trkpt>
      <trkpt lat="45.55068" lon="6.7802">
        <ele>2009.9</ele>
        <time>2021-03-25T09:18:43Z</time>
      </trkpt>
      <trkpt lat="45.55069" lon="6.78021">
        <ele>2009.9</ele>
        <time>2021-03-25T09:18:44Z</time>
      </trkpt>
      <trkpt lat="45.55069" lon="6.78022">
        <ele>2009.9</ele>
        <time>2021-03-25T09:18:45Z</time>
      </trkpt>
      <trkpt lat="45.55069" lon="6.78022">
        <ele>2009.9</ele>
        <time>2021-03-25T09:18:46Z</time>
      </trkpt>
      <trkpt lat="45.55069" lon="6.78023">
        <ele>2009.9</ele>
        <time>2021-03-25T09:18:47Z</time>
      </trkpt>
      <trkpt lat="45.5507" lon="6.78024">
        <ele>2010.6</ele>
        <time>2021-03-25T09:18:48Z</time>
      </trkpt>
      <trkpt lat="45.5507" lon="6.78025">
        <ele>2010.6</ele>
        <time>2021-03-25T09:18:49Z</time>
      </trkpt>
      <trkpt lat="45.5507" lon="6.78026">
        <ele>2010.6</ele>
        <time>2021-03-25T09:18:50Z</time>
      </trkpt>
      <trkpt lat="45.5507" lon="6.78027">
        <ele>2010.6</ele>
        <time>2021-03-25T09:18:51Z</time>
      </trkpt>
      <trkpt lat="45.55071" lon="6.78027">
        <ele>2010.6</ele>
        <time>2021-03-25T09:18:52Z</time>
      </trkpt>
      <trkpt lat="45.55071" lon="6.78028">
        <ele>2011.5</ele>
        <time>2021-03-25T09:18:53Z</time>
      </trkpt>
      <trkpt lat="45.55071" lon="6.78029">
        <ele>2011.5</ele>
        <time>2021-03-25T09:18:54Z</time>
      </trkpt>
      <trkpt lat="45.55071" lon="6.7803">
        <ele>2011.5</ele>
        <time>2021-03-25T09:18:55Z</time>
      </trkpt>
      <trkpt lat="45.55072" lon="6.78031">
        <ele>2011.5</ele>
        <time>2021-03-25T09:18:56Z</time>
      </trkpt>
      <trkpt lat="45.55072" lon="6.78032">
        <ele>2011.5</ele>
        <time>2021-03-25T09:18:57Z</time>
      </trkpt>
      <trkpt lat="45.55072" lon="6.78033">
        <ele>2012.4</ele>
        <time>2021-03-25T09:18:58Z</time>
      </trkpt>
      <trkpt lat="45.55072" lon="6.78033">
        <ele>2012.3</ele>
        <time>2021-03-25T09:18:59Z</time>
      </trkpt>
      <trkpt lat="45.55073" lon="6.78034">
        <ele>2012.3</ele>
        <time>2021-03-25T09:19:00Z</time>
      </trkpt>
      <trkpt lat="45.55073" lon="6.78035">
        <ele>2012.3</ele>
        <time>2021-03-25T09:19:01Z</time>
      </trkpt>
      <trkpt lat="45.55073" lon="6.78035">
        <ele>2012.3</ele>
        <time>2021-03-25T09:19:02Z</time>
      </trkpt>
      <trkpt lat="45.55073" lon="6.78036">
        <ele>2012.3</ele>
        <time>2021-03-25T09:19:03Z</time>
      </trkpt>
      <trkpt lat="45.55074" lon="6.78037">
        <ele>2013.1</ele>
        <time>2021-03-25T09:19:04Z</time>
      </trkpt>
      <trkpt lat="45.55074" lon="6.78038">
        <ele>2013.1</ele>
        <time>2021-03-25T09:19:05Z</time>
      </trkpt>
      <trkpt lat="45.55074" lon="6.78039">
        <ele>2013.1</ele>
        <time>2021-03-25T09:19:06Z</time>
      </trkpt>
      <trkpt lat="45.55074" lon="6.78039">
        <ele>2013.1</ele>
        <time>2021-03-25T09:19:07Z</time>
      </trkpt>
      <trkpt lat="45.55075" lon="6.7804">
        <ele>2013.1</ele>
        <time>2021-03-25T09:19:08Z</time>
      </trkpt>
      <trkpt lat="45.55075" lon="6.78041">
        <ele>2014</ele>
        <time>2021-03-25T09:19:09Z</time>
      </trkpt>
      <trkpt lat="45.55075" lon="6.78042">
        <ele>2014</ele>
        <time>2021-03-25T09:19:10Z</time>
      </trkpt>
      <trkpt lat="45.55075" lon="6.78043">
        <ele>2014</ele>
        <time>2021-03-25T09:19:11Z</time>
      </trkpt>
      <trkpt lat="45.55075" lon="6.78044">
        <ele>2014</ele>
        <time>2021-03-25T09:19:12Z</time>
      </trkpt>
      <trkpt lat="45.55075" lon="6.78045">
        <ele>2013.8</ele>
        <time>2021-03-25T09:19:13Z</time>
      </trkpt>
      <trkpt lat="45.55076" lon="6.78047">
        <ele>2014.7</ele>
        <time>2021-03-25T09:19:14Z</time>
      </trkpt>
      <trkpt lat="45.55076" lon="6.78048">
        <ele>2014.7</ele>
        <time>2021-03-25T09:19:15Z</time>
      </trkpt>
      <trkpt lat="45.55076" lon="6.78048">
        <ele>2014.7</ele>
        <time>2021-03-25T09:19:16Z</time>
      </trkpt>
      <trkpt lat="45.55076" lon="6.78049">
        <ele>2014.7</ele>
        <time>2021-03-25T09:19:17Z</time>
      </trkpt>
      <trkpt lat="45.55077" lon="6.7805">
        <ele>2015.5</ele>
        <time>2021-03-25T09:19:18Z</time>
      </trkpt>
      <trkpt lat="45.55077" lon="6.78052">
        <ele>2015.5</ele>
        <time>2021-03-25T09:19:19Z</time>
      </trkpt>
      <trkpt lat="45.55076" lon="6.78053">
        <ele>2015.5</ele>
        <time>2021-03-25T09:19:20Z</time>
      </trkpt>
      <trkpt lat="45.55076" lon="6.78053">
        <ele>2015.5</ele>
        <time>2021-03-25T09:19:21Z</time>
      </trkpt>
      <trkpt lat="45.55076" lon="6.78054">
        <ele>2016.4</ele>
        <time>2021-03-25T09:19:22Z</time>
      </trkpt>
      <trkpt lat="45.55076" lon="6.78055">
        <ele>2016.4</ele>
        <time>2021-03-25T09:19:23Z</time>
      </trkpt>
      <trkpt lat="45.55075" lon="6.78056">
        <ele>2016.4</ele>
        <time>2021-03-25T09:19:24Z</time>
      </trkpt>
      <trkpt lat="45.55075" lon="6.78056">
        <ele>2016.5</ele>
        <time>2021-03-25T09:19:25Z</time>
      </trkpt>
      <trkpt lat="45.55075" lon="6.78057">
        <ele>2016.5</ele>
        <time>2021-03-25T09:19:26Z</time>
      </trkpt>
      <trkpt lat="45.55075" lon="6.78058">
        <ele>2016.5</ele>
        <time>2021-03-25T09:19:27Z</time>
      </trkpt>
      <trkpt lat="45.55074" lon="6.78058">
        <ele>2017.4</ele>
        <time>2021-03-25T09:19:28Z</time>
      </trkpt>
      <trkpt lat="45.55074" lon="6.78059">
        <ele>2017.4</ele>
        <time>2021-03-25T09:19:29Z</time>
      </trkpt>
      <trkpt lat="45.55074" lon="6.7806">
        <ele>2017.4</ele>
        <time>2021-03-25T09:21:16Z</time>
      </trkpt>
      <trkpt lat="45.55074" lon="6.78061">
        <ele>2017.4</ele>
        <time>2021-03-25T09:21:17Z</time>
      </trkpt>
      <trkpt lat="45.55073" lon="6.78061">
        <ele>2017.4</ele>
        <time>2021-03-25T09:21:18Z</time>
      </trkpt>
      <trkpt lat="45.55073" lon="6.78062">
        <ele>2017.4</ele>
        <time>2021-03-25T09:21:19Z</time>
      </trkpt>
      <trkpt lat="45.55073" lon="6.78063">
        <ele>2018.2</ele>
        <time>2021-03-25T09:21:20Z</time>
      </trkpt>
      <trkpt lat="45.55073" lon="6.78064">
        <ele>2018.2</ele>
        <time>2021-03-25T09:21:21Z</time>
      </trkpt>
      <trkpt lat="45.55073" lon="6.78066">
        <ele>2018.2</ele>
        <time>2021-03-25T09:21:22Z</time>
      </trkpt>
      <trkpt lat="45.55073" lon="6.78067">
        <ele>2018.2</ele>
        <time>2021-03-25T09:21:23Z</time>
      </trkpt>
      <trkpt lat="45.55073" lon="6.78068">
        <ele>2019.1</ele>
        <time>2021-03-25T09:21:24Z</time>
      </trkpt>
      <trkpt lat="45.55073" lon="6.78069">
        <ele>2019.1</ele>
        <time>2021-03-25T09:21:25Z</time>
      </trkpt>
      <trkpt lat="45.55073" lon="6.7807">
        <ele>2019.1</ele>
        <time>2021-03-25T09:21:26Z</time>
      </trkpt>
      <trkpt lat="45.55073" lon="6.7807">
        <ele>2019.1</ele>
        <time>2021-03-25T09:21:27Z</time>
      </trkpt>
      <trkpt lat="45.55073" lon="6.7807">
        <ele>2019.1</ele>
        <time>2021-03-25T09:21:28Z</time>
      </trkpt>
      <trkpt lat="45.55072" lon="6.78071">
        <ele>2019.1</ele>
        <time>2021-03-25T09:21:29Z</time>
      </trkpt>
      <trkpt lat="45.55072" lon="6.78072">
        <ele>2020.1</ele>
        <time>2021-03-25T09:21:30Z</time>
      </trkpt>
      <trkpt lat="45.55072" lon="6.78073">
        <ele>2020.1</ele>
        <time>2021-03-25T09:21:31Z</time>
      </trkpt>
      <trkpt lat="45.55071" lon="6.78074">
        <ele>2020.1</ele>
        <time>2021-03-25T09:21:32Z</time>
      </trkpt>
      <trkpt lat="45.55071" lon="6.78075">
        <ele>2020.1</ele>
        <time>2021-03-25T09:21:33Z</time>
      </trkpt>
      <trkpt lat="45.55071" lon="6.78076">
        <ele>2020.9</ele>
        <time>2021-03-25T09:21:34Z</time>
      </trkpt>
      <trkpt lat="45.55071" lon="6.78077">
        <ele>2020.9</ele>
        <time>2021-03-25T09:21:35Z</time>
      </trkpt>
      <trkpt lat="45.55071" lon="6.78078">
        <ele>2020.9</ele>
        <time>2021-03-25T09:21:36Z</time>
      </trkpt>
      <trkpt lat="45.55071" lon="6.78079">
        <ele>2020.9</ele>
        <time>2021-03-25T09:21:37Z</time>
      </trkpt>
      <trkpt lat="45.55071" lon="6.7808">
        <ele>2021.6</ele>
        <time>2021-03-25T09:21:38Z</time>
      </trkpt>
      <trkpt lat="45.55071" lon="6.7808">
        <ele>2021.6</ele>
        <time>2021-03-25T09:21:39Z</time>
      </trkpt>
      <trkpt lat="45.55071" lon="6.78081">
        <ele>2021.6</ele>
        <time>2021-03-25T09:21:40Z</time>
      </trkpt>
      <trkpt lat="45.55071" lon="6.78081">
        <ele>2021.6</ele>
        <time>2021-03-25T09:21:41Z</time>
      </trkpt>
      <trkpt lat="45.55071" lon="6.78081">
        <ele>2021.6</ele>
        <time>2021-03-25T09:21:42Z</time>
      </trkpt>
      <trkpt lat="45.55071" lon="6.78082">
        <ele>2021.6</ele>
        <time>2021-03-25T09:21:43Z</time>
      </trkpt>
      <trkpt lat="45.55071" lon="6.78082">
        <ele>2021.6</ele>
        <time>2021-03-25T09:21:44Z</time>
      </trkpt>
      <trkpt lat="45.55072" lon="6.78083">
        <ele>2021.6</ele>
        <time>2021-03-25T09:21:45Z</time>
      </trkpt>
      <trkpt lat="45.55072" lon="6.78083">
        <ele>2021.6</ele>
        <time>2021-03-25T09:21:46Z</time>
      </trkpt>
      <trkpt lat="45.55072" lon="6.78083">
        <ele>2021.6</ele>
        <time>2021-03-25T09:21:47Z</time>
      </trkpt>
      <trkpt lat="45.55072" lon="6.78084">
        <ele>2021.6</ele>
        <time>2021-03-25T09:21:48Z</time>
      </trkpt>
      <trkpt lat="45.55072" lon="6.78084">
        <ele>2022.3</ele>
        <time>2021-03-25T09:24:31Z</time>
      </trkpt>
      <trkpt lat="45.55072" lon="6.78085">
        <ele>2022.3</ele>
        <time>2021-03-25T09:24:32Z</time>
      </trkpt>
      <trkpt lat="45.55072" lon="6.78085">
        <ele>2022.3</ele>
        <time>2021-03-25T09:24:33Z</time>
      </trkpt>
      <trkpt lat="45.55072" lon="6.78085">
        <ele>2022.2</ele>
        <time>2021-03-25T09:24:34Z</time>
      </trkpt>
      <trkpt lat="45.55073" lon="6.78086">
        <ele>2022.2</ele>
        <time>2021-03-25T09:24:35Z</time>
      </trkpt>
      <trkpt lat="45.55073" lon="6.78086">
        <ele>2022.2</ele>
        <time>2021-03-25T09:24:36Z</time>
      </trkpt>
      <trkpt lat="45.55073" lon="6.78087">
        <ele>2022.2</ele>
        <time>2021-03-25T09:24:37Z</time>
      </trkpt>
      <trkpt lat="45.55073" lon="6.78087">
        <ele>2022.2</ele>
        <time>2021-03-25T09:24:38Z</time>
      </trkpt>
      <trkpt lat="45.55073" lon="6.78087">
        <ele>2022.2</ele>
        <time>2021-03-25T09:24:39Z</time>
      </trkpt>
      <trkpt lat="45.55073" lon="6.78088">
        <ele>2022.2</ele>
        <time>2021-03-25T09:24:40Z</time>
      </trkpt>
      <trkpt lat="45.55073" lon="6.78088">
        <ele>2022.2</ele>
        <time>2021-03-25T09:26:25Z</time>
      </trkpt>
      <trkpt lat="45.55073" lon="6.78088">
        <ele>2022.8</ele>
        <time>2021-03-25T09:26:26Z</time>
      </trkpt>
      <trkpt lat="45.55074" lon="6.78089">
        <ele>2022.8</ele>
        <time>2021-03-25T09:26:27Z</time>
      </trkpt>
      <trkpt lat="45.55074" lon="6.78089">
        <ele>2022.8</ele>
        <time>2021-03-25T09:26:28Z</time>
      </trkpt>
      <trkpt lat="45.55074" lon="6.78091">
        <ele>2022.8</ele>
        <time>2021-03-25T09:26:29Z</time>
      </trkpt>
      <trkpt lat="45.55074" lon="6.78092">
        <ele>2022.8</ele>
        <time>2021-03-25T09:26:30Z</time>
      </trkpt>
      <trkpt lat="45.55074" lon="6.78093">
        <ele>2023.3</ele>
        <time>2021-03-25T09:26:31Z</time>
      </trkpt>
      <trkpt lat="45.55074" lon="6.78095">
        <ele>2023.3</ele>
        <time>2021-03-25T09:26:32Z</time>
      </trkpt>
      <trkpt lat="45.55074" lon="6.78096">
        <ele>2023.3</ele>
        <time>2021-03-25T09:26:33Z</time>
      </trkpt>
      <trkpt lat="45.55074" lon="6.78097">
        <ele>2023.8</ele>
        <time>2021-03-25T09:26:34Z</time>
      </trkpt>
      <trkpt lat="45.55074" lon="6.78099">
        <ele>2023.8</ele>
        <time>2021-03-25T09:26:35Z</time>
      </trkpt>
      <trkpt lat="45.55074" lon="6.781">
        <ele>2023.8</ele>
        <time>2021-03-25T09:26:36Z</time>
      </trkpt>
      <trkpt lat="45.55074" lon="6.78101">
        <ele>2023.8</ele>
        <time>2021-03-25T09:26:37Z</time>
      </trkpt>
      <trkpt lat="45.55074" lon="6.78102">
        <ele>2024.2</ele>
        <time>2021-03-25T09:26:38Z</time>
      </trkpt>
      <trkpt lat="45.55074" lon="6.78103">
        <ele>2024.2</ele>
        <time>2021-03-25T09:26:39Z</time>
      </trkpt>
      <trkpt lat="45.55074" lon="6.78105">
        <ele>2024.2</ele>
        <time>2021-03-25T09:26:40Z</time>
      </trkpt>
      <trkpt lat="45.55075" lon="6.78106">
        <ele>2024.6</ele>
        <time>2021-03-25T09:26:41Z</time>
      </trkpt>
      <trkpt lat="45.55075" lon="6.78107">
        <ele>2024.6</ele>
        <time>2021-03-25T09:26:42Z</time>
      </trkpt>
      <trkpt lat="45.55075" lon="6.78108">
        <ele>2024.6</ele>
        <time>2021-03-25T09:26:43Z</time>
      </trkpt>
      <trkpt lat="45.55075" lon="6.7811">
        <ele>2024.6</ele>
        <time>2021-03-25T09:26:44Z</time>
      </trkpt>
      <trkpt lat="45.55075" lon="6.78111">
        <ele>2024.9</ele>
        <time>2021-03-25T09:26:45Z</time>
      </trkpt>
      <trkpt lat="45.55075" lon="6.78112">
        <ele>2024.9</ele>
        <time>2021-03-25T09:26:46Z</time>
      </trkpt>
      <trkpt lat="45.55075" lon="6.78113">
        <ele>2024.9</ele>
        <time>2021-03-25T09:26:47Z</time>
      </trkpt>
      <trkpt lat="45.55076" lon="6.78114">
        <ele>2025.2</ele>
        <time>2021-03-25T09:26:48Z</time>
      </trkpt>
      <trkpt lat="45.55076" lon="6.78115">
        <ele>2025.2</ele>
        <time>2021-03-25T09:26:49Z</time>
      </trkpt>
      <trkpt lat="45.55076" lon="6.78116">
        <ele>2025.2</ele>
        <time>2021-03-25T09:26:50Z</time>
      </trkpt>
      <trkpt lat="45.55076" lon="6.78117">
        <ele>2025.2</ele>
        <time>2021-03-25T09:26:51Z</time>
      </trkpt>
      <trkpt lat="45.55076" lon="6.78118">
        <ele>2025.6</ele>
        <time>2021-03-25T09:26:52Z</time>
      </trkpt>
      <trkpt lat="45.55076" lon="6.7812">
        <ele>2025.6</ele>
        <time>2021-03-25T09:26:53Z</time>
      </trkpt>
      <trkpt lat="45.55076" lon="6.78121">
        <ele>2025.6</ele>
        <time>2021-03-25T09:26:54Z</time>
      </trkpt>
      <trkpt lat="45.55077" lon="6.78123">
        <ele>2025.9</ele>
        <time>2021-03-25T09:26:55Z</time>
      </trkpt>
      <trkpt lat="45.55077" lon="6.78124">
        <ele>2025.9</ele>
        <time>2021-03-25T09:26:56Z</time>
      </trkpt>
      <trkpt lat="45.55077" lon="6.78125">
        <ele>2025.9</ele>
        <time>2021-03-25T09:26:57Z</time>
      </trkpt>
      <trkpt lat="45.55077" lon="6.78127">
        <ele>2025.9</ele>
        <time>2021-03-25T09:26:58Z</time>
      </trkpt>
      <trkpt lat="45.55077" lon="6.78128">
        <ele>2026.2</ele>
        <time>2021-03-25T09:26:59Z</time>
      </trkpt>
      <trkpt lat="45.55078" lon="6.78129">
        <ele>2026.2</ele>
        <time>2021-03-25T09:27:00Z</time>
      </trkpt>
      <trkpt lat="45.55078" lon="6.7813">
        <ele>2026.2</ele>
        <time>2021-03-25T09:27:01Z</time>
      </trkpt>
      <trkpt lat="45.55078" lon="6.78132">
        <ele>2026.5</ele>
        <time>2021-03-25T09:27:02Z</time>
      </trkpt>
      <trkpt lat="45.55078" lon="6.78133">
        <ele>2026.5</ele>
        <time>2021-03-25T09:27:03Z</time>
      </trkpt>
      <trkpt lat="45.55078" lon="6.78134">
        <ele>2026.5</ele>
        <time>2021-03-25T09:27:04Z</time>
      </trkpt>
      <trkpt lat="45.55078" lon="6.78136">
        <ele>2026.8</ele>
        <time>2021-03-25T09:27:05Z</time>
      </trkpt>
      <trkpt lat="45.55078" lon="6.78137">
        <ele>2026.8</ele>
        <time>2021-03-25T09:27:06Z</time>
      </trkpt>
      <trkpt lat="45.55078" lon="6.78138">
        <ele>2026.8</ele>
        <time>2021-03-25T09:27:07Z</time>
      </trkpt>
      <trkpt lat="45.55078" lon="6.78139">
        <ele>2026.8</ele>
        <time>2021-03-25T09:27:08Z</time>
      </trkpt>
      <trkpt lat="45.55078" lon="6.78141">
        <ele>2027.1</ele>
        <time>2021-03-25T09:27:09Z</time>
      </trkpt>
      <trkpt lat="45.55077" lon="6.78142">
        <ele>2027.1</ele>
        <time>2021-03-25T09:27:10Z</time>
      </trkpt>
      <trkpt lat="45.55077" lon="6.78143">
        <ele>2027.1</ele>
        <time>2021-03-25T09:27:11Z</time>
      </trkpt>
      <trkpt lat="45.55077" lon="6.78144">
        <ele>2027.5</ele>
        <time>2021-03-25T09:27:12Z</time>
      </trkpt>
      <trkpt lat="45.55077" lon="6.78145">
        <ele>2027.5</ele>
        <time>2021-03-25T09:27:13Z</time>
      </trkpt>
      <trkpt lat="45.55077" lon="6.78147">
        <ele>2027.5</ele>
        <time>2021-03-25T09:27:14Z</time>
      </trkpt>
      <trkpt lat="45.55077" lon="6.78148">
        <ele>2027.5</ele>
        <time>2021-03-25T09:27:15Z</time>
      </trkpt>
      <trkpt lat="45.55078" lon="6.7815">
        <ele>2027.8</ele>
        <time>2021-03-25T09:27:16Z</time>
      </trkpt>
      <trkpt lat="45.55078" lon="6.78151">
        <ele>2027.8</ele>
        <time>2021-03-25T09:27:17Z</time>
      </trkpt>
      <trkpt lat="45.55078" lon="6.78152">
        <ele>2027.8</ele>
        <time>2021-03-25T09:27:18Z</time>
      </trkpt>
      <trkpt lat="45.55078" lon="6.78154">
        <ele>2028.2</ele>
        <time>2021-03-25T09:27:19Z</time>
      </trkpt>
      <trkpt lat="45.55078" lon="6.78155">
        <ele>2028.2</ele>
        <time>2021-03-25T09:27:20Z</time>
      </trkpt>
      <trkpt lat="45.55078" lon="6.78156">
        <ele>2028.2</ele>
        <time>2021-03-25T09:27:21Z</time>
      </trkpt>
      <trkpt lat="45.55078" lon="6.78157">
        <ele>2028.6</ele>
        <time>2021-03-25T09:27:22Z</time>
      </trkpt>
      <trkpt lat="45.55078" lon="6.78158">
        <ele>2028.4</ele>
        <time>2021-03-25T09:27:23Z</time>
      </trkpt>
      <trkpt lat="45.55079" lon="6.78159">
        <ele>2028.4</ele>
        <time>2021-03-25T09:27:24Z</time>
      </trkpt>
      <trkpt lat="45.55079" lon="6.7816">
        <ele>2028.4</ele>
        <time>2021-03-25T09:27:25Z</time>
      </trkpt>
      <trkpt lat="45.55079" lon="6.78162">
        <ele>2028.8</ele>
        <time>2021-03-25T09:27:26Z</time>
      </trkpt>
      <trkpt lat="45.55079" lon="6.78162">
        <ele>2028.8</ele>
        <time>2021-03-25T09:27:27Z</time>
      </trkpt>
      <trkpt lat="45.55079" lon="6.78163">
        <ele>2028.8</ele>
        <time>2021-03-25T09:27:28Z</time>
      </trkpt>
      <trkpt lat="45.55079" lon="6.78164">
        <ele>2028.8</ele>
        <time>2021-03-25T09:27:29Z</time>
      </trkpt>
      <trkpt lat="45.5508" lon="6.78165">
        <ele>2028.8</ele>
        <time>2021-03-25T09:27:30Z</time>
      </trkpt>
      <trkpt lat="45.5508" lon="6.78166">
        <ele>2029.2</ele>
        <time>2021-03-25T09:27:31Z</time>
      </trkpt>
      <trkpt lat="45.55081" lon="6.78166">
        <ele>2029.2</ele>
        <time>2021-03-25T09:27:32Z</time>
      </trkpt>
      <trkpt lat="45.55081" lon="6.78167">
        <ele>2029</ele>
        <time>2021-03-25T09:27:33Z</time>
      </trkpt>
      <trkpt lat="45.55082" lon="6.78168">
        <ele>2029</ele>
        <time>2021-03-25T09:27:34Z</time>
      </trkpt>
      <trkpt lat="45.55082" lon="6.78169">
        <ele>2029</ele>
        <time>2021-03-25T09:27:35Z</time>
      </trkpt>
      <trkpt lat="45.55083" lon="6.7817">
        <ele>2029</ele>
        <time>2021-03-25T09:27:36Z</time>
      </trkpt>
      <trkpt lat="45.55084" lon="6.7817">
        <ele>2029.4</ele>
        <time>2021-03-25T09:27:37Z</time>
      </trkpt>
      <trkpt lat="45.55084" lon="6.78171">
        <ele>2029.4</ele>
        <time>2021-03-25T09:27:38Z</time>
      </trkpt>
      <trkpt lat="45.55085" lon="6.78171">
        <ele>2029.1</ele>
        <time>2021-03-25T09:27:39Z</time>
      </trkpt>
      <trkpt lat="45.55085" lon="6.78172">
        <ele>2029.1</ele>
        <time>2021-03-25T09:27:40Z</time>
      </trkpt>
      <trkpt lat="45.55085" lon="6.78173">
        <ele>2029.1</ele>
        <time>2021-03-25T09:27:41Z</time>
      </trkpt>
      <trkpt lat="45.55085" lon="6.78174">
        <ele>2029.5</ele>
        <time>2021-03-25T09:27:42Z</time>
      </trkpt>
      <trkpt lat="45.55086" lon="6.78175">
        <ele>2029.5</ele>
        <time>2021-03-25T09:27:43Z</time>
      </trkpt>
      <trkpt lat="45.55086" lon="6.78176">
        <ele>2029.5</ele>
        <time>2021-03-25T09:27:44Z</time>
      </trkpt>
      <trkpt lat="45.55086" lon="6.78177">
        <ele>2029.5</ele>
        <time>2021-03-25T09:27:45Z</time>
      </trkpt>
      <trkpt lat="45.55086" lon="6.78178">
        <ele>2029.5</ele>
        <time>2021-03-25T09:27:46Z</time>
      </trkpt>
      <trkpt lat="45.55086" lon="6.78179">
        <ele>2029.9</ele>
        <time>2021-03-25T09:27:47Z</time>
      </trkpt>
      <trkpt lat="45.55086" lon="6.7818">
        <ele>2029.9</ele>
        <time>2021-03-25T09:27:48Z</time>
      </trkpt>
      <trkpt lat="45.55086" lon="6.78182">
        <ele>2029.9</ele>
        <time>2021-03-25T09:27:49Z</time>
      </trkpt>
      <trkpt lat="45.55086" lon="6.78183">
        <ele>2030.3</ele>
        <time>2021-03-25T09:27:50Z</time>
      </trkpt>
      <trkpt lat="45.55086" lon="6.78184">
        <ele>2030.3</ele>
        <time>2021-03-25T09:27:51Z</time>
      </trkpt>
      <trkpt lat="45.55086" lon="6.78185">
        <ele>2030.3</ele>
        <time>2021-03-25T09:27:52Z</time>
      </trkpt>
      <trkpt lat="45.55086" lon="6.78187">
        <ele>2030.3</ele>
        <time>2021-03-25T09:27:53Z</time>
      </trkpt>
      <trkpt lat="45.55086" lon="6.78188">
        <ele>2030.7</ele>
        <time>2021-03-25T09:27:54Z</time>
      </trkpt>
      <trkpt lat="45.55085" lon="6.78189">
        <ele>2030.7</ele>
        <time>2021-03-25T09:27:55Z</time>
      </trkpt>
      <trkpt lat="45.55085" lon="6.78191">
        <ele>2030.7</ele>
        <time>2021-03-25T09:27:56Z</time>
      </trkpt>
      <trkpt lat="45.55085" lon="6.78192">
        <ele>2031.2</ele>
        <time>2021-03-25T09:27:57Z</time>
      </trkpt>
      <trkpt lat="45.55085" lon="6.78193">
        <ele>2031.2</ele>
        <time>2021-03-25T09:27:58Z</time>
      </trkpt>
      <trkpt lat="45.55085" lon="6.78195">
        <ele>2031.2</ele>
        <time>2021-03-25T09:27:59Z</time>
      </trkpt>
      <trkpt lat="45.55085" lon="6.78196">
        <ele>2031.7</ele>
        <time>2021-03-25T09:28:00Z</time>
      </trkpt>
      <trkpt lat="45.55085" lon="6.78197">
        <ele>2031.7</ele>
        <time>2021-03-25T09:28:01Z</time>
      </trkpt>
      <trkpt lat="45.55085" lon="6.78198">
        <ele>2031.7</ele>
        <time>2021-03-25T09:28:02Z</time>
      </trkpt>
      <trkpt lat="45.55085" lon="6.78199">
        <ele>2031.7</ele>
        <time>2021-03-25T09:28:03Z</time>
      </trkpt>
      <trkpt lat="45.55085" lon="6.782">
        <ele>2032.2</ele>
        <time>2021-03-25T09:28:04Z</time>
      </trkpt>
      <trkpt lat="45.55085" lon="6.78201">
        <ele>2032.2</ele>
        <time>2021-03-25T09:28:05Z</time>
      </trkpt>
      <trkpt lat="45.55085" lon="6.78202">
        <ele>2032.2</ele>
        <time>2021-03-25T09:28:06Z</time>
      </trkpt>
      <trkpt lat="45.55085" lon="6.78203">
        <ele>2032.2</ele>
        <time>2021-03-25T09:28:07Z</time>
      </trkpt>
      <trkpt lat="45.55086" lon="6.78205">
        <ele>2032.7</ele>
        <time>2021-03-25T09:28:08Z</time>
      </trkpt>
      <trkpt lat="45.55086" lon="6.78206">
        <ele>2032.7</ele>
        <time>2021-03-25T09:28:09Z</time>
      </trkpt>
      <trkpt lat="45.55086" lon="6.78207">
        <ele>2032.7</ele>
        <time>2021-03-25T09:28:10Z</time>
      </trkpt>
      <trkpt lat="45.55086" lon="6.78208">
        <ele>2032.7</ele>
        <time>2021-03-25T09:28:11Z</time>
      </trkpt>
      <trkpt lat="45.55086" lon="6.78209">
        <ele>2033.3</ele>
        <time>2021-03-25T09:28:12Z</time>
      </trkpt>
      <trkpt lat="45.55086" lon="6.7821">
        <ele>2033.3</ele>
        <time>2021-03-25T09:28:13Z</time>
      </trkpt>
      <trkpt lat="45.55086" lon="6.78211">
        <ele>2033.3</ele>
        <time>2021-03-25T09:28:14Z</time>
      </trkpt>
      <trkpt lat="45.55087" lon="6.78212">
        <ele>2033.3</ele>
        <time>2021-03-25T09:28:15Z</time>
      </trkpt>
      <trkpt lat="45.55087" lon="6.78213">
        <ele>2033.8</ele>
        <time>2021-03-25T09:28:16Z</time>
      </trkpt>
      <trkpt lat="45.55087" lon="6.78214">
        <ele>2033.8</ele>
        <time>2021-03-25T09:28:17Z</time>
      </trkpt>
      <trkpt lat="45.55087" lon="6.78215">
        <ele>2033.4</ele>
        <time>2021-03-25T09:28:18Z</time>
      </trkpt>
      <trkpt lat="45.55088" lon="6.78217">
        <ele>2033.4</ele>
        <time>2021-03-25T09:28:19Z</time>
      </trkpt>
      <trkpt lat="45.55088" lon="6.78218">
        <ele>2034</ele>
        <time>2021-03-25T09:28:20Z</time>
      </trkpt>
      <trkpt lat="45.55088" lon="6.78219">
        <ele>2034</ele>
        <time>2021-03-25T09:28:21Z</time>
      </trkpt>
      <trkpt lat="45.55087" lon="6.7822">
        <ele>2034</ele>
        <time>2021-03-25T09:28:22Z</time>
      </trkpt>
      <trkpt lat="45.55087" lon="6.78221">
        <ele>2034</ele>
        <time>2021-03-25T09:28:23Z</time>
      </trkpt>
      <trkpt lat="45.55087" lon="6.78222">
        <ele>2034.5</ele>
        <time>2021-03-25T09:28:24Z</time>
      </trkpt>
      <trkpt lat="45.55087" lon="6.78223">
        <ele>2034.9</ele>
        <time>2021-03-25T09:28:25Z</time>
      </trkpt>
      <trkpt lat="45.55087" lon="6.78224">
        <ele>2034.9</ele>
        <time>2021-03-25T09:28:26Z</time>
      </trkpt>
      <trkpt lat="45.55087" lon="6.78225">
        <ele>2034.9</ele>
        <time>2021-03-25T09:28:27Z</time>
      </trkpt>
      <trkpt lat="45.55087" lon="6.78226">
        <ele>2035.5</ele>
        <time>2021-03-25T09:28:28Z</time>
      </trkpt>
      <trkpt lat="45.55087" lon="6.78228">
        <ele>2035.5</ele>
        <time>2021-03-25T09:28:29Z</time>
      </trkpt>
      <trkpt lat="45.55087" lon="6.78229">
        <ele>2035.5</ele>
        <time>2021-03-25T09:28:30Z</time>
      </trkpt>
      <trkpt lat="45.55087" lon="6.7823">
        <ele>2035.5</ele>
        <time>2021-03-25T09:28:31Z</time>
      </trkpt>
      <trkpt lat="45.55087" lon="6.78231">
        <ele>2036</ele>
        <time>2021-03-25T09:28:32Z</time>
      </trkpt>
      <trkpt lat="45.55087" lon="6.78232">
        <ele>2036</ele>
        <time>2021-03-25T09:28:33Z</time>
      </trkpt>
      <trkpt lat="45.55087" lon="6.78233">
        <ele>2036</ele>
        <time>2021-03-25T09:28:34Z</time>
      </trkpt>
      <trkpt lat="45.55087" lon="6.78234">
        <ele>2036</ele>
        <time>2021-03-25T09:28:35Z</time>
      </trkpt>
      <trkpt lat="45.55087" lon="6.78235">
        <ele>2036.2</ele>
        <time>2021-03-25T09:28:36Z</time>
      </trkpt>
      <trkpt lat="45.55087" lon="6.78236">
        <ele>2036.2</ele>
        <time>2021-03-25T09:28:37Z</time>
      </trkpt>
      <trkpt lat="45.55087" lon="6.78238">
        <ele>2036.2</ele>
        <time>2021-03-25T09:28:38Z</time>
      </trkpt>
      <trkpt lat="45.55087" lon="6.78239">
        <ele>2036.9</ele>
        <time>2021-03-25T09:28:39Z</time>
      </trkpt>
      <trkpt lat="45.55087" lon="6.78241">
        <ele>2036.9</ele>
        <time>2021-03-25T09:28:40Z</time>
      </trkpt>
      <trkpt lat="45.55087" lon="6.78242">
        <ele>2036.9</ele>
        <time>2021-03-25T09:28:41Z</time>
      </trkpt>
      <trkpt lat="45.55087" lon="6.78243">
        <ele>2037.5</ele>
        <time>2021-03-25T09:28:42Z</time>
      </trkpt>
      <trkpt lat="45.55087" lon="6.78244">
        <ele>2037.5</ele>
        <time>2021-03-25T09:28:43Z</time>
      </trkpt>
      <trkpt lat="45.55087" lon="6.78245">
        <ele>2037.5</ele>
        <time>2021-03-25T09:28:44Z</time>
      </trkpt>
      <trkpt lat="45.55087" lon="6.78246">
        <ele>2037.5</ele>
        <time>2021-03-25T09:28:45Z</time>
      </trkpt>
      <trkpt lat="45.55087" lon="6.78248">
        <ele>2038.2</ele>
        <time>2021-03-25T09:28:46Z</time>
      </trkpt>
      <trkpt lat="45.55087" lon="6.78249">
        <ele>2038.2</ele>
        <time>2021-03-25T09:28:47Z</time>
      </trkpt>
      <trkpt lat="45.55088" lon="6.7825">
        <ele>2038.2</ele>
        <time>2021-03-25T09:28:48Z</time>
      </trkpt>
      <trkpt lat="45.55088" lon="6.78251">
        <ele>2038.9</ele>
        <time>2021-03-25T09:28:49Z</time>
      </trkpt>
      <trkpt lat="45.55088" lon="6.78252">
        <ele>2038.9</ele>
        <time>2021-03-25T09:28:50Z</time>
      </trkpt>
      <trkpt lat="45.55088" lon="6.78253">
        <ele>2038.9</ele>
        <time>2021-03-25T09:28:51Z</time>
      </trkpt>
      <trkpt lat="45.55088" lon="6.78254">
        <ele>2038.9</ele>
        <time>2021-03-25T09:28:52Z</time>
      </trkpt>
      <trkpt lat="45.55088" lon="6.78255">
        <ele>2038.9</ele>
        <time>2021-03-25T09:28:53Z</time>
      </trkpt>
      <trkpt lat="45.55087" lon="6.78256">
        <ele>2039.6</ele>
        <time>2021-03-25T09:28:54Z</time>
      </trkpt>
      <trkpt lat="45.55087" lon="6.78257">
        <ele>2039.6</ele>
        <time>2021-03-25T09:28:55Z</time>
      </trkpt>
      <trkpt lat="45.55087" lon="6.78258">
        <ele>2039.9</ele>
        <time>2021-03-25T09:28:56Z</time>
      </trkpt>
      <trkpt lat="45.55087" lon="6.78259">
        <ele>2039.9</ele>
        <time>2021-03-25T09:28:57Z</time>
      </trkpt>
      <trkpt lat="45.55087" lon="6.7826">
        <ele>2039.9</ele>
        <time>2021-03-25T09:28:58Z</time>
      </trkpt>
      <trkpt lat="45.55087" lon="6.78261">
        <ele>2040.5</ele>
        <time>2021-03-25T09:28:59Z</time>
      </trkpt>
      <trkpt lat="45.55087" lon="6.78262">
        <ele>2040.5</ele>
        <time>2021-03-25T09:29:00Z</time>
      </trkpt>
      <trkpt lat="45.55086" lon="6.78263">
        <ele>2040.5</ele>
        <time>2021-03-25T09:29:01Z</time>
      </trkpt>
      <trkpt lat="45.55086" lon="6.78264">
        <ele>2040.5</ele>
        <time>2021-03-25T09:29:02Z</time>
      </trkpt>
      <trkpt lat="45.55086" lon="6.78265">
        <ele>2041.1</ele>
        <time>2021-03-25T09:29:03Z</time>
      </trkpt>
      <trkpt lat="45.55086" lon="6.78266">
        <ele>2041.1</ele>
        <time>2021-03-25T09:29:04Z</time>
      </trkpt>
      <trkpt lat="45.55086" lon="6.78267">
        <ele>2041.1</ele>
        <time>2021-03-25T09:29:05Z</time>
      </trkpt>
      <trkpt lat="45.55086" lon="6.78268">
        <ele>2041.1</ele>
        <time>2021-03-25T09:29:06Z</time>
      </trkpt>
      <trkpt lat="45.55086" lon="6.78269">
        <ele>2041.7</ele>
        <time>2021-03-25T09:29:07Z</time>
      </trkpt>
      <trkpt lat="45.55087" lon="6.7827">
        <ele>2041.7</ele>
        <time>2021-03-25T09:29:08Z</time>
      </trkpt>
      <trkpt lat="45.55087" lon="6.78271">
        <ele>2041.7</ele>
        <time>2021-03-25T09:29:09Z</time>
      </trkpt>
      <trkpt lat="45.55087" lon="6.78272">
        <ele>2041.7</ele>
        <time>2021-03-25T09:29:10Z</time>
      </trkpt>
      <trkpt lat="45.55087" lon="6.78273">
        <ele>2041.7</ele>
        <time>2021-03-25T09:29:11Z</time>
      </trkpt>
      <trkpt lat="45.55087" lon="6.78273">
        <ele>2042</ele>
        <time>2021-03-25T09:29:12Z</time>
      </trkpt>
      <trkpt lat="45.55088" lon="6.78275">
        <ele>2042</ele>
        <time>2021-03-25T09:29:13Z</time>
      </trkpt>
      <trkpt lat="45.55088" lon="6.78276">
        <ele>2042</ele>
        <time>2021-03-25T09:29:14Z</time>
      </trkpt>
      <trkpt lat="45.55088" lon="6.78277">
        <ele>2042</ele>
        <time>2021-03-25T09:29:15Z</time>
      </trkpt>
      <trkpt lat="45.55087" lon="6.78278">
        <ele>2042.8</ele>
        <time>2021-03-25T09:29:16Z</time>
      </trkpt>
      <trkpt lat="45.55087" lon="6.78279">
        <ele>2042.8</ele>
        <time>2021-03-25T09:29:17Z</time>
      </trkpt>
      <trkpt lat="45.55087" lon="6.7828">
        <ele>2042.8</ele>
        <time>2021-03-25T09:29:18Z</time>
      </trkpt>
      <trkpt lat="45.55087" lon="6.78281">
        <ele>2043.4</ele>
        <time>2021-03-25T09:29:19Z</time>
      </trkpt>
      <trkpt lat="45.55087" lon="6.78283">
        <ele>2043.4</ele>
        <time>2021-03-25T09:29:20Z</time>
      </trkpt>
      <trkpt lat="45.55087" lon="6.78284">
        <ele>2043.4</ele>
        <time>2021-03-25T09:29:21Z</time>
      </trkpt>
      <trkpt lat="45.55087" lon="6.78284">
        <ele>2043.4</ele>
        <time>2021-03-25T09:29:22Z</time>
      </trkpt>
      <trkpt lat="45.55086" lon="6.78285">
        <ele>2043.4</ele>
        <time>2021-03-25T09:29:23Z</time>
      </trkpt>
      <trkpt lat="45.55086" lon="6.78286">
        <ele>2044</ele>
        <time>2021-03-25T09:29:24Z</time>
      </trkpt>
      <trkpt lat="45.55086" lon="6.78287">
        <ele>2044</ele>
        <time>2021-03-25T09:29:25Z</time>
      </trkpt>
      <trkpt lat="45.55085" lon="6.78288">
        <ele>2044</ele>
        <time>2021-03-25T09:29:26Z</time>
      </trkpt>
      <trkpt lat="45.55085" lon="6.78289">
        <ele>2044</ele>
        <time>2021-03-25T09:29:27Z</time>
      </trkpt>
      <trkpt lat="45.55085" lon="6.7829">
        <ele>2044.6</ele>
        <time>2021-03-25T09:29:28Z</time>
      </trkpt>
      <trkpt lat="45.55084" lon="6.78291">
        <ele>2044.6</ele>
        <time>2021-03-25T09:29:29Z</time>
      </trkpt>
      <trkpt lat="45.55084" lon="6.78292">
        <ele>2044.6</ele>
        <time>2021-03-25T09:29:30Z</time>
      </trkpt>
      <trkpt lat="45.55085" lon="6.78293">
        <ele>2044.6</ele>
        <time>2021-03-25T09:29:31Z</time>
      </trkpt>
      <trkpt lat="45.55085" lon="6.78294">
        <ele>2044.6</ele>
        <time>2021-03-25T09:29:32Z</time>
      </trkpt>
      <trkpt lat="45.55085" lon="6.78295">
        <ele>2045.2</ele>
        <time>2021-03-25T09:29:33Z</time>
      </trkpt>
      <trkpt lat="45.55086" lon="6.78296">
        <ele>2045.2</ele>
        <time>2021-03-25T09:29:34Z</time>
      </trkpt>
      <trkpt lat="45.55086" lon="6.78297">
        <ele>2045.2</ele>
        <time>2021-03-25T09:29:35Z</time>
      </trkpt>
      <trkpt lat="45.55086" lon="6.78298">
        <ele>2045.2</ele>
        <time>2021-03-25T09:29:36Z</time>
      </trkpt>
      <trkpt lat="45.55086" lon="6.78298">
        <ele>2045.2</ele>
        <time>2021-03-25T09:29:37Z</time>
      </trkpt>
      <trkpt lat="45.55086" lon="6.78299">
        <ele>2045.9</ele>
        <time>2021-03-25T09:29:38Z</time>
      </trkpt>
      <trkpt lat="45.55086" lon="6.783">
        <ele>2045.9</ele>
        <time>2021-03-25T09:29:39Z</time>
      </trkpt>
      <trkpt lat="45.55086" lon="6.78301">
        <ele>2045.9</ele>
        <time>2021-03-25T09:29:40Z</time>
      </trkpt>
      <trkpt lat="45.55086" lon="6.78301">
        <ele>2045.9</ele>
        <time>2021-03-25T09:29:41Z</time>
      </trkpt>
      <trkpt lat="45.55087" lon="6.78302">
        <ele>2045.9</ele>
        <time>2021-03-25T09:29:42Z</time>
      </trkpt>
      <trkpt lat="45.55087" lon="6.78303">
        <ele>2045.9</ele>
        <time>2021-03-25T09:29:43Z</time>
      </trkpt>
      <trkpt lat="45.55087" lon="6.78303">
        <ele>2046.6</ele>
        <time>2021-03-25T09:29:44Z</time>
      </trkpt>
      <trkpt lat="45.55086" lon="6.78304">
        <ele>2046.6</ele>
        <time>2021-03-25T09:29:45Z</time>
      </trkpt>
      <trkpt lat="45.55086" lon="6.78305">
        <ele>2046.6</ele>
        <time>2021-03-25T09:29:46Z</time>
      </trkpt>
      <trkpt lat="45.55086" lon="6.78306">
        <ele>2046.6</ele>
        <time>2021-03-25T09:29:47Z</time>
      </trkpt>
      <trkpt lat="45.55086" lon="6.78307">
        <ele>2046.6</ele>
        <time>2021-03-25T09:29:48Z</time>
      </trkpt>
      <trkpt lat="45.55086" lon="6.78308">
        <ele>2047.3</ele>
        <time>2021-03-25T09:29:49Z</time>
      </trkpt>
      <trkpt lat="45.55085" lon="6.78307">
        <ele>2046.6</ele>
        <time>2021-03-25T09:29:50Z</time>
      </trkpt>
      <trkpt lat="45.55084" lon="6.78306">
        <ele>2046.9</ele>
        <time>2021-03-25T09:29:51Z</time>
      </trkpt>
      <trkpt lat="45.55083" lon="6.78306">
        <ele>2046.9</ele>
        <time>2021-03-25T09:29:52Z</time>
      </trkpt>
      <trkpt lat="45.55083" lon="6.78306">
        <ele>2046.9</ele>
        <time>2021-03-25T09:29:53Z</time>
      </trkpt>
      <trkpt lat="45.55083" lon="6.78307">
        <ele>2047.6</ele>
        <time>2021-03-25T09:29:54Z</time>
      </trkpt>
      <trkpt lat="45.55083" lon="6.78308">
        <ele>2047.6</ele>
        <time>2021-03-25T09:29:55Z</time>
      </trkpt>
      <trkpt lat="45.55083" lon="6.78309">
        <ele>2047.6</ele>
        <time>2021-03-25T09:29:56Z</time>
      </trkpt>
      <trkpt lat="45.55083" lon="6.7831">
        <ele>2047.6</ele>
        <time>2021-03-25T09:29:57Z</time>
      </trkpt>
      <trkpt lat="45.55084" lon="6.78311">
        <ele>2048.3</ele>
        <time>2021-03-25T09:29:58Z</time>
      </trkpt>
      <trkpt lat="45.55084" lon="6.78313">
        <ele>2048.3</ele>
        <time>2021-03-25T09:29:59Z</time>
      </trkpt>
      <trkpt lat="45.55084" lon="6.78314">
        <ele>2048.3</ele>
        <time>2021-03-25T09:30:00Z</time>
      </trkpt>
      <trkpt lat="45.55084" lon="6.78315">
        <ele>2048</ele>
        <time>2021-03-25T09:30:01Z</time>
      </trkpt>
      <trkpt lat="45.55084" lon="6.78316">
        <ele>2048.7</ele>
        <time>2021-03-25T09:30:02Z</time>
      </trkpt>
      <trkpt lat="45.55084" lon="6.78317">
        <ele>2048.7</ele>
        <time>2021-03-25T09:30:03Z</time>
      </trkpt>
      <trkpt lat="45.55084" lon="6.78318">
        <ele>2048.7</ele>
        <time>2021-03-25T09:30:04Z</time>
      </trkpt>
      <trkpt lat="45.55084" lon="6.78318">
        <ele>2048.9</ele>
        <time>2021-03-25T09:30:05Z</time>
      </trkpt>
      <trkpt lat="45.55084" lon="6.78319">
        <ele>2048.9</ele>
        <time>2021-03-25T09:30:06Z</time>
      </trkpt>
      <trkpt lat="45.55084" lon="6.7832">
        <ele>2049.6</ele>
        <time>2021-03-25T09:30:07Z</time>
      </trkpt>
      <trkpt lat="45.55084" lon="6.78321">
        <ele>2049.6</ele>
        <time>2021-03-25T09:30:08Z</time>
      </trkpt>
      <trkpt lat="45.55084" lon="6.78322">
        <ele>2049.6</ele>
        <time>2021-03-25T09:30:09Z</time>
      </trkpt>
      <trkpt lat="45.55084" lon="6.78323">
        <ele>2049.6</ele>
        <time>2021-03-25T09:30:10Z</time>
      </trkpt>
      <trkpt lat="45.55083" lon="6.78324">
        <ele>2049.6</ele>
        <time>2021-03-25T09:30:11Z</time>
      </trkpt>
      <trkpt lat="45.55083" lon="6.78325">
        <ele>2050.3</ele>
        <time>2021-03-25T09:30:12Z</time>
      </trkpt>
      <trkpt lat="45.55083" lon="6.78326">
        <ele>2050.3</ele>
        <time>2021-03-25T09:30:13Z</time>
      </trkpt>
      <trkpt lat="45.55083" lon="6.78328">
        <ele>2050.3</ele>
        <time>2021-03-25T09:30:14Z</time>
      </trkpt>
      <trkpt lat="45.55083" lon="6.78329">
        <ele>2051</ele>
        <time>2021-03-25T09:30:15Z</time>
      </trkpt>
      <trkpt lat="45.55083" lon="6.7833">
        <ele>2051</ele>
        <time>2021-03-25T09:30:16Z</time>
      </trkpt>
      <trkpt lat="45.55083" lon="6.78331">
        <ele>2051</ele>
        <time>2021-03-25T09:30:17Z</time>
      </trkpt>
      <trkpt lat="45.55083" lon="6.78332">
        <ele>2051</ele>
        <time>2021-03-25T09:30:18Z</time>
      </trkpt>
      <trkpt lat="45.55083" lon="6.78333">
        <ele>2051.8</ele>
        <time>2021-03-25T09:30:19Z</time>
      </trkpt>
      <trkpt lat="45.55083" lon="6.78334">
        <ele>2051.8</ele>
        <time>2021-03-25T09:30:20Z</time>
      </trkpt>
      <trkpt lat="45.55083" lon="6.78335">
        <ele>2051.8</ele>
        <time>2021-03-25T09:30:21Z</time>
      </trkpt>
      <trkpt lat="45.55083" lon="6.78337">
        <ele>2051.8</ele>
        <time>2021-03-25T09:30:22Z</time>
      </trkpt>
      <trkpt lat="45.55083" lon="6.78338">
        <ele>2052.5</ele>
        <time>2021-03-25T09:30:23Z</time>
      </trkpt>
      <trkpt lat="45.55083" lon="6.78339">
        <ele>2052.5</ele>
        <time>2021-03-25T09:30:24Z</time>
      </trkpt>
      <trkpt lat="45.55083" lon="6.7834">
        <ele>2052.5</ele>
        <time>2021-03-25T09:30:25Z</time>
      </trkpt>
      <trkpt lat="45.55083" lon="6.78341">
        <ele>2052.5</ele>
        <time>2021-03-25T09:30:26Z</time>
      </trkpt>
      <trkpt lat="45.55083" lon="6.78342">
        <ele>2053.3</ele>
        <time>2021-03-25T09:30:27Z</time>
      </trkpt>
      <trkpt lat="45.55083" lon="6.78343">
        <ele>2053.3</ele>
        <time>2021-03-25T09:30:28Z</time>
      </trkpt>
      <trkpt lat="45.55083" lon="6.78344">
        <ele>2053.3</ele>
        <time>2021-03-25T09:30:29Z</time>
      </trkpt>
      <trkpt lat="45.55083" lon="6.78345">
        <ele>2053.3</ele>
        <time>2021-03-25T09:30:30Z</time>
      </trkpt>
      <trkpt lat="45.55083" lon="6.78346">
        <ele>2054.1</ele>
        <time>2021-03-25T09:30:31Z</time>
      </trkpt>
      <trkpt lat="45.55083" lon="6.78347">
        <ele>2054.1</ele>
        <time>2021-03-25T09:30:32Z</time>
      </trkpt>
      <trkpt lat="45.55083" lon="6.78348">
        <ele>2054.1</ele>
        <time>2021-03-25T09:30:33Z</time>
      </trkpt>
      <trkpt lat="45.55083" lon="6.7835">
        <ele>2054.1</ele>
        <time>2021-03-25T09:30:34Z</time>
      </trkpt>
      <trkpt lat="45.55083" lon="6.7835">
        <ele>2054.8</ele>
        <time>2021-03-25T09:30:35Z</time>
      </trkpt>
      <trkpt lat="45.55083" lon="6.78351">
        <ele>2054.8</ele>
        <time>2021-03-25T09:30:36Z</time>
      </trkpt>
      <trkpt lat="45.55083" lon="6.78352">
        <ele>2054.8</ele>
        <time>2021-03-25T09:30:37Z</time>
      </trkpt>
      <trkpt lat="45.55083" lon="6.78354">
        <ele>2054.8</ele>
        <time>2021-03-25T09:30:38Z</time>
      </trkpt>
      <trkpt lat="45.55083" lon="6.78354">
        <ele>2055.6</ele>
        <time>2021-03-25T09:30:39Z</time>
      </trkpt>
      <trkpt lat="45.55083" lon="6.78355">
        <ele>2055.6</ele>
        <time>2021-03-25T09:30:40Z</time>
      </trkpt>
      <trkpt lat="45.55083" lon="6.78357">
        <ele>2055.6</ele>
        <time>2021-03-25T09:30:41Z</time>
      </trkpt>
      <trkpt lat="45.55083" lon="6.7836">
        <ele>2056.3</ele>
        <time>2021-03-25T09:30:42Z</time>
      </trkpt>
      <trkpt lat="45.55083" lon="6.78361">
        <ele>2056.3</ele>
        <time>2021-03-25T09:30:43Z</time>
      </trkpt>
      <trkpt lat="45.55083" lon="6.78363">
        <ele>2057</ele>
        <time>2021-03-25T09:30:44Z</time>
      </trkpt>
      <trkpt lat="45.55083" lon="6.78365">
        <ele>2057</ele>
        <time>2021-03-25T09:30:45Z</time>
      </trkpt>
      <trkpt lat="45.55083" lon="6.78366">
        <ele>2057</ele>
        <time>2021-03-25T09:30:46Z</time>
      </trkpt>
      <trkpt lat="45.55082" lon="6.78367">
        <ele>2057</ele>
        <time>2021-03-25T09:30:47Z</time>
      </trkpt>
      <trkpt lat="45.55082" lon="6.78368">
        <ele>2057.7</ele>
        <time>2021-03-25T09:30:48Z</time>
      </trkpt>
      <trkpt lat="45.55082" lon="6.78369">
        <ele>2057.7</ele>
        <time>2021-03-25T09:30:49Z</time>
      </trkpt>
      <trkpt lat="45.55081" lon="6.7837">
        <ele>2057.7</ele>
        <time>2021-03-25T09:30:50Z</time>
      </trkpt>
      <trkpt lat="45.55081" lon="6.78371">
        <ele>2057.9</ele>
        <time>2021-03-25T09:30:51Z</time>
      </trkpt>
      <trkpt lat="45.55081" lon="6.78372">
        <ele>2058.6</ele>
        <time>2021-03-25T09:30:52Z</time>
      </trkpt>
      <trkpt lat="45.55081" lon="6.78373">
        <ele>2058.6</ele>
        <time>2021-03-25T09:30:53Z</time>
      </trkpt>
      <trkpt lat="45.55081" lon="6.78374">
        <ele>2058.4</ele>
        <time>2021-03-25T09:30:54Z</time>
      </trkpt>
      <trkpt lat="45.55081" lon="6.78375">
        <ele>2058.4</ele>
        <time>2021-03-25T09:30:55Z</time>
      </trkpt>
      <trkpt lat="45.55081" lon="6.78376">
        <ele>2059.1</ele>
        <time>2021-03-25T09:30:56Z</time>
      </trkpt>
      <trkpt lat="45.55081" lon="6.78377">
        <ele>2059.4</ele>
        <time>2021-03-25T09:30:57Z</time>
      </trkpt>
      <trkpt lat="45.55081" lon="6.78378">
        <ele>2059.4</ele>
        <time>2021-03-25T09:30:58Z</time>
      </trkpt>
      <trkpt lat="45.5508" lon="6.78379">
        <ele>2059.4</ele>
        <time>2021-03-25T09:30:59Z</time>
      </trkpt>
      <trkpt lat="45.5508" lon="6.78381">
        <ele>2060.1</ele>
        <time>2021-03-25T09:31:00Z</time>
      </trkpt>
      <trkpt lat="45.5508" lon="6.78382">
        <ele>2060.1</ele>
        <time>2021-03-25T09:31:01Z</time>
      </trkpt>
      <trkpt lat="45.5508" lon="6.78384">
        <ele>2060.1</ele>
        <time>2021-03-25T09:31:02Z</time>
      </trkpt>
      <trkpt lat="45.5508" lon="6.78385">
        <ele>2060.9</ele>
        <time>2021-03-25T09:31:03Z</time>
      </trkpt>
      <trkpt lat="45.55082" lon="6.78387">
        <ele>2060.7</ele>
        <time>2021-03-25T09:31:04Z</time>
      </trkpt>
      <trkpt lat="45.55083" lon="6.78388">
        <ele>2060.7</ele>
        <time>2021-03-25T09:31:05Z</time>
      </trkpt>
      <trkpt lat="45.55083" lon="6.78389">
        <ele>2061.5</ele>
        <time>2021-03-25T09:31:06Z</time>
      </trkpt>
      <trkpt lat="45.55084" lon="6.78391">
        <ele>2061.5</ele>
        <time>2021-03-25T09:31:07Z</time>
      </trkpt>
      <trkpt lat="45.55085" lon="6.78392">
        <ele>2061.2</ele>
        <time>2021-03-25T09:31:08Z</time>
      </trkpt>
      <trkpt lat="45.55084" lon="6.78392">
        <ele>2061.5</ele>
        <time>2021-03-25T09:31:09Z</time>
      </trkpt>
      <trkpt lat="45.55083" lon="6.78392">
        <ele>2061.5</ele>
        <time>2021-03-25T09:31:10Z</time>
      </trkpt>
      <trkpt lat="45.55083" lon="6.78392">
        <ele>2061.5</ele>
        <time>2021-03-25T09:31:11Z</time>
      </trkpt>
      <trkpt lat="45.55082" lon="6.78393">
        <ele>2061.5</ele>
        <time>2021-03-25T09:31:12Z</time>
      </trkpt>
      <trkpt lat="45.55082" lon="6.78394">
        <ele>2062.3</ele>
        <time>2021-03-25T09:31:13Z</time>
      </trkpt>
      <trkpt lat="45.55082" lon="6.78395">
        <ele>2062.3</ele>
        <time>2021-03-25T09:31:14Z</time>
      </trkpt>
      <trkpt lat="45.55081" lon="6.78395">
        <ele>2062.3</ele>
        <time>2021-03-25T09:31:15Z</time>
      </trkpt>
      <trkpt lat="45.55081" lon="6.78396">
        <ele>2062.6</ele>
        <time>2021-03-25T09:31:16Z</time>
      </trkpt>
      <trkpt lat="45.55081" lon="6.78397">
        <ele>2062.6</ele>
        <time>2021-03-25T09:31:17Z</time>
      </trkpt>
      <trkpt lat="45.5508" lon="6.78398">
        <ele>2063.3</ele>
        <time>2021-03-25T09:31:18Z</time>
      </trkpt>
      <trkpt lat="45.55081" lon="6.78399">
        <ele>2063.3</ele>
        <time>2021-03-25T09:31:19Z</time>
      </trkpt>
      <trkpt lat="45.55081" lon="6.784">
        <ele>2063.3</ele>
        <time>2021-03-25T09:31:20Z</time>
      </trkpt>
      <trkpt lat="45.55081" lon="6.78401">
        <ele>2063.3</ele>
        <time>2021-03-25T09:31:21Z</time>
      </trkpt>
      <trkpt lat="45.55081" lon="6.78402">
        <ele>2064</ele>
        <time>2021-03-25T09:31:22Z</time>
      </trkpt>
      <trkpt lat="45.55081" lon="6.78403">
        <ele>2064</ele>
        <time>2021-03-25T09:31:23Z</time>
      </trkpt>
      <trkpt lat="45.55081" lon="6.78403">
        <ele>2064</ele>
        <time>2021-03-25T09:31:24Z</time>
      </trkpt>
      <trkpt lat="45.55081" lon="6.78404">
        <ele>2064</ele>
        <time>2021-03-25T09:31:25Z</time>
      </trkpt>
      <trkpt lat="45.55081" lon="6.78405">
        <ele>2064</ele>
        <time>2021-03-25T09:31:26Z</time>
      </trkpt>
      <trkpt lat="45.55081" lon="6.78406">
        <ele>2064.6</ele>
        <time>2021-03-25T09:31:27Z</time>
      </trkpt>
      <trkpt lat="45.55082" lon="6.78406">
        <ele>2064.4</ele>
        <time>2021-03-25T09:31:28Z</time>
      </trkpt>
      <trkpt lat="45.55082" lon="6.78407">
        <ele>2064.4</ele>
        <time>2021-03-25T09:31:29Z</time>
      </trkpt>
      <trkpt lat="45.55082" lon="6.78409">
        <ele>2064.4</ele>
        <time>2021-03-25T09:31:30Z</time>
      </trkpt>
      <trkpt lat="45.55081" lon="6.78411">
        <ele>2065.3</ele>
        <time>2021-03-25T09:31:31Z</time>
      </trkpt>
      <trkpt lat="45.55081" lon="6.78412">
        <ele>2065.3</ele>
        <time>2021-03-25T09:31:32Z</time>
      </trkpt>
      <trkpt lat="45.5508" lon="6.78413">
        <ele>2065.3</ele>
        <time>2021-03-25T09:31:33Z</time>
      </trkpt>
      <trkpt lat="45.55079" lon="6.78414">
        <ele>2065.3</ele>
        <time>2021-03-25T09:31:34Z</time>
      </trkpt>
      <trkpt lat="45.55079" lon="6.78415">
        <ele>2065.9</ele>
        <time>2021-03-25T09:31:35Z</time>
      </trkpt>
      <trkpt lat="45.55078" lon="6.78416">
        <ele>2066.2</ele>
        <time>2021-03-25T09:31:36Z</time>
      </trkpt>
      <trkpt lat="45.55077" lon="6.78416">
        <ele>2066.2</ele>
        <time>2021-03-25T09:31:37Z</time>
      </trkpt>
      <trkpt lat="45.55076" lon="6.78417">
        <ele>2066.2</ele>
        <time>2021-03-25T09:31:38Z</time>
      </trkpt>
      <trkpt lat="45.55076" lon="6.78418">
        <ele>2066.2</ele>
        <time>2021-03-25T09:31:39Z</time>
      </trkpt>
      <trkpt lat="45.55075" lon="6.78419">
        <ele>2067.2</ele>
        <time>2021-03-25T09:31:40Z</time>
      </trkpt>
      <trkpt lat="45.55074" lon="6.7842">
        <ele>2067.2</ele>
        <time>2021-03-25T09:31:41Z</time>
      </trkpt>
      <trkpt lat="45.55073" lon="6.78421">
        <ele>2067.2</ele>
        <time>2021-03-25T09:31:42Z</time>
      </trkpt>
      <trkpt lat="45.55073" lon="6.78422">
        <ele>2067.2</ele>
        <time>2021-03-25T09:31:43Z</time>
      </trkpt>
      <trkpt lat="45.55072" lon="6.78422">
        <ele>2067.5</ele>
        <time>2021-03-25T09:31:44Z</time>
      </trkpt>
      <trkpt lat="45.55071" lon="6.78423">
        <ele>2067.5</ele>
        <time>2021-03-25T09:31:45Z</time>
      </trkpt>
      <trkpt lat="45.55071" lon="6.78423">
        <ele>2068.2</ele>
        <time>2021-03-25T09:31:46Z</time>
      </trkpt>
      <trkpt lat="45.5507" lon="6.78424">
        <ele>2068.2</ele>
        <time>2021-03-25T09:31:47Z</time>
      </trkpt>
      <trkpt lat="45.5507" lon="6.78425">
        <ele>2068.2</ele>
        <time>2021-03-25T09:31:48Z</time>
      </trkpt>
      <trkpt lat="45.55069" lon="6.78426">
        <ele>2068.2</ele>
        <time>2021-03-25T09:31:49Z</time>
      </trkpt>
      <trkpt lat="45.55069" lon="6.78428">
        <ele>2069.3</ele>
        <time>2021-03-25T09:31:50Z</time>
      </trkpt>
      <trkpt lat="45.55069" lon="6.78428">
        <ele>2069.3</ele>
        <time>2021-03-25T09:31:51Z</time>
      </trkpt>
      <trkpt lat="45.55069" lon="6.78429">
        <ele>2069.3</ele>
        <time>2021-03-25T09:31:52Z</time>
      </trkpt>
      <trkpt lat="45.55068" lon="6.7843">
        <ele>2069.3</ele>
        <time>2021-03-25T09:31:53Z</time>
      </trkpt>
      <trkpt lat="45.55068" lon="6.78431">
        <ele>2069.3</ele>
        <time>2021-03-25T09:31:54Z</time>
      </trkpt>
      <trkpt lat="45.55067" lon="6.78432">
        <ele>2070.2</ele>
        <time>2021-03-25T09:31:55Z</time>
      </trkpt>
      <trkpt lat="45.55067" lon="6.78433">
        <ele>2070.2</ele>
        <time>2021-03-25T09:31:56Z</time>
      </trkpt>
      <trkpt lat="45.55066" lon="6.78434">
        <ele>2070.6</ele>
        <time>2021-03-25T09:31:57Z</time>
      </trkpt>
      <trkpt lat="45.55066" lon="6.78435">
        <ele>2070.6</ele>
        <time>2021-03-25T09:31:58Z</time>
      </trkpt>
      <trkpt lat="45.55065" lon="6.78435">
        <ele>2070.6</ele>
        <time>2021-03-25T09:31:59Z</time>
      </trkpt>
      <trkpt lat="45.55065" lon="6.78436">
        <ele>2071.5</ele>
        <time>2021-03-25T09:32:00Z</time>
      </trkpt>
      <trkpt lat="45.55064" lon="6.78437">
        <ele>2071.5</ele>
        <time>2021-03-25T09:32:01Z</time>
      </trkpt>
      <trkpt lat="45.55064" lon="6.78438">
        <ele>2071.5</ele>
        <time>2021-03-25T09:32:02Z</time>
      </trkpt>
      <trkpt lat="45.55063" lon="6.78438">
        <ele>2071.5</ele>
        <time>2021-03-25T09:32:03Z</time>
      </trkpt>
      <trkpt lat="45.55063" lon="6.7844">
        <ele>2071.8</ele>
        <time>2021-03-25T09:32:04Z</time>
      </trkpt>
      <trkpt lat="45.55063" lon="6.7844">
        <ele>2072.8</ele>
        <time>2021-03-25T09:32:05Z</time>
      </trkpt>
      <trkpt lat="45.55063" lon="6.78441">
        <ele>2072.8</ele>
        <time>2021-03-25T09:32:06Z</time>
      </trkpt>
      <trkpt lat="45.55063" lon="6.78442">
        <ele>2072.8</ele>
        <time>2021-03-25T09:32:07Z</time>
      </trkpt>
      <trkpt lat="45.55063" lon="6.78443">
        <ele>2072.8</ele>
        <time>2021-03-25T09:32:08Z</time>
      </trkpt>
      <trkpt lat="45.55063" lon="6.78444">
        <ele>2072.8</ele>
        <time>2021-03-25T09:32:09Z</time>
      </trkpt>
      <trkpt lat="45.55063" lon="6.78445">
        <ele>2073.8</ele>
        <time>2021-03-25T09:32:10Z</time>
      </trkpt>
      <trkpt lat="45.55063" lon="6.78446">
        <ele>2073.8</ele>
        <time>2021-03-25T09:32:11Z</time>
      </trkpt>
      <trkpt lat="45.55063" lon="6.78447">
        <ele>2073.4</ele>
        <time>2021-03-25T09:32:12Z</time>
      </trkpt>
      <trkpt lat="45.55064" lon="6.78447">
        <ele>2073.4</ele>
        <time>2021-03-25T09:32:13Z</time>
      </trkpt>
      <trkpt lat="45.55064" lon="6.78448">
        <ele>2073.4</ele>
        <time>2021-03-25T09:32:14Z</time>
      </trkpt>
      <trkpt lat="45.55064" lon="6.78449">
        <ele>2074.4</ele>
        <time>2021-03-25T09:32:15Z</time>
      </trkpt>
      <trkpt lat="45.55064" lon="6.7845">
        <ele>2074.4</ele>
        <time>2021-03-25T09:32:16Z</time>
      </trkpt>
      <trkpt lat="45.55064" lon="6.7845">
        <ele>2074.4</ele>
        <time>2021-03-25T09:32:17Z</time>
      </trkpt>
      <trkpt lat="45.55064" lon="6.78451">
        <ele>2074.4</ele>
        <time>2021-03-25T09:32:18Z</time>
      </trkpt>
      <trkpt lat="45.55065" lon="6.78452">
        <ele>2074.4</ele>
        <time>2021-03-25T09:32:19Z</time>
      </trkpt>
      <trkpt lat="45.55065" lon="6.78453">
        <ele>2074.4</ele>
        <time>2021-03-25T09:32:20Z</time>
      </trkpt>
      <trkpt lat="45.55065" lon="6.78453">
        <ele>2075.3</ele>
        <time>2021-03-25T09:32:21Z</time>
      </trkpt>
      <trkpt lat="45.55065" lon="6.78454">
        <ele>2075.3</ele>
        <time>2021-03-25T09:32:22Z</time>
      </trkpt>
      <trkpt lat="45.55065" lon="6.78455">
        <ele>2075.3</ele>
        <time>2021-03-25T09:32:23Z</time>
      </trkpt>
      <trkpt lat="45.55065" lon="6.78456">
        <ele>2075.3</ele>
        <time>2021-03-25T09:32:24Z</time>
      </trkpt>
      <trkpt lat="45.55065" lon="6.78456">
        <ele>2075.3</ele>
        <time>2021-03-25T09:32:25Z</time>
      </trkpt>
      <trkpt lat="45.55065" lon="6.78457">
        <ele>2075.3</ele>
        <time>2021-03-25T09:32:26Z</time>
      </trkpt>
      <trkpt lat="45.55064" lon="6.78458">
        <ele>2076.3</ele>
        <time>2021-03-25T09:32:27Z</time>
      </trkpt>
      <trkpt lat="45.55064" lon="6.78458">
        <ele>2076.3</ele>
        <time>2021-03-25T09:32:28Z</time>
      </trkpt>
      <trkpt lat="45.55063" lon="6.78459">
        <ele>2076.6</ele>
        <time>2021-03-25T09:32:29Z</time>
      </trkpt>
      <trkpt lat="45.55062" lon="6.78459">
        <ele>2076.6</ele>
        <time>2021-03-25T09:32:30Z</time>
      </trkpt>
      <trkpt lat="45.55062" lon="6.7846">
        <ele>2076.6</ele>
        <time>2021-03-25T09:32:31Z</time>
      </trkpt>
      <trkpt lat="45.55061" lon="6.7846">
        <ele>2076.6</ele>
        <time>2021-03-25T09:32:32Z</time>
      </trkpt>
      <trkpt lat="45.5506" lon="6.7846">
        <ele>2076.6</ele>
        <time>2021-03-25T09:32:33Z</time>
      </trkpt>
      <trkpt lat="45.5506" lon="6.78461">
        <ele>2076.9</ele>
        <time>2021-03-25T09:32:34Z</time>
      </trkpt>
      <trkpt lat="45.55059" lon="6.78461">
        <ele>2076.9</ele>
        <time>2021-03-25T09:32:35Z</time>
      </trkpt>
      <trkpt lat="45.55059" lon="6.78462">
        <ele>2077.9</ele>
        <time>2021-03-25T09:32:36Z</time>
      </trkpt>
      <trkpt lat="45.55058" lon="6.78462">
        <ele>2077.9</ele>
        <time>2021-03-25T09:32:37Z</time>
      </trkpt>
      <trkpt lat="45.55057" lon="6.78463">
        <ele>2077.9</ele>
        <time>2021-03-25T09:32:38Z</time>
      </trkpt>
      <trkpt lat="45.55057" lon="6.78463">
        <ele>2078.2</ele>
        <time>2021-03-25T09:32:39Z</time>
      </trkpt>
      <trkpt lat="45.55056" lon="6.78464">
        <ele>2078.2</ele>
        <time>2021-03-25T09:32:40Z</time>
      </trkpt>
      <trkpt lat="45.55056" lon="6.78464">
        <ele>2078.2</ele>
        <time>2021-03-25T09:32:41Z</time>
      </trkpt>
      <trkpt lat="45.55056" lon="6.78465">
        <ele>2078.2</ele>
        <time>2021-03-25T09:32:42Z</time>
      </trkpt>
      <trkpt lat="45.55055" lon="6.78465">
        <ele>2078.2</ele>
        <time>2021-03-25T09:32:43Z</time>
      </trkpt>
      <trkpt lat="45.55055" lon="6.78466">
        <ele>2079.2</ele>
        <time>2021-03-25T09:32:44Z</time>
      </trkpt>
      <trkpt lat="45.55054" lon="6.78467">
        <ele>2079.5</ele>
        <time>2021-03-25T09:32:45Z</time>
      </trkpt>
      <trkpt lat="45.55054" lon="6.78467">
        <ele>2079.5</ele>
        <time>2021-03-25T09:32:46Z</time>
      </trkpt>
      <trkpt lat="45.55053" lon="6.78468">
        <ele>2079.5</ele>
        <time>2021-03-25T09:32:47Z</time>
      </trkpt>
      <trkpt lat="45.55053" lon="6.78469">
        <ele>2079.5</ele>
        <time>2021-03-25T09:32:48Z</time>
      </trkpt>
      <trkpt lat="45.55054" lon="6.7847">
        <ele>2079.5</ele>
        <time>2021-03-25T09:32:49Z</time>
      </trkpt>
      <trkpt lat="45.55054" lon="6.78471">
        <ele>2080.5</ele>
        <time>2021-03-25T09:32:50Z</time>
      </trkpt>
      <trkpt lat="45.55054" lon="6.78472">
        <ele>2080.5</ele>
        <time>2021-03-25T09:32:51Z</time>
      </trkpt>
      <trkpt lat="45.55054" lon="6.78472">
        <ele>2080.3</ele>
        <time>2021-03-25T09:32:52Z</time>
      </trkpt>
      <trkpt lat="45.55054" lon="6.78473">
        <ele>2080.3</ele>
        <time>2021-03-25T09:32:53Z</time>
      </trkpt>
      <trkpt lat="45.55055" lon="6.78474">
        <ele>2080.3</ele>
        <time>2021-03-25T09:32:54Z</time>
      </trkpt>
      <trkpt lat="45.55056" lon="6.78474">
        <ele>2080.3</ele>
        <time>2021-03-25T09:32:55Z</time>
      </trkpt>
      <trkpt lat="45.55057" lon="6.78474">
        <ele>2080</ele>
        <time>2021-03-25T09:32:56Z</time>
      </trkpt>
      <trkpt lat="45.55058" lon="6.78475">
        <ele>2081.1</ele>
        <time>2021-03-25T09:32:57Z</time>
      </trkpt>
      <trkpt lat="45.5506" lon="6.78475">
        <ele>2081.1</ele>
        <time>2021-03-25T09:32:58Z</time>
      </trkpt>
      <trkpt lat="45.55061" lon="6.78476">
        <ele>2080.8</ele>
        <time>2021-03-25T09:32:59Z</time>
      </trkpt>
      <trkpt lat="45.55061" lon="6.78477">
        <ele>2080.8</ele>
        <time>2021-03-25T09:33:00Z</time>
      </trkpt>
      <trkpt lat="45.55061" lon="6.78477">
        <ele>2080.8</ele>
        <time>2021-03-25T09:33:01Z</time>
      </trkpt>
      <trkpt lat="45.55061" lon="6.78478">
        <ele>2080.8</ele>
        <time>2021-03-25T09:33:02Z</time>
      </trkpt>
      <trkpt lat="45.55061" lon="6.78479">
        <ele>2082</ele>
        <time>2021-03-25T09:33:03Z</time>
      </trkpt>
      <trkpt lat="45.55061" lon="6.7848">
        <ele>2082</ele>
        <time>2021-03-25T09:33:04Z</time>
      </trkpt>
      <trkpt lat="45.55061" lon="6.7848">
        <ele>2082</ele>
        <time>2021-03-25T09:33:05Z</time>
      </trkpt>
      <trkpt lat="45.55061" lon="6.7848">
        <ele>2082</ele>
        <time>2021-03-25T09:33:06Z</time>
      </trkpt>
      <trkpt lat="45.55061" lon="6.7848">
        <ele>2082</ele>
        <time>2021-03-25T09:33:07Z</time>
      </trkpt>
      <trkpt lat="45.5506" lon="6.78481">
        <ele>2082.2</ele>
        <time>2021-03-25T09:33:08Z</time>
      </trkpt>
      <trkpt lat="45.55059" lon="6.78482">
        <ele>2082.2</ele>
        <time>2021-03-25T09:33:09Z</time>
      </trkpt>
      <trkpt lat="45.55059" lon="6.78482">
        <ele>2082.2</ele>
        <time>2021-03-25T09:33:10Z</time>
      </trkpt>
      <trkpt lat="45.55058" lon="6.78483">
        <ele>2082.2</ele>
        <time>2021-03-25T09:33:11Z</time>
      </trkpt>
      <trkpt lat="45.55058" lon="6.78483">
        <ele>2082.2</ele>
        <time>2021-03-25T09:33:12Z</time>
      </trkpt>
      <trkpt lat="45.55057" lon="6.78483">
        <ele>2083.3</ele>
        <time>2021-03-25T09:33:13Z</time>
      </trkpt>
      <trkpt lat="45.55056" lon="6.78485">
        <ele>2083.6</ele>
        <time>2021-03-25T09:33:14Z</time>
      </trkpt>
      <trkpt lat="45.55055" lon="6.78486">
        <ele>2083.6</ele>
        <time>2021-03-25T09:33:19Z</time>
      </trkpt>
      <trkpt lat="45.55054" lon="6.78487">
        <ele>2083.8</ele>
        <time>2021-03-25T09:33:20Z</time>
      </trkpt>
      <trkpt lat="45.55053" lon="6.78488">
        <ele>2084.9</ele>
        <time>2021-03-25T09:33:21Z</time>
      </trkpt>
      <trkpt lat="45.55052" lon="6.78489">
        <ele>2084.9</ele>
        <time>2021-03-25T09:33:22Z</time>
      </trkpt>
      <trkpt lat="45.55051" lon="6.78489">
        <ele>2085.1</ele>
        <time>2021-03-25T09:33:23Z</time>
      </trkpt>
      <trkpt lat="45.55051" lon="6.78489">
        <ele>2085.1</ele>
        <time>2021-03-25T09:33:24Z</time>
      </trkpt>
      <trkpt lat="45.5505" lon="6.78489">
        <ele>2085.1</ele>
        <time>2021-03-25T09:33:25Z</time>
      </trkpt>
      <trkpt lat="45.55049" lon="6.78489">
        <ele>2085.1</ele>
        <time>2021-03-25T09:33:26Z</time>
      </trkpt>
      <trkpt lat="45.55049" lon="6.7849">
        <ele>2085.1</ele>
        <time>2021-03-25T09:33:27Z</time>
      </trkpt>
      <trkpt lat="45.55048" lon="6.7849">
        <ele>2085.1</ele>
        <time>2021-03-25T09:33:28Z</time>
      </trkpt>
      <trkpt lat="45.55048" lon="6.7849">
        <ele>2085.3</ele>
        <time>2021-03-25T09:33:29Z</time>
      </trkpt>
      <trkpt lat="45.55047" lon="6.7849">
        <ele>2085.3</ele>
        <time>2021-03-25T09:33:30Z</time>
      </trkpt>
      <trkpt lat="45.55047" lon="6.78491">
        <ele>2085.3</ele>
        <time>2021-03-25T09:33:31Z</time>
      </trkpt>
      <trkpt lat="45.55046" lon="6.78491">
        <ele>2085.3</ele>
        <time>2021-03-25T09:33:32Z</time>
      </trkpt>
      <trkpt lat="45.55046" lon="6.78492">
        <ele>2086.3</ele>
        <time>2021-03-25T09:33:33Z</time>
      </trkpt>
      <trkpt lat="45.55047" lon="6.78493">
        <ele>2086.3</ele>
        <time>2021-03-25T09:33:34Z</time>
      </trkpt>
      <trkpt lat="45.55047" lon="6.78494">
        <ele>2086.3</ele>
        <time>2021-03-25T09:33:35Z</time>
      </trkpt>
      <trkpt lat="45.55048" lon="6.78494">
        <ele>2086.3</ele>
        <time>2021-03-25T09:33:36Z</time>
      </trkpt>
      <trkpt lat="45.55048" lon="6.78495">
        <ele>2086.3</ele>
        <time>2021-03-25T09:33:37Z</time>
      </trkpt>
      <trkpt lat="45.55048" lon="6.78496">
        <ele>2086.1</ele>
        <time>2021-03-25T09:33:38Z</time>
      </trkpt>
      <trkpt lat="45.55049" lon="6.78496">
        <ele>2087.1</ele>
        <time>2021-03-25T09:33:39Z</time>
      </trkpt>
      <trkpt lat="45.55049" lon="6.78497">
        <ele>2087.1</ele>
        <time>2021-03-25T09:33:40Z</time>
      </trkpt>
      <trkpt lat="45.55049" lon="6.78497">
        <ele>2087.1</ele>
        <time>2021-03-25T09:33:41Z</time>
      </trkpt>
      <trkpt lat="45.55048" lon="6.78498">
        <ele>2087.1</ele>
        <time>2021-03-25T09:33:42Z</time>
      </trkpt>
      <trkpt lat="45.55049" lon="6.78499">
        <ele>2087.1</ele>
        <time>2021-03-25T09:33:43Z</time>
      </trkpt>
      <trkpt lat="45.55049" lon="6.78499">
        <ele>2087.1</ele>
        <time>2021-03-25T09:33:44Z</time>
      </trkpt>
      <trkpt lat="45.5505" lon="6.785">
        <ele>2087.1</ele>
        <time>2021-03-25T09:33:45Z</time>
      </trkpt>
      <trkpt lat="45.5505" lon="6.785">
        <ele>2088.1</ele>
        <time>2021-03-25T09:33:46Z</time>
      </trkpt>
      <trkpt lat="45.5505" lon="6.78501">
        <ele>2088.1</ele>
        <time>2021-03-25T09:33:47Z</time>
      </trkpt>
      <trkpt lat="45.5505" lon="6.78502">
        <ele>2088.1</ele>
        <time>2021-03-25T09:33:48Z</time>
      </trkpt>
      <trkpt lat="45.5505" lon="6.78503">
        <ele>2088.1</ele>
        <time>2021-03-25T09:33:49Z</time>
      </trkpt>
      <trkpt lat="45.55051" lon="6.78504">
        <ele>2088.1</ele>
        <time>2021-03-25T09:33:50Z</time>
      </trkpt>
      <trkpt lat="45.55052" lon="6.78504">
        <ele>2087.9</ele>
        <time>2021-03-25T09:33:51Z</time>
      </trkpt>
      <trkpt lat="45.55052" lon="6.78505">
        <ele>2088.9</ele>
        <time>2021-03-25T09:33:52Z</time>
      </trkpt>
      <trkpt lat="45.55052" lon="6.78506">
        <ele>2088.9</ele>
        <time>2021-03-25T09:33:53Z</time>
      </trkpt>
      <trkpt lat="45.55051" lon="6.78506">
        <ele>2088.9</ele>
        <time>2021-03-25T09:33:55Z</time>
      </trkpt>
      <trkpt lat="45.55051" lon="6.78507">
        <ele>2089.1</ele>
        <time>2021-03-25T09:33:56Z</time>
      </trkpt>
      <trkpt lat="45.55051" lon="6.78508">
        <ele>2089.1</ele>
        <time>2021-03-25T09:33:57Z</time>
      </trkpt>
      <trkpt lat="45.55051" lon="6.78509">
        <ele>2090.1</ele>
        <time>2021-03-25T09:33:58Z</time>
      </trkpt>
      <trkpt lat="45.55051" lon="6.7851">
        <ele>2090.1</ele>
        <time>2021-03-25T09:33:59Z</time>
      </trkpt>
      <trkpt lat="45.55051" lon="6.7851">
        <ele>2089.9</ele>
        <time>2021-03-25T09:34:00Z</time>
      </trkpt>
      <trkpt lat="45.55052" lon="6.78511">
        <ele>2089.9</ele>
        <time>2021-03-25T09:34:01Z</time>
      </trkpt>
      <trkpt lat="45.55052" lon="6.78512">
        <ele>2089.9</ele>
        <time>2021-03-25T09:34:02Z</time>
      </trkpt>
      <trkpt lat="45.55051" lon="6.78513">
        <ele>2089.9</ele>
        <time>2021-03-25T09:34:03Z</time>
      </trkpt>
      <trkpt lat="45.55051" lon="6.78514">
        <ele>2091.1</ele>
        <time>2021-03-25T09:34:04Z</time>
      </trkpt>
      <trkpt lat="45.5505" lon="6.78515">
        <ele>2091.1</ele>
        <time>2021-03-25T09:34:05Z</time>
      </trkpt>
      <trkpt lat="45.5505" lon="6.78516">
        <ele>2091.1</ele>
        <time>2021-03-25T09:34:06Z</time>
      </trkpt>
      <trkpt lat="45.5505" lon="6.78517">
        <ele>2091.1</ele>
        <time>2021-03-25T09:34:07Z</time>
      </trkpt>
      <trkpt lat="45.55049" lon="6.78518">
        <ele>2092.2</ele>
        <time>2021-03-25T09:34:08Z</time>
      </trkpt>
      <trkpt lat="45.55049" lon="6.78519">
        <ele>2092.2</ele>
        <time>2021-03-25T09:34:09Z</time>
      </trkpt>
      <trkpt lat="45.55049" lon="6.7852">
        <ele>2092.2</ele>
        <time>2021-03-25T09:34:10Z</time>
      </trkpt>
      <trkpt lat="45.55048" lon="6.78521">
        <ele>2092.2</ele>
        <time>2021-03-25T09:34:11Z</time>
      </trkpt>
      <trkpt lat="45.55048" lon="6.78521">
        <ele>2092.2</ele>
        <time>2021-03-25T09:34:12Z</time>
      </trkpt>
      <trkpt lat="45.55048" lon="6.78522">
        <ele>2093.5</ele>
        <time>2021-03-25T09:34:13Z</time>
      </trkpt>
      <trkpt lat="45.55047" lon="6.78523">
        <ele>2093.5</ele>
        <time>2021-03-25T09:34:14Z</time>
      </trkpt>
      <trkpt lat="45.55046" lon="6.78524">
        <ele>2093.5</ele>
        <time>2021-03-25T09:34:15Z</time>
      </trkpt>
      <trkpt lat="45.55046" lon="6.78524">
        <ele>2093.5</ele>
        <time>2021-03-25T09:34:16Z</time>
      </trkpt>
      <trkpt lat="45.55045" lon="6.78525">
        <ele>2093.5</ele>
        <time>2021-03-25T09:34:17Z</time>
      </trkpt>
      <trkpt lat="45.55045" lon="6.78526">
        <ele>2093.5</ele>
        <time>2021-03-25T09:34:18Z</time>
      </trkpt>
      <trkpt lat="45.55045" lon="6.78526">
        <ele>2094.8</ele>
        <time>2021-03-25T09:34:19Z</time>
      </trkpt>
      <trkpt lat="45.55044" lon="6.78527">
        <ele>2094.8</ele>
        <time>2021-03-25T09:34:20Z</time>
      </trkpt>
      <trkpt lat="45.55044" lon="6.78528">
        <ele>2094.8</ele>
        <time>2021-03-25T09:34:21Z</time>
      </trkpt>
      <trkpt lat="45.55043" lon="6.78528">
        <ele>2094.8</ele>
        <time>2021-03-25T09:34:22Z</time>
      </trkpt>
      <trkpt lat="45.55042" lon="6.78529">
        <ele>2095</ele>
        <time>2021-03-25T09:34:23Z</time>
      </trkpt>
      <trkpt lat="45.55041" lon="6.78529">
        <ele>2095</ele>
        <time>2021-03-25T09:34:24Z</time>
      </trkpt>
      <trkpt lat="45.5504" lon="6.7853">
        <ele>2095</ele>
        <time>2021-03-25T09:34:25Z</time>
      </trkpt>
      <trkpt lat="45.5504" lon="6.7853">
        <ele>2095</ele>
        <time>2021-03-25T09:34:26Z</time>
      </trkpt>
      <trkpt lat="45.5504" lon="6.78531">
        <ele>2096</ele>
        <time>2021-03-25T09:34:27Z</time>
      </trkpt>
      <trkpt lat="45.55039" lon="6.78531">
        <ele>2096</ele>
        <time>2021-03-25T09:34:28Z</time>
      </trkpt>
      <trkpt lat="45.55039" lon="6.78532">
        <ele>2096.2</ele>
        <time>2021-03-25T09:34:29Z</time>
      </trkpt>
      <trkpt lat="45.55039" lon="6.78533">
        <ele>2096.2</ele>
        <time>2021-03-25T09:34:30Z</time>
      </trkpt>
      <trkpt lat="45.55039" lon="6.78533">
        <ele>2096</ele>
        <time>2021-03-25T09:34:31Z</time>
      </trkpt>
      <trkpt lat="45.5504" lon="6.78534">
        <ele>2096</ele>
        <time>2021-03-25T09:34:32Z</time>
      </trkpt>
      <trkpt lat="45.5504" lon="6.78535">
        <ele>2096.9</ele>
        <time>2021-03-25T09:34:33Z</time>
      </trkpt>
      <trkpt lat="45.5504" lon="6.78536">
        <ele>2096.9</ele>
        <time>2021-03-25T09:34:34Z</time>
      </trkpt>
      <trkpt lat="45.5504" lon="6.78536">
        <ele>2096.9</ele>
        <time>2021-03-25T09:34:35Z</time>
      </trkpt>
      <trkpt lat="45.55041" lon="6.78537">
        <ele>2096.9</ele>
        <time>2021-03-25T09:34:36Z</time>
      </trkpt>
      <trkpt lat="45.55041" lon="6.78538">
        <ele>2096.9</ele>
        <time>2021-03-25T09:34:37Z</time>
      </trkpt>
      <trkpt lat="45.55041" lon="6.78539">
        <ele>2097.7</ele>
        <time>2021-03-25T09:34:38Z</time>
      </trkpt>
      <trkpt lat="45.55042" lon="6.7854">
        <ele>2097.7</ele>
        <time>2021-03-25T09:34:39Z</time>
      </trkpt>
      <trkpt lat="45.55042" lon="6.78541">
        <ele>2097.6</ele>
        <time>2021-03-25T09:34:40Z</time>
      </trkpt>
      <trkpt lat="45.55043" lon="6.78542">
        <ele>2097.6</ele>
        <time>2021-03-25T09:34:41Z</time>
      </trkpt>
      <trkpt lat="45.55044" lon="6.78544">
        <ele>2098.4</ele>
        <time>2021-03-25T09:34:42Z</time>
      </trkpt>
      <trkpt lat="45.55045" lon="6.78546">
        <ele>2098.3</ele>
        <time>2021-03-25T09:34:43Z</time>
      </trkpt>
      <trkpt lat="45.55048" lon="6.78551">
        <ele>2098.9</ele>
        <time>2021-03-25T09:34:44Z</time>
      </trkpt>
      <trkpt lat="45.55051" lon="6.78554">
        <ele>2099.8</ele>
        <time>2021-03-25T09:34:45Z</time>
      </trkpt>
      <trkpt lat="45.55053" lon="6.78556">
        <ele>2100.5</ele>
        <time>2021-03-25T09:34:46Z</time>
      </trkpt>
      <trkpt lat="45.55053" lon="6.78556">
        <ele>2100.5</ele>
        <time>2021-03-25T09:34:47Z</time>
      </trkpt>
      <trkpt lat="45.55053" lon="6.78556">
        <ele>2100.5</ele>
        <time>2021-03-25T09:34:48Z</time>
      </trkpt>
      <trkpt lat="45.55052" lon="6.78556">
        <ele>2100.5</ele>
        <time>2021-03-25T09:34:49Z</time>
      </trkpt>
      <trkpt lat="45.55051" lon="6.78556">
        <ele>2100.6</ele>
        <time>2021-03-25T09:34:50Z</time>
      </trkpt>
      <trkpt lat="45.55049" lon="6.78556">
        <ele>2100.6</ele>
        <time>2021-03-25T09:34:51Z</time>
      </trkpt>
      <trkpt lat="45.55048" lon="6.78556">
        <ele>2100.7</ele>
        <time>2021-03-25T09:34:52Z</time>
      </trkpt>
      <trkpt lat="45.55047" lon="6.78557">
        <ele>2100.7</ele>
        <time>2021-03-25T09:34:53Z</time>
      </trkpt>
      <trkpt lat="45.55046" lon="6.78557">
        <ele>2100.7</ele>
        <time>2021-03-25T09:34:54Z</time>
      </trkpt>
      <trkpt lat="45.55045" lon="6.78557">
        <ele>2100.7</ele>
        <time>2021-03-25T09:34:55Z</time>
      </trkpt>
      <trkpt lat="45.55044" lon="6.78558">
        <ele>2100.8</ele>
        <time>2021-03-25T09:34:56Z</time>
      </trkpt>
      <trkpt lat="45.55043" lon="6.78558">
        <ele>2100.8</ele>
        <time>2021-03-25T09:34:57Z</time>
      </trkpt>
      <trkpt lat="45.55043" lon="6.78559">
        <ele>2100.8</ele>
        <time>2021-03-25T09:34:58Z</time>
      </trkpt>
      <trkpt lat="45.55042" lon="6.78559">
        <ele>2100.9</ele>
        <time>2021-03-25T09:34:59Z</time>
      </trkpt>
      <trkpt lat="45.55042" lon="6.7856">
        <ele>2100.9</ele>
        <time>2021-03-25T09:35:00Z</time>
      </trkpt>
      <trkpt lat="45.55041" lon="6.7856">
        <ele>2100.9</ele>
        <time>2021-03-25T09:35:01Z</time>
      </trkpt>
      <trkpt lat="45.5504" lon="6.7856">
        <ele>2100.9</ele>
        <time>2021-03-25T09:35:02Z</time>
      </trkpt>
      <trkpt lat="45.5504" lon="6.78561">
        <ele>2101.7</ele>
        <time>2021-03-25T09:35:03Z</time>
      </trkpt>
      <trkpt lat="45.55039" lon="6.78561">
        <ele>2101.8</ele>
        <time>2021-03-25T09:35:04Z</time>
      </trkpt>
      <trkpt lat="45.55039" lon="6.78562">
        <ele>2101.8</ele>
        <time>2021-03-25T09:35:05Z</time>
      </trkpt>
      <trkpt lat="45.55038" lon="6.78562">
        <ele>2101.8</ele>
        <time>2021-03-25T09:35:06Z</time>
      </trkpt>
      <trkpt lat="45.55038" lon="6.78563">
        <ele>2101.8</ele>
        <time>2021-03-25T09:35:07Z</time>
      </trkpt>
      <trkpt lat="45.55037" lon="6.78564">
        <ele>2101.8</ele>
        <time>2021-03-25T09:35:08Z</time>
      </trkpt>
      <trkpt lat="45.55037" lon="6.78564">
        <ele>2101.8</ele>
        <time>2021-03-25T09:35:09Z</time>
      </trkpt>
      <trkpt lat="45.55037" lon="6.78565">
        <ele>2102.6</ele>
        <time>2021-03-25T09:35:10Z</time>
      </trkpt>
      <trkpt lat="45.55038" lon="6.78565">
        <ele>2102.6</ele>
        <time>2021-03-25T09:35:11Z</time>
      </trkpt>
      <trkpt lat="45.55037" lon="6.78566">
        <ele>2102.6</ele>
        <time>2021-03-25T09:35:12Z</time>
      </trkpt>
      <trkpt lat="45.55037" lon="6.78567">
        <ele>2102.6</ele>
        <time>2021-03-25T09:35:13Z</time>
      </trkpt>
      <trkpt lat="45.55038" lon="6.78568">
        <ele>2102.6</ele>
        <time>2021-03-25T09:35:14Z</time>
      </trkpt>
      <trkpt lat="45.55038" lon="6.78568">
        <ele>2102.6</ele>
        <time>2021-03-25T09:35:15Z</time>
      </trkpt>
      <trkpt lat="45.55038" lon="6.78568">
        <ele>2102.6</ele>
        <time>2021-03-25T09:35:16Z</time>
      </trkpt>
      <trkpt lat="45.55039" lon="6.78569">
        <ele>2102.6</ele>
        <time>2021-03-25T09:35:17Z</time>
      </trkpt>
      <trkpt lat="45.55039" lon="6.78569">
        <ele>2103.4</ele>
        <time>2021-03-25T09:35:18Z</time>
      </trkpt>
      <trkpt lat="45.55039" lon="6.7857">
        <ele>2103.4</ele>
        <time>2021-03-25T09:35:19Z</time>
      </trkpt>
      <trkpt lat="45.55039" lon="6.78571">
        <ele>2103.4</ele>
        <time>2021-03-25T09:35:20Z</time>
      </trkpt>
      <trkpt lat="45.55039" lon="6.78571">
        <ele>2103.3</ele>
        <time>2021-03-25T09:35:21Z</time>
      </trkpt>
      <trkpt lat="45.5504" lon="6.78572">
        <ele>2103.3</ele>
        <time>2021-03-25T09:35:22Z</time>
      </trkpt>
      <trkpt lat="45.5504" lon="6.78573">
        <ele>2103.3</ele>
        <time>2021-03-25T09:35:23Z</time>
      </trkpt>
      <trkpt lat="45.5504" lon="6.78574">
        <ele>2104</ele>
        <time>2021-03-25T09:35:24Z</time>
      </trkpt>
      <trkpt lat="45.5504" lon="6.78575">
        <ele>2104</ele>
        <time>2021-03-25T09:35:25Z</time>
      </trkpt>
      <trkpt lat="45.5504" lon="6.78576">
        <ele>2104</ele>
        <time>2021-03-25T09:35:26Z</time>
      </trkpt>
      <trkpt lat="45.5504" lon="6.78576">
        <ele>2104</ele>
        <time>2021-03-25T09:35:27Z</time>
      </trkpt>
      <trkpt lat="45.5504" lon="6.78577">
        <ele>2104</ele>
        <time>2021-03-25T09:35:28Z</time>
      </trkpt>
      <trkpt lat="45.5504" lon="6.78578">
        <ele>2104.8</ele>
        <time>2021-03-25T09:35:29Z</time>
      </trkpt>
      <trkpt lat="45.55039" lon="6.78579">
        <ele>2104.9</ele>
        <time>2021-03-25T09:35:30Z</time>
      </trkpt>
      <trkpt lat="45.55039" lon="6.78579">
        <ele>2104.9</ele>
        <time>2021-03-25T09:35:31Z</time>
      </trkpt>
      <trkpt lat="45.55038" lon="6.7858">
        <ele>2104.9</ele>
        <time>2021-03-25T09:35:32Z</time>
      </trkpt>
      <trkpt lat="45.55038" lon="6.78581">
        <ele>2104.9</ele>
        <time>2021-03-25T09:35:33Z</time>
      </trkpt>
      <trkpt lat="45.55037" lon="6.78582">
        <ele>2104.9</ele>
        <time>2021-03-25T09:35:34Z</time>
      </trkpt>
      <trkpt lat="45.55037" lon="6.78582">
        <ele>2105.7</ele>
        <time>2021-03-25T09:35:35Z</time>
      </trkpt>
      <trkpt lat="45.55036" lon="6.78583">
        <ele>2105.7</ele>
        <time>2021-03-25T09:35:36Z</time>
      </trkpt>
      <trkpt lat="45.55036" lon="6.78584">
        <ele>2105.8</ele>
        <time>2021-03-25T09:35:37Z</time>
      </trkpt>
      <trkpt lat="45.55036" lon="6.78585">
        <ele>2105.8</ele>
        <time>2021-03-25T09:35:38Z</time>
      </trkpt>
      <trkpt lat="45.55035" lon="6.78586">
        <ele>2105.8</ele>
        <time>2021-03-25T09:35:39Z</time>
      </trkpt>
      <trkpt lat="45.55035" lon="6.78586">
        <ele>2106.6</ele>
        <time>2021-03-25T09:35:40Z</time>
      </trkpt>
      <trkpt lat="45.55035" lon="6.78587">
        <ele>2106.6</ele>
        <time>2021-03-25T09:35:41Z</time>
      </trkpt>
      <trkpt lat="45.55035" lon="6.78588">
        <ele>2106.6</ele>
        <time>2021-03-25T09:35:42Z</time>
      </trkpt>
      <trkpt lat="45.55035" lon="6.78589">
        <ele>2106.6</ele>
        <time>2021-03-25T09:35:43Z</time>
      </trkpt>
      <trkpt lat="45.55035" lon="6.78589">
        <ele>2106.6</ele>
        <time>2021-03-25T09:35:44Z</time>
      </trkpt>
      <trkpt lat="45.55034" lon="6.7859">
        <ele>2106.6</ele>
        <time>2021-03-25T09:35:45Z</time>
      </trkpt>
      <trkpt lat="45.55034" lon="6.78591">
        <ele>2107.3</ele>
        <time>2021-03-25T09:35:46Z</time>
      </trkpt>
      <trkpt lat="45.55034" lon="6.78591">
        <ele>2107.3</ele>
        <time>2021-03-25T09:35:47Z</time>
      </trkpt>
      <trkpt lat="45.55034" lon="6.78592">
        <ele>2107.3</ele>
        <time>2021-03-25T09:35:48Z</time>
      </trkpt>
      <trkpt lat="45.55034" lon="6.78593">
        <ele>2107.3</ele>
        <time>2021-03-25T09:35:49Z</time>
      </trkpt>
      <trkpt lat="45.55034" lon="6.78594">
        <ele>2107.3</ele>
        <time>2021-03-25T09:35:50Z</time>
      </trkpt>
      <trkpt lat="45.55034" lon="6.78595">
        <ele>2107.3</ele>
        <time>2021-03-25T09:35:51Z</time>
      </trkpt>
      <trkpt lat="45.55034" lon="6.78595">
        <ele>2108.1</ele>
        <time>2021-03-25T09:35:52Z</time>
      </trkpt>
      <trkpt lat="45.55034" lon="6.78596">
        <ele>2108.1</ele>
        <time>2021-03-25T09:35:53Z</time>
      </trkpt>
      <trkpt lat="45.55034" lon="6.78597">
        <ele>2108.1</ele>
        <time>2021-03-25T09:35:54Z</time>
      </trkpt>
      <trkpt lat="45.55033" lon="6.78598">
        <ele>2108.1</ele>
        <time>2021-03-25T09:35:55Z</time>
      </trkpt>
      <trkpt lat="45.55033" lon="6.78598">
        <ele>2108.3</ele>
        <time>2021-03-25T09:35:56Z</time>
      </trkpt>
      <trkpt lat="45.55033" lon="6.78599">
        <ele>2108.3</ele>
        <time>2021-03-25T09:35:57Z</time>
      </trkpt>
      <trkpt lat="45.55032" lon="6.78599">
        <ele>2109.1</ele>
        <time>2021-03-25T09:35:58Z</time>
      </trkpt>
      <trkpt lat="45.55032" lon="6.786">
        <ele>2109.1</ele>
        <time>2021-03-25T09:35:59Z</time>
      </trkpt>
      <trkpt lat="45.55032" lon="6.78601">
        <ele>2109.1</ele>
        <time>2021-03-25T09:36:00Z</time>
      </trkpt>
      <trkpt lat="45.55031" lon="6.78602">
        <ele>2109.1</ele>
        <time>2021-03-25T09:36:01Z</time>
      </trkpt>
      <trkpt lat="45.55031" lon="6.78603">
        <ele>2109.1</ele>
        <time>2021-03-25T09:36:02Z</time>
      </trkpt>
      <trkpt lat="45.5503" lon="6.78603">
        <ele>2110</ele>
        <time>2021-03-25T09:36:03Z</time>
      </trkpt>
      <trkpt lat="45.5503" lon="6.78604">
        <ele>2110.3</ele>
        <time>2021-03-25T09:36:04Z</time>
      </trkpt>
      <trkpt lat="45.5503" lon="6.78605">
        <ele>2110.3</ele>
        <time>2021-03-25T09:36:05Z</time>
      </trkpt>
      <trkpt lat="45.55029" lon="6.78606">
        <ele>2110.3</ele>
        <time>2021-03-25T09:36:06Z</time>
      </trkpt>
      <trkpt lat="45.55029" lon="6.78606">
        <ele>2110.3</ele>
        <time>2021-03-25T09:36:07Z</time>
      </trkpt>
      <trkpt lat="45.55028" lon="6.78607">
        <ele>2110.3</ele>
        <time>2021-03-25T09:36:08Z</time>
      </trkpt>
      <trkpt lat="45.55028" lon="6.78608">
        <ele>2111.2</ele>
        <time>2021-03-25T09:36:09Z</time>
      </trkpt>
      <trkpt lat="45.55028" lon="6.78609">
        <ele>2111.2</ele>
        <time>2021-03-25T09:36:10Z</time>
      </trkpt>
      <trkpt lat="45.55028" lon="6.7861">
        <ele>2111.2</ele>
        <time>2021-03-25T09:36:11Z</time>
      </trkpt>
      <trkpt lat="45.55028" lon="6.7861">
        <ele>2111.2</ele>
        <time>2021-03-25T09:36:12Z</time>
      </trkpt>
      <trkpt lat="45.55028" lon="6.78612">
        <ele>2112.1</ele>
        <time>2021-03-25T09:36:13Z</time>
      </trkpt>
      <trkpt lat="45.55028" lon="6.78614">
        <ele>2112.1</ele>
        <time>2021-03-25T09:36:14Z</time>
      </trkpt>
      <trkpt lat="45.55028" lon="6.78615">
        <ele>2112.1</ele>
        <time>2021-03-25T09:36:15Z</time>
      </trkpt>
      <trkpt lat="45.55029" lon="6.78616">
        <ele>2112.1</ele>
        <time>2021-03-25T09:36:16Z</time>
      </trkpt>
      <trkpt lat="45.55029" lon="6.78616">
        <ele>2113</ele>
        <time>2021-03-25T09:36:17Z</time>
      </trkpt>
      <trkpt lat="45.55029" lon="6.78617">
        <ele>2113</ele>
        <time>2021-03-25T09:36:18Z</time>
      </trkpt>
      <trkpt lat="45.55029" lon="6.78618">
        <ele>2113</ele>
        <time>2021-03-25T09:36:19Z</time>
      </trkpt>
      <trkpt lat="45.55029" lon="6.78619">
        <ele>2113</ele>
        <time>2021-03-25T09:36:20Z</time>
      </trkpt>
      <trkpt lat="45.55029" lon="6.7862">
        <ele>2113</ele>
        <time>2021-03-25T09:36:21Z</time>
      </trkpt>
      <trkpt lat="45.55028" lon="6.7862">
        <ele>2113</ele>
        <time>2021-03-25T09:36:22Z</time>
      </trkpt>
      <trkpt lat="45.55028" lon="6.78621">
        <ele>2113.9</ele>
        <time>2021-03-25T09:36:23Z</time>
      </trkpt>
      <trkpt lat="45.55027" lon="6.78621">
        <ele>2114.2</ele>
        <time>2021-03-25T09:36:24Z</time>
      </trkpt>
      <trkpt lat="45.55026" lon="6.78621">
        <ele>2114.2</ele>
        <time>2021-03-25T09:36:25Z</time>
      </trkpt>
      <trkpt lat="45.55025" lon="6.78621">
        <ele>2114.2</ele>
        <time>2021-03-25T09:36:26Z</time>
      </trkpt>
      <trkpt lat="45.55025" lon="6.78621">
        <ele>2114.2</ele>
        <time>2021-03-25T09:36:27Z</time>
      </trkpt>
      <trkpt lat="45.55024" lon="6.78621">
        <ele>2114.4</ele>
        <time>2021-03-25T09:36:28Z</time>
      </trkpt>
      <trkpt lat="45.55024" lon="6.78621">
        <ele>2114.4</ele>
        <time>2021-03-25T09:36:29Z</time>
      </trkpt>
      <trkpt lat="45.55023" lon="6.78622">
        <ele>2114.4</ele>
        <time>2021-03-25T09:36:30Z</time>
      </trkpt>
      <trkpt lat="45.55023" lon="6.78622">
        <ele>2114.4</ele>
        <time>2021-03-25T09:36:31Z</time>
      </trkpt>
      <trkpt lat="45.55023" lon="6.78623">
        <ele>2114.4</ele>
        <time>2021-03-25T09:36:32Z</time>
      </trkpt>
      <trkpt lat="45.55023" lon="6.78624">
        <ele>2114.4</ele>
        <time>2021-03-25T09:36:33Z</time>
      </trkpt>
      <trkpt lat="45.55023" lon="6.78625">
        <ele>2115.2</ele>
        <time>2021-03-25T09:36:34Z</time>
      </trkpt>
      <trkpt lat="45.55023" lon="6.78626">
        <ele>2115.2</ele>
        <time>2021-03-25T09:36:35Z</time>
      </trkpt>
      <trkpt lat="45.55023" lon="6.78627">
        <ele>2115.2</ele>
        <time>2021-03-25T09:36:36Z</time>
      </trkpt>
      <trkpt lat="45.55023" lon="6.78628">
        <ele>2115.2</ele>
        <time>2021-03-25T09:36:37Z</time>
      </trkpt>
      <trkpt lat="45.55024" lon="6.78629">
        <ele>2116</ele>
        <time>2021-03-25T09:36:38Z</time>
      </trkpt>
      <trkpt lat="45.55024" lon="6.78631">
        <ele>2116</ele>
        <time>2021-03-25T09:36:39Z</time>
      </trkpt>
      <trkpt lat="45.55024" lon="6.78632">
        <ele>2116</ele>
        <time>2021-03-25T09:36:40Z</time>
      </trkpt>
      <trkpt lat="45.55024" lon="6.78633">
        <ele>2116</ele>
        <time>2021-03-25T09:36:41Z</time>
      </trkpt>
      <trkpt lat="45.55024" lon="6.78634">
        <ele>2116.7</ele>
        <time>2021-03-25T09:36:42Z</time>
      </trkpt>
      <trkpt lat="45.55024" lon="6.78635">
        <ele>2116.7</ele>
        <time>2021-03-25T09:36:43Z</time>
      </trkpt>
      <trkpt lat="45.55024" lon="6.78637">
        <ele>2116.7</ele>
        <time>2021-03-25T09:36:44Z</time>
      </trkpt>
      <trkpt lat="45.55024" lon="6.78638">
        <ele>2117.5</ele>
        <time>2021-03-25T09:36:45Z</time>
      </trkpt>
      <trkpt lat="45.55024" lon="6.78639">
        <ele>2117.5</ele>
        <time>2021-03-25T09:36:46Z</time>
      </trkpt>
      <trkpt lat="45.55024" lon="6.7864">
        <ele>2117.5</ele>
        <time>2021-03-25T09:36:47Z</time>
      </trkpt>
      <trkpt lat="45.55024" lon="6.78641">
        <ele>2117.5</ele>
        <time>2021-03-25T09:36:48Z</time>
      </trkpt>
      <trkpt lat="45.55024" lon="6.78643">
        <ele>2118.2</ele>
        <time>2021-03-25T09:36:49Z</time>
      </trkpt>
      <trkpt lat="45.55024" lon="6.78644">
        <ele>2118.2</ele>
        <time>2021-03-25T09:36:50Z</time>
      </trkpt>
      <trkpt lat="45.55024" lon="6.78645">
        <ele>2118.2</ele>
        <time>2021-03-25T09:36:51Z</time>
      </trkpt>
      <trkpt lat="45.55024" lon="6.78646">
        <ele>2118.2</ele>
        <time>2021-03-25T09:36:52Z</time>
      </trkpt>
      <trkpt lat="45.55024" lon="6.78647">
        <ele>2119</ele>
        <time>2021-03-25T09:36:53Z</time>
      </trkpt>
      <trkpt lat="45.55024" lon="6.78648">
        <ele>2119</ele>
        <time>2021-03-25T09:36:54Z</time>
      </trkpt>
      <trkpt lat="45.55023" lon="6.78649">
        <ele>2119</ele>
        <time>2021-03-25T09:36:55Z</time>
      </trkpt>
      <trkpt lat="45.55023" lon="6.7865">
        <ele>2119</ele>
        <time>2021-03-25T09:36:56Z</time>
      </trkpt>
      <trkpt lat="45.55023" lon="6.7865">
        <ele>2119</ele>
        <time>2021-03-25T09:36:57Z</time>
      </trkpt>
      <trkpt lat="45.55023" lon="6.78651">
        <ele>2119.7</ele>
        <time>2021-03-25T09:36:58Z</time>
      </trkpt>
      <trkpt lat="45.55022" lon="6.78652">
        <ele>2119.7</ele>
        <time>2021-03-25T09:36:59Z</time>
      </trkpt>
      <trkpt lat="45.55022" lon="6.78653">
        <ele>2119.7</ele>
        <time>2021-03-25T09:37:00Z</time>
      </trkpt>
      <trkpt lat="45.55022" lon="6.78654">
        <ele>2119.7</ele>
        <time>2021-03-25T09:37:01Z</time>
      </trkpt>
      <trkpt lat="45.55022" lon="6.78655">
        <ele>2120.5</ele>
        <time>2021-03-25T09:37:02Z</time>
      </trkpt>
      <trkpt lat="45.55022" lon="6.78656">
        <ele>2120.5</ele>
        <time>2021-03-25T09:37:03Z</time>
      </trkpt>
      <trkpt lat="45.55022" lon="6.78657">
        <ele>2120.5</ele>
        <time>2021-03-25T09:37:04Z</time>
      </trkpt>
      <trkpt lat="45.55022" lon="6.78658">
        <ele>2120.5</ele>
        <time>2021-03-25T09:37:05Z</time>
      </trkpt>
      <trkpt lat="45.55022" lon="6.78658">
        <ele>2120.5</ele>
        <time>2021-03-25T09:37:06Z</time>
      </trkpt>
      <trkpt lat="45.55022" lon="6.78659">
        <ele>2121.3</ele>
        <time>2021-03-25T09:37:07Z</time>
      </trkpt>
      <trkpt lat="45.55022" lon="6.7866">
        <ele>2121.3</ele>
        <time>2021-03-25T09:37:08Z</time>
      </trkpt>
      <trkpt lat="45.55022" lon="6.78661">
        <ele>2121.3</ele>
        <time>2021-03-25T09:37:09Z</time>
      </trkpt>
      <trkpt lat="45.55022" lon="6.78662">
        <ele>2121.3</ele>
        <time>2021-03-25T09:37:10Z</time>
      </trkpt>
      <trkpt lat="45.55022" lon="6.78664">
        <ele>2122.1</ele>
        <time>2021-03-25T09:37:11Z</time>
      </trkpt>
      <trkpt lat="45.55022" lon="6.78665">
        <ele>2122.1</ele>
        <time>2021-03-25T09:37:12Z</time>
      </trkpt>
      <trkpt lat="45.55022" lon="6.78666">
        <ele>2122.1</ele>
        <time>2021-03-25T09:37:13Z</time>
      </trkpt>
      <trkpt lat="45.55022" lon="6.78668">
        <ele>2122.1</ele>
        <time>2021-03-25T09:37:14Z</time>
      </trkpt>
      <trkpt lat="45.55022" lon="6.78669">
        <ele>2122.8</ele>
        <time>2021-03-25T09:37:15Z</time>
      </trkpt>
      <trkpt lat="45.55022" lon="6.7867">
        <ele>2122.8</ele>
        <time>2021-03-25T09:37:16Z</time>
      </trkpt>
      <trkpt lat="45.55022" lon="6.78671">
        <ele>2122.8</ele>
        <time>2021-03-25T09:37:17Z</time>
      </trkpt>
      <trkpt lat="45.55022" lon="6.78672">
        <ele>2122.8</ele>
        <time>2021-03-25T09:37:18Z</time>
      </trkpt>
      <trkpt lat="45.55022" lon="6.78673">
        <ele>2123.5</ele>
        <time>2021-03-25T09:37:19Z</time>
      </trkpt>
      <trkpt lat="45.55022" lon="6.78674">
        <ele>2123.5</ele>
        <time>2021-03-25T09:37:20Z</time>
      </trkpt>
      <trkpt lat="45.55022" lon="6.78675">
        <ele>2123.5</ele>
        <time>2021-03-25T09:37:21Z</time>
      </trkpt>
      <trkpt lat="45.55022" lon="6.78676">
        <ele>2123.5</ele>
        <time>2021-03-25T09:37:22Z</time>
      </trkpt>
      <trkpt lat="45.55021" lon="6.78676">
        <ele>2124.2</ele>
        <time>2021-03-25T09:37:23Z</time>
      </trkpt>
      <trkpt lat="45.55021" lon="6.78678">
        <ele>2124.2</ele>
        <time>2021-03-25T09:37:24Z</time>
      </trkpt>
      <trkpt lat="45.55021" lon="6.78678">
        <ele>2124.2</ele>
        <time>2021-03-25T09:37:25Z</time>
      </trkpt>
      <trkpt lat="45.55022" lon="6.78679">
        <ele>2124.2</ele>
        <time>2021-03-25T09:37:26Z</time>
      </trkpt>
      <trkpt lat="45.55022" lon="6.7868">
        <ele>2124.2</ele>
        <time>2021-03-25T09:37:27Z</time>
      </trkpt>
      <trkpt lat="45.55022" lon="6.78682">
        <ele>2124.9</ele>
        <time>2021-03-25T09:37:28Z</time>
      </trkpt>
      <trkpt lat="45.55022" lon="6.78683">
        <ele>2124.9</ele>
        <time>2021-03-25T09:37:29Z</time>
      </trkpt>
      <trkpt lat="45.55023" lon="6.78684">
        <ele>2124.9</ele>
        <time>2021-03-25T09:37:30Z</time>
      </trkpt>
      <trkpt lat="45.55023" lon="6.78685">
        <ele>2125.6</ele>
        <time>2021-03-25T09:37:31Z</time>
      </trkpt>
      <trkpt lat="45.55023" lon="6.78686">
        <ele>2125.6</ele>
        <time>2021-03-25T09:37:32Z</time>
      </trkpt>
      <trkpt lat="45.55024" lon="6.78687">
        <ele>2125.6</ele>
        <time>2021-03-25T09:37:33Z</time>
      </trkpt>
      <trkpt lat="45.55024" lon="6.78688">
        <ele>2125.6</ele>
        <time>2021-03-25T09:37:34Z</time>
      </trkpt>
      <trkpt lat="45.55024" lon="6.78689">
        <ele>2126.3</ele>
        <time>2021-03-25T09:37:35Z</time>
      </trkpt>
      <trkpt lat="45.55024" lon="6.7869">
        <ele>2126.3</ele>
        <time>2021-03-25T09:37:36Z</time>
      </trkpt>
      <trkpt lat="45.55024" lon="6.78691">
        <ele>2126.3</ele>
        <time>2021-03-25T09:37:37Z</time>
      </trkpt>
      <trkpt lat="45.55024" lon="6.78692">
        <ele>2126.3</ele>
        <time>2021-03-25T09:37:38Z</time>
      </trkpt>
      <trkpt lat="45.55024" lon="6.78693">
        <ele>2126</ele>
        <time>2021-03-25T09:37:39Z</time>
      </trkpt>
      <trkpt lat="45.55024" lon="6.78694">
        <ele>2126.8</ele>
        <time>2021-03-25T09:37:40Z</time>
      </trkpt>
      <trkpt lat="45.55024" lon="6.78695">
        <ele>2126.8</ele>
        <time>2021-03-25T09:37:41Z</time>
      </trkpt>
      <trkpt lat="45.55024" lon="6.78696">
        <ele>2126.8</ele>
        <time>2021-03-25T09:37:42Z</time>
      </trkpt>
      <trkpt lat="45.55024" lon="6.78698">
        <ele>2127.1</ele>
        <time>2021-03-25T09:37:43Z</time>
      </trkpt>
      <trkpt lat="45.55024" lon="6.78699">
        <ele>2127.9</ele>
        <time>2021-03-25T09:37:44Z</time>
      </trkpt>
      <trkpt lat="45.55024" lon="6.787">
        <ele>2127.6</ele>
        <time>2021-03-25T09:37:45Z</time>
      </trkpt>
      <trkpt lat="45.55024" lon="6.78701">
        <ele>2127.6</ele>
        <time>2021-03-25T09:37:46Z</time>
      </trkpt>
      <trkpt lat="45.55024" lon="6.78702">
        <ele>2128.4</ele>
        <time>2021-03-25T09:37:47Z</time>
      </trkpt>
      <trkpt lat="45.55024" lon="6.78703">
        <ele>2128.4</ele>
        <time>2021-03-25T09:37:48Z</time>
      </trkpt>
      <trkpt lat="45.55024" lon="6.78704">
        <ele>2128.7</ele>
        <time>2021-03-25T09:37:49Z</time>
      </trkpt>
      <trkpt lat="45.55024" lon="6.78705">
        <ele>2128.4</ele>
        <time>2021-03-25T09:37:50Z</time>
      </trkpt>
      <trkpt lat="45.55024" lon="6.78706">
        <ele>2128.7</ele>
        <time>2021-03-25T09:37:51Z</time>
      </trkpt>
      <trkpt lat="45.55024" lon="6.78707">
        <ele>2129.5</ele>
        <time>2021-03-25T09:37:52Z</time>
      </trkpt>
      <trkpt lat="45.55024" lon="6.78708">
        <ele>2129.5</ele>
        <time>2021-03-25T09:37:53Z</time>
      </trkpt>
      <trkpt lat="45.55024" lon="6.78709">
        <ele>2129.5</ele>
        <time>2021-03-25T09:37:54Z</time>
      </trkpt>
      <trkpt lat="45.55024" lon="6.7871">
        <ele>2129.5</ele>
        <time>2021-03-25T09:37:55Z</time>
      </trkpt>
      <trkpt lat="45.55024" lon="6.78711">
        <ele>2130.2</ele>
        <time>2021-03-25T09:37:56Z</time>
      </trkpt>
      <trkpt lat="45.55024" lon="6.78712">
        <ele>2130.2</ele>
        <time>2021-03-25T09:37:57Z</time>
      </trkpt>
      <trkpt lat="45.55024" lon="6.78713">
        <ele>2130.2</ele>
        <time>2021-03-25T09:37:58Z</time>
      </trkpt>
      <trkpt lat="45.55024" lon="6.78714">
        <ele>2130.2</ele>
        <time>2021-03-25T09:37:59Z</time>
      </trkpt>
      <trkpt lat="45.55024" lon="6.78715">
        <ele>2131</ele>
        <time>2021-03-25T09:38:00Z</time>
      </trkpt>
      <trkpt lat="45.55024" lon="6.78717">
        <ele>2130.6</ele>
        <time>2021-03-25T09:38:01Z</time>
      </trkpt>
      <trkpt lat="45.55024" lon="6.78718">
        <ele>2130.6</ele>
        <time>2021-03-25T09:38:02Z</time>
      </trkpt>
      <trkpt lat="45.55025" lon="6.78719">
        <ele>2130.6</ele>
        <time>2021-03-25T09:38:03Z</time>
      </trkpt>
      <trkpt lat="45.55025" lon="6.7872">
        <ele>2131.3</ele>
        <time>2021-03-25T09:38:04Z</time>
      </trkpt>
      <trkpt lat="45.55025" lon="6.78721">
        <ele>2131.3</ele>
        <time>2021-03-25T09:38:05Z</time>
      </trkpt>
      <trkpt lat="45.55024" lon="6.78722">
        <ele>2131.3</ele>
        <time>2021-03-25T09:38:06Z</time>
      </trkpt>
      <trkpt lat="45.55024" lon="6.78723">
        <ele>2131.3</ele>
        <time>2021-03-25T09:38:07Z</time>
      </trkpt>
      <trkpt lat="45.55024" lon="6.78724">
        <ele>2132.4</ele>
        <time>2021-03-25T09:38:08Z</time>
      </trkpt>
      <trkpt lat="45.55024" lon="6.78725">
        <ele>2132.4</ele>
        <time>2021-03-25T09:38:09Z</time>
      </trkpt>
      <trkpt lat="45.55024" lon="6.78726">
        <ele>2132.4</ele>
        <time>2021-03-25T09:38:10Z</time>
      </trkpt>
      <trkpt lat="45.55024" lon="6.78727">
        <ele>2132.4</ele>
        <time>2021-03-25T09:38:11Z</time>
      </trkpt>
      <trkpt lat="45.55024" lon="6.78728">
        <ele>2133</ele>
        <time>2021-03-25T09:38:12Z</time>
      </trkpt>
      <trkpt lat="45.55024" lon="6.78729">
        <ele>2133</ele>
        <time>2021-03-25T09:38:13Z</time>
      </trkpt>
      <trkpt lat="45.55024" lon="6.7873">
        <ele>2133</ele>
        <time>2021-03-25T09:38:14Z</time>
      </trkpt>
      <trkpt lat="45.55024" lon="6.78731">
        <ele>2133</ele>
        <time>2021-03-25T09:38:15Z</time>
      </trkpt>
      <trkpt lat="45.55024" lon="6.78732">
        <ele>2133</ele>
        <time>2021-03-25T09:38:16Z</time>
      </trkpt>
      <trkpt lat="45.55024" lon="6.78732">
        <ele>2133.8</ele>
        <time>2021-03-25T09:38:17Z</time>
      </trkpt>
      <trkpt lat="45.55024" lon="6.78733">
        <ele>2133.8</ele>
        <time>2021-03-25T09:38:18Z</time>
      </trkpt>
      <trkpt lat="45.55024" lon="6.78734">
        <ele>2133.8</ele>
        <time>2021-03-25T09:38:19Z</time>
      </trkpt>
      <trkpt lat="45.55024" lon="6.78735">
        <ele>2133.8</ele>
        <time>2021-03-25T09:38:20Z</time>
      </trkpt>
      <trkpt lat="45.55024" lon="6.78736">
        <ele>2133.8</ele>
        <time>2021-03-25T09:38:21Z</time>
      </trkpt>
      <trkpt lat="45.55024" lon="6.78737">
        <ele>2134.5</ele>
        <time>2021-03-25T09:38:22Z</time>
      </trkpt>
      <trkpt lat="45.55024" lon="6.78738">
        <ele>2134.5</ele>
        <time>2021-03-25T09:38:23Z</time>
      </trkpt>
      <trkpt lat="45.55024" lon="6.78739">
        <ele>2134.5</ele>
        <time>2021-03-25T09:38:24Z</time>
      </trkpt>
      <trkpt lat="45.55024" lon="6.7874">
        <ele>2134.5</ele>
        <time>2021-03-25T09:38:25Z</time>
      </trkpt>
      <trkpt lat="45.55024" lon="6.78741">
        <ele>2135.3</ele>
        <time>2021-03-25T09:38:26Z</time>
      </trkpt>
      <trkpt lat="45.55024" lon="6.78742">
        <ele>2135.3</ele>
        <time>2021-03-25T09:38:27Z</time>
      </trkpt>
      <trkpt lat="45.55024" lon="6.78743">
        <ele>2135.3</ele>
        <time>2021-03-25T09:38:28Z</time>
      </trkpt>
      <trkpt lat="45.55024" lon="6.78744">
        <ele>2135.3</ele>
        <time>2021-03-25T09:38:29Z</time>
      </trkpt>
      <trkpt lat="45.55024" lon="6.78745">
        <ele>2136.2</ele>
        <time>2021-03-25T09:38:30Z</time>
      </trkpt>
      <trkpt lat="45.55024" lon="6.78747">
        <ele>2136.2</ele>
        <time>2021-03-25T09:38:31Z</time>
      </trkpt>
      <trkpt lat="45.55024" lon="6.78748">
        <ele>2136.2</ele>
        <time>2021-03-25T09:38:32Z</time>
      </trkpt>
      <trkpt lat="45.55025" lon="6.78749">
        <ele>2135.7</ele>
        <time>2021-03-25T09:38:33Z</time>
      </trkpt>
      <trkpt lat="45.55025" lon="6.7875">
        <ele>2136.6</ele>
        <time>2021-03-25T09:38:34Z</time>
      </trkpt>
      <trkpt lat="45.55025" lon="6.78751">
        <ele>2136.6</ele>
        <time>2021-03-25T09:38:35Z</time>
      </trkpt>
      <trkpt lat="45.55025" lon="6.78753">
        <ele>2136.6</ele>
        <time>2021-03-25T09:38:36Z</time>
      </trkpt>
      <trkpt lat="45.55026" lon="6.78754">
        <ele>2137.5</ele>
        <time>2021-03-25T09:38:37Z</time>
      </trkpt>
      <trkpt lat="45.55026" lon="6.78755">
        <ele>2137.5</ele>
        <time>2021-03-25T09:38:38Z</time>
      </trkpt>
      <trkpt lat="45.55026" lon="6.78756">
        <ele>2137.5</ele>
        <time>2021-03-25T09:38:39Z</time>
      </trkpt>
      <trkpt lat="45.55026" lon="6.78757">
        <ele>2137.5</ele>
        <time>2021-03-25T09:38:40Z</time>
      </trkpt>
      <trkpt lat="45.55026" lon="6.78758">
        <ele>2138.4</ele>
        <time>2021-03-25T09:38:41Z</time>
      </trkpt>
      <trkpt lat="45.55026" lon="6.7876">
        <ele>2138.4</ele>
        <time>2021-03-25T09:38:42Z</time>
      </trkpt>
      <trkpt lat="45.55026" lon="6.78761">
        <ele>2138.4</ele>
        <time>2021-03-25T09:38:43Z</time>
      </trkpt>
      <trkpt lat="45.55026" lon="6.78762">
        <ele>2139.2</ele>
        <time>2021-03-25T09:38:44Z</time>
      </trkpt>
      <trkpt lat="45.55026" lon="6.78763">
        <ele>2139.2</ele>
        <time>2021-03-25T09:38:45Z</time>
      </trkpt>
      <trkpt lat="45.55026" lon="6.78764">
        <ele>2139.2</ele>
        <time>2021-03-25T09:38:46Z</time>
      </trkpt>
      <trkpt lat="45.55026" lon="6.78765">
        <ele>2139.2</ele>
        <time>2021-03-25T09:38:47Z</time>
      </trkpt>
      <trkpt lat="45.55026" lon="6.78766">
        <ele>2139.2</ele>
        <time>2021-03-25T09:38:48Z</time>
      </trkpt>
      <trkpt lat="45.55026" lon="6.78767">
        <ele>2140</ele>
        <time>2021-03-25T09:38:49Z</time>
      </trkpt>
      <trkpt lat="45.55026" lon="6.78768">
        <ele>2140</ele>
        <time>2021-03-25T09:38:50Z</time>
      </trkpt>
      <trkpt lat="45.55026" lon="6.78769">
        <ele>2140</ele>
        <time>2021-03-25T09:38:51Z</time>
      </trkpt>
      <trkpt lat="45.55026" lon="6.7877">
        <ele>2140</ele>
        <time>2021-03-25T09:38:52Z</time>
      </trkpt>
      <trkpt lat="45.55026" lon="6.78771">
        <ele>2140.8</ele>
        <time>2021-03-25T09:38:53Z</time>
      </trkpt>
      <trkpt lat="45.55026" lon="6.78772">
        <ele>2140.8</ele>
        <time>2021-03-25T09:38:54Z</time>
      </trkpt>
      <trkpt lat="45.55026" lon="6.78772">
        <ele>2140.8</ele>
        <time>2021-03-25T09:38:55Z</time>
      </trkpt>
      <trkpt lat="45.55027" lon="6.78773">
        <ele>2140.8</ele>
        <time>2021-03-25T09:38:56Z</time>
      </trkpt>
      <trkpt lat="45.55027" lon="6.78774">
        <ele>2140.8</ele>
        <time>2021-03-25T09:38:57Z</time>
      </trkpt>
      <trkpt lat="45.55027" lon="6.78775">
        <ele>2140.8</ele>
        <time>2021-03-25T09:38:58Z</time>
      </trkpt>
      <trkpt lat="45.55028" lon="6.78776">
        <ele>2141.2</ele>
        <time>2021-03-25T09:38:59Z</time>
      </trkpt>
      <trkpt lat="45.55028" lon="6.78777">
        <ele>2141.2</ele>
        <time>2021-03-25T09:39:00Z</time>
      </trkpt>
      <trkpt lat="45.55028" lon="6.78778">
        <ele>2141.2</ele>
        <time>2021-03-25T09:39:01Z</time>
      </trkpt>
      <trkpt lat="45.55029" lon="6.78779">
        <ele>2142</ele>
        <time>2021-03-25T09:39:02Z</time>
      </trkpt>
      <trkpt lat="45.55029" lon="6.78781">
        <ele>2142</ele>
        <time>2021-03-25T09:39:03Z</time>
      </trkpt>
      <trkpt lat="45.55029" lon="6.78782">
        <ele>2142</ele>
        <time>2021-03-25T09:39:04Z</time>
      </trkpt>
      <trkpt lat="45.55029" lon="6.78782">
        <ele>2142</ele>
        <time>2021-03-25T09:39:05Z</time>
      </trkpt>
      <trkpt lat="45.55029" lon="6.78783">
        <ele>2142</ele>
        <time>2021-03-25T09:39:06Z</time>
      </trkpt>
      <trkpt lat="45.55029" lon="6.78783">
        <ele>2142</ele>
        <time>2021-03-25T09:39:07Z</time>
      </trkpt>
      <trkpt lat="45.5503" lon="6.78784">
        <ele>2142.9</ele>
        <time>2021-03-25T09:39:08Z</time>
      </trkpt>
      <trkpt lat="45.5503" lon="6.78785">
        <ele>2142.9</ele>
        <time>2021-03-25T09:39:09Z</time>
      </trkpt>
      <trkpt lat="45.5503" lon="6.78785">
        <ele>2142.4</ele>
        <time>2021-03-25T09:39:10Z</time>
      </trkpt>
      <trkpt lat="45.55031" lon="6.78786">
        <ele>2142.4</ele>
        <time>2021-03-25T09:39:11Z</time>
      </trkpt>
      <trkpt lat="45.55031" lon="6.78787">
        <ele>2142.4</ele>
        <time>2021-03-25T09:39:12Z</time>
      </trkpt>
      <trkpt lat="45.55032" lon="6.78788">
        <ele>2143.3</ele>
        <time>2021-03-25T09:39:13Z</time>
      </trkpt>
      <trkpt lat="45.55032" lon="6.78789">
        <ele>2143.3</ele>
        <time>2021-03-25T09:39:14Z</time>
      </trkpt>
      <trkpt lat="45.55033" lon="6.7879">
        <ele>2143.3</ele>
        <time>2021-03-25T09:39:15Z</time>
      </trkpt>
      <trkpt lat="45.55033" lon="6.78791">
        <ele>2142.8</ele>
        <time>2021-03-25T09:39:16Z</time>
      </trkpt>
      <trkpt lat="45.55034" lon="6.78792">
        <ele>2142.8</ele>
        <time>2021-03-25T09:39:17Z</time>
      </trkpt>
      <trkpt lat="45.55034" lon="6.78792">
        <ele>2143.6</ele>
        <time>2021-03-25T09:39:18Z</time>
      </trkpt>
      <trkpt lat="45.55034" lon="6.78793">
        <ele>2143.6</ele>
        <time>2021-03-25T09:39:19Z</time>
      </trkpt>
      <trkpt lat="45.55034" lon="6.78794">
        <ele>2143.6</ele>
        <time>2021-03-25T09:39:20Z</time>
      </trkpt>
      <trkpt lat="45.55034" lon="6.78795">
        <ele>2143.6</ele>
        <time>2021-03-25T09:39:21Z</time>
      </trkpt>
      <trkpt lat="45.55035" lon="6.78797">
        <ele>2144.5</ele>
        <time>2021-03-25T09:39:22Z</time>
      </trkpt>
      <trkpt lat="45.55035" lon="6.78798">
        <ele>2144.5</ele>
        <time>2021-03-25T09:39:23Z</time>
      </trkpt>
      <trkpt lat="45.55035" lon="6.78799">
        <ele>2144.5</ele>
        <time>2021-03-25T09:39:24Z</time>
      </trkpt>
      <trkpt lat="45.55035" lon="6.788">
        <ele>2144.5</ele>
        <time>2021-03-25T09:39:25Z</time>
      </trkpt>
      <trkpt lat="45.55036" lon="6.78801">
        <ele>2145.3</ele>
        <time>2021-03-25T09:39:26Z</time>
      </trkpt>
      <trkpt lat="45.55036" lon="6.78803">
        <ele>2145.3</ele>
        <time>2021-03-25T09:39:27Z</time>
      </trkpt>
      <trkpt lat="45.55036" lon="6.78804">
        <ele>2144.8</ele>
        <time>2021-03-25T09:39:28Z</time>
      </trkpt>
      <trkpt lat="45.55037" lon="6.78805">
        <ele>2144.8</ele>
        <time>2021-03-25T09:39:29Z</time>
      </trkpt>
      <trkpt lat="45.55037" lon="6.78806">
        <ele>2145.6</ele>
        <time>2021-03-25T09:39:30Z</time>
      </trkpt>
      <trkpt lat="45.55037" lon="6.78807">
        <ele>2145.6</ele>
        <time>2021-03-25T09:39:31Z</time>
      </trkpt>
      <trkpt lat="45.55037" lon="6.78809">
        <ele>2145.6</ele>
        <time>2021-03-25T09:39:32Z</time>
      </trkpt>
      <trkpt lat="45.55037" lon="6.7881">
        <ele>2146.4</ele>
        <time>2021-03-25T09:39:33Z</time>
      </trkpt>
      <trkpt lat="45.55037" lon="6.78811">
        <ele>2146.4</ele>
        <time>2021-03-25T09:39:34Z</time>
      </trkpt>
      <trkpt lat="45.55037" lon="6.78812">
        <ele>2146.4</ele>
        <time>2021-03-25T09:39:35Z</time>
      </trkpt>
      <trkpt lat="45.55038" lon="6.78813">
        <ele>2146.4</ele>
        <time>2021-03-25T09:39:36Z</time>
      </trkpt>
      <trkpt lat="45.55038" lon="6.78814">
        <ele>2147.1</ele>
        <time>2021-03-25T09:39:37Z</time>
      </trkpt>
      <trkpt lat="45.55038" lon="6.78815">
        <ele>2147.1</ele>
        <time>2021-03-25T09:39:38Z</time>
      </trkpt>
      <trkpt lat="45.55038" lon="6.78816">
        <ele>2147.1</ele>
        <time>2021-03-25T09:39:39Z</time>
      </trkpt>
      <trkpt lat="45.55039" lon="6.78817">
        <ele>2147.1</ele>
        <time>2021-03-25T09:39:40Z</time>
      </trkpt>
      <trkpt lat="45.55039" lon="6.78818">
        <ele>2147.8</ele>
        <time>2021-03-25T09:39:41Z</time>
      </trkpt>
      <trkpt lat="45.55039" lon="6.78819">
        <ele>2147.3</ele>
        <time>2021-03-25T09:39:42Z</time>
      </trkpt>
      <trkpt lat="45.5504" lon="6.7882">
        <ele>2147.3</ele>
        <time>2021-03-25T09:39:43Z</time>
      </trkpt>
      <trkpt lat="45.5504" lon="6.78822">
        <ele>2147.3</ele>
        <time>2021-03-25T09:39:44Z</time>
      </trkpt>
      <trkpt lat="45.5504" lon="6.78823">
        <ele>2148</ele>
        <time>2021-03-25T09:39:45Z</time>
      </trkpt>
      <trkpt lat="45.5504" lon="6.78824">
        <ele>2148</ele>
        <time>2021-03-25T09:39:46Z</time>
      </trkpt>
      <trkpt lat="45.55041" lon="6.78826">
        <ele>2148</ele>
        <time>2021-03-25T09:39:47Z</time>
      </trkpt>
      <trkpt lat="45.55041" lon="6.78827">
        <ele>2148.7</ele>
        <time>2021-03-25T09:39:48Z</time>
      </trkpt>
      <trkpt lat="45.55041" lon="6.78828">
        <ele>2148.7</ele>
        <time>2021-03-25T09:39:49Z</time>
      </trkpt>
      <trkpt lat="45.55041" lon="6.78829">
        <ele>2148.7</ele>
        <time>2021-03-25T09:39:50Z</time>
      </trkpt>
      <trkpt lat="45.55042" lon="6.7883">
        <ele>2148.7</ele>
        <time>2021-03-25T09:39:51Z</time>
      </trkpt>
      <trkpt lat="45.55042" lon="6.78831">
        <ele>2149.5</ele>
        <time>2021-03-25T09:39:52Z</time>
      </trkpt>
      <trkpt lat="45.55042" lon="6.78832">
        <ele>2149.5</ele>
        <time>2021-03-25T09:39:53Z</time>
      </trkpt>
      <trkpt lat="45.55043" lon="6.78832">
        <ele>2149.1</ele>
        <time>2021-03-25T09:39:54Z</time>
      </trkpt>
      <trkpt lat="45.55043" lon="6.78833">
        <ele>2149.1</ele>
        <time>2021-03-25T09:39:55Z</time>
      </trkpt>
      <trkpt lat="45.55044" lon="6.78834">
        <ele>2149.1</ele>
        <time>2021-03-25T09:39:56Z</time>
      </trkpt>
      <trkpt lat="45.55044" lon="6.78834">
        <ele>2149.1</ele>
        <time>2021-03-25T09:39:57Z</time>
      </trkpt>
      <trkpt lat="45.55044" lon="6.78835">
        <ele>2149.1</ele>
        <time>2021-03-25T09:39:58Z</time>
      </trkpt>
      <trkpt lat="45.55045" lon="6.78836">
        <ele>2149.9</ele>
        <time>2021-03-25T09:39:59Z</time>
      </trkpt>
      <trkpt lat="45.55045" lon="6.78836">
        <ele>2149.9</ele>
        <time>2021-03-25T09:40:00Z</time>
      </trkpt>
      <trkpt lat="45.55046" lon="6.78837">
        <ele>2149.5</ele>
        <time>2021-03-25T09:40:01Z</time>
      </trkpt>
      <trkpt lat="45.55046" lon="6.78839">
        <ele>2149.5</ele>
        <time>2021-03-25T09:40:02Z</time>
      </trkpt>
      <trkpt lat="45.55047" lon="6.7884">
        <ele>2150.3</ele>
        <time>2021-03-25T09:40:03Z</time>
      </trkpt>
      <trkpt lat="45.55048" lon="6.78841">
        <ele>2150.3</ele>
        <time>2021-03-25T09:40:04Z</time>
      </trkpt>
      <trkpt lat="45.55048" lon="6.78842">
        <ele>2150.3</ele>
        <time>2021-03-25T09:40:05Z</time>
      </trkpt>
      <trkpt lat="45.55048" lon="6.78843">
        <ele>2149.9</ele>
        <time>2021-03-25T09:40:06Z</time>
      </trkpt>
      <trkpt lat="45.55049" lon="6.78844">
        <ele>2150.7</ele>
        <time>2021-03-25T09:40:07Z</time>
      </trkpt>
      <trkpt lat="45.55049" lon="6.78845">
        <ele>2150.7</ele>
        <time>2021-03-25T09:40:08Z</time>
      </trkpt>
      <trkpt lat="45.5505" lon="6.78846">
        <ele>2150.7</ele>
        <time>2021-03-25T09:40:09Z</time>
      </trkpt>
      <trkpt lat="45.5505" lon="6.78847">
        <ele>2150.7</ele>
        <time>2021-03-25T09:40:10Z</time>
      </trkpt>
      <trkpt lat="45.55051" lon="6.78848">
        <ele>2150.7</ele>
        <time>2021-03-25T09:40:11Z</time>
      </trkpt>
      <trkpt lat="45.55052" lon="6.78849">
        <ele>2150.9</ele>
        <time>2021-03-25T09:40:12Z</time>
      </trkpt>
      <trkpt lat="45.55052" lon="6.7885">
        <ele>2150.9</ele>
        <time>2021-03-25T09:40:13Z</time>
      </trkpt>
      <trkpt lat="45.55053" lon="6.78851">
        <ele>2150.9</ele>
        <time>2021-03-25T09:40:14Z</time>
      </trkpt>
      <trkpt lat="45.55053" lon="6.78852">
        <ele>2150.9</ele>
        <time>2021-03-25T09:40:15Z</time>
      </trkpt>
      <trkpt lat="45.55054" lon="6.78853">
        <ele>2151.6</ele>
        <time>2021-03-25T09:40:16Z</time>
      </trkpt>
      <trkpt lat="45.55054" lon="6.78854">
        <ele>2151.6</ele>
        <time>2021-03-25T09:40:17Z</time>
      </trkpt>
      <trkpt lat="45.55054" lon="6.78855">
        <ele>2151.1</ele>
        <time>2021-03-25T09:40:18Z</time>
      </trkpt>
      <trkpt lat="45.55055" lon="6.78856">
        <ele>2151.1</ele>
        <time>2021-03-25T09:40:19Z</time>
      </trkpt>
      <trkpt lat="45.55055" lon="6.78857">
        <ele>2151.7</ele>
        <time>2021-03-25T09:40:20Z</time>
      </trkpt>
      <trkpt lat="45.55055" lon="6.78859">
        <ele>2151.7</ele>
        <time>2021-03-25T09:40:21Z</time>
      </trkpt>
      <trkpt lat="45.55056" lon="6.7886">
        <ele>2151.7</ele>
        <time>2021-03-25T09:40:22Z</time>
      </trkpt>
      <trkpt lat="45.55056" lon="6.78861">
        <ele>2152.4</ele>
        <time>2021-03-25T09:40:23Z</time>
      </trkpt>
      <trkpt lat="45.55057" lon="6.78862">
        <ele>2152.4</ele>
        <time>2021-03-25T09:40:24Z</time>
      </trkpt>
      <trkpt lat="45.55057" lon="6.78864">
        <ele>2151.7</ele>
        <time>2021-03-25T09:40:25Z</time>
      </trkpt>
      <trkpt lat="45.55058" lon="6.78865">
        <ele>2151.7</ele>
        <time>2021-03-25T09:40:26Z</time>
      </trkpt>
      <trkpt lat="45.55058" lon="6.78866">
        <ele>2152.4</ele>
        <time>2021-03-25T09:40:27Z</time>
      </trkpt>
      <trkpt lat="45.55058" lon="6.78867">
        <ele>2152.4</ele>
        <time>2021-03-25T09:40:28Z</time>
      </trkpt>
      <trkpt lat="45.55058" lon="6.78868">
        <ele>2152.4</ele>
        <time>2021-03-25T09:40:29Z</time>
      </trkpt>
      <trkpt lat="45.55058" lon="6.78869">
        <ele>2152.4</ele>
        <time>2021-03-25T09:40:30Z</time>
      </trkpt>
      <trkpt lat="45.55059" lon="6.7887">
        <ele>2153</ele>
        <time>2021-03-25T09:40:31Z</time>
      </trkpt>
      <trkpt lat="45.55059" lon="6.78871">
        <ele>2153</ele>
        <time>2021-03-25T09:40:32Z</time>
      </trkpt>
      <trkpt lat="45.55059" lon="6.78873">
        <ele>2153</ele>
        <time>2021-03-25T09:40:33Z</time>
      </trkpt>
      <trkpt lat="45.5506" lon="6.78874">
        <ele>2153.7</ele>
        <time>2021-03-25T09:40:34Z</time>
      </trkpt>
      <trkpt lat="45.5506" lon="6.78875">
        <ele>2153</ele>
        <time>2021-03-25T09:40:35Z</time>
      </trkpt>
      <trkpt lat="45.55061" lon="6.78876">
        <ele>2153</ele>
        <time>2021-03-25T09:40:36Z</time>
      </trkpt>
      <trkpt lat="45.55062" lon="6.78878">
        <ele>2153</ele>
        <time>2021-03-25T09:40:37Z</time>
      </trkpt>
      <trkpt lat="45.55062" lon="6.78879">
        <ele>2153.7</ele>
        <time>2021-03-25T09:40:38Z</time>
      </trkpt>
      <trkpt lat="45.55063" lon="6.7888">
        <ele>2153.7</ele>
        <time>2021-03-25T09:40:39Z</time>
      </trkpt>
      <trkpt lat="45.55063" lon="6.78882">
        <ele>2153.7</ele>
        <time>2021-03-25T09:40:40Z</time>
      </trkpt>
      <trkpt lat="45.55063" lon="6.78883">
        <ele>2154.4</ele>
        <time>2021-03-25T09:40:41Z</time>
      </trkpt>
      <trkpt lat="45.55063" lon="6.78884">
        <ele>2153.8</ele>
        <time>2021-03-25T09:40:42Z</time>
      </trkpt>
      <trkpt lat="45.55064" lon="6.78885">
        <ele>2153.8</ele>
        <time>2021-03-25T09:40:43Z</time>
      </trkpt>
      <trkpt lat="45.55064" lon="6.78886">
        <ele>2153.8</ele>
        <time>2021-03-25T09:40:44Z</time>
      </trkpt>
      <trkpt lat="45.55064" lon="6.78887">
        <ele>2154.5</ele>
        <time>2021-03-25T09:40:45Z</time>
      </trkpt>
      <trkpt lat="45.55064" lon="6.78888">
        <ele>2154.5</ele>
        <time>2021-03-25T09:40:46Z</time>
      </trkpt>
      <trkpt lat="45.55063" lon="6.7889">
        <ele>2154.5</ele>
        <time>2021-03-25T09:40:47Z</time>
      </trkpt>
      <trkpt lat="45.55063" lon="6.78891">
        <ele>2155.3</ele>
        <time>2021-03-25T09:40:48Z</time>
      </trkpt>
      <trkpt lat="45.55063" lon="6.78892">
        <ele>2155.3</ele>
        <time>2021-03-25T09:40:49Z</time>
      </trkpt>
      <trkpt lat="45.55063" lon="6.78893">
        <ele>2155.3</ele>
        <time>2021-03-25T09:40:50Z</time>
      </trkpt>
      <trkpt lat="45.55063" lon="6.78895">
        <ele>2155.3</ele>
        <time>2021-03-25T09:40:51Z</time>
      </trkpt>
      <trkpt lat="45.55063" lon="6.78896">
        <ele>2156.6</ele>
        <time>2021-03-25T09:40:52Z</time>
      </trkpt>
      <trkpt lat="45.55063" lon="6.78897">
        <ele>2156</ele>
        <time>2021-03-25T09:40:53Z</time>
      </trkpt>
      <trkpt lat="45.55063" lon="6.78898">
        <ele>2156</ele>
        <time>2021-03-25T09:40:54Z</time>
      </trkpt>
      <trkpt lat="45.55064" lon="6.789">
        <ele>2156.7</ele>
        <time>2021-03-25T09:40:55Z</time>
      </trkpt>
      <trkpt lat="45.55064" lon="6.78901">
        <ele>2156.7</ele>
        <time>2021-03-25T09:40:56Z</time>
      </trkpt>
      <trkpt lat="45.55064" lon="6.78902">
        <ele>2156.7</ele>
        <time>2021-03-25T09:40:57Z</time>
      </trkpt>
      <trkpt lat="45.55065" lon="6.78904">
        <ele>2157.3</ele>
        <time>2021-03-25T09:40:58Z</time>
      </trkpt>
      <trkpt lat="45.55065" lon="6.78905">
        <ele>2157.3</ele>
        <time>2021-03-25T09:40:59Z</time>
      </trkpt>
      <trkpt lat="45.55065" lon="6.78907">
        <ele>2157.3</ele>
        <time>2021-03-25T09:41:00Z</time>
      </trkpt>
      <trkpt lat="45.55066" lon="6.78908">
        <ele>2157.9</ele>
        <time>2021-03-25T09:41:01Z</time>
      </trkpt>
      <trkpt lat="45.55066" lon="6.78909">
        <ele>2157.9</ele>
        <time>2021-03-25T09:41:02Z</time>
      </trkpt>
      <trkpt lat="45.55066" lon="6.7891">
        <ele>2157.9</ele>
        <time>2021-03-25T09:41:03Z</time>
      </trkpt>
      <trkpt lat="45.55067" lon="6.78912">
        <ele>2157.3</ele>
        <time>2021-03-25T09:41:04Z</time>
      </trkpt>
      <trkpt lat="45.55067" lon="6.78913">
        <ele>2158</ele>
        <time>2021-03-25T09:41:05Z</time>
      </trkpt>
      <trkpt lat="45.55067" lon="6.78915">
        <ele>2158</ele>
        <time>2021-03-25T09:41:06Z</time>
      </trkpt>
      <trkpt lat="45.55068" lon="6.78916">
        <ele>2158</ele>
        <time>2021-03-25T09:41:07Z</time>
      </trkpt>
      <trkpt lat="45.55068" lon="6.78917">
        <ele>2158.6</ele>
        <time>2021-03-25T09:41:08Z</time>
      </trkpt>
      <trkpt lat="45.55068" lon="6.78918">
        <ele>2158.6</ele>
        <time>2021-03-25T09:41:09Z</time>
      </trkpt>
      <trkpt lat="45.55068" lon="6.78919">
        <ele>2158.6</ele>
        <time>2021-03-25T09:41:10Z</time>
      </trkpt>
      <trkpt lat="45.55068" lon="6.7892">
        <ele>2158.6</ele>
        <time>2021-03-25T09:41:11Z</time>
      </trkpt>
      <trkpt lat="45.55068" lon="6.78921">
        <ele>2159.3</ele>
        <time>2021-03-25T09:41:12Z</time>
      </trkpt>
      <trkpt lat="45.55068" lon="6.78922">
        <ele>2159.3</ele>
        <time>2021-03-25T09:41:13Z</time>
      </trkpt>
      <trkpt lat="45.55068" lon="6.78923">
        <ele>2159.3</ele>
        <time>2021-03-25T09:41:14Z</time>
      </trkpt>
      <trkpt lat="45.55069" lon="6.78924">
        <ele>2159.3</ele>
        <time>2021-03-25T09:41:15Z</time>
      </trkpt>
      <trkpt lat="45.55069" lon="6.78925">
        <ele>2159.3</ele>
        <time>2021-03-25T09:41:16Z</time>
      </trkpt>
      <trkpt lat="45.55069" lon="6.78926">
        <ele>2160</ele>
        <time>2021-03-25T09:41:17Z</time>
      </trkpt>
      <trkpt lat="45.55069" lon="6.78927">
        <ele>2160</ele>
        <time>2021-03-25T09:41:18Z</time>
      </trkpt>
      <trkpt lat="45.55069" lon="6.78928">
        <ele>2159.4</ele>
        <time>2021-03-25T09:41:19Z</time>
      </trkpt>
      <trkpt lat="45.55069" lon="6.78929">
        <ele>2159.4</ele>
        <time>2021-03-25T09:41:20Z</time>
      </trkpt>
      <trkpt lat="45.55069" lon="6.7893">
        <ele>2160.1</ele>
        <time>2021-03-25T09:41:21Z</time>
      </trkpt>
      <trkpt lat="45.5507" lon="6.78931">
        <ele>2160.1</ele>
        <time>2021-03-25T09:41:22Z</time>
      </trkpt>
      <trkpt lat="45.5507" lon="6.78931">
        <ele>2160.1</ele>
        <time>2021-03-25T09:41:23Z</time>
      </trkpt>
      <trkpt lat="45.5507" lon="6.78932">
        <ele>2160.1</ele>
        <time>2021-03-25T09:41:24Z</time>
      </trkpt>
      <trkpt lat="45.5507" lon="6.78933">
        <ele>2160.1</ele>
        <time>2021-03-25T09:41:25Z</time>
      </trkpt>
      <trkpt lat="45.55071" lon="6.78934">
        <ele>2160.8</ele>
        <time>2021-03-25T09:41:26Z</time>
      </trkpt>
      <trkpt lat="45.55071" lon="6.78935">
        <ele>2160.8</ele>
        <time>2021-03-25T09:41:27Z</time>
      </trkpt>
      <trkpt lat="45.55071" lon="6.78936">
        <ele>2160.8</ele>
        <time>2021-03-25T09:41:28Z</time>
      </trkpt>
      <trkpt lat="45.55072" lon="6.78936">
        <ele>2160.8</ele>
        <time>2021-03-25T09:41:29Z</time>
      </trkpt>
      <trkpt lat="45.55072" lon="6.78937">
        <ele>2160.8</ele>
        <time>2021-03-25T09:41:30Z</time>
      </trkpt>
      <trkpt lat="45.55072" lon="6.78938">
        <ele>2160.2</ele>
        <time>2021-03-25T09:41:31Z</time>
      </trkpt>
      <trkpt lat="45.55073" lon="6.78938">
        <ele>2160.9</ele>
        <time>2021-03-25T09:41:32Z</time>
      </trkpt>
      <trkpt lat="45.55073" lon="6.78939">
        <ele>2160.9</ele>
        <time>2021-03-25T09:41:33Z</time>
      </trkpt>
      <trkpt lat="45.55073" lon="6.7894">
        <ele>2160.9</ele>
        <time>2021-03-25T09:41:34Z</time>
      </trkpt>
      <trkpt lat="45.55074" lon="6.78941">
        <ele>2160.9</ele>
        <time>2021-03-25T09:41:35Z</time>
      </trkpt>
      <trkpt lat="45.55074" lon="6.78942">
        <ele>2160.9</ele>
        <time>2021-03-25T09:41:36Z</time>
      </trkpt>
      <trkpt lat="45.55075" lon="6.78943">
        <ele>2161.6</ele>
        <time>2021-03-25T09:41:37Z</time>
      </trkpt>
      <trkpt lat="45.55075" lon="6.78944">
        <ele>2161.6</ele>
        <time>2021-03-25T09:41:38Z</time>
      </trkpt>
      <trkpt lat="45.55075" lon="6.78945">
        <ele>2161.1</ele>
        <time>2021-03-25T09:41:39Z</time>
      </trkpt>
      <trkpt lat="45.55076" lon="6.78946">
        <ele>2161.1</ele>
        <time>2021-03-25T09:41:40Z</time>
      </trkpt>
      <trkpt lat="45.55076" lon="6.78947">
        <ele>2161.8</ele>
        <time>2021-03-25T09:41:41Z</time>
      </trkpt>
      <trkpt lat="45.55076" lon="6.78948">
        <ele>2161.8</ele>
        <time>2021-03-25T09:41:42Z</time>
      </trkpt>
      <trkpt lat="45.55076" lon="6.78948">
        <ele>2161.8</ele>
        <time>2021-03-25T09:41:43Z</time>
      </trkpt>
      <trkpt lat="45.55077" lon="6.78949">
        <ele>2161.8</ele>
        <time>2021-03-25T09:41:44Z</time>
      </trkpt>
      <trkpt lat="45.55077" lon="6.7895">
        <ele>2161.8</ele>
        <time>2021-03-25T09:41:45Z</time>
      </trkpt>
      <trkpt lat="45.55077" lon="6.78951">
        <ele>2161.8</ele>
        <time>2021-03-25T09:41:46Z</time>
      </trkpt>
      <trkpt lat="45.55077" lon="6.78951">
        <ele>2162.5</ele>
        <time>2021-03-25T09:41:47Z</time>
      </trkpt>
      <trkpt lat="45.55077" lon="6.78952">
        <ele>2162.5</ele>
        <time>2021-03-25T09:41:48Z</time>
      </trkpt>
      <trkpt lat="45.55077" lon="6.78953">
        <ele>2162.5</ele>
        <time>2021-03-25T09:41:49Z</time>
      </trkpt>
      <trkpt lat="45.55077" lon="6.78953">
        <ele>2162.5</ele>
        <time>2021-03-25T09:41:50Z</time>
      </trkpt>
      <trkpt lat="45.55078" lon="6.78954">
        <ele>2162.5</ele>
        <time>2021-03-25T09:41:51Z</time>
      </trkpt>
      <trkpt lat="45.55078" lon="6.78955">
        <ele>2162.5</ele>
        <time>2021-03-25T09:41:52Z</time>
      </trkpt>
      <trkpt lat="45.55079" lon="6.78956">
        <ele>2163.1</ele>
        <time>2021-03-25T09:41:53Z</time>
      </trkpt>
      <trkpt lat="45.55079" lon="6.78956">
        <ele>2163.1</ele>
        <time>2021-03-25T09:41:54Z</time>
      </trkpt>
      <trkpt lat="45.55079" lon="6.78957">
        <ele>2163.1</ele>
        <time>2021-03-25T09:41:55Z</time>
      </trkpt>
      <trkpt lat="45.55079" lon="6.78958">
        <ele>2163.1</ele>
        <time>2021-03-25T09:41:56Z</time>
      </trkpt>
      <trkpt lat="45.55079" lon="6.78958">
        <ele>2163.1</ele>
        <time>2021-03-25T09:41:57Z</time>
      </trkpt>
      <trkpt lat="45.5508" lon="6.78959">
        <ele>2163.1</ele>
        <time>2021-03-25T09:41:58Z</time>
      </trkpt>
      <trkpt lat="45.5508" lon="6.7896">
        <ele>2163.9</ele>
        <time>2021-03-25T09:41:59Z</time>
      </trkpt>
      <trkpt lat="45.5508" lon="6.78961">
        <ele>2163.9</ele>
        <time>2021-03-25T09:42:00Z</time>
      </trkpt>
      <trkpt lat="45.55081" lon="6.78961">
        <ele>2163.9</ele>
        <time>2021-03-25T09:42:01Z</time>
      </trkpt>
      <trkpt lat="45.55081" lon="6.78962">
        <ele>2163.9</ele>
        <time>2021-03-25T09:42:02Z</time>
      </trkpt>
      <trkpt lat="45.55082" lon="6.78962">
        <ele>2163.4</ele>
        <time>2021-03-25T09:42:03Z</time>
      </trkpt>
      <trkpt lat="45.55082" lon="6.78962">
        <ele>2163.4</ele>
        <time>2021-03-25T09:42:04Z</time>
      </trkpt>
      <trkpt lat="45.55082" lon="6.78963">
        <ele>2163.4</ele>
        <time>2021-03-25T09:42:05Z</time>
      </trkpt>
      <trkpt lat="45.55083" lon="6.78964">
        <ele>2163.4</ele>
        <time>2021-03-25T09:42:06Z</time>
      </trkpt>
      <trkpt lat="45.55083" lon="6.78964">
        <ele>2164.3</ele>
        <time>2021-03-25T09:42:07Z</time>
      </trkpt>
      <trkpt lat="45.55083" lon="6.78965">
        <ele>2164.3</ele>
        <time>2021-03-25T09:42:08Z</time>
      </trkpt>
      <trkpt lat="45.55083" lon="6.78965">
        <ele>2164.3</ele>
        <time>2021-03-25T09:42:09Z</time>
      </trkpt>
      <trkpt lat="45.55084" lon="6.78966">
        <ele>2164.3</ele>
        <time>2021-03-25T09:42:10Z</time>
      </trkpt>
      <trkpt lat="45.55084" lon="6.78966">
        <ele>2164.3</ele>
        <time>2021-03-25T09:42:11Z</time>
      </trkpt>
      <trkpt lat="45.55084" lon="6.78967">
        <ele>2164.3</ele>
        <time>2021-03-25T09:42:12Z</time>
      </trkpt>
      <trkpt lat="45.55084" lon="6.78968">
        <ele>2164.3</ele>
        <time>2021-03-25T09:42:13Z</time>
      </trkpt>
      <trkpt lat="45.55084" lon="6.78968">
        <ele>2165.2</ele>
        <time>2021-03-25T09:42:14Z</time>
      </trkpt>
      <trkpt lat="45.55084" lon="6.78969">
        <ele>2165.2</ele>
        <time>2021-03-25T09:42:15Z</time>
      </trkpt>
      <trkpt lat="45.55084" lon="6.7897">
        <ele>2164.7</ele>
        <time>2021-03-25T09:42:16Z</time>
      </trkpt>
      <trkpt lat="45.55085" lon="6.78971">
        <ele>2164.7</ele>
        <time>2021-03-25T09:42:17Z</time>
      </trkpt>
      <trkpt lat="45.55085" lon="6.78972">
        <ele>2164.7</ele>
        <time>2021-03-25T09:42:18Z</time>
      </trkpt>
      <trkpt lat="45.55085" lon="6.78972">
        <ele>2165.6</ele>
        <time>2021-03-25T09:42:19Z</time>
      </trkpt>
      <trkpt lat="45.55085" lon="6.78973">
        <ele>2165.6</ele>
        <time>2021-03-25T09:42:20Z</time>
      </trkpt>
      <trkpt lat="45.55085" lon="6.78974">
        <ele>2165.6</ele>
        <time>2021-03-25T09:42:21Z</time>
      </trkpt>
      <trkpt lat="45.55085" lon="6.78975">
        <ele>2165.6</ele>
        <time>2021-03-25T09:42:22Z</time>
      </trkpt>
      <trkpt lat="45.55085" lon="6.78976">
        <ele>2165.6</ele>
        <time>2021-03-25T09:42:23Z</time>
      </trkpt>
      <trkpt lat="45.55085" lon="6.78978">
        <ele>2166.6</ele>
        <time>2021-03-25T09:42:24Z</time>
      </trkpt>
      <trkpt lat="45.55085" lon="6.78979">
        <ele>2166.6</ele>
        <time>2021-03-25T09:42:25Z</time>
      </trkpt>
      <trkpt lat="45.55085" lon="6.7898">
        <ele>2166.6</ele>
        <time>2021-03-25T09:42:26Z</time>
      </trkpt>
      <trkpt lat="45.55085" lon="6.7898">
        <ele>2166.6</ele>
        <time>2021-03-25T09:42:27Z</time>
      </trkpt>
      <trkpt lat="45.55085" lon="6.78981">
        <ele>2167.5</ele>
        <time>2021-03-25T09:42:28Z</time>
      </trkpt>
      <trkpt lat="45.55085" lon="6.78982">
        <ele>2167.5</ele>
        <time>2021-03-25T09:42:29Z</time>
      </trkpt>
      <trkpt lat="45.55085" lon="6.78983">
        <ele>2167.5</ele>
        <time>2021-03-25T09:42:30Z</time>
      </trkpt>
      <trkpt lat="45.55085" lon="6.78984">
        <ele>2167.5</ele>
        <time>2021-03-25T09:42:31Z</time>
      </trkpt>
      <trkpt lat="45.55085" lon="6.78985">
        <ele>2168.4</ele>
        <time>2021-03-25T09:42:32Z</time>
      </trkpt>
      <trkpt lat="45.55085" lon="6.78986">
        <ele>2168.4</ele>
        <time>2021-03-25T09:42:33Z</time>
      </trkpt>
      <trkpt lat="45.55085" lon="6.78987">
        <ele>2168.4</ele>
        <time>2021-03-25T09:42:34Z</time>
      </trkpt>
      <trkpt lat="45.55085" lon="6.78988">
        <ele>2168.4</ele>
        <time>2021-03-25T09:42:35Z</time>
      </trkpt>
      <trkpt lat="45.55085" lon="6.78989">
        <ele>2168.4</ele>
        <time>2021-03-25T09:42:36Z</time>
      </trkpt>
      <trkpt lat="45.55085" lon="6.7899">
        <ele>2169.4</ele>
        <time>2021-03-25T09:42:37Z</time>
      </trkpt>
      <trkpt lat="45.55085" lon="6.78991">
        <ele>2169.4</ele>
        <time>2021-03-25T09:42:38Z</time>
      </trkpt>
      <trkpt lat="45.55085" lon="6.78992">
        <ele>2169.4</ele>
        <time>2021-03-25T09:42:39Z</time>
      </trkpt>
      <trkpt lat="45.55085" lon="6.78992">
        <ele>2169.4</ele>
        <time>2021-03-25T09:42:40Z</time>
      </trkpt>
      <trkpt lat="45.55085" lon="6.78993">
        <ele>2169.4</ele>
        <time>2021-03-25T09:42:41Z</time>
      </trkpt>
      <trkpt lat="45.55085" lon="6.78994">
        <ele>2170.3</ele>
        <time>2021-03-25T09:42:42Z</time>
      </trkpt>
      <trkpt lat="45.55084" lon="6.78995">
        <ele>2170.3</ele>
        <time>2021-03-25T09:42:43Z</time>
      </trkpt>
      <trkpt lat="45.55084" lon="6.78996">
        <ele>2170.3</ele>
        <time>2021-03-25T09:42:44Z</time>
      </trkpt>
      <trkpt lat="45.55084" lon="6.78997">
        <ele>2170.7</ele>
        <time>2021-03-25T09:42:45Z</time>
      </trkpt>
      <trkpt lat="45.55084" lon="6.78998">
        <ele>2170.7</ele>
        <time>2021-03-25T09:42:46Z</time>
      </trkpt>
      <trkpt lat="45.55084" lon="6.78999">
        <ele>2171.7</ele>
        <time>2021-03-25T09:42:47Z</time>
      </trkpt>
      <trkpt lat="45.55084" lon="6.78999">
        <ele>2171.7</ele>
        <time>2021-03-25T09:42:48Z</time>
      </trkpt>
      <trkpt lat="45.55084" lon="6.79">
        <ele>2171.7</ele>
        <time>2021-03-25T09:42:49Z</time>
      </trkpt>
      <trkpt lat="45.55084" lon="6.79001">
        <ele>2171.7</ele>
        <time>2021-03-25T09:42:50Z</time>
      </trkpt>
      <trkpt lat="45.55083" lon="6.79002">
        <ele>2171.7</ele>
        <time>2021-03-25T09:42:51Z</time>
      </trkpt>
      <trkpt lat="45.55083" lon="6.79003">
        <ele>2172.6</ele>
        <time>2021-03-25T09:42:52Z</time>
      </trkpt>
      <trkpt lat="45.55083" lon="6.79004">
        <ele>2172.6</ele>
        <time>2021-03-25T09:42:53Z</time>
      </trkpt>
      <trkpt lat="45.55083" lon="6.79004">
        <ele>2172.6</ele>
        <time>2021-03-25T09:42:54Z</time>
      </trkpt>
      <trkpt lat="45.55083" lon="6.79005">
        <ele>2172.6</ele>
        <time>2021-03-25T09:42:55Z</time>
      </trkpt>
      <trkpt lat="45.55082" lon="6.79006">
        <ele>2172.6</ele>
        <time>2021-03-25T09:42:56Z</time>
      </trkpt>
      <trkpt lat="45.55082" lon="6.79007">
        <ele>2173.6</ele>
        <time>2021-03-25T09:42:57Z</time>
      </trkpt>
      <trkpt lat="45.55081" lon="6.79008">
        <ele>2173.6</ele>
        <time>2021-03-25T09:42:58Z</time>
      </trkpt>
      <trkpt lat="45.55081" lon="6.79009">
        <ele>2174</ele>
        <time>2021-03-25T09:42:59Z</time>
      </trkpt>
      <trkpt lat="45.55081" lon="6.79009">
        <ele>2174</ele>
        <time>2021-03-25T09:43:00Z</time>
      </trkpt>
      <trkpt lat="45.55081" lon="6.7901">
        <ele>2174</ele>
        <time>2021-03-25T09:43:01Z</time>
      </trkpt>
      <trkpt lat="45.5508" lon="6.79011">
        <ele>2175</ele>
        <time>2021-03-25T09:43:02Z</time>
      </trkpt>
      <trkpt lat="45.5508" lon="6.79012">
        <ele>2175</ele>
        <time>2021-03-25T09:43:03Z</time>
      </trkpt>
      <trkpt lat="45.55079" lon="6.79013">
        <ele>2175</ele>
        <time>2021-03-25T09:43:04Z</time>
      </trkpt>
      <trkpt lat="45.55079" lon="6.79014">
        <ele>2175</ele>
        <time>2021-03-25T09:43:05Z</time>
      </trkpt>
      <trkpt lat="45.55079" lon="6.79015">
        <ele>2175</ele>
        <time>2021-03-25T09:43:06Z</time>
      </trkpt>
      <trkpt lat="45.55079" lon="6.79015">
        <ele>2176</ele>
        <time>2021-03-25T09:43:07Z</time>
      </trkpt>
      <trkpt lat="45.55078" lon="6.79017">
        <ele>2176.4</ele>
        <time>2021-03-25T09:43:08Z</time>
      </trkpt>
      <trkpt lat="45.55078" lon="6.79017">
        <ele>2176.4</ele>
        <time>2021-03-25T09:43:09Z</time>
      </trkpt>
      <trkpt lat="45.55077" lon="6.79018">
        <ele>2176.4</ele>
        <time>2021-03-25T09:43:10Z</time>
      </trkpt>
      <trkpt lat="45.55077" lon="6.79019">
        <ele>2176.4</ele>
        <time>2021-03-25T09:43:11Z</time>
      </trkpt>
      <trkpt lat="45.55077" lon="6.7902">
        <ele>2177.4</ele>
        <time>2021-03-25T09:43:12Z</time>
      </trkpt>
      <trkpt lat="45.55077" lon="6.79021">
        <ele>2177.4</ele>
        <time>2021-03-25T09:43:13Z</time>
      </trkpt>
      <trkpt lat="45.55077" lon="6.79022">
        <ele>2177.4</ele>
        <time>2021-03-25T09:43:14Z</time>
      </trkpt>
      <trkpt lat="45.55076" lon="6.79022">
        <ele>2177.4</ele>
        <time>2021-03-25T09:43:15Z</time>
      </trkpt>
      <trkpt lat="45.55076" lon="6.79023">
        <ele>2177.4</ele>
        <time>2021-03-25T09:43:16Z</time>
      </trkpt>
      <trkpt lat="45.55075" lon="6.79023">
        <ele>2177.9</ele>
        <time>2021-03-25T09:43:17Z</time>
      </trkpt>
      <trkpt lat="45.55074" lon="6.79024">
        <ele>2177.9</ele>
        <time>2021-03-25T09:43:18Z</time>
      </trkpt>
      <trkpt lat="45.55074" lon="6.79024">
        <ele>2178.8</ele>
        <time>2021-03-25T09:43:19Z</time>
      </trkpt>
      <trkpt lat="45.55073" lon="6.79025">
        <ele>2178.8</ele>
        <time>2021-03-25T09:43:20Z</time>
      </trkpt>
      <trkpt lat="45.55072" lon="6.79026">
        <ele>2178.8</ele>
        <time>2021-03-25T09:43:21Z</time>
      </trkpt>
      <trkpt lat="45.55072" lon="6.79026">
        <ele>2179.3</ele>
        <time>2021-03-25T09:43:22Z</time>
      </trkpt>
      <trkpt lat="45.55071" lon="6.79027">
        <ele>2179.3</ele>
        <time>2021-03-25T09:43:23Z</time>
      </trkpt>
      <trkpt lat="45.55071" lon="6.79027">
        <ele>2179.3</ele>
        <time>2021-03-25T09:43:24Z</time>
      </trkpt>
      <trkpt lat="45.5507" lon="6.79028">
        <ele>2179.3</ele>
        <time>2021-03-25T09:43:25Z</time>
      </trkpt>
      <trkpt lat="45.5507" lon="6.79028">
        <ele>2180.2</ele>
        <time>2021-03-25T09:43:26Z</time>
      </trkpt>
      <trkpt lat="45.5507" lon="6.79029">
        <ele>2180.2</ele>
        <time>2021-03-25T09:43:27Z</time>
      </trkpt>
      <trkpt lat="45.55069" lon="6.7903">
        <ele>2180.6</ele>
        <time>2021-03-25T09:43:28Z</time>
      </trkpt>
      <trkpt lat="45.55069" lon="6.79031">
        <ele>2180.6</ele>
        <time>2021-03-25T09:43:29Z</time>
      </trkpt>
      <trkpt lat="45.55069" lon="6.79032">
        <ele>2180.6</ele>
        <time>2021-03-25T09:43:30Z</time>
      </trkpt>
      <trkpt lat="45.55069" lon="6.79033">
        <ele>2181.5</ele>
        <time>2021-03-25T09:43:31Z</time>
      </trkpt>
      <trkpt lat="45.55069" lon="6.79034">
        <ele>2181.5</ele>
        <time>2021-03-25T09:43:32Z</time>
      </trkpt>
      <trkpt lat="45.55069" lon="6.79034">
        <ele>2181.5</ele>
        <time>2021-03-25T09:43:33Z</time>
      </trkpt>
      <trkpt lat="45.55068" lon="6.79035">
        <ele>2181.5</ele>
        <time>2021-03-25T09:43:34Z</time>
      </trkpt>
      <trkpt lat="45.55068" lon="6.79036">
        <ele>2181.5</ele>
        <time>2021-03-25T09:43:35Z</time>
      </trkpt>
      <trkpt lat="45.55068" lon="6.79037">
        <ele>2181.5</ele>
        <time>2021-03-25T09:43:36Z</time>
      </trkpt>
      <trkpt lat="45.55067" lon="6.79037">
        <ele>2182.3</ele>
        <time>2021-03-25T09:43:37Z</time>
      </trkpt>
      <trkpt lat="45.55067" lon="6.79038">
        <ele>2182.3</ele>
        <time>2021-03-25T09:43:38Z</time>
      </trkpt>
      <trkpt lat="45.55067" lon="6.79039">
        <ele>2182.3</ele>
        <time>2021-03-25T09:43:39Z</time>
      </trkpt>
      <trkpt lat="45.55067" lon="6.7904">
        <ele>2182.3</ele>
        <time>2021-03-25T09:43:40Z</time>
      </trkpt>
      <trkpt lat="45.55066" lon="6.79041">
        <ele>2182.3</ele>
        <time>2021-03-25T09:43:41Z</time>
      </trkpt>
      <trkpt lat="45.55066" lon="6.79042">
        <ele>2183.6</ele>
        <time>2021-03-25T09:43:42Z</time>
      </trkpt>
      <trkpt lat="45.55066" lon="6.79042">
        <ele>2183.6</ele>
        <time>2021-03-25T09:43:43Z</time>
      </trkpt>
      <trkpt lat="45.55065" lon="6.79043">
        <ele>2183.6</ele>
        <time>2021-03-25T09:43:44Z</time>
      </trkpt>
      <trkpt lat="45.55065" lon="6.79044">
        <ele>2183.6</ele>
        <time>2021-03-25T09:43:45Z</time>
      </trkpt>
      <trkpt lat="45.55065" lon="6.79045">
        <ele>2183.6</ele>
        <time>2021-03-25T09:43:46Z</time>
      </trkpt>
      <trkpt lat="45.55064" lon="6.79046">
        <ele>2184.4</ele>
        <time>2021-03-25T09:43:47Z</time>
      </trkpt>
      <trkpt lat="45.55064" lon="6.79047">
        <ele>2184.4</ele>
        <time>2021-03-25T09:43:48Z</time>
      </trkpt>
      <trkpt lat="45.55064" lon="6.79048">
        <ele>2184.4</ele>
        <time>2021-03-25T09:43:49Z</time>
      </trkpt>
      <trkpt lat="45.55064" lon="6.79049">
        <ele>2184.4</ele>
        <time>2021-03-25T09:43:50Z</time>
      </trkpt>
      <trkpt lat="45.55064" lon="6.7905">
        <ele>2185.3</ele>
        <time>2021-03-25T09:43:51Z</time>
      </trkpt>
      <trkpt lat="45.55063" lon="6.79051">
        <ele>2185.3</ele>
        <time>2021-03-25T09:43:52Z</time>
      </trkpt>
      <trkpt lat="45.55063" lon="6.79052">
        <ele>2185.3</ele>
        <time>2021-03-25T09:43:53Z</time>
      </trkpt>
      <trkpt lat="45.55063" lon="6.79053">
        <ele>2185.7</ele>
        <time>2021-03-25T09:43:54Z</time>
      </trkpt>
      <trkpt lat="45.55063" lon="6.79054">
        <ele>2185.7</ele>
        <time>2021-03-25T09:43:55Z</time>
      </trkpt>
      <trkpt lat="45.55063" lon="6.79054">
        <ele>2186.6</ele>
        <time>2021-03-25T09:43:56Z</time>
      </trkpt>
      <trkpt lat="45.55062" lon="6.79055">
        <ele>2186.6</ele>
        <time>2021-03-25T09:43:57Z</time>
      </trkpt>
      <trkpt lat="45.55062" lon="6.79056">
        <ele>2186.6</ele>
        <time>2021-03-25T09:43:58Z</time>
      </trkpt>
      <trkpt lat="45.55062" lon="6.79057">
        <ele>2186.6</ele>
        <time>2021-03-25T09:43:59Z</time>
      </trkpt>
      <trkpt lat="45.55062" lon="6.79058">
        <ele>2187.6</ele>
        <time>2021-03-25T09:44:00Z</time>
      </trkpt>
      <trkpt lat="45.55062" lon="6.79059">
        <ele>2187.6</ele>
        <time>2021-03-25T09:44:01Z</time>
      </trkpt>
      <trkpt lat="45.55062" lon="6.7906">
        <ele>2187.6</ele>
        <time>2021-03-25T09:44:02Z</time>
      </trkpt>
      <trkpt lat="45.55061" lon="6.79061">
        <ele>2187.6</ele>
        <time>2021-03-25T09:44:03Z</time>
      </trkpt>
      <trkpt lat="45.55061" lon="6.79062">
        <ele>2187.6</ele>
        <time>2021-03-25T09:44:04Z</time>
      </trkpt>
      <trkpt lat="45.55061" lon="6.79063">
        <ele>2188.6</ele>
        <time>2021-03-25T09:44:05Z</time>
      </trkpt>
      <trkpt lat="45.55061" lon="6.79064">
        <ele>2188.6</ele>
        <time>2021-03-25T09:44:06Z</time>
      </trkpt>
      <trkpt lat="45.55061" lon="6.79065">
        <ele>2188.6</ele>
        <time>2021-03-25T09:44:07Z</time>
      </trkpt>
      <trkpt lat="45.5506" lon="6.79066">
        <ele>2188.6</ele>
        <time>2021-03-25T09:44:08Z</time>
      </trkpt>
      <trkpt lat="45.5506" lon="6.79067">
        <ele>2190</ele>
        <time>2021-03-25T09:44:09Z</time>
      </trkpt>
      <trkpt lat="45.5506" lon="6.79069">
        <ele>2190</ele>
        <time>2021-03-25T09:44:10Z</time>
      </trkpt>
      <trkpt lat="45.5506" lon="6.7907">
        <ele>2190</ele>
        <time>2021-03-25T09:44:11Z</time>
      </trkpt>
      <trkpt lat="45.5506" lon="6.79071">
        <ele>2190</ele>
        <time>2021-03-25T09:44:12Z</time>
      </trkpt>
      <trkpt lat="45.5506" lon="6.79072">
        <ele>2190.9</ele>
        <time>2021-03-25T09:44:13Z</time>
      </trkpt>
      <trkpt lat="45.5506" lon="6.79073">
        <ele>2190.9</ele>
        <time>2021-03-25T09:44:14Z</time>
      </trkpt>
      <trkpt lat="45.5506" lon="6.79074">
        <ele>2190.9</ele>
        <time>2021-03-25T09:44:15Z</time>
      </trkpt>
      <trkpt lat="45.55059" lon="6.79075">
        <ele>2190.9</ele>
        <time>2021-03-25T09:44:16Z</time>
      </trkpt>
      <trkpt lat="45.55059" lon="6.79076">
        <ele>2191.8</ele>
        <time>2021-03-25T09:44:17Z</time>
      </trkpt>
      <trkpt lat="45.55059" lon="6.79077">
        <ele>2191.8</ele>
        <time>2021-03-25T09:44:18Z</time>
      </trkpt>
      <trkpt lat="45.55059" lon="6.79078">
        <ele>2191.8</ele>
        <time>2021-03-25T09:44:19Z</time>
      </trkpt>
      <trkpt lat="45.55059" lon="6.79079">
        <ele>2191.8</ele>
        <time>2021-03-25T09:44:20Z</time>
      </trkpt>
      <trkpt lat="45.55059" lon="6.7908">
        <ele>2192.7</ele>
        <time>2021-03-25T09:44:21Z</time>
      </trkpt>
      <trkpt lat="45.55059" lon="6.79081">
        <ele>2192.7</ele>
        <time>2021-03-25T09:44:22Z</time>
      </trkpt>
      <trkpt lat="45.55059" lon="6.79082">
        <ele>2192.7</ele>
        <time>2021-03-25T09:44:23Z</time>
      </trkpt>
      <trkpt lat="45.55059" lon="6.79083">
        <ele>2192.7</ele>
        <time>2021-03-25T09:44:24Z</time>
      </trkpt>
      <trkpt lat="45.55058" lon="6.79084">
        <ele>2193.7</ele>
        <time>2021-03-25T09:44:25Z</time>
      </trkpt>
      <trkpt lat="45.55058" lon="6.79085">
        <ele>2193.7</ele>
        <time>2021-03-25T09:44:26Z</time>
      </trkpt>
      <trkpt lat="45.55058" lon="6.79086">
        <ele>2193.7</ele>
        <time>2021-03-25T09:44:27Z</time>
      </trkpt>
      <trkpt lat="45.55058" lon="6.79087">
        <ele>2193.7</ele>
        <time>2021-03-25T09:44:28Z</time>
      </trkpt>
      <trkpt lat="45.55058" lon="6.79088">
        <ele>2194.6</ele>
        <time>2021-03-25T09:44:29Z</time>
      </trkpt>
      <trkpt lat="45.55058" lon="6.79089">
        <ele>2194.6</ele>
        <time>2021-03-25T09:44:30Z</time>
      </trkpt>
      <trkpt lat="45.55058" lon="6.7909">
        <ele>2194.6</ele>
        <time>2021-03-25T09:44:31Z</time>
      </trkpt>
      <trkpt lat="45.55058" lon="6.79091">
        <ele>2194.6</ele>
        <time>2021-03-25T09:44:32Z</time>
      </trkpt>
      <trkpt lat="45.55058" lon="6.79092">
        <ele>2194.6</ele>
        <time>2021-03-25T09:44:33Z</time>
      </trkpt>
      <trkpt lat="45.55057" lon="6.79093">
        <ele>2195.5</ele>
        <time>2021-03-25T09:44:34Z</time>
      </trkpt>
      <trkpt lat="45.55057" lon="6.79094">
        <ele>2195.5</ele>
        <time>2021-03-25T09:44:35Z</time>
      </trkpt>
      <trkpt lat="45.55057" lon="6.79095">
        <ele>2195.9</ele>
        <time>2021-03-25T09:44:36Z</time>
      </trkpt>
      <trkpt lat="45.55057" lon="6.79096">
        <ele>2195.9</ele>
        <time>2021-03-25T09:44:37Z</time>
      </trkpt>
      <trkpt lat="45.55057" lon="6.79097">
        <ele>2196.9</ele>
        <time>2021-03-25T09:44:38Z</time>
      </trkpt>
      <trkpt lat="45.55057" lon="6.79097">
        <ele>2196.9</ele>
        <time>2021-03-25T09:44:39Z</time>
      </trkpt>
      <trkpt lat="45.55056" lon="6.79097">
        <ele>2195.9</ele>
        <time>2021-03-25T09:44:40Z</time>
      </trkpt>
      <trkpt lat="45.55056" lon="6.79097">
        <ele>2196.9</ele>
        <time>2021-03-25T09:44:41Z</time>
      </trkpt>
      <trkpt lat="45.55055" lon="6.79098">
        <ele>2196.9</ele>
        <time>2021-03-25T09:44:42Z</time>
      </trkpt>
      <trkpt lat="45.55055" lon="6.79099">
        <ele>2196.9</ele>
        <time>2021-03-25T09:44:43Z</time>
      </trkpt>
      <trkpt lat="45.55054" lon="6.791">
        <ele>2196.9</ele>
        <time>2021-03-25T09:44:44Z</time>
      </trkpt>
      <trkpt lat="45.55054" lon="6.79101">
        <ele>2197.2</ele>
        <time>2021-03-25T09:44:45Z</time>
      </trkpt>
      <trkpt lat="45.55054" lon="6.79102">
        <ele>2198.2</ele>
        <time>2021-03-25T09:44:46Z</time>
      </trkpt>
      <trkpt lat="45.55054" lon="6.79103">
        <ele>2198.2</ele>
        <time>2021-03-25T09:44:47Z</time>
      </trkpt>
      <trkpt lat="45.55054" lon="6.79104">
        <ele>2198.2</ele>
        <time>2021-03-25T09:44:48Z</time>
      </trkpt>
      <trkpt lat="45.55053" lon="6.79105">
        <ele>2198.2</ele>
        <time>2021-03-25T09:44:49Z</time>
      </trkpt>
      <trkpt lat="45.55053" lon="6.79106">
        <ele>2199.3</ele>
        <time>2021-03-25T09:44:50Z</time>
      </trkpt>
      <trkpt lat="45.55053" lon="6.79107">
        <ele>2199.3</ele>
        <time>2021-03-25T09:44:51Z</time>
      </trkpt>
      <trkpt lat="45.55053" lon="6.79107">
        <ele>2199.3</ele>
        <time>2021-03-25T09:44:52Z</time>
      </trkpt>
      <trkpt lat="45.55053" lon="6.79108">
        <ele>2199.3</ele>
        <time>2021-03-25T09:44:53Z</time>
      </trkpt>
      <trkpt lat="45.55053" lon="6.79109">
        <ele>2199.3</ele>
        <time>2021-03-25T09:44:54Z</time>
      </trkpt>
      <trkpt lat="45.55053" lon="6.7911">
        <ele>2200.3</ele>
        <time>2021-03-25T09:44:55Z</time>
      </trkpt>
      <trkpt lat="45.55053" lon="6.79111">
        <ele>2200.3</ele>
        <time>2021-03-25T09:44:56Z</time>
      </trkpt>
      <trkpt lat="45.55052" lon="6.79112">
        <ele>2200.3</ele>
        <time>2021-03-25T09:44:57Z</time>
      </trkpt>
      <trkpt lat="45.55052" lon="6.79113">
        <ele>2200.3</ele>
        <time>2021-03-25T09:44:58Z</time>
      </trkpt>
      <trkpt lat="45.55052" lon="6.79114">
        <ele>2200.3</ele>
        <time>2021-03-25T09:44:59Z</time>
      </trkpt>
      <trkpt lat="45.55052" lon="6.79115">
        <ele>2201.2</ele>
        <time>2021-03-25T09:45:00Z</time>
      </trkpt>
      <trkpt lat="45.55052" lon="6.79116">
        <ele>2201.2</ele>
        <time>2021-03-25T09:45:01Z</time>
      </trkpt>
      <trkpt lat="45.55052" lon="6.79117">
        <ele>2201.2</ele>
        <time>2021-03-25T09:45:02Z</time>
      </trkpt>
      <trkpt lat="45.55051" lon="6.79118">
        <ele>2201.2</ele>
        <time>2021-03-25T09:45:03Z</time>
      </trkpt>
      <trkpt lat="45.55051" lon="6.79119">
        <ele>2202.2</ele>
        <time>2021-03-25T09:45:04Z</time>
      </trkpt>
      <trkpt lat="45.55051" lon="6.79119">
        <ele>2202.6</ele>
        <time>2021-03-25T09:45:05Z</time>
      </trkpt>
      <trkpt lat="45.55051" lon="6.7912">
        <ele>2202.6</ele>
        <time>2021-03-25T09:45:06Z</time>
      </trkpt>
      <trkpt lat="45.55051" lon="6.79121">
        <ele>2202.6</ele>
        <time>2021-03-25T09:45:07Z</time>
      </trkpt>
      <trkpt lat="45.55051" lon="6.79121">
        <ele>2202.6</ele>
        <time>2021-03-25T09:45:08Z</time>
      </trkpt>
      <trkpt lat="45.55051" lon="6.79122">
        <ele>2202.6</ele>
        <time>2021-03-25T09:45:09Z</time>
      </trkpt>
      <trkpt lat="45.55051" lon="6.79123">
        <ele>2203.5</ele>
        <time>2021-03-25T09:45:10Z</time>
      </trkpt>
      <trkpt lat="45.55051" lon="6.79123">
        <ele>2203.5</ele>
        <time>2021-03-25T09:45:11Z</time>
      </trkpt>
      <trkpt lat="45.55051" lon="6.79124">
        <ele>2203.5</ele>
        <time>2021-03-25T09:45:12Z</time>
      </trkpt>
      <trkpt lat="45.55051" lon="6.79124">
        <ele>2203.5</ele>
        <time>2021-03-25T09:45:13Z</time>
      </trkpt>
      <trkpt lat="45.55051" lon="6.79125">
        <ele>2203.5</ele>
        <time>2021-03-25T09:45:14Z</time>
      </trkpt>
      <trkpt lat="45.55051" lon="6.79126">
        <ele>2203.5</ele>
        <time>2021-03-25T09:45:15Z</time>
      </trkpt>
      <trkpt lat="45.55051" lon="6.79127">
        <ele>2204.3</ele>
        <time>2021-03-25T09:45:16Z</time>
      </trkpt>
      <trkpt lat="45.55051" lon="6.79128">
        <ele>2204.3</ele>
        <time>2021-03-25T09:45:17Z</time>
      </trkpt>
      <trkpt lat="45.55051" lon="6.79129">
        <ele>2204.3</ele>
        <time>2021-03-25T09:45:18Z</time>
      </trkpt>
      <trkpt lat="45.55051" lon="6.7913">
        <ele>2204.3</ele>
        <time>2021-03-25T09:45:19Z</time>
      </trkpt>
      <trkpt lat="45.55051" lon="6.79131">
        <ele>2204.3</ele>
        <time>2021-03-25T09:45:20Z</time>
      </trkpt>
      <trkpt lat="45.55051" lon="6.79131">
        <ele>2205.2</ele>
        <time>2021-03-25T09:45:21Z</time>
      </trkpt>
      <trkpt lat="45.55051" lon="6.79132">
        <ele>2205.2</ele>
        <time>2021-03-25T09:45:22Z</time>
      </trkpt>
      <trkpt lat="45.55051" lon="6.79133">
        <ele>2205.2</ele>
        <time>2021-03-25T09:45:23Z</time>
      </trkpt>
      <trkpt lat="45.55051" lon="6.79134">
        <ele>2205.2</ele>
        <time>2021-03-25T09:45:24Z</time>
      </trkpt>
      <trkpt lat="45.5505" lon="6.79134">
        <ele>2205.2</ele>
        <time>2021-03-25T09:45:25Z</time>
      </trkpt>
      <trkpt lat="45.5505" lon="6.79135">
        <ele>2205.2</ele>
        <time>2021-03-25T09:45:26Z</time>
      </trkpt>
      <trkpt lat="45.5505" lon="6.79136">
        <ele>2205.9</ele>
        <time>2021-03-25T09:45:27Z</time>
      </trkpt>
      <trkpt lat="45.55049" lon="6.79137">
        <ele>2205.9</ele>
        <time>2021-03-25T09:45:28Z</time>
      </trkpt>
      <trkpt lat="45.55049" lon="6.79138">
        <ele>2205.9</ele>
        <time>2021-03-25T09:45:29Z</time>
      </trkpt>
      <trkpt lat="45.55049" lon="6.79139">
        <ele>2205.9</ele>
        <time>2021-03-25T09:45:30Z</time>
      </trkpt>
      <trkpt lat="45.55049" lon="6.79141">
        <ele>2206.7</ele>
        <time>2021-03-25T09:45:31Z</time>
      </trkpt>
      <trkpt lat="45.55048" lon="6.79142">
        <ele>2206.7</ele>
        <time>2021-03-25T09:45:32Z</time>
      </trkpt>
      <trkpt lat="45.55048" lon="6.79143">
        <ele>2206.7</ele>
        <time>2021-03-25T09:45:33Z</time>
      </trkpt>
      <trkpt lat="45.55048" lon="6.79144">
        <ele>2206.7</ele>
        <time>2021-03-25T09:45:34Z</time>
      </trkpt>
      <trkpt lat="45.55048" lon="6.79145">
        <ele>2207.5</ele>
        <time>2021-03-25T09:45:35Z</time>
      </trkpt>
      <trkpt lat="45.55048" lon="6.79145">
        <ele>2207.5</ele>
        <time>2021-03-25T09:45:36Z</time>
      </trkpt>
      <trkpt lat="45.55048" lon="6.79146">
        <ele>2207.5</ele>
        <time>2021-03-25T09:45:37Z</time>
      </trkpt>
      <trkpt lat="45.55049" lon="6.79147">
        <ele>2207.5</ele>
        <time>2021-03-25T09:45:38Z</time>
      </trkpt>
      <trkpt lat="45.55049" lon="6.79148">
        <ele>2207.5</ele>
        <time>2021-03-25T09:45:39Z</time>
      </trkpt>
      <trkpt lat="45.55049" lon="6.79149">
        <ele>2208.3</ele>
        <time>2021-03-25T09:45:40Z</time>
      </trkpt>
      <trkpt lat="45.55049" lon="6.7915">
        <ele>2208.3</ele>
        <time>2021-03-25T09:45:41Z</time>
      </trkpt>
      <trkpt lat="45.55048" lon="6.79151">
        <ele>2208.3</ele>
        <time>2021-03-25T09:45:42Z</time>
      </trkpt>
      <trkpt lat="45.55049" lon="6.79152">
        <ele>2208.3</ele>
        <time>2021-03-25T09:45:43Z</time>
      </trkpt>
      <trkpt lat="45.55049" lon="6.79153">
        <ele>2209</ele>
        <time>2021-03-25T09:45:44Z</time>
      </trkpt>
      <trkpt lat="45.55049" lon="6.79155">
        <ele>2209</ele>
        <time>2021-03-25T09:45:45Z</time>
      </trkpt>
      <trkpt lat="45.55049" lon="6.79156">
        <ele>2209</ele>
        <time>2021-03-25T09:45:46Z</time>
      </trkpt>
      <trkpt lat="45.55049" lon="6.79156">
        <ele>2209</ele>
        <time>2021-03-25T09:45:47Z</time>
      </trkpt>
      <trkpt lat="45.55049" lon="6.79158">
        <ele>2209.7</ele>
        <time>2021-03-25T09:45:48Z</time>
      </trkpt>
      <trkpt lat="45.55049" lon="6.79159">
        <ele>2209.7</ele>
        <time>2021-03-25T09:45:49Z</time>
      </trkpt>
      <trkpt lat="45.5505" lon="6.7916">
        <ele>2209.7</ele>
        <time>2021-03-25T09:45:50Z</time>
      </trkpt>
      <trkpt lat="45.5505" lon="6.7916">
        <ele>2209.7</ele>
        <time>2021-03-25T09:45:51Z</time>
      </trkpt>
      <trkpt lat="45.5505" lon="6.79161">
        <ele>2210.3</ele>
        <time>2021-03-25T09:45:52Z</time>
      </trkpt>
      <trkpt lat="45.55051" lon="6.79162">
        <ele>2210.3</ele>
        <time>2021-03-25T09:45:53Z</time>
      </trkpt>
      <trkpt lat="45.55051" lon="6.79164">
        <ele>2210.3</ele>
        <time>2021-03-25T09:45:54Z</time>
      </trkpt>
      <trkpt lat="45.55051" lon="6.79164">
        <ele>2210.3</ele>
        <time>2021-03-25T09:45:55Z</time>
      </trkpt>
      <trkpt lat="45.55051" lon="6.79165">
        <ele>2209.7</ele>
        <time>2021-03-25T09:45:56Z</time>
      </trkpt>
      <trkpt lat="45.55051" lon="6.79166">
        <ele>2210.3</ele>
        <time>2021-03-25T09:45:57Z</time>
      </trkpt>
      <trkpt lat="45.55052" lon="6.79167">
        <ele>2210.3</ele>
        <time>2021-03-25T09:45:58Z</time>
      </trkpt>
      <trkpt lat="45.55052" lon="6.79168">
        <ele>2210.3</ele>
        <time>2021-03-25T09:45:59Z</time>
      </trkpt>
      <trkpt lat="45.55052" lon="6.79169">
        <ele>2210.3</ele>
        <time>2021-03-25T09:46:00Z</time>
      </trkpt>
      <trkpt lat="45.55052" lon="6.79169">
        <ele>2210.3</ele>
        <time>2021-03-25T09:46:01Z</time>
      </trkpt>
      <trkpt lat="45.55052" lon="6.7917">
        <ele>2210.9</ele>
        <time>2021-03-25T09:46:02Z</time>
      </trkpt>
      <trkpt lat="45.55052" lon="6.79171">
        <ele>2210.9</ele>
        <time>2021-03-25T09:46:03Z</time>
      </trkpt>
      <trkpt lat="45.55052" lon="6.79172">
        <ele>2210.9</ele>
        <time>2021-03-25T09:46:04Z</time>
      </trkpt>
      <trkpt lat="45.55053" lon="6.79173">
        <ele>2210.9</ele>
        <time>2021-03-25T09:46:05Z</time>
      </trkpt>
      <trkpt lat="45.55053" lon="6.79174">
        <ele>2210.9</ele>
        <time>2021-03-25T09:46:06Z</time>
      </trkpt>
      <trkpt lat="45.55053" lon="6.79175">
        <ele>2211.4</ele>
        <time>2021-03-25T09:46:07Z</time>
      </trkpt>
      <trkpt lat="45.55054" lon="6.79176">
        <ele>2211.4</ele>
        <time>2021-03-25T09:46:08Z</time>
      </trkpt>
      <trkpt lat="45.55054" lon="6.79178">
        <ele>2211.4</ele>
        <time>2021-03-25T09:46:09Z</time>
      </trkpt>
      <trkpt lat="45.55054" lon="6.79179">
        <ele>2211.3</ele>
        <time>2021-03-25T09:46:10Z</time>
      </trkpt>
      <trkpt lat="45.55055" lon="6.7918">
        <ele>2211.3</ele>
        <time>2021-03-25T09:46:11Z</time>
      </trkpt>
      <trkpt lat="45.55055" lon="6.79182">
        <ele>2211.3</ele>
        <time>2021-03-25T09:46:12Z</time>
      </trkpt>
      <trkpt lat="45.55055" lon="6.79183">
        <ele>2211.9</ele>
        <time>2021-03-25T09:46:13Z</time>
      </trkpt>
      <trkpt lat="45.55055" lon="6.79184">
        <ele>2211.9</ele>
        <time>2021-03-25T09:46:14Z</time>
      </trkpt>
      <trkpt lat="45.55056" lon="6.79185">
        <ele>2211.9</ele>
        <time>2021-03-25T09:46:15Z</time>
      </trkpt>
      <trkpt lat="45.55056" lon="6.79186">
        <ele>2211.9</ele>
        <time>2021-03-25T09:46:16Z</time>
      </trkpt>
      <trkpt lat="45.55056" lon="6.79186">
        <ele>2211.9</ele>
        <time>2021-03-25T09:46:17Z</time>
      </trkpt>
      <trkpt lat="45.55057" lon="6.79187">
        <ele>2212.4</ele>
        <time>2021-03-25T09:46:18Z</time>
      </trkpt>
      <trkpt lat="45.55057" lon="6.79188">
        <ele>2212.4</ele>
        <time>2021-03-25T09:46:19Z</time>
      </trkpt>
      <trkpt lat="45.55057" lon="6.79189">
        <ele>2211.9</ele>
        <time>2021-03-25T09:46:20Z</time>
      </trkpt>
      <trkpt lat="45.55058" lon="6.79189">
        <ele>2211.9</ele>
        <time>2021-03-25T09:46:21Z</time>
      </trkpt>
      <trkpt lat="45.55058" lon="6.7919">
        <ele>2211.9</ele>
        <time>2021-03-25T09:46:22Z</time>
      </trkpt>
      <trkpt lat="45.55059" lon="6.79191">
        <ele>2211.9</ele>
        <time>2021-03-25T09:46:23Z</time>
      </trkpt>
      <trkpt lat="45.55059" lon="6.79192">
        <ele>2212.5</ele>
        <time>2021-03-25T09:46:24Z</time>
      </trkpt>
      <trkpt lat="45.5506" lon="6.79192">
        <ele>2212.5</ele>
        <time>2021-03-25T09:46:25Z</time>
      </trkpt>
      <trkpt lat="45.5506" lon="6.79193">
        <ele>2212.5</ele>
        <time>2021-03-25T09:46:26Z</time>
      </trkpt>
      <trkpt lat="45.55061" lon="6.79194">
        <ele>2212</ele>
        <time>2021-03-25T09:46:27Z</time>
      </trkpt>
      <trkpt lat="45.55061" lon="6.79195">
        <ele>2212</ele>
        <time>2021-03-25T09:46:28Z</time>
      </trkpt>
      <trkpt lat="45.55062" lon="6.79196">
        <ele>2212.7</ele>
        <time>2021-03-25T09:46:29Z</time>
      </trkpt>
      <trkpt lat="45.55063" lon="6.79196">
        <ele>2212.7</ele>
        <time>2021-03-25T09:46:30Z</time>
      </trkpt>
      <trkpt lat="45.55063" lon="6.79196">
        <ele>2212.7</ele>
        <time>2021-03-25T09:46:31Z</time>
      </trkpt>
      <trkpt lat="45.55064" lon="6.79195">
        <ele>2211.5</ele>
        <time>2021-03-25T09:46:32Z</time>
      </trkpt>
      <trkpt lat="45.55064" lon="6.79195">
        <ele>2211.5</ele>
        <time>2021-03-25T09:46:33Z</time>
      </trkpt>
      <trkpt lat="45.55065" lon="6.79194">
        <ele>2211.5</ele>
        <time>2021-03-25T09:46:34Z</time>
      </trkpt>
      <trkpt lat="45.55066" lon="6.79193">
        <ele>2211.5</ele>
        <time>2021-03-25T09:46:35Z</time>
      </trkpt>
      <trkpt lat="45.55067" lon="6.79192">
        <ele>2211.1</ele>
        <time>2021-03-25T09:46:36Z</time>
      </trkpt>
      <trkpt lat="45.55067" lon="6.79191">
        <ele>2210.4</ele>
        <time>2021-03-25T09:46:37Z</time>
      </trkpt>
      <trkpt lat="45.55068" lon="6.7919">
        <ele>2210.4</ele>
        <time>2021-03-25T09:46:38Z</time>
      </trkpt>
      <trkpt lat="45.55068" lon="6.79189">
        <ele>2210.4</ele>
        <time>2021-03-25T09:46:39Z</time>
      </trkpt>
      <trkpt lat="45.55069" lon="6.79189">
        <ele>2210.4</ele>
        <time>2021-03-25T09:46:40Z</time>
      </trkpt>
      <trkpt lat="45.55069" lon="6.79188">
        <ele>2210</ele>
        <time>2021-03-25T09:46:41Z</time>
      </trkpt>
      <trkpt lat="45.5507" lon="6.79187">
        <ele>2209.3</ele>
        <time>2021-03-25T09:46:42Z</time>
      </trkpt>
      <trkpt lat="45.5507" lon="6.79186">
        <ele>2209.3</ele>
        <time>2021-03-25T09:46:43Z</time>
      </trkpt>
      <trkpt lat="45.55071" lon="6.79185">
        <ele>2209.3</ele>
        <time>2021-03-25T09:46:44Z</time>
      </trkpt>
      <trkpt lat="45.55071" lon="6.79184">
        <ele>2209.3</ele>
        <time>2021-03-25T09:46:45Z</time>
      </trkpt>
      <trkpt lat="45.55071" lon="6.79183">
        <ele>2209.3</ele>
        <time>2021-03-25T09:46:46Z</time>
      </trkpt>
      <trkpt lat="45.55072" lon="6.79182">
        <ele>2208.7</ele>
        <time>2021-03-25T09:46:47Z</time>
      </trkpt>
      <trkpt lat="45.55072" lon="6.79182">
        <ele>2208.7</ele>
        <time>2021-03-25T09:46:48Z</time>
      </trkpt>
      <trkpt lat="45.55073" lon="6.79181">
        <ele>2208.3</ele>
        <time>2021-03-25T09:46:49Z</time>
      </trkpt>
      <trkpt lat="45.55073" lon="6.7918">
        <ele>2208.3</ele>
        <time>2021-03-25T09:46:50Z</time>
      </trkpt>
      <trkpt lat="45.55074" lon="6.79179">
        <ele>2208.3</ele>
        <time>2021-03-25T09:46:51Z</time>
      </trkpt>
      <trkpt lat="45.55075" lon="6.79179">
        <ele>2208.3</ele>
        <time>2021-03-25T09:46:52Z</time>
      </trkpt>
      <trkpt lat="45.55075" lon="6.79178">
        <ele>2207.9</ele>
        <time>2021-03-25T09:46:53Z</time>
      </trkpt>
      <trkpt lat="45.55076" lon="6.79178">
        <ele>2207.3</ele>
        <time>2021-03-25T09:46:54Z</time>
      </trkpt>
      <trkpt lat="45.55077" lon="6.79178">
        <ele>2207.3</ele>
        <time>2021-03-25T09:46:55Z</time>
      </trkpt>
      <trkpt lat="45.55078" lon="6.79178">
        <ele>2207.3</ele>
        <time>2021-03-25T09:46:56Z</time>
      </trkpt>
      <trkpt lat="45.55079" lon="6.79178">
        <ele>2206.9</ele>
        <time>2021-03-25T09:46:57Z</time>
      </trkpt>
      <trkpt lat="45.55079" lon="6.79178">
        <ele>2206.9</ele>
        <time>2021-03-25T09:46:58Z</time>
      </trkpt>
      <trkpt lat="45.5508" lon="6.79178">
        <ele>2206.9</ele>
        <time>2021-03-25T09:46:59Z</time>
      </trkpt>
      <trkpt lat="45.5508" lon="6.79178">
        <ele>2206.9</ele>
        <time>2021-03-25T09:47:00Z</time>
      </trkpt>
      <trkpt lat="45.55081" lon="6.79178">
        <ele>2206.9</ele>
        <time>2021-03-25T09:47:01Z</time>
      </trkpt>
      <trkpt lat="45.55081" lon="6.79178">
        <ele>2206.4</ele>
        <time>2021-03-25T09:47:02Z</time>
      </trkpt>
      <trkpt lat="45.55082" lon="6.79178">
        <ele>2206.4</ele>
        <time>2021-03-25T09:47:03Z</time>
      </trkpt>
      <trkpt lat="45.55083" lon="6.79179">
        <ele>2207</ele>
        <time>2021-03-25T09:47:04Z</time>
      </trkpt>
      <trkpt lat="45.55083" lon="6.79179">
        <ele>2207</ele>
        <time>2021-03-25T09:47:05Z</time>
      </trkpt>
      <trkpt lat="45.55083" lon="6.79179">
        <ele>2207</ele>
        <time>2021-03-25T09:47:06Z</time>
      </trkpt>
      <trkpt lat="45.55084" lon="6.7918">
        <ele>2207</ele>
        <time>2021-03-25T09:47:07Z</time>
      </trkpt>
      <trkpt lat="45.55085" lon="6.79181">
        <ele>2206.5</ele>
        <time>2021-03-25T09:47:08Z</time>
      </trkpt>
      <trkpt lat="45.55085" lon="6.79183">
        <ele>2207.1</ele>
        <time>2021-03-25T09:47:09Z</time>
      </trkpt>
      <trkpt lat="45.55085" lon="6.79184">
        <ele>2207.1</ele>
        <time>2021-03-25T09:47:10Z</time>
      </trkpt>
      <trkpt lat="45.55086" lon="6.79185">
        <ele>2207.1</ele>
        <time>2021-03-25T09:47:11Z</time>
      </trkpt>
      <trkpt lat="45.55086" lon="6.79186">
        <ele>2207.1</ele>
        <time>2021-03-25T09:47:12Z</time>
      </trkpt>
      <trkpt lat="45.55086" lon="6.79187">
        <ele>2207.8</ele>
        <time>2021-03-25T09:47:13Z</time>
      </trkpt>
      <trkpt lat="45.55086" lon="6.79188">
        <ele>2207.8</ele>
        <time>2021-03-25T09:47:14Z</time>
      </trkpt>
      <trkpt lat="45.55086" lon="6.79189">
        <ele>2207.8</ele>
        <time>2021-03-25T09:47:15Z</time>
      </trkpt>
      <trkpt lat="45.55087" lon="6.7919">
        <ele>2207.8</ele>
        <time>2021-03-25T09:47:16Z</time>
      </trkpt>
      <trkpt lat="45.55087" lon="6.79191">
        <ele>2207.8</ele>
        <time>2021-03-25T09:47:17Z</time>
      </trkpt>
      <trkpt lat="45.55087" lon="6.79192">
        <ele>2208.5</ele>
        <time>2021-03-25T09:47:18Z</time>
      </trkpt>
      <trkpt lat="45.55087" lon="6.79193">
        <ele>2208.5</ele>
        <time>2021-03-25T09:47:19Z</time>
      </trkpt>
      <trkpt lat="45.55087" lon="6.79194">
        <ele>2208.1</ele>
        <time>2021-03-25T09:59:01Z</time>
      </trkpt>
      <trkpt lat="45.55088" lon="6.79194">
        <ele>2208.1</ele>
        <time>2021-03-25T09:59:02Z</time>
      </trkpt>
      <trkpt lat="45.55088" lon="6.79195">
        <ele>2208.1</ele>
        <time>2021-03-25T09:59:03Z</time>
      </trkpt>
      <trkpt lat="45.55088" lon="6.79196">
        <ele>2208.8</ele>
        <time>2021-03-25T09:59:04Z</time>
      </trkpt>
      <trkpt lat="45.55088" lon="6.79198">
        <ele>2208.8</ele>
        <time>2021-03-25T09:59:05Z</time>
      </trkpt>
      <trkpt lat="45.55088" lon="6.79199">
        <ele>2208.8</ele>
        <time>2021-03-25T09:59:06Z</time>
      </trkpt>
      <trkpt lat="45.55088" lon="6.79201">
        <ele>2209.5</ele>
        <time>2021-03-25T09:59:07Z</time>
      </trkpt>
      <trkpt lat="45.55088" lon="6.79202">
        <ele>2209.5</ele>
        <time>2021-03-25T09:59:08Z</time>
      </trkpt>
      <trkpt lat="45.55088" lon="6.79203">
        <ele>2209.5</ele>
        <time>2021-03-25T09:59:09Z</time>
      </trkpt>
      <trkpt lat="45.55088" lon="6.79204">
        <ele>2210.2</ele>
        <time>2021-03-25T09:59:10Z</time>
      </trkpt>
      <trkpt lat="45.55088" lon="6.79205">
        <ele>2210.2</ele>
        <time>2021-03-25T09:59:11Z</time>
      </trkpt>
      <trkpt lat="45.55088" lon="6.79207">
        <ele>2210.2</ele>
        <time>2021-03-25T09:59:12Z</time>
      </trkpt>
      <trkpt lat="45.55088" lon="6.79208">
        <ele>2210.2</ele>
        <time>2021-03-25T09:59:13Z</time>
      </trkpt>
      <trkpt lat="45.55089" lon="6.7921">
        <ele>2210.9</ele>
        <time>2021-03-25T09:59:14Z</time>
      </trkpt>
      <trkpt lat="45.55089" lon="6.79211">
        <ele>2210.9</ele>
        <time>2021-03-25T09:59:15Z</time>
      </trkpt>
      <trkpt lat="45.55089" lon="6.79213">
        <ele>2211.5</ele>
        <time>2021-03-25T09:59:16Z</time>
      </trkpt>
      <trkpt lat="45.55089" lon="6.79214">
        <ele>2211.5</ele>
        <time>2021-03-25T09:59:17Z</time>
      </trkpt>
      <trkpt lat="45.55089" lon="6.79216">
        <ele>2211.5</ele>
        <time>2021-03-25T09:59:18Z</time>
      </trkpt>
      <trkpt lat="45.55089" lon="6.79216">
        <ele>2211.5</ele>
        <time>2021-03-25T09:59:19Z</time>
      </trkpt>
      <trkpt lat="45.55089" lon="6.79217">
        <ele>2211.5</ele>
        <time>2021-03-25T09:59:20Z</time>
      </trkpt>
      <trkpt lat="45.55089" lon="6.79217">
        <ele>2212</ele>
        <time>2021-03-25T09:59:21Z</time>
      </trkpt>
      <trkpt lat="45.55089" lon="6.79218">
        <ele>2212</ele>
        <time>2021-03-25T09:59:22Z</time>
      </trkpt>
      <trkpt lat="45.55088" lon="6.79219">
        <ele>2212</ele>
        <time>2021-03-25T09:59:23Z</time>
      </trkpt>
      <trkpt lat="45.55088" lon="6.79219">
        <ele>2212</ele>
        <time>2021-03-25T09:59:24Z</time>
      </trkpt>
      <trkpt lat="45.55087" lon="6.7922">
        <ele>2212</ele>
        <time>2021-03-25T09:59:25Z</time>
      </trkpt>
      <trkpt lat="45.55087" lon="6.7922">
        <ele>2212</ele>
        <time>2021-03-25T09:59:26Z</time>
      </trkpt>
      <trkpt lat="45.55087" lon="6.79221">
        <ele>2212.5</ele>
        <time>2021-03-25T09:59:27Z</time>
      </trkpt>
      <trkpt lat="45.55087" lon="6.79222">
        <ele>2213.1</ele>
        <time>2021-03-25T09:59:28Z</time>
      </trkpt>
      <trkpt lat="45.55086" lon="6.79222">
        <ele>2213.1</ele>
        <time>2021-03-25T09:59:29Z</time>
      </trkpt>
      <trkpt lat="45.55086" lon="6.79222">
        <ele>2213.1</ele>
        <time>2021-03-25T09:59:30Z</time>
      </trkpt>
      <trkpt lat="45.55086" lon="6.79222">
        <ele>2213.1</ele>
        <time>2021-03-25T09:59:31Z</time>
      </trkpt>
      <trkpt lat="45.55086" lon="6.79223">
        <ele>2213.1</ele>
        <time>2021-03-25T09:59:32Z</time>
      </trkpt>
      <trkpt lat="45.55086" lon="6.79223">
        <ele>2213.1</ele>
        <time>2021-03-25T09:59:33Z</time>
      </trkpt>
      <trkpt lat="45.55086" lon="6.79224">
        <ele>2213.1</ele>
        <time>2021-03-25T09:59:34Z</time>
      </trkpt>
      <trkpt lat="45.55086" lon="6.79225">
        <ele>2213.1</ele>
        <time>2021-03-25T09:59:35Z</time>
      </trkpt>
      <trkpt lat="45.55086" lon="6.79226">
        <ele>2213.7</ele>
        <time>2021-03-25T09:59:36Z</time>
      </trkpt>
      <trkpt lat="45.55086" lon="6.79226">
        <ele>2213.7</ele>
        <time>2021-03-25T09:59:37Z</time>
      </trkpt>
      <trkpt lat="45.55086" lon="6.79227">
        <ele>2213.7</ele>
        <time>2021-03-25T09:59:38Z</time>
      </trkpt>
      <trkpt lat="45.55086" lon="6.79228">
        <ele>2213.7</ele>
        <time>2021-03-25T09:59:39Z</time>
      </trkpt>
      <trkpt lat="45.55087" lon="6.7923">
        <ele>2213.7</ele>
        <time>2021-03-25T09:59:40Z</time>
      </trkpt>
      <trkpt lat="45.55087" lon="6.79231">
        <ele>2213.8</ele>
        <time>2021-03-25T09:59:41Z</time>
      </trkpt>
      <trkpt lat="45.55088" lon="6.79231">
        <ele>2213.8</ele>
        <time>2021-03-25T09:59:42Z</time>
      </trkpt>
      <trkpt lat="45.55089" lon="6.79232">
        <ele>2213.8</ele>
        <time>2021-03-25T09:59:43Z</time>
      </trkpt>
      <trkpt lat="45.55089" lon="6.79233">
        <ele>2213.8</ele>
        <time>2021-03-25T09:59:44Z</time>
      </trkpt>
      <trkpt lat="45.5509" lon="6.79234">
        <ele>2214.4</ele>
        <time>2021-03-25T09:59:45Z</time>
      </trkpt>
      <trkpt lat="45.5509" lon="6.79235">
        <ele>2214.4</ele>
        <time>2021-03-25T09:59:46Z</time>
      </trkpt>
      <trkpt lat="45.5509" lon="6.79236">
        <ele>2214.4</ele>
        <time>2021-03-25T09:59:47Z</time>
      </trkpt>
      <trkpt lat="45.5509" lon="6.79237">
        <ele>2213.9</ele>
        <time>2021-03-25T09:59:48Z</time>
      </trkpt>
      <trkpt lat="45.5509" lon="6.79238">
        <ele>2213.9</ele>
        <time>2021-03-25T09:59:49Z</time>
      </trkpt>
      <trkpt lat="45.55091" lon="6.79239">
        <ele>2214.5</ele>
        <time>2021-03-25T09:59:50Z</time>
      </trkpt>
      <trkpt lat="45.55091" lon="6.79239">
        <ele>2214.5</ele>
        <time>2021-03-25T09:59:51Z</time>
      </trkpt>
      <trkpt lat="45.55091" lon="6.79239">
        <ele>2214.5</ele>
        <time>2021-03-25T09:59:52Z</time>
      </trkpt>
      <trkpt lat="45.55091" lon="6.79239">
        <ele>2214.5</ele>
        <time>2021-03-25T09:59:53Z</time>
      </trkpt>
      <trkpt lat="45.55091" lon="6.7924">
        <ele>2214.5</ele>
        <time>2021-03-25T09:59:54Z</time>
      </trkpt>
      <trkpt lat="45.55091" lon="6.7924">
        <ele>2214.5</ele>
        <time>2021-03-25T09:59:55Z</time>
      </trkpt>
      <trkpt lat="45.55091" lon="6.7924">
        <ele>2214.5</ele>
        <time>2021-03-25T09:59:56Z</time>
      </trkpt>
      <trkpt lat="45.55091" lon="6.79241">
        <ele>2214.5</ele>
        <time>2021-03-25T09:59:57Z</time>
      </trkpt>
      <trkpt lat="45.5509" lon="6.79241">
        <ele>2214.5</ele>
        <time>2021-03-25T09:59:58Z</time>
      </trkpt>
      <trkpt lat="45.5509" lon="6.79242">
        <ele>2214.5</ele>
        <time>2021-03-25T09:59:59Z</time>
      </trkpt>
      <trkpt lat="45.5509" lon="6.79243">
        <ele>2215.2</ele>
        <time>2021-03-25T10:00:00Z</time>
      </trkpt>
      <trkpt lat="45.5509" lon="6.79244">
        <ele>2215.2</ele>
        <time>2021-03-25T10:00:01Z</time>
      </trkpt>
      <trkpt lat="45.5509" lon="6.79245">
        <ele>2215.7</ele>
        <time>2021-03-25T10:00:02Z</time>
      </trkpt>
      <trkpt lat="45.5509" lon="6.79246">
        <ele>2215.7</ele>
        <time>2021-03-25T10:00:03Z</time>
      </trkpt>
      <trkpt lat="45.5509" lon="6.79247">
        <ele>2215.7</ele>
        <time>2021-03-25T10:00:04Z</time>
      </trkpt>
      <trkpt lat="45.5509" lon="6.79247">
        <ele>2215.7</ele>
        <time>2021-03-25T10:00:05Z</time>
      </trkpt>
      <trkpt lat="45.5509" lon="6.79247">
        <ele>2215.7</ele>
        <time>2021-03-25T10:00:06Z</time>
      </trkpt>
      <trkpt lat="45.55089" lon="6.79246">
        <ele>2215.7</ele>
        <time>2021-03-25T10:00:07Z</time>
      </trkpt>
      <trkpt lat="45.55088" lon="6.79246">
        <ele>2215.7</ele>
        <time>2021-03-25T10:00:08Z</time>
      </trkpt>
      <trkpt lat="45.55088" lon="6.79246">
        <ele>2215.7</ele>
        <time>2021-03-25T10:00:09Z</time>
      </trkpt>
      <trkpt lat="45.55087" lon="6.79246">
        <ele>2216.2</ele>
        <time>2021-03-25T10:00:10Z</time>
      </trkpt>
      <trkpt lat="45.55087" lon="6.79245">
        <ele>2216.2</ele>
        <time>2021-03-25T10:00:11Z</time>
      </trkpt>
      <trkpt lat="45.55086" lon="6.79245">
        <ele>2216.2</ele>
        <time>2021-03-25T10:00:12Z</time>
      </trkpt>
      <trkpt lat="45.55086" lon="6.79245">
        <ele>2216.2</ele>
        <time>2021-03-25T10:00:13Z</time>
      </trkpt>
      <trkpt lat="45.55086" lon="6.79245">
        <ele>2216.2</ele>
        <time>2021-03-25T10:00:14Z</time>
      </trkpt>
      <trkpt lat="45.55085" lon="6.79245">
        <ele>2216.2</ele>
        <time>2021-03-25T10:00:15Z</time>
      </trkpt>
      <trkpt lat="45.55084" lon="6.79244">
        <ele>2216.8</ele>
        <time>2021-03-25T10:00:16Z</time>
      </trkpt>
      <trkpt lat="45.55083" lon="6.79244">
        <ele>2216.8</ele>
        <time>2021-03-25T10:00:17Z</time>
      </trkpt>
      <trkpt lat="45.55082" lon="6.79245">
        <ele>2216.8</ele>
        <time>2021-03-25T10:00:18Z</time>
      </trkpt>
      <trkpt lat="45.55082" lon="6.79245">
        <ele>2216.8</ele>
        <time>2021-03-25T10:00:19Z</time>
      </trkpt>
      <trkpt lat="45.55081" lon="6.79245">
        <ele>2217.4</ele>
        <time>2021-03-25T10:00:20Z</time>
      </trkpt>
      <trkpt lat="45.55081" lon="6.79245">
        <ele>2217.4</ele>
        <time>2021-03-25T10:00:21Z</time>
      </trkpt>
      <trkpt lat="45.5508" lon="6.79245">
        <ele>2217.4</ele>
        <time>2021-03-25T10:00:22Z</time>
      </trkpt>
      <trkpt lat="45.55079" lon="6.79245">
        <ele>2217.4</ele>
        <time>2021-03-25T10:00:23Z</time>
      </trkpt>
      <trkpt lat="45.55079" lon="6.79246">
        <ele>2217.4</ele>
        <time>2021-03-25T10:00:24Z</time>
      </trkpt>
      <trkpt lat="45.55078" lon="6.79246">
        <ele>2217.4</ele>
        <time>2021-03-25T10:00:25Z</time>
      </trkpt>
      <trkpt lat="45.55078" lon="6.79246">
        <ele>2217.9</ele>
        <time>2021-03-25T10:00:26Z</time>
      </trkpt>
      <trkpt lat="45.55078" lon="6.79247">
        <ele>2217.9</ele>
        <time>2021-03-25T10:00:27Z</time>
      </trkpt>
      <trkpt lat="45.55077" lon="6.79247">
        <ele>2218.6</ele>
        <time>2021-03-25T10:00:28Z</time>
      </trkpt>
      <trkpt lat="45.55077" lon="6.79247">
        <ele>2218.6</ele>
        <time>2021-03-25T10:00:29Z</time>
      </trkpt>
      <trkpt lat="45.55076" lon="6.79248">
        <ele>2218.6</ele>
        <time>2021-03-25T10:00:30Z</time>
      </trkpt>
      <trkpt lat="45.55076" lon="6.79248">
        <ele>2218.6</ele>
        <time>2021-03-25T10:00:31Z</time>
      </trkpt>
      <trkpt lat="45.55076" lon="6.79248">
        <ele>2218.6</ele>
        <time>2021-03-25T10:00:32Z</time>
      </trkpt>
      <trkpt lat="45.55075" lon="6.79249">
        <ele>2219.1</ele>
        <time>2021-03-25T10:00:33Z</time>
      </trkpt>
      <trkpt lat="45.55075" lon="6.79249">
        <ele>2219.1</ele>
        <time>2021-03-25T10:00:34Z</time>
      </trkpt>
      <trkpt lat="45.55075" lon="6.7925">
        <ele>2219.1</ele>
        <time>2021-03-25T10:00:35Z</time>
      </trkpt>
      <trkpt lat="45.55075" lon="6.7925">
        <ele>2219.1</ele>
        <time>2021-03-25T10:00:36Z</time>
      </trkpt>
      <trkpt lat="45.55075" lon="6.7925">
        <ele>2219.1</ele>
        <time>2021-03-25T10:00:37Z</time>
      </trkpt>
      <trkpt lat="45.55075" lon="6.79251">
        <ele>2219.1</ele>
        <time>2021-03-25T10:00:38Z</time>
      </trkpt>
      <trkpt lat="45.55075" lon="6.79251">
        <ele>2218.6</ele>
        <time>2021-03-25T10:00:39Z</time>
      </trkpt>
      <trkpt lat="45.55076" lon="6.79251">
        <ele>2219.3</ele>
        <time>2021-03-25T10:00:40Z</time>
      </trkpt>
      <trkpt lat="45.55076" lon="6.79252">
        <ele>2219.3</ele>
        <time>2021-03-25T10:00:41Z</time>
      </trkpt>
      <trkpt lat="45.55076" lon="6.79252">
        <ele>2219.3</ele>
        <time>2021-03-25T10:00:42Z</time>
      </trkpt>
      <trkpt lat="45.55076" lon="6.79253">
        <ele>2219.3</ele>
        <time>2021-03-25T10:00:43Z</time>
      </trkpt>
      <trkpt lat="45.55077" lon="6.79253">
        <ele>2219.3</ele>
        <time>2021-03-25T10:00:44Z</time>
      </trkpt>
      <trkpt lat="45.55077" lon="6.79254">
        <ele>2219.3</ele>
        <time>2021-03-25T10:00:45Z</time>
      </trkpt>
      <trkpt lat="45.55077" lon="6.79254">
        <ele>2219.3</ele>
        <time>2021-03-25T10:00:46Z</time>
      </trkpt>
      <trkpt lat="45.55077" lon="6.79255">
        <ele>2219.3</ele>
        <time>2021-03-25T10:00:50Z</time>
      </trkpt>
      <trkpt lat="45.55077" lon="6.79256">
        <ele>2219.9</ele>
        <time>2021-03-25T10:00:51Z</time>
      </trkpt>
      <trkpt lat="45.55077" lon="6.79256">
        <ele>2219.9</ele>
        <time>2021-03-25T10:00:52Z</time>
      </trkpt>
      <trkpt lat="45.55077" lon="6.79257">
        <ele>2219.9</ele>
        <time>2021-03-25T10:00:53Z</time>
      </trkpt>
      <trkpt lat="45.55077" lon="6.79257">
        <ele>2219.9</ele>
        <time>2021-03-25T10:00:54Z</time>
      </trkpt>
      <trkpt lat="45.55077" lon="6.79258">
        <ele>2219.9</ele>
        <time>2021-03-25T10:00:55Z</time>
      </trkpt>
      <trkpt lat="45.55077" lon="6.79259">
        <ele>2219.9</ele>
        <time>2021-03-25T10:00:56Z</time>
      </trkpt>
      <trkpt lat="45.55077" lon="6.79259">
        <ele>2219.9</ele>
        <time>2021-03-25T10:00:57Z</time>
      </trkpt>
      <trkpt lat="45.55077" lon="6.7926">
        <ele>2220.5</ele>
        <time>2021-03-25T10:00:58Z</time>
      </trkpt>
      <trkpt lat="45.55076" lon="6.79261">
        <ele>2220.5</ele>
        <time>2021-03-25T10:00:59Z</time>
      </trkpt>
      <trkpt lat="45.55076" lon="6.79262">
        <ele>2220.5</ele>
        <time>2021-03-25T10:01:00Z</time>
      </trkpt>
      <trkpt lat="45.55076" lon="6.79263">
        <ele>2220.5</ele>
        <time>2021-03-25T10:01:01Z</time>
      </trkpt>
      <trkpt lat="45.55076" lon="6.79264">
        <ele>2220.5</ele>
        <time>2021-03-25T10:01:02Z</time>
      </trkpt>
      <trkpt lat="45.55076" lon="6.79265">
        <ele>2221.1</ele>
        <time>2021-03-25T10:01:03Z</time>
      </trkpt>
      <trkpt lat="45.55076" lon="6.79266">
        <ele>2221.1</ele>
        <time>2021-03-25T10:01:04Z</time>
      </trkpt>
      <trkpt lat="45.55076" lon="6.79267">
        <ele>2221.1</ele>
        <time>2021-03-25T10:01:05Z</time>
      </trkpt>
      <trkpt lat="45.55076" lon="6.79268">
        <ele>2221.8</ele>
        <time>2021-03-25T10:01:06Z</time>
      </trkpt>
      <trkpt lat="45.55076" lon="6.7927">
        <ele>2221.8</ele>
        <time>2021-03-25T10:01:07Z</time>
      </trkpt>
      <trkpt lat="45.55075" lon="6.79271">
        <ele>2221.8</ele>
        <time>2021-03-25T10:01:08Z</time>
      </trkpt>
      <trkpt lat="45.55075" lon="6.79272">
        <ele>2222.3</ele>
        <time>2021-03-25T10:01:09Z</time>
      </trkpt>
      <trkpt lat="45.55075" lon="6.79273">
        <ele>2222.3</ele>
        <time>2021-03-25T10:01:10Z</time>
      </trkpt>
      <trkpt lat="45.55074" lon="6.79274">
        <ele>2223</ele>
        <time>2021-03-25T10:01:11Z</time>
      </trkpt>
      <trkpt lat="45.55074" lon="6.79274">
        <ele>2223</ele>
        <time>2021-03-25T10:01:12Z</time>
      </trkpt>
      <trkpt lat="45.55074" lon="6.79275">
        <ele>2223</ele>
        <time>2021-03-25T10:01:13Z</time>
      </trkpt>
      <trkpt lat="45.55073" lon="6.79276">
        <ele>2223</ele>
        <time>2021-03-25T10:01:14Z</time>
      </trkpt>
      <trkpt lat="45.55073" lon="6.79277">
        <ele>2223</ele>
        <time>2021-03-25T10:01:15Z</time>
      </trkpt>
      <trkpt lat="45.55072" lon="6.79277">
        <ele>2224.2</ele>
        <time>2021-03-25T10:01:16Z</time>
      </trkpt>
      <trkpt lat="45.55071" lon="6.79278">
        <ele>2224.2</ele>
        <time>2021-03-25T10:01:17Z</time>
      </trkpt>
      <trkpt lat="45.5507" lon="6.79278">
        <ele>2224.2</ele>
        <time>2021-03-25T10:01:18Z</time>
      </trkpt>
      <trkpt lat="45.55069" lon="6.79278">
        <ele>2224.2</ele>
        <time>2021-03-25T10:01:19Z</time>
      </trkpt>
      <trkpt lat="45.55068" lon="6.79279">
        <ele>2224.7</ele>
        <time>2021-03-25T10:01:20Z</time>
      </trkpt>
      <trkpt lat="45.55068" lon="6.79279">
        <ele>2224.7</ele>
        <time>2021-03-25T10:01:21Z</time>
      </trkpt>
      <trkpt lat="45.55067" lon="6.79279">
        <ele>2224.7</ele>
        <time>2021-03-25T10:01:22Z</time>
      </trkpt>
      <trkpt lat="45.55066" lon="6.79279">
        <ele>2224.7</ele>
        <time>2021-03-25T10:01:23Z</time>
      </trkpt>
      <trkpt lat="45.55066" lon="6.79279">
        <ele>2225.3</ele>
        <time>2021-03-25T10:01:24Z</time>
      </trkpt>
      <trkpt lat="45.55065" lon="6.79279">
        <ele>2225.3</ele>
        <time>2021-03-25T10:01:25Z</time>
      </trkpt>
      <trkpt lat="45.55064" lon="6.79279">
        <ele>2225.3</ele>
        <time>2021-03-25T10:01:26Z</time>
      </trkpt>
      <trkpt lat="45.55064" lon="6.79279">
        <ele>2225.3</ele>
        <time>2021-03-25T10:01:27Z</time>
      </trkpt>
      <trkpt lat="45.55063" lon="6.79278">
        <ele>2225.9</ele>
        <time>2021-03-25T10:01:28Z</time>
      </trkpt>
      <trkpt lat="45.55062" lon="6.79278">
        <ele>2225.9</ele>
        <time>2021-03-25T10:01:29Z</time>
      </trkpt>
      <trkpt lat="45.55061" lon="6.79278">
        <ele>2225.9</ele>
        <time>2021-03-25T10:01:30Z</time>
      </trkpt>
      <trkpt lat="45.55061" lon="6.79277">
        <ele>2225.9</ele>
        <time>2021-03-25T10:01:31Z</time>
      </trkpt>
      <trkpt lat="45.5506" lon="6.79277">
        <ele>2226.6</ele>
        <time>2021-03-25T10:01:32Z</time>
      </trkpt>
      <trkpt lat="45.55059" lon="6.79277">
        <ele>2226.6</ele>
        <time>2021-03-25T10:01:33Z</time>
      </trkpt>
      <trkpt lat="45.55058" lon="6.79277">
        <ele>2226.6</ele>
        <time>2021-03-25T10:01:34Z</time>
      </trkpt>
      <trkpt lat="45.55057" lon="6.79277">
        <ele>2227.2</ele>
        <time>2021-03-25T10:01:35Z</time>
      </trkpt>
      <trkpt lat="45.55056" lon="6.79277">
        <ele>2227.2</ele>
        <time>2021-03-25T10:01:36Z</time>
      </trkpt>
      <trkpt lat="45.55056" lon="6.79278">
        <ele>2227.2</ele>
        <time>2021-03-25T10:01:37Z</time>
      </trkpt>
      <trkpt lat="45.55055" lon="6.79278">
        <ele>2227.2</ele>
        <time>2021-03-25T10:01:38Z</time>
      </trkpt>
      <trkpt lat="45.55054" lon="6.79278">
        <ele>2227.2</ele>
        <time>2021-03-25T10:01:39Z</time>
      </trkpt>
      <trkpt lat="45.55054" lon="6.79279">
        <ele>2227.9</ele>
        <time>2021-03-25T10:01:40Z</time>
      </trkpt>
      <trkpt lat="45.55053" lon="6.79279">
        <ele>2227.9</ele>
        <time>2021-03-25T10:01:41Z</time>
      </trkpt>
      <trkpt lat="45.55052" lon="6.7928">
        <ele>2227.9</ele>
        <time>2021-03-25T10:01:42Z</time>
      </trkpt>
      <trkpt lat="45.55052" lon="6.7928">
        <ele>2227.9</ele>
        <time>2021-03-25T10:01:43Z</time>
      </trkpt>
      <trkpt lat="45.55051" lon="6.7928">
        <ele>2228.5</ele>
        <time>2021-03-25T10:01:44Z</time>
      </trkpt>
      <trkpt lat="45.55051" lon="6.79281">
        <ele>2228.5</ele>
        <time>2021-03-25T10:01:45Z</time>
      </trkpt>
      <trkpt lat="45.5505" lon="6.79281">
        <ele>2228.5</ele>
        <time>2021-03-25T10:01:46Z</time>
      </trkpt>
      <trkpt lat="45.5505" lon="6.79281">
        <ele>2229.2</ele>
        <time>2021-03-25T10:01:47Z</time>
      </trkpt>
      <trkpt lat="45.55049" lon="6.79282">
        <ele>2229.2</ele>
        <time>2021-03-25T10:01:48Z</time>
      </trkpt>
      <trkpt lat="45.55049" lon="6.79282">
        <ele>2229.2</ele>
        <time>2021-03-25T10:01:49Z</time>
      </trkpt>
      <trkpt lat="45.55048" lon="6.79282">
        <ele>2229.8</ele>
        <time>2021-03-25T10:01:50Z</time>
      </trkpt>
      <trkpt lat="45.55047" lon="6.79283">
        <ele>2229.8</ele>
        <time>2021-03-25T10:01:51Z</time>
      </trkpt>
      <trkpt lat="45.55047" lon="6.79283">
        <ele>2229.8</ele>
        <time>2021-03-25T10:01:52Z</time>
      </trkpt>
      <trkpt lat="45.55046" lon="6.79283">
        <ele>2229.8</ele>
        <time>2021-03-25T10:01:53Z</time>
      </trkpt>
      <trkpt lat="45.55046" lon="6.79283">
        <ele>2229.8</ele>
        <time>2021-03-25T10:01:54Z</time>
      </trkpt>
      <trkpt lat="45.55045" lon="6.79283">
        <ele>2230.4</ele>
        <time>2021-03-25T10:01:55Z</time>
      </trkpt>
      <trkpt lat="45.55045" lon="6.79283">
        <ele>2230.4</ele>
        <time>2021-03-25T10:01:56Z</time>
      </trkpt>
      <trkpt lat="45.55044" lon="6.79284">
        <ele>2230.4</ele>
        <time>2021-03-25T10:01:57Z</time>
      </trkpt>
      <trkpt lat="45.55043" lon="6.79284">
        <ele>2230.4</ele>
        <time>2021-03-25T10:01:58Z</time>
      </trkpt>
      <trkpt lat="45.55043" lon="6.79284">
        <ele>2230.4</ele>
        <time>2021-03-25T10:01:59Z</time>
      </trkpt>
      <trkpt lat="45.55042" lon="6.79284">
        <ele>2230.4</ele>
        <time>2021-03-25T10:02:00Z</time>
      </trkpt>
      <trkpt lat="45.55042" lon="6.79284">
        <ele>2231</ele>
        <time>2021-03-25T10:02:01Z</time>
      </trkpt>
      <trkpt lat="45.55041" lon="6.79284">
        <ele>2231</ele>
        <time>2021-03-25T10:02:02Z</time>
      </trkpt>
      <trkpt lat="45.55041" lon="6.79284">
        <ele>2231</ele>
        <time>2021-03-25T10:02:03Z</time>
      </trkpt>
      <trkpt lat="45.5504" lon="6.79285">
        <ele>2231</ele>
        <time>2021-03-25T10:02:04Z</time>
      </trkpt>
      <trkpt lat="45.55039" lon="6.79285">
        <ele>2231</ele>
        <time>2021-03-25T10:02:05Z</time>
      </trkpt>
      <trkpt lat="45.55039" lon="6.79285">
        <ele>2231.5</ele>
        <time>2021-03-25T10:02:06Z</time>
      </trkpt>
      <trkpt lat="45.55038" lon="6.79285">
        <ele>2231.5</ele>
        <time>2021-03-25T10:02:07Z</time>
      </trkpt>
      <trkpt lat="45.55037" lon="6.79285">
        <ele>2231.5</ele>
        <time>2021-03-25T10:02:08Z</time>
      </trkpt>
      <trkpt lat="45.55037" lon="6.79285">
        <ele>2231.5</ele>
        <time>2021-03-25T10:02:09Z</time>
      </trkpt>
      <trkpt lat="45.55036" lon="6.79285">
        <ele>2232.1</ele>
        <time>2021-03-25T10:02:10Z</time>
      </trkpt>
      <trkpt lat="45.55036" lon="6.79285">
        <ele>2232.1</ele>
        <time>2021-03-25T10:02:11Z</time>
      </trkpt>
      <trkpt lat="45.55035" lon="6.79286">
        <ele>2232.1</ele>
        <time>2021-03-25T10:02:12Z</time>
      </trkpt>
      <trkpt lat="45.55035" lon="6.79286">
        <ele>2232.8</ele>
        <time>2021-03-25T10:02:13Z</time>
      </trkpt>
      <trkpt lat="45.55034" lon="6.79286">
        <ele>2232.8</ele>
        <time>2021-03-25T10:02:14Z</time>
      </trkpt>
      <trkpt lat="45.55034" lon="6.79286">
        <ele>2232.8</ele>
        <time>2021-03-25T10:02:15Z</time>
      </trkpt>
      <trkpt lat="45.55033" lon="6.79286">
        <ele>2233.4</ele>
        <time>2021-03-25T10:02:16Z</time>
      </trkpt>
      <trkpt lat="45.55033" lon="6.79286">
        <ele>2233.4</ele>
        <time>2021-03-25T10:02:17Z</time>
      </trkpt>
      <trkpt lat="45.55032" lon="6.79286">
        <ele>2233.4</ele>
        <time>2021-03-25T10:02:18Z</time>
      </trkpt>
      <trkpt lat="45.55031" lon="6.79287">
        <ele>2233.4</ele>
        <time>2021-03-25T10:02:19Z</time>
      </trkpt>
      <trkpt lat="45.55031" lon="6.79286">
        <ele>2233.4</ele>
        <time>2021-03-25T10:02:20Z</time>
      </trkpt>
      <trkpt lat="45.55031" lon="6.79286">
        <ele>2233.4</ele>
        <time>2021-03-25T10:02:21Z</time>
      </trkpt>
      <trkpt lat="45.55031" lon="6.79286">
        <ele>2233.4</ele>
        <time>2021-03-25T10:02:22Z</time>
      </trkpt>
      <trkpt lat="45.55031" lon="6.79286">
        <ele>2233.4</ele>
        <time>2021-03-25T10:02:23Z</time>
      </trkpt>
      <trkpt lat="45.55031" lon="6.79287">
        <ele>2233.4</ele>
        <time>2021-03-25T10:02:24Z</time>
      </trkpt>
      <trkpt lat="45.55031" lon="6.79287">
        <ele>2233.4</ele>
        <time>2021-03-25T10:02:25Z</time>
      </trkpt>
      <trkpt lat="45.55031" lon="6.79287">
        <ele>2233.4</ele>
        <time>2021-03-25T10:02:26Z</time>
      </trkpt>
      <trkpt lat="45.55031" lon="6.79288">
        <ele>2233.4</ele>
        <time>2021-03-25T10:02:27Z</time>
      </trkpt>
      <trkpt lat="45.55032" lon="6.79288">
        <ele>2233.4</ele>
        <time>2021-03-25T10:02:28Z</time>
      </trkpt>
      <trkpt lat="45.55032" lon="6.79288">
        <ele>2233.4</ele>
        <time>2021-03-25T10:02:29Z</time>
      </trkpt>
      <trkpt lat="45.55032" lon="6.79288">
        <ele>2233.4</ele>
        <time>2021-03-25T10:02:30Z</time>
      </trkpt>
      <trkpt lat="45.55033" lon="6.79289">
        <ele>2233.4</ele>
        <time>2021-03-25T10:02:31Z</time>
      </trkpt>
      <trkpt lat="45.55033" lon="6.79289">
        <ele>2232.8</ele>
        <time>2021-03-25T10:02:32Z</time>
      </trkpt>
      <trkpt lat="45.55034" lon="6.79289">
        <ele>2232.8</ele>
        <time>2021-03-25T10:02:33Z</time>
      </trkpt>
      <trkpt lat="45.55034" lon="6.7929">
        <ele>2232.8</ele>
        <time>2021-03-25T10:02:34Z</time>
      </trkpt>
      <trkpt lat="45.55034" lon="6.7929">
        <ele>2233.6</ele>
        <time>2021-03-25T10:02:35Z</time>
      </trkpt>
      <trkpt lat="45.55035" lon="6.79291">
        <ele>2233.6</ele>
        <time>2021-03-25T10:02:36Z</time>
      </trkpt>
      <trkpt lat="45.55035" lon="6.79291">
        <ele>2233.6</ele>
        <time>2021-03-25T10:02:37Z</time>
      </trkpt>
      <trkpt lat="45.55035" lon="6.79292">
        <ele>2233.6</ele>
        <time>2021-03-25T10:02:38Z</time>
      </trkpt>
      <trkpt lat="45.55036" lon="6.79292">
        <ele>2233.6</ele>
        <time>2021-03-25T10:02:39Z</time>
      </trkpt>
      <trkpt lat="45.55036" lon="6.79292">
        <ele>2233.6</ele>
        <time>2021-03-25T10:02:40Z</time>
      </trkpt>
      <trkpt lat="45.55036" lon="6.79293">
        <ele>2233</ele>
        <time>2021-03-25T10:02:41Z</time>
      </trkpt>
      <trkpt lat="45.55036" lon="6.79294">
        <ele>2233</ele>
        <time>2021-03-25T10:02:42Z</time>
      </trkpt>
      <trkpt lat="45.55036" lon="6.79295">
        <ele>2233.7</ele>
        <time>2021-03-25T10:02:43Z</time>
      </trkpt>
      <trkpt lat="45.55036" lon="6.79296">
        <ele>2234.3</ele>
        <time>2021-03-25T10:02:44Z</time>
      </trkpt>
      <trkpt lat="45.55036" lon="6.79297">
        <ele>2234.3</ele>
        <time>2021-03-25T10:02:45Z</time>
      </trkpt>
      <trkpt lat="45.55036" lon="6.79298">
        <ele>2234.3</ele>
        <time>2021-03-25T10:02:46Z</time>
      </trkpt>
      <trkpt lat="45.55035" lon="6.79299">
        <ele>2235</ele>
        <time>2021-03-25T10:02:47Z</time>
      </trkpt>
      <trkpt lat="45.55035" lon="6.793">
        <ele>2235</ele>
        <time>2021-03-25T10:02:48Z</time>
      </trkpt>
      <trkpt lat="45.55034" lon="6.79301">
        <ele>2235</ele>
        <time>2021-03-25T10:02:49Z</time>
      </trkpt>
      <trkpt lat="45.55034" lon="6.79301">
        <ele>2235</ele>
        <time>2021-03-25T10:02:50Z</time>
      </trkpt>
      <trkpt lat="45.55033" lon="6.79302">
        <ele>2235</ele>
        <time>2021-03-25T10:02:51Z</time>
      </trkpt>
      <trkpt lat="45.55033" lon="6.79302">
        <ele>2235.6</ele>
        <time>2021-03-25T10:02:52Z</time>
      </trkpt>
      <trkpt lat="45.55032" lon="6.79302">
        <ele>2235.6</ele>
        <time>2021-03-25T10:02:53Z</time>
      </trkpt>
      <trkpt lat="45.55031" lon="6.79302">
        <ele>2235.6</ele>
        <time>2021-03-25T10:02:54Z</time>
      </trkpt>
      <trkpt lat="45.55031" lon="6.79301">
        <ele>2235.6</ele>
        <time>2021-03-25T10:02:55Z</time>
      </trkpt>
      <trkpt lat="45.5503" lon="6.79301">
        <ele>2236.2</ele>
        <time>2021-03-25T10:02:56Z</time>
      </trkpt>
      <trkpt lat="45.55029" lon="6.79301">
        <ele>2236.2</ele>
        <time>2021-03-25T10:02:57Z</time>
      </trkpt>
      <trkpt lat="45.55029" lon="6.79301">
        <ele>2236.2</ele>
        <time>2021-03-25T10:02:58Z</time>
      </trkpt>
      <trkpt lat="45.55028" lon="6.79301">
        <ele>2236.2</ele>
        <time>2021-03-25T10:02:59Z</time>
      </trkpt>
      <trkpt lat="45.55028" lon="6.79301">
        <ele>2236.2</ele>
        <time>2021-03-25T10:03:00Z</time>
      </trkpt>
      <trkpt lat="45.55027" lon="6.79301">
        <ele>2236.8</ele>
        <time>2021-03-25T10:03:01Z</time>
      </trkpt>
      <trkpt lat="45.55027" lon="6.793">
        <ele>2236.8</ele>
        <time>2021-03-25T10:03:02Z</time>
      </trkpt>
      <trkpt lat="45.55026" lon="6.793">
        <ele>2236.8</ele>
        <time>2021-03-25T10:03:03Z</time>
      </trkpt>
      <trkpt lat="45.55025" lon="6.793">
        <ele>2236.8</ele>
        <time>2021-03-25T10:03:04Z</time>
      </trkpt>
      <trkpt lat="45.55025" lon="6.793">
        <ele>2236.8</ele>
        <time>2021-03-25T10:03:05Z</time>
      </trkpt>
      <trkpt lat="45.55024" lon="6.793">
        <ele>2236.8</ele>
        <time>2021-03-25T10:03:06Z</time>
      </trkpt>
      <trkpt lat="45.55024" lon="6.793">
        <ele>2237.4</ele>
        <time>2021-03-25T10:03:07Z</time>
      </trkpt>
      <trkpt lat="45.55023" lon="6.793">
        <ele>2237.4</ele>
        <time>2021-03-25T10:03:08Z</time>
      </trkpt>
      <trkpt lat="45.55023" lon="6.79299">
        <ele>2237.4</ele>
        <time>2021-03-25T10:03:09Z</time>
      </trkpt>
      <trkpt lat="45.55022" lon="6.79299">
        <ele>2237.4</ele>
        <time>2021-03-25T10:03:10Z</time>
      </trkpt>
      <trkpt lat="45.55022" lon="6.79299">
        <ele>2237.4</ele>
        <time>2021-03-25T10:03:11Z</time>
      </trkpt>
      <trkpt lat="45.55021" lon="6.79299">
        <ele>2237.4</ele>
        <time>2021-03-25T10:03:12Z</time>
      </trkpt>
      <trkpt lat="45.55021" lon="6.79299">
        <ele>2238</ele>
        <time>2021-03-25T10:03:13Z</time>
      </trkpt>
      <trkpt lat="45.5502" lon="6.79299">
        <ele>2238</ele>
        <time>2021-03-25T10:03:14Z</time>
      </trkpt>
      <trkpt lat="45.5502" lon="6.79299">
        <ele>2238</ele>
        <time>2021-03-25T10:03:15Z</time>
      </trkpt>
      <trkpt lat="45.55019" lon="6.79299">
        <ele>2238</ele>
        <time>2021-03-25T10:03:16Z</time>
      </trkpt>
      <trkpt lat="45.55018" lon="6.79299">
        <ele>2238.6</ele>
        <time>2021-03-25T10:03:17Z</time>
      </trkpt>
      <trkpt lat="45.55018" lon="6.79299">
        <ele>2238.6</ele>
        <time>2021-03-25T10:03:18Z</time>
      </trkpt>
      <trkpt lat="45.55017" lon="6.79299">
        <ele>2238.6</ele>
        <time>2021-03-25T10:03:19Z</time>
      </trkpt>
      <trkpt lat="45.55017" lon="6.793">
        <ele>2238.6</ele>
        <time>2021-03-25T10:03:20Z</time>
      </trkpt>
      <trkpt lat="45.55016" lon="6.79301">
        <ele>2238.6</ele>
        <time>2021-03-25T10:03:21Z</time>
      </trkpt>
      <trkpt lat="45.55016" lon="6.79302">
        <ele>2238.6</ele>
        <time>2021-03-25T10:03:22Z</time>
      </trkpt>
      <trkpt lat="45.55015" lon="6.79303">
        <ele>2238.6</ele>
        <time>2021-03-25T10:03:23Z</time>
      </trkpt>
      <trkpt lat="45.55015" lon="6.79304">
        <ele>2239.8</ele>
        <time>2021-03-25T10:03:24Z</time>
      </trkpt>
      <trkpt lat="45.55015" lon="6.79305">
        <ele>2239.8</ele>
        <time>2021-03-25T10:03:25Z</time>
      </trkpt>
      <trkpt lat="45.55014" lon="6.79306">
        <ele>2239.8</ele>
        <time>2021-03-25T10:03:26Z</time>
      </trkpt>
      <trkpt lat="45.55014" lon="6.79307">
        <ele>2239.8</ele>
        <time>2021-03-25T10:03:27Z</time>
      </trkpt>
      <trkpt lat="45.55013" lon="6.79308">
        <ele>2240.4</ele>
        <time>2021-03-25T10:03:28Z</time>
      </trkpt>
      <trkpt lat="45.55012" lon="6.79308">
        <ele>2240.4</ele>
        <time>2021-03-25T10:03:29Z</time>
      </trkpt>
      <trkpt lat="45.55012" lon="6.79309">
        <ele>2240.9</ele>
        <time>2021-03-25T10:03:30Z</time>
      </trkpt>
      <trkpt lat="45.55011" lon="6.7931">
        <ele>2240.9</ele>
        <time>2021-03-25T10:03:31Z</time>
      </trkpt>
      <trkpt lat="45.55011" lon="6.79311">
        <ele>2241.6</ele>
        <time>2021-03-25T10:03:32Z</time>
      </trkpt>
      <trkpt lat="45.5501" lon="6.79313">
        <ele>2241.6</ele>
        <time>2021-03-25T10:03:33Z</time>
      </trkpt>
      <trkpt lat="45.5501" lon="6.79314">
        <ele>2241.6</ele>
        <time>2021-03-25T10:03:34Z</time>
      </trkpt>
      <trkpt lat="45.55009" lon="6.79315">
        <ele>2242.1</ele>
        <time>2021-03-25T10:03:35Z</time>
      </trkpt>
      <trkpt lat="45.55008" lon="6.79316">
        <ele>2242.8</ele>
        <time>2021-03-25T10:03:36Z</time>
      </trkpt>
      <trkpt lat="45.55008" lon="6.79317">
        <ele>2242.8</ele>
        <time>2021-03-25T10:03:37Z</time>
      </trkpt>
      <trkpt lat="45.55007" lon="6.79318">
        <ele>2242.8</ele>
        <time>2021-03-25T10:03:38Z</time>
      </trkpt>
      <trkpt lat="45.55007" lon="6.79319">
        <ele>2242.8</ele>
        <time>2021-03-25T10:03:39Z</time>
      </trkpt>
      <trkpt lat="45.55006" lon="6.79321">
        <ele>2244</ele>
        <time>2021-03-25T10:03:40Z</time>
      </trkpt>
      <trkpt lat="45.55005" lon="6.79322">
        <ele>2244</ele>
        <time>2021-03-25T10:03:41Z</time>
      </trkpt>
      <trkpt lat="45.55005" lon="6.79323">
        <ele>2244</ele>
        <time>2021-03-25T10:03:42Z</time>
      </trkpt>
      <trkpt lat="45.55004" lon="6.79325">
        <ele>2244.7</ele>
        <time>2021-03-25T10:03:43Z</time>
      </trkpt>
      <trkpt lat="45.55003" lon="6.79326">
        <ele>2244.7</ele>
        <time>2021-03-25T10:03:44Z</time>
      </trkpt>
      <trkpt lat="45.55003" lon="6.79328">
        <ele>2245.4</ele>
        <time>2021-03-25T10:03:45Z</time>
      </trkpt>
      <trkpt lat="45.55002" lon="6.79329">
        <ele>2246.1</ele>
        <time>2021-03-25T10:03:46Z</time>
      </trkpt>
      <trkpt lat="45.55002" lon="6.7933">
        <ele>2246.1</ele>
        <time>2021-03-25T10:03:47Z</time>
      </trkpt>
      <trkpt lat="45.55001" lon="6.79332">
        <ele>2246.1</ele>
        <time>2021-03-25T10:03:48Z</time>
      </trkpt>
      <trkpt lat="45.55001" lon="6.79333">
        <ele>2246.9</ele>
        <time>2021-03-25T10:03:49Z</time>
      </trkpt>
      <trkpt lat="45.55001" lon="6.79335">
        <ele>2246.9</ele>
        <time>2021-03-25T10:03:50Z</time>
      </trkpt>
      <trkpt lat="45.55" lon="6.79336">
        <ele>2246.9</ele>
        <time>2021-03-25T10:03:51Z</time>
      </trkpt>
      <trkpt lat="45.55" lon="6.79338">
        <ele>2248.4</ele>
        <time>2021-03-25T10:03:52Z</time>
      </trkpt>
      <trkpt lat="45.55" lon="6.79339">
        <ele>2248.4</ele>
        <time>2021-03-25T10:03:53Z</time>
      </trkpt>
      <trkpt lat="45.54999" lon="6.7934">
        <ele>2248.4</ele>
        <time>2021-03-25T10:03:54Z</time>
      </trkpt>
      <trkpt lat="45.54999" lon="6.79341">
        <ele>2248.4</ele>
        <time>2021-03-25T10:03:55Z</time>
      </trkpt>
      <trkpt lat="45.54999" lon="6.79342">
        <ele>2249.2</ele>
        <time>2021-03-25T10:03:56Z</time>
      </trkpt>
      <trkpt lat="45.54999" lon="6.79343">
        <ele>2249.2</ele>
        <time>2021-03-25T10:03:57Z</time>
      </trkpt>
      <trkpt lat="45.54998" lon="6.79344">
        <ele>2249.2</ele>
        <time>2021-03-25T10:03:58Z</time>
      </trkpt>
      <trkpt lat="45.54998" lon="6.79345">
        <ele>2249.2</ele>
        <time>2021-03-25T10:03:59Z</time>
      </trkpt>
      <trkpt lat="45.54998" lon="6.79346">
        <ele>2249.2</ele>
        <time>2021-03-25T10:04:00Z</time>
      </trkpt>
      <trkpt lat="45.54998" lon="6.79347">
        <ele>2249.9</ele>
        <time>2021-03-25T10:04:01Z</time>
      </trkpt>
      <trkpt lat="45.54997" lon="6.79348">
        <ele>2249.9</ele>
        <time>2021-03-25T10:04:02Z</time>
      </trkpt>
      <trkpt lat="45.54997" lon="6.79349">
        <ele>2249.9</ele>
        <time>2021-03-25T10:04:03Z</time>
      </trkpt>
      <trkpt lat="45.54997" lon="6.7935">
        <ele>2251.4</ele>
        <time>2021-03-25T10:04:04Z</time>
      </trkpt>
      <trkpt lat="45.54997" lon="6.79352">
        <ele>2251.4</ele>
        <time>2021-03-25T10:04:05Z</time>
      </trkpt>
      <trkpt lat="45.54996" lon="6.79353">
        <ele>2251.4</ele>
        <time>2021-03-25T10:04:06Z</time>
      </trkpt>
      <trkpt lat="45.54996" lon="6.79354">
        <ele>2251.4</ele>
        <time>2021-03-25T10:04:07Z</time>
      </trkpt>
      <trkpt lat="45.54995" lon="6.79355">
        <ele>2252.1</ele>
        <time>2021-03-25T10:04:08Z</time>
      </trkpt>
      <trkpt lat="45.54995" lon="6.79355">
        <ele>2252.1</ele>
        <time>2021-03-25T10:04:09Z</time>
      </trkpt>
      <trkpt lat="45.54994" lon="6.79356">
        <ele>2252.1</ele>
        <time>2021-03-25T10:04:10Z</time>
      </trkpt>
      <trkpt lat="45.54994" lon="6.79357">
        <ele>2252.8</ele>
        <time>2021-03-25T10:04:11Z</time>
      </trkpt>
      <trkpt lat="45.54993" lon="6.79357">
        <ele>2252.8</ele>
        <time>2021-03-25T10:04:12Z</time>
      </trkpt>
      <trkpt lat="45.54993" lon="6.79358">
        <ele>2252.8</ele>
        <time>2021-03-25T10:04:13Z</time>
      </trkpt>
      <trkpt lat="45.54992" lon="6.79358">
        <ele>2252.8</ele>
        <time>2021-03-25T10:04:14Z</time>
      </trkpt>
      <trkpt lat="45.54992" lon="6.79359">
        <ele>2253.6</ele>
        <time>2021-03-25T10:04:15Z</time>
      </trkpt>
      <trkpt lat="45.54991" lon="6.79359">
        <ele>2253.6</ele>
        <time>2021-03-25T10:04:16Z</time>
      </trkpt>
      <trkpt lat="45.54991" lon="6.7936">
        <ele>2254.3</ele>
        <time>2021-03-25T10:04:17Z</time>
      </trkpt>
      <trkpt lat="45.5499" lon="6.79361">
        <ele>2254.3</ele>
        <time>2021-03-25T10:04:18Z</time>
      </trkpt>
      <trkpt lat="45.5499" lon="6.79361">
        <ele>2254.3</ele>
        <time>2021-03-25T10:04:19Z</time>
      </trkpt>
      <trkpt lat="45.54989" lon="6.79362">
        <ele>2254.3</ele>
        <time>2021-03-25T10:04:20Z</time>
      </trkpt>
      <trkpt lat="45.54989" lon="6.79363">
        <ele>2254.3</ele>
        <time>2021-03-25T10:04:21Z</time>
      </trkpt>
      <trkpt lat="45.54988" lon="6.79363">
        <ele>2255.2</ele>
        <time>2021-03-25T10:04:22Z</time>
      </trkpt>
      <trkpt lat="45.54988" lon="6.79364">
        <ele>2255.8</ele>
        <time>2021-03-25T10:04:23Z</time>
      </trkpt>
      <trkpt lat="45.54987" lon="6.79365">
        <ele>2255.8</ele>
        <time>2021-03-25T10:04:24Z</time>
      </trkpt>
      <trkpt lat="45.54987" lon="6.79365">
        <ele>2255.8</ele>
        <time>2021-03-25T10:04:25Z</time>
      </trkpt>
      <trkpt lat="45.54987" lon="6.79366">
        <ele>2255.8</ele>
        <time>2021-03-25T10:04:26Z</time>
      </trkpt>
      <trkpt lat="45.54986" lon="6.79366">
        <ele>2255.8</ele>
        <time>2021-03-25T10:04:27Z</time>
      </trkpt>
      <trkpt lat="45.54986" lon="6.79367">
        <ele>2255.8</ele>
        <time>2021-03-25T10:04:28Z</time>
      </trkpt>
      <trkpt lat="45.54985" lon="6.79368">
        <ele>2257.3</ele>
        <time>2021-03-25T10:04:29Z</time>
      </trkpt>
      <trkpt lat="45.54984" lon="6.79368">
        <ele>2257.3</ele>
        <time>2021-03-25T10:04:30Z</time>
      </trkpt>
      <trkpt lat="45.54984" lon="6.79368">
        <ele>2257.3</ele>
        <time>2021-03-25T10:04:31Z</time>
      </trkpt>
      <trkpt lat="45.54983" lon="6.79369">
        <ele>2257.3</ele>
        <time>2021-03-25T10:04:32Z</time>
      </trkpt>
      <trkpt lat="45.54983" lon="6.7937">
        <ele>2257.3</ele>
        <time>2021-03-25T10:04:33Z</time>
      </trkpt>
      <trkpt lat="45.54983" lon="6.7937">
        <ele>2257.3</ele>
        <time>2021-03-25T10:04:34Z</time>
      </trkpt>
      <trkpt lat="45.54982" lon="6.79371">
        <ele>2257.3</ele>
        <time>2021-03-25T10:04:35Z</time>
      </trkpt>
      <trkpt lat="45.54982" lon="6.79371">
        <ele>2259</ele>
        <time>2021-03-25T10:04:36Z</time>
      </trkpt>
      <trkpt lat="45.54981" lon="6.79372">
        <ele>2259</ele>
        <time>2021-03-25T10:04:37Z</time>
      </trkpt>
      <trkpt lat="45.54981" lon="6.79373">
        <ele>2259</ele>
        <time>2021-03-25T10:04:38Z</time>
      </trkpt>
      <trkpt lat="45.54981" lon="6.79374">
        <ele>2259</ele>
        <time>2021-03-25T10:04:39Z</time>
      </trkpt>
      <trkpt lat="45.5498" lon="6.79374">
        <ele>2259</ele>
        <time>2021-03-25T10:04:40Z</time>
      </trkpt>
      <trkpt lat="45.5498" lon="6.79375">
        <ele>2259</ele>
        <time>2021-03-25T10:04:41Z</time>
      </trkpt>
      <trkpt lat="45.5498" lon="6.79377">
        <ele>2260</ele>
        <time>2021-03-25T10:04:42Z</time>
      </trkpt>
      <trkpt lat="45.5498" lon="6.79377">
        <ele>2260</ele>
        <time>2021-03-25T10:04:43Z</time>
      </trkpt>
      <trkpt lat="45.5498" lon="6.79378">
        <ele>2260</ele>
        <time>2021-03-25T10:04:44Z</time>
      </trkpt>
      <trkpt lat="45.54979" lon="6.79378">
        <ele>2260</ele>
        <time>2021-03-25T10:04:45Z</time>
      </trkpt>
      <trkpt lat="45.54979" lon="6.79379">
        <ele>2260</ele>
        <time>2021-03-25T10:04:46Z</time>
      </trkpt>
      <trkpt lat="45.54979" lon="6.79379">
        <ele>2260.7</ele>
        <time>2021-03-25T10:04:47Z</time>
      </trkpt>
      <trkpt lat="45.54979" lon="6.7938">
        <ele>2260.7</ele>
        <time>2021-03-25T10:04:48Z</time>
      </trkpt>
      <trkpt lat="45.54978" lon="6.7938">
        <ele>2261.9</ele>
        <time>2021-03-25T10:04:49Z</time>
      </trkpt>
      <trkpt lat="45.54978" lon="6.79381">
        <ele>2261.9</ele>
        <time>2021-03-25T10:04:50Z</time>
      </trkpt>
      <trkpt lat="45.54978" lon="6.79381">
        <ele>2261.9</ele>
        <time>2021-03-25T10:04:51Z</time>
      </trkpt>
      <trkpt lat="45.54978" lon="6.79382">
        <ele>2261.9</ele>
        <time>2021-03-25T10:04:52Z</time>
      </trkpt>
      <trkpt lat="45.54978" lon="6.79383">
        <ele>2261.9</ele>
        <time>2021-03-25T10:04:53Z</time>
      </trkpt>
      <trkpt lat="45.54977" lon="6.79383">
        <ele>2261.9</ele>
        <time>2021-03-25T10:04:54Z</time>
      </trkpt>
      <trkpt lat="45.54977" lon="6.79383">
        <ele>2261.9</ele>
        <time>2021-03-25T10:04:55Z</time>
      </trkpt>
      <trkpt lat="45.54977" lon="6.79384">
        <ele>2261.9</ele>
        <time>2021-03-25T10:04:56Z</time>
      </trkpt>
      <trkpt lat="45.54977" lon="6.79384">
        <ele>2261.9</ele>
        <time>2021-03-25T10:04:57Z</time>
      </trkpt>
      <trkpt lat="45.54976" lon="6.79385">
        <ele>2263</ele>
        <time>2021-03-25T10:04:58Z</time>
      </trkpt>
      <trkpt lat="45.54976" lon="6.79385">
        <ele>2263.8</ele>
        <time>2021-03-25T10:04:59Z</time>
      </trkpt>
      <trkpt lat="45.54975" lon="6.79386">
        <ele>2263.8</ele>
        <time>2021-03-25T10:05:00Z</time>
      </trkpt>
      <trkpt lat="45.54975" lon="6.79386">
        <ele>2263.8</ele>
        <time>2021-03-25T10:05:01Z</time>
      </trkpt>
      <trkpt lat="45.54975" lon="6.79386">
        <ele>2263.8</ele>
        <time>2021-03-25T10:05:02Z</time>
      </trkpt>
      <trkpt lat="45.54974" lon="6.79387">
        <ele>2263.8</ele>
        <time>2021-03-25T10:05:03Z</time>
      </trkpt>
      <trkpt lat="45.54974" lon="6.79387">
        <ele>2263.8</ele>
        <time>2021-03-25T10:05:04Z</time>
      </trkpt>
      <trkpt lat="45.54973" lon="6.79388">
        <ele>2263.8</ele>
        <time>2021-03-25T10:05:05Z</time>
      </trkpt>
      <trkpt lat="45.54973" lon="6.79388">
        <ele>2264.5</ele>
        <time>2021-03-25T10:05:06Z</time>
      </trkpt>
      <trkpt lat="45.54973" lon="6.79389">
        <ele>2264.5</ele>
        <time>2021-03-25T10:05:07Z</time>
      </trkpt>
      <trkpt lat="45.54972" lon="6.79389">
        <ele>2265.7</ele>
        <time>2021-03-25T10:05:08Z</time>
      </trkpt>
      <trkpt lat="45.54972" lon="6.79389">
        <ele>2265.7</ele>
        <time>2021-03-25T10:05:09Z</time>
      </trkpt>
      <trkpt lat="45.54972" lon="6.79389">
        <ele>2265.7</ele>
        <time>2021-03-25T10:05:10Z</time>
      </trkpt>
      <trkpt lat="45.54971" lon="6.7939">
        <ele>2265.7</ele>
        <time>2021-03-25T10:05:11Z</time>
      </trkpt>
      <trkpt lat="45.54971" lon="6.7939">
        <ele>2265.7</ele>
        <time>2021-03-25T10:05:12Z</time>
      </trkpt>
      <trkpt lat="45.5497" lon="6.79391">
        <ele>2265.7</ele>
        <time>2021-03-25T10:05:13Z</time>
      </trkpt>
      <trkpt lat="45.5497" lon="6.79392">
        <ele>2265.7</ele>
        <time>2021-03-25T10:05:14Z</time>
      </trkpt>
      <trkpt lat="45.5497" lon="6.79392">
        <ele>2265.7</ele>
        <time>2021-03-25T10:05:15Z</time>
      </trkpt>
      <trkpt lat="45.5497" lon="6.79392">
        <ele>2265.7</ele>
        <time>2021-03-25T10:05:16Z</time>
      </trkpt>
      <trkpt lat="45.54971" lon="6.79392">
        <ele>2265.7</ele>
        <time>2021-03-25T10:05:17Z</time>
      </trkpt>
      <trkpt lat="45.54971" lon="6.79392">
        <ele>2265.7</ele>
        <time>2021-03-25T10:05:18Z</time>
      </trkpt>
      <trkpt lat="45.54971" lon="6.79392">
        <ele>2265.7</ele>
        <time>2021-03-25T10:05:19Z</time>
      </trkpt>
      <trkpt lat="45.54972" lon="6.79393">
        <ele>2265.7</ele>
        <time>2021-03-25T10:05:20Z</time>
      </trkpt>
      <trkpt lat="45.54972" lon="6.79393">
        <ele>2266.9</ele>
        <time>2021-03-25T10:05:21Z</time>
      </trkpt>
      <trkpt lat="45.54972" lon="6.79394">
        <ele>2266.9</ele>
        <time>2021-03-25T10:05:22Z</time>
      </trkpt>
      <trkpt lat="45.54972" lon="6.79394">
        <ele>2266.9</ele>
        <time>2021-03-25T10:05:23Z</time>
      </trkpt>
      <trkpt lat="45.54973" lon="6.79395">
        <ele>2266.9</ele>
        <time>2021-03-25T10:05:24Z</time>
      </trkpt>
      <trkpt lat="45.54973" lon="6.79395">
        <ele>2266.9</ele>
        <time>2021-03-25T10:05:25Z</time>
      </trkpt>
      <trkpt lat="45.54973" lon="6.79396">
        <ele>2266.1</ele>
        <time>2021-03-25T10:05:26Z</time>
      </trkpt>
      <trkpt lat="45.54973" lon="6.79396">
        <ele>2266.1</ele>
        <time>2021-03-25T10:05:27Z</time>
      </trkpt>
      <trkpt lat="45.54973" lon="6.79397">
        <ele>2266.1</ele>
        <time>2021-03-25T10:05:28Z</time>
      </trkpt>
      <trkpt lat="45.54974" lon="6.79397">
        <ele>2267.2</ele>
        <time>2021-03-25T10:05:29Z</time>
      </trkpt>
      <trkpt lat="45.54974" lon="6.79398">
        <ele>2267.2</ele>
        <time>2021-03-25T10:05:30Z</time>
      </trkpt>
      <trkpt lat="45.54974" lon="6.79398">
        <ele>2267.2</ele>
        <time>2021-03-25T10:05:31Z</time>
      </trkpt>
      <trkpt lat="45.54974" lon="6.79399">
        <ele>2267.2</ele>
        <time>2021-03-25T10:05:32Z</time>
      </trkpt>
      <trkpt lat="45.54974" lon="6.794">
        <ele>2267.2</ele>
        <time>2021-03-25T10:05:33Z</time>
      </trkpt>
      <trkpt lat="45.54974" lon="6.79401">
        <ele>2267.2</ele>
        <time>2021-03-25T10:05:34Z</time>
      </trkpt>
      <trkpt lat="45.54975" lon="6.79401">
        <ele>2268.4</ele>
        <time>2021-03-25T10:05:35Z</time>
      </trkpt>
      <trkpt lat="45.54975" lon="6.79402">
        <ele>2268.4</ele>
        <time>2021-03-25T10:05:36Z</time>
      </trkpt>
      <trkpt lat="45.54975" lon="6.79403">
        <ele>2268.4</ele>
        <time>2021-03-25T10:05:37Z</time>
      </trkpt>
      <trkpt lat="45.54975" lon="6.79403">
        <ele>2268.4</ele>
        <time>2021-03-25T10:05:38Z</time>
      </trkpt>
      <trkpt lat="45.54976" lon="6.79403">
        <ele>2268.4</ele>
        <time>2021-03-25T10:05:39Z</time>
      </trkpt>
      <trkpt lat="45.54976" lon="6.79403">
        <ele>2268.4</ele>
        <time>2021-03-25T10:05:40Z</time>
      </trkpt>
      <trkpt lat="45.54976" lon="6.79403">
        <ele>2267.5</ele>
        <time>2021-03-25T10:05:41Z</time>
      </trkpt>
      <trkpt lat="45.54977" lon="6.79404">
        <ele>2267.5</ele>
        <time>2021-03-25T10:05:42Z</time>
      </trkpt>
      <trkpt lat="45.54977" lon="6.79404">
        <ele>2267.5</ele>
        <time>2021-03-25T10:05:43Z</time>
      </trkpt>
      <trkpt lat="45.54977" lon="6.79405">
        <ele>2267.5</ele>
        <time>2021-03-25T10:05:44Z</time>
      </trkpt>
      <trkpt lat="45.54978" lon="6.79405">
        <ele>2267.5</ele>
        <time>2021-03-25T10:05:45Z</time>
      </trkpt>
      <trkpt lat="45.54978" lon="6.79406">
        <ele>2268.7</ele>
        <time>2021-03-25T10:05:46Z</time>
      </trkpt>
      <trkpt lat="45.54978" lon="6.79407">
        <ele>2268.7</ele>
        <time>2021-03-25T10:05:47Z</time>
      </trkpt>
      <trkpt lat="45.54978" lon="6.79408">
        <ele>2268.7</ele>
        <time>2021-03-25T10:05:48Z</time>
      </trkpt>
      <trkpt lat="45.54978" lon="6.79408">
        <ele>2268.7</ele>
        <time>2021-03-25T10:05:49Z</time>
      </trkpt>
      <trkpt lat="45.54978" lon="6.79409">
        <ele>2268.7</ele>
        <time>2021-03-25T10:05:50Z</time>
      </trkpt>
      <trkpt lat="45.54979" lon="6.79409">
        <ele>2268.7</ele>
        <time>2021-03-25T10:05:51Z</time>
      </trkpt>
      <trkpt lat="45.54979" lon="6.7941">
        <ele>2270</ele>
        <time>2021-03-25T10:05:52Z</time>
      </trkpt>
      <trkpt lat="45.54979" lon="6.79411">
        <ele>2270</ele>
        <time>2021-03-25T10:05:53Z</time>
      </trkpt>
      <trkpt lat="45.5498" lon="6.79413">
        <ele>2269</ele>
        <time>2021-03-25T10:05:54Z</time>
      </trkpt>
      <trkpt lat="45.54981" lon="6.79414">
        <ele>2269</ele>
        <time>2021-03-25T10:05:55Z</time>
      </trkpt>
      <trkpt lat="45.54983" lon="6.79415">
        <ele>2269.5</ele>
        <time>2021-03-25T10:05:56Z</time>
      </trkpt>
      <trkpt lat="45.54984" lon="6.79416">
        <ele>2269.5</ele>
        <time>2021-03-25T10:05:57Z</time>
      </trkpt>
      <trkpt lat="45.54985" lon="6.79418">
        <ele>2269.5</ele>
        <time>2021-03-25T10:05:58Z</time>
      </trkpt>
      <trkpt lat="45.54986" lon="6.79419">
        <ele>2270</ele>
        <time>2021-03-25T10:06:23Z</time>
      </trkpt>
      <trkpt lat="45.54987" lon="6.7942">
        <ele>2270</ele>
        <time>2021-03-25T10:06:24Z</time>
      </trkpt>
      <trkpt lat="45.54988" lon="6.79422">
        <ele>2270</ele>
        <time>2021-03-25T10:06:25Z</time>
      </trkpt>
      <trkpt lat="45.54989" lon="6.79423">
        <ele>2269.1</ele>
        <time>2021-03-25T10:06:26Z</time>
      </trkpt>
      <trkpt lat="45.5499" lon="6.79424">
        <ele>2270.5</ele>
        <time>2021-03-25T10:06:27Z</time>
      </trkpt>
      <trkpt lat="45.5499" lon="6.79425">
        <ele>2270.5</ele>
        <time>2021-03-25T10:06:28Z</time>
      </trkpt>
      <trkpt lat="45.5499" lon="6.79426">
        <ele>2270.5</ele>
        <time>2021-03-25T10:06:29Z</time>
      </trkpt>
      <trkpt lat="45.5499" lon="6.79426">
        <ele>2270.5</ele>
        <time>2021-03-25T10:06:30Z</time>
      </trkpt>
      <trkpt lat="45.54991" lon="6.79427">
        <ele>2270.5</ele>
        <time>2021-03-25T10:06:31Z</time>
      </trkpt>
      <trkpt lat="45.54991" lon="6.79427">
        <ele>2270.8</ele>
        <time>2021-03-25T10:06:32Z</time>
      </trkpt>
      <trkpt lat="45.54991" lon="6.79428">
        <ele>2270.8</ele>
        <time>2021-03-25T10:06:33Z</time>
      </trkpt>
      <trkpt lat="45.54992" lon="6.79429">
        <ele>2270.8</ele>
        <time>2021-03-25T10:06:34Z</time>
      </trkpt>
      <trkpt lat="45.54992" lon="6.79429">
        <ele>2270.8</ele>
        <time>2021-03-25T10:06:35Z</time>
      </trkpt>
      <trkpt lat="45.54992" lon="6.7943">
        <ele>2270.8</ele>
        <time>2021-03-25T10:06:36Z</time>
      </trkpt>
      <trkpt lat="45.54992" lon="6.7943">
        <ele>2270.8</ele>
        <time>2021-03-25T10:06:37Z</time>
      </trkpt>
      <trkpt lat="45.54993" lon="6.79431">
        <ele>2270.8</ele>
        <time>2021-03-25T10:06:38Z</time>
      </trkpt>
      <trkpt lat="45.54993" lon="6.79432">
        <ele>2272.1</ele>
        <time>2021-03-25T10:06:39Z</time>
      </trkpt>
      <trkpt lat="45.54993" lon="6.79433">
        <ele>2272.1</ele>
        <time>2021-03-25T10:06:40Z</time>
      </trkpt>
      <trkpt lat="45.54994" lon="6.79433">
        <ele>2272.1</ele>
        <time>2021-03-25T10:06:41Z</time>
      </trkpt>
      <trkpt lat="45.54994" lon="6.79434">
        <ele>2272.1</ele>
        <time>2021-03-25T10:06:42Z</time>
      </trkpt>
      <trkpt lat="45.54994" lon="6.79434">
        <ele>2272.1</ele>
        <time>2021-03-25T10:06:43Z</time>
      </trkpt>
      <trkpt lat="45.54994" lon="6.79435">
        <ele>2271.1</ele>
        <time>2021-03-25T10:06:44Z</time>
      </trkpt>
      <trkpt lat="45.54995" lon="6.79435">
        <ele>2271.1</ele>
        <time>2021-03-25T10:06:45Z</time>
      </trkpt>
      <trkpt lat="45.54995" lon="6.79436">
        <ele>2272.3</ele>
        <time>2021-03-25T10:06:46Z</time>
      </trkpt>
      <trkpt lat="45.54995" lon="6.79437">
        <ele>2272.3</ele>
        <time>2021-03-25T10:06:47Z</time>
      </trkpt>
      <trkpt lat="45.54995" lon="6.79437">
        <ele>2272.3</ele>
        <time>2021-03-25T10:06:48Z</time>
      </trkpt>
      <trkpt lat="45.54996" lon="6.79438">
        <ele>2272.3</ele>
        <time>2021-03-25T10:06:49Z</time>
      </trkpt>
      <trkpt lat="45.54996" lon="6.79438">
        <ele>2272.3</ele>
        <time>2021-03-25T10:06:50Z</time>
      </trkpt>
      <trkpt lat="45.54996" lon="6.79439">
        <ele>2272.3</ele>
        <time>2021-03-25T10:06:51Z</time>
      </trkpt>
      <trkpt lat="45.54997" lon="6.79439">
        <ele>2271.2</ele>
        <time>2021-03-25T10:06:52Z</time>
      </trkpt>
      <trkpt lat="45.54998" lon="6.79439">
        <ele>2271.2</ele>
        <time>2021-03-25T10:06:53Z</time>
      </trkpt>
      <trkpt lat="45.54998" lon="6.79439">
        <ele>2271.2</ele>
        <time>2021-03-25T10:06:54Z</time>
      </trkpt>
      <trkpt lat="45.54998" lon="6.7944">
        <ele>2271.2</ele>
        <time>2021-03-25T10:06:55Z</time>
      </trkpt>
      <trkpt lat="45.54999" lon="6.79441">
        <ele>2272.4</ele>
        <time>2021-03-25T10:06:56Z</time>
      </trkpt>
      <trkpt lat="45.54999" lon="6.79442">
        <ele>2272.4</ele>
        <time>2021-03-25T10:06:57Z</time>
      </trkpt>
      <trkpt lat="45.54999" lon="6.79443">
        <ele>2272.4</ele>
        <time>2021-03-25T10:06:58Z</time>
      </trkpt>
      <trkpt lat="45.55" lon="6.79443">
        <ele>2272.4</ele>
        <time>2021-03-25T10:06:59Z</time>
      </trkpt>
      <trkpt lat="45.55" lon="6.79444">
        <ele>2272.4</ele>
        <time>2021-03-25T10:07:00Z</time>
      </trkpt>
      <trkpt lat="45.55" lon="6.79445">
        <ele>2272.5</ele>
        <time>2021-03-25T10:07:01Z</time>
      </trkpt>
      <trkpt lat="45.55" lon="6.79446">
        <ele>2272.5</ele>
        <time>2021-03-25T10:07:02Z</time>
      </trkpt>
      <trkpt lat="45.55001" lon="6.79446">
        <ele>2272.5</ele>
        <time>2021-03-25T10:07:03Z</time>
      </trkpt>
      <trkpt lat="45.55001" lon="6.79447">
        <ele>2272.5</ele>
        <time>2021-03-25T10:07:04Z</time>
      </trkpt>
      <trkpt lat="45.55001" lon="6.79448">
        <ele>2272.5</ele>
        <time>2021-03-25T10:07:05Z</time>
      </trkpt>
      <trkpt lat="45.55001" lon="6.79449">
        <ele>2272.5</ele>
        <time>2021-03-25T10:07:06Z</time>
      </trkpt>
      <trkpt lat="45.55002" lon="6.7945">
        <ele>2273.8</ele>
        <time>2021-03-25T10:07:07Z</time>
      </trkpt>
      <trkpt lat="45.55002" lon="6.79451">
        <ele>2273.8</ele>
        <time>2021-03-25T10:07:08Z</time>
      </trkpt>
      <trkpt lat="45.55002" lon="6.79451">
        <ele>2273.8</ele>
        <time>2021-03-25T10:07:09Z</time>
      </trkpt>
      <trkpt lat="45.55002" lon="6.79452">
        <ele>2273.8</ele>
        <time>2021-03-25T10:07:10Z</time>
      </trkpt>
      <trkpt lat="45.55002" lon="6.79453">
        <ele>2273.8</ele>
        <time>2021-03-25T10:07:11Z</time>
      </trkpt>
      <trkpt lat="45.55002" lon="6.79453">
        <ele>2275.1</ele>
        <time>2021-03-25T10:07:12Z</time>
      </trkpt>
      <trkpt lat="45.55002" lon="6.79454">
        <ele>2275.1</ele>
        <time>2021-03-25T10:07:13Z</time>
      </trkpt>
      <trkpt lat="45.55002" lon="6.79455">
        <ele>2275.1</ele>
        <time>2021-03-25T10:07:14Z</time>
      </trkpt>
      <trkpt lat="45.55003" lon="6.79456">
        <ele>2275.1</ele>
        <time>2021-03-25T10:07:15Z</time>
      </trkpt>
      <trkpt lat="45.55004" lon="6.79457">
        <ele>2273.9</ele>
        <time>2021-03-25T10:07:16Z</time>
      </trkpt>
      <trkpt lat="45.55004" lon="6.79458">
        <ele>2275.3</ele>
        <time>2021-03-25T10:07:17Z</time>
      </trkpt>
      <trkpt lat="45.55005" lon="6.79459">
        <ele>2275.3</ele>
        <time>2021-03-25T10:07:18Z</time>
      </trkpt>
      <trkpt lat="45.55005" lon="6.79459">
        <ele>2275.3</ele>
        <time>2021-03-25T10:07:19Z</time>
      </trkpt>
      <trkpt lat="45.55006" lon="6.7946">
        <ele>2275.3</ele>
        <time>2021-03-25T10:07:20Z</time>
      </trkpt>
      <trkpt lat="45.55006" lon="6.79461">
        <ele>2275.3</ele>
        <time>2021-03-25T10:07:21Z</time>
      </trkpt>
      <trkpt lat="45.55006" lon="6.79461">
        <ele>2275.3</ele>
        <time>2021-03-25T10:07:22Z</time>
      </trkpt>
      <trkpt lat="45.55006" lon="6.79462">
        <ele>2276.7</ele>
        <time>2021-03-25T10:07:23Z</time>
      </trkpt>
      <trkpt lat="45.55006" lon="6.79462">
        <ele>2275.6</ele>
        <time>2021-03-25T10:07:24Z</time>
      </trkpt>
      <trkpt lat="45.55006" lon="6.79463">
        <ele>2275.6</ele>
        <time>2021-03-25T10:07:25Z</time>
      </trkpt>
      <trkpt lat="45.55006" lon="6.79463">
        <ele>2275.6</ele>
        <time>2021-03-25T10:07:26Z</time>
      </trkpt>
      <trkpt lat="45.55006" lon="6.79463">
        <ele>2275.6</ele>
        <time>2021-03-25T10:07:27Z</time>
      </trkpt>
      <trkpt lat="45.55006" lon="6.79463">
        <ele>2275.6</ele>
        <time>2021-03-25T10:07:28Z</time>
      </trkpt>
      <trkpt lat="45.55006" lon="6.79463">
        <ele>2275.6</ele>
        <time>2021-03-25T10:07:29Z</time>
      </trkpt>
      <trkpt lat="45.55006" lon="6.79463">
        <ele>2275.6</ele>
        <time>2021-03-25T10:07:30Z</time>
      </trkpt>
      <trkpt lat="45.55006" lon="6.79464">
        <ele>2275.6</ele>
        <time>2021-03-25T10:07:31Z</time>
      </trkpt>
      <trkpt lat="45.55007" lon="6.79466">
        <ele>2275.6</ele>
        <time>2021-03-25T10:07:32Z</time>
      </trkpt>
      <trkpt lat="45.55007" lon="6.79467">
        <ele>2277</ele>
        <time>2021-03-25T10:07:33Z</time>
      </trkpt>
      <trkpt lat="45.55007" lon="6.79468">
        <ele>2277</ele>
        <time>2021-03-25T10:07:34Z</time>
      </trkpt>
      <trkpt lat="45.55008" lon="6.7947">
        <ele>2277</ele>
        <time>2021-03-25T10:07:35Z</time>
      </trkpt>
      <trkpt lat="45.55008" lon="6.79471">
        <ele>2278.5</ele>
        <time>2021-03-25T10:07:48Z</time>
      </trkpt>
      <trkpt lat="45.55008" lon="6.79472">
        <ele>2278.5</ele>
        <time>2021-03-25T10:07:49Z</time>
      </trkpt>
      <trkpt lat="45.55009" lon="6.79474">
        <ele>2278.5</ele>
        <time>2021-03-25T10:07:50Z</time>
      </trkpt>
      <trkpt lat="45.55009" lon="6.79475">
        <ele>2279.9</ele>
        <time>2021-03-25T10:07:51Z</time>
      </trkpt>
      <trkpt lat="45.55009" lon="6.79476">
        <ele>2278.9</ele>
        <time>2021-03-25T10:07:52Z</time>
      </trkpt>
      <trkpt lat="45.5501" lon="6.79478">
        <ele>2278.9</ele>
        <time>2021-03-25T10:07:53Z</time>
      </trkpt>
      <trkpt lat="45.5501" lon="6.79478">
        <ele>2278.9</ele>
        <time>2021-03-25T10:07:54Z</time>
      </trkpt>
      <trkpt lat="45.5501" lon="6.79479">
        <ele>2280.2</ele>
        <time>2021-03-25T10:07:55Z</time>
      </trkpt>
      <trkpt lat="45.5501" lon="6.7948">
        <ele>2280.2</ele>
        <time>2021-03-25T10:07:56Z</time>
      </trkpt>
      <trkpt lat="45.5501" lon="6.7948">
        <ele>2280.2</ele>
        <time>2021-03-25T10:07:57Z</time>
      </trkpt>
      <trkpt lat="45.5501" lon="6.79481">
        <ele>2280.2</ele>
        <time>2021-03-25T10:07:58Z</time>
      </trkpt>
      <trkpt lat="45.5501" lon="6.79482">
        <ele>2280.2</ele>
        <time>2021-03-25T10:07:59Z</time>
      </trkpt>
      <trkpt lat="45.5501" lon="6.79482">
        <ele>2280.2</ele>
        <time>2021-03-25T10:08:00Z</time>
      </trkpt>
      <trkpt lat="45.5501" lon="6.79483">
        <ele>2281.5</ele>
        <time>2021-03-25T10:08:01Z</time>
      </trkpt>
      <trkpt lat="45.55011" lon="6.79484">
        <ele>2281.5</ele>
        <time>2021-03-25T10:08:02Z</time>
      </trkpt>
      <trkpt lat="45.55011" lon="6.79484">
        <ele>2281.5</ele>
        <time>2021-03-25T10:08:03Z</time>
      </trkpt>
      <trkpt lat="45.55011" lon="6.79485">
        <ele>2281.5</ele>
        <time>2021-03-25T10:08:04Z</time>
      </trkpt>
      <trkpt lat="45.55011" lon="6.79486">
        <ele>2281.5</ele>
        <time>2021-03-25T10:08:22Z</time>
      </trkpt>
      <trkpt lat="45.55011" lon="6.79487">
        <ele>2281.5</ele>
        <time>2021-03-25T10:08:23Z</time>
      </trkpt>
      <trkpt lat="45.55011" lon="6.79487">
        <ele>2281.5</ele>
        <time>2021-03-25T10:08:24Z</time>
      </trkpt>
      <trkpt lat="45.55011" lon="6.79488">
        <ele>2282.8</ele>
        <time>2021-03-25T10:08:25Z</time>
      </trkpt>
      <trkpt lat="45.55011" lon="6.79489">
        <ele>2282.8</ele>
        <time>2021-03-25T10:08:26Z</time>
      </trkpt>
      <trkpt lat="45.55011" lon="6.79489">
        <ele>2282.8</ele>
        <time>2021-03-25T10:08:27Z</time>
      </trkpt>
      <trkpt lat="45.55011" lon="6.7949">
        <ele>2282.8</ele>
        <time>2021-03-25T10:08:28Z</time>
      </trkpt>
      <trkpt lat="45.55011" lon="6.79491">
        <ele>2282.8</ele>
        <time>2021-03-25T10:08:29Z</time>
      </trkpt>
      <trkpt lat="45.55011" lon="6.79491">
        <ele>2282.8</ele>
        <time>2021-03-25T10:08:30Z</time>
      </trkpt>
      <trkpt lat="45.55011" lon="6.79492">
        <ele>2284.1</ele>
        <time>2021-03-25T10:08:31Z</time>
      </trkpt>
      <trkpt lat="45.55012" lon="6.79493">
        <ele>2284.1</ele>
        <time>2021-03-25T10:08:32Z</time>
      </trkpt>
      <trkpt lat="45.55012" lon="6.79494">
        <ele>2284.1</ele>
        <time>2021-03-25T10:08:33Z</time>
      </trkpt>
      <trkpt lat="45.55012" lon="6.79494">
        <ele>2284.1</ele>
        <time>2021-03-25T10:08:34Z</time>
      </trkpt>
      <trkpt lat="45.55012" lon="6.79495">
        <ele>2284.1</ele>
        <time>2021-03-25T10:08:35Z</time>
      </trkpt>
      <trkpt lat="45.55012" lon="6.79496">
        <ele>2284.1</ele>
        <time>2021-03-25T10:08:36Z</time>
      </trkpt>
      <trkpt lat="45.55012" lon="6.79496">
        <ele>2285.5</ele>
        <time>2021-03-25T10:08:37Z</time>
      </trkpt>
      <trkpt lat="45.55012" lon="6.79497">
        <ele>2285.5</ele>
        <time>2021-03-25T10:08:38Z</time>
      </trkpt>
      <trkpt lat="45.55012" lon="6.79498">
        <ele>2285.5</ele>
        <time>2021-03-25T10:08:39Z</time>
      </trkpt>
      <trkpt lat="45.55012" lon="6.79498">
        <ele>2285.5</ele>
        <time>2021-03-25T10:08:40Z</time>
      </trkpt>
      <trkpt lat="45.55012" lon="6.79499">
        <ele>2284.3</ele>
        <time>2021-03-25T10:10:30Z</time>
      </trkpt>
      <trkpt lat="45.55012" lon="6.795">
        <ele>2284.3</ele>
        <time>2021-03-25T10:10:31Z</time>
      </trkpt>
      <trkpt lat="45.55012" lon="6.795">
        <ele>2285.8</ele>
        <time>2021-03-25T10:10:32Z</time>
      </trkpt>
      <trkpt lat="45.55012" lon="6.79501">
        <ele>2285.8</ele>
        <time>2021-03-25T10:10:33Z</time>
      </trkpt>
      <trkpt lat="45.55013" lon="6.79502">
        <ele>2285.8</ele>
        <time>2021-03-25T10:10:34Z</time>
      </trkpt>
      <trkpt lat="45.55013" lon="6.79503">
        <ele>2285.8</ele>
        <time>2021-03-25T10:10:35Z</time>
      </trkpt>
      <trkpt lat="45.55012" lon="6.79502">
        <ele>2287</ele>
        <time>2021-03-25T10:10:36Z</time>
      </trkpt>
      <trkpt lat="45.55011" lon="6.79502">
        <ele>2287</ele>
        <time>2021-03-25T10:10:37Z</time>
      </trkpt>
      <trkpt lat="45.5501" lon="6.79501">
        <ele>2287</ele>
        <time>2021-03-25T10:10:38Z</time>
      </trkpt>
      <trkpt lat="45.5501" lon="6.79501">
        <ele>2287</ele>
        <time>2021-03-25T10:10:39Z</time>
      </trkpt>
      <trkpt lat="45.55009" lon="6.79501">
        <ele>2288.3</ele>
        <time>2021-03-25T10:10:40Z</time>
      </trkpt>
      <trkpt lat="45.55008" lon="6.795">
        <ele>2288.3</ele>
        <time>2021-03-25T10:10:41Z</time>
      </trkpt>
      <trkpt lat="45.55008" lon="6.795">
        <ele>2286.8</ele>
        <time>2021-03-25T10:10:42Z</time>
      </trkpt>
      <trkpt lat="45.55007" lon="6.795">
        <ele>2286.8</ele>
        <time>2021-03-25T10:10:43Z</time>
      </trkpt>
      <trkpt lat="45.55006" lon="6.79499">
        <ele>2286.8</ele>
        <time>2021-03-25T10:10:44Z</time>
      </trkpt>
      <trkpt lat="45.55006" lon="6.79499">
        <ele>2288.2</ele>
        <time>2021-03-25T10:10:45Z</time>
      </trkpt>
      <trkpt lat="45.55005" lon="6.79499">
        <ele>2288.2</ele>
        <time>2021-03-25T10:10:46Z</time>
      </trkpt>
      <trkpt lat="45.55004" lon="6.79498">
        <ele>2288.2</ele>
        <time>2021-03-25T10:10:47Z</time>
      </trkpt>
      <trkpt lat="45.55004" lon="6.79498">
        <ele>2288.2</ele>
        <time>2021-03-25T10:10:48Z</time>
      </trkpt>
      <trkpt lat="45.55003" lon="6.79497">
        <ele>2289.8</ele>
        <time>2021-03-25T10:10:49Z</time>
      </trkpt>
      <trkpt lat="45.55002" lon="6.79497">
        <ele>2289.8</ele>
        <time>2021-03-25T10:10:50Z</time>
      </trkpt>
      <trkpt lat="45.55002" lon="6.79496">
        <ele>2289.8</ele>
        <time>2021-03-25T10:10:51Z</time>
      </trkpt>
      <trkpt lat="45.55001" lon="6.79496">
        <ele>2289.8</ele>
        <time>2021-03-25T10:10:52Z</time>
      </trkpt>
      <trkpt lat="45.55001" lon="6.79495">
        <ele>2288.3</ele>
        <time>2021-03-25T10:10:53Z</time>
      </trkpt>
      <trkpt lat="45.55" lon="6.79495">
        <ele>2288.3</ele>
        <time>2021-03-25T10:10:54Z</time>
      </trkpt>
      <trkpt lat="45.55" lon="6.79494">
        <ele>2289.8</ele>
        <time>2021-03-25T10:10:55Z</time>
      </trkpt>
      <trkpt lat="45.54999" lon="6.79494">
        <ele>2289.8</ele>
        <time>2021-03-25T10:10:56Z</time>
      </trkpt>
      <trkpt lat="45.54999" lon="6.79493">
        <ele>2289.8</ele>
        <time>2021-03-25T10:10:57Z</time>
      </trkpt>
      <trkpt lat="45.54999" lon="6.79492">
        <ele>2289.8</ele>
        <time>2021-03-25T10:10:58Z</time>
      </trkpt>
      <trkpt lat="45.54998" lon="6.79492">
        <ele>2289.8</ele>
        <time>2021-03-25T10:10:59Z</time>
      </trkpt>
      <trkpt lat="45.54998" lon="6.79492">
        <ele>2289.8</ele>
        <time>2021-03-25T10:11:00Z</time>
      </trkpt>
      <trkpt lat="45.54997" lon="6.79492">
        <ele>2288.3</ele>
        <time>2021-03-25T10:11:01Z</time>
      </trkpt>
      <trkpt lat="45.54997" lon="6.79491">
        <ele>2289.8</ele>
        <time>2021-03-25T10:11:02Z</time>
      </trkpt>
      <trkpt lat="45.54996" lon="6.79491">
        <ele>2289.8</ele>
        <time>2021-03-25T10:11:03Z</time>
      </trkpt>
      <trkpt lat="45.54996" lon="6.7949">
        <ele>2289.8</ele>
        <time>2021-03-25T10:11:04Z</time>
      </trkpt>
      <trkpt lat="45.54995" lon="6.7949">
        <ele>2289.8</ele>
        <time>2021-03-25T10:11:05Z</time>
      </trkpt>
      <trkpt lat="45.54995" lon="6.7949">
        <ele>2289.8</ele>
        <time>2021-03-25T10:11:06Z</time>
      </trkpt>
      <trkpt lat="45.54994" lon="6.79489">
        <ele>2289.8</ele>
        <time>2021-03-25T10:11:07Z</time>
      </trkpt>
      <trkpt lat="45.54994" lon="6.7949">
        <ele>2291.2</ele>
        <time>2021-03-25T10:11:08Z</time>
      </trkpt>
      <trkpt lat="45.54994" lon="6.7949">
        <ele>2291.2</ele>
        <time>2021-03-25T10:11:09Z</time>
      </trkpt>
      <trkpt lat="45.54994" lon="6.79491">
        <ele>2291.2</ele>
        <time>2021-03-25T10:11:10Z</time>
      </trkpt>
      <trkpt lat="45.54994" lon="6.79491">
        <ele>2291.2</ele>
        <time>2021-03-25T10:11:11Z</time>
      </trkpt>
      <trkpt lat="45.54994" lon="6.79492">
        <ele>2292.8</ele>
        <time>2021-03-25T10:11:12Z</time>
      </trkpt>
      <trkpt lat="45.54994" lon="6.79492">
        <ele>2292.8</ele>
        <time>2021-03-25T10:11:13Z</time>
      </trkpt>
      <trkpt lat="45.54994" lon="6.79493">
        <ele>2292.8</ele>
        <time>2021-03-25T10:11:14Z</time>
      </trkpt>
      <trkpt lat="45.54994" lon="6.79493">
        <ele>2292.8</ele>
        <time>2021-03-25T10:11:15Z</time>
      </trkpt>
      <trkpt lat="45.54994" lon="6.79494">
        <ele>2291.4</ele>
        <time>2021-03-25T10:11:16Z</time>
      </trkpt>
      <trkpt lat="45.54994" lon="6.79494">
        <ele>2291.4</ele>
        <time>2021-03-25T10:11:17Z</time>
      </trkpt>
      <trkpt lat="45.54994" lon="6.79495">
        <ele>2291.4</ele>
        <time>2021-03-25T10:11:18Z</time>
      </trkpt>
      <trkpt lat="45.54994" lon="6.79496">
        <ele>2291.4</ele>
        <time>2021-03-25T10:11:19Z</time>
      </trkpt>
      <trkpt lat="45.54994" lon="6.79496">
        <ele>2293</ele>
        <time>2021-03-25T10:11:20Z</time>
      </trkpt>
      <trkpt lat="45.54994" lon="6.79497">
        <ele>2293</ele>
        <time>2021-03-25T10:11:34Z</time>
      </trkpt>
      <trkpt lat="45.54994" lon="6.79497">
        <ele>2293</ele>
        <time>2021-03-25T10:11:35Z</time>
      </trkpt>
      <trkpt lat="45.54994" lon="6.79498">
        <ele>2293</ele>
        <time>2021-03-25T10:11:36Z</time>
      </trkpt>
      <trkpt lat="45.54994" lon="6.79498">
        <ele>2293</ele>
        <time>2021-03-25T10:11:37Z</time>
      </trkpt>
      <trkpt lat="45.54994" lon="6.79499">
        <ele>2293</ele>
        <time>2021-03-25T10:11:38Z</time>
      </trkpt>
      <trkpt lat="45.54995" lon="6.79499">
        <ele>2293</ele>
        <time>2021-03-25T10:11:39Z</time>
      </trkpt>
      <trkpt lat="45.54995" lon="6.795">
        <ele>2293</ele>
        <time>2021-03-25T10:11:40Z</time>
      </trkpt>
      <trkpt lat="45.54995" lon="6.79501">
        <ele>2294.6</ele>
        <time>2021-03-25T10:11:41Z</time>
      </trkpt>
      <trkpt lat="45.54996" lon="6.79501">
        <ele>2294.6</ele>
        <time>2021-03-25T10:11:42Z</time>
      </trkpt>
      <trkpt lat="45.54997" lon="6.79501">
        <ele>2294.6</ele>
        <time>2021-03-25T10:11:43Z</time>
      </trkpt>
      <trkpt lat="45.54998" lon="6.79502">
        <ele>2293</ele>
        <time>2021-03-25T10:11:44Z</time>
      </trkpt>
      <trkpt lat="45.54998" lon="6.79502">
        <ele>2293</ele>
        <time>2021-03-25T10:11:45Z</time>
      </trkpt>
      <trkpt lat="45.54998" lon="6.79503">
        <ele>2293</ele>
        <time>2021-03-25T10:11:46Z</time>
      </trkpt>
      <trkpt lat="45.54999" lon="6.79503">
        <ele>2293</ele>
        <time>2021-03-25T10:11:47Z</time>
      </trkpt>
      <trkpt lat="45.54999" lon="6.79504">
        <ele>2293</ele>
        <time>2021-03-25T10:11:48Z</time>
      </trkpt>
      <trkpt lat="45.54999" lon="6.79504">
        <ele>2293</ele>
        <time>2021-03-25T10:11:49Z</time>
      </trkpt>
      <trkpt lat="45.55" lon="6.79505">
        <ele>2294.7</ele>
        <time>2021-03-25T10:11:50Z</time>
      </trkpt>
      <trkpt lat="45.55" lon="6.79506">
        <ele>2293</ele>
        <time>2021-03-25T10:11:51Z</time>
      </trkpt>
      <trkpt lat="45.55001" lon="6.79507">
        <ele>2293</ele>
        <time>2021-03-25T10:11:52Z</time>
      </trkpt>
      <trkpt lat="45.55001" lon="6.79507">
        <ele>2293</ele>
        <time>2021-03-25T10:11:53Z</time>
      </trkpt>
      <trkpt lat="45.55002" lon="6.79508">
        <ele>2293</ele>
        <time>2021-03-25T10:11:54Z</time>
      </trkpt>
      <trkpt lat="45.55002" lon="6.79508">
        <ele>2293</ele>
        <time>2021-03-25T10:11:55Z</time>
      </trkpt>
      <trkpt lat="45.55001" lon="6.79507">
        <ele>2293</ele>
        <time>2021-03-25T10:11:56Z</time>
      </trkpt>
      <trkpt lat="45.55" lon="6.79507">
        <ele>2294.7</ele>
        <time>2021-03-25T10:11:57Z</time>
      </trkpt>
      <trkpt lat="45.54999" lon="6.79507">
        <ele>2294.7</ele>
        <time>2021-03-25T10:11:58Z</time>
      </trkpt>
      <trkpt lat="45.54998" lon="6.79506">
        <ele>2294.7</ele>
        <time>2021-03-25T10:11:59Z</time>
      </trkpt>
      <trkpt lat="45.54998" lon="6.79506">
        <ele>2294.7</ele>
        <time>2021-03-25T10:12:00Z</time>
      </trkpt>
      <trkpt lat="45.54997" lon="6.79506">
        <ele>2296.4</ele>
        <time>2021-03-25T10:12:01Z</time>
      </trkpt>
      <trkpt lat="45.54996" lon="6.79505">
        <ele>2296.4</ele>
        <time>2021-03-25T10:12:02Z</time>
      </trkpt>
      <trkpt lat="45.54995" lon="6.79505">
        <ele>2296.4</ele>
        <time>2021-03-25T10:12:03Z</time>
      </trkpt>
      <trkpt lat="45.54995" lon="6.79505">
        <ele>2296.4</ele>
        <time>2021-03-25T10:12:04Z</time>
      </trkpt>
      <trkpt lat="45.54994" lon="6.79505">
        <ele>2297.9</ele>
        <time>2021-03-25T10:12:05Z</time>
      </trkpt>
      <trkpt lat="45.54993" lon="6.79504">
        <ele>2296.2</ele>
        <time>2021-03-25T10:12:06Z</time>
      </trkpt>
      <trkpt lat="45.54992" lon="6.79504">
        <ele>2296.2</ele>
        <time>2021-03-25T10:12:25Z</time>
      </trkpt>
      <trkpt lat="45.54992" lon="6.79504">
        <ele>2296.2</ele>
        <time>2021-03-25T10:12:26Z</time>
      </trkpt>
      <trkpt lat="45.54991" lon="6.79503">
        <ele>2297.6</ele>
        <time>2021-03-25T10:12:27Z</time>
      </trkpt>
      <trkpt lat="45.5499" lon="6.79503">
        <ele>2297.6</ele>
        <time>2021-03-25T10:12:28Z</time>
      </trkpt>
      <trkpt lat="45.54989" lon="6.79503">
        <ele>2297.6</ele>
        <time>2021-03-25T10:12:29Z</time>
      </trkpt>
      <trkpt lat="45.54988" lon="6.79502">
        <ele>2297.6</ele>
        <time>2021-03-25T10:12:30Z</time>
      </trkpt>
      <trkpt lat="45.54988" lon="6.79502">
        <ele>2299</ele>
        <time>2021-03-25T10:12:31Z</time>
      </trkpt>
      <trkpt lat="45.54987" lon="6.79501">
        <ele>2299</ele>
        <time>2021-03-25T10:12:32Z</time>
      </trkpt>
      <trkpt lat="45.54986" lon="6.79501">
        <ele>2299</ele>
        <time>2021-03-25T10:12:33Z</time>
      </trkpt>
      <trkpt lat="45.54985" lon="6.79501">
        <ele>2299</ele>
        <time>2021-03-25T10:12:34Z</time>
      </trkpt>
      <trkpt lat="45.54985" lon="6.795">
        <ele>2300.4</ele>
        <time>2021-03-25T10:12:35Z</time>
      </trkpt>
      <trkpt lat="45.54984" lon="6.795">
        <ele>2298.6</ele>
        <time>2021-03-25T10:12:36Z</time>
      </trkpt>
      <trkpt lat="45.54983" lon="6.795">
        <ele>2298.6</ele>
        <time>2021-03-25T10:12:37Z</time>
      </trkpt>
      <trkpt lat="45.54983" lon="6.795">
        <ele>2298.6</ele>
        <time>2021-03-25T10:12:38Z</time>
      </trkpt>
      <trkpt lat="45.54982" lon="6.795">
        <ele>2300.1</ele>
        <time>2021-03-25T10:12:39Z</time>
      </trkpt>
      <trkpt lat="45.54981" lon="6.795">
        <ele>2300.1</ele>
        <time>2021-03-25T10:12:40Z</time>
      </trkpt>
      <trkpt lat="45.54981" lon="6.795">
        <ele>2300.1</ele>
        <time>2021-03-25T10:12:41Z</time>
      </trkpt>
      <trkpt lat="45.5498" lon="6.795">
        <ele>2300.1</ele>
        <time>2021-03-25T10:12:42Z</time>
      </trkpt>
      <trkpt lat="45.5498" lon="6.795">
        <ele>2300.1</ele>
        <time>2021-03-25T10:12:43Z</time>
      </trkpt>
      <trkpt lat="45.54979" lon="6.795">
        <ele>2301.8</ele>
        <time>2021-03-25T10:12:44Z</time>
      </trkpt>
      <trkpt lat="45.54978" lon="6.795">
        <ele>2301.8</ele>
        <time>2021-03-25T10:12:45Z</time>
      </trkpt>
      <trkpt lat="45.54977" lon="6.79499">
        <ele>2301.8</ele>
        <time>2021-03-25T10:12:46Z</time>
      </trkpt>
      <trkpt lat="45.54977" lon="6.79499">
        <ele>2301.8</ele>
        <time>2021-03-25T10:12:47Z</time>
      </trkpt>
      <trkpt lat="45.54976" lon="6.79499">
        <ele>2301.8</ele>
        <time>2021-03-25T10:12:48Z</time>
      </trkpt>
      <trkpt lat="45.54975" lon="6.79499">
        <ele>2303.4</ele>
        <time>2021-03-25T10:12:49Z</time>
      </trkpt>
      <trkpt lat="45.54974" lon="6.79498">
        <ele>2303.4</ele>
        <time>2021-03-25T10:12:50Z</time>
      </trkpt>
      <trkpt lat="45.54974" lon="6.79498">
        <ele>2303.4</ele>
        <time>2021-03-25T10:12:51Z</time>
      </trkpt>
      <trkpt lat="45.54973" lon="6.79498">
        <ele>2305.1</ele>
        <time>2021-03-25T10:12:52Z</time>
      </trkpt>
      <trkpt lat="45.54972" lon="6.79497">
        <ele>2305.1</ele>
        <time>2021-03-25T10:12:53Z</time>
      </trkpt>
      <trkpt lat="45.54972" lon="6.79497">
        <ele>2305.1</ele>
        <time>2021-03-25T10:12:54Z</time>
      </trkpt>
      <trkpt lat="45.54971" lon="6.79496">
        <ele>2305.1</ele>
        <time>2021-03-25T10:12:55Z</time>
      </trkpt>
      <trkpt lat="45.5497" lon="6.79496">
        <ele>2305.1</ele>
        <time>2021-03-25T10:12:56Z</time>
      </trkpt>
      <trkpt lat="45.5497" lon="6.79496">
        <ele>2304.9</ele>
        <time>2021-03-25T10:12:57Z</time>
      </trkpt>
      <trkpt lat="45.5497" lon="6.79496">
        <ele>2306.8</ele>
        <time>2021-03-25T10:12:58Z</time>
      </trkpt>
      <trkpt lat="45.5497" lon="6.79497">
        <ele>2306.8</ele>
        <time>2021-03-25T10:12:59Z</time>
      </trkpt>
      <trkpt lat="45.5497" lon="6.79497">
        <ele>2305.1</ele>
        <time>2021-03-25T10:13:00Z</time>
      </trkpt>
      <trkpt lat="45.5497" lon="6.79498">
        <ele>2305.1</ele>
        <time>2021-03-25T10:13:01Z</time>
      </trkpt>
      <trkpt lat="45.5497" lon="6.79498">
        <ele>2305.1</ele>
        <time>2021-03-25T10:13:02Z</time>
      </trkpt>
      <trkpt lat="45.54971" lon="6.79499">
        <ele>2305.1</ele>
        <time>2021-03-25T10:13:03Z</time>
      </trkpt>
      <trkpt lat="45.54971" lon="6.79499">
        <ele>2305.1</ele>
        <time>2021-03-25T10:13:04Z</time>
      </trkpt>
      <trkpt lat="45.54971" lon="6.79499">
        <ele>2305.1</ele>
        <time>2021-03-25T10:13:05Z</time>
      </trkpt>
      <trkpt lat="45.54971" lon="6.795">
        <ele>2305.1</ele>
        <time>2021-03-25T10:13:06Z</time>
      </trkpt>
      <trkpt lat="45.54971" lon="6.795">
        <ele>2307.1</ele>
        <time>2021-03-25T10:13:18Z</time>
      </trkpt>
      <trkpt lat="45.54971" lon="6.79501">
        <ele>2307.1</ele>
        <time>2021-03-25T10:13:19Z</time>
      </trkpt>
      <trkpt lat="45.54971" lon="6.79501">
        <ele>2307.1</ele>
        <time>2021-03-25T10:13:20Z</time>
      </trkpt>
      <trkpt lat="45.54971" lon="6.79502">
        <ele>2307.1</ele>
        <time>2021-03-25T10:13:21Z</time>
      </trkpt>
      <trkpt lat="45.54972" lon="6.79502">
        <ele>2307.1</ele>
        <time>2021-03-25T10:13:22Z</time>
      </trkpt>
      <trkpt lat="45.54972" lon="6.79503">
        <ele>2307.1</ele>
        <time>2021-03-25T10:13:23Z</time>
      </trkpt>
      <trkpt lat="45.54972" lon="6.79503">
        <ele>2307.1</ele>
        <time>2021-03-25T10:13:24Z</time>
      </trkpt>
      <trkpt lat="45.54972" lon="6.79503">
        <ele>2307.1</ele>
        <time>2021-03-25T10:13:25Z</time>
      </trkpt>
      <trkpt lat="45.54972" lon="6.79504">
        <ele>2307.1</ele>
        <time>2021-03-25T10:13:26Z</time>
      </trkpt>
      <trkpt lat="45.54972" lon="6.79504">
        <ele>2309.1</ele>
        <time>2021-03-25T10:13:27Z</time>
      </trkpt>
      <trkpt lat="45.54972" lon="6.79505">
        <ele>2309.1</ele>
        <time>2021-03-25T10:13:28Z</time>
      </trkpt>
      <trkpt lat="45.54972" lon="6.79506">
        <ele>2309.1</ele>
        <time>2021-03-25T10:13:29Z</time>
      </trkpt>
      <trkpt lat="45.54973" lon="6.79507">
        <ele>2309.1</ele>
        <time>2021-03-25T10:13:30Z</time>
      </trkpt>
      <trkpt lat="45.54973" lon="6.79508">
        <ele>2307.3</ele>
        <time>2021-03-25T10:13:31Z</time>
      </trkpt>
      <trkpt lat="45.54974" lon="6.79508">
        <ele>2307.3</ele>
        <time>2021-03-25T10:13:32Z</time>
      </trkpt>
      <trkpt lat="45.54974" lon="6.79509">
        <ele>2309.3</ele>
        <time>2021-03-25T10:13:33Z</time>
      </trkpt>
      <trkpt lat="45.54975" lon="6.79509">
        <ele>2309.3</ele>
        <time>2021-03-25T10:13:34Z</time>
      </trkpt>
      <trkpt lat="45.54975" lon="6.7951">
        <ele>2309.3</ele>
        <time>2021-03-25T10:13:35Z</time>
      </trkpt>
      <trkpt lat="45.54975" lon="6.7951">
        <ele>2309.3</ele>
        <time>2021-03-25T10:13:36Z</time>
      </trkpt>
      <trkpt lat="45.54975" lon="6.79511">
        <ele>2309.3</ele>
        <time>2021-03-25T10:13:37Z</time>
      </trkpt>
      <trkpt lat="45.54976" lon="6.79512">
        <ele>2309.3</ele>
        <time>2021-03-25T10:13:38Z</time>
      </trkpt>
      <trkpt lat="45.54976" lon="6.79513">
        <ele>2311.3</ele>
        <time>2021-03-25T10:13:39Z</time>
      </trkpt>
      <trkpt lat="45.54976" lon="6.79514">
        <ele>2309.5</ele>
        <time>2021-03-25T10:13:40Z</time>
      </trkpt>
      <trkpt lat="45.54977" lon="6.79514">
        <ele>2309.5</ele>
        <time>2021-03-25T10:13:41Z</time>
      </trkpt>
      <trkpt lat="45.54977" lon="6.79515">
        <ele>2309.5</ele>
        <time>2021-03-25T10:13:42Z</time>
      </trkpt>
      <trkpt lat="45.54978" lon="6.79516">
        <ele>2309.5</ele>
        <time>2021-03-25T10:13:43Z</time>
      </trkpt>
      <trkpt lat="45.54978" lon="6.79516">
        <ele>2309.5</ele>
        <time>2021-03-25T10:13:44Z</time>
      </trkpt>
      <trkpt lat="45.54979" lon="6.79516">
        <ele>2309.5</ele>
        <time>2021-03-25T10:13:45Z</time>
      </trkpt>
      <trkpt lat="45.5498" lon="6.79517">
        <ele>2307.8</ele>
        <time>2021-03-25T10:13:46Z</time>
      </trkpt>
      <trkpt lat="45.5498" lon="6.79517">
        <ele>2307.8</ele>
        <time>2021-03-25T10:13:47Z</time>
      </trkpt>
      <trkpt lat="45.54981" lon="6.79518">
        <ele>2309.7</ele>
        <time>2021-03-25T10:13:48Z</time>
      </trkpt>
      <trkpt lat="45.54981" lon="6.79519">
        <ele>2309.7</ele>
        <time>2021-03-25T10:13:49Z</time>
      </trkpt>
      <trkpt lat="45.54981" lon="6.7952">
        <ele>2309.7</ele>
        <time>2021-03-25T10:13:50Z</time>
      </trkpt>
      <trkpt lat="45.54981" lon="6.79521">
        <ele>2309.7</ele>
        <time>2021-03-25T10:13:51Z</time>
      </trkpt>
      <trkpt lat="45.54981" lon="6.79522">
        <ele>2311.5</ele>
        <time>2021-03-25T10:13:52Z</time>
      </trkpt>
      <trkpt lat="45.54982" lon="6.79523">
        <ele>2311.5</ele>
        <time>2021-03-25T10:13:53Z</time>
      </trkpt>
      <trkpt lat="45.54982" lon="6.79523">
        <ele>2311.5</ele>
        <time>2021-03-25T10:13:54Z</time>
      </trkpt>
      <trkpt lat="45.54982" lon="6.79523">
        <ele>2309.9</ele>
        <time>2021-03-25T10:13:55Z</time>
      </trkpt>
      <trkpt lat="45.54982" lon="6.79524">
        <ele>2309.9</ele>
        <time>2021-03-25T10:13:56Z</time>
      </trkpt>
      <trkpt lat="45.54983" lon="6.79524">
        <ele>2309.9</ele>
        <time>2021-03-25T10:13:57Z</time>
      </trkpt>
      <trkpt lat="45.54983" lon="6.79525">
        <ele>2309.9</ele>
        <time>2021-03-25T10:13:58Z</time>
      </trkpt>
      <trkpt lat="45.54983" lon="6.79525">
        <ele>2309.9</ele>
        <time>2021-03-25T10:13:59Z</time>
      </trkpt>
      <trkpt lat="45.54983" lon="6.79525">
        <ele>2309.9</ele>
        <time>2021-03-25T10:14:00Z</time>
      </trkpt>
      <trkpt lat="45.54984" lon="6.79526">
        <ele>2311.6</ele>
        <time>2021-03-25T10:14:01Z</time>
      </trkpt>
      <trkpt lat="45.54984" lon="6.79527">
        <ele>2311.6</ele>
        <time>2021-03-25T10:14:02Z</time>
      </trkpt>
      <trkpt lat="45.54984" lon="6.79528">
        <ele>2311.6</ele>
        <time>2021-03-25T10:14:03Z</time>
      </trkpt>
      <trkpt lat="45.54984" lon="6.79528">
        <ele>2311.6</ele>
        <time>2021-03-25T10:14:04Z</time>
      </trkpt>
      <trkpt lat="45.54985" lon="6.79528">
        <ele>2311.6</ele>
        <time>2021-03-25T10:14:05Z</time>
      </trkpt>
      <trkpt lat="45.54985" lon="6.79528">
        <ele>2310</ele>
        <time>2021-03-25T10:14:06Z</time>
      </trkpt>
      <trkpt lat="45.54986" lon="6.79529">
        <ele>2310</ele>
        <time>2021-03-25T10:14:07Z</time>
      </trkpt>
      <trkpt lat="45.54986" lon="6.79529">
        <ele>2310</ele>
        <time>2021-03-25T10:14:08Z</time>
      </trkpt>
      <trkpt lat="45.54986" lon="6.7953">
        <ele>2310</ele>
        <time>2021-03-25T10:14:09Z</time>
      </trkpt>
      <trkpt lat="45.54986" lon="6.7953">
        <ele>2310</ele>
        <time>2021-03-25T10:14:10Z</time>
      </trkpt>
      <trkpt lat="45.54986" lon="6.7953">
        <ele>2310</ele>
        <time>2021-03-25T10:14:11Z</time>
      </trkpt>
      <trkpt lat="45.54986" lon="6.7953">
        <ele>2310</ele>
        <time>2021-03-25T10:14:12Z</time>
      </trkpt>
      <trkpt lat="45.54986" lon="6.7953">
        <ele>2311.7</ele>
        <time>2021-03-25T10:14:13Z</time>
      </trkpt>
      <trkpt lat="45.54987" lon="6.79531">
        <ele>2311.7</ele>
        <time>2021-03-25T10:14:14Z</time>
      </trkpt>
      <trkpt lat="45.54987" lon="6.79531">
        <ele>2311.7</ele>
        <time>2021-03-25T10:14:15Z</time>
      </trkpt>
      <trkpt lat="45.54987" lon="6.79533">
        <ele>2311.7</ele>
        <time>2021-03-25T10:14:16Z</time>
      </trkpt>
      <trkpt lat="45.54987" lon="6.79534">
        <ele>2311.7</ele>
        <time>2021-03-25T10:14:17Z</time>
      </trkpt>
      <trkpt lat="45.54987" lon="6.79535">
        <ele>2313.4</ele>
        <time>2021-03-25T10:14:23Z</time>
      </trkpt>
      <trkpt lat="45.54987" lon="6.79536">
        <ele>2313.4</ele>
        <time>2021-03-25T10:14:24Z</time>
      </trkpt>
      <trkpt lat="45.54987" lon="6.79538">
        <ele>2313.4</ele>
        <time>2021-03-25T10:14:25Z</time>
      </trkpt>
      <trkpt lat="45.54987" lon="6.79539">
        <ele>2313.4</ele>
        <time>2021-03-25T10:14:26Z</time>
      </trkpt>
      <trkpt lat="45.54987" lon="6.7954">
        <ele>2314.9</ele>
        <time>2021-03-25T10:14:27Z</time>
      </trkpt>
      <trkpt lat="45.54987" lon="6.79541">
        <ele>2314.9</ele>
        <time>2021-03-25T10:14:28Z</time>
      </trkpt>
      <trkpt lat="45.54988" lon="6.79541">
        <ele>2314.9</ele>
        <time>2021-03-25T10:14:29Z</time>
      </trkpt>
      <trkpt lat="45.54988" lon="6.79542">
        <ele>2314.9</ele>
        <time>2021-03-25T10:14:30Z</time>
      </trkpt>
      <trkpt lat="45.54988" lon="6.79542">
        <ele>2313.3</ele>
        <time>2021-03-25T10:14:31Z</time>
      </trkpt>
      <trkpt lat="45.54988" lon="6.79543">
        <ele>2313.3</ele>
        <time>2021-03-25T10:14:32Z</time>
      </trkpt>
      <trkpt lat="45.54989" lon="6.79543">
        <ele>2314.9</ele>
        <time>2021-03-25T10:14:33Z</time>
      </trkpt>
      <trkpt lat="45.54989" lon="6.79544">
        <ele>2314.9</ele>
        <time>2021-03-25T10:14:34Z</time>
      </trkpt>
      <trkpt lat="45.54989" lon="6.79544">
        <ele>2314.9</ele>
        <time>2021-03-25T10:14:35Z</time>
      </trkpt>
      <trkpt lat="45.54989" lon="6.79545">
        <ele>2314.9</ele>
        <time>2021-03-25T10:14:36Z</time>
      </trkpt>
      <trkpt lat="45.54989" lon="6.79545">
        <ele>2314.9</ele>
        <time>2021-03-25T10:14:42Z</time>
      </trkpt>
      <trkpt lat="45.54989" lon="6.79546">
        <ele>2314.9</ele>
        <time>2021-03-25T10:14:43Z</time>
      </trkpt>
      <trkpt lat="45.54989" lon="6.79546">
        <ele>2314.9</ele>
        <time>2021-03-25T10:14:44Z</time>
      </trkpt>
      <trkpt lat="45.54989" lon="6.79547">
        <ele>2314.9</ele>
        <time>2021-03-25T10:14:45Z</time>
      </trkpt>
      <trkpt lat="45.54989" lon="6.79547">
        <ele>2314.9</ele>
        <time>2021-03-25T10:14:46Z</time>
      </trkpt>
      <trkpt lat="45.54989" lon="6.79547">
        <ele>2316.5</ele>
        <time>2021-03-25T10:14:47Z</time>
      </trkpt>
      <trkpt lat="45.54989" lon="6.79548">
        <ele>2316.5</ele>
        <time>2021-03-25T10:14:48Z</time>
      </trkpt>
      <trkpt lat="45.54988" lon="6.79548">
        <ele>2316.5</ele>
        <time>2021-03-25T10:14:49Z</time>
      </trkpt>
      <trkpt lat="45.54988" lon="6.79549">
        <ele>2316.5</ele>
        <time>2021-03-25T10:14:50Z</time>
      </trkpt>
      <trkpt lat="45.54988" lon="6.79549">
        <ele>2316.5</ele>
        <time>2021-03-25T10:14:51Z</time>
      </trkpt>
      <trkpt lat="45.54988" lon="6.7955">
        <ele>2316.5</ele>
        <time>2021-03-25T10:14:52Z</time>
      </trkpt>
      <trkpt lat="45.54988" lon="6.7955">
        <ele>2316.5</ele>
        <time>2021-03-25T10:15:10Z</time>
      </trkpt>
      <trkpt lat="45.54988" lon="6.7955">
        <ele>2316.5</ele>
        <time>2021-03-25T10:15:11Z</time>
      </trkpt>
      <trkpt lat="45.54988" lon="6.79551">
        <ele>2316.5</ele>
        <time>2021-03-25T10:15:12Z</time>
      </trkpt>
      <trkpt lat="45.54988" lon="6.79551">
        <ele>2316.5</ele>
        <time>2021-03-25T10:15:13Z</time>
      </trkpt>
      <trkpt lat="45.54988" lon="6.79551">
        <ele>2318.2</ele>
        <time>2021-03-25T10:15:14Z</time>
      </trkpt>
      <trkpt lat="45.54987" lon="6.79552">
        <ele>2318.2</ele>
        <time>2021-03-25T10:15:15Z</time>
      </trkpt>
      <trkpt lat="45.54986" lon="6.79552">
        <ele>2319.9</ele>
        <time>2021-03-25T10:15:16Z</time>
      </trkpt>
      <trkpt lat="45.54985" lon="6.79552">
        <ele>2319.9</ele>
        <time>2021-03-25T10:15:17Z</time>
      </trkpt>
      <trkpt lat="45.54984" lon="6.79551">
        <ele>2319.9</ele>
        <time>2021-03-25T10:15:18Z</time>
      </trkpt>
      <trkpt lat="45.54983" lon="6.79551">
        <ele>2319.9</ele>
        <time>2021-03-25T10:15:19Z</time>
      </trkpt>
      <trkpt lat="45.54983" lon="6.79551">
        <ele>2319.9</ele>
        <time>2021-03-25T10:15:20Z</time>
      </trkpt>
      <trkpt lat="45.54982" lon="6.7955">
        <ele>2319.9</ele>
        <time>2021-03-25T10:15:21Z</time>
      </trkpt>
      <trkpt lat="45.54982" lon="6.7955">
        <ele>2321.6</ele>
        <time>2021-03-25T10:15:22Z</time>
      </trkpt>
      <trkpt lat="45.54981" lon="6.79549">
        <ele>2321.6</ele>
        <time>2021-03-25T10:15:23Z</time>
      </trkpt>
      <trkpt lat="45.54981" lon="6.79549">
        <ele>2321.6</ele>
        <time>2021-03-25T10:15:24Z</time>
      </trkpt>
      <trkpt lat="45.5498" lon="6.79548">
        <ele>2321.6</ele>
        <time>2021-03-25T10:15:25Z</time>
      </trkpt>
      <trkpt lat="45.54979" lon="6.79547">
        <ele>2321.6</ele>
        <time>2021-03-25T10:15:26Z</time>
      </trkpt>
      <trkpt lat="45.54979" lon="6.79547">
        <ele>2321.8</ele>
        <time>2021-03-25T10:15:27Z</time>
      </trkpt>
      <trkpt lat="45.54978" lon="6.79547">
        <ele>2321.8</ele>
        <time>2021-03-25T10:15:28Z</time>
      </trkpt>
      <trkpt lat="45.54977" lon="6.79547">
        <ele>2321.8</ele>
        <time>2021-03-25T10:15:29Z</time>
      </trkpt>
      <trkpt lat="45.54977" lon="6.79547">
        <ele>2321.8</ele>
        <time>2021-03-25T10:15:30Z</time>
      </trkpt>
      <trkpt lat="45.54976" lon="6.79547">
        <ele>2321.8</ele>
        <time>2021-03-25T10:15:31Z</time>
      </trkpt>
      <trkpt lat="45.54976" lon="6.79547">
        <ele>2321.8</ele>
        <time>2021-03-25T10:15:32Z</time>
      </trkpt>
      <trkpt lat="45.54975" lon="6.79546">
        <ele>2323.7</ele>
        <time>2021-03-25T10:15:33Z</time>
      </trkpt>
      <trkpt lat="45.54975" lon="6.79546">
        <ele>2323.7</ele>
        <time>2021-03-25T10:15:34Z</time>
      </trkpt>
      <trkpt lat="45.54974" lon="6.79546">
        <ele>2323.7</ele>
        <time>2021-03-25T10:15:35Z</time>
      </trkpt>
      <trkpt lat="45.54973" lon="6.79545">
        <ele>2323.7</ele>
        <time>2021-03-25T10:15:36Z</time>
      </trkpt>
      <trkpt lat="45.54973" lon="6.79544">
        <ele>2325.6</ele>
        <time>2021-03-25T10:15:37Z</time>
      </trkpt>
      <trkpt lat="45.54972" lon="6.79543">
        <ele>2323.9</ele>
        <time>2021-03-25T10:15:38Z</time>
      </trkpt>
      <trkpt lat="45.54972" lon="6.79542">
        <ele>2323.9</ele>
        <time>2021-03-25T10:15:39Z</time>
      </trkpt>
      <trkpt lat="45.54972" lon="6.79542">
        <ele>2323.9</ele>
        <time>2021-03-25T10:15:40Z</time>
      </trkpt>
      <trkpt lat="45.54973" lon="6.79542">
        <ele>2323.9</ele>
        <time>2021-03-25T10:15:41Z</time>
      </trkpt>
      <trkpt lat="45.54973" lon="6.79542">
        <ele>2323.9</ele>
        <time>2021-03-25T10:15:42Z</time>
      </trkpt>
      <trkpt lat="45.54973" lon="6.79542">
        <ele>2322</ele>
        <time>2021-03-25T10:15:43Z</time>
      </trkpt>
      <trkpt lat="45.54973" lon="6.79543">
        <ele>2322</ele>
        <time>2021-03-25T10:15:44Z</time>
      </trkpt>
      <trkpt lat="45.54974" lon="6.79543">
        <ele>2322</ele>
        <time>2021-03-25T10:15:45Z</time>
      </trkpt>
      <trkpt lat="45.54974" lon="6.79543">
        <ele>2322</ele>
        <time>2021-03-25T10:15:46Z</time>
      </trkpt>
      <trkpt lat="45.54974" lon="6.79543">
        <ele>2323.7</ele>
        <time>2021-03-25T10:15:47Z</time>
      </trkpt>
      <trkpt lat="45.54975" lon="6.79543">
        <ele>2323.7</ele>
        <time>2021-03-25T10:15:48Z</time>
      </trkpt>
      <trkpt lat="45.54975" lon="6.79543">
        <ele>2323.7</ele>
        <time>2021-03-25T10:15:49Z</time>
      </trkpt>
      <trkpt lat="45.54975" lon="6.79544">
        <ele>2323.7</ele>
        <time>2021-03-25T10:16:05Z</time>
      </trkpt>
      <trkpt lat="45.54975" lon="6.79544">
        <ele>2323.7</ele>
        <time>2021-03-25T10:16:06Z</time>
      </trkpt>
      <trkpt lat="45.54976" lon="6.79544">
        <ele>2323.7</ele>
        <time>2021-03-25T10:16:07Z</time>
      </trkpt>
      <trkpt lat="45.54976" lon="6.79544">
        <ele>2323.7</ele>
        <time>2021-03-25T10:16:08Z</time>
      </trkpt>
      <trkpt lat="45.54976" lon="6.79544">
        <ele>2323.7</ele>
        <time>2021-03-25T10:16:09Z</time>
      </trkpt>
      <trkpt lat="45.54976" lon="6.79544">
        <ele>2323.7</ele>
        <time>2021-03-25T10:16:10Z</time>
      </trkpt>
      <trkpt lat="45.54975" lon="6.79547">
        <ele>2323.7</ele>
        <time>2021-03-25T10:16:11Z</time>
      </trkpt>
      <trkpt lat="45.54975" lon="6.79549">
        <ele>2325.4</ele>
        <time>2021-03-25T10:16:12Z</time>
      </trkpt>
      <trkpt lat="45.54976" lon="6.79549">
        <ele>2325.4</ele>
        <time>2021-03-25T10:16:13Z</time>
      </trkpt>
      <trkpt lat="45.54976" lon="6.7955">
        <ele>2323.5</ele>
        <time>2021-03-25T10:16:14Z</time>
      </trkpt>
      <trkpt lat="45.54977" lon="6.7955">
        <ele>2323.5</ele>
        <time>2021-03-25T10:16:15Z</time>
      </trkpt>
      <trkpt lat="45.54977" lon="6.7955">
        <ele>2323.5</ele>
        <time>2021-03-25T10:16:16Z</time>
      </trkpt>
      <trkpt lat="45.54977" lon="6.7955">
        <ele>2323.5</ele>
        <time>2021-03-25T10:16:17Z</time>
      </trkpt>
      <trkpt lat="45.54977" lon="6.7955">
        <ele>2323.5</ele>
        <time>2021-03-25T10:16:18Z</time>
      </trkpt>
      <trkpt lat="45.54977" lon="6.7955">
        <ele>2323.5</ele>
        <time>2021-03-25T10:16:19Z</time>
      </trkpt>
      <trkpt lat="45.54977" lon="6.79552">
        <ele>2323.5</ele>
        <time>2021-03-25T10:16:20Z</time>
      </trkpt>
      <trkpt lat="45.54978" lon="6.79552">
        <ele>2325.3</ele>
        <time>2021-03-25T10:16:21Z</time>
      </trkpt>
      <trkpt lat="45.54979" lon="6.79553">
        <ele>2325.3</ele>
        <time>2021-03-25T10:16:22Z</time>
      </trkpt>
      <trkpt lat="45.5498" lon="6.79553">
        <ele>2323.4</ele>
        <time>2021-03-25T10:16:23Z</time>
      </trkpt>
      <trkpt lat="45.5498" lon="6.79553">
        <ele>2323.4</ele>
        <time>2021-03-25T10:16:27Z</time>
      </trkpt>
      <trkpt lat="45.54981" lon="6.79553">
        <ele>2323.4</ele>
        <time>2021-03-25T10:16:28Z</time>
      </trkpt>
      <trkpt lat="45.54982" lon="6.79554">
        <ele>2323.4</ele>
        <time>2021-03-25T10:16:29Z</time>
      </trkpt>
      <trkpt lat="45.54983" lon="6.79554">
        <ele>2321.6</ele>
        <time>2021-03-25T10:16:30Z</time>
      </trkpt>
      <trkpt lat="45.54984" lon="6.79555">
        <ele>2321.6</ele>
        <time>2021-03-25T10:16:31Z</time>
      </trkpt>
      <trkpt lat="45.54984" lon="6.79555">
        <ele>2321.6</ele>
        <time>2021-03-25T10:16:32Z</time>
      </trkpt>
      <trkpt lat="45.54985" lon="6.79556">
        <ele>2321.6</ele>
        <time>2021-03-25T10:16:33Z</time>
      </trkpt>
      <trkpt lat="45.54985" lon="6.79556">
        <ele>2321.6</ele>
        <time>2021-03-25T10:16:34Z</time>
      </trkpt>
      <trkpt lat="45.54986" lon="6.79557">
        <ele>2321.6</ele>
        <time>2021-03-25T10:16:35Z</time>
      </trkpt>
      <trkpt lat="45.54986" lon="6.79557">
        <ele>2321.6</ele>
        <time>2021-03-25T10:16:36Z</time>
      </trkpt>
      <trkpt lat="45.54986" lon="6.79558">
        <ele>2321.6</ele>
        <time>2021-03-25T10:16:37Z</time>
      </trkpt>
      <trkpt lat="45.54987" lon="6.79558">
        <ele>2321.6</ele>
        <time>2021-03-25T10:16:38Z</time>
      </trkpt>
      <trkpt lat="45.54987" lon="6.79559">
        <ele>2321.6</ele>
        <time>2021-03-25T10:16:39Z</time>
      </trkpt>
      <trkpt lat="45.54988" lon="6.7956">
        <ele>2321.6</ele>
        <time>2021-03-25T10:16:40Z</time>
      </trkpt>
      <trkpt lat="45.54988" lon="6.79561">
        <ele>2323.2</ele>
        <time>2021-03-25T10:16:41Z</time>
      </trkpt>
      <trkpt lat="45.54988" lon="6.79562">
        <ele>2323.2</ele>
        <time>2021-03-25T10:16:42Z</time>
      </trkpt>
      <trkpt lat="45.54988" lon="6.79562">
        <ele>2321.5</ele>
        <time>2021-03-25T10:16:43Z</time>
      </trkpt>
      <trkpt lat="45.54989" lon="6.79563">
        <ele>2321.5</ele>
        <time>2021-03-25T10:16:44Z</time>
      </trkpt>
      <trkpt lat="45.54989" lon="6.79564">
        <ele>2321.5</ele>
        <time>2021-03-25T10:16:45Z</time>
      </trkpt>
      <trkpt lat="45.54989" lon="6.79565">
        <ele>2323</ele>
        <time>2021-03-25T10:16:46Z</time>
      </trkpt>
      <trkpt lat="45.54989" lon="6.79566">
        <ele>2323</ele>
        <time>2021-03-25T10:16:47Z</time>
      </trkpt>
      <trkpt lat="45.5499" lon="6.79567">
        <ele>2323</ele>
        <time>2021-03-25T10:16:48Z</time>
      </trkpt>
      <trkpt lat="45.5499" lon="6.79568">
        <ele>2323</ele>
        <time>2021-03-25T10:16:49Z</time>
      </trkpt>
      <trkpt lat="45.54991" lon="6.79569">
        <ele>2324.5</ele>
        <time>2021-03-25T10:16:50Z</time>
      </trkpt>
      <trkpt lat="45.54991" lon="6.7957">
        <ele>2324.5</ele>
        <time>2021-03-25T10:16:51Z</time>
      </trkpt>
      <trkpt lat="45.54991" lon="6.7957">
        <ele>2322.7</ele>
        <time>2021-03-25T10:16:52Z</time>
      </trkpt>
      <trkpt lat="45.54992" lon="6.79571">
        <ele>2322.7</ele>
        <time>2021-03-25T10:16:53Z</time>
      </trkpt>
      <trkpt lat="45.54992" lon="6.79572">
        <ele>2322.7</ele>
        <time>2021-03-25T10:16:54Z</time>
      </trkpt>
      <trkpt lat="45.54992" lon="6.79572">
        <ele>2322.7</ele>
        <time>2021-03-25T10:16:55Z</time>
      </trkpt>
      <trkpt lat="45.54993" lon="6.79573">
        <ele>2322.7</ele>
        <time>2021-03-25T10:16:56Z</time>
      </trkpt>
      <trkpt lat="45.54993" lon="6.79574">
        <ele>2324.1</ele>
        <time>2021-03-25T10:16:57Z</time>
      </trkpt>
      <trkpt lat="45.54993" lon="6.79575">
        <ele>2324.1</ele>
        <time>2021-03-25T10:16:58Z</time>
      </trkpt>
      <trkpt lat="45.54993" lon="6.79576">
        <ele>2324.1</ele>
        <time>2021-03-25T10:16:59Z</time>
      </trkpt>
      <trkpt lat="45.54993" lon="6.79577">
        <ele>2324.1</ele>
        <time>2021-03-25T10:17:00Z</time>
      </trkpt>
      <trkpt lat="45.54994" lon="6.79577">
        <ele>2324.1</ele>
        <time>2021-03-25T10:17:01Z</time>
      </trkpt>
      <trkpt lat="45.54994" lon="6.79578">
        <ele>2325.4</ele>
        <time>2021-03-25T10:17:02Z</time>
      </trkpt>
      <trkpt lat="45.54994" lon="6.79579">
        <ele>2325.4</ele>
        <time>2021-03-25T10:17:03Z</time>
      </trkpt>
      <trkpt lat="45.54994" lon="6.7958">
        <ele>2325.4</ele>
        <time>2021-03-25T10:17:04Z</time>
      </trkpt>
      <trkpt lat="45.54994" lon="6.79581">
        <ele>2323.5</ele>
        <time>2021-03-25T10:17:05Z</time>
      </trkpt>
      <trkpt lat="45.54995" lon="6.79582">
        <ele>2323.5</ele>
        <time>2021-03-25T10:17:06Z</time>
      </trkpt>
      <trkpt lat="45.54995" lon="6.79582">
        <ele>2324.9</ele>
        <time>2021-03-25T10:17:07Z</time>
      </trkpt>
      <trkpt lat="45.54995" lon="6.79583">
        <ele>2324.9</ele>
        <time>2021-03-25T10:17:08Z</time>
      </trkpt>
      <trkpt lat="45.54996" lon="6.79583">
        <ele>2324.9</ele>
        <time>2021-03-25T10:17:09Z</time>
      </trkpt>
      <trkpt lat="45.54996" lon="6.79584">
        <ele>2324.9</ele>
        <time>2021-03-25T10:17:10Z</time>
      </trkpt>
      <trkpt lat="45.54996" lon="6.79584">
        <ele>2324.9</ele>
        <time>2021-03-25T10:17:11Z</time>
      </trkpt>
      <trkpt lat="45.54997" lon="6.79585">
        <ele>2324.9</ele>
        <time>2021-03-25T10:17:12Z</time>
      </trkpt>
      <trkpt lat="45.54997" lon="6.79586">
        <ele>2324.9</ele>
        <time>2021-03-25T10:17:13Z</time>
      </trkpt>
      <trkpt lat="45.54996" lon="6.79586">
        <ele>2326.3</ele>
        <time>2021-03-25T10:17:14Z</time>
      </trkpt>
      <trkpt lat="45.54996" lon="6.79586">
        <ele>2324.9</ele>
        <time>2021-03-25T10:17:15Z</time>
      </trkpt>
      <trkpt lat="45.54995" lon="6.79586">
        <ele>2324.9</ele>
        <time>2021-03-25T10:17:16Z</time>
      </trkpt>
      <trkpt lat="45.54994" lon="6.79586">
        <ele>2324.9</ele>
        <time>2021-03-25T10:17:17Z</time>
      </trkpt>
      <trkpt lat="45.54994" lon="6.79585">
        <ele>2326.9</ele>
        <time>2021-03-25T10:17:18Z</time>
      </trkpt>
      <trkpt lat="45.54993" lon="6.79585">
        <ele>2326.9</ele>
        <time>2021-03-25T10:17:21Z</time>
      </trkpt>
      <trkpt lat="45.54992" lon="6.79585">
        <ele>2326.9</ele>
        <time>2021-03-25T10:17:22Z</time>
      </trkpt>
      <trkpt lat="45.54992" lon="6.79585">
        <ele>2326.9</ele>
        <time>2021-03-25T10:17:23Z</time>
      </trkpt>
      <trkpt lat="45.54991" lon="6.79585">
        <ele>2328.8</ele>
        <time>2021-03-25T10:17:24Z</time>
      </trkpt>
      <trkpt lat="45.5499" lon="6.79585">
        <ele>2328.8</ele>
        <time>2021-03-25T10:17:25Z</time>
      </trkpt>
      <trkpt lat="45.5499" lon="6.79585">
        <ele>2328.8</ele>
        <time>2021-03-25T10:17:26Z</time>
      </trkpt>
      <trkpt lat="45.54989" lon="6.79585">
        <ele>2328.8</ele>
        <time>2021-03-25T10:17:27Z</time>
      </trkpt>
      <trkpt lat="45.54988" lon="6.79584">
        <ele>2328.8</ele>
        <time>2021-03-25T10:17:28Z</time>
      </trkpt>
      <trkpt lat="45.54988" lon="6.79584">
        <ele>2330.6</ele>
        <time>2021-03-25T10:17:29Z</time>
      </trkpt>
      <trkpt lat="45.54988" lon="6.79584">
        <ele>2330.6</ele>
        <time>2021-03-25T10:17:30Z</time>
      </trkpt>
      <trkpt lat="45.54987" lon="6.79584">
        <ele>2330.6</ele>
        <time>2021-03-25T10:17:31Z</time>
      </trkpt>
      <trkpt lat="45.54987" lon="6.79584">
        <ele>2330.6</ele>
        <time>2021-03-25T10:17:32Z</time>
      </trkpt>
      <trkpt lat="45.54986" lon="6.79583">
        <ele>2330.6</ele>
        <time>2021-03-25T10:17:33Z</time>
      </trkpt>
      <trkpt lat="45.54985" lon="6.79583">
        <ele>2330.6</ele>
        <time>2021-03-25T10:17:34Z</time>
      </trkpt>
      <trkpt lat="45.54985" lon="6.79582">
        <ele>2332.5</ele>
        <time>2021-03-25T10:17:35Z</time>
      </trkpt>
      <trkpt lat="45.54984" lon="6.79582">
        <ele>2332.5</ele>
        <time>2021-03-25T10:17:36Z</time>
      </trkpt>
      <trkpt lat="45.54983" lon="6.79582">
        <ele>2331</ele>
        <time>2021-03-25T10:17:37Z</time>
      </trkpt>
      <trkpt lat="45.54983" lon="6.79581">
        <ele>2331</ele>
        <time>2021-03-25T10:17:38Z</time>
      </trkpt>
      <trkpt lat="45.54982" lon="6.79582">
        <ele>2332.9</ele>
        <time>2021-03-25T10:17:39Z</time>
      </trkpt>
      <trkpt lat="45.54981" lon="6.79582">
        <ele>2334.4</ele>
        <time>2021-03-25T10:17:40Z</time>
      </trkpt>
      <trkpt lat="45.5498" lon="6.79582">
        <ele>2334.4</ele>
        <time>2021-03-25T10:17:41Z</time>
      </trkpt>
      <trkpt lat="45.54979" lon="6.79583">
        <ele>2334.4</ele>
        <time>2021-03-25T10:17:42Z</time>
      </trkpt>
      <trkpt lat="45.54979" lon="6.79583">
        <ele>2336.5</ele>
        <time>2021-03-25T10:17:43Z</time>
      </trkpt>
      <trkpt lat="45.54978" lon="6.79583">
        <ele>2336.5</ele>
        <time>2021-03-25T10:17:44Z</time>
      </trkpt>
      <trkpt lat="45.54978" lon="6.79583">
        <ele>2336.5</ele>
        <time>2021-03-25T10:17:45Z</time>
      </trkpt>
      <trkpt lat="45.54977" lon="6.79582">
        <ele>2336.5</ele>
        <time>2021-03-25T10:17:46Z</time>
      </trkpt>
      <trkpt lat="45.54976" lon="6.79582">
        <ele>2336.5</ele>
        <time>2021-03-25T10:17:47Z</time>
      </trkpt>
      <trkpt lat="45.54976" lon="6.79582">
        <ele>2338.7</ele>
        <time>2021-03-25T10:17:48Z</time>
      </trkpt>
      <trkpt lat="45.54975" lon="6.79581">
        <ele>2337.1</ele>
        <time>2021-03-25T10:17:49Z</time>
      </trkpt>
      <trkpt lat="45.54975" lon="6.79581">
        <ele>2337.1</ele>
        <time>2021-03-25T10:17:50Z</time>
      </trkpt>
      <trkpt lat="45.54974" lon="6.79581">
        <ele>2337.1</ele>
        <time>2021-03-25T10:17:51Z</time>
      </trkpt>
      <trkpt lat="45.54974" lon="6.7958">
        <ele>2337.1</ele>
        <time>2021-03-25T10:17:52Z</time>
      </trkpt>
      <trkpt lat="45.54973" lon="6.7958">
        <ele>2339.2</ele>
        <time>2021-03-25T10:17:53Z</time>
      </trkpt>
      <trkpt lat="45.54972" lon="6.7958">
        <ele>2339.2</ele>
        <time>2021-03-25T10:17:54Z</time>
      </trkpt>
      <trkpt lat="45.54972" lon="6.7958">
        <ele>2339.2</ele>
        <time>2021-03-25T10:17:55Z</time>
      </trkpt>
      <trkpt lat="45.54971" lon="6.79579">
        <ele>2339.2</ele>
        <time>2021-03-25T10:17:56Z</time>
      </trkpt>
      <trkpt lat="45.54971" lon="6.79579">
        <ele>2339.2</ele>
        <time>2021-03-25T10:17:57Z</time>
      </trkpt>
      <trkpt lat="45.5497" lon="6.79579">
        <ele>2341.2</ele>
        <time>2021-03-25T10:17:58Z</time>
      </trkpt>
      <trkpt lat="45.54969" lon="6.79579">
        <ele>2341.2</ele>
        <time>2021-03-25T10:17:59Z</time>
      </trkpt>
      <trkpt lat="45.54969" lon="6.79578">
        <ele>2341.2</ele>
        <time>2021-03-25T10:18:00Z</time>
      </trkpt>
      <trkpt lat="45.54968" lon="6.79578">
        <ele>2341.2</ele>
        <time>2021-03-25T10:18:01Z</time>
      </trkpt>
      <trkpt lat="45.54968" lon="6.79578">
        <ele>2341.2</ele>
        <time>2021-03-25T10:18:02Z</time>
      </trkpt>
      <trkpt lat="45.54967" lon="6.79578">
        <ele>2341.2</ele>
        <time>2021-03-25T10:18:03Z</time>
      </trkpt>
      <trkpt lat="45.54967" lon="6.79578">
        <ele>2343.1</ele>
        <time>2021-03-25T10:18:04Z</time>
      </trkpt>
      <trkpt lat="45.54966" lon="6.79577">
        <ele>2341.5</ele>
        <time>2021-03-25T10:18:05Z</time>
      </trkpt>
      <trkpt lat="45.54965" lon="6.79577">
        <ele>2341.5</ele>
        <time>2021-03-25T10:18:06Z</time>
      </trkpt>
      <trkpt lat="45.54965" lon="6.79576">
        <ele>2341.5</ele>
        <time>2021-03-25T10:18:07Z</time>
      </trkpt>
      <trkpt lat="45.54964" lon="6.79576">
        <ele>2343.4</ele>
        <time>2021-03-25T10:18:08Z</time>
      </trkpt>
      <trkpt lat="45.54963" lon="6.79575">
        <ele>2343.4</ele>
        <time>2021-03-25T10:18:09Z</time>
      </trkpt>
      <trkpt lat="45.54963" lon="6.79575">
        <ele>2343.4</ele>
        <time>2021-03-25T10:18:10Z</time>
      </trkpt>
      <trkpt lat="45.54962" lon="6.79575">
        <ele>2343.4</ele>
        <time>2021-03-25T10:18:11Z</time>
      </trkpt>
      <trkpt lat="45.54962" lon="6.79574">
        <ele>2343.4</ele>
        <time>2021-03-25T10:18:12Z</time>
      </trkpt>
      <trkpt lat="45.54961" lon="6.79574">
        <ele>2343.4</ele>
        <time>2021-03-25T10:18:13Z</time>
      </trkpt>
      <trkpt lat="45.54961" lon="6.79573">
        <ele>2345.2</ele>
        <time>2021-03-25T10:18:14Z</time>
      </trkpt>
      <trkpt lat="45.5496" lon="6.79573">
        <ele>2343.6</ele>
        <time>2021-03-25T10:18:15Z</time>
      </trkpt>
      <trkpt lat="45.54959" lon="6.79572">
        <ele>2343.6</ele>
        <time>2021-03-25T10:18:16Z</time>
      </trkpt>
      <trkpt lat="45.54959" lon="6.79572">
        <ele>2343.6</ele>
        <time>2021-03-25T10:18:17Z</time>
      </trkpt>
      <trkpt lat="45.54958" lon="6.79571">
        <ele>2343.6</ele>
        <time>2021-03-25T10:18:18Z</time>
      </trkpt>
      <trkpt lat="45.54958" lon="6.79571">
        <ele>2345.4</ele>
        <time>2021-03-25T10:18:19Z</time>
      </trkpt>
      <trkpt lat="45.54957" lon="6.7957">
        <ele>2345.4</ele>
        <time>2021-03-25T10:18:20Z</time>
      </trkpt>
      <trkpt lat="45.54956" lon="6.7957">
        <ele>2345.4</ele>
        <time>2021-03-25T10:18:21Z</time>
      </trkpt>
      <trkpt lat="45.54956" lon="6.79569">
        <ele>2345.4</ele>
        <time>2021-03-25T10:18:22Z</time>
      </trkpt>
      <trkpt lat="45.54955" lon="6.79568">
        <ele>2343.7</ele>
        <time>2021-03-25T10:18:23Z</time>
      </trkpt>
      <trkpt lat="45.54955" lon="6.79568">
        <ele>2345.5</ele>
        <time>2021-03-25T10:18:24Z</time>
      </trkpt>
      <trkpt lat="45.54954" lon="6.79567">
        <ele>2345.5</ele>
        <time>2021-03-25T10:18:25Z</time>
      </trkpt>
      <trkpt lat="45.54954" lon="6.79567">
        <ele>2345.5</ele>
        <time>2021-03-25T10:18:26Z</time>
      </trkpt>
      <trkpt lat="45.54953" lon="6.79566">
        <ele>2345.5</ele>
        <time>2021-03-25T10:18:27Z</time>
      </trkpt>
      <trkpt lat="45.54953" lon="6.79566">
        <ele>2345.5</ele>
        <time>2021-03-25T10:18:28Z</time>
      </trkpt>
      <trkpt lat="45.54952" lon="6.79566">
        <ele>2345.5</ele>
        <time>2021-03-25T10:18:29Z</time>
      </trkpt>
      <trkpt lat="45.54953" lon="6.79568">
        <ele>2345.5</ele>
        <time>2021-03-25T10:18:30Z</time>
      </trkpt>
      <trkpt lat="45.54953" lon="6.79569">
        <ele>2345.5</ele>
        <time>2021-03-25T10:18:31Z</time>
      </trkpt>
      <trkpt lat="45.54953" lon="6.7957">
        <ele>2347.2</ele>
        <time>2021-03-25T10:18:32Z</time>
      </trkpt>
      <trkpt lat="45.54953" lon="6.79571">
        <ele>2347.2</ele>
        <time>2021-03-25T10:18:33Z</time>
      </trkpt>
      <trkpt lat="45.54953" lon="6.79572">
        <ele>2347.2</ele>
        <time>2021-03-25T10:18:34Z</time>
      </trkpt>
      <trkpt lat="45.54953" lon="6.79573">
        <ele>2348.9</ele>
        <time>2021-03-25T10:18:35Z</time>
      </trkpt>
      <trkpt lat="45.54953" lon="6.79574">
        <ele>2348.9</ele>
        <time>2021-03-25T10:18:36Z</time>
      </trkpt>
      <trkpt lat="45.54953" lon="6.79575">
        <ele>2348.9</ele>
        <time>2021-03-25T10:18:37Z</time>
      </trkpt>
      <trkpt lat="45.54954" lon="6.79577">
        <ele>2348.9</ele>
        <time>2021-03-25T10:18:38Z</time>
      </trkpt>
      <trkpt lat="45.54954" lon="6.79578">
        <ele>2350.5</ele>
        <time>2021-03-25T10:18:52Z</time>
      </trkpt>
      <trkpt lat="45.54954" lon="6.79579">
        <ele>2350.5</ele>
        <time>2021-03-25T10:18:53Z</time>
      </trkpt>
      <trkpt lat="45.54954" lon="6.7958">
        <ele>2350.5</ele>
        <time>2021-03-25T10:18:54Z</time>
      </trkpt>
      <trkpt lat="45.54954" lon="6.79581">
        <ele>2350.5</ele>
        <time>2021-03-25T10:18:55Z</time>
      </trkpt>
      <trkpt lat="45.54954" lon="6.79582">
        <ele>2352.2</ele>
        <time>2021-03-25T10:18:56Z</time>
      </trkpt>
      <trkpt lat="45.54954" lon="6.79583">
        <ele>2352.2</ele>
        <time>2021-03-25T10:18:57Z</time>
      </trkpt>
      <trkpt lat="45.54954" lon="6.79584">
        <ele>2352.2</ele>
        <time>2021-03-25T10:18:58Z</time>
      </trkpt>
      <trkpt lat="45.54954" lon="6.79585">
        <ele>2352.2</ele>
        <time>2021-03-25T10:18:59Z</time>
      </trkpt>
      <trkpt lat="45.54954" lon="6.79585">
        <ele>2352.2</ele>
        <time>2021-03-25T10:19:00Z</time>
      </trkpt>
      <trkpt lat="45.54953" lon="6.79586">
        <ele>2353.9</ele>
        <time>2021-03-25T10:19:01Z</time>
      </trkpt>
      <trkpt lat="45.54953" lon="6.79587">
        <ele>2353.9</ele>
        <time>2021-03-25T10:19:02Z</time>
      </trkpt>
      <trkpt lat="45.54953" lon="6.79588">
        <ele>2353.9</ele>
        <time>2021-03-25T10:19:03Z</time>
      </trkpt>
      <trkpt lat="45.54953" lon="6.79589">
        <ele>2353.9</ele>
        <time>2021-03-25T10:19:04Z</time>
      </trkpt>
      <trkpt lat="45.54953" lon="6.79589">
        <ele>2353.9</ele>
        <time>2021-03-25T10:19:05Z</time>
      </trkpt>
      <trkpt lat="45.54953" lon="6.7959">
        <ele>2353.9</ele>
        <time>2021-03-25T10:19:06Z</time>
      </trkpt>
      <trkpt lat="45.54954" lon="6.7959">
        <ele>2353.9</ele>
        <time>2021-03-25T10:19:07Z</time>
      </trkpt>
      <trkpt lat="45.54954" lon="6.79591">
        <ele>2355.8</ele>
        <time>2021-03-25T10:19:08Z</time>
      </trkpt>
      <trkpt lat="45.54954" lon="6.79591">
        <ele>2355.8</ele>
        <time>2021-03-25T10:19:09Z</time>
      </trkpt>
      <trkpt lat="45.54954" lon="6.79592">
        <ele>2355.8</ele>
        <time>2021-03-25T10:19:10Z</time>
      </trkpt>
      <trkpt lat="45.54954" lon="6.79592">
        <ele>2355.8</ele>
        <time>2021-03-25T10:19:11Z</time>
      </trkpt>
      <trkpt lat="45.54954" lon="6.79593">
        <ele>2355.8</ele>
        <time>2021-03-25T10:19:12Z</time>
      </trkpt>
      <trkpt lat="45.54954" lon="6.79593">
        <ele>2355.8</ele>
        <time>2021-03-25T10:19:13Z</time>
      </trkpt>
      <trkpt lat="45.54954" lon="6.79594">
        <ele>2355.8</ele>
        <time>2021-03-25T10:19:14Z</time>
      </trkpt>
      <trkpt lat="45.54954" lon="6.79595">
        <ele>2357.6</ele>
        <time>2021-03-25T10:19:15Z</time>
      </trkpt>
      <trkpt lat="45.54954" lon="6.79595">
        <ele>2357.6</ele>
        <time>2021-03-25T10:19:16Z</time>
      </trkpt>
      <trkpt lat="45.54954" lon="6.79596">
        <ele>2357.6</ele>
        <time>2021-03-25T10:19:17Z</time>
      </trkpt>
      <trkpt lat="45.54954" lon="6.79597">
        <ele>2357.6</ele>
        <time>2021-03-25T10:19:18Z</time>
      </trkpt>
      <trkpt lat="45.54955" lon="6.79597">
        <ele>2357.6</ele>
        <time>2021-03-25T10:19:19Z</time>
      </trkpt>
      <trkpt lat="45.54955" lon="6.79598">
        <ele>2357.6</ele>
        <time>2021-03-25T10:19:20Z</time>
      </trkpt>
      <trkpt lat="45.54955" lon="6.79598">
        <ele>2357.6</ele>
        <time>2021-03-25T10:19:21Z</time>
      </trkpt>
      <trkpt lat="45.54955" lon="6.79599">
        <ele>2355.7</ele>
        <time>2021-03-25T10:19:22Z</time>
      </trkpt>
      <trkpt lat="45.54955" lon="6.79599">
        <ele>2357.7</ele>
        <time>2021-03-25T10:19:23Z</time>
      </trkpt>
      <trkpt lat="45.54956" lon="6.796">
        <ele>2357.7</ele>
        <time>2021-03-25T10:19:24Z</time>
      </trkpt>
      <trkpt lat="45.54956" lon="6.796">
        <ele>2357.7</ele>
        <time>2021-03-25T10:19:25Z</time>
      </trkpt>
      <trkpt lat="45.54956" lon="6.79601">
        <ele>2357.7</ele>
        <time>2021-03-25T10:19:26Z</time>
      </trkpt>
      <trkpt lat="45.54957" lon="6.79602">
        <ele>2357.7</ele>
        <time>2021-03-25T10:19:27Z</time>
      </trkpt>
      <trkpt lat="45.54957" lon="6.79602">
        <ele>2357.7</ele>
        <time>2021-03-25T10:19:28Z</time>
      </trkpt>
      <trkpt lat="45.54957" lon="6.79603">
        <ele>2359.6</ele>
        <time>2021-03-25T10:19:29Z</time>
      </trkpt>
      <trkpt lat="45.54958" lon="6.79604">
        <ele>2359.6</ele>
        <time>2021-03-25T10:19:30Z</time>
      </trkpt>
      <trkpt lat="45.54958" lon="6.79605">
        <ele>2359.6</ele>
        <time>2021-03-25T10:19:31Z</time>
      </trkpt>
      <trkpt lat="45.54958" lon="6.79605">
        <ele>2359.6</ele>
        <time>2021-03-25T10:19:36Z</time>
      </trkpt>
      <trkpt lat="45.54958" lon="6.79606">
        <ele>2359.6</ele>
        <time>2021-03-25T10:19:37Z</time>
      </trkpt>
      <trkpt lat="45.54958" lon="6.79607">
        <ele>2357.7</ele>
        <time>2021-03-25T10:19:38Z</time>
      </trkpt>
      <trkpt lat="45.54958" lon="6.79608">
        <ele>2359.7</ele>
        <time>2021-03-25T10:19:39Z</time>
      </trkpt>
      <trkpt lat="45.54958" lon="6.79608">
        <ele>2359.7</ele>
        <time>2021-03-25T10:19:40Z</time>
      </trkpt>
      <trkpt lat="45.54959" lon="6.79609">
        <ele>2359.7</ele>
        <time>2021-03-25T10:19:41Z</time>
      </trkpt>
      <trkpt lat="45.54959" lon="6.7961">
        <ele>2359.7</ele>
        <time>2021-03-25T10:19:42Z</time>
      </trkpt>
      <trkpt lat="45.54959" lon="6.7961">
        <ele>2359.7</ele>
        <time>2021-03-25T10:19:43Z</time>
      </trkpt>
      <trkpt lat="45.54959" lon="6.79611">
        <ele>2359.7</ele>
        <time>2021-03-25T10:19:44Z</time>
      </trkpt>
      <trkpt lat="45.54959" lon="6.79612">
        <ele>2359.7</ele>
        <time>2021-03-25T10:19:45Z</time>
      </trkpt>
      <trkpt lat="45.5496" lon="6.79612">
        <ele>2361.6</ele>
        <time>2021-03-25T10:19:46Z</time>
      </trkpt>
      <trkpt lat="45.5496" lon="6.79613">
        <ele>2361.6</ele>
        <time>2021-03-25T10:19:47Z</time>
      </trkpt>
      <trkpt lat="45.54961" lon="6.79614">
        <ele>2361.6</ele>
        <time>2021-03-25T10:19:48Z</time>
      </trkpt>
      <trkpt lat="45.54961" lon="6.79614">
        <ele>2361.6</ele>
        <time>2021-03-25T10:19:49Z</time>
      </trkpt>
      <trkpt lat="45.54961" lon="6.79615">
        <ele>2359.7</ele>
        <time>2021-03-25T10:19:50Z</time>
      </trkpt>
      <trkpt lat="45.54961" lon="6.79616">
        <ele>2361.6</ele>
        <time>2021-03-25T10:19:51Z</time>
      </trkpt>
      <trkpt lat="45.54962" lon="6.79616">
        <ele>2361.6</ele>
        <time>2021-03-25T10:19:52Z</time>
      </trkpt>
      <trkpt lat="45.54963" lon="6.79617">
        <ele>2361.6</ele>
        <time>2021-03-25T10:19:53Z</time>
      </trkpt>
      <trkpt lat="45.54963" lon="6.79617">
        <ele>2361.6</ele>
        <time>2021-03-25T10:19:54Z</time>
      </trkpt>
      <trkpt lat="45.54965" lon="6.79618">
        <ele>2359.6</ele>
        <time>2021-03-25T10:19:55Z</time>
      </trkpt>
      <trkpt lat="45.54965" lon="6.79618">
        <ele>2359.6</ele>
        <time>2021-03-25T10:19:56Z</time>
      </trkpt>
      <trkpt lat="45.54966" lon="6.79619">
        <ele>2359.6</ele>
        <time>2021-03-25T10:19:57Z</time>
      </trkpt>
      <trkpt lat="45.54967" lon="6.79619">
        <ele>2359.6</ele>
        <time>2021-03-25T10:19:58Z</time>
      </trkpt>
      <trkpt lat="45.54967" lon="6.7962">
        <ele>2357.5</ele>
        <time>2021-03-25T10:19:59Z</time>
      </trkpt>
      <trkpt lat="45.54968" lon="6.7962">
        <ele>2359.2</ele>
        <time>2021-03-25T10:20:00Z</time>
      </trkpt>
      <trkpt lat="45.54969" lon="6.79621">
        <ele>2359.2</ele>
        <time>2021-03-25T10:20:01Z</time>
      </trkpt>
      <trkpt lat="45.54969" lon="6.79622">
        <ele>2359.2</ele>
        <time>2021-03-25T10:20:02Z</time>
      </trkpt>
      <trkpt lat="45.5497" lon="6.79622">
        <ele>2359.2</ele>
        <time>2021-03-25T10:20:03Z</time>
      </trkpt>
      <trkpt lat="45.5497" lon="6.79623">
        <ele>2359.2</ele>
        <time>2021-03-25T10:20:04Z</time>
      </trkpt>
      <trkpt lat="45.5497" lon="6.79624">
        <ele>2357</ele>
        <time>2021-03-25T10:20:05Z</time>
      </trkpt>
      <trkpt lat="45.54971" lon="6.79624">
        <ele>2357</ele>
        <time>2021-03-25T10:20:06Z</time>
      </trkpt>
      <trkpt lat="45.54971" lon="6.79625">
        <ele>2358.8</ele>
        <time>2021-03-25T10:20:07Z</time>
      </trkpt>
      <trkpt lat="45.54971" lon="6.79625">
        <ele>2358.8</ele>
        <time>2021-03-25T10:20:08Z</time>
      </trkpt>
      <trkpt lat="45.54972" lon="6.79626">
        <ele>2358.8</ele>
        <time>2021-03-25T10:20:09Z</time>
      </trkpt>
      <trkpt lat="45.54972" lon="6.79626">
        <ele>2358.8</ele>
        <time>2021-03-25T10:20:10Z</time>
      </trkpt>
      <trkpt lat="45.54972" lon="6.79626">
        <ele>2358.8</ele>
        <time>2021-03-25T10:20:11Z</time>
      </trkpt>
      <trkpt lat="45.54973" lon="6.79626">
        <ele>2358.8</ele>
        <time>2021-03-25T10:20:12Z</time>
      </trkpt>
      <trkpt lat="45.54973" lon="6.79627">
        <ele>2358.8</ele>
        <time>2021-03-25T10:20:13Z</time>
      </trkpt>
      <trkpt lat="45.54973" lon="6.79628">
        <ele>2358.8</ele>
        <time>2021-03-25T10:20:14Z</time>
      </trkpt>
      <trkpt lat="45.54973" lon="6.79628">
        <ele>2358.8</ele>
        <time>2021-03-25T10:20:15Z</time>
      </trkpt>
      <trkpt lat="45.54973" lon="6.79629">
        <ele>2358.8</ele>
        <time>2021-03-25T10:20:16Z</time>
      </trkpt>
      <trkpt lat="45.54973" lon="6.79629">
        <ele>2360.6</ele>
        <time>2021-03-25T10:20:17Z</time>
      </trkpt>
      <trkpt lat="45.54973" lon="6.7963">
        <ele>2360.6</ele>
        <time>2021-03-25T10:20:18Z</time>
      </trkpt>
      <trkpt lat="45.54973" lon="6.7963">
        <ele>2360.6</ele>
        <time>2021-03-25T10:20:19Z</time>
      </trkpt>
      <trkpt lat="45.54972" lon="6.7963">
        <ele>2360.6</ele>
        <time>2021-03-25T10:20:20Z</time>
      </trkpt>
      <trkpt lat="45.54972" lon="6.7963">
        <ele>2360.6</ele>
        <time>2021-03-25T10:20:21Z</time>
      </trkpt>
      <trkpt lat="45.54971" lon="6.7963">
        <ele>2360.6</ele>
        <time>2021-03-25T10:20:22Z</time>
      </trkpt>
      <trkpt lat="45.54971" lon="6.7963">
        <ele>2360.6</ele>
        <time>2021-03-25T10:20:23Z</time>
      </trkpt>
      <trkpt lat="45.5497" lon="6.7963">
        <ele>2360.6</ele>
        <time>2021-03-25T10:20:24Z</time>
      </trkpt>
      <trkpt lat="45.5497" lon="6.79629">
        <ele>2362.8</ele>
        <time>2021-03-25T10:20:25Z</time>
      </trkpt>
      <trkpt lat="45.54969" lon="6.79629">
        <ele>2362.8</ele>
        <time>2021-03-25T10:20:26Z</time>
      </trkpt>
      <trkpt lat="45.54969" lon="6.79629">
        <ele>2362.8</ele>
        <time>2021-03-25T10:20:47Z</time>
      </trkpt>
      <trkpt lat="45.54968" lon="6.79629">
        <ele>2362.8</ele>
        <time>2021-03-25T10:20:48Z</time>
      </trkpt>
      <trkpt lat="45.54968" lon="6.79629">
        <ele>2362.8</ele>
        <time>2021-03-25T10:20:49Z</time>
      </trkpt>
      <trkpt lat="45.54967" lon="6.79629">
        <ele>2361</ele>
        <time>2021-03-25T10:20:50Z</time>
      </trkpt>
      <trkpt lat="45.54967" lon="6.79629">
        <ele>2363.1</ele>
        <time>2021-03-25T10:20:51Z</time>
      </trkpt>
      <trkpt lat="45.54966" lon="6.79629">
        <ele>2363.1</ele>
        <time>2021-03-25T10:20:52Z</time>
      </trkpt>
      <trkpt lat="45.54965" lon="6.79628">
        <ele>2363.1</ele>
        <time>2021-03-25T10:20:53Z</time>
      </trkpt>
      <trkpt lat="45.54965" lon="6.79628">
        <ele>2363.1</ele>
        <time>2021-03-25T10:20:54Z</time>
      </trkpt>
      <trkpt lat="45.54964" lon="6.79628">
        <ele>2363.1</ele>
        <time>2021-03-25T10:20:55Z</time>
      </trkpt>
      <trkpt lat="45.54964" lon="6.79628">
        <ele>2365.2</ele>
        <time>2021-03-25T10:20:56Z</time>
      </trkpt>
      <trkpt lat="45.54963" lon="6.79628">
        <ele>2365.2</ele>
        <time>2021-03-25T10:20:57Z</time>
      </trkpt>
      <trkpt lat="45.54962" lon="6.79629">
        <ele>2365.2</ele>
        <time>2021-03-25T10:20:58Z</time>
      </trkpt>
      <trkpt lat="45.54961" lon="6.79629">
        <ele>2365.2</ele>
        <time>2021-03-25T10:20:59Z</time>
      </trkpt>
      <trkpt lat="45.54961" lon="6.79629">
        <ele>2367.1</ele>
        <time>2021-03-25T10:21:00Z</time>
      </trkpt>
      <trkpt lat="45.5496" lon="6.79629">
        <ele>2367.1</ele>
        <time>2021-03-25T10:21:01Z</time>
      </trkpt>
      <trkpt lat="45.5496" lon="6.79629">
        <ele>2367.1</ele>
        <time>2021-03-25T10:21:02Z</time>
      </trkpt>
      <trkpt lat="45.54959" lon="6.79628">
        <ele>2367.1</ele>
        <time>2021-03-25T10:21:03Z</time>
      </trkpt>
      <trkpt lat="45.54959" lon="6.79628">
        <ele>2367.1</ele>
        <time>2021-03-25T10:21:04Z</time>
      </trkpt>
      <trkpt lat="45.54958" lon="6.79628">
        <ele>2367.1</ele>
        <time>2021-03-25T10:21:05Z</time>
      </trkpt>
      <trkpt lat="45.54958" lon="6.79628">
        <ele>2369.1</ele>
        <time>2021-03-25T10:21:06Z</time>
      </trkpt>
      <trkpt lat="45.54957" lon="6.79628">
        <ele>2369.1</ele>
        <time>2021-03-25T10:21:07Z</time>
      </trkpt>
      <trkpt lat="45.54957" lon="6.79628">
        <ele>2369.1</ele>
        <time>2021-03-25T10:21:08Z</time>
      </trkpt>
      <trkpt lat="45.54956" lon="6.79628">
        <ele>2369.1</ele>
        <time>2021-03-25T10:21:09Z</time>
      </trkpt>
      <trkpt lat="45.54956" lon="6.79628">
        <ele>2369.1</ele>
        <time>2021-03-25T10:21:10Z</time>
      </trkpt>
      <trkpt lat="45.54955" lon="6.79628">
        <ele>2369.1</ele>
        <time>2021-03-25T10:21:11Z</time>
      </trkpt>
      <trkpt lat="45.54955" lon="6.79628">
        <ele>2371.1</ele>
        <time>2021-03-25T10:21:12Z</time>
      </trkpt>
      <trkpt lat="45.54954" lon="6.79627">
        <ele>2371.1</ele>
        <time>2021-03-25T10:21:13Z</time>
      </trkpt>
      <trkpt lat="45.54954" lon="6.79627">
        <ele>2371.1</ele>
        <time>2021-03-25T10:21:14Z</time>
      </trkpt>
      <trkpt lat="45.54954" lon="6.79627">
        <ele>2371.1</ele>
        <time>2021-03-25T10:21:15Z</time>
      </trkpt>
      <trkpt lat="45.54953" lon="6.79627">
        <ele>2371.1</ele>
        <time>2021-03-25T10:21:16Z</time>
      </trkpt>
      <trkpt lat="45.54953" lon="6.79628">
        <ele>2371.1</ele>
        <time>2021-03-25T10:21:17Z</time>
      </trkpt>
      <trkpt lat="45.54952" lon="6.79628">
        <ele>2373</ele>
        <time>2021-03-25T10:21:18Z</time>
      </trkpt>
      <trkpt lat="45.54951" lon="6.79628">
        <ele>2373</ele>
        <time>2021-03-25T10:21:19Z</time>
      </trkpt>
      <trkpt lat="45.54951" lon="6.79628">
        <ele>2373</ele>
        <time>2021-03-25T10:21:20Z</time>
      </trkpt>
      <trkpt lat="45.5495" lon="6.79628">
        <ele>2373</ele>
        <time>2021-03-25T10:21:21Z</time>
      </trkpt>
      <trkpt lat="45.54949" lon="6.79628">
        <ele>2373</ele>
        <time>2021-03-25T10:21:22Z</time>
      </trkpt>
      <trkpt lat="45.54949" lon="6.79628">
        <ele>2375</ele>
        <time>2021-03-25T10:21:23Z</time>
      </trkpt>
      <trkpt lat="45.54948" lon="6.79628">
        <ele>2375</ele>
        <time>2021-03-25T10:21:24Z</time>
      </trkpt>
      <trkpt lat="45.54947" lon="6.79627">
        <ele>2375</ele>
        <time>2021-03-25T10:21:25Z</time>
      </trkpt>
      <trkpt lat="45.54947" lon="6.79627">
        <ele>2375.1</ele>
        <time>2021-03-25T10:21:26Z</time>
      </trkpt>
      <trkpt lat="45.54946" lon="6.79627">
        <ele>2377.1</ele>
        <time>2021-03-25T10:21:27Z</time>
      </trkpt>
      <trkpt lat="45.54945" lon="6.79627">
        <ele>2377.1</ele>
        <time>2021-03-25T10:21:28Z</time>
      </trkpt>
      <trkpt lat="45.54945" lon="6.79626">
        <ele>2377.1</ele>
        <time>2021-03-25T10:21:29Z</time>
      </trkpt>
      <trkpt lat="45.54944" lon="6.79626">
        <ele>2377.1</ele>
        <time>2021-03-25T10:21:30Z</time>
      </trkpt>
      <trkpt lat="45.54944" lon="6.79626">
        <ele>2377.1</ele>
        <time>2021-03-25T10:21:31Z</time>
      </trkpt>
      <trkpt lat="45.54943" lon="6.79625">
        <ele>2379.1</ele>
        <time>2021-03-25T10:21:32Z</time>
      </trkpt>
      <trkpt lat="45.54942" lon="6.79625">
        <ele>2377.3</ele>
        <time>2021-03-25T10:21:33Z</time>
      </trkpt>
      <trkpt lat="45.54942" lon="6.79624">
        <ele>2377.3</ele>
        <time>2021-03-25T10:21:34Z</time>
      </trkpt>
      <trkpt lat="45.54941" lon="6.79623">
        <ele>2377.3</ele>
        <time>2021-03-25T10:21:35Z</time>
      </trkpt>
      <trkpt lat="45.5494" lon="6.79623">
        <ele>2377.3</ele>
        <time>2021-03-25T10:21:36Z</time>
      </trkpt>
      <trkpt lat="45.5494" lon="6.79622">
        <ele>2379.2</ele>
        <time>2021-03-25T10:21:37Z</time>
      </trkpt>
      <trkpt lat="45.54939" lon="6.79621">
        <ele>2379.2</ele>
        <time>2021-03-25T10:21:38Z</time>
      </trkpt>
      <trkpt lat="45.54939" lon="6.79621">
        <ele>2379.2</ele>
        <time>2021-03-25T10:21:39Z</time>
      </trkpt>
      <trkpt lat="45.54938" lon="6.7962">
        <ele>2377.4</ele>
        <time>2021-03-25T10:21:40Z</time>
      </trkpt>
      <trkpt lat="45.54938" lon="6.7962">
        <ele>2377.4</ele>
        <time>2021-03-25T10:21:41Z</time>
      </trkpt>
      <trkpt lat="45.54937" lon="6.79619">
        <ele>2379.2</ele>
        <time>2021-03-25T10:21:42Z</time>
      </trkpt>
      <trkpt lat="45.54936" lon="6.79619">
        <ele>2379.2</ele>
        <time>2021-03-25T10:21:43Z</time>
      </trkpt>
      <trkpt lat="45.54936" lon="6.79618">
        <ele>2379.2</ele>
        <time>2021-03-25T10:21:44Z</time>
      </trkpt>
      <trkpt lat="45.54935" lon="6.79618">
        <ele>2379.2</ele>
        <time>2021-03-25T10:21:45Z</time>
      </trkpt>
      <trkpt lat="45.54934" lon="6.79617">
        <ele>2379.2</ele>
        <time>2021-03-25T10:21:46Z</time>
      </trkpt>
      <trkpt lat="45.54934" lon="6.79617">
        <ele>2380.9</ele>
        <time>2021-03-25T10:21:47Z</time>
      </trkpt>
      <trkpt lat="45.54933" lon="6.79617">
        <ele>2380.9</ele>
        <time>2021-03-25T10:21:48Z</time>
      </trkpt>
      <trkpt lat="45.54933" lon="6.79616">
        <ele>2380.9</ele>
        <time>2021-03-25T10:21:49Z</time>
      </trkpt>
      <trkpt lat="45.54932" lon="6.79616">
        <ele>2380.9</ele>
        <time>2021-03-25T10:21:50Z</time>
      </trkpt>
      <trkpt lat="45.54931" lon="6.79616">
        <ele>2378.9</ele>
        <time>2021-03-25T10:21:51Z</time>
      </trkpt>
      <trkpt lat="45.54931" lon="6.79616">
        <ele>2380.4</ele>
        <time>2021-03-25T10:21:52Z</time>
      </trkpt>
      <trkpt lat="45.5493" lon="6.79615">
        <ele>2380.4</ele>
        <time>2021-03-25T10:21:53Z</time>
      </trkpt>
      <trkpt lat="45.54929" lon="6.79615">
        <ele>2380.4</ele>
        <time>2021-03-25T10:21:54Z</time>
      </trkpt>
      <trkpt lat="45.54929" lon="6.79615">
        <ele>2380.5</ele>
        <time>2021-03-25T10:21:55Z</time>
      </trkpt>
      <trkpt lat="45.54928" lon="6.79615">
        <ele>2380.5</ele>
        <time>2021-03-25T10:21:56Z</time>
      </trkpt>
      <trkpt lat="45.54928" lon="6.79614">
        <ele>2381.9</ele>
        <time>2021-03-25T10:21:57Z</time>
      </trkpt>
      <trkpt lat="45.54927" lon="6.79614">
        <ele>2381.9</ele>
        <time>2021-03-25T10:21:58Z</time>
      </trkpt>
      <trkpt lat="45.54926" lon="6.79614">
        <ele>2381.9</ele>
        <time>2021-03-25T10:21:59Z</time>
      </trkpt>
      <trkpt lat="45.54926" lon="6.79614">
        <ele>2381.9</ele>
        <time>2021-03-25T10:22:00Z</time>
      </trkpt>
      <trkpt lat="45.54926" lon="6.79615">
        <ele>2381.9</ele>
        <time>2021-03-25T10:22:01Z</time>
      </trkpt>
      <trkpt lat="45.54926" lon="6.79615">
        <ele>2382</ele>
        <time>2021-03-25T10:22:02Z</time>
      </trkpt>
      <trkpt lat="45.54926" lon="6.79615">
        <ele>2382</ele>
        <time>2021-03-25T10:22:03Z</time>
      </trkpt>
      <trkpt lat="45.54926" lon="6.79616">
        <ele>2382</ele>
        <time>2021-03-25T10:22:04Z</time>
      </trkpt>
      <trkpt lat="45.54926" lon="6.79616">
        <ele>2384.1</ele>
        <time>2021-03-25T10:22:05Z</time>
      </trkpt>
      <trkpt lat="45.54926" lon="6.79617">
        <ele>2384.1</ele>
        <time>2021-03-25T10:22:06Z</time>
      </trkpt>
      <trkpt lat="45.54926" lon="6.79617">
        <ele>2384.1</ele>
        <time>2021-03-25T10:22:07Z</time>
      </trkpt>
      <trkpt lat="45.54926" lon="6.79618">
        <ele>2384.1</ele>
        <time>2021-03-25T10:22:08Z</time>
      </trkpt>
      <trkpt lat="45.54926" lon="6.79618">
        <ele>2384.2</ele>
        <time>2021-03-25T10:22:09Z</time>
      </trkpt>
      <trkpt lat="45.54926" lon="6.79619">
        <ele>2384.2</ele>
        <time>2021-03-25T10:22:10Z</time>
      </trkpt>
      <trkpt lat="45.54926" lon="6.79619">
        <ele>2384.2</ele>
        <time>2021-03-25T10:22:11Z</time>
      </trkpt>
      <trkpt lat="45.54926" lon="6.7962">
        <ele>2384.2</ele>
        <time>2021-03-25T10:22:12Z</time>
      </trkpt>
      <trkpt lat="45.54926" lon="6.7962">
        <ele>2386.2</ele>
        <time>2021-03-25T10:22:27Z</time>
      </trkpt>
      <trkpt lat="45.54926" lon="6.79621">
        <ele>2386.2</ele>
        <time>2021-03-25T10:22:28Z</time>
      </trkpt>
      <trkpt lat="45.54926" lon="6.79621">
        <ele>2386.2</ele>
        <time>2021-03-25T10:22:29Z</time>
      </trkpt>
      <trkpt lat="45.54926" lon="6.79622">
        <ele>2386.2</ele>
        <time>2021-03-25T10:22:30Z</time>
      </trkpt>
      <trkpt lat="45.54927" lon="6.79622">
        <ele>2386.2</ele>
        <time>2021-03-25T10:22:31Z</time>
      </trkpt>
      <trkpt lat="45.54927" lon="6.79623">
        <ele>2386.2</ele>
        <time>2021-03-25T10:22:32Z</time>
      </trkpt>
      <trkpt lat="45.54927" lon="6.79623">
        <ele>2386.3</ele>
        <time>2021-03-25T10:22:33Z</time>
      </trkpt>
      <trkpt lat="45.54928" lon="6.79624">
        <ele>2386.3</ele>
        <time>2021-03-25T10:22:34Z</time>
      </trkpt>
      <trkpt lat="45.54928" lon="6.79624">
        <ele>2386.3</ele>
        <time>2021-03-25T10:22:35Z</time>
      </trkpt>
      <trkpt lat="45.54928" lon="6.79624">
        <ele>2384.8</ele>
        <time>2021-03-25T10:22:36Z</time>
      </trkpt>
      <trkpt lat="45.54929" lon="6.79625">
        <ele>2386.9</ele>
        <time>2021-03-25T10:22:37Z</time>
      </trkpt>
      <trkpt lat="45.54929" lon="6.79626">
        <ele>2386.9</ele>
        <time>2021-03-25T10:22:38Z</time>
      </trkpt>
      <trkpt lat="45.54929" lon="6.79626">
        <ele>2386.9</ele>
        <time>2021-03-25T10:22:39Z</time>
      </trkpt>
      <trkpt lat="45.54929" lon="6.79627">
        <ele>2386.9</ele>
        <time>2021-03-25T10:22:40Z</time>
      </trkpt>
      <trkpt lat="45.5493" lon="6.79628">
        <ele>2386.9</ele>
        <time>2021-03-25T10:22:41Z</time>
      </trkpt>
      <trkpt lat="45.5493" lon="6.79628">
        <ele>2386.9</ele>
        <time>2021-03-25T10:22:42Z</time>
      </trkpt>
      <trkpt lat="45.5493" lon="6.79629">
        <ele>2389</ele>
        <time>2021-03-25T10:22:43Z</time>
      </trkpt>
      <trkpt lat="45.54931" lon="6.7963">
        <ele>2389.1</ele>
        <time>2021-03-25T10:22:44Z</time>
      </trkpt>
      <trkpt lat="45.54931" lon="6.7963">
        <ele>2387.5</ele>
        <time>2021-03-25T10:22:45Z</time>
      </trkpt>
      <trkpt lat="45.54932" lon="6.7963">
        <ele>2387.5</ele>
        <time>2021-03-25T10:22:46Z</time>
      </trkpt>
      <trkpt lat="45.54932" lon="6.79631">
        <ele>2387.5</ele>
        <time>2021-03-25T10:22:47Z</time>
      </trkpt>
      <trkpt lat="45.54933" lon="6.79631">
        <ele>2387.5</ele>
        <time>2021-03-25T10:22:48Z</time>
      </trkpt>
      <trkpt lat="45.54933" lon="6.79632">
        <ele>2387.5</ele>
        <time>2021-03-25T10:22:49Z</time>
      </trkpt>
      <trkpt lat="45.54934" lon="6.79632">
        <ele>2385.8</ele>
        <time>2021-03-25T10:22:50Z</time>
      </trkpt>
      <trkpt lat="45.54935" lon="6.79632">
        <ele>2385.9</ele>
        <time>2021-03-25T10:22:51Z</time>
      </trkpt>
      <trkpt lat="45.54935" lon="6.79633">
        <ele>2385.9</ele>
        <time>2021-03-25T10:22:52Z</time>
      </trkpt>
      <trkpt lat="45.54936" lon="6.79633">
        <ele>2385.9</ele>
        <time>2021-03-25T10:22:53Z</time>
      </trkpt>
      <trkpt lat="45.54936" lon="6.79634">
        <ele>2388.1</ele>
        <time>2021-03-25T10:22:54Z</time>
      </trkpt>
      <trkpt lat="45.54937" lon="6.79634">
        <ele>2388.1</ele>
        <time>2021-03-25T10:22:55Z</time>
      </trkpt>
      <trkpt lat="45.54937" lon="6.79635">
        <ele>2386.2</ele>
        <time>2021-03-25T10:22:56Z</time>
      </trkpt>
      <trkpt lat="45.54938" lon="6.79635">
        <ele>2386.2</ele>
        <time>2021-03-25T10:22:57Z</time>
      </trkpt>
      <trkpt lat="45.54938" lon="6.79636">
        <ele>2386.2</ele>
        <time>2021-03-25T10:22:58Z</time>
      </trkpt>
      <trkpt lat="45.54939" lon="6.79637">
        <ele>2386.3</ele>
        <time>2021-03-25T10:22:59Z</time>
      </trkpt>
      <trkpt lat="45.54939" lon="6.79638">
        <ele>2388.5</ele>
        <time>2021-03-25T10:23:00Z</time>
      </trkpt>
      <trkpt lat="45.54939" lon="6.79639">
        <ele>2388.5</ele>
        <time>2021-03-25T10:23:01Z</time>
      </trkpt>
      <trkpt lat="45.5494" lon="6.79639">
        <ele>2388.5</ele>
        <time>2021-03-25T10:23:02Z</time>
      </trkpt>
      <trkpt lat="45.5494" lon="6.7964">
        <ele>2386.5</ele>
        <time>2021-03-25T10:23:03Z</time>
      </trkpt>
      <trkpt lat="45.54941" lon="6.7964">
        <ele>2386.5</ele>
        <time>2021-03-25T10:23:04Z</time>
      </trkpt>
      <trkpt lat="45.54941" lon="6.79641">
        <ele>2386.5</ele>
        <time>2021-03-25T10:23:05Z</time>
      </trkpt>
      <trkpt lat="45.54942" lon="6.79642">
        <ele>2386.6</ele>
        <time>2021-03-25T10:23:06Z</time>
      </trkpt>
      <trkpt lat="45.54942" lon="6.79642">
        <ele>2388.8</ele>
        <time>2021-03-25T10:23:07Z</time>
      </trkpt>
      <trkpt lat="45.54943" lon="6.79643">
        <ele>2386.7</ele>
        <time>2021-03-25T10:23:08Z</time>
      </trkpt>
      <trkpt lat="45.54943" lon="6.79644">
        <ele>2386.7</ele>
        <time>2021-03-25T10:23:09Z</time>
      </trkpt>
      <trkpt lat="45.54944" lon="6.79645">
        <ele>2386.7</ele>
        <time>2021-03-25T10:23:10Z</time>
      </trkpt>
      <trkpt lat="45.54944" lon="6.79645">
        <ele>2386.7</ele>
        <time>2021-03-25T10:23:11Z</time>
      </trkpt>
      <trkpt lat="45.54944" lon="6.79646">
        <ele>2388.9</ele>
        <time>2021-03-25T10:23:12Z</time>
      </trkpt>
      <trkpt lat="45.54945" lon="6.79647">
        <ele>2389</ele>
        <time>2021-03-25T10:23:13Z</time>
      </trkpt>
      <trkpt lat="45.54945" lon="6.79648">
        <ele>2389</ele>
        <time>2021-03-25T10:23:14Z</time>
      </trkpt>
      <trkpt lat="45.54945" lon="6.79649">
        <ele>2389</ele>
        <time>2021-03-25T10:23:15Z</time>
      </trkpt>
      <trkpt lat="45.54945" lon="6.7965">
        <ele>2389</ele>
        <time>2021-03-25T10:23:16Z</time>
      </trkpt>
      <trkpt lat="45.54945" lon="6.79651">
        <ele>2391.2</ele>
        <time>2021-03-25T10:23:17Z</time>
      </trkpt>
      <trkpt lat="45.54946" lon="6.79652">
        <ele>2391.2</ele>
        <time>2021-03-25T10:23:18Z</time>
      </trkpt>
      <trkpt lat="45.54946" lon="6.79653">
        <ele>2391.2</ele>
        <time>2021-03-25T10:23:19Z</time>
      </trkpt>
      <trkpt lat="45.54946" lon="6.79654">
        <ele>2389</ele>
        <time>2021-03-25T10:23:20Z</time>
      </trkpt>
      <trkpt lat="45.54947" lon="6.79655">
        <ele>2391</ele>
        <time>2021-03-25T10:23:21Z</time>
      </trkpt>
      <trkpt lat="45.54947" lon="6.79655">
        <ele>2391</ele>
        <time>2021-03-25T10:23:22Z</time>
      </trkpt>
      <trkpt lat="45.54947" lon="6.79656">
        <ele>2391</ele>
        <time>2021-03-25T10:23:23Z</time>
      </trkpt>
      <trkpt lat="45.54947" lon="6.79657">
        <ele>2391</ele>
        <time>2021-03-25T10:23:24Z</time>
      </trkpt>
      <trkpt lat="45.54947" lon="6.79657">
        <ele>2391</ele>
        <time>2021-03-25T10:23:25Z</time>
      </trkpt>
      <trkpt lat="45.54946" lon="6.79657">
        <ele>2391</ele>
        <time>2021-03-25T10:23:26Z</time>
      </trkpt>
      <trkpt lat="45.54945" lon="6.79657">
        <ele>2393.2</ele>
        <time>2021-03-25T10:23:27Z</time>
      </trkpt>
      <trkpt lat="45.54945" lon="6.79657">
        <ele>2393.2</ele>
        <time>2021-03-25T10:23:28Z</time>
      </trkpt>
      <trkpt lat="45.54944" lon="6.79657">
        <ele>2393.2</ele>
        <time>2021-03-25T10:23:29Z</time>
      </trkpt>
      <trkpt lat="45.54944" lon="6.79657">
        <ele>2393.2</ele>
        <time>2021-03-25T10:23:30Z</time>
      </trkpt>
      <trkpt lat="45.54943" lon="6.79657">
        <ele>2393.2</ele>
        <time>2021-03-25T10:23:31Z</time>
      </trkpt>
      <trkpt lat="45.54943" lon="6.79657">
        <ele>2395.4</ele>
        <time>2021-03-25T10:23:32Z</time>
      </trkpt>
      <trkpt lat="45.54942" lon="6.79657">
        <ele>2395.4</ele>
        <time>2021-03-25T10:23:33Z</time>
      </trkpt>
      <trkpt lat="45.54941" lon="6.79657">
        <ele>2395.4</ele>
        <time>2021-03-25T10:23:34Z</time>
      </trkpt>
      <trkpt lat="45.54941" lon="6.79656">
        <ele>2395.4</ele>
        <time>2021-03-25T10:23:59Z</time>
      </trkpt>
      <trkpt lat="45.5494" lon="6.79656">
        <ele>2395.4</ele>
        <time>2021-03-25T10:24:00Z</time>
      </trkpt>
      <trkpt lat="45.5494" lon="6.79656">
        <ele>2397.6</ele>
        <time>2021-03-25T10:24:01Z</time>
      </trkpt>
      <trkpt lat="45.54939" lon="6.79656">
        <ele>2397.6</ele>
        <time>2021-03-25T10:24:02Z</time>
      </trkpt>
      <trkpt lat="45.54938" lon="6.79656">
        <ele>2397.6</ele>
        <time>2021-03-25T10:24:03Z</time>
      </trkpt>
      <trkpt lat="45.54938" lon="6.79656">
        <ele>2397.6</ele>
        <time>2021-03-25T10:24:04Z</time>
      </trkpt>
      <trkpt lat="45.54937" lon="6.79656">
        <ele>2397.6</ele>
        <time>2021-03-25T10:24:05Z</time>
      </trkpt>
      <trkpt lat="45.54937" lon="6.79656">
        <ele>2397.6</ele>
        <time>2021-03-25T10:24:06Z</time>
      </trkpt>
      <trkpt lat="45.54937" lon="6.79655">
        <ele>2399.7</ele>
        <time>2021-03-25T10:24:07Z</time>
      </trkpt>
      <trkpt lat="45.54936" lon="6.79655">
        <ele>2399.7</ele>
        <time>2021-03-25T10:24:08Z</time>
      </trkpt>
      <trkpt lat="45.54936" lon="6.79655">
        <ele>2399.7</ele>
        <time>2021-03-25T10:24:09Z</time>
      </trkpt>
      <trkpt lat="45.54935" lon="6.79655">
        <ele>2399.7</ele>
        <time>2021-03-25T10:24:10Z</time>
      </trkpt>
      <trkpt lat="45.54935" lon="6.79654">
        <ele>2397.5</ele>
        <time>2021-03-25T10:24:11Z</time>
      </trkpt>
      <trkpt lat="45.54935" lon="6.79654">
        <ele>2397.5</ele>
        <time>2021-03-25T10:24:12Z</time>
      </trkpt>
      <trkpt lat="45.54934" lon="6.79654">
        <ele>2397.5</ele>
        <time>2021-03-25T10:24:13Z</time>
      </trkpt>
      <trkpt lat="45.54934" lon="6.79654">
        <ele>2399.4</ele>
        <time>2021-03-25T10:24:14Z</time>
      </trkpt>
      <trkpt lat="45.54933" lon="6.79654">
        <ele>2399.4</ele>
        <time>2021-03-25T10:24:15Z</time>
      </trkpt>
      <trkpt lat="45.54933" lon="6.79654">
        <ele>2399.4</ele>
        <time>2021-03-25T10:24:16Z</time>
      </trkpt>
      <trkpt lat="45.54932" lon="6.79654">
        <ele>2399.4</ele>
        <time>2021-03-25T10:24:17Z</time>
      </trkpt>
      <trkpt lat="45.54932" lon="6.79654">
        <ele>2399.4</ele>
        <time>2021-03-25T10:24:18Z</time>
      </trkpt>
      <trkpt lat="45.54931" lon="6.79654">
        <ele>2399.4</ele>
        <time>2021-03-25T10:24:19Z</time>
      </trkpt>
      <trkpt lat="45.54931" lon="6.79654">
        <ele>2401.1</ele>
        <time>2021-03-25T10:24:20Z</time>
      </trkpt>
      <trkpt lat="45.5493" lon="6.79654">
        <ele>2401.1</ele>
        <time>2021-03-25T10:24:21Z</time>
      </trkpt>
      <trkpt lat="45.54929" lon="6.79654">
        <ele>2401.1</ele>
        <time>2021-03-25T10:24:22Z</time>
      </trkpt>
      <trkpt lat="45.54928" lon="6.79653">
        <ele>2401.1</ele>
        <time>2021-03-25T10:24:23Z</time>
      </trkpt>
      <trkpt lat="45.54928" lon="6.79653">
        <ele>2402.8</ele>
        <time>2021-03-25T10:24:24Z</time>
      </trkpt>
      <trkpt lat="45.54927" lon="6.79652">
        <ele>2402.8</ele>
        <time>2021-03-25T10:24:25Z</time>
      </trkpt>
      <trkpt lat="45.54926" lon="6.79652">
        <ele>2402.8</ele>
        <time>2021-03-25T10:24:26Z</time>
      </trkpt>
      <trkpt lat="45.54926" lon="6.79651">
        <ele>2402.8</ele>
        <time>2021-03-25T10:24:27Z</time>
      </trkpt>
      <trkpt lat="45.54925" lon="6.79651">
        <ele>2402.8</ele>
        <time>2021-03-25T10:24:28Z</time>
      </trkpt>
      <trkpt lat="45.54924" lon="6.79651">
        <ele>2404.4</ele>
        <time>2021-03-25T10:24:29Z</time>
      </trkpt>
      <trkpt lat="45.54924" lon="6.7965">
        <ele>2402</ele>
        <time>2021-03-25T10:24:30Z</time>
      </trkpt>
      <trkpt lat="45.54923" lon="6.7965">
        <ele>2402</ele>
        <time>2021-03-25T10:24:31Z</time>
      </trkpt>
      <trkpt lat="45.54922" lon="6.79649">
        <ele>2402</ele>
        <time>2021-03-25T10:24:32Z</time>
      </trkpt>
      <trkpt lat="45.54922" lon="6.79649">
        <ele>2403.8</ele>
        <time>2021-03-25T10:24:33Z</time>
      </trkpt>
      <trkpt lat="45.54921" lon="6.79649">
        <ele>2403.8</ele>
        <time>2021-03-25T10:24:34Z</time>
      </trkpt>
      <trkpt lat="45.5492" lon="6.79648">
        <ele>2403.8</ele>
        <time>2021-03-25T10:24:53Z</time>
      </trkpt>
      <trkpt lat="45.5492" lon="6.79648">
        <ele>2403.8</ele>
        <time>2021-03-25T10:24:54Z</time>
      </trkpt>
      <trkpt lat="45.54919" lon="6.79647">
        <ele>2403.8</ele>
        <time>2021-03-25T10:24:55Z</time>
      </trkpt>
      <trkpt lat="45.54918" lon="6.79647">
        <ele>2405.6</ele>
        <time>2021-03-25T10:24:56Z</time>
      </trkpt>
      <trkpt lat="45.54918" lon="6.79646">
        <ele>2405.6</ele>
        <time>2021-03-25T10:24:57Z</time>
      </trkpt>
      <trkpt lat="45.54917" lon="6.79646">
        <ele>2403.1</ele>
        <time>2021-03-25T10:24:58Z</time>
      </trkpt>
      <trkpt lat="45.54916" lon="6.79646">
        <ele>2403.1</ele>
        <time>2021-03-25T10:24:59Z</time>
      </trkpt>
      <trkpt lat="45.54916" lon="6.79646">
        <ele>2405</ele>
        <time>2021-03-25T10:25:00Z</time>
      </trkpt>
      <trkpt lat="45.54915" lon="6.79646">
        <ele>2405</ele>
        <time>2021-03-25T10:25:01Z</time>
      </trkpt>
      <trkpt lat="45.54915" lon="6.79646">
        <ele>2405</ele>
        <time>2021-03-25T10:25:02Z</time>
      </trkpt>
      <trkpt lat="45.54914" lon="6.79645">
        <ele>2405</ele>
        <time>2021-03-25T10:25:03Z</time>
      </trkpt>
      <trkpt lat="45.54914" lon="6.79645">
        <ele>2405</ele>
        <time>2021-03-25T10:25:04Z</time>
      </trkpt>
      <trkpt lat="45.54914" lon="6.79645">
        <ele>2405</ele>
        <time>2021-03-25T10:25:05Z</time>
      </trkpt>
      <trkpt lat="45.54913" lon="6.79645">
        <ele>2405</ele>
        <time>2021-03-25T10:25:06Z</time>
      </trkpt>
      <trkpt lat="45.54913" lon="6.79645">
        <ele>2406.7</ele>
        <time>2021-03-25T10:25:07Z</time>
      </trkpt>
      <trkpt lat="45.54913" lon="6.79645">
        <ele>2406.7</ele>
        <time>2021-03-25T10:25:08Z</time>
      </trkpt>
      <trkpt lat="45.54912" lon="6.79645">
        <ele>2406.7</ele>
        <time>2021-03-25T10:25:27Z</time>
      </trkpt>
      <trkpt lat="45.54912" lon="6.79645">
        <ele>2406.7</ele>
        <time>2021-03-25T10:25:28Z</time>
      </trkpt>
      <trkpt lat="45.54911" lon="6.79645">
        <ele>2406.7</ele>
        <time>2021-03-25T10:25:29Z</time>
      </trkpt>
      <trkpt lat="45.54911" lon="6.79645">
        <ele>2406.7</ele>
        <time>2021-03-25T10:25:30Z</time>
      </trkpt>
      <trkpt lat="45.54911" lon="6.79645">
        <ele>2406.7</ele>
        <time>2021-03-25T10:25:31Z</time>
      </trkpt>
      <trkpt lat="45.5491" lon="6.79644">
        <ele>2406.7</ele>
        <time>2021-03-25T10:25:32Z</time>
      </trkpt>
      <trkpt lat="45.5491" lon="6.79644">
        <ele>2408.3</ele>
        <time>2021-03-25T10:25:33Z</time>
      </trkpt>
      <trkpt lat="45.54909" lon="6.79644">
        <ele>2408.3</ele>
        <time>2021-03-25T10:25:34Z</time>
      </trkpt>
      <trkpt lat="45.54909" lon="6.79644">
        <ele>2408.3</ele>
        <time>2021-03-25T10:25:35Z</time>
      </trkpt>
      <trkpt lat="45.54909" lon="6.79644">
        <ele>2408.3</ele>
        <time>2021-03-25T10:25:36Z</time>
      </trkpt>
      <trkpt lat="45.54908" lon="6.79644">
        <ele>2408.3</ele>
        <time>2021-03-25T10:25:45Z</time>
      </trkpt>
      <trkpt lat="45.54908" lon="6.79644">
        <ele>2408.3</ele>
        <time>2021-03-25T10:25:46Z</time>
      </trkpt>
      <trkpt lat="45.54907" lon="6.79644">
        <ele>2408.3</ele>
        <time>2021-03-25T10:25:47Z</time>
      </trkpt>
      <trkpt lat="45.54907" lon="6.79644">
        <ele>2408.3</ele>
        <time>2021-03-25T10:25:48Z</time>
      </trkpt>
      <trkpt lat="45.54907" lon="6.79645">
        <ele>2408.3</ele>
        <time>2021-03-25T10:25:49Z</time>
      </trkpt>
      <trkpt lat="45.54907" lon="6.79646">
        <ele>2408.3</ele>
        <time>2021-03-25T10:25:50Z</time>
      </trkpt>
      <trkpt lat="45.54907" lon="6.79646">
        <ele>2410.9</ele>
        <time>2021-03-25T10:25:51Z</time>
      </trkpt>
      <trkpt lat="45.54908" lon="6.79647">
        <ele>2410.9</ele>
        <time>2021-03-25T10:25:52Z</time>
      </trkpt>
      <trkpt lat="45.54908" lon="6.79647">
        <ele>2410.9</ele>
        <time>2021-03-25T10:25:53Z</time>
      </trkpt>
      <trkpt lat="45.54908" lon="6.79648">
        <ele>2410.9</ele>
        <time>2021-03-25T10:25:54Z</time>
      </trkpt>
      <trkpt lat="45.54908" lon="6.79649">
        <ele>2410.9</ele>
        <time>2021-03-25T10:25:55Z</time>
      </trkpt>
      <trkpt lat="45.54908" lon="6.79649">
        <ele>2410.9</ele>
        <time>2021-03-25T10:25:56Z</time>
      </trkpt>
      <trkpt lat="45.54909" lon="6.79649">
        <ele>2410.9</ele>
        <time>2021-03-25T10:25:57Z</time>
      </trkpt>
      <trkpt lat="45.54909" lon="6.7965">
        <ele>2410.9</ele>
        <time>2021-03-25T10:25:58Z</time>
      </trkpt>
      <trkpt lat="45.54909" lon="6.79651">
        <ele>2413.4</ele>
        <time>2021-03-25T10:25:59Z</time>
      </trkpt>
      <trkpt lat="45.5491" lon="6.79652">
        <ele>2413.4</ele>
        <time>2021-03-25T10:26:00Z</time>
      </trkpt>
      <trkpt lat="45.5491" lon="6.79654">
        <ele>2413.4</ele>
        <time>2021-03-25T10:26:01Z</time>
      </trkpt>
      <trkpt lat="45.5491" lon="6.79654">
        <ele>2413.4</ele>
        <time>2021-03-25T10:26:02Z</time>
      </trkpt>
      <trkpt lat="45.5491" lon="6.79655">
        <ele>2415.8</ele>
        <time>2021-03-25T10:26:03Z</time>
      </trkpt>
      <trkpt lat="45.5491" lon="6.79656">
        <ele>2414.2</ele>
        <time>2021-03-25T10:26:04Z</time>
      </trkpt>
      <trkpt lat="45.5491" lon="6.79657">
        <ele>2414.2</ele>
        <time>2021-03-25T10:26:05Z</time>
      </trkpt>
      <trkpt lat="45.5491" lon="6.79659">
        <ele>2416.5</ele>
        <time>2021-03-25T10:26:06Z</time>
      </trkpt>
      <trkpt lat="45.5491" lon="6.79661">
        <ele>2416.5</ele>
        <time>2021-03-25T10:26:07Z</time>
      </trkpt>
      <trkpt lat="45.5491" lon="6.79663">
        <ele>2416.5</ele>
        <time>2021-03-25T10:26:08Z</time>
      </trkpt>
      <trkpt lat="45.54911" lon="6.79664">
        <ele>2418.8</ele>
        <time>2021-03-25T10:26:09Z</time>
      </trkpt>
      <trkpt lat="45.54911" lon="6.79665">
        <ele>2418.8</ele>
        <time>2021-03-25T10:26:10Z</time>
      </trkpt>
      <trkpt lat="45.54912" lon="6.79666">
        <ele>2418.8</ele>
        <time>2021-03-25T10:26:11Z</time>
      </trkpt>
      <trkpt lat="45.54913" lon="6.79667">
        <ele>2418.8</ele>
        <time>2021-03-25T10:26:12Z</time>
      </trkpt>
      <trkpt lat="45.54913" lon="6.79667">
        <ele>2416.9</ele>
        <time>2021-03-25T10:26:13Z</time>
      </trkpt>
      <trkpt lat="45.54914" lon="6.79667">
        <ele>2416.9</ele>
        <time>2021-03-25T10:26:14Z</time>
      </trkpt>
      <trkpt lat="45.54914" lon="6.79667">
        <ele>2416.9</ele>
        <time>2021-03-25T10:26:15Z</time>
      </trkpt>
      <trkpt lat="45.54915" lon="6.79668">
        <ele>2419.1</ele>
        <time>2021-03-25T10:26:16Z</time>
      </trkpt>
      <trkpt lat="45.54916" lon="6.79668">
        <ele>2419.1</ele>
        <time>2021-03-25T10:26:17Z</time>
      </trkpt>
      <trkpt lat="45.54916" lon="6.79669">
        <ele>2417.2</ele>
        <time>2021-03-25T10:26:18Z</time>
      </trkpt>
      <trkpt lat="45.54917" lon="6.79669">
        <ele>2417.2</ele>
        <time>2021-03-25T10:26:19Z</time>
      </trkpt>
      <trkpt lat="45.54917" lon="6.7967">
        <ele>2417.2</ele>
        <time>2021-03-25T10:26:20Z</time>
      </trkpt>
      <trkpt lat="45.54917" lon="6.7967">
        <ele>2417.2</ele>
        <time>2021-03-25T10:26:21Z</time>
      </trkpt>
      <trkpt lat="45.54918" lon="6.79671">
        <ele>2417.2</ele>
        <time>2021-03-25T10:26:22Z</time>
      </trkpt>
      <trkpt lat="45.54918" lon="6.79671">
        <ele>2417.2</ele>
        <time>2021-03-25T10:26:23Z</time>
      </trkpt>
      <trkpt lat="45.54919" lon="6.79672">
        <ele>2417.2</ele>
        <time>2021-03-25T10:26:24Z</time>
      </trkpt>
      <trkpt lat="45.54919" lon="6.79672">
        <ele>2419.3</ele>
        <time>2021-03-25T10:26:25Z</time>
      </trkpt>
      <trkpt lat="45.54919" lon="6.79673">
        <ele>2417.3</ele>
        <time>2021-03-25T10:26:26Z</time>
      </trkpt>
      <trkpt lat="45.54919" lon="6.79674">
        <ele>2417.3</ele>
        <time>2021-03-25T10:26:27Z</time>
      </trkpt>
      <trkpt lat="45.5492" lon="6.79675">
        <ele>2417.3</ele>
        <time>2021-03-25T10:26:28Z</time>
      </trkpt>
      <trkpt lat="45.5492" lon="6.79676">
        <ele>2417.3</ele>
        <time>2021-03-25T10:26:29Z</time>
      </trkpt>
      <trkpt lat="45.5492" lon="6.79676">
        <ele>2419.5</ele>
        <time>2021-03-25T10:26:30Z</time>
      </trkpt>
      <trkpt lat="45.54921" lon="6.79677">
        <ele>2419.5</ele>
        <time>2021-03-25T10:26:31Z</time>
      </trkpt>
      <trkpt lat="45.54921" lon="6.79677">
        <ele>2419.5</ele>
        <time>2021-03-25T10:26:32Z</time>
      </trkpt>
      <trkpt lat="45.54921" lon="6.79678">
        <ele>2419.5</ele>
        <time>2021-03-25T10:26:33Z</time>
      </trkpt>
      <trkpt lat="45.54921" lon="6.79679">
        <ele>2419.5</ele>
        <time>2021-03-25T10:26:34Z</time>
      </trkpt>
      <trkpt lat="45.54921" lon="6.7968">
        <ele>2419.5</ele>
        <time>2021-03-25T10:26:35Z</time>
      </trkpt>
      <trkpt lat="45.54921" lon="6.7968">
        <ele>2419.5</ele>
        <time>2021-03-25T10:26:36Z</time>
      </trkpt>
      <trkpt lat="45.54922" lon="6.79681">
        <ele>2421.7</ele>
        <time>2021-03-25T10:26:37Z</time>
      </trkpt>
      <trkpt lat="45.54922" lon="6.79681">
        <ele>2421.7</ele>
        <time>2021-03-25T10:26:38Z</time>
      </trkpt>
      <trkpt lat="45.54922" lon="6.79682">
        <ele>2419.8</ele>
        <time>2021-03-25T10:26:39Z</time>
      </trkpt>
      <trkpt lat="45.54922" lon="6.79682">
        <ele>2419.8</ele>
        <time>2021-03-25T10:26:40Z</time>
      </trkpt>
      <trkpt lat="45.54922" lon="6.79682">
        <ele>2419.8</ele>
        <time>2021-03-25T10:26:41Z</time>
      </trkpt>
      <trkpt lat="45.54922" lon="6.79682">
        <ele>2419.8</ele>
        <time>2021-03-25T10:26:42Z</time>
      </trkpt>
      <trkpt lat="45.54922" lon="6.79682">
        <ele>2419.8</ele>
        <time>2021-03-25T10:26:43Z</time>
      </trkpt>
      <trkpt lat="45.54922" lon="6.79683">
        <ele>2419.8</ele>
        <time>2021-03-25T10:26:44Z</time>
      </trkpt>
      <trkpt lat="45.54923" lon="6.79683">
        <ele>2419.8</ele>
        <time>2021-03-25T10:26:45Z</time>
      </trkpt>
      <trkpt lat="45.54923" lon="6.79685">
        <ele>2419.8</ele>
        <time>2021-03-25T10:26:46Z</time>
      </trkpt>
      <trkpt lat="45.54923" lon="6.79686">
        <ele>2422.1</ele>
        <time>2021-03-25T10:26:47Z</time>
      </trkpt>
      <trkpt lat="45.54923" lon="6.79687">
        <ele>2422.1</ele>
        <time>2021-03-25T10:26:48Z</time>
      </trkpt>
      <trkpt lat="45.54924" lon="6.79688">
        <ele>2422.1</ele>
        <time>2021-03-25T10:26:49Z</time>
      </trkpt>
      <trkpt lat="45.54924" lon="6.79689">
        <ele>2422.1</ele>
        <time>2021-03-25T10:27:01Z</time>
      </trkpt>
      <trkpt lat="45.54924" lon="6.7969">
        <ele>2424.5</ele>
        <time>2021-03-25T10:27:02Z</time>
      </trkpt>
      <trkpt lat="45.54925" lon="6.79691">
        <ele>2424.5</ele>
        <time>2021-03-25T10:27:03Z</time>
      </trkpt>
      <trkpt lat="45.54925" lon="6.79692">
        <ele>2424.5</ele>
        <time>2021-03-25T10:27:04Z</time>
      </trkpt>
      <trkpt lat="45.54925" lon="6.79693">
        <ele>2422.6</ele>
        <time>2021-03-25T10:27:05Z</time>
      </trkpt>
      <trkpt lat="45.54925" lon="6.79694">
        <ele>2425</ele>
        <time>2021-03-25T10:27:06Z</time>
      </trkpt>
      <trkpt lat="45.54925" lon="6.79694">
        <ele>2427</ele>
        <time>2021-03-25T10:27:07Z</time>
      </trkpt>
      <trkpt lat="45.54924" lon="6.79694">
        <ele>2427</ele>
        <time>2021-03-25T10:27:08Z</time>
      </trkpt>
      <trkpt lat="45.54923" lon="6.79694">
        <ele>2427</ele>
        <time>2021-03-25T10:27:09Z</time>
      </trkpt>
      <trkpt lat="45.54923" lon="6.79694">
        <ele>2427</ele>
        <time>2021-03-25T10:27:10Z</time>
      </trkpt>
      <trkpt lat="45.54922" lon="6.79694">
        <ele>2427</ele>
        <time>2021-03-25T10:27:11Z</time>
      </trkpt>
      <trkpt lat="45.54922" lon="6.79693">
        <ele>2429</ele>
        <time>2021-03-25T10:27:41Z</time>
      </trkpt>
      <trkpt lat="45.54921" lon="6.79693">
        <ele>2426.5</ele>
        <time>2021-03-25T10:27:42Z</time>
      </trkpt>
      <trkpt lat="45.54921" lon="6.79693">
        <ele>2426.5</ele>
        <time>2021-03-25T10:27:43Z</time>
      </trkpt>
      <trkpt lat="45.5492" lon="6.79693">
        <ele>2426.5</ele>
        <time>2021-03-25T10:27:44Z</time>
      </trkpt>
      <trkpt lat="45.5492" lon="6.79693">
        <ele>2426.5</ele>
        <time>2021-03-25T10:27:45Z</time>
      </trkpt>
      <trkpt lat="45.54919" lon="6.79693">
        <ele>2426.5</ele>
        <time>2021-03-25T10:27:46Z</time>
      </trkpt>
      <trkpt lat="45.54918" lon="6.79693">
        <ele>2428.6</ele>
        <time>2021-03-25T10:27:47Z</time>
      </trkpt>
      <trkpt lat="45.54918" lon="6.79693">
        <ele>2428.6</ele>
        <time>2021-03-25T10:27:48Z</time>
      </trkpt>
      <trkpt lat="45.54917" lon="6.79694">
        <ele>2431.1</ele>
        <time>2021-03-25T10:27:49Z</time>
      </trkpt>
      <trkpt lat="45.54916" lon="6.79694">
        <ele>2431.1</ele>
        <time>2021-03-25T10:27:50Z</time>
      </trkpt>
      <trkpt lat="45.54915" lon="6.79693">
        <ele>2433.1</ele>
        <time>2021-03-25T10:27:51Z</time>
      </trkpt>
      <trkpt lat="45.54914" lon="6.79693">
        <ele>2430.6</ele>
        <time>2021-03-25T10:27:52Z</time>
      </trkpt>
      <trkpt lat="45.54913" lon="6.79692">
        <ele>2430.6</ele>
        <time>2021-03-25T10:27:53Z</time>
      </trkpt>
      <trkpt lat="45.54912" lon="6.79692">
        <ele>2432.5</ele>
        <time>2021-03-25T10:27:54Z</time>
      </trkpt>
      <trkpt lat="45.54911" lon="6.79691">
        <ele>2432.5</ele>
        <time>2021-03-25T10:27:55Z</time>
      </trkpt>
      <trkpt lat="45.5491" lon="6.7969">
        <ele>2432.5</ele>
        <time>2021-03-25T10:27:56Z</time>
      </trkpt>
      <trkpt lat="45.54909" lon="6.7969">
        <ele>2434.1</ele>
        <time>2021-03-25T10:27:57Z</time>
      </trkpt>
      <trkpt lat="45.54908" lon="6.79689">
        <ele>2434.1</ele>
        <time>2021-03-25T10:27:58Z</time>
      </trkpt>
      <trkpt lat="45.54907" lon="6.79689">
        <ele>2431.7</ele>
        <time>2021-03-25T10:27:59Z</time>
      </trkpt>
      <trkpt lat="45.54906" lon="6.79688">
        <ele>2433.1</ele>
        <time>2021-03-25T10:28:21Z</time>
      </trkpt>
      <trkpt lat="45.54905" lon="6.79687">
        <ele>2433.1</ele>
        <time>2021-03-25T10:28:22Z</time>
      </trkpt>
      <trkpt lat="45.54904" lon="6.79687">
        <ele>2433.1</ele>
        <time>2021-03-25T10:28:23Z</time>
      </trkpt>
      <trkpt lat="45.54903" lon="6.79686">
        <ele>2434.4</ele>
        <time>2021-03-25T10:28:24Z</time>
      </trkpt>
      <trkpt lat="45.54903" lon="6.79685">
        <ele>2434.4</ele>
        <time>2021-03-25T10:28:25Z</time>
      </trkpt>
      <trkpt lat="45.54902" lon="6.79684">
        <ele>2432.1</ele>
        <time>2021-03-25T10:28:26Z</time>
      </trkpt>
      <trkpt lat="45.54902" lon="6.79683">
        <ele>2432.1</ele>
        <time>2021-03-25T10:28:27Z</time>
      </trkpt>
      <trkpt lat="45.54901" lon="6.79683">
        <ele>2432.1</ele>
        <time>2021-03-25T10:28:28Z</time>
      </trkpt>
      <trkpt lat="45.549" lon="6.79682">
        <ele>2433.4</ele>
        <time>2021-03-25T10:28:29Z</time>
      </trkpt>
      <trkpt lat="45.549" lon="6.79681">
        <ele>2433.4</ele>
        <time>2021-03-25T10:28:30Z</time>
      </trkpt>
      <trkpt lat="45.54899" lon="6.7968">
        <ele>2431.2</ele>
        <time>2021-03-25T10:28:31Z</time>
      </trkpt>
      <trkpt lat="45.54899" lon="6.79679">
        <ele>2431.2</ele>
        <time>2021-03-25T10:28:32Z</time>
      </trkpt>
      <trkpt lat="45.54898" lon="6.79678">
        <ele>2431.2</ele>
        <time>2021-03-25T10:28:33Z</time>
      </trkpt>
      <trkpt lat="45.54897" lon="6.79676">
        <ele>2432.6</ele>
        <time>2021-03-25T10:28:34Z</time>
      </trkpt>
      <trkpt lat="45.54897" lon="6.79675">
        <ele>2430.4</ele>
        <time>2021-03-25T10:28:35Z</time>
      </trkpt>
      <trkpt lat="45.54897" lon="6.79675">
        <ele>2430.4</ele>
        <time>2021-03-25T10:28:36Z</time>
      </trkpt>
      <trkpt lat="45.54896" lon="6.79674">
        <ele>2430.4</ele>
        <time>2021-03-25T10:28:37Z</time>
      </trkpt>
      <trkpt lat="45.54896" lon="6.79673">
        <ele>2430.4</ele>
        <time>2021-03-25T10:28:38Z</time>
      </trkpt>
      <trkpt lat="45.54896" lon="6.79672">
        <ele>2430.4</ele>
        <time>2021-03-25T10:28:39Z</time>
      </trkpt>
      <trkpt lat="45.54896" lon="6.79671">
        <ele>2428.3</ele>
        <time>2021-03-25T10:28:40Z</time>
      </trkpt>
      <trkpt lat="45.54895" lon="6.7967">
        <ele>2428.3</ele>
        <time>2021-03-25T10:28:41Z</time>
      </trkpt>
      <trkpt lat="45.54895" lon="6.79669">
        <ele>2429.8</ele>
        <time>2021-03-25T10:28:42Z</time>
      </trkpt>
      <trkpt lat="45.54894" lon="6.79668">
        <ele>2429.8</ele>
        <time>2021-03-25T10:28:43Z</time>
      </trkpt>
      <trkpt lat="45.54894" lon="6.79668">
        <ele>2429.8</ele>
        <time>2021-03-25T10:28:44Z</time>
      </trkpt>
      <trkpt lat="45.54893" lon="6.79668">
        <ele>2429.8</ele>
        <time>2021-03-25T10:28:45Z</time>
      </trkpt>
      <trkpt lat="45.54893" lon="6.79667">
        <ele>2427.7</ele>
        <time>2021-03-25T10:28:46Z</time>
      </trkpt>
      <trkpt lat="45.54892" lon="6.79667">
        <ele>2427.7</ele>
        <time>2021-03-25T10:28:47Z</time>
      </trkpt>
      <trkpt lat="45.54892" lon="6.79666">
        <ele>2427.7</ele>
        <time>2021-03-25T10:28:48Z</time>
      </trkpt>
      <trkpt lat="45.54891" lon="6.79666">
        <ele>2429.3</ele>
        <time>2021-03-25T10:28:49Z</time>
      </trkpt>
      <trkpt lat="45.54891" lon="6.79665">
        <ele>2429.3</ele>
        <time>2021-03-25T10:28:50Z</time>
      </trkpt>
      <trkpt lat="45.5489" lon="6.79665">
        <ele>2429.3</ele>
        <time>2021-03-25T10:28:51Z</time>
      </trkpt>
      <trkpt lat="45.54889" lon="6.79664">
        <ele>2429.3</ele>
        <time>2021-03-25T10:28:52Z</time>
      </trkpt>
      <trkpt lat="45.54889" lon="6.79664">
        <ele>2429.3</ele>
        <time>2021-03-25T10:28:53Z</time>
      </trkpt>
      <trkpt lat="45.54889" lon="6.79664">
        <ele>2430.9</ele>
        <time>2021-03-25T10:28:54Z</time>
      </trkpt>
      <trkpt lat="45.54888" lon="6.79663">
        <ele>2430.9</ele>
        <time>2021-03-25T10:28:55Z</time>
      </trkpt>
      <trkpt lat="45.54887" lon="6.79662">
        <ele>2428.7</ele>
        <time>2021-03-25T10:28:56Z</time>
      </trkpt>
      <trkpt lat="45.54887" lon="6.79661">
        <ele>2428.7</ele>
        <time>2021-03-25T10:28:57Z</time>
      </trkpt>
      <trkpt lat="45.54886" lon="6.7966">
        <ele>2428.7</ele>
        <time>2021-03-25T10:28:58Z</time>
      </trkpt>
      <trkpt lat="45.54886" lon="6.7966">
        <ele>2428.7</ele>
        <time>2021-03-25T10:28:59Z</time>
      </trkpt>
      <trkpt lat="45.54886" lon="6.79659">
        <ele>2428</ele>
        <time>2021-03-25T10:29:00Z</time>
      </trkpt>
      <trkpt lat="45.54885" lon="6.79658">
        <ele>2428</ele>
        <time>2021-03-25T10:29:01Z</time>
      </trkpt>
      <trkpt lat="45.54885" lon="6.79657">
        <ele>2428</ele>
        <time>2021-03-25T10:29:02Z</time>
      </trkpt>
      <trkpt lat="45.54884" lon="6.79656">
        <ele>2428</ele>
        <time>2021-03-25T10:29:03Z</time>
      </trkpt>
      <trkpt lat="45.54884" lon="6.79656">
        <ele>2428</ele>
        <time>2021-03-25T10:29:04Z</time>
      </trkpt>
      <trkpt lat="45.54883" lon="6.79655">
        <ele>2428</ele>
        <time>2021-03-25T10:29:05Z</time>
      </trkpt>
      <trkpt lat="45.54883" lon="6.79654">
        <ele>2425.7</ele>
        <time>2021-03-25T10:29:06Z</time>
      </trkpt>
      <trkpt lat="45.54883" lon="6.79653">
        <ele>2427.1</ele>
        <time>2021-03-25T10:29:07Z</time>
      </trkpt>
      <trkpt lat="45.54882" lon="6.79652">
        <ele>2427.1</ele>
        <time>2021-03-25T10:29:08Z</time>
      </trkpt>
      <trkpt lat="45.54882" lon="6.79652">
        <ele>2427.1</ele>
        <time>2021-03-25T10:29:09Z</time>
      </trkpt>
      <trkpt lat="45.54881" lon="6.79651">
        <ele>2427.1</ele>
        <time>2021-03-25T10:29:10Z</time>
      </trkpt>
      <trkpt lat="45.54881" lon="6.7965">
        <ele>2424.7</ele>
        <time>2021-03-25T10:29:11Z</time>
      </trkpt>
      <trkpt lat="45.5488" lon="6.79649">
        <ele>2424.7</ele>
        <time>2021-03-25T10:29:12Z</time>
      </trkpt>
      <trkpt lat="45.5488" lon="6.79648">
        <ele>2426</ele>
        <time>2021-03-25T10:29:13Z</time>
      </trkpt>
      <trkpt lat="45.54879" lon="6.79647">
        <ele>2426</ele>
        <time>2021-03-25T10:29:14Z</time>
      </trkpt>
      <trkpt lat="45.54878" lon="6.79646">
        <ele>2426</ele>
        <time>2021-03-25T10:29:15Z</time>
      </trkpt>
      <trkpt lat="45.54878" lon="6.79646">
        <ele>2423.5</ele>
        <time>2021-03-25T10:29:16Z</time>
      </trkpt>
      <trkpt lat="45.54877" lon="6.79645">
        <ele>2423.5</ele>
        <time>2021-03-25T10:29:17Z</time>
      </trkpt>
      <trkpt lat="45.54877" lon="6.79644">
        <ele>2423.5</ele>
        <time>2021-03-25T10:29:18Z</time>
      </trkpt>
      <trkpt lat="45.54876" lon="6.79644">
        <ele>2424.8</ele>
        <time>2021-03-25T10:29:19Z</time>
      </trkpt>
      <trkpt lat="45.54876" lon="6.79644">
        <ele>2424.8</ele>
        <time>2021-03-25T10:29:20Z</time>
      </trkpt>
      <trkpt lat="45.54875" lon="6.79644">
        <ele>2424.8</ele>
        <time>2021-03-25T10:29:21Z</time>
      </trkpt>
      <trkpt lat="45.54875" lon="6.79644">
        <ele>2424.8</ele>
        <time>2021-03-25T10:29:22Z</time>
      </trkpt>
      <trkpt lat="45.54875" lon="6.79644">
        <ele>2424.8</ele>
        <time>2021-03-25T10:29:23Z</time>
      </trkpt>
      <trkpt lat="45.54875" lon="6.79644">
        <ele>2424.8</ele>
        <time>2021-03-25T10:29:24Z</time>
      </trkpt>
      <trkpt lat="45.54874" lon="6.79643">
        <ele>2424.8</ele>
        <time>2021-03-25T10:29:25Z</time>
      </trkpt>
      <trkpt lat="45.54874" lon="6.79643">
        <ele>2426.1</ele>
        <time>2021-03-25T10:29:26Z</time>
      </trkpt>
      <trkpt lat="45.54873" lon="6.79643">
        <ele>2426.1</ele>
        <time>2021-03-25T10:29:27Z</time>
      </trkpt>
      <trkpt lat="45.54873" lon="6.79643">
        <ele>2426.1</ele>
        <time>2021-03-25T10:29:28Z</time>
      </trkpt>
      <trkpt lat="45.54872" lon="6.79642">
        <ele>2426.1</ele>
        <time>2021-03-25T10:29:29Z</time>
      </trkpt>
      <trkpt lat="45.54872" lon="6.79642">
        <ele>2426.1</ele>
        <time>2021-03-25T10:29:30Z</time>
      </trkpt>
      <trkpt lat="45.54871" lon="6.79642">
        <ele>2426.1</ele>
        <time>2021-03-25T10:29:31Z</time>
      </trkpt>
      <trkpt lat="45.54871" lon="6.79642">
        <ele>2424.9</ele>
        <time>2021-03-25T10:29:35Z</time>
      </trkpt>
      <trkpt lat="45.5487" lon="6.79641">
        <ele>2424.9</ele>
        <time>2021-03-25T10:29:36Z</time>
      </trkpt>
      <trkpt lat="45.5487" lon="6.79641">
        <ele>2424.9</ele>
        <time>2021-03-25T10:29:37Z</time>
      </trkpt>
      <trkpt lat="45.54869" lon="6.79641">
        <ele>2424.9</ele>
        <time>2021-03-25T10:29:38Z</time>
      </trkpt>
      <trkpt lat="45.54869" lon="6.79641">
        <ele>2424.9</ele>
        <time>2021-03-25T10:29:39Z</time>
      </trkpt>
      <trkpt lat="45.54868" lon="6.7964">
        <ele>2424.9</ele>
        <time>2021-03-25T10:29:40Z</time>
      </trkpt>
      <trkpt lat="45.54868" lon="6.7964">
        <ele>2426.3</ele>
        <time>2021-03-25T10:29:41Z</time>
      </trkpt>
      <trkpt lat="45.54867" lon="6.79641">
        <ele>2426.3</ele>
        <time>2021-03-25T10:29:42Z</time>
      </trkpt>
      <trkpt lat="45.54866" lon="6.79641">
        <ele>2426.3</ele>
        <time>2021-03-25T10:29:43Z</time>
      </trkpt>
      <trkpt lat="45.54866" lon="6.79641">
        <ele>2426.3</ele>
        <time>2021-03-25T10:29:44Z</time>
      </trkpt>
      <trkpt lat="45.54866" lon="6.79641">
        <ele>2426.3</ele>
        <time>2021-03-25T10:29:45Z</time>
      </trkpt>
      <trkpt lat="45.54866" lon="6.79641">
        <ele>2426.3</ele>
        <time>2021-03-25T10:29:46Z</time>
      </trkpt>
      <trkpt lat="45.54866" lon="6.79642">
        <ele>2426.3</ele>
        <time>2021-03-25T10:29:47Z</time>
      </trkpt>
      <trkpt lat="45.54866" lon="6.79642">
        <ele>2428.7</ele>
        <time>2021-03-25T10:29:48Z</time>
      </trkpt>
      <trkpt lat="45.54867" lon="6.79643">
        <ele>2428.7</ele>
        <time>2021-03-25T10:29:49Z</time>
      </trkpt>
      <trkpt lat="45.54867" lon="6.79643">
        <ele>2428.7</ele>
        <time>2021-03-25T10:29:50Z</time>
      </trkpt>
      <trkpt lat="45.54867" lon="6.79644">
        <ele>2428.7</ele>
        <time>2021-03-25T10:29:51Z</time>
      </trkpt>
      <trkpt lat="45.54867" lon="6.79644">
        <ele>2428.7</ele>
        <time>2021-03-25T10:29:52Z</time>
      </trkpt>
      <trkpt lat="45.54868" lon="6.79644">
        <ele>2428.7</ele>
        <time>2021-03-25T10:30:10Z</time>
      </trkpt>
      <trkpt lat="45.54868" lon="6.79645">
        <ele>2428.7</ele>
        <time>2021-03-25T10:30:11Z</time>
      </trkpt>
      <trkpt lat="45.54868" lon="6.79645">
        <ele>2427.4</ele>
        <time>2021-03-25T10:30:12Z</time>
      </trkpt>
      <trkpt lat="45.54868" lon="6.79646">
        <ele>2427.4</ele>
        <time>2021-03-25T10:30:13Z</time>
      </trkpt>
      <trkpt lat="45.54869" lon="6.79646">
        <ele>2429.9</ele>
        <time>2021-03-25T10:30:14Z</time>
      </trkpt>
      <trkpt lat="45.54869" lon="6.79647">
        <ele>2429.9</ele>
        <time>2021-03-25T10:30:15Z</time>
      </trkpt>
      <trkpt lat="45.54869" lon="6.79647">
        <ele>2429.9</ele>
        <time>2021-03-25T10:30:16Z</time>
      </trkpt>
      <trkpt lat="45.54869" lon="6.79648">
        <ele>2429.9</ele>
        <time>2021-03-25T10:30:17Z</time>
      </trkpt>
      <trkpt lat="45.5487" lon="6.79649">
        <ele>2429.9</ele>
        <time>2021-03-25T10:30:18Z</time>
      </trkpt>
      <trkpt lat="45.5487" lon="6.7965">
        <ele>2429.9</ele>
        <time>2021-03-25T10:30:19Z</time>
      </trkpt>
      <trkpt lat="45.5487" lon="6.79651">
        <ele>2432.3</ele>
        <time>2021-03-25T10:30:20Z</time>
      </trkpt>
      <trkpt lat="45.5487" lon="6.79652">
        <ele>2432.3</ele>
        <time>2021-03-25T10:30:21Z</time>
      </trkpt>
      <trkpt lat="45.54871" lon="6.79652">
        <ele>2432.3</ele>
        <time>2021-03-25T10:30:22Z</time>
      </trkpt>
      <trkpt lat="45.54871" lon="6.79652">
        <ele>2432.3</ele>
        <time>2021-03-25T10:30:23Z</time>
      </trkpt>
      <trkpt lat="45.54871" lon="6.79654">
        <ele>2431</ele>
        <time>2021-03-25T10:30:24Z</time>
      </trkpt>
      <trkpt lat="45.54871" lon="6.79654">
        <ele>2431</ele>
        <time>2021-03-25T10:30:25Z</time>
      </trkpt>
      <trkpt lat="45.54872" lon="6.79655">
        <ele>2433.2</ele>
        <time>2021-03-25T10:30:26Z</time>
      </trkpt>
      <trkpt lat="45.54872" lon="6.79657">
        <ele>2433.2</ele>
        <time>2021-03-25T10:30:27Z</time>
      </trkpt>
      <trkpt lat="45.54872" lon="6.79658">
        <ele>2433.2</ele>
        <time>2021-03-25T10:30:28Z</time>
      </trkpt>
      <trkpt lat="45.54872" lon="6.79658">
        <ele>2433.2</ele>
        <time>2021-03-25T10:30:29Z</time>
      </trkpt>
      <trkpt lat="45.54872" lon="6.79658">
        <ele>2433.2</ele>
        <time>2021-03-25T10:30:30Z</time>
      </trkpt>
      <trkpt lat="45.54872" lon="6.79658">
        <ele>2433.2</ele>
        <time>2021-03-25T10:30:31Z</time>
      </trkpt>
      <trkpt lat="45.54873" lon="6.79659">
        <ele>2433.2</ele>
        <time>2021-03-25T10:30:32Z</time>
      </trkpt>
      <trkpt lat="45.54872" lon="6.79659">
        <ele>2435.4</ele>
        <time>2021-03-25T10:30:33Z</time>
      </trkpt>
      <trkpt lat="45.54873" lon="6.79662">
        <ele>2435.4</ele>
        <time>2021-03-25T10:30:34Z</time>
      </trkpt>
      <trkpt lat="45.54873" lon="6.79663">
        <ele>2435.4</ele>
        <time>2021-03-25T10:30:35Z</time>
      </trkpt>
      <trkpt lat="45.54873" lon="6.79664">
        <ele>2437.5</ele>
        <time>2021-03-25T10:30:36Z</time>
      </trkpt>
      <trkpt lat="45.54873" lon="6.79666">
        <ele>2437.5</ele>
        <time>2021-03-25T10:30:37Z</time>
      </trkpt>
      <trkpt lat="45.54873" lon="6.79666">
        <ele>2437.5</ele>
        <time>2021-03-25T10:30:38Z</time>
      </trkpt>
      <trkpt lat="45.54873" lon="6.79667">
        <ele>2437.5</ele>
        <time>2021-03-25T10:30:39Z</time>
      </trkpt>
      <trkpt lat="45.54873" lon="6.79668">
        <ele>2439.6</ele>
        <time>2021-03-25T10:30:40Z</time>
      </trkpt>
      <trkpt lat="45.54873" lon="6.79669">
        <ele>2439.6</ele>
        <time>2021-03-25T10:30:41Z</time>
      </trkpt>
      <trkpt lat="45.54873" lon="6.79669">
        <ele>2439.6</ele>
        <time>2021-03-25T10:30:42Z</time>
      </trkpt>
      <trkpt lat="45.54873" lon="6.79671">
        <ele>2439.6</ele>
        <time>2021-03-25T10:30:43Z</time>
      </trkpt>
      <trkpt lat="45.54873" lon="6.79671">
        <ele>2439.6</ele>
        <time>2021-03-25T10:30:44Z</time>
      </trkpt>
      <trkpt lat="45.54873" lon="6.79671">
        <ele>2439.6</ele>
        <time>2021-03-25T10:30:45Z</time>
      </trkpt>
      <trkpt lat="45.54873" lon="6.79672">
        <ele>2439.6</ele>
        <time>2021-03-25T10:30:46Z</time>
      </trkpt>
      <trkpt lat="45.54874" lon="6.79672">
        <ele>2440.4</ele>
        <time>2021-03-25T10:30:47Z</time>
      </trkpt>
      <trkpt lat="45.54874" lon="6.79673">
        <ele>2440.4</ele>
        <time>2021-03-25T10:30:48Z</time>
      </trkpt>
      <trkpt lat="45.54875" lon="6.79674">
        <ele>2440.4</ele>
        <time>2021-03-25T10:30:49Z</time>
      </trkpt>
      <trkpt lat="45.54876" lon="6.79675">
        <ele>2440.4</ele>
        <time>2021-03-25T10:30:50Z</time>
      </trkpt>
      <trkpt lat="45.54876" lon="6.79676">
        <ele>2440.4</ele>
        <time>2021-03-25T10:30:51Z</time>
      </trkpt>
      <trkpt lat="45.54877" lon="6.79677">
        <ele>2442.4</ele>
        <time>2021-03-25T10:30:52Z</time>
      </trkpt>
      <trkpt lat="45.54877" lon="6.79677">
        <ele>2441.2</ele>
        <time>2021-03-25T10:30:53Z</time>
      </trkpt>
      <trkpt lat="45.54877" lon="6.79678">
        <ele>2441.2</ele>
        <time>2021-03-25T10:30:54Z</time>
      </trkpt>
      <trkpt lat="45.54878" lon="6.79679">
        <ele>2441.2</ele>
        <time>2021-03-25T10:30:55Z</time>
      </trkpt>
      <trkpt lat="45.54878" lon="6.79679">
        <ele>2441.2</ele>
        <time>2021-03-25T10:30:56Z</time>
      </trkpt>
      <trkpt lat="45.54879" lon="6.7968">
        <ele>2441.2</ele>
        <time>2021-03-25T10:30:57Z</time>
      </trkpt>
      <trkpt lat="45.54879" lon="6.7968">
        <ele>2441.2</ele>
        <time>2021-03-25T10:30:58Z</time>
      </trkpt>
      <trkpt lat="45.54879" lon="6.7968">
        <ele>2443.4</ele>
        <time>2021-03-25T10:30:59Z</time>
      </trkpt>
      <trkpt lat="45.54879" lon="6.79681">
        <ele>2443.4</ele>
        <time>2021-03-25T10:31:00Z</time>
      </trkpt>
      <trkpt lat="45.54879" lon="6.79682">
        <ele>2443.4</ele>
        <time>2021-03-25T10:31:01Z</time>
      </trkpt>
      <trkpt lat="45.54879" lon="6.79682">
        <ele>2443.4</ele>
        <time>2021-03-25T10:31:02Z</time>
      </trkpt>
      <trkpt lat="45.54879" lon="6.79683">
        <ele>2443.4</ele>
        <time>2021-03-25T10:31:03Z</time>
      </trkpt>
      <trkpt lat="45.54879" lon="6.79683">
        <ele>2443.4</ele>
        <time>2021-03-25T10:31:04Z</time>
      </trkpt>
      <trkpt lat="45.54878" lon="6.79683">
        <ele>2443.4</ele>
        <time>2021-03-25T10:31:05Z</time>
      </trkpt>
      <trkpt lat="45.54878" lon="6.79682">
        <ele>2443.4</ele>
        <time>2021-03-25T10:31:06Z</time>
      </trkpt>
      <trkpt lat="45.54877" lon="6.79682">
        <ele>2443.4</ele>
        <time>2021-03-25T10:31:07Z</time>
      </trkpt>
      <trkpt lat="45.54877" lon="6.79682">
        <ele>2444.6</ele>
        <time>2021-03-25T10:31:08Z</time>
      </trkpt>
      <trkpt lat="45.54876" lon="6.79682">
        <ele>2444.6</ele>
        <time>2021-03-25T10:31:09Z</time>
      </trkpt>
      <trkpt lat="45.54876" lon="6.79682">
        <ele>2444.6</ele>
        <time>2021-03-25T10:31:10Z</time>
      </trkpt>
      <trkpt lat="45.54876" lon="6.79682">
        <ele>2444.6</ele>
        <time>2021-03-25T10:31:11Z</time>
      </trkpt>
      <trkpt lat="45.54875" lon="6.79682">
        <ele>2444.6</ele>
        <time>2021-03-25T10:31:12Z</time>
      </trkpt>
      <trkpt lat="45.54875" lon="6.79682">
        <ele>2444.6</ele>
        <time>2021-03-25T10:31:13Z</time>
      </trkpt>
      <trkpt lat="45.54874" lon="6.79682">
        <ele>2444.6</ele>
        <time>2021-03-25T10:31:46Z</time>
      </trkpt>
      <trkpt lat="45.54874" lon="6.79682">
        <ele>2445.8</ele>
        <time>2021-03-25T10:31:47Z</time>
      </trkpt>
      <trkpt lat="45.54873" lon="6.79681">
        <ele>2445.8</ele>
        <time>2021-03-25T10:31:48Z</time>
      </trkpt>
      <trkpt lat="45.54873" lon="6.79681">
        <ele>2445.8</ele>
        <time>2021-03-25T10:31:49Z</time>
      </trkpt>
      <trkpt lat="45.54872" lon="6.79681">
        <ele>2445.8</ele>
        <time>2021-03-25T10:31:50Z</time>
      </trkpt>
      <trkpt lat="45.54872" lon="6.79681">
        <ele>2445.8</ele>
        <time>2021-03-25T10:31:51Z</time>
      </trkpt>
      <trkpt lat="45.54871" lon="6.7968">
        <ele>2443.7</ele>
        <time>2021-03-25T10:31:52Z</time>
      </trkpt>
      <trkpt lat="45.54871" lon="6.7968">
        <ele>2445</ele>
        <time>2021-03-25T10:31:53Z</time>
      </trkpt>
      <trkpt lat="45.5487" lon="6.79679">
        <ele>2445</ele>
        <time>2021-03-25T10:31:54Z</time>
      </trkpt>
      <trkpt lat="45.54869" lon="6.79679">
        <ele>2445</ele>
        <time>2021-03-25T10:31:55Z</time>
      </trkpt>
      <trkpt lat="45.54869" lon="6.79678">
        <ele>2445</ele>
        <time>2021-03-25T10:31:56Z</time>
      </trkpt>
      <trkpt lat="45.54868" lon="6.79678">
        <ele>2445</ele>
        <time>2021-03-25T10:31:57Z</time>
      </trkpt>
      <trkpt lat="45.54868" lon="6.79677">
        <ele>2446.4</ele>
        <time>2021-03-25T10:31:58Z</time>
      </trkpt>
      <trkpt lat="45.54867" lon="6.79677">
        <ele>2446.4</ele>
        <time>2021-03-25T10:31:59Z</time>
      </trkpt>
      <trkpt lat="45.54867" lon="6.79676">
        <ele>2446.4</ele>
        <time>2021-03-25T10:32:00Z</time>
      </trkpt>
      <trkpt lat="45.54866" lon="6.79676">
        <ele>2446.4</ele>
        <time>2021-03-25T10:32:01Z</time>
      </trkpt>
      <trkpt lat="45.54866" lon="6.79676">
        <ele>2444.3</ele>
        <time>2021-03-25T10:32:02Z</time>
      </trkpt>
      <trkpt lat="45.54865" lon="6.79676">
        <ele>2445.7</ele>
        <time>2021-03-25T10:32:03Z</time>
      </trkpt>
      <trkpt lat="45.54864" lon="6.79675">
        <ele>2445.7</ele>
        <time>2021-03-25T10:32:04Z</time>
      </trkpt>
      <trkpt lat="45.54863" lon="6.79675">
        <ele>2445.7</ele>
        <time>2021-03-25T10:32:05Z</time>
      </trkpt>
      <trkpt lat="45.54863" lon="6.79675">
        <ele>2445.7</ele>
        <time>2021-03-25T10:32:06Z</time>
      </trkpt>
      <trkpt lat="45.54862" lon="6.79675">
        <ele>2445.7</ele>
        <time>2021-03-25T10:32:07Z</time>
      </trkpt>
      <trkpt lat="45.54862" lon="6.79674">
        <ele>2447.1</ele>
        <time>2021-03-25T10:32:08Z</time>
      </trkpt>
      <trkpt lat="45.54861" lon="6.79674">
        <ele>2447.1</ele>
        <time>2021-03-25T10:32:09Z</time>
      </trkpt>
      <trkpt lat="45.5486" lon="6.79673">
        <ele>2447.1</ele>
        <time>2021-03-25T10:32:10Z</time>
      </trkpt>
      <trkpt lat="45.5486" lon="6.79673">
        <ele>2447.1</ele>
        <time>2021-03-25T10:32:11Z</time>
      </trkpt>
      <trkpt lat="45.54859" lon="6.79673">
        <ele>2448.6</ele>
        <time>2021-03-25T10:32:12Z</time>
      </trkpt>
      <trkpt lat="45.54858" lon="6.79673">
        <ele>2448.6</ele>
        <time>2021-03-25T10:32:13Z</time>
      </trkpt>
      <trkpt lat="45.54858" lon="6.79672">
        <ele>2448.6</ele>
        <time>2021-03-25T10:32:14Z</time>
      </trkpt>
      <trkpt lat="45.54857" lon="6.79672">
        <ele>2448.6</ele>
        <time>2021-03-25T10:32:15Z</time>
      </trkpt>
      <trkpt lat="45.54856" lon="6.79672">
        <ele>2448.6</ele>
        <time>2021-03-25T10:32:16Z</time>
      </trkpt>
      <trkpt lat="45.54856" lon="6.79672">
        <ele>2447.9</ele>
        <time>2021-03-25T10:32:17Z</time>
      </trkpt>
      <trkpt lat="45.54855" lon="6.79672">
        <ele>2447.9</ele>
        <time>2021-03-25T10:32:18Z</time>
      </trkpt>
      <trkpt lat="45.54855" lon="6.79672">
        <ele>2447.9</ele>
        <time>2021-03-25T10:32:19Z</time>
      </trkpt>
      <trkpt lat="45.54854" lon="6.79672">
        <ele>2447.9</ele>
        <time>2021-03-25T10:32:20Z</time>
      </trkpt>
      <trkpt lat="45.54853" lon="6.79671">
        <ele>2447.9</ele>
        <time>2021-03-25T10:32:21Z</time>
      </trkpt>
      <trkpt lat="45.54853" lon="6.79671">
        <ele>2449.2</ele>
        <time>2021-03-25T10:32:22Z</time>
      </trkpt>
      <trkpt lat="45.54852" lon="6.79671">
        <ele>2449.2</ele>
        <time>2021-03-25T10:32:23Z</time>
      </trkpt>
      <trkpt lat="45.54851" lon="6.79671">
        <ele>2449.2</ele>
        <time>2021-03-25T10:32:24Z</time>
      </trkpt>
      <trkpt lat="45.54851" lon="6.79671">
        <ele>2449.2</ele>
        <time>2021-03-25T10:32:25Z</time>
      </trkpt>
      <trkpt lat="45.5485" lon="6.79671">
        <ele>2449.2</ele>
        <time>2021-03-25T10:32:26Z</time>
      </trkpt>
      <trkpt lat="45.54849" lon="6.79671">
        <ele>2450.4</ele>
        <time>2021-03-25T10:32:27Z</time>
      </trkpt>
      <trkpt lat="45.54849" lon="6.79672">
        <ele>2450.4</ele>
        <time>2021-03-25T10:32:28Z</time>
      </trkpt>
      <trkpt lat="45.54849" lon="6.79672">
        <ele>2452.6</ele>
        <time>2021-03-25T10:32:29Z</time>
      </trkpt>
      <trkpt lat="45.54849" lon="6.79672">
        <ele>2452.6</ele>
        <time>2021-03-25T10:32:30Z</time>
      </trkpt>
      <trkpt lat="45.54849" lon="6.79673">
        <ele>2452.6</ele>
        <time>2021-03-25T10:32:31Z</time>
      </trkpt>
      <trkpt lat="45.5485" lon="6.79673">
        <ele>2452.6</ele>
        <time>2021-03-25T10:32:32Z</time>
      </trkpt>
      <trkpt lat="45.5485" lon="6.79674">
        <ele>2452.6</ele>
        <time>2021-03-25T10:32:33Z</time>
      </trkpt>
      <trkpt lat="45.5485" lon="6.79674">
        <ele>2451.3</ele>
        <time>2021-03-25T10:32:34Z</time>
      </trkpt>
      <trkpt lat="45.5485" lon="6.79675">
        <ele>2451.3</ele>
        <time>2021-03-25T10:32:35Z</time>
      </trkpt>
      <trkpt lat="45.5485" lon="6.79675">
        <ele>2451.3</ele>
        <time>2021-03-25T10:32:36Z</time>
      </trkpt>
      <trkpt lat="45.54851" lon="6.79675">
        <ele>2451.3</ele>
        <time>2021-03-25T10:32:37Z</time>
      </trkpt>
      <trkpt lat="45.54851" lon="6.79676">
        <ele>2451.3</ele>
        <time>2021-03-25T10:32:38Z</time>
      </trkpt>
      <trkpt lat="45.54851" lon="6.79676">
        <ele>2453.5</ele>
        <time>2021-03-25T10:32:39Z</time>
      </trkpt>
      <trkpt lat="45.54851" lon="6.79677">
        <ele>2453.5</ele>
        <time>2021-03-25T10:32:40Z</time>
      </trkpt>
      <trkpt lat="45.54851" lon="6.79677">
        <ele>2453.5</ele>
        <time>2021-03-25T10:32:41Z</time>
      </trkpt>
      <trkpt lat="45.54851" lon="6.79677">
        <ele>2453.5</ele>
        <time>2021-03-25T10:32:51Z</time>
      </trkpt>
      <trkpt lat="45.54852" lon="6.79678">
        <ele>2453.5</ele>
        <time>2021-03-25T10:32:52Z</time>
      </trkpt>
      <trkpt lat="45.54852" lon="6.79678">
        <ele>2453.5</ele>
        <time>2021-03-25T10:32:53Z</time>
      </trkpt>
      <trkpt lat="45.54852" lon="6.79679">
        <ele>2453.5</ele>
        <time>2021-03-25T10:32:54Z</time>
      </trkpt>
      <trkpt lat="45.54852" lon="6.79679">
        <ele>2453.5</ele>
        <time>2021-03-25T10:32:55Z</time>
      </trkpt>
      <trkpt lat="45.54852" lon="6.7968">
        <ele>2453.5</ele>
        <time>2021-03-25T10:32:56Z</time>
      </trkpt>
      <trkpt lat="45.54853" lon="6.7968">
        <ele>2452.1</ele>
        <time>2021-03-25T10:32:57Z</time>
      </trkpt>
      <trkpt lat="45.54854" lon="6.7968">
        <ele>2452.1</ele>
        <time>2021-03-25T10:32:58Z</time>
      </trkpt>
      <trkpt lat="45.54854" lon="6.79681">
        <ele>2454.3</ele>
        <time>2021-03-25T10:32:59Z</time>
      </trkpt>
      <trkpt lat="45.54855" lon="6.79681">
        <ele>2454.3</ele>
        <time>2021-03-25T10:33:00Z</time>
      </trkpt>
      <trkpt lat="45.54855" lon="6.79682">
        <ele>2454.3</ele>
        <time>2021-03-25T10:33:01Z</time>
      </trkpt>
      <trkpt lat="45.54856" lon="6.79683">
        <ele>2454.3</ele>
        <time>2021-03-25T10:33:02Z</time>
      </trkpt>
      <trkpt lat="45.54856" lon="6.79684">
        <ele>2452.9</ele>
        <time>2021-03-25T10:33:03Z</time>
      </trkpt>
      <trkpt lat="45.54857" lon="6.79685">
        <ele>2455.2</ele>
        <time>2021-03-25T10:33:04Z</time>
      </trkpt>
      <trkpt lat="45.54857" lon="6.79686">
        <ele>2455.2</ele>
        <time>2021-03-25T10:33:05Z</time>
      </trkpt>
      <trkpt lat="45.54857" lon="6.79687">
        <ele>2455.2</ele>
        <time>2021-03-25T10:33:06Z</time>
      </trkpt>
      <trkpt lat="45.54858" lon="6.79688">
        <ele>2455.2</ele>
        <time>2021-03-25T10:33:07Z</time>
      </trkpt>
      <trkpt lat="45.54858" lon="6.79688">
        <ele>2455.2</ele>
        <time>2021-03-25T10:33:08Z</time>
      </trkpt>
      <trkpt lat="45.54859" lon="6.79689">
        <ele>2453.7</ele>
        <time>2021-03-25T10:33:09Z</time>
      </trkpt>
      <trkpt lat="45.54859" lon="6.79689">
        <ele>2453.7</ele>
        <time>2021-03-25T10:33:10Z</time>
      </trkpt>
      <trkpt lat="45.54859" lon="6.79689">
        <ele>2456.1</ele>
        <time>2021-03-25T10:33:11Z</time>
      </trkpt>
      <trkpt lat="45.5486" lon="6.7969">
        <ele>2456.1</ele>
        <time>2021-03-25T10:33:12Z</time>
      </trkpt>
      <trkpt lat="45.5486" lon="6.7969">
        <ele>2456.1</ele>
        <time>2021-03-25T10:33:13Z</time>
      </trkpt>
      <trkpt lat="45.5486" lon="6.7969">
        <ele>2456.1</ele>
        <time>2021-03-25T10:33:14Z</time>
      </trkpt>
      <trkpt lat="45.5486" lon="6.79691">
        <ele>2456.1</ele>
        <time>2021-03-25T10:33:15Z</time>
      </trkpt>
      <trkpt lat="45.54861" lon="6.79691">
        <ele>2456.1</ele>
        <time>2021-03-25T10:33:16Z</time>
      </trkpt>
      <trkpt lat="45.54862" lon="6.79692">
        <ele>2456.1</ele>
        <time>2021-03-25T10:33:17Z</time>
      </trkpt>
      <trkpt lat="45.54862" lon="6.79692">
        <ele>2456.1</ele>
        <time>2021-03-25T10:33:18Z</time>
      </trkpt>
      <trkpt lat="45.54862" lon="6.79692">
        <ele>2454.6</ele>
        <time>2021-03-25T10:33:19Z</time>
      </trkpt>
      <trkpt lat="45.54862" lon="6.79693">
        <ele>2454.6</ele>
        <time>2021-03-25T10:33:20Z</time>
      </trkpt>
      <trkpt lat="45.54862" lon="6.79693">
        <ele>2457</ele>
        <time>2021-03-25T10:33:21Z</time>
      </trkpt>
      <trkpt lat="45.54863" lon="6.79694">
        <ele>2457</ele>
        <time>2021-03-25T10:33:22Z</time>
      </trkpt>
      <trkpt lat="45.54863" lon="6.79695">
        <ele>2457</ele>
        <time>2021-03-25T10:33:23Z</time>
      </trkpt>
      <trkpt lat="45.54864" lon="6.79695">
        <ele>2457</ele>
        <time>2021-03-25T10:33:24Z</time>
      </trkpt>
      <trkpt lat="45.54864" lon="6.79696">
        <ele>2457</ele>
        <time>2021-03-25T10:33:25Z</time>
      </trkpt>
      <trkpt lat="45.54864" lon="6.79697">
        <ele>2457</ele>
        <time>2021-03-25T10:33:26Z</time>
      </trkpt>
      <trkpt lat="45.54864" lon="6.79697">
        <ele>2457</ele>
        <time>2021-03-25T10:33:27Z</time>
      </trkpt>
      <trkpt lat="45.54865" lon="6.79698">
        <ele>2459.4</ele>
        <time>2021-03-25T10:33:28Z</time>
      </trkpt>
      <trkpt lat="45.54865" lon="6.79698">
        <ele>2458</ele>
        <time>2021-03-25T10:33:29Z</time>
      </trkpt>
      <trkpt lat="45.54865" lon="6.79699">
        <ele>2458</ele>
        <time>2021-03-25T10:33:30Z</time>
      </trkpt>
      <trkpt lat="45.54865" lon="6.79699">
        <ele>2458</ele>
        <time>2021-03-25T10:33:31Z</time>
      </trkpt>
      <trkpt lat="45.54865" lon="6.797">
        <ele>2458</ele>
        <time>2021-03-25T10:33:32Z</time>
      </trkpt>
      <trkpt lat="45.54865" lon="6.797">
        <ele>2458</ele>
        <time>2021-03-25T10:33:33Z</time>
      </trkpt>
      <trkpt lat="45.54866" lon="6.79701">
        <ele>2458</ele>
        <time>2021-03-25T10:33:34Z</time>
      </trkpt>
      <trkpt lat="45.54866" lon="6.79702">
        <ele>2458</ele>
        <time>2021-03-25T10:33:35Z</time>
      </trkpt>
      <trkpt lat="45.54865" lon="6.79702">
        <ele>2461.7</ele>
        <time>2021-03-25T10:33:36Z</time>
      </trkpt>
      <trkpt lat="45.54864" lon="6.79702">
        <ele>2461.7</ele>
        <time>2021-03-25T10:34:09Z</time>
      </trkpt>
      <trkpt lat="45.54862" lon="6.79703">
        <ele>2461.7</ele>
        <time>2021-03-25T10:34:10Z</time>
      </trkpt>
      <trkpt lat="45.54861" lon="6.79703">
        <ele>2463.1</ele>
        <time>2021-03-25T10:34:11Z</time>
      </trkpt>
      <trkpt lat="45.5486" lon="6.79704">
        <ele>2463.1</ele>
        <time>2021-03-25T10:34:12Z</time>
      </trkpt>
      <trkpt lat="45.5486" lon="6.79703">
        <ele>2463.1</ele>
        <time>2021-03-25T10:34:13Z</time>
      </trkpt>
      <trkpt lat="45.54859" lon="6.79703">
        <ele>2463.1</ele>
        <time>2021-03-25T10:34:14Z</time>
      </trkpt>
      <trkpt lat="45.54858" lon="6.79702">
        <ele>2464.6</ele>
        <time>2021-03-25T10:34:15Z</time>
      </trkpt>
      <trkpt lat="45.54858" lon="6.79702">
        <ele>2464.6</ele>
        <time>2021-03-25T10:34:16Z</time>
      </trkpt>
      <trkpt lat="45.54857" lon="6.79702">
        <ele>2462.3</ele>
        <time>2021-03-25T10:34:17Z</time>
      </trkpt>
      <trkpt lat="45.54857" lon="6.79701">
        <ele>2462.3</ele>
        <time>2021-03-25T10:34:18Z</time>
      </trkpt>
      <trkpt lat="45.54856" lon="6.79701">
        <ele>2462.3</ele>
        <time>2021-03-25T10:34:19Z</time>
      </trkpt>
      <trkpt lat="45.54855" lon="6.797">
        <ele>2463.8</ele>
        <time>2021-03-25T10:34:20Z</time>
      </trkpt>
      <trkpt lat="45.54855" lon="6.797">
        <ele>2463.8</ele>
        <time>2021-03-25T10:34:21Z</time>
      </trkpt>
      <trkpt lat="45.54854" lon="6.79699">
        <ele>2463.8</ele>
        <time>2021-03-25T10:34:22Z</time>
      </trkpt>
      <trkpt lat="45.54854" lon="6.79699">
        <ele>2463.8</ele>
        <time>2021-03-25T10:34:23Z</time>
      </trkpt>
      <trkpt lat="45.54853" lon="6.79699">
        <ele>2463.8</ele>
        <time>2021-03-25T10:34:24Z</time>
      </trkpt>
      <trkpt lat="45.54852" lon="6.79699">
        <ele>2465.1</ele>
        <time>2021-03-25T10:34:25Z</time>
      </trkpt>
      <trkpt lat="45.54852" lon="6.79699">
        <ele>2465.1</ele>
        <time>2021-03-25T10:34:26Z</time>
      </trkpt>
      <trkpt lat="45.54851" lon="6.79699">
        <ele>2465.1</ele>
        <time>2021-03-25T10:34:27Z</time>
      </trkpt>
      <trkpt lat="45.54851" lon="6.79699">
        <ele>2465.1</ele>
        <time>2021-03-25T10:34:28Z</time>
      </trkpt>
      <trkpt lat="45.5485" lon="6.79699">
        <ele>2466.4</ele>
        <time>2021-03-25T10:34:29Z</time>
      </trkpt>
      <trkpt lat="45.54849" lon="6.79698">
        <ele>2466.4</ele>
        <time>2021-03-25T10:34:30Z</time>
      </trkpt>
      <trkpt lat="45.54848" lon="6.79698">
        <ele>2466.4</ele>
        <time>2021-03-25T10:34:31Z</time>
      </trkpt>
      <trkpt lat="45.54847" lon="6.79698">
        <ele>2466.4</ele>
        <time>2021-03-25T10:34:32Z</time>
      </trkpt>
      <trkpt lat="45.54847" lon="6.79698">
        <ele>2466.4</ele>
        <time>2021-03-25T10:34:33Z</time>
      </trkpt>
      <trkpt lat="45.54847" lon="6.79697">
        <ele>2464.1</ele>
        <time>2021-03-25T10:34:34Z</time>
      </trkpt>
      <trkpt lat="45.54847" lon="6.79697">
        <ele>2465.3</ele>
        <time>2021-03-25T10:34:35Z</time>
      </trkpt>
      <trkpt lat="45.54846" lon="6.79697">
        <ele>2465.3</ele>
        <time>2021-03-25T10:34:36Z</time>
      </trkpt>
      <trkpt lat="45.54845" lon="6.79697">
        <ele>2465.3</ele>
        <time>2021-03-25T10:34:37Z</time>
      </trkpt>
      <trkpt lat="45.54845" lon="6.79699">
        <ele>2467.6</ele>
        <time>2021-03-25T10:34:38Z</time>
      </trkpt>
      <trkpt lat="45.54846" lon="6.79699">
        <ele>2467.6</ele>
        <time>2021-03-25T10:34:39Z</time>
      </trkpt>
      <trkpt lat="45.54846" lon="6.797">
        <ele>2467.6</ele>
        <time>2021-03-25T10:34:40Z</time>
      </trkpt>
      <trkpt lat="45.54846" lon="6.79701">
        <ele>2467.6</ele>
        <time>2021-03-25T10:34:41Z</time>
      </trkpt>
      <trkpt lat="45.54847" lon="6.79702">
        <ele>2469.8</ele>
        <time>2021-03-25T10:34:42Z</time>
      </trkpt>
      <trkpt lat="45.54847" lon="6.79703">
        <ele>2468.7</ele>
        <time>2021-03-25T10:34:43Z</time>
      </trkpt>
      <trkpt lat="45.54848" lon="6.79704">
        <ele>2468.7</ele>
        <time>2021-03-25T10:34:44Z</time>
      </trkpt>
      <trkpt lat="45.54848" lon="6.79704">
        <ele>2468.7</ele>
        <time>2021-03-25T10:34:45Z</time>
      </trkpt>
      <trkpt lat="45.54849" lon="6.79705">
        <ele>2468.7</ele>
        <time>2021-03-25T10:34:46Z</time>
      </trkpt>
      <trkpt lat="45.54849" lon="6.79706">
        <ele>2470.8</ele>
        <time>2021-03-25T10:34:47Z</time>
      </trkpt>
      <trkpt lat="45.54849" lon="6.79707">
        <ele>2470.8</ele>
        <time>2021-03-25T10:34:56Z</time>
      </trkpt>
      <trkpt lat="45.5485" lon="6.79708">
        <ele>2470.8</ele>
        <time>2021-03-25T10:34:57Z</time>
      </trkpt>
      <trkpt lat="45.5485" lon="6.79709">
        <ele>2469.5</ele>
        <time>2021-03-25T10:34:58Z</time>
      </trkpt>
      <trkpt lat="45.54851" lon="6.7971">
        <ele>2469.5</ele>
        <time>2021-03-25T10:34:59Z</time>
      </trkpt>
      <trkpt lat="45.54851" lon="6.7971">
        <ele>2471.6</ele>
        <time>2021-03-25T10:35:00Z</time>
      </trkpt>
      <trkpt lat="45.54852" lon="6.79711">
        <ele>2471.6</ele>
        <time>2021-03-25T10:35:01Z</time>
      </trkpt>
      <trkpt lat="45.54852" lon="6.79712">
        <ele>2471.6</ele>
        <time>2021-03-25T10:35:02Z</time>
      </trkpt>
      <trkpt lat="45.54852" lon="6.79713">
        <ele>2471.6</ele>
        <time>2021-03-25T10:35:03Z</time>
      </trkpt>
      <trkpt lat="45.54853" lon="6.79714">
        <ele>2470.3</ele>
        <time>2021-03-25T10:35:04Z</time>
      </trkpt>
      <trkpt lat="45.54853" lon="6.79715">
        <ele>2472.4</ele>
        <time>2021-03-25T10:35:05Z</time>
      </trkpt>
      <trkpt lat="45.54854" lon="6.79716">
        <ele>2472.4</ele>
        <time>2021-03-25T10:36:00Z</time>
      </trkpt>
      <trkpt lat="45.54854" lon="6.79716">
        <ele>2472.4</ele>
        <time>2021-03-25T10:36:01Z</time>
      </trkpt>
      <trkpt lat="45.54855" lon="6.79717">
        <ele>2472.4</ele>
        <time>2021-03-25T10:36:02Z</time>
      </trkpt>
      <trkpt lat="45.54855" lon="6.79718">
        <ele>2472.4</ele>
        <time>2021-03-25T10:36:03Z</time>
      </trkpt>
      <trkpt lat="45.54856" lon="6.79719">
        <ele>2474.5</ele>
        <time>2021-03-25T10:36:04Z</time>
      </trkpt>
      <trkpt lat="45.54856" lon="6.7972">
        <ele>2473.2</ele>
        <time>2021-03-25T10:36:05Z</time>
      </trkpt>
      <trkpt lat="45.54856" lon="6.7972">
        <ele>2473.2</ele>
        <time>2021-03-25T10:36:06Z</time>
      </trkpt>
      <trkpt lat="45.54857" lon="6.79721">
        <ele>2473.2</ele>
        <time>2021-03-25T10:36:07Z</time>
      </trkpt>
      <trkpt lat="45.54857" lon="6.79721">
        <ele>2473.2</ele>
        <time>2021-03-25T10:36:08Z</time>
      </trkpt>
      <trkpt lat="45.54858" lon="6.79722">
        <ele>2473.2</ele>
        <time>2021-03-25T10:36:09Z</time>
      </trkpt>
      <trkpt lat="45.54858" lon="6.79722">
        <ele>2473.2</ele>
        <time>2021-03-25T10:36:10Z</time>
      </trkpt>
      <trkpt lat="45.54858" lon="6.79723">
        <ele>2473.2</ele>
        <time>2021-03-25T10:36:11Z</time>
      </trkpt>
      <trkpt lat="45.54858" lon="6.79723">
        <ele>2475.5</ele>
        <time>2021-03-25T10:36:12Z</time>
      </trkpt>
      <trkpt lat="45.54858" lon="6.79724">
        <ele>2475.5</ele>
        <time>2021-03-25T10:36:13Z</time>
      </trkpt>
      <trkpt lat="45.54859" lon="6.79725">
        <ele>2475.5</ele>
        <time>2021-03-25T10:36:14Z</time>
      </trkpt>
      <trkpt lat="45.54859" lon="6.79725">
        <ele>2474.2</ele>
        <time>2021-03-25T10:36:15Z</time>
      </trkpt>
      <trkpt lat="45.54859" lon="6.79725">
        <ele>2474.2</ele>
        <time>2021-03-25T10:36:16Z</time>
      </trkpt>
      <trkpt lat="45.54859" lon="6.79726">
        <ele>2474.2</ele>
        <time>2021-03-25T10:36:17Z</time>
      </trkpt>
      <trkpt lat="45.5486" lon="6.79726">
        <ele>2474.2</ele>
        <time>2021-03-25T10:36:18Z</time>
      </trkpt>
      <trkpt lat="45.5486" lon="6.79726">
        <ele>2474.2</ele>
        <time>2021-03-25T10:36:19Z</time>
      </trkpt>
      <trkpt lat="45.54859" lon="6.79726">
        <ele>2474.2</ele>
        <time>2021-03-25T10:36:20Z</time>
      </trkpt>
      <trkpt lat="45.54859" lon="6.79726">
        <ele>2474.2</ele>
        <time>2021-03-25T10:36:21Z</time>
      </trkpt>
      <trkpt lat="45.54859" lon="6.79726">
        <ele>2474.2</ele>
        <time>2021-03-25T10:36:22Z</time>
      </trkpt>
      <trkpt lat="45.54859" lon="6.79726">
        <ele>2474.2</ele>
        <time>2021-03-25T10:36:23Z</time>
      </trkpt>
      <trkpt lat="45.54859" lon="6.79726">
        <ele>2474.2</ele>
        <time>2021-03-25T10:36:24Z</time>
      </trkpt>
      <trkpt lat="45.54857" lon="6.79726">
        <ele>2475.5</ele>
        <time>2021-03-25T10:36:25Z</time>
      </trkpt>
      <trkpt lat="45.54857" lon="6.79726">
        <ele>2475.5</ele>
        <time>2021-03-25T10:36:26Z</time>
      </trkpt>
      <trkpt lat="45.54856" lon="6.79726">
        <ele>2475.5</ele>
        <time>2021-03-25T10:36:27Z</time>
      </trkpt>
      <trkpt lat="45.54855" lon="6.79726">
        <ele>2476.8</ele>
        <time>2021-03-25T10:36:28Z</time>
      </trkpt>
      <trkpt lat="45.54855" lon="6.79725">
        <ele>2476.8</ele>
        <time>2021-03-25T10:36:29Z</time>
      </trkpt>
      <trkpt lat="45.54854" lon="6.79725">
        <ele>2476.8</ele>
        <time>2021-03-25T10:36:30Z</time>
      </trkpt>
      <trkpt lat="45.54854" lon="6.79725">
        <ele>2476.8</ele>
        <time>2021-03-25T10:36:31Z</time>
      </trkpt>
      <trkpt lat="45.54853" lon="6.79725">
        <ele>2476.8</ele>
        <time>2021-03-25T10:36:32Z</time>
      </trkpt>
      <trkpt lat="45.54852" lon="6.79725">
        <ele>2478</ele>
        <time>2021-03-25T10:36:33Z</time>
      </trkpt>
      <trkpt lat="45.54852" lon="6.79725">
        <ele>2478</ele>
        <time>2021-03-25T10:36:34Z</time>
      </trkpt>
      <trkpt lat="45.54851" lon="6.79725">
        <ele>2478</ele>
        <time>2021-03-25T10:36:35Z</time>
      </trkpt>
      <trkpt lat="45.54851" lon="6.79725">
        <ele>2478</ele>
        <time>2021-03-25T10:36:36Z</time>
      </trkpt>
      <trkpt lat="45.5485" lon="6.79725">
        <ele>2478</ele>
        <time>2021-03-25T10:36:37Z</time>
      </trkpt>
      <trkpt lat="45.5485" lon="6.79725">
        <ele>2479.2</ele>
        <time>2021-03-25T10:36:38Z</time>
      </trkpt>
      <trkpt lat="45.54849" lon="6.79725">
        <ele>2479.2</ele>
        <time>2021-03-25T10:36:39Z</time>
      </trkpt>
      <trkpt lat="45.54848" lon="6.79725">
        <ele>2479.2</ele>
        <time>2021-03-25T10:36:40Z</time>
      </trkpt>
      <trkpt lat="45.54848" lon="6.79725">
        <ele>2479.2</ele>
        <time>2021-03-25T10:36:41Z</time>
      </trkpt>
      <trkpt lat="45.54847" lon="6.79725">
        <ele>2480.3</ele>
        <time>2021-03-25T10:36:42Z</time>
      </trkpt>
      <trkpt lat="45.54846" lon="6.79725">
        <ele>2480.3</ele>
        <time>2021-03-25T10:36:43Z</time>
      </trkpt>
      <trkpt lat="45.54845" lon="6.79725">
        <ele>2480.3</ele>
        <time>2021-03-25T10:36:44Z</time>
      </trkpt>
      <trkpt lat="45.54845" lon="6.79725">
        <ele>2480.3</ele>
        <time>2021-03-25T10:36:45Z</time>
      </trkpt>
      <trkpt lat="45.54844" lon="6.79724">
        <ele>2481.3</ele>
        <time>2021-03-25T10:36:46Z</time>
      </trkpt>
      <trkpt lat="45.54843" lon="6.79724">
        <ele>2481.3</ele>
        <time>2021-03-25T10:36:47Z</time>
      </trkpt>
      <trkpt lat="45.54843" lon="6.79724">
        <ele>2481.3</ele>
        <time>2021-03-25T10:36:48Z</time>
      </trkpt>
      <trkpt lat="45.54842" lon="6.79724">
        <ele>2481.3</ele>
        <time>2021-03-25T10:36:49Z</time>
      </trkpt>
      <trkpt lat="45.54841" lon="6.79724">
        <ele>2481.3</ele>
        <time>2021-03-25T10:36:50Z</time>
      </trkpt>
      <trkpt lat="45.54841" lon="6.79724">
        <ele>2482.4</ele>
        <time>2021-03-25T10:36:51Z</time>
      </trkpt>
      <trkpt lat="45.5484" lon="6.79724">
        <ele>2482.4</ele>
        <time>2021-03-25T10:36:52Z</time>
      </trkpt>
      <trkpt lat="45.5484" lon="6.79724">
        <ele>2482.4</ele>
        <time>2021-03-25T10:36:53Z</time>
      </trkpt>
      <trkpt lat="45.54839" lon="6.79724">
        <ele>2482.4</ele>
        <time>2021-03-25T10:36:54Z</time>
      </trkpt>
      <trkpt lat="45.54838" lon="6.79723">
        <ele>2482.4</ele>
        <time>2021-03-25T10:36:55Z</time>
      </trkpt>
      <trkpt lat="45.54838" lon="6.79723">
        <ele>2480.3</ele>
        <time>2021-03-25T10:36:56Z</time>
      </trkpt>
      <trkpt lat="45.54837" lon="6.79723">
        <ele>2481.4</ele>
        <time>2021-03-25T10:36:57Z</time>
      </trkpt>
      <trkpt lat="45.54836" lon="6.79722">
        <ele>2481.4</ele>
        <time>2021-03-25T10:36:58Z</time>
      </trkpt>
      <trkpt lat="45.54836" lon="6.79722">
        <ele>2481.4</ele>
        <time>2021-03-25T10:36:59Z</time>
      </trkpt>
      <trkpt lat="45.54835" lon="6.79722">
        <ele>2482.6</ele>
        <time>2021-03-25T10:37:00Z</time>
      </trkpt>
      <trkpt lat="45.54834" lon="6.79722">
        <ele>2482.6</ele>
        <time>2021-03-25T10:37:01Z</time>
      </trkpt>
      <trkpt lat="45.54833" lon="6.79722">
        <ele>2482.6</ele>
        <time>2021-03-25T10:37:02Z</time>
      </trkpt>
      <trkpt lat="45.54833" lon="6.79722">
        <ele>2482.6</ele>
        <time>2021-03-25T10:37:03Z</time>
      </trkpt>
      <trkpt lat="45.54832" lon="6.79723">
        <ele>2482.6</ele>
        <time>2021-03-25T10:37:04Z</time>
      </trkpt>
      <trkpt lat="45.54831" lon="6.79723">
        <ele>2483.9</ele>
        <time>2021-03-25T10:37:05Z</time>
      </trkpt>
      <trkpt lat="45.54831" lon="6.79723">
        <ele>2486</ele>
        <time>2021-03-25T10:37:06Z</time>
      </trkpt>
      <trkpt lat="45.5483" lon="6.79724">
        <ele>2486</ele>
        <time>2021-03-25T10:37:07Z</time>
      </trkpt>
      <trkpt lat="45.5483" lon="6.79724">
        <ele>2486</ele>
        <time>2021-03-25T10:37:08Z</time>
      </trkpt>
      <trkpt lat="45.54829" lon="6.79725">
        <ele>2486</ele>
        <time>2021-03-25T10:37:09Z</time>
      </trkpt>
      <trkpt lat="45.54828" lon="6.79725">
        <ele>2487.1</ele>
        <time>2021-03-25T10:37:10Z</time>
      </trkpt>
      <trkpt lat="45.54828" lon="6.79726">
        <ele>2487.1</ele>
        <time>2021-03-25T10:37:11Z</time>
      </trkpt>
      <trkpt lat="45.54827" lon="6.79726">
        <ele>2487.1</ele>
        <time>2021-03-25T10:37:12Z</time>
      </trkpt>
      <trkpt lat="45.54826" lon="6.79727">
        <ele>2487.1</ele>
        <time>2021-03-25T10:37:13Z</time>
      </trkpt>
      <trkpt lat="45.54826" lon="6.79727">
        <ele>2488.2</ele>
        <time>2021-03-25T10:37:14Z</time>
      </trkpt>
      <trkpt lat="45.54825" lon="6.79728">
        <ele>2488.2</ele>
        <time>2021-03-25T10:37:15Z</time>
      </trkpt>
      <trkpt lat="45.54824" lon="6.79728">
        <ele>2490.3</ele>
        <time>2021-03-25T10:37:16Z</time>
      </trkpt>
      <trkpt lat="45.54824" lon="6.79729">
        <ele>2490.3</ele>
        <time>2021-03-25T10:37:17Z</time>
      </trkpt>
      <trkpt lat="45.54823" lon="6.79729">
        <ele>2490.3</ele>
        <time>2021-03-25T10:37:18Z</time>
      </trkpt>
      <trkpt lat="45.54822" lon="6.7973">
        <ele>2491.2</ele>
        <time>2021-03-25T10:37:19Z</time>
      </trkpt>
      <trkpt lat="45.54822" lon="6.79731">
        <ele>2491.2</ele>
        <time>2021-03-25T10:37:20Z</time>
      </trkpt>
      <trkpt lat="45.54821" lon="6.79731">
        <ele>2491.2</ele>
        <time>2021-03-25T10:37:21Z</time>
      </trkpt>
      <trkpt lat="45.54821" lon="6.79732">
        <ele>2491.2</ele>
        <time>2021-03-25T10:37:22Z</time>
      </trkpt>
      <trkpt lat="45.5482" lon="6.79732">
        <ele>2493.3</ele>
        <time>2021-03-25T10:37:23Z</time>
      </trkpt>
      <trkpt lat="45.5482" lon="6.79733">
        <ele>2494.2</ele>
        <time>2021-03-25T10:37:24Z</time>
      </trkpt>
      <trkpt lat="45.54819" lon="6.79734">
        <ele>2494.2</ele>
        <time>2021-03-25T10:37:25Z</time>
      </trkpt>
      <trkpt lat="45.54819" lon="6.79734">
        <ele>2494.2</ele>
        <time>2021-03-25T10:37:26Z</time>
      </trkpt>
      <trkpt lat="45.54818" lon="6.79735">
        <ele>2494.2</ele>
        <time>2021-03-25T10:37:27Z</time>
      </trkpt>
      <trkpt lat="45.54818" lon="6.79735">
        <ele>2494.2</ele>
        <time>2021-03-25T10:37:28Z</time>
      </trkpt>
      <trkpt lat="45.54817" lon="6.79735">
        <ele>2494.2</ele>
        <time>2021-03-25T10:37:29Z</time>
      </trkpt>
      <trkpt lat="45.54817" lon="6.79736">
        <ele>2495</ele>
        <time>2021-03-25T10:37:30Z</time>
      </trkpt>
      <trkpt lat="45.54816" lon="6.79736">
        <ele>2497</ele>
        <time>2021-03-25T10:37:31Z</time>
      </trkpt>
      <trkpt lat="45.54817" lon="6.79737">
        <ele>2497</ele>
        <time>2021-03-25T10:37:32Z</time>
      </trkpt>
      <trkpt lat="45.54817" lon="6.79737">
        <ele>2496.2</ele>
        <time>2021-03-25T10:37:33Z</time>
      </trkpt>
      <trkpt lat="45.54817" lon="6.79737">
        <ele>2496.2</ele>
        <time>2021-03-25T10:37:34Z</time>
      </trkpt>
      <trkpt lat="45.54818" lon="6.79737">
        <ele>2496.2</ele>
        <time>2021-03-25T10:37:35Z</time>
      </trkpt>
      <trkpt lat="45.54818" lon="6.79738">
        <ele>2496.2</ele>
        <time>2021-03-25T10:37:36Z</time>
      </trkpt>
      <trkpt lat="45.54818" lon="6.79738">
        <ele>2496.2</ele>
        <time>2021-03-25T10:37:37Z</time>
      </trkpt>
      <trkpt lat="45.54818" lon="6.79738">
        <ele>2496.2</ele>
        <time>2021-03-25T10:37:38Z</time>
      </trkpt>
      <trkpt lat="45.54819" lon="6.79738">
        <ele>2496.2</ele>
        <time>2021-03-25T10:37:39Z</time>
      </trkpt>
      <trkpt lat="45.54819" lon="6.79739">
        <ele>2496.2</ele>
        <time>2021-03-25T10:37:40Z</time>
      </trkpt>
      <trkpt lat="45.54819" lon="6.79739">
        <ele>2496.2</ele>
        <time>2021-03-25T10:37:41Z</time>
      </trkpt>
      <trkpt lat="45.5482" lon="6.79739">
        <ele>2496.2</ele>
        <time>2021-03-25T10:37:42Z</time>
      </trkpt>
      <trkpt lat="45.5482" lon="6.79739">
        <ele>2495.4</ele>
        <time>2021-03-25T10:37:43Z</time>
      </trkpt>
      <trkpt lat="45.5482" lon="6.7974">
        <ele>2495.4</ele>
        <time>2021-03-25T10:37:58Z</time>
      </trkpt>
      <trkpt lat="45.5482" lon="6.7974">
        <ele>2495.4</ele>
        <time>2021-03-25T10:37:59Z</time>
      </trkpt>
      <trkpt lat="45.54821" lon="6.7974">
        <ele>2495.4</ele>
        <time>2021-03-25T10:38:00Z</time>
      </trkpt>
      <trkpt lat="45.54821" lon="6.7974">
        <ele>2495.4</ele>
        <time>2021-03-25T10:38:01Z</time>
      </trkpt>
      <trkpt lat="45.54821" lon="6.79741">
        <ele>2497.4</ele>
        <time>2021-03-25T10:38:02Z</time>
      </trkpt>
      <trkpt lat="45.54822" lon="6.79741">
        <ele>2497.4</ele>
        <time>2021-03-25T10:38:03Z</time>
      </trkpt>
      <trkpt lat="45.54822" lon="6.79742">
        <ele>2497.4</ele>
        <time>2021-03-25T10:38:04Z</time>
      </trkpt>
      <trkpt lat="45.54823" lon="6.79742">
        <ele>2497.4</ele>
        <time>2021-03-25T10:38:05Z</time>
      </trkpt>
      <trkpt lat="45.54823" lon="6.79742">
        <ele>2496.5</ele>
        <time>2021-03-25T10:38:06Z</time>
      </trkpt>
      <trkpt lat="45.54824" lon="6.79743">
        <ele>2496.5</ele>
        <time>2021-03-25T10:38:07Z</time>
      </trkpt>
      <trkpt lat="45.54824" lon="6.79744">
        <ele>2496.5</ele>
        <time>2021-03-25T10:38:08Z</time>
      </trkpt>
      <trkpt lat="45.54824" lon="6.79745">
        <ele>2496.5</ele>
        <time>2021-03-25T10:38:09Z</time>
      </trkpt>
      <trkpt lat="45.54825" lon="6.79745">
        <ele>2498.5</ele>
        <time>2021-03-25T10:38:10Z</time>
      </trkpt>
      <trkpt lat="45.54825" lon="6.79746">
        <ele>2498.5</ele>
        <time>2021-03-25T10:38:11Z</time>
      </trkpt>
      <trkpt lat="45.54825" lon="6.79746">
        <ele>2498.5</ele>
        <time>2021-03-25T10:38:12Z</time>
      </trkpt>
      <trkpt lat="45.54825" lon="6.79746">
        <ele>2498.5</ele>
        <time>2021-03-25T10:38:13Z</time>
      </trkpt>
      <trkpt lat="45.54825" lon="6.79746">
        <ele>2498.5</ele>
        <time>2021-03-25T10:38:14Z</time>
      </trkpt>
      <trkpt lat="45.54826" lon="6.79747">
        <ele>2497.5</ele>
        <time>2021-03-25T10:38:15Z</time>
      </trkpt>
      <trkpt lat="45.54827" lon="6.79747">
        <ele>2497.5</ele>
        <time>2021-03-25T10:38:16Z</time>
      </trkpt>
      <trkpt lat="45.54827" lon="6.79748">
        <ele>2497.5</ele>
        <time>2021-03-25T10:38:17Z</time>
      </trkpt>
      <trkpt lat="45.54828" lon="6.79748">
        <ele>2497.5</ele>
        <time>2021-03-25T10:38:18Z</time>
      </trkpt>
      <trkpt lat="45.54829" lon="6.79748">
        <ele>2497.5</ele>
        <time>2021-03-25T10:38:19Z</time>
      </trkpt>
      <trkpt lat="45.54829" lon="6.79748">
        <ele>2496.5</ele>
        <time>2021-03-25T10:38:20Z</time>
      </trkpt>
      <trkpt lat="45.5483" lon="6.79748">
        <ele>2496.5</ele>
        <time>2021-03-25T10:38:21Z</time>
      </trkpt>
      <trkpt lat="45.54831" lon="6.79749">
        <ele>2498.4</ele>
        <time>2021-03-25T10:38:22Z</time>
      </trkpt>
      <trkpt lat="45.54831" lon="6.79749">
        <ele>2498.4</ele>
        <time>2021-03-25T10:38:23Z</time>
      </trkpt>
      <trkpt lat="45.54832" lon="6.7975">
        <ele>2498.4</ele>
        <time>2021-03-25T10:38:24Z</time>
      </trkpt>
      <trkpt lat="45.54832" lon="6.7975">
        <ele>2497.3</ele>
        <time>2021-03-25T10:38:25Z</time>
      </trkpt>
      <trkpt lat="45.54833" lon="6.7975">
        <ele>2497.3</ele>
        <time>2021-03-25T10:38:26Z</time>
      </trkpt>
      <trkpt lat="45.54833" lon="6.7975">
        <ele>2497.3</ele>
        <time>2021-03-25T10:38:27Z</time>
      </trkpt>
      <trkpt lat="45.54834" lon="6.7975">
        <ele>2497.3</ele>
        <time>2021-03-25T10:38:28Z</time>
      </trkpt>
      <trkpt lat="45.54834" lon="6.79751">
        <ele>2497.3</ele>
        <time>2021-03-25T10:38:29Z</time>
      </trkpt>
      <trkpt lat="45.54835" lon="6.79752">
        <ele>2497.3</ele>
        <time>2021-03-25T10:38:30Z</time>
      </trkpt>
      <trkpt lat="45.54835" lon="6.79752">
        <ele>2496.3</ele>
        <time>2021-03-25T10:38:31Z</time>
      </trkpt>
      <trkpt lat="45.54835" lon="6.79753">
        <ele>2496.3</ele>
        <time>2021-03-25T10:38:32Z</time>
      </trkpt>
      <trkpt lat="45.54836" lon="6.79754">
        <ele>2498.2</ele>
        <time>2021-03-25T10:38:33Z</time>
      </trkpt>
      <trkpt lat="45.54836" lon="6.79755">
        <ele>2498.2</ele>
        <time>2021-03-25T10:38:34Z</time>
      </trkpt>
      <trkpt lat="45.54836" lon="6.79756">
        <ele>2498.2</ele>
        <time>2021-03-25T10:38:35Z</time>
      </trkpt>
      <trkpt lat="45.54837" lon="6.79757">
        <ele>2498.2</ele>
        <time>2021-03-25T10:38:36Z</time>
      </trkpt>
      <trkpt lat="45.54837" lon="6.79757">
        <ele>2498.2</ele>
        <time>2021-03-25T10:38:37Z</time>
      </trkpt>
      <trkpt lat="45.54838" lon="6.79757">
        <ele>2498.2</ele>
        <time>2021-03-25T10:38:38Z</time>
      </trkpt>
      <trkpt lat="45.54838" lon="6.79757">
        <ele>2497.2</ele>
        <time>2021-03-25T10:38:39Z</time>
      </trkpt>
      <trkpt lat="45.54839" lon="6.79757">
        <ele>2497.2</ele>
        <time>2021-03-25T10:38:40Z</time>
      </trkpt>
      <trkpt lat="45.54839" lon="6.79757">
        <ele>2497.2</ele>
        <time>2021-03-25T10:38:41Z</time>
      </trkpt>
      <trkpt lat="45.5484" lon="6.79758">
        <ele>2499</ele>
        <time>2021-03-25T10:38:42Z</time>
      </trkpt>
      <trkpt lat="45.5484" lon="6.79758">
        <ele>2499</ele>
        <time>2021-03-25T10:38:43Z</time>
      </trkpt>
      <trkpt lat="45.54841" lon="6.79758">
        <ele>2499</ele>
        <time>2021-03-25T10:38:44Z</time>
      </trkpt>
      <trkpt lat="45.54841" lon="6.79759">
        <ele>2498.1</ele>
        <time>2021-03-25T10:38:45Z</time>
      </trkpt>
      <trkpt lat="45.54842" lon="6.79759">
        <ele>2498.1</ele>
        <time>2021-03-25T10:38:46Z</time>
      </trkpt>
      <trkpt lat="45.54842" lon="6.79761">
        <ele>2498.1</ele>
        <time>2021-03-25T10:38:47Z</time>
      </trkpt>
      <trkpt lat="45.54842" lon="6.79762">
        <ele>2500</ele>
        <time>2021-03-25T10:38:48Z</time>
      </trkpt>
      <trkpt lat="45.54842" lon="6.79763">
        <ele>2500</ele>
        <time>2021-03-25T10:38:49Z</time>
      </trkpt>
      <trkpt lat="45.54842" lon="6.79764">
        <ele>2500</ele>
        <time>2021-03-25T10:38:50Z</time>
      </trkpt>
      <trkpt lat="45.54843" lon="6.79764">
        <ele>2500</ele>
        <time>2021-03-25T10:38:51Z</time>
      </trkpt>
      <trkpt lat="45.54843" lon="6.79764">
        <ele>2500</ele>
        <time>2021-03-25T10:38:52Z</time>
      </trkpt>
      <trkpt lat="45.54843" lon="6.79764">
        <ele>2500</ele>
        <time>2021-03-25T10:38:53Z</time>
      </trkpt>
      <trkpt lat="45.54843" lon="6.79764">
        <ele>2500</ele>
        <time>2021-03-25T10:38:54Z</time>
      </trkpt>
      <trkpt lat="45.54844" lon="6.79764">
        <ele>2500</ele>
        <time>2021-03-25T10:38:55Z</time>
      </trkpt>
      <trkpt lat="45.54844" lon="6.79764">
        <ele>2500</ele>
        <time>2021-03-25T10:38:56Z</time>
      </trkpt>
      <trkpt lat="45.54844" lon="6.79764">
        <ele>2499.1</ele>
        <time>2021-03-25T10:38:57Z</time>
      </trkpt>
      <trkpt lat="45.54845" lon="6.79763">
        <ele>2499.1</ele>
        <time>2021-03-25T10:38:58Z</time>
      </trkpt>
      <trkpt lat="45.54845" lon="6.79763">
        <ele>2499.1</ele>
        <time>2021-03-25T10:38:59Z</time>
      </trkpt>
      <trkpt lat="45.54846" lon="6.79763">
        <ele>2499.1</ele>
        <time>2021-03-25T10:39:00Z</time>
      </trkpt>
      <trkpt lat="45.54846" lon="6.79766">
        <ele>2499.1</ele>
        <time>2021-03-25T10:39:52Z</time>
      </trkpt>
      <trkpt lat="45.54845" lon="6.79766">
        <ele>2499.1</ele>
        <time>2021-03-25T10:39:53Z</time>
      </trkpt>
      <trkpt lat="45.54844" lon="6.79766">
        <ele>2501</ele>
        <time>2021-03-25T10:39:54Z</time>
      </trkpt>
      <trkpt lat="45.54843" lon="6.79767">
        <ele>2501.9</ele>
        <time>2021-03-25T10:39:55Z</time>
      </trkpt>
      <trkpt lat="45.54843" lon="6.79767">
        <ele>2501.9</ele>
        <time>2021-03-25T10:39:56Z</time>
      </trkpt>
      <trkpt lat="45.54842" lon="6.79767">
        <ele>2501.9</ele>
        <time>2021-03-25T10:39:57Z</time>
      </trkpt>
      <trkpt lat="45.54841" lon="6.79767">
        <ele>2501.9</ele>
        <time>2021-03-25T10:39:58Z</time>
      </trkpt>
      <trkpt lat="45.5484" lon="6.79767">
        <ele>2502.7</ele>
        <time>2021-03-25T10:39:59Z</time>
      </trkpt>
      <trkpt lat="45.5484" lon="6.79767">
        <ele>2502.7</ele>
        <time>2021-03-25T10:40:00Z</time>
      </trkpt>
      <trkpt lat="45.5484" lon="6.79767">
        <ele>2502.7</ele>
        <time>2021-03-25T10:40:01Z</time>
      </trkpt>
      <trkpt lat="45.54839" lon="6.79767">
        <ele>2502.7</ele>
        <time>2021-03-25T10:40:02Z</time>
      </trkpt>
      <trkpt lat="45.54838" lon="6.79767">
        <ele>2502.7</ele>
        <time>2021-03-25T10:40:03Z</time>
      </trkpt>
      <trkpt lat="45.54837" lon="6.79767">
        <ele>2503.6</ele>
        <time>2021-03-25T10:40:04Z</time>
      </trkpt>
      <trkpt lat="45.54837" lon="6.79766">
        <ele>2503.6</ele>
        <time>2021-03-25T10:40:05Z</time>
      </trkpt>
      <trkpt lat="45.54836" lon="6.79766">
        <ele>2501.8</ele>
        <time>2021-03-25T10:40:06Z</time>
      </trkpt>
      <trkpt lat="45.54835" lon="6.79766">
        <ele>2501.8</ele>
        <time>2021-03-25T10:40:07Z</time>
      </trkpt>
      <trkpt lat="45.54835" lon="6.79765">
        <ele>2502.8</ele>
        <time>2021-03-25T10:40:08Z</time>
      </trkpt>
      <trkpt lat="45.54834" lon="6.79765">
        <ele>2502.8</ele>
        <time>2021-03-25T10:40:09Z</time>
      </trkpt>
      <trkpt lat="45.54833" lon="6.79765">
        <ele>2502.8</ele>
        <time>2021-03-25T10:40:10Z</time>
      </trkpt>
      <trkpt lat="45.54833" lon="6.79765">
        <ele>2502.8</ele>
        <time>2021-03-25T10:40:11Z</time>
      </trkpt>
      <trkpt lat="45.54833" lon="6.79765">
        <ele>2502.8</ele>
        <time>2021-03-25T10:40:12Z</time>
      </trkpt>
      <trkpt lat="45.54831" lon="6.79765">
        <ele>2503.7</ele>
        <time>2021-03-25T10:40:13Z</time>
      </trkpt>
      <trkpt lat="45.54831" lon="6.79765">
        <ele>2503.7</ele>
        <time>2021-03-25T10:40:14Z</time>
      </trkpt>
      <trkpt lat="45.5483" lon="6.79765">
        <ele>2503.7</ele>
        <time>2021-03-25T10:40:15Z</time>
      </trkpt>
      <trkpt lat="45.54829" lon="6.79765">
        <ele>2503.7</ele>
        <time>2021-03-25T10:40:16Z</time>
      </trkpt>
      <trkpt lat="45.54828" lon="6.79765">
        <ele>2504.7</ele>
        <time>2021-03-25T10:40:17Z</time>
      </trkpt>
      <trkpt lat="45.54827" lon="6.79765">
        <ele>2504.7</ele>
        <time>2021-03-25T10:40:18Z</time>
      </trkpt>
      <trkpt lat="45.54826" lon="6.79765">
        <ele>2504.7</ele>
        <time>2021-03-25T10:40:19Z</time>
      </trkpt>
      <trkpt lat="45.54826" lon="6.79766">
        <ele>2505.5</ele>
        <time>2021-03-25T10:40:20Z</time>
      </trkpt>
      <trkpt lat="45.54825" lon="6.79766">
        <ele>2505.5</ele>
        <time>2021-03-25T10:40:21Z</time>
      </trkpt>
      <trkpt lat="45.54825" lon="6.79766">
        <ele>2505.5</ele>
        <time>2021-03-25T10:40:22Z</time>
      </trkpt>
      <trkpt lat="45.54825" lon="6.79766">
        <ele>2505.5</ele>
        <time>2021-03-25T10:40:23Z</time>
      </trkpt>
      <trkpt lat="45.54824" lon="6.79766">
        <ele>2505.5</ele>
        <time>2021-03-25T10:40:24Z</time>
      </trkpt>
      <trkpt lat="45.54824" lon="6.79766">
        <ele>2505.5</ele>
        <time>2021-03-25T10:40:25Z</time>
      </trkpt>
      <trkpt lat="45.54823" lon="6.79766">
        <ele>2505.5</ele>
        <time>2021-03-25T10:40:26Z</time>
      </trkpt>
      <trkpt lat="45.54823" lon="6.79766">
        <ele>2505.5</ele>
        <time>2021-03-25T10:40:27Z</time>
      </trkpt>
      <trkpt lat="45.54823" lon="6.79766">
        <ele>2506.3</ele>
        <time>2021-03-25T10:40:28Z</time>
      </trkpt>
      <trkpt lat="45.54822" lon="6.79765">
        <ele>2506.3</ele>
        <time>2021-03-25T10:40:29Z</time>
      </trkpt>
      <trkpt lat="45.5482" lon="6.79766">
        <ele>2506.3</ele>
        <time>2021-03-25T10:40:30Z</time>
      </trkpt>
      <trkpt lat="45.5482" lon="6.79766">
        <ele>2508.6</ele>
        <time>2021-03-25T10:40:31Z</time>
      </trkpt>
      <trkpt lat="45.54819" lon="6.79767">
        <ele>2508.6</ele>
        <time>2021-03-25T10:40:34Z</time>
      </trkpt>
      <trkpt lat="45.54818" lon="6.79767">
        <ele>2508.6</ele>
        <time>2021-03-25T10:40:35Z</time>
      </trkpt>
      <trkpt lat="45.54817" lon="6.79768">
        <ele>2508.6</ele>
        <time>2021-03-25T10:40:36Z</time>
      </trkpt>
      <trkpt lat="45.54816" lon="6.79768">
        <ele>2509.2</ele>
        <time>2021-03-25T10:40:37Z</time>
      </trkpt>
      <trkpt lat="45.54816" lon="6.79769">
        <ele>2509.2</ele>
        <time>2021-03-25T10:40:38Z</time>
      </trkpt>
      <trkpt lat="45.54815" lon="6.79769">
        <ele>2509.2</ele>
        <time>2021-03-25T10:40:39Z</time>
      </trkpt>
      <trkpt lat="45.54814" lon="6.79769">
        <ele>2509.2</ele>
        <time>2021-03-25T10:40:40Z</time>
      </trkpt>
      <trkpt lat="45.54814" lon="6.79769">
        <ele>2509.8</ele>
        <time>2021-03-25T10:40:41Z</time>
      </trkpt>
      <trkpt lat="45.54813" lon="6.7977">
        <ele>2509.8</ele>
        <time>2021-03-25T10:40:42Z</time>
      </trkpt>
      <trkpt lat="45.54812" lon="6.7977">
        <ele>2509.8</ele>
        <time>2021-03-25T10:40:43Z</time>
      </trkpt>
      <trkpt lat="45.54812" lon="6.7977">
        <ele>2509.8</ele>
        <time>2021-03-25T10:40:44Z</time>
      </trkpt>
      <trkpt lat="45.54811" lon="6.79771">
        <ele>2511.4</ele>
        <time>2021-03-25T10:40:45Z</time>
      </trkpt>
      <trkpt lat="45.5481" lon="6.79771">
        <ele>2512</ele>
        <time>2021-03-25T10:40:46Z</time>
      </trkpt>
      <trkpt lat="45.54809" lon="6.79772">
        <ele>2512</ele>
        <time>2021-03-25T10:40:47Z</time>
      </trkpt>
      <trkpt lat="45.54809" lon="6.79772">
        <ele>2512</ele>
        <time>2021-03-25T10:40:48Z</time>
      </trkpt>
      <trkpt lat="45.54808" lon="6.79773">
        <ele>2512</ele>
        <time>2021-03-25T10:40:49Z</time>
      </trkpt>
      <trkpt lat="45.54807" lon="6.79774">
        <ele>2512.6</ele>
        <time>2021-03-25T10:40:50Z</time>
      </trkpt>
      <trkpt lat="45.54807" lon="6.79775">
        <ele>2514.3</ele>
        <time>2021-03-25T10:40:51Z</time>
      </trkpt>
      <trkpt lat="45.54807" lon="6.79776">
        <ele>2514.3</ele>
        <time>2021-03-25T10:40:52Z</time>
      </trkpt>
      <trkpt lat="45.54806" lon="6.79777">
        <ele>2514.3</ele>
        <time>2021-03-25T10:40:53Z</time>
      </trkpt>
      <trkpt lat="45.54806" lon="6.79778">
        <ele>2514.3</ele>
        <time>2021-03-25T10:40:54Z</time>
      </trkpt>
      <trkpt lat="45.54805" lon="6.79779">
        <ele>2514.3</ele>
        <time>2021-03-25T10:40:55Z</time>
      </trkpt>
      <trkpt lat="45.54805" lon="6.7978">
        <ele>2516.4</ele>
        <time>2021-03-25T10:40:56Z</time>
      </trkpt>
      <trkpt lat="45.54804" lon="6.7978">
        <ele>2516.4</ele>
        <time>2021-03-25T10:40:57Z</time>
      </trkpt>
      <trkpt lat="45.54804" lon="6.79781">
        <ele>2516.4</ele>
        <time>2021-03-25T10:40:58Z</time>
      </trkpt>
      <trkpt lat="45.54803" lon="6.79782">
        <ele>2516.4</ele>
        <time>2021-03-25T10:40:59Z</time>
      </trkpt>
      <trkpt lat="45.54802" lon="6.79783">
        <ele>2516.4</ele>
        <time>2021-03-25T10:41:00Z</time>
      </trkpt>
      <trkpt lat="45.54802" lon="6.79784">
        <ele>2518.5</ele>
        <time>2021-03-25T10:41:01Z</time>
      </trkpt>
      <trkpt lat="45.54801" lon="6.79785">
        <ele>2518.5</ele>
        <time>2021-03-25T10:41:02Z</time>
      </trkpt>
      <trkpt lat="45.548" lon="6.79786">
        <ele>2518.5</ele>
        <time>2021-03-25T10:41:03Z</time>
      </trkpt>
      <trkpt lat="45.548" lon="6.79787">
        <ele>2518.5</ele>
        <time>2021-03-25T10:41:04Z</time>
      </trkpt>
      <trkpt lat="45.54799" lon="6.79788">
        <ele>2520</ele>
        <time>2021-03-25T10:41:05Z</time>
      </trkpt>
      <trkpt lat="45.54798" lon="6.79789">
        <ele>2520.3</ele>
        <time>2021-03-25T10:41:06Z</time>
      </trkpt>
      <trkpt lat="45.54798" lon="6.7979">
        <ele>2520.3</ele>
        <time>2021-03-25T10:41:07Z</time>
      </trkpt>
      <trkpt lat="45.54797" lon="6.79791">
        <ele>2520.3</ele>
        <time>2021-03-25T10:41:08Z</time>
      </trkpt>
      <trkpt lat="45.54796" lon="6.79792">
        <ele>2521.7</ele>
        <time>2021-03-25T10:41:09Z</time>
      </trkpt>
      <trkpt lat="45.54796" lon="6.79793">
        <ele>2521.9</ele>
        <time>2021-03-25T10:41:10Z</time>
      </trkpt>
      <trkpt lat="45.54795" lon="6.79795">
        <ele>2521.9</ele>
        <time>2021-03-25T10:41:11Z</time>
      </trkpt>
      <trkpt lat="45.54795" lon="6.79796">
        <ele>2521.9</ele>
        <time>2021-03-25T10:41:12Z</time>
      </trkpt>
      <trkpt lat="45.54794" lon="6.79797">
        <ele>2523.2</ele>
        <time>2021-03-25T10:41:13Z</time>
      </trkpt>
      <trkpt lat="45.54793" lon="6.79798">
        <ele>2523.2</ele>
        <time>2021-03-25T10:41:14Z</time>
      </trkpt>
      <trkpt lat="45.54793" lon="6.79799">
        <ele>2523.2</ele>
        <time>2021-03-25T10:41:15Z</time>
      </trkpt>
      <trkpt lat="45.54792" lon="6.798">
        <ele>2523.4</ele>
        <time>2021-03-25T10:41:16Z</time>
      </trkpt>
      <trkpt lat="45.54792" lon="6.79801">
        <ele>2524.5</ele>
        <time>2021-03-25T10:41:17Z</time>
      </trkpt>
      <trkpt lat="45.54792" lon="6.79803">
        <ele>2524.5</ele>
        <time>2021-03-25T10:41:18Z</time>
      </trkpt>
      <trkpt lat="45.54791" lon="6.79803">
        <ele>2524.5</ele>
        <time>2021-03-25T10:41:19Z</time>
      </trkpt>
      <trkpt lat="45.54791" lon="6.79804">
        <ele>2524.5</ele>
        <time>2021-03-25T10:41:20Z</time>
      </trkpt>
      <trkpt lat="45.54791" lon="6.79805">
        <ele>2525.5</ele>
        <time>2021-03-25T10:41:21Z</time>
      </trkpt>
      <trkpt lat="45.5479" lon="6.79806">
        <ele>2525.5</ele>
        <time>2021-03-25T10:41:22Z</time>
      </trkpt>
      <trkpt lat="45.5479" lon="6.79807">
        <ele>2525.5</ele>
        <time>2021-03-25T10:41:23Z</time>
      </trkpt>
      <trkpt lat="45.54789" lon="6.79808">
        <ele>2525.6</ele>
        <time>2021-03-25T10:41:24Z</time>
      </trkpt>
      <trkpt lat="45.54789" lon="6.79809">
        <ele>2525.6</ele>
        <time>2021-03-25T10:41:25Z</time>
      </trkpt>
      <trkpt lat="45.54788" lon="6.7981">
        <ele>2526.5</ele>
        <time>2021-03-25T10:41:26Z</time>
      </trkpt>
      <trkpt lat="45.54787" lon="6.79811">
        <ele>2526.5</ele>
        <time>2021-03-25T10:41:27Z</time>
      </trkpt>
      <trkpt lat="45.54787" lon="6.79812">
        <ele>2526.5</ele>
        <time>2021-03-25T10:41:28Z</time>
      </trkpt>
      <trkpt lat="45.54786" lon="6.79812">
        <ele>2526.5</ele>
        <time>2021-03-25T10:41:29Z</time>
      </trkpt>
      <trkpt lat="45.54785" lon="6.79813">
        <ele>2526.5</ele>
        <time>2021-03-25T10:41:30Z</time>
      </trkpt>
      <trkpt lat="45.54784" lon="6.79813">
        <ele>2526.5</ele>
        <time>2021-03-25T10:41:31Z</time>
      </trkpt>
      <trkpt lat="45.54783" lon="6.79813">
        <ele>2526.4</ele>
        <time>2021-03-25T10:41:32Z</time>
      </trkpt>
      <trkpt lat="45.54782" lon="6.79813">
        <ele>2526.4</ele>
        <time>2021-03-25T10:41:33Z</time>
      </trkpt>
      <trkpt lat="45.54782" lon="6.79813">
        <ele>2526.4</ele>
        <time>2021-03-25T10:41:34Z</time>
      </trkpt>
      <trkpt lat="45.54781" lon="6.79813">
        <ele>2526.2</ele>
        <time>2021-03-25T10:41:35Z</time>
      </trkpt>
      <trkpt lat="45.5478" lon="6.79813">
        <ele>2526.2</ele>
        <time>2021-03-25T10:41:36Z</time>
      </trkpt>
      <trkpt lat="45.54779" lon="6.79813">
        <ele>2526.2</ele>
        <time>2021-03-25T10:41:37Z</time>
      </trkpt>
      <trkpt lat="45.54778" lon="6.79813">
        <ele>2526.2</ele>
        <time>2021-03-25T10:41:38Z</time>
      </trkpt>
      <trkpt lat="45.54777" lon="6.79813">
        <ele>2526</ele>
        <time>2021-03-25T10:41:39Z</time>
      </trkpt>
      <trkpt lat="45.54776" lon="6.79813">
        <ele>2526</ele>
        <time>2021-03-25T10:41:40Z</time>
      </trkpt>
      <trkpt lat="45.54775" lon="6.79813">
        <ele>2526</ele>
        <time>2021-03-25T10:41:41Z</time>
      </trkpt>
      <trkpt lat="45.54774" lon="6.79813">
        <ele>2525.7</ele>
        <time>2021-03-25T10:41:42Z</time>
      </trkpt>
      <trkpt lat="45.54773" lon="6.79813">
        <ele>2525.7</ele>
        <time>2021-03-25T10:41:43Z</time>
      </trkpt>
      <trkpt lat="45.54772" lon="6.79813">
        <ele>2525.7</ele>
        <time>2021-03-25T10:41:44Z</time>
      </trkpt>
      <trkpt lat="45.54771" lon="6.79812">
        <ele>2525.3</ele>
        <time>2021-03-25T10:41:45Z</time>
      </trkpt>
      <trkpt lat="45.5477" lon="6.79812">
        <ele>2525.3</ele>
        <time>2021-03-25T10:41:46Z</time>
      </trkpt>
      <trkpt lat="45.54769" lon="6.79813">
        <ele>2525.3</ele>
        <time>2021-03-25T10:41:47Z</time>
      </trkpt>
      <trkpt lat="45.54769" lon="6.79813">
        <ele>2525.3</ele>
        <time>2021-03-25T10:41:48Z</time>
      </trkpt>
      <trkpt lat="45.54768" lon="6.79813">
        <ele>2524.9</ele>
        <time>2021-03-25T10:41:49Z</time>
      </trkpt>
      <trkpt lat="45.54767" lon="6.79813">
        <ele>2524.9</ele>
        <time>2021-03-25T10:41:50Z</time>
      </trkpt>
      <trkpt lat="45.54767" lon="6.79813">
        <ele>2524.9</ele>
        <time>2021-03-25T10:41:51Z</time>
      </trkpt>
      <trkpt lat="45.54766" lon="6.79813">
        <ele>2524.9</ele>
        <time>2021-03-25T10:41:52Z</time>
      </trkpt>
      <trkpt lat="45.54765" lon="6.79813">
        <ele>2524.6</ele>
        <time>2021-03-25T10:41:53Z</time>
      </trkpt>
      <trkpt lat="45.54765" lon="6.79812">
        <ele>2524.6</ele>
        <time>2021-03-25T10:41:54Z</time>
      </trkpt>
      <trkpt lat="45.54764" lon="6.79812">
        <ele>2524.6</ele>
        <time>2021-03-25T10:41:55Z</time>
      </trkpt>
      <trkpt lat="45.54764" lon="6.79812">
        <ele>2524.6</ele>
        <time>2021-03-25T10:41:56Z</time>
      </trkpt>
      <trkpt lat="45.54763" lon="6.79811">
        <ele>2524.6</ele>
        <time>2021-03-25T10:41:57Z</time>
      </trkpt>
      <trkpt lat="45.54763" lon="6.79811">
        <ele>2524.2</ele>
        <time>2021-03-25T10:41:58Z</time>
      </trkpt>
      <trkpt lat="45.54762" lon="6.79811">
        <ele>2524.2</ele>
        <time>2021-03-25T10:41:59Z</time>
      </trkpt>
      <trkpt lat="45.54761" lon="6.79811">
        <ele>2524.2</ele>
        <time>2021-03-25T10:42:00Z</time>
      </trkpt>
      <trkpt lat="45.54761" lon="6.79811">
        <ele>2524.2</ele>
        <time>2021-03-25T10:42:01Z</time>
      </trkpt>
      <trkpt lat="45.5476" lon="6.79811">
        <ele>2524.2</ele>
        <time>2021-03-25T10:42:02Z</time>
      </trkpt>
      <trkpt lat="45.5476" lon="6.79811">
        <ele>2524.2</ele>
        <time>2021-03-25T10:42:03Z</time>
      </trkpt>
      <trkpt lat="45.5476" lon="6.79811">
        <ele>2524.2</ele>
        <time>2021-03-25T10:42:04Z</time>
      </trkpt>
      <trkpt lat="45.54759" lon="6.79811">
        <ele>2523.7</ele>
        <time>2021-03-25T10:42:05Z</time>
      </trkpt>
      <trkpt lat="45.54759" lon="6.79812">
        <ele>2523.7</ele>
        <time>2021-03-25T10:42:06Z</time>
      </trkpt>
      <trkpt lat="45.54758" lon="6.79812">
        <ele>2523.7</ele>
        <time>2021-03-25T10:42:07Z</time>
      </trkpt>
      <trkpt lat="45.54758" lon="6.79812">
        <ele>2523.7</ele>
        <time>2021-03-25T10:42:08Z</time>
      </trkpt>
      <trkpt lat="45.54758" lon="6.79813">
        <ele>2523.7</ele>
        <time>2021-03-25T10:42:09Z</time>
      </trkpt>
      <trkpt lat="45.54758" lon="6.79814">
        <ele>2524.3</ele>
        <time>2021-03-25T10:42:10Z</time>
      </trkpt>
      <trkpt lat="45.54757" lon="6.79814">
        <ele>2524.3</ele>
        <time>2021-03-25T10:42:11Z</time>
      </trkpt>
      <trkpt lat="45.54757" lon="6.79815">
        <ele>2524.3</ele>
        <time>2021-03-25T10:42:12Z</time>
      </trkpt>
      <trkpt lat="45.54757" lon="6.79816">
        <ele>2524.3</ele>
        <time>2021-03-25T10:42:13Z</time>
      </trkpt>
      <trkpt lat="45.54757" lon="6.79817">
        <ele>2524.3</ele>
        <time>2021-03-25T10:42:14Z</time>
      </trkpt>
      <trkpt lat="45.54758" lon="6.79817">
        <ele>2524.3</ele>
        <time>2021-03-25T10:42:15Z</time>
      </trkpt>
      <trkpt lat="45.54758" lon="6.79818">
        <ele>2524.9</ele>
        <time>2021-03-25T10:42:16Z</time>
      </trkpt>
      <trkpt lat="45.54758" lon="6.79819">
        <ele>2524.9</ele>
        <time>2021-03-25T10:42:17Z</time>
      </trkpt>
      <trkpt lat="45.54759" lon="6.7982">
        <ele>2524.9</ele>
        <time>2021-03-25T10:42:18Z</time>
      </trkpt>
      <trkpt lat="45.54759" lon="6.7982">
        <ele>2524.9</ele>
        <time>2021-03-25T10:42:19Z</time>
      </trkpt>
      <trkpt lat="45.54759" lon="6.79821">
        <ele>2524.9</ele>
        <time>2021-03-25T10:42:20Z</time>
      </trkpt>
      <trkpt lat="45.54759" lon="6.79822">
        <ele>2524.9</ele>
        <time>2021-03-25T10:42:21Z</time>
      </trkpt>
      <trkpt lat="45.5476" lon="6.79822">
        <ele>2526.1</ele>
        <time>2021-03-25T10:42:22Z</time>
      </trkpt>
      <trkpt lat="45.5476" lon="6.79823">
        <ele>2526.1</ele>
        <time>2021-03-25T10:42:23Z</time>
      </trkpt>
      <trkpt lat="45.54761" lon="6.79824">
        <ele>2526.1</ele>
        <time>2021-03-25T10:42:24Z</time>
      </trkpt>
      <trkpt lat="45.54761" lon="6.79824">
        <ele>2526.1</ele>
        <time>2021-03-25T10:42:25Z</time>
      </trkpt>
      <trkpt lat="45.54761" lon="6.79825">
        <ele>2526.1</ele>
        <time>2021-03-25T10:42:26Z</time>
      </trkpt>
      <trkpt lat="45.54762" lon="6.79826">
        <ele>2526.1</ele>
        <time>2021-03-25T10:42:27Z</time>
      </trkpt>
      <trkpt lat="45.54762" lon="6.79826">
        <ele>2526.1</ele>
        <time>2021-03-25T10:42:28Z</time>
      </trkpt>
      <trkpt lat="45.54762" lon="6.79827">
        <ele>2526.6</ele>
        <time>2021-03-25T10:42:29Z</time>
      </trkpt>
      <trkpt lat="45.54763" lon="6.79827">
        <ele>2527.2</ele>
        <time>2021-03-25T10:42:30Z</time>
      </trkpt>
      <trkpt lat="45.54764" lon="6.79828">
        <ele>2527.2</ele>
        <time>2021-03-25T10:42:31Z</time>
      </trkpt>
      <trkpt lat="45.54764" lon="6.79828">
        <ele>2527.2</ele>
        <time>2021-03-25T10:42:32Z</time>
      </trkpt>
      <trkpt lat="45.54765" lon="6.79829">
        <ele>2527.2</ele>
        <time>2021-03-25T10:42:33Z</time>
      </trkpt>
      <trkpt lat="45.54765" lon="6.7983">
        <ele>2527.2</ele>
        <time>2021-03-25T10:42:34Z</time>
      </trkpt>
      <trkpt lat="45.54766" lon="6.7983">
        <ele>2527.2</ele>
        <time>2021-03-25T10:42:35Z</time>
      </trkpt>
      <trkpt lat="45.54766" lon="6.79831">
        <ele>2528.3</ele>
        <time>2021-03-25T10:42:36Z</time>
      </trkpt>
      <trkpt lat="45.54766" lon="6.79832">
        <ele>2528.3</ele>
        <time>2021-03-25T10:42:37Z</time>
      </trkpt>
      <trkpt lat="45.54767" lon="6.79833">
        <ele>2528.3</ele>
        <time>2021-03-25T10:42:38Z</time>
      </trkpt>
      <trkpt lat="45.54767" lon="6.79833">
        <ele>2528.3</ele>
        <time>2021-03-25T10:42:39Z</time>
      </trkpt>
      <trkpt lat="45.54767" lon="6.79834">
        <ele>2528.3</ele>
        <time>2021-03-25T10:42:40Z</time>
      </trkpt>
      <trkpt lat="45.54767" lon="6.79835">
        <ele>2528.9</ele>
        <time>2021-03-25T10:42:41Z</time>
      </trkpt>
      <trkpt lat="45.54768" lon="6.79836">
        <ele>2528.9</ele>
        <time>2021-03-25T10:42:42Z</time>
      </trkpt>
      <trkpt lat="45.54768" lon="6.79837">
        <ele>2528.9</ele>
        <time>2021-03-25T10:42:43Z</time>
      </trkpt>
      <trkpt lat="45.54769" lon="6.79838">
        <ele>2529.5</ele>
        <time>2021-03-25T10:42:44Z</time>
      </trkpt>
      <trkpt lat="45.54769" lon="6.79838">
        <ele>2529.5</ele>
        <time>2021-03-25T10:42:45Z</time>
      </trkpt>
      <trkpt lat="45.5477" lon="6.79839">
        <ele>2529.5</ele>
        <time>2021-03-25T10:42:46Z</time>
      </trkpt>
      <trkpt lat="45.5477" lon="6.79839">
        <ele>2530.1</ele>
        <time>2021-03-25T10:42:47Z</time>
      </trkpt>
      <trkpt lat="45.5477" lon="6.7984">
        <ele>2530.1</ele>
        <time>2021-03-25T10:42:48Z</time>
      </trkpt>
      <trkpt lat="45.54771" lon="6.7984">
        <ele>2530.1</ele>
        <time>2021-03-25T10:42:49Z</time>
      </trkpt>
      <trkpt lat="45.54771" lon="6.79841">
        <ele>2530.1</ele>
        <time>2021-03-25T10:42:50Z</time>
      </trkpt>
      <trkpt lat="45.54772" lon="6.79841">
        <ele>2530.7</ele>
        <time>2021-03-25T10:42:51Z</time>
      </trkpt>
      <trkpt lat="45.54772" lon="6.79842">
        <ele>2530.7</ele>
        <time>2021-03-25T10:42:52Z</time>
      </trkpt>
      <trkpt lat="45.54773" lon="6.79842">
        <ele>2530.7</ele>
        <time>2021-03-25T10:42:53Z</time>
      </trkpt>
      <trkpt lat="45.54773" lon="6.79842">
        <ele>2530.7</ele>
        <time>2021-03-25T10:42:54Z</time>
      </trkpt>
      <trkpt lat="45.54773" lon="6.79843">
        <ele>2530.7</ele>
        <time>2021-03-25T10:42:55Z</time>
      </trkpt>
      <trkpt lat="45.54774" lon="6.79843">
        <ele>2530.7</ele>
        <time>2021-03-25T10:42:56Z</time>
      </trkpt>
      <trkpt lat="45.54774" lon="6.79844">
        <ele>2531.2</ele>
        <time>2021-03-25T10:42:57Z</time>
      </trkpt>
      <trkpt lat="45.54775" lon="6.79845">
        <ele>2531.8</ele>
        <time>2021-03-25T10:42:58Z</time>
      </trkpt>
      <trkpt lat="45.54775" lon="6.79846">
        <ele>2531.8</ele>
        <time>2021-03-25T10:42:59Z</time>
      </trkpt>
      <trkpt lat="45.54776" lon="6.79847">
        <ele>2531.8</ele>
        <time>2021-03-25T10:43:00Z</time>
      </trkpt>
      <trkpt lat="45.54776" lon="6.79847">
        <ele>2531.8</ele>
        <time>2021-03-25T10:43:01Z</time>
      </trkpt>
      <trkpt lat="45.54777" lon="6.79848">
        <ele>2532.4</ele>
        <time>2021-03-25T10:43:02Z</time>
      </trkpt>
      <trkpt lat="45.54777" lon="6.79849">
        <ele>2532.4</ele>
        <time>2021-03-25T10:43:03Z</time>
      </trkpt>
      <trkpt lat="45.54778" lon="6.7985">
        <ele>2532.9</ele>
        <time>2021-03-25T10:43:04Z</time>
      </trkpt>
      <trkpt lat="45.54778" lon="6.7985">
        <ele>2532.9</ele>
        <time>2021-03-25T10:43:05Z</time>
      </trkpt>
      <trkpt lat="45.54779" lon="6.79851">
        <ele>2532.9</ele>
        <time>2021-03-25T10:43:06Z</time>
      </trkpt>
      <trkpt lat="45.54779" lon="6.79852">
        <ele>2533.4</ele>
        <time>2021-03-25T10:43:07Z</time>
      </trkpt>
      <trkpt lat="45.5478" lon="6.79853">
        <ele>2533.4</ele>
        <time>2021-03-25T10:43:08Z</time>
      </trkpt>
      <trkpt lat="45.5478" lon="6.79854">
        <ele>2533.4</ele>
        <time>2021-03-25T10:43:09Z</time>
      </trkpt>
      <trkpt lat="45.5478" lon="6.79855">
        <ele>2533.4</ele>
        <time>2021-03-25T10:43:10Z</time>
      </trkpt>
      <trkpt lat="45.54781" lon="6.79855">
        <ele>2533.9</ele>
        <time>2021-03-25T10:43:11Z</time>
      </trkpt>
      <trkpt lat="45.54782" lon="6.79856">
        <ele>2533.9</ele>
        <time>2021-03-25T10:43:12Z</time>
      </trkpt>
      <trkpt lat="45.54782" lon="6.79856">
        <ele>2533.9</ele>
        <time>2021-03-25T10:43:13Z</time>
      </trkpt>
      <trkpt lat="45.54783" lon="6.79857">
        <ele>2534.5</ele>
        <time>2021-03-25T10:43:14Z</time>
      </trkpt>
      <trkpt lat="45.54783" lon="6.79857">
        <ele>2534.5</ele>
        <time>2021-03-25T10:43:15Z</time>
      </trkpt>
      <trkpt lat="45.54784" lon="6.79858">
        <ele>2534.5</ele>
        <time>2021-03-25T10:43:16Z</time>
      </trkpt>
      <trkpt lat="45.54784" lon="6.79858">
        <ele>2535</ele>
        <time>2021-03-25T10:43:17Z</time>
      </trkpt>
      <trkpt lat="45.54784" lon="6.79858">
        <ele>2535</ele>
        <time>2021-03-25T10:43:18Z</time>
      </trkpt>
      <trkpt lat="45.54785" lon="6.79858">
        <ele>2535</ele>
        <time>2021-03-25T10:43:19Z</time>
      </trkpt>
      <trkpt lat="45.54785" lon="6.79859">
        <ele>2535</ele>
        <time>2021-03-25T10:43:20Z</time>
      </trkpt>
      <trkpt lat="45.54785" lon="6.79859">
        <ele>2535</ele>
        <time>2021-03-25T10:43:21Z</time>
      </trkpt>
      <trkpt lat="45.54785" lon="6.79859">
        <ele>2535</ele>
        <time>2021-03-25T10:43:22Z</time>
      </trkpt>
      <trkpt lat="45.54786" lon="6.7986">
        <ele>2535</ele>
        <time>2021-03-25T10:43:23Z</time>
      </trkpt>
      <trkpt lat="45.54786" lon="6.7986">
        <ele>2535</ele>
        <time>2021-03-25T10:43:24Z</time>
      </trkpt>
      <trkpt lat="45.54786" lon="6.7986">
        <ele>2535</ele>
        <time>2021-03-25T10:43:25Z</time>
      </trkpt>
      <trkpt lat="45.54786" lon="6.79861">
        <ele>2535.6</ele>
        <time>2021-03-25T10:43:26Z</time>
      </trkpt>
      <trkpt lat="45.54787" lon="6.79862">
        <ele>2535.6</ele>
        <time>2021-03-25T10:43:27Z</time>
      </trkpt>
      <trkpt lat="45.54787" lon="6.79863">
        <ele>2536</ele>
        <time>2021-03-25T10:43:28Z</time>
      </trkpt>
      <trkpt lat="45.54787" lon="6.79863">
        <ele>2536</ele>
        <time>2021-03-25T10:43:29Z</time>
      </trkpt>
      <trkpt lat="45.54788" lon="6.79864">
        <ele>2536</ele>
        <time>2021-03-25T10:43:30Z</time>
      </trkpt>
      <trkpt lat="45.54788" lon="6.79864">
        <ele>2536</ele>
        <time>2021-03-25T10:43:31Z</time>
      </trkpt>
      <trkpt lat="45.54788" lon="6.79865">
        <ele>2536</ele>
        <time>2021-03-25T10:43:32Z</time>
      </trkpt>
      <trkpt lat="45.54789" lon="6.79865">
        <ele>2536.6</ele>
        <time>2021-03-25T10:43:33Z</time>
      </trkpt>
      <trkpt lat="45.54789" lon="6.79865">
        <ele>2536.6</ele>
        <time>2021-03-25T10:43:34Z</time>
      </trkpt>
      <trkpt lat="45.54789" lon="6.79866">
        <ele>2536.6</ele>
        <time>2021-03-25T10:43:35Z</time>
      </trkpt>
      <trkpt lat="45.54789" lon="6.79866">
        <ele>2536.6</ele>
        <time>2021-03-25T10:43:36Z</time>
      </trkpt>
      <trkpt lat="45.5479" lon="6.79867">
        <ele>2536.6</ele>
        <time>2021-03-25T10:43:37Z</time>
      </trkpt>
      <trkpt lat="45.5479" lon="6.79867">
        <ele>2537</ele>
        <time>2021-03-25T10:43:38Z</time>
      </trkpt>
      <trkpt lat="45.54791" lon="6.79868">
        <ele>2537</ele>
        <time>2021-03-25T10:43:39Z</time>
      </trkpt>
      <trkpt lat="45.54791" lon="6.79869">
        <ele>2537</ele>
        <time>2021-03-25T10:43:40Z</time>
      </trkpt>
      <trkpt lat="45.54791" lon="6.79869">
        <ele>2537.7</ele>
        <time>2021-03-25T10:43:41Z</time>
      </trkpt>
      <trkpt lat="45.54792" lon="6.7987">
        <ele>2537.7</ele>
        <time>2021-03-25T10:43:42Z</time>
      </trkpt>
      <trkpt lat="45.54792" lon="6.79871">
        <ele>2537.7</ele>
        <time>2021-03-25T10:43:43Z</time>
      </trkpt>
      <trkpt lat="45.54793" lon="6.79871">
        <ele>2537.7</ele>
        <time>2021-03-25T10:43:44Z</time>
      </trkpt>
      <trkpt lat="45.54793" lon="6.79872">
        <ele>2537.7</ele>
        <time>2021-03-25T10:43:45Z</time>
      </trkpt>
      <trkpt lat="45.54793" lon="6.79873">
        <ele>2538</ele>
        <time>2021-03-25T10:43:46Z</time>
      </trkpt>
      <trkpt lat="45.54793" lon="6.79873">
        <ele>2538</ele>
        <time>2021-03-25T10:43:47Z</time>
      </trkpt>
      <trkpt lat="45.54794" lon="6.79874">
        <ele>2538.6</ele>
        <time>2021-03-25T10:43:48Z</time>
      </trkpt>
      <trkpt lat="45.54794" lon="6.79875">
        <ele>2538.6</ele>
        <time>2021-03-25T10:43:49Z</time>
      </trkpt>
      <trkpt lat="45.54795" lon="6.79875">
        <ele>2538.6</ele>
        <time>2021-03-25T10:43:50Z</time>
      </trkpt>
      <trkpt lat="45.54795" lon="6.79875">
        <ele>2538.6</ele>
        <time>2021-03-25T10:43:51Z</time>
      </trkpt>
      <trkpt lat="45.54795" lon="6.79876">
        <ele>2538.6</ele>
        <time>2021-03-25T10:43:52Z</time>
      </trkpt>
      <trkpt lat="45.54796" lon="6.79876">
        <ele>2538.6</ele>
        <time>2021-03-25T10:43:53Z</time>
      </trkpt>
      <trkpt lat="45.54796" lon="6.79877">
        <ele>2539</ele>
        <time>2021-03-25T10:43:54Z</time>
      </trkpt>
      <trkpt lat="45.54797" lon="6.79878">
        <ele>2539</ele>
        <time>2021-03-25T10:43:55Z</time>
      </trkpt>
      <trkpt lat="45.54797" lon="6.79878">
        <ele>2539.5</ele>
        <time>2021-03-25T10:43:56Z</time>
      </trkpt>
      <trkpt lat="45.54797" lon="6.79879">
        <ele>2539.5</ele>
        <time>2021-03-25T10:43:57Z</time>
      </trkpt>
      <trkpt lat="45.54797" lon="6.7988">
        <ele>2539.5</ele>
        <time>2021-03-25T10:43:58Z</time>
      </trkpt>
      <trkpt lat="45.54797" lon="6.79881">
        <ele>2539.5</ele>
        <time>2021-03-25T10:43:59Z</time>
      </trkpt>
      <trkpt lat="45.54797" lon="6.79882">
        <ele>2539.9</ele>
        <time>2021-03-25T10:44:00Z</time>
      </trkpt>
      <trkpt lat="45.54796" lon="6.79883">
        <ele>2539.9</ele>
        <time>2021-03-25T10:44:01Z</time>
      </trkpt>
      <trkpt lat="45.54796" lon="6.79884">
        <ele>2539.9</ele>
        <time>2021-03-25T10:44:02Z</time>
      </trkpt>
      <trkpt lat="45.54795" lon="6.79884">
        <ele>2539.5</ele>
        <time>2021-03-25T10:44:03Z</time>
      </trkpt>
      <trkpt lat="45.54795" lon="6.79885">
        <ele>2539.5</ele>
        <time>2021-03-25T10:44:04Z</time>
      </trkpt>
      <trkpt lat="45.54794" lon="6.79885">
        <ele>2539.5</ele>
        <time>2021-03-25T10:44:05Z</time>
      </trkpt>
      <trkpt lat="45.54793" lon="6.79886">
        <ele>2539.5</ele>
        <time>2021-03-25T10:44:06Z</time>
      </trkpt>
      <trkpt lat="45.54793" lon="6.79886">
        <ele>2539</ele>
        <time>2021-03-25T10:44:07Z</time>
      </trkpt>
      <trkpt lat="45.54792" lon="6.79886">
        <ele>2539</ele>
        <time>2021-03-25T10:44:08Z</time>
      </trkpt>
      <trkpt lat="45.54792" lon="6.79886">
        <ele>2539</ele>
        <time>2021-03-25T10:44:09Z</time>
      </trkpt>
      <trkpt lat="45.54791" lon="6.79886">
        <ele>2539</ele>
        <time>2021-03-25T10:44:10Z</time>
      </trkpt>
      <trkpt lat="45.54791" lon="6.79886">
        <ele>2539</ele>
        <time>2021-03-25T10:44:11Z</time>
      </trkpt>
      <trkpt lat="45.5479" lon="6.79886">
        <ele>2539</ele>
        <time>2021-03-25T10:44:12Z</time>
      </trkpt>
      <trkpt lat="45.5479" lon="6.79886">
        <ele>2538.4</ele>
        <time>2021-03-25T10:44:13Z</time>
      </trkpt>
      <trkpt lat="45.54789" lon="6.79886">
        <ele>2538.4</ele>
        <time>2021-03-25T10:44:14Z</time>
      </trkpt>
      <trkpt lat="45.54789" lon="6.79886">
        <ele>2538.4</ele>
        <time>2021-03-25T10:44:15Z</time>
      </trkpt>
      <trkpt lat="45.54788" lon="6.79886">
        <ele>2538.4</ele>
        <time>2021-03-25T10:44:16Z</time>
      </trkpt>
      <trkpt lat="45.54787" lon="6.79886">
        <ele>2538.4</ele>
        <time>2021-03-25T10:44:17Z</time>
      </trkpt>
      <trkpt lat="45.54787" lon="6.79886">
        <ele>2537.9</ele>
        <time>2021-03-25T10:44:18Z</time>
      </trkpt>
      <trkpt lat="45.54786" lon="6.79887">
        <ele>2537.9</ele>
        <time>2021-03-25T10:44:19Z</time>
      </trkpt>
      <trkpt lat="45.54786" lon="6.79887">
        <ele>2537.9</ele>
        <time>2021-03-25T10:44:20Z</time>
      </trkpt>
      <trkpt lat="45.54786" lon="6.79888">
        <ele>2537.9</ele>
        <time>2021-03-25T10:44:21Z</time>
      </trkpt>
      <trkpt lat="45.54786" lon="6.79889">
        <ele>2537.9</ele>
        <time>2021-03-25T10:44:22Z</time>
      </trkpt>
      <trkpt lat="45.54786" lon="6.7989">
        <ele>2537.9</ele>
        <time>2021-03-25T10:44:23Z</time>
      </trkpt>
      <trkpt lat="45.54786" lon="6.7989">
        <ele>2537.9</ele>
        <time>2021-03-25T10:44:24Z</time>
      </trkpt>
      <trkpt lat="45.54786" lon="6.79891">
        <ele>2537.9</ele>
        <time>2021-03-25T10:44:25Z</time>
      </trkpt>
      <trkpt lat="45.54787" lon="6.79891">
        <ele>2538</ele>
        <time>2021-03-25T10:44:26Z</time>
      </trkpt>
      <trkpt lat="45.54787" lon="6.79892">
        <ele>2538.8</ele>
        <time>2021-03-25T10:44:27Z</time>
      </trkpt>
      <trkpt lat="45.54787" lon="6.79893">
        <ele>2538.8</ele>
        <time>2021-03-25T10:44:28Z</time>
      </trkpt>
      <trkpt lat="45.54787" lon="6.79893">
        <ele>2538.8</ele>
        <time>2021-03-25T10:44:29Z</time>
      </trkpt>
      <trkpt lat="45.54787" lon="6.79893">
        <ele>2538.8</ele>
        <time>2021-03-25T10:44:30Z</time>
      </trkpt>
      <trkpt lat="45.54788" lon="6.79894">
        <ele>2538.8</ele>
        <time>2021-03-25T10:44:31Z</time>
      </trkpt>
      <trkpt lat="45.54788" lon="6.79894">
        <ele>2538.8</ele>
        <time>2021-03-25T10:44:32Z</time>
      </trkpt>
      <trkpt lat="45.54788" lon="6.79894">
        <ele>2538.8</ele>
        <time>2021-03-25T10:44:33Z</time>
      </trkpt>
      <trkpt lat="45.54788" lon="6.79895">
        <ele>2538.8</ele>
        <time>2021-03-25T10:44:34Z</time>
      </trkpt>
      <trkpt lat="45.54788" lon="6.79895">
        <ele>2539</ele>
        <time>2021-03-25T10:44:35Z</time>
      </trkpt>
      <trkpt lat="45.54788" lon="6.79896">
        <ele>2539</ele>
        <time>2021-03-25T10:44:36Z</time>
      </trkpt>
      <trkpt lat="45.54788" lon="6.79896">
        <ele>2539</ele>
        <time>2021-03-25T10:44:37Z</time>
      </trkpt>
      <trkpt lat="45.54788" lon="6.79896">
        <ele>2539</ele>
        <time>2021-03-25T10:44:38Z</time>
      </trkpt>
      <trkpt lat="45.54788" lon="6.79897">
        <ele>2539</ele>
        <time>2021-03-25T10:44:39Z</time>
      </trkpt>
      <trkpt lat="45.54788" lon="6.79897">
        <ele>2539</ele>
        <time>2021-03-25T10:44:40Z</time>
      </trkpt>
      <trkpt lat="45.54789" lon="6.79897">
        <ele>2539</ele>
        <time>2021-03-25T10:44:57Z</time>
      </trkpt>
      <trkpt lat="45.54789" lon="6.79898">
        <ele>2539</ele>
        <time>2021-03-25T10:44:58Z</time>
      </trkpt>
      <trkpt lat="45.54789" lon="6.79898">
        <ele>2539</ele>
        <time>2021-03-25T10:44:59Z</time>
      </trkpt>
      <trkpt lat="45.54789" lon="6.79899">
        <ele>2539</ele>
        <time>2021-03-25T10:45:00Z</time>
      </trkpt>
      <trkpt lat="45.54789" lon="6.79899">
        <ele>2539</ele>
        <time>2021-03-25T10:45:01Z</time>
      </trkpt>
      <trkpt lat="45.54789" lon="6.799">
        <ele>2539.1</ele>
        <time>2021-03-25T10:45:02Z</time>
      </trkpt>
      <trkpt lat="45.54789" lon="6.79901">
        <ele>2539.1</ele>
        <time>2021-03-25T10:45:03Z</time>
      </trkpt>
      <trkpt lat="45.54789" lon="6.79902">
        <ele>2539.1</ele>
        <time>2021-03-25T10:45:04Z</time>
      </trkpt>
      <trkpt lat="45.5479" lon="6.79902">
        <ele>2539.1</ele>
        <time>2021-03-25T10:45:05Z</time>
      </trkpt>
      <trkpt lat="45.5479" lon="6.79903">
        <ele>2539.9</ele>
        <time>2021-03-25T10:45:06Z</time>
      </trkpt>
      <trkpt lat="45.54791" lon="6.79904">
        <ele>2540</ele>
        <time>2021-03-25T10:45:07Z</time>
      </trkpt>
      <trkpt lat="45.54791" lon="6.79905">
        <ele>2540</ele>
        <time>2021-03-25T10:45:08Z</time>
      </trkpt>
      <trkpt lat="45.54792" lon="6.79906">
        <ele>2540</ele>
        <time>2021-03-25T10:45:09Z</time>
      </trkpt>
      <trkpt lat="45.54793" lon="6.79907">
        <ele>2540</ele>
        <time>2021-03-25T10:45:10Z</time>
      </trkpt>
      <trkpt lat="45.54793" lon="6.79908">
        <ele>2540.8</ele>
        <time>2021-03-25T10:45:11Z</time>
      </trkpt>
      <trkpt lat="45.54794" lon="6.79908">
        <ele>2541</ele>
        <time>2021-03-25T10:45:12Z</time>
      </trkpt>
      <trkpt lat="45.54795" lon="6.79908">
        <ele>2541.1</ele>
        <time>2021-03-25T10:45:13Z</time>
      </trkpt>
      <trkpt lat="45.54795" lon="6.79909">
        <ele>2541.3</ele>
        <time>2021-03-25T10:45:14Z</time>
      </trkpt>
      <trkpt lat="45.54796" lon="6.79909">
        <ele>2541.5</ele>
        <time>2021-03-25T10:45:15Z</time>
      </trkpt>
      <trkpt lat="45.54796" lon="6.7991">
        <ele>2541.6</ele>
        <time>2021-03-25T10:45:16Z</time>
      </trkpt>
      <trkpt lat="45.54797" lon="6.7991">
        <ele>2541.8</ele>
        <time>2021-03-25T10:45:17Z</time>
      </trkpt>
      <trkpt lat="45.54798" lon="6.7991">
        <ele>2541.9</ele>
        <time>2021-03-25T10:45:18Z</time>
      </trkpt>
      <trkpt lat="45.54798" lon="6.79911">
        <ele>2542.1</ele>
        <time>2021-03-25T10:45:19Z</time>
      </trkpt>
      <trkpt lat="45.54799" lon="6.79911">
        <ele>2542.3</ele>
        <time>2021-03-25T10:45:20Z</time>
      </trkpt>
      <trkpt lat="45.54799" lon="6.79911">
        <ele>2542.4</ele>
        <time>2021-03-25T10:46:14Z</time>
      </trkpt>
      <trkpt lat="45.548" lon="6.79912">
        <ele>2542.6</ele>
        <time>2021-03-25T10:46:15Z</time>
      </trkpt>
      <trkpt lat="45.54801" lon="6.79912">
        <ele>2542.7</ele>
        <time>2021-03-25T10:46:16Z</time>
      </trkpt>
      <trkpt lat="45.54801" lon="6.79913">
        <ele>2542.9</ele>
        <time>2021-03-25T10:46:17Z</time>
      </trkpt>
      <trkpt lat="45.54802" lon="6.79913">
        <ele>2543</ele>
        <time>2021-03-25T10:46:18Z</time>
      </trkpt>
      <trkpt lat="45.54803" lon="6.79913">
        <ele>2543.2</ele>
        <time>2021-03-25T10:46:19Z</time>
      </trkpt>
      <trkpt lat="45.54803" lon="6.79914">
        <ele>2543.3</ele>
        <time>2021-03-25T10:46:20Z</time>
      </trkpt>
      <trkpt lat="45.54804" lon="6.79914">
        <ele>2543.5</ele>
        <time>2021-03-25T10:46:21Z</time>
      </trkpt>
      <trkpt lat="45.54804" lon="6.79914">
        <ele>2543.6</ele>
        <time>2021-03-25T10:46:22Z</time>
      </trkpt>
      <trkpt lat="45.54805" lon="6.79915">
        <ele>2543.8</ele>
        <time>2021-03-25T10:46:23Z</time>
      </trkpt>
      <trkpt lat="45.54806" lon="6.79915">
        <ele>2543.9</ele>
        <time>2021-03-25T10:46:49Z</time>
      </trkpt>
      <trkpt lat="45.54806" lon="6.79916">
        <ele>2544</ele>
        <time>2021-03-25T10:46:50Z</time>
      </trkpt>
      <trkpt lat="45.54807" lon="6.79916">
        <ele>2544.2</ele>
        <time>2021-03-25T10:46:51Z</time>
      </trkpt>
      <trkpt lat="45.54807" lon="6.79916">
        <ele>2544.3</ele>
        <time>2021-03-25T10:46:52Z</time>
      </trkpt>
      <trkpt lat="45.54808" lon="6.79916">
        <ele>2544.4</ele>
        <time>2021-03-25T10:46:53Z</time>
      </trkpt>
      <trkpt lat="45.54808" lon="6.79916">
        <ele>2544.5</ele>
        <time>2021-03-25T10:46:54Z</time>
      </trkpt>
      <trkpt lat="45.54808" lon="6.79916">
        <ele>2544.5</ele>
        <time>2021-03-25T10:46:55Z</time>
      </trkpt>
      <trkpt lat="45.54809" lon="6.79916">
        <ele>2544.7</ele>
        <time>2021-03-25T10:46:56Z</time>
      </trkpt>
      <trkpt lat="45.54809" lon="6.79916">
        <ele>2544.7</ele>
        <time>2021-03-25T10:46:57Z</time>
      </trkpt>
      <trkpt lat="45.54811" lon="6.79916">
        <ele>2544.9</ele>
        <time>2021-03-25T10:46:58Z</time>
      </trkpt>
      <trkpt lat="45.54811" lon="6.79917">
        <ele>2545.1</ele>
        <time>2021-03-25T10:46:59Z</time>
      </trkpt>
      <trkpt lat="45.54812" lon="6.79917">
        <ele>2545.1</ele>
        <time>2021-03-25T10:47:00Z</time>
      </trkpt>
      <trkpt lat="45.54812" lon="6.79917">
        <ele>2545.1</ele>
        <time>2021-03-25T10:47:01Z</time>
      </trkpt>
      <trkpt lat="45.54813" lon="6.79917">
        <ele>2545.4</ele>
        <time>2021-03-25T10:47:02Z</time>
      </trkpt>
      <trkpt lat="45.54813" lon="6.79918">
        <ele>2545.5</ele>
        <time>2021-03-25T10:47:03Z</time>
      </trkpt>
      <trkpt lat="45.54814" lon="6.79918">
        <ele>2545.5</ele>
        <time>2021-03-25T10:47:04Z</time>
      </trkpt>
      <trkpt lat="45.54814" lon="6.79919">
        <ele>2545.6</ele>
        <time>2021-03-25T10:47:05Z</time>
      </trkpt>
      <trkpt lat="45.54813" lon="6.79919">
        <ele>2545.7</ele>
        <time>2021-03-25T10:47:06Z</time>
      </trkpt>
      <trkpt lat="45.54813" lon="6.7992">
        <ele>2545.8</ele>
        <time>2021-03-25T10:47:07Z</time>
      </trkpt>
      <trkpt lat="45.54813" lon="6.7992">
        <ele>2545.8</ele>
        <time>2021-03-25T10:47:08Z</time>
      </trkpt>
      <trkpt lat="45.54813" lon="6.79922">
        <ele>2546</ele>
        <time>2021-03-25T10:47:09Z</time>
      </trkpt>
      <trkpt lat="45.54812" lon="6.79923">
        <ele>2546.2</ele>
        <time>2021-03-25T10:47:10Z</time>
      </trkpt>
      <trkpt lat="45.54811" lon="6.79924">
        <ele>2546.4</ele>
        <time>2021-03-25T10:47:11Z</time>
      </trkpt>
      <trkpt lat="45.54811" lon="6.79925">
        <ele>2546.5</ele>
        <time>2021-03-25T10:47:12Z</time>
      </trkpt>
      <trkpt lat="45.54811" lon="6.79926">
        <ele>2546.6</ele>
        <time>2021-03-25T10:47:14Z</time>
      </trkpt>
      <trkpt lat="45.5481" lon="6.79927">
        <ele>2546.7</ele>
        <time>2021-03-25T10:47:15Z</time>
      </trkpt>
      <trkpt lat="45.5481" lon="6.79927">
        <ele>2546.8</ele>
        <time>2021-03-25T10:47:16Z</time>
      </trkpt>
      <trkpt lat="45.54809" lon="6.79928">
        <ele>2546.9</ele>
        <time>2021-03-25T10:47:17Z</time>
      </trkpt>
      <trkpt lat="45.54809" lon="6.79929">
        <ele>2547</ele>
        <time>2021-03-25T10:47:18Z</time>
      </trkpt>
      <trkpt lat="45.54809" lon="6.7993">
        <ele>2547.1</ele>
        <time>2021-03-25T10:47:19Z</time>
      </trkpt>
      <trkpt lat="45.54809" lon="6.79931">
        <ele>2547.2</ele>
        <time>2021-03-25T10:47:20Z</time>
      </trkpt>
      <trkpt lat="45.54809" lon="6.79932">
        <ele>2547.3</ele>
        <time>2021-03-25T10:47:21Z</time>
      </trkpt>
      <trkpt lat="45.54809" lon="6.79932">
        <ele>2547.4</ele>
        <time>2021-03-25T10:47:22Z</time>
      </trkpt>
      <trkpt lat="45.5481" lon="6.79933">
        <ele>2547.5</ele>
        <time>2021-03-25T10:47:23Z</time>
      </trkpt>
      <trkpt lat="45.5481" lon="6.79934">
        <ele>2547.6</ele>
        <time>2021-03-25T10:47:24Z</time>
      </trkpt>
      <trkpt lat="45.5481" lon="6.79935">
        <ele>2547.7</ele>
        <time>2021-03-25T10:47:25Z</time>
      </trkpt>
      <trkpt lat="45.5481" lon="6.79936">
        <ele>2547.8</ele>
        <time>2021-03-25T10:47:26Z</time>
      </trkpt>
      <trkpt lat="45.54811" lon="6.79937">
        <ele>2547.9</ele>
        <time>2021-03-25T10:47:27Z</time>
      </trkpt>
      <trkpt lat="45.54811" lon="6.79938">
        <ele>2548</ele>
        <time>2021-03-25T10:47:28Z</time>
      </trkpt>
      <trkpt lat="45.54812" lon="6.79938">
        <ele>2548.1</ele>
        <time>2021-03-25T10:47:29Z</time>
      </trkpt>
      <trkpt lat="45.54812" lon="6.79939">
        <ele>2548.2</ele>
        <time>2021-03-25T10:47:30Z</time>
      </trkpt>
      <trkpt lat="45.54812" lon="6.79939">
        <ele>2548.2</ele>
        <time>2021-03-25T10:47:31Z</time>
      </trkpt>
      <trkpt lat="45.54813" lon="6.7994">
        <ele>2548.3</ele>
        <time>2021-03-25T10:47:32Z</time>
      </trkpt>
      <trkpt lat="45.54813" lon="6.7994">
        <ele>2548.4</ele>
        <time>2021-03-25T10:47:33Z</time>
      </trkpt>
      <trkpt lat="45.54814" lon="6.7994">
        <ele>2548.5</ele>
        <time>2021-03-25T10:47:34Z</time>
      </trkpt>
      <trkpt lat="45.54814" lon="6.79941">
        <ele>2548.6</ele>
        <time>2021-03-25T10:47:35Z</time>
      </trkpt>
      <trkpt lat="45.54814" lon="6.79941">
        <ele>2548.6</ele>
        <time>2021-03-25T10:47:36Z</time>
      </trkpt>
      <trkpt lat="45.54815" lon="6.79941">
        <ele>2548.7</ele>
        <time>2021-03-25T10:47:37Z</time>
      </trkpt>
      <trkpt lat="45.54815" lon="6.7994">
        <ele>2548.8</ele>
        <time>2021-03-25T10:47:38Z</time>
      </trkpt>
      <trkpt lat="45.54816" lon="6.7994">
        <ele>2548.8</ele>
        <time>2021-03-25T10:47:39Z</time>
      </trkpt>
      <trkpt lat="45.54816" lon="6.79939">
        <ele>2548.9</ele>
        <time>2021-03-25T10:47:40Z</time>
      </trkpt>
      <trkpt lat="45.54816" lon="6.79939">
        <ele>2549</ele>
        <time>2021-03-25T10:47:41Z</time>
      </trkpt>
      <trkpt lat="45.54817" lon="6.79939">
        <ele>2549.1</ele>
        <time>2021-03-25T10:47:42Z</time>
      </trkpt>
      <trkpt lat="45.54817" lon="6.79938">
        <ele>2549.2</ele>
        <time>2021-03-25T10:47:43Z</time>
      </trkpt>
      <trkpt lat="45.54818" lon="6.79938">
        <ele>2549.2</ele>
        <time>2021-03-25T10:47:44Z</time>
      </trkpt>
      <trkpt lat="45.54818" lon="6.79938">
        <ele>2549.3</ele>
        <time>2021-03-25T10:47:45Z</time>
      </trkpt>
      <trkpt lat="45.54818" lon="6.79938">
        <ele>2549.3</ele>
        <time>2021-03-25T10:47:46Z</time>
      </trkpt>
      <trkpt lat="45.54819" lon="6.79938">
        <ele>2549.4</ele>
        <time>2021-03-25T10:47:47Z</time>
      </trkpt>
      <trkpt lat="45.54819" lon="6.79937">
        <ele>2549.4</ele>
        <time>2021-03-25T10:47:48Z</time>
      </trkpt>
      <trkpt lat="45.54819" lon="6.79937">
        <ele>2549.5</ele>
        <time>2021-03-25T10:47:49Z</time>
      </trkpt>
      <trkpt lat="45.5482" lon="6.79937">
        <ele>2549.6</ele>
        <time>2021-03-25T10:47:50Z</time>
      </trkpt>
      <trkpt lat="45.5482" lon="6.79937">
        <ele>2549.6</ele>
        <time>2021-03-25T10:47:51Z</time>
      </trkpt>
      <trkpt lat="45.54821" lon="6.79936">
        <ele>2549.7</ele>
        <time>2021-03-25T10:47:52Z</time>
      </trkpt>
      <trkpt lat="45.54821" lon="6.79936">
        <ele>2549.9</ele>
        <time>2021-03-25T10:47:53Z</time>
      </trkpt>
      <trkpt lat="45.54822" lon="6.79937">
        <ele>2549.9</ele>
        <time>2021-03-25T10:47:54Z</time>
      </trkpt>
      <trkpt lat="45.54822" lon="6.79937">
        <ele>2550</ele>
        <time>2021-03-25T10:47:55Z</time>
      </trkpt>
      <trkpt lat="45.54822" lon="6.79937">
        <ele>2550</ele>
        <time>2021-03-25T10:47:56Z</time>
      </trkpt>
      <trkpt lat="45.54822" lon="6.79937">
        <ele>2550.1</ele>
        <time>2021-03-25T10:47:57Z</time>
      </trkpt>
      <trkpt lat="45.54823" lon="6.79937">
        <ele>2550.1</ele>
        <time>2021-03-25T10:47:58Z</time>
      </trkpt>
      <trkpt lat="45.54823" lon="6.79937">
        <ele>2550.2</ele>
        <time>2021-03-25T10:47:59Z</time>
      </trkpt>
      <trkpt lat="45.54823" lon="6.79938">
        <ele>2550.2</ele>
        <time>2021-03-25T10:48:00Z</time>
      </trkpt>
      <trkpt lat="45.54824" lon="6.79938">
        <ele>2550.3</ele>
        <time>2021-03-25T10:48:01Z</time>
      </trkpt>
      <trkpt lat="45.54824" lon="6.79938">
        <ele>2550.3</ele>
        <time>2021-03-25T10:48:02Z</time>
      </trkpt>
      <trkpt lat="45.54824" lon="6.79938">
        <ele>2550.4</ele>
        <time>2021-03-25T10:48:03Z</time>
      </trkpt>
      <trkpt lat="45.54824" lon="6.79938">
        <ele>2550.4</ele>
        <time>2021-03-25T10:48:04Z</time>
      </trkpt>
      <trkpt lat="45.54825" lon="6.79939">
        <ele>2550.5</ele>
        <time>2021-03-25T10:48:05Z</time>
      </trkpt>
      <trkpt lat="45.54825" lon="6.79939">
        <ele>2550.5</ele>
        <time>2021-03-25T10:48:06Z</time>
      </trkpt>
      <trkpt lat="45.54825" lon="6.79939">
        <ele>2550.6</ele>
        <time>2021-03-25T10:48:37Z</time>
      </trkpt>
      <trkpt lat="45.54826" lon="6.79939">
        <ele>2550.6</ele>
        <time>2021-03-25T10:48:38Z</time>
      </trkpt>
      <trkpt lat="45.54826" lon="6.79939">
        <ele>2550.7</ele>
        <time>2021-03-25T10:48:39Z</time>
      </trkpt>
      <trkpt lat="45.54826" lon="6.79939">
        <ele>2550.7</ele>
        <time>2021-03-25T10:48:40Z</time>
      </trkpt>
      <trkpt lat="45.54826" lon="6.7994">
        <ele>2550.8</ele>
        <time>2021-03-25T10:48:41Z</time>
      </trkpt>
      <trkpt lat="45.54827" lon="6.7994">
        <ele>2550.9</ele>
        <time>2021-03-25T10:48:42Z</time>
      </trkpt>
      <trkpt lat="45.54827" lon="6.7994">
        <ele>2551</ele>
        <time>2021-03-25T10:48:43Z</time>
      </trkpt>
      <trkpt lat="45.54828" lon="6.79941">
        <ele>2551.1</ele>
        <time>2021-03-25T10:48:44Z</time>
      </trkpt>
      <trkpt lat="45.54829" lon="6.79941">
        <ele>2551.2</ele>
        <time>2021-03-25T10:48:45Z</time>
      </trkpt>
      <trkpt lat="45.54829" lon="6.79942">
        <ele>2551.3</ele>
        <time>2021-03-25T10:48:46Z</time>
      </trkpt>
      <trkpt lat="45.5483" lon="6.79942">
        <ele>2551.4</ele>
        <time>2021-03-25T10:48:47Z</time>
      </trkpt>
      <trkpt lat="45.5483" lon="6.79942">
        <ele>2551.6</ele>
        <time>2021-03-25T10:48:48Z</time>
      </trkpt>
      <trkpt lat="45.54831" lon="6.79941">
        <ele>2551.7</ele>
        <time>2021-03-25T10:48:49Z</time>
      </trkpt>
      <trkpt lat="45.54832" lon="6.79941">
        <ele>2551.8</ele>
        <time>2021-03-25T10:48:50Z</time>
      </trkpt>
      <trkpt lat="45.54833" lon="6.79941">
        <ele>2552</ele>
        <time>2021-03-25T10:48:51Z</time>
      </trkpt>
      <trkpt lat="45.54833" lon="6.79942">
        <ele>2552.2</ele>
        <time>2021-03-25T10:48:52Z</time>
      </trkpt>
      <trkpt lat="45.54834" lon="6.79942">
        <ele>2552.3</ele>
        <time>2021-03-25T10:48:53Z</time>
      </trkpt>
      <trkpt lat="45.54835" lon="6.79943">
        <ele>2552.5</ele>
        <time>2021-03-25T10:48:54Z</time>
      </trkpt>
      <trkpt lat="45.54835" lon="6.79944">
        <ele>2552.6</ele>
        <time>2021-03-25T10:48:55Z</time>
      </trkpt>
      <trkpt lat="45.54835" lon="6.79946">
        <ele>2552.8</ele>
        <time>2021-03-25T10:48:56Z</time>
      </trkpt>
      <trkpt lat="45.54835" lon="6.79947">
        <ele>2553</ele>
        <time>2021-03-25T10:48:57Z</time>
      </trkpt>
      <trkpt lat="45.54835" lon="6.79948">
        <ele>2553.1</ele>
        <time>2021-03-25T10:48:58Z</time>
      </trkpt>
      <trkpt lat="45.54835" lon="6.79949">
        <ele>2553.3</ele>
        <time>2021-03-25T10:48:59Z</time>
      </trkpt>
      <trkpt lat="45.54835" lon="6.79951">
        <ele>2553.5</ele>
        <time>2021-03-25T10:49:00Z</time>
      </trkpt>
      <trkpt lat="45.54836" lon="6.79952">
        <ele>2553.6</ele>
        <time>2021-03-25T10:49:01Z</time>
      </trkpt>
      <trkpt lat="45.54836" lon="6.79953">
        <ele>2553.8</ele>
        <time>2021-03-25T10:49:02Z</time>
      </trkpt>
      <trkpt lat="45.54836" lon="6.79953">
        <ele>2553.9</ele>
        <time>2021-03-25T10:49:03Z</time>
      </trkpt>
      <trkpt lat="45.54837" lon="6.79954">
        <ele>2554</ele>
        <time>2021-03-25T10:49:04Z</time>
      </trkpt>
      <trkpt lat="45.54837" lon="6.79955">
        <ele>2554.1</ele>
        <time>2021-03-25T10:49:05Z</time>
      </trkpt>
      <trkpt lat="45.54838" lon="6.79955">
        <ele>2554.2</ele>
        <time>2021-03-25T10:49:06Z</time>
      </trkpt>
      <trkpt lat="45.54838" lon="6.79956">
        <ele>2554.3</ele>
        <time>2021-03-25T10:49:07Z</time>
      </trkpt>
      <trkpt lat="45.54839" lon="6.79956">
        <ele>2554.4</ele>
        <time>2021-03-25T10:49:08Z</time>
      </trkpt>
      <trkpt lat="45.54839" lon="6.79956">
        <ele>2554.4</ele>
        <time>2021-03-25T10:49:09Z</time>
      </trkpt>
      <trkpt lat="45.54839" lon="6.79956">
        <ele>2554.6</ele>
        <time>2021-03-25T10:49:10Z</time>
      </trkpt>
      <trkpt lat="45.5484" lon="6.79955">
        <ele>2554.6</ele>
        <time>2021-03-25T10:49:11Z</time>
      </trkpt>
      <trkpt lat="45.5484" lon="6.79955">
        <ele>2554.7</ele>
        <time>2021-03-25T10:49:12Z</time>
      </trkpt>
      <trkpt lat="45.5484" lon="6.79955">
        <ele>2554.8</ele>
        <time>2021-03-25T10:49:13Z</time>
      </trkpt>
      <trkpt lat="45.54841" lon="6.79954">
        <ele>2554.9</ele>
        <time>2021-03-25T10:49:14Z</time>
      </trkpt>
      <trkpt lat="45.54841" lon="6.79954">
        <ele>2555</ele>
        <time>2021-03-25T10:49:15Z</time>
      </trkpt>
      <trkpt lat="45.54842" lon="6.79954">
        <ele>2555.1</ele>
        <time>2021-03-25T10:49:16Z</time>
      </trkpt>
      <trkpt lat="45.54842" lon="6.79953">
        <ele>2555.2</ele>
        <time>2021-03-25T10:49:17Z</time>
      </trkpt>
      <trkpt lat="45.54842" lon="6.79953">
        <ele>2555.3</ele>
        <time>2021-03-25T10:49:18Z</time>
      </trkpt>
      <trkpt lat="45.54843" lon="6.79952">
        <ele>2555.5</ele>
        <time>2021-03-25T10:49:19Z</time>
      </trkpt>
      <trkpt lat="45.54844" lon="6.79952">
        <ele>2555.6</ele>
        <time>2021-03-25T10:49:20Z</time>
      </trkpt>
      <trkpt lat="45.54845" lon="6.79952">
        <ele>2555.7</ele>
        <time>2021-03-25T10:49:21Z</time>
      </trkpt>
      <trkpt lat="45.54845" lon="6.79952">
        <ele>2555.8</ele>
        <time>2021-03-25T10:49:22Z</time>
      </trkpt>
      <trkpt lat="45.54845" lon="6.79953">
        <ele>2556</ele>
        <time>2021-03-25T10:49:23Z</time>
      </trkpt>
      <trkpt lat="45.54845" lon="6.79955">
        <ele>2556.1</ele>
        <time>2021-03-25T10:49:24Z</time>
      </trkpt>
      <trkpt lat="45.54846" lon="6.79956">
        <ele>2556.3</ele>
        <time>2021-03-25T10:49:25Z</time>
      </trkpt>
      <trkpt lat="45.54846" lon="6.79957">
        <ele>2556.4</ele>
        <time>2021-03-25T10:49:26Z</time>
      </trkpt>
      <trkpt lat="45.54846" lon="6.79958">
        <ele>2556.6</ele>
        <time>2021-03-25T10:49:27Z</time>
      </trkpt>
      <trkpt lat="45.54846" lon="6.79959">
        <ele>2556.7</ele>
        <time>2021-03-25T10:49:28Z</time>
      </trkpt>
      <trkpt lat="45.54846" lon="6.7996">
        <ele>2556.9</ele>
        <time>2021-03-25T10:49:29Z</time>
      </trkpt>
      <trkpt lat="45.54846" lon="6.79961">
        <ele>2557</ele>
        <time>2021-03-25T10:49:30Z</time>
      </trkpt>
      <trkpt lat="45.54847" lon="6.79962">
        <ele>2557.1</ele>
        <time>2021-03-25T10:49:31Z</time>
      </trkpt>
      <trkpt lat="45.54847" lon="6.79963">
        <ele>2557.2</ele>
        <time>2021-03-25T10:49:32Z</time>
      </trkpt>
      <trkpt lat="45.54847" lon="6.79963">
        <ele>2557.3</ele>
        <time>2021-03-25T10:49:33Z</time>
      </trkpt>
      <trkpt lat="45.54847" lon="6.79963">
        <ele>2557.3</ele>
        <time>2021-03-25T10:49:34Z</time>
      </trkpt>
      <trkpt lat="45.54848" lon="6.79963">
        <ele>2557.5</ele>
        <time>2021-03-25T10:49:35Z</time>
      </trkpt>
      <trkpt lat="45.54848" lon="6.79963">
        <ele>2557.5</ele>
        <time>2021-03-25T10:49:36Z</time>
      </trkpt>
      <trkpt lat="45.54849" lon="6.79963">
        <ele>2557.6</ele>
        <time>2021-03-25T10:49:37Z</time>
      </trkpt>
      <trkpt lat="45.54849" lon="6.79964">
        <ele>2557.7</ele>
        <time>2021-03-25T10:49:38Z</time>
      </trkpt>
      <trkpt lat="45.54849" lon="6.79964">
        <ele>2557.7</ele>
        <time>2021-03-25T10:49:39Z</time>
      </trkpt>
      <trkpt lat="45.5485" lon="6.79964">
        <ele>2557.8</ele>
        <time>2021-03-25T10:49:40Z</time>
      </trkpt>
      <trkpt lat="45.5485" lon="6.79964">
        <ele>2557.9</ele>
        <time>2021-03-25T10:49:41Z</time>
      </trkpt>
      <trkpt lat="45.5485" lon="6.79964">
        <ele>2558</ele>
        <time>2021-03-25T10:49:42Z</time>
      </trkpt>
      <trkpt lat="45.5485" lon="6.79964">
        <ele>2558</ele>
        <time>2021-03-25T10:49:43Z</time>
      </trkpt>
      <trkpt lat="45.54851" lon="6.79965">
        <ele>2558.1</ele>
        <time>2021-03-25T10:49:44Z</time>
      </trkpt>
      <trkpt lat="45.54851" lon="6.79965">
        <ele>2558.2</ele>
        <time>2021-03-25T10:49:45Z</time>
      </trkpt>
      <trkpt lat="45.54852" lon="6.79965">
        <ele>2558.4</ele>
        <time>2021-03-25T10:49:46Z</time>
      </trkpt>
      <trkpt lat="45.54853" lon="6.79965">
        <ele>2558.5</ele>
        <time>2021-03-25T10:49:47Z</time>
      </trkpt>
      <trkpt lat="45.54854" lon="6.79966">
        <ele>2558.7</ele>
        <time>2021-03-25T10:49:48Z</time>
      </trkpt>
      <trkpt lat="45.54854" lon="6.79966">
        <ele>2558.8</ele>
        <time>2021-03-25T10:49:49Z</time>
      </trkpt>
      <trkpt lat="45.54855" lon="6.79966">
        <ele>2558.9</ele>
        <time>2021-03-25T10:49:50Z</time>
      </trkpt>
      <trkpt lat="45.54855" lon="6.79967">
        <ele>2559</ele>
        <time>2021-03-25T10:49:51Z</time>
      </trkpt>
      <trkpt lat="45.54856" lon="6.79967">
        <ele>2559.1</ele>
        <time>2021-03-25T10:49:52Z</time>
      </trkpt>
      <trkpt lat="45.54856" lon="6.79967">
        <ele>2559.2</ele>
        <time>2021-03-25T10:49:53Z</time>
      </trkpt>
      <trkpt lat="45.54857" lon="6.79968">
        <ele>2559.4</ele>
        <time>2021-03-25T10:49:54Z</time>
      </trkpt>
      <trkpt lat="45.54857" lon="6.79968">
        <ele>2559.5</ele>
        <time>2021-03-25T10:49:55Z</time>
      </trkpt>
      <trkpt lat="45.54858" lon="6.79969">
        <ele>2559.6</ele>
        <time>2021-03-25T10:49:56Z</time>
      </trkpt>
      <trkpt lat="45.54858" lon="6.79969">
        <ele>2559.7</ele>
        <time>2021-03-25T10:49:57Z</time>
      </trkpt>
      <trkpt lat="45.54859" lon="6.7997">
        <ele>2559.8</ele>
        <time>2021-03-25T10:49:58Z</time>
      </trkpt>
      <trkpt lat="45.5486" lon="6.7997">
        <ele>2559.9</ele>
        <time>2021-03-25T10:49:59Z</time>
      </trkpt>
      <trkpt lat="45.5486" lon="6.7997">
        <ele>2560.1</ele>
        <time>2021-03-25T10:50:00Z</time>
      </trkpt>
      <trkpt lat="45.5486" lon="6.7997">
        <ele>2560.2</ele>
        <time>2021-03-25T10:50:01Z</time>
      </trkpt>
      <trkpt lat="45.54861" lon="6.79971">
        <ele>2560.3</ele>
        <time>2021-03-25T10:50:02Z</time>
      </trkpt>
      <trkpt lat="45.54861" lon="6.79972">
        <ele>2560.4</ele>
        <time>2021-03-25T10:50:03Z</time>
      </trkpt>
      <trkpt lat="45.54861" lon="6.79973">
        <ele>2560.5</ele>
        <time>2021-03-25T10:50:04Z</time>
      </trkpt>
      <trkpt lat="45.54861" lon="6.79974">
        <ele>2560.6</ele>
        <time>2021-03-25T10:50:05Z</time>
      </trkpt>
      <trkpt lat="45.54861" lon="6.79975">
        <ele>2560.7</ele>
        <time>2021-03-25T10:50:06Z</time>
      </trkpt>
      <trkpt lat="45.54862" lon="6.79976">
        <ele>2560.9</ele>
        <time>2021-03-25T10:50:07Z</time>
      </trkpt>
      <trkpt lat="45.54862" lon="6.79976">
        <ele>2561</ele>
        <time>2021-03-25T10:50:08Z</time>
      </trkpt>
      <trkpt lat="45.54862" lon="6.79977">
        <ele>2561.1</ele>
        <time>2021-03-25T10:50:09Z</time>
      </trkpt>
      <trkpt lat="45.54862" lon="6.79978">
        <ele>2561.2</ele>
        <time>2021-03-25T10:50:10Z</time>
      </trkpt>
      <trkpt lat="45.54862" lon="6.79978">
        <ele>2561.3</ele>
        <time>2021-03-25T10:50:11Z</time>
      </trkpt>
      <trkpt lat="45.54862" lon="6.79979">
        <ele>2561.4</ele>
        <time>2021-03-25T10:50:12Z</time>
      </trkpt>
      <trkpt lat="45.54863" lon="6.7998">
        <ele>2561.6</ele>
        <time>2021-03-25T10:50:13Z</time>
      </trkpt>
      <trkpt lat="45.54863" lon="6.79981">
        <ele>2561.7</ele>
        <time>2021-03-25T10:50:14Z</time>
      </trkpt>
      <trkpt lat="45.54863" lon="6.79982">
        <ele>2561.8</ele>
        <time>2021-03-25T10:50:15Z</time>
      </trkpt>
      <trkpt lat="45.54863" lon="6.79982">
        <ele>2561.9</ele>
        <time>2021-03-25T10:50:16Z</time>
      </trkpt>
      <trkpt lat="45.54863" lon="6.79983">
        <ele>2562</ele>
        <time>2021-03-25T10:50:17Z</time>
      </trkpt>
      <trkpt lat="45.54863" lon="6.79984">
        <ele>2562.1</ele>
        <time>2021-03-25T10:50:18Z</time>
      </trkpt>
      <trkpt lat="45.54864" lon="6.79985">
        <ele>2562.2</ele>
        <time>2021-03-25T10:50:19Z</time>
      </trkpt>
      <trkpt lat="45.54864" lon="6.79986">
        <ele>2562.3</ele>
        <time>2021-03-25T10:50:20Z</time>
      </trkpt>
      <trkpt lat="45.54864" lon="6.79986">
        <ele>2562.4</ele>
        <time>2021-03-25T10:50:21Z</time>
      </trkpt>
      <trkpt lat="45.54865" lon="6.79987">
        <ele>2562.5</ele>
        <time>2021-03-25T10:50:22Z</time>
      </trkpt>
      <trkpt lat="45.54865" lon="6.79988">
        <ele>2562.7</ele>
        <time>2021-03-25T10:50:23Z</time>
      </trkpt>
      <trkpt lat="45.54865" lon="6.79988">
        <ele>2562.8</ele>
        <time>2021-03-25T10:50:24Z</time>
      </trkpt>
      <trkpt lat="45.54866" lon="6.79989">
        <ele>2562.9</ele>
        <time>2021-03-25T10:50:25Z</time>
      </trkpt>
      <trkpt lat="45.54866" lon="6.79989">
        <ele>2562.9</ele>
        <time>2021-03-25T10:50:26Z</time>
      </trkpt>
      <trkpt lat="45.54867" lon="6.7999">
        <ele>2563</ele>
        <time>2021-03-25T10:50:27Z</time>
      </trkpt>
      <trkpt lat="45.54867" lon="6.7999">
        <ele>2563.2</ele>
        <time>2021-03-25T10:50:28Z</time>
      </trkpt>
      <trkpt lat="45.54867" lon="6.79991">
        <ele>2563.3</ele>
        <time>2021-03-25T10:50:29Z</time>
      </trkpt>
      <trkpt lat="45.54868" lon="6.79992">
        <ele>2563.4</ele>
        <time>2021-03-25T10:50:30Z</time>
      </trkpt>
      <trkpt lat="45.54868" lon="6.79992">
        <ele>2563.5</ele>
        <time>2021-03-25T10:50:31Z</time>
      </trkpt>
      <trkpt lat="45.54869" lon="6.79993">
        <ele>2563.5</ele>
        <time>2021-03-25T10:50:32Z</time>
      </trkpt>
      <trkpt lat="45.54869" lon="6.79994">
        <ele>2563.6</ele>
        <time>2021-03-25T10:50:33Z</time>
      </trkpt>
      <trkpt lat="45.54869" lon="6.79994">
        <ele>2563.8</ele>
        <time>2021-03-25T10:50:34Z</time>
      </trkpt>
      <trkpt lat="45.5487" lon="6.79995">
        <ele>2563.9</ele>
        <time>2021-03-25T10:50:35Z</time>
      </trkpt>
      <trkpt lat="45.5487" lon="6.79995">
        <ele>2563.9</ele>
        <time>2021-03-25T10:50:36Z</time>
      </trkpt>
      <trkpt lat="45.5487" lon="6.79996">
        <ele>2564</ele>
        <time>2021-03-25T10:50:37Z</time>
      </trkpt>
      <trkpt lat="45.5487" lon="6.79997">
        <ele>2564.1</ele>
        <time>2021-03-25T10:50:38Z</time>
      </trkpt>
      <trkpt lat="45.54871" lon="6.79997">
        <ele>2564.1</ele>
        <time>2021-03-25T10:50:39Z</time>
      </trkpt>
      <trkpt lat="45.54871" lon="6.79998">
        <ele>2564.2</ele>
        <time>2021-03-25T10:50:40Z</time>
      </trkpt>
      <trkpt lat="45.54871" lon="6.79999">
        <ele>2564.3</ele>
        <time>2021-03-25T10:50:41Z</time>
      </trkpt>
      <trkpt lat="45.54871" lon="6.8">
        <ele>2564.5</ele>
        <time>2021-03-25T10:50:42Z</time>
      </trkpt>
      <trkpt lat="45.54872" lon="6.8">
        <ele>2564.5</ele>
        <time>2021-03-25T10:50:43Z</time>
      </trkpt>
      <trkpt lat="45.54872" lon="6.8">
        <ele>2564.6</ele>
        <time>2021-03-25T10:50:44Z</time>
      </trkpt>
      <trkpt lat="45.54872" lon="6.8">
        <ele>2564.6</ele>
        <time>2021-03-25T10:50:45Z</time>
      </trkpt>
      <trkpt lat="45.54873" lon="6.8">
        <ele>2564.7</ele>
        <time>2021-03-25T10:50:46Z</time>
      </trkpt>
      <trkpt lat="45.54873" lon="6.79999">
        <ele>2564.7</ele>
        <time>2021-03-25T10:50:47Z</time>
      </trkpt>
      <trkpt lat="45.54873" lon="6.79998">
        <ele>2564.8</ele>
        <time>2021-03-25T10:50:48Z</time>
      </trkpt>
      <trkpt lat="45.54873" lon="6.79997">
        <ele>2565</ele>
        <time>2021-03-25T10:50:49Z</time>
      </trkpt>
      <trkpt lat="45.54873" lon="6.79996">
        <ele>2565.1</ele>
        <time>2021-03-25T10:50:50Z</time>
      </trkpt>
      <trkpt lat="45.54873" lon="6.79996">
        <ele>2565.2</ele>
        <time>2021-03-25T10:50:51Z</time>
      </trkpt>
      <trkpt lat="45.54873" lon="6.79995">
        <ele>2565.2</ele>
        <time>2021-03-25T10:50:52Z</time>
      </trkpt>
      <trkpt lat="45.54873" lon="6.79995">
        <ele>2565.2</ele>
        <time>2021-03-25T10:50:53Z</time>
      </trkpt>
      <trkpt lat="45.54873" lon="6.79995">
        <ele>2565.2</ele>
        <time>2021-03-25T10:50:54Z</time>
      </trkpt>
      <trkpt lat="45.54873" lon="6.79995">
        <ele>2565.2</ele>
        <time>2021-03-25T10:50:55Z</time>
      </trkpt>
      <trkpt lat="45.54873" lon="6.79995">
        <ele>2565.2</ele>
        <time>2021-03-25T10:50:56Z</time>
      </trkpt>
      <trkpt lat="45.54873" lon="6.79996">
        <ele>2565.3</ele>
        <time>2021-03-25T10:50:57Z</time>
      </trkpt>
      <trkpt lat="45.54874" lon="6.79997">
        <ele>2565.3</ele>
        <time>2021-03-25T10:50:58Z</time>
      </trkpt>
      <trkpt lat="45.54874" lon="6.79998">
        <ele>2565.4</ele>
        <time>2021-03-25T10:50:59Z</time>
      </trkpt>
      <trkpt lat="45.54874" lon="6.79999">
        <ele>2565.5</ele>
        <time>2021-03-25T10:51:00Z</time>
      </trkpt>
      <trkpt lat="45.54874" lon="6.8">
        <ele>2565.5</ele>
        <time>2021-03-25T10:51:01Z</time>
      </trkpt>
      <trkpt lat="45.54875" lon="6.80001">
        <ele>2565.6</ele>
        <time>2021-03-25T10:51:02Z</time>
      </trkpt>
      <trkpt lat="45.54875" lon="6.80002">
        <ele>2565.7</ele>
        <time>2021-03-25T10:51:03Z</time>
      </trkpt>
      <trkpt lat="45.54875" lon="6.80003">
        <ele>2565.8</ele>
        <time>2021-03-25T10:51:04Z</time>
      </trkpt>
      <trkpt lat="45.54875" lon="6.80004">
        <ele>2565.9</ele>
        <time>2021-03-25T10:51:05Z</time>
      </trkpt>
      <trkpt lat="45.54875" lon="6.80005">
        <ele>2565.9</ele>
        <time>2021-03-25T10:51:06Z</time>
      </trkpt>
      <trkpt lat="45.54876" lon="6.80005">
        <ele>2566</ele>
        <time>2021-03-25T10:51:07Z</time>
      </trkpt>
      <trkpt lat="45.54876" lon="6.80006">
        <ele>2566</ele>
        <time>2021-03-25T10:51:08Z</time>
      </trkpt>
      <trkpt lat="45.54876" lon="6.80007">
        <ele>2566.1</ele>
        <time>2021-03-25T10:51:09Z</time>
      </trkpt>
      <trkpt lat="45.54875" lon="6.80007">
        <ele>2566.1</ele>
        <time>2021-03-25T10:51:10Z</time>
      </trkpt>
      <trkpt lat="45.54875" lon="6.80008">
        <ele>2566.2</ele>
        <time>2021-03-25T10:51:11Z</time>
      </trkpt>
      <trkpt lat="45.54875" lon="6.80008">
        <ele>2566.2</ele>
        <time>2021-03-25T10:51:12Z</time>
      </trkpt>
      <trkpt lat="45.54875" lon="6.80009">
        <ele>2566.3</ele>
        <time>2021-03-25T10:51:13Z</time>
      </trkpt>
      <trkpt lat="45.54875" lon="6.8001">
        <ele>2566.3</ele>
        <time>2021-03-25T10:51:14Z</time>
      </trkpt>
      <trkpt lat="45.54876" lon="6.80011">
        <ele>2566.4</ele>
        <time>2021-03-25T10:51:15Z</time>
      </trkpt>
      <trkpt lat="45.54876" lon="6.80011">
        <ele>2566.5</ele>
        <time>2021-03-25T10:51:16Z</time>
      </trkpt>
      <trkpt lat="45.54877" lon="6.80011">
        <ele>2566.5</ele>
        <time>2021-03-25T10:51:17Z</time>
      </trkpt>
      <trkpt lat="45.54877" lon="6.80012">
        <ele>2566.6</ele>
        <time>2021-03-25T10:51:18Z</time>
      </trkpt>
      <trkpt lat="45.54878" lon="6.80012">
        <ele>2566.7</ele>
        <time>2021-03-25T10:51:19Z</time>
      </trkpt>
      <trkpt lat="45.54879" lon="6.80013">
        <ele>2566.7</ele>
        <time>2021-03-25T10:51:20Z</time>
      </trkpt>
      <trkpt lat="45.54879" lon="6.80013">
        <ele>2566.8</ele>
        <time>2021-03-25T10:51:21Z</time>
      </trkpt>
      <trkpt lat="45.5488" lon="6.80014">
        <ele>2566.8</ele>
        <time>2021-03-25T10:51:22Z</time>
      </trkpt>
      <trkpt lat="45.5488" lon="6.80014">
        <ele>2566.9</ele>
        <time>2021-03-25T10:51:23Z</time>
      </trkpt>
      <trkpt lat="45.54881" lon="6.80015">
        <ele>2567</ele>
        <time>2021-03-25T10:51:24Z</time>
      </trkpt>
      <trkpt lat="45.54881" lon="6.80015">
        <ele>2567</ele>
        <time>2021-03-25T10:51:25Z</time>
      </trkpt>
      <trkpt lat="45.54881" lon="6.80016">
        <ele>2567</ele>
        <time>2021-03-25T10:51:26Z</time>
      </trkpt>
      <trkpt lat="45.54881" lon="6.80016">
        <ele>2567.1</ele>
        <time>2021-03-25T10:51:27Z</time>
      </trkpt>
      <trkpt lat="45.54882" lon="6.80017">
        <ele>2567.1</ele>
        <time>2021-03-25T10:51:28Z</time>
      </trkpt>
      <trkpt lat="45.54882" lon="6.80018">
        <ele>2567.2</ele>
        <time>2021-03-25T10:51:29Z</time>
      </trkpt>
      <trkpt lat="45.54883" lon="6.80018">
        <ele>2567.2</ele>
        <time>2021-03-25T10:51:30Z</time>
      </trkpt>
      <trkpt lat="45.54883" lon="6.80018">
        <ele>2567.3</ele>
        <time>2021-03-25T10:51:31Z</time>
      </trkpt>
      <trkpt lat="45.54883" lon="6.80019">
        <ele>2567.3</ele>
        <time>2021-03-25T10:51:32Z</time>
      </trkpt>
      <trkpt lat="45.54884" lon="6.80019">
        <ele>2567.4</ele>
        <time>2021-03-25T10:51:33Z</time>
      </trkpt>
      <trkpt lat="45.54884" lon="6.8002">
        <ele>2567.4</ele>
        <time>2021-03-25T10:51:34Z</time>
      </trkpt>
      <trkpt lat="45.54885" lon="6.8002">
        <ele>2567.5</ele>
        <time>2021-03-25T10:51:35Z</time>
      </trkpt>
      <trkpt lat="45.54885" lon="6.80021">
        <ele>2567.5</ele>
        <time>2021-03-25T10:51:36Z</time>
      </trkpt>
      <trkpt lat="45.54886" lon="6.80021">
        <ele>2567.6</ele>
        <time>2021-03-25T10:51:37Z</time>
      </trkpt>
      <trkpt lat="45.54887" lon="6.80022">
        <ele>2567.6</ele>
        <time>2021-03-25T10:51:38Z</time>
      </trkpt>
      <trkpt lat="45.54887" lon="6.80022">
        <ele>2567.7</ele>
        <time>2021-03-25T10:51:39Z</time>
      </trkpt>
      <trkpt lat="45.54887" lon="6.80022">
        <ele>2567.7</ele>
        <time>2021-03-25T10:51:40Z</time>
      </trkpt>
      <trkpt lat="45.54888" lon="6.80023">
        <ele>2567.8</ele>
        <time>2021-03-25T10:51:41Z</time>
      </trkpt>
      <trkpt lat="45.54888" lon="6.80023">
        <ele>2567.8</ele>
        <time>2021-03-25T10:51:42Z</time>
      </trkpt>
      <trkpt lat="45.54889" lon="6.80024">
        <ele>2567.9</ele>
        <time>2021-03-25T10:51:43Z</time>
      </trkpt>
      <trkpt lat="45.54889" lon="6.80024">
        <ele>2567.9</ele>
        <time>2021-03-25T10:51:44Z</time>
      </trkpt>
      <trkpt lat="45.54889" lon="6.80024">
        <ele>2567.9</ele>
        <time>2021-03-25T10:51:45Z</time>
      </trkpt>
      <trkpt lat="45.54889" lon="6.80024">
        <ele>2567.9</ele>
        <time>2021-03-25T10:51:46Z</time>
      </trkpt>
      <trkpt lat="45.54889" lon="6.80024">
        <ele>2567.9</ele>
        <time>2021-03-25T10:51:47Z</time>
      </trkpt>
      <trkpt lat="45.54889" lon="6.80025">
        <ele>2567.9</ele>
        <time>2021-03-25T10:51:48Z</time>
      </trkpt>
      <trkpt lat="45.54889" lon="6.80025">
        <ele>2568</ele>
        <time>2021-03-25T10:51:49Z</time>
      </trkpt>
      <trkpt lat="45.5489" lon="6.80027">
        <ele>2568.1</ele>
        <time>2021-03-25T10:51:50Z</time>
      </trkpt>
      <trkpt lat="45.54891" lon="6.80028">
        <ele>2568.2</ele>
        <time>2021-03-25T10:51:51Z</time>
      </trkpt>
      <trkpt lat="45.54892" lon="6.80029">
        <ele>2568.3</ele>
        <time>2021-03-25T10:51:55Z</time>
      </trkpt>
      <trkpt lat="45.54892" lon="6.8003">
        <ele>2568.3</ele>
        <time>2021-03-25T10:51:56Z</time>
      </trkpt>
      <trkpt lat="45.54893" lon="6.8003">
        <ele>2568.4</ele>
        <time>2021-03-25T10:51:57Z</time>
      </trkpt>
      <trkpt lat="45.54894" lon="6.80031">
        <ele>2568.5</ele>
        <time>2021-03-25T10:51:58Z</time>
      </trkpt>
      <trkpt lat="45.54894" lon="6.80032">
        <ele>2568.5</ele>
        <time>2021-03-25T10:51:59Z</time>
      </trkpt>
      <trkpt lat="45.54895" lon="6.80033">
        <ele>2568.6</ele>
        <time>2021-03-25T10:52:00Z</time>
      </trkpt>
      <trkpt lat="45.54895" lon="6.80034">
        <ele>2568.7</ele>
        <time>2021-03-25T10:52:01Z</time>
      </trkpt>
      <trkpt lat="45.54895" lon="6.80034">
        <ele>2568.7</ele>
        <time>2021-03-25T10:52:02Z</time>
      </trkpt>
      <trkpt lat="45.54896" lon="6.80035">
        <ele>2568.8</ele>
        <time>2021-03-25T10:52:03Z</time>
      </trkpt>
      <trkpt lat="45.54896" lon="6.80036">
        <ele>2568.8</ele>
        <time>2021-03-25T10:52:04Z</time>
      </trkpt>
      <trkpt lat="45.54896" lon="6.80037">
        <ele>2568.9</ele>
        <time>2021-03-25T10:52:05Z</time>
      </trkpt>
      <trkpt lat="45.54897" lon="6.80038">
        <ele>2568.9</ele>
        <time>2021-03-25T10:52:06Z</time>
      </trkpt>
      <trkpt lat="45.54897" lon="6.80039">
        <ele>2569</ele>
        <time>2021-03-25T10:52:07Z</time>
      </trkpt>
      <trkpt lat="45.54898" lon="6.8004">
        <ele>2569.1</ele>
        <time>2021-03-25T10:52:08Z</time>
      </trkpt>
      <trkpt lat="45.54898" lon="6.80041">
        <ele>2569.1</ele>
        <time>2021-03-25T10:52:09Z</time>
      </trkpt>
      <trkpt lat="45.54898" lon="6.80042">
        <ele>2569.2</ele>
        <time>2021-03-25T10:52:10Z</time>
      </trkpt>
      <trkpt lat="45.54899" lon="6.80043">
        <ele>2569.3</ele>
        <time>2021-03-25T10:52:11Z</time>
      </trkpt>
      <trkpt lat="45.54899" lon="6.80044">
        <ele>2569.3</ele>
        <time>2021-03-25T10:52:12Z</time>
      </trkpt>
      <trkpt lat="45.54899" lon="6.80045">
        <ele>2569.4</ele>
        <time>2021-03-25T10:52:13Z</time>
      </trkpt>
      <trkpt lat="45.549" lon="6.80046">
        <ele>2569.4</ele>
        <time>2021-03-25T10:52:14Z</time>
      </trkpt>
      <trkpt lat="45.549" lon="6.80047">
        <ele>2569.5</ele>
        <time>2021-03-25T10:52:15Z</time>
      </trkpt>
      <trkpt lat="45.549" lon="6.80048">
        <ele>2569.6</ele>
        <time>2021-03-25T10:52:16Z</time>
      </trkpt>
      <trkpt lat="45.54901" lon="6.80049">
        <ele>2569.6</ele>
        <time>2021-03-25T10:52:17Z</time>
      </trkpt>
      <trkpt lat="45.54901" lon="6.8005">
        <ele>2569.7</ele>
        <time>2021-03-25T10:52:18Z</time>
      </trkpt>
      <trkpt lat="45.54902" lon="6.80051">
        <ele>2569.8</ele>
        <time>2021-03-25T10:52:19Z</time>
      </trkpt>
      <trkpt lat="45.54902" lon="6.80052">
        <ele>2569.8</ele>
        <time>2021-03-25T10:52:20Z</time>
      </trkpt>
      <trkpt lat="45.54902" lon="6.80052">
        <ele>2569.9</ele>
        <time>2021-03-25T10:52:21Z</time>
      </trkpt>
      <trkpt lat="45.54903" lon="6.80053">
        <ele>2569.9</ele>
        <time>2021-03-25T10:52:22Z</time>
      </trkpt>
      <trkpt lat="45.54903" lon="6.80055">
        <ele>2570</ele>
        <time>2021-03-25T10:52:23Z</time>
      </trkpt>
      <trkpt lat="45.54904" lon="6.80056">
        <ele>2570.1</ele>
        <time>2021-03-25T10:52:24Z</time>
      </trkpt>
      <trkpt lat="45.54904" lon="6.80057">
        <ele>2570.2</ele>
        <time>2021-03-25T10:52:25Z</time>
      </trkpt>
      <trkpt lat="45.54904" lon="6.80058">
        <ele>2570.2</ele>
        <time>2021-03-25T10:52:26Z</time>
      </trkpt>
      <trkpt lat="45.54905" lon="6.80061">
        <ele>2570.4</ele>
        <time>2021-03-25T10:52:27Z</time>
      </trkpt>
      <trkpt lat="45.54905" lon="6.80064">
        <ele>2570.6</ele>
        <time>2021-03-25T10:52:28Z</time>
      </trkpt>
      <trkpt lat="45.54905" lon="6.80066">
        <ele>2570.7</ele>
        <time>2021-03-25T10:52:29Z</time>
      </trkpt>
      <trkpt lat="45.54906" lon="6.80068">
        <ele>2570.9</ele>
        <time>2021-03-25T10:52:30Z</time>
      </trkpt>
      <trkpt lat="45.54906" lon="6.8007">
        <ele>2571</ele>
        <time>2021-03-25T10:52:31Z</time>
      </trkpt>
      <trkpt lat="45.54906" lon="6.8007">
        <ele>2571</ele>
        <time>2021-03-25T10:52:32Z</time>
      </trkpt>
      <trkpt lat="45.54906" lon="6.80071">
        <ele>2571</ele>
        <time>2021-03-25T10:52:33Z</time>
      </trkpt>
      <trkpt lat="45.54906" lon="6.80072">
        <ele>2571.1</ele>
        <time>2021-03-25T10:52:34Z</time>
      </trkpt>
      <trkpt lat="45.54907" lon="6.80073">
        <ele>2571.2</ele>
        <time>2021-03-25T10:52:35Z</time>
      </trkpt>
      <trkpt lat="45.54907" lon="6.80074">
        <ele>2571.3</ele>
        <time>2021-03-25T10:52:36Z</time>
      </trkpt>
      <trkpt lat="45.54908" lon="6.80076">
        <ele>2571.4</ele>
        <time>2021-03-25T10:52:37Z</time>
      </trkpt>
      <trkpt lat="45.54908" lon="6.80077">
        <ele>2571.5</ele>
        <time>2021-03-25T10:52:38Z</time>
      </trkpt>
      <trkpt lat="45.54909" lon="6.80078">
        <ele>2571.6</ele>
        <time>2021-03-25T10:52:39Z</time>
      </trkpt>
      <trkpt lat="45.54909" lon="6.80079">
        <ele>2571.7</ele>
        <time>2021-03-25T10:52:40Z</time>
      </trkpt>
      <trkpt lat="45.5491" lon="6.8008">
        <ele>2571.8</ele>
        <time>2021-03-25T10:52:41Z</time>
      </trkpt>
      <trkpt lat="45.5491" lon="6.8008">
        <ele>2571.9</ele>
        <time>2021-03-25T10:52:42Z</time>
      </trkpt>
      <trkpt lat="45.5491" lon="6.80081">
        <ele>2571.9</ele>
        <time>2021-03-25T10:52:43Z</time>
      </trkpt>
      <trkpt lat="45.5491" lon="6.80081">
        <ele>2572</ele>
        <time>2021-03-25T10:52:44Z</time>
      </trkpt>
      <trkpt lat="45.54911" lon="6.80082">
        <ele>2572</ele>
        <time>2021-03-25T10:52:45Z</time>
      </trkpt>
      <trkpt lat="45.54911" lon="6.80082">
        <ele>2572</ele>
        <time>2021-03-25T10:52:46Z</time>
      </trkpt>
      <trkpt lat="45.54911" lon="6.80083">
        <ele>2572.1</ele>
        <time>2021-03-25T10:52:47Z</time>
      </trkpt>
      <trkpt lat="45.54912" lon="6.80083">
        <ele>2572.2</ele>
        <time>2021-03-25T10:52:48Z</time>
      </trkpt>
      <trkpt lat="45.54912" lon="6.80084">
        <ele>2572.3</ele>
        <time>2021-03-25T10:52:49Z</time>
      </trkpt>
      <trkpt lat="45.54913" lon="6.80086">
        <ele>2572.5</ele>
        <time>2021-03-25T10:52:50Z</time>
      </trkpt>
      <trkpt lat="45.54914" lon="6.80086">
        <ele>2572.6</ele>
        <time>2021-03-25T10:52:51Z</time>
      </trkpt>
      <trkpt lat="45.54914" lon="6.80087">
        <ele>2572.7</ele>
        <time>2021-03-25T10:52:52Z</time>
      </trkpt>
      <trkpt lat="45.54915" lon="6.80088">
        <ele>2572.8</ele>
        <time>2021-03-25T10:52:53Z</time>
      </trkpt>
      <trkpt lat="45.54916" lon="6.80091">
        <ele>2573.1</ele>
        <time>2021-03-25T10:52:54Z</time>
      </trkpt>
      <trkpt lat="45.54916" lon="6.80092">
        <ele>2573.3</ele>
        <time>2021-03-25T10:52:55Z</time>
      </trkpt>
      <trkpt lat="45.54917" lon="6.80093">
        <ele>2573.4</ele>
        <time>2021-03-25T10:52:56Z</time>
      </trkpt>
      <trkpt lat="45.54918" lon="6.80097">
        <ele>2573.9</ele>
        <time>2021-03-25T10:52:57Z</time>
      </trkpt>
      <trkpt lat="45.54919" lon="6.80099">
        <ele>2574</ele>
        <time>2021-03-25T10:52:58Z</time>
      </trkpt>
      <trkpt lat="45.5492" lon="6.80103">
        <ele>2574.5</ele>
        <time>2021-03-25T10:52:59Z</time>
      </trkpt>
      <trkpt lat="45.5492" lon="6.80105">
        <ele>2574.7</ele>
        <time>2021-03-25T10:53:00Z</time>
      </trkpt>
      <trkpt lat="45.54921" lon="6.80109">
        <ele>2575.2</ele>
        <time>2021-03-25T10:53:01Z</time>
      </trkpt>
      <trkpt lat="45.54921" lon="6.8011">
        <ele>2575.3</ele>
        <time>2021-03-25T10:53:02Z</time>
      </trkpt>
      <trkpt lat="45.54921" lon="6.80113">
        <ele>2575.6</ele>
        <time>2021-03-25T10:53:03Z</time>
      </trkpt>
      <trkpt lat="45.54922" lon="6.80115">
        <ele>2575.8</ele>
        <time>2021-03-25T10:53:04Z</time>
      </trkpt>
      <trkpt lat="45.54923" lon="6.80118">
        <ele>2576.2</ele>
        <time>2021-03-25T10:53:05Z</time>
      </trkpt>
      <trkpt lat="45.54924" lon="6.80119">
        <ele>2576.4</ele>
        <time>2021-03-25T10:53:06Z</time>
      </trkpt>
      <trkpt lat="45.54924" lon="6.80121">
        <ele>2576.5</ele>
        <time>2021-03-25T10:53:07Z</time>
      </trkpt>
      <trkpt lat="45.54925" lon="6.80122">
        <ele>2576.7</ele>
        <time>2021-03-25T10:53:08Z</time>
      </trkpt>
      <trkpt lat="45.54925" lon="6.80124">
        <ele>2576.9</ele>
        <time>2021-03-25T10:53:09Z</time>
      </trkpt>
      <trkpt lat="45.54925" lon="6.80126">
        <ele>2577.1</ele>
        <time>2021-03-25T10:53:10Z</time>
      </trkpt>
      <trkpt lat="45.54926" lon="6.80127">
        <ele>2577.2</ele>
        <time>2021-03-25T10:53:11Z</time>
      </trkpt>
      <trkpt lat="45.54926" lon="6.80128">
        <ele>2577.4</ele>
        <time>2021-03-25T10:53:12Z</time>
      </trkpt>
      <trkpt lat="45.54926" lon="6.8013">
        <ele>2577.5</ele>
        <time>2021-03-25T10:53:13Z</time>
      </trkpt>
      <trkpt lat="45.54927" lon="6.80131">
        <ele>2577.7</ele>
        <time>2021-03-25T10:53:14Z</time>
      </trkpt>
      <trkpt lat="45.54927" lon="6.80132">
        <ele>2577.8</ele>
        <time>2021-03-25T10:53:15Z</time>
      </trkpt>
      <trkpt lat="45.54927" lon="6.80133">
        <ele>2578</ele>
        <time>2021-03-25T10:53:16Z</time>
      </trkpt>
      <trkpt lat="45.54928" lon="6.80135">
        <ele>2578.1</ele>
        <time>2021-03-25T10:53:17Z</time>
      </trkpt>
      <trkpt lat="45.54928" lon="6.80136">
        <ele>2578.3</ele>
        <time>2021-03-25T10:53:18Z</time>
      </trkpt>
      <trkpt lat="45.54928" lon="6.80136">
        <ele>2578.3</ele>
        <time>2021-03-25T10:53:19Z</time>
      </trkpt>
      <trkpt lat="45.54929" lon="6.80137">
        <ele>2578.5</ele>
        <time>2021-03-25T10:53:20Z</time>
      </trkpt>
      <trkpt lat="45.54929" lon="6.80137">
        <ele>2578.5</ele>
        <time>2021-03-25T10:53:21Z</time>
      </trkpt>
      <trkpt lat="45.5493" lon="6.80139">
        <ele>2578.6</ele>
        <time>2021-03-25T10:53:22Z</time>
      </trkpt>
      <trkpt lat="45.5493" lon="6.8014">
        <ele>2578.9</ele>
        <time>2021-03-25T10:53:23Z</time>
      </trkpt>
      <trkpt lat="45.5493" lon="6.80142">
        <ele>2579.2</ele>
        <time>2021-03-25T10:53:24Z</time>
      </trkpt>
      <trkpt lat="45.5493" lon="6.80143">
        <ele>2579.5</ele>
        <time>2021-03-25T10:53:25Z</time>
      </trkpt>
      <trkpt lat="45.54931" lon="6.80144">
        <ele>2579.7</ele>
        <time>2021-03-25T10:53:26Z</time>
      </trkpt>
      <trkpt lat="45.54931" lon="6.80144">
        <ele>2579.8</ele>
        <time>2021-03-25T10:53:27Z</time>
      </trkpt>
      <trkpt lat="45.54931" lon="6.80145">
        <ele>2580</ele>
        <time>2021-03-25T10:53:28Z</time>
      </trkpt>
      <trkpt lat="45.54931" lon="6.80145">
        <ele>2580.1</ele>
        <time>2021-03-25T10:53:29Z</time>
      </trkpt>
      <trkpt lat="45.54932" lon="6.80146">
        <ele>2580.2</ele>
        <time>2021-03-25T10:53:30Z</time>
      </trkpt>
      <trkpt lat="45.54932" lon="6.80146">
        <ele>2580.4</ele>
        <time>2021-03-25T10:53:31Z</time>
      </trkpt>
      <trkpt lat="45.54932" lon="6.80147">
        <ele>2580.5</ele>
        <time>2021-03-25T10:53:32Z</time>
      </trkpt>
      <trkpt lat="45.54932" lon="6.80147">
        <ele>2580.7</ele>
        <time>2021-03-25T10:53:33Z</time>
      </trkpt>
      <trkpt lat="45.54933" lon="6.80148">
        <ele>2580.9</ele>
        <time>2021-03-25T10:53:34Z</time>
      </trkpt>
      <trkpt lat="45.54933" lon="6.80148">
        <ele>2581</ele>
        <time>2021-03-25T10:53:35Z</time>
      </trkpt>
      <trkpt lat="45.54934" lon="6.80149">
        <ele>2581.2</ele>
        <time>2021-03-25T10:53:36Z</time>
      </trkpt>
      <trkpt lat="45.54934" lon="6.80149">
        <ele>2581.4</ele>
        <time>2021-03-25T10:53:37Z</time>
      </trkpt>
      <trkpt lat="45.54935" lon="6.80149">
        <ele>2581.6</ele>
        <time>2021-03-25T10:53:38Z</time>
      </trkpt>
      <trkpt lat="45.54935" lon="6.80149">
        <ele>2581.7</ele>
        <time>2021-03-25T10:53:39Z</time>
      </trkpt>
      <trkpt lat="45.54935" lon="6.80149">
        <ele>2581.8</ele>
        <time>2021-03-25T10:53:40Z</time>
      </trkpt>
      <trkpt lat="45.54935" lon="6.8015">
        <ele>2582</ele>
        <time>2021-03-25T10:53:41Z</time>
      </trkpt>
      <trkpt lat="45.54935" lon="6.80151">
        <ele>2582.1</ele>
        <time>2021-03-25T10:53:42Z</time>
      </trkpt>
      <trkpt lat="45.54935" lon="6.80151">
        <ele>2582.2</ele>
        <time>2021-03-25T10:53:43Z</time>
      </trkpt>
      <trkpt lat="45.54935" lon="6.80152">
        <ele>2582.4</ele>
        <time>2021-03-25T10:53:44Z</time>
      </trkpt>
      <trkpt lat="45.54936" lon="6.80153">
        <ele>2582.6</ele>
        <time>2021-03-25T10:53:45Z</time>
      </trkpt>
      <trkpt lat="45.54936" lon="6.80153">
        <ele>2582.7</ele>
        <time>2021-03-25T10:53:46Z</time>
      </trkpt>
      <trkpt lat="45.54936" lon="6.80154">
        <ele>2582.9</ele>
        <time>2021-03-25T10:53:47Z</time>
      </trkpt>
      <trkpt lat="45.54936" lon="6.80155">
        <ele>2583.1</ele>
        <time>2021-03-25T10:53:48Z</time>
      </trkpt>
      <trkpt lat="45.54936" lon="6.80155">
        <ele>2583.2</ele>
        <time>2021-03-25T10:53:49Z</time>
      </trkpt>
      <trkpt lat="45.54936" lon="6.80156">
        <ele>2583.4</ele>
        <time>2021-03-25T10:53:50Z</time>
      </trkpt>
      <trkpt lat="45.54936" lon="6.80157">
        <ele>2583.6</ele>
        <time>2021-03-25T10:53:51Z</time>
      </trkpt>
      <trkpt lat="45.54935" lon="6.80157">
        <ele>2583.8</ele>
        <time>2021-03-25T10:53:52Z</time>
      </trkpt>
      <trkpt lat="45.54935" lon="6.80158">
        <ele>2584</ele>
        <time>2021-03-25T10:53:53Z</time>
      </trkpt>
      <trkpt lat="45.54935" lon="6.80159">
        <ele>2584.2</ele>
        <time>2021-03-25T10:53:54Z</time>
      </trkpt>
      <trkpt lat="45.54934" lon="6.8016">
        <ele>2584.4</ele>
        <time>2021-03-25T10:53:55Z</time>
      </trkpt>
      <trkpt lat="45.54934" lon="6.8016">
        <ele>2584.7</ele>
        <time>2021-03-25T10:53:56Z</time>
      </trkpt>
      <trkpt lat="45.54934" lon="6.80161">
        <ele>2584.8</ele>
        <time>2021-03-25T10:53:57Z</time>
      </trkpt>
      <trkpt lat="45.54933" lon="6.80162">
        <ele>2585.1</ele>
        <time>2021-03-25T10:53:58Z</time>
      </trkpt>
      <trkpt lat="45.54933" lon="6.80162">
        <ele>2585.3</ele>
        <time>2021-03-25T10:53:59Z</time>
      </trkpt>
      <trkpt lat="45.54933" lon="6.80163">
        <ele>2585.5</ele>
        <time>2021-03-25T10:54:00Z</time>
      </trkpt>
      <trkpt lat="45.54932" lon="6.80164">
        <ele>2585.7</ele>
        <time>2021-03-25T10:54:01Z</time>
      </trkpt>
      <trkpt lat="45.54932" lon="6.80165">
        <ele>2585.9</ele>
        <time>2021-03-25T10:54:02Z</time>
      </trkpt>
      <trkpt lat="45.54932" lon="6.80166">
        <ele>2586.1</ele>
        <time>2021-03-25T10:54:03Z</time>
      </trkpt>
      <trkpt lat="45.54932" lon="6.80166">
        <ele>2586.3</ele>
        <time>2021-03-25T10:54:04Z</time>
      </trkpt>
      <trkpt lat="45.54932" lon="6.80167">
        <ele>2586.6</ele>
        <time>2021-03-25T10:54:05Z</time>
      </trkpt>
      <trkpt lat="45.54931" lon="6.80168">
        <ele>2586.8</ele>
        <time>2021-03-25T10:54:06Z</time>
      </trkpt>
      <trkpt lat="45.54931" lon="6.80169">
        <ele>2587</ele>
        <time>2021-03-25T10:54:07Z</time>
      </trkpt>
      <trkpt lat="45.54931" lon="6.80169">
        <ele>2587.2</ele>
        <time>2021-03-25T10:54:08Z</time>
      </trkpt>
      <trkpt lat="45.54931" lon="6.8017">
        <ele>2587.4</ele>
        <time>2021-03-25T10:54:09Z</time>
      </trkpt>
      <trkpt lat="45.5493" lon="6.80171">
        <ele>2587.6</ele>
        <time>2021-03-25T10:54:10Z</time>
      </trkpt>
      <trkpt lat="45.5493" lon="6.80172">
        <ele>2587.8</ele>
        <time>2021-03-25T10:54:11Z</time>
      </trkpt>
      <trkpt lat="45.5493" lon="6.80172">
        <ele>2588</ele>
        <time>2021-03-25T10:54:12Z</time>
      </trkpt>
      <trkpt lat="45.5493" lon="6.80173">
        <ele>2588.2</ele>
        <time>2021-03-25T10:54:13Z</time>
      </trkpt>
      <trkpt lat="45.5493" lon="6.80174">
        <ele>2588.4</ele>
        <time>2021-03-25T10:54:14Z</time>
      </trkpt>
      <trkpt lat="45.54931" lon="6.80175">
        <ele>2588.8</ele>
        <time>2021-03-25T10:54:15Z</time>
      </trkpt>
      <trkpt lat="45.54932" lon="6.80175">
        <ele>2589.1</ele>
        <time>2021-03-25T10:54:16Z</time>
      </trkpt>
      <trkpt lat="45.54933" lon="6.80176">
        <ele>2589.5</ele>
        <time>2021-03-25T10:54:17Z</time>
      </trkpt>
      <trkpt lat="45.54933" lon="6.80176">
        <ele>2589.7</ele>
        <time>2021-03-25T10:54:18Z</time>
      </trkpt>
      <trkpt lat="45.54934" lon="6.80176">
        <ele>2590</ele>
        <time>2021-03-25T10:54:19Z</time>
      </trkpt>
      <trkpt lat="45.54935" lon="6.80175">
        <ele>2590.4</ele>
        <time>2021-03-25T10:54:20Z</time>
      </trkpt>
      <trkpt lat="45.54936" lon="6.80174">
        <ele>2590.8</ele>
        <time>2021-03-25T10:54:21Z</time>
      </trkpt>
      <trkpt lat="45.54937" lon="6.80174">
        <ele>2591.1</ele>
        <time>2021-03-25T10:54:22Z</time>
      </trkpt>
      <trkpt lat="45.54937" lon="6.80174">
        <ele>2591.4</ele>
        <time>2021-03-25T10:54:23Z</time>
      </trkpt>
      <trkpt lat="45.54938" lon="6.80174">
        <ele>2591.7</ele>
        <time>2021-03-25T10:54:24Z</time>
      </trkpt>
      <trkpt lat="45.54939" lon="6.80174">
        <ele>2591.9</ele>
        <time>2021-03-25T10:54:25Z</time>
      </trkpt>
      <trkpt lat="45.54939" lon="6.80174">
        <ele>2592.1</ele>
        <time>2021-03-25T10:54:26Z</time>
      </trkpt>
      <trkpt lat="45.54939" lon="6.80174">
        <ele>2592.2</ele>
        <time>2021-03-25T10:54:27Z</time>
      </trkpt>
      <trkpt lat="45.5494" lon="6.80175">
        <ele>2592.5</ele>
        <time>2021-03-25T10:54:28Z</time>
      </trkpt>
      <trkpt lat="45.5494" lon="6.80176">
        <ele>2592.7</ele>
        <time>2021-03-25T10:54:29Z</time>
      </trkpt>
      <trkpt lat="45.5494" lon="6.80176">
        <ele>2592.8</ele>
        <time>2021-03-25T10:54:30Z</time>
      </trkpt>
      <trkpt lat="45.5494" lon="6.80177">
        <ele>2593</ele>
        <time>2021-03-25T10:54:31Z</time>
      </trkpt>
      <trkpt lat="45.5494" lon="6.80178">
        <ele>2593.2</ele>
        <time>2021-03-25T10:54:32Z</time>
      </trkpt>
      <trkpt lat="45.5494" lon="6.80178">
        <ele>2593.3</ele>
        <time>2021-03-25T10:54:33Z</time>
      </trkpt>
      <trkpt lat="45.5494" lon="6.80179">
        <ele>2593.5</ele>
        <time>2021-03-25T10:54:34Z</time>
      </trkpt>
      <trkpt lat="45.54941" lon="6.80179">
        <ele>2593.7</ele>
        <time>2021-03-25T10:54:35Z</time>
      </trkpt>
      <trkpt lat="45.54941" lon="6.8018">
        <ele>2593.8</ele>
        <time>2021-03-25T10:54:36Z</time>
      </trkpt>
      <trkpt lat="45.54941" lon="6.80181">
        <ele>2594</ele>
        <time>2021-03-25T10:54:37Z</time>
      </trkpt>
      <trkpt lat="45.54941" lon="6.80181">
        <ele>2594.2</ele>
        <time>2021-03-25T10:54:38Z</time>
      </trkpt>
      <trkpt lat="45.54941" lon="6.80182">
        <ele>2594.3</ele>
        <time>2021-03-25T10:54:39Z</time>
      </trkpt>
      <trkpt lat="45.54941" lon="6.80183">
        <ele>2594.5</ele>
        <time>2021-03-25T10:54:40Z</time>
      </trkpt>
      <trkpt lat="45.54941" lon="6.80183">
        <ele>2594.7</ele>
        <time>2021-03-25T11:00:24Z</time>
      </trkpt>
      <trkpt lat="45.54941" lon="6.80184">
        <ele>2594.8</ele>
        <time>2021-03-25T11:00:25Z</time>
      </trkpt>
      <trkpt lat="45.54941" lon="6.80184">
        <ele>2595</ele>
        <time>2021-03-25T11:00:26Z</time>
      </trkpt>
      <trkpt lat="45.54941" lon="6.80185">
        <ele>2595.2</ele>
        <time>2021-03-25T11:00:27Z</time>
      </trkpt>
      <trkpt lat="45.54941" lon="6.80186">
        <ele>2595.3</ele>
        <time>2021-03-25T11:00:28Z</time>
      </trkpt>
      <trkpt lat="45.54941" lon="6.80186">
        <ele>2595.5</ele>
        <time>2021-03-25T11:00:29Z</time>
      </trkpt>
      <trkpt lat="45.54941" lon="6.80187">
        <ele>2595.8</ele>
        <time>2021-03-25T11:00:30Z</time>
      </trkpt>
      <trkpt lat="45.54941" lon="6.80187">
        <ele>2596</ele>
        <time>2021-03-25T11:00:31Z</time>
      </trkpt>
      <trkpt lat="45.5494" lon="6.80188">
        <ele>2596.3</ele>
        <time>2021-03-25T11:00:32Z</time>
      </trkpt>
      <trkpt lat="45.5494" lon="6.8019">
        <ele>2596.7</ele>
        <time>2021-03-25T11:00:33Z</time>
      </trkpt>
      <trkpt lat="45.5494" lon="6.80191">
        <ele>2597</ele>
        <time>2021-03-25T11:00:34Z</time>
      </trkpt>
      <trkpt lat="45.5494" lon="6.80192">
        <ele>2597.3</ele>
        <time>2021-03-25T11:00:35Z</time>
      </trkpt>
      <trkpt lat="45.5494" lon="6.80193">
        <ele>2597.6</ele>
        <time>2021-03-25T11:00:36Z</time>
      </trkpt>
      <trkpt lat="45.5494" lon="6.80194">
        <ele>2597.7</ele>
        <time>2021-03-25T11:00:37Z</time>
      </trkpt>
      <trkpt lat="45.5494" lon="6.80194">
        <ele>2598</ele>
        <time>2021-03-25T11:00:38Z</time>
      </trkpt>
      <trkpt lat="45.54939" lon="6.80195">
        <ele>2598.1</ele>
        <time>2021-03-25T11:00:39Z</time>
      </trkpt>
      <trkpt lat="45.54939" lon="6.80196">
        <ele>2598.3</ele>
        <time>2021-03-25T11:00:40Z</time>
      </trkpt>
      <trkpt lat="45.54939" lon="6.80196">
        <ele>2598.5</ele>
        <time>2021-03-25T11:00:41Z</time>
      </trkpt>
      <trkpt lat="45.54939" lon="6.80197">
        <ele>2598.7</ele>
        <time>2021-03-25T11:00:42Z</time>
      </trkpt>
      <trkpt lat="45.54938" lon="6.80198">
        <ele>2599</ele>
        <time>2021-03-25T11:00:43Z</time>
      </trkpt>
      <trkpt lat="45.54938" lon="6.80199">
        <ele>2599.3</ele>
        <time>2021-03-25T11:00:44Z</time>
      </trkpt>
      <trkpt lat="45.54938" lon="6.802">
        <ele>2599.6</ele>
        <time>2021-03-25T11:00:45Z</time>
      </trkpt>
      <trkpt lat="45.54937" lon="6.802">
        <ele>2600.1</ele>
        <time>2021-03-25T11:00:46Z</time>
      </trkpt>
      <trkpt lat="45.54937" lon="6.80201">
        <ele>2600.3</ele>
        <time>2021-03-25T11:00:47Z</time>
      </trkpt>
      <trkpt lat="45.54937" lon="6.80202">
        <ele>2600.4</ele>
        <time>2021-03-25T11:00:48Z</time>
      </trkpt>
      <trkpt lat="45.54936" lon="6.80202">
        <ele>2600.6</ele>
        <time>2021-03-25T11:00:49Z</time>
      </trkpt>
      <trkpt lat="45.54936" lon="6.80203">
        <ele>2600.9</ele>
        <time>2021-03-25T11:00:50Z</time>
      </trkpt>
      <trkpt lat="45.54935" lon="6.80204">
        <ele>2601</ele>
        <time>2021-03-25T11:00:51Z</time>
      </trkpt>
      <trkpt lat="45.54935" lon="6.80205">
        <ele>2601.2</ele>
        <time>2021-03-25T11:00:52Z</time>
      </trkpt>
      <trkpt lat="45.54935" lon="6.80205">
        <ele>2601.3</ele>
        <time>2021-03-25T11:00:53Z</time>
      </trkpt>
      <trkpt lat="45.54935" lon="6.80206">
        <ele>2601.5</ele>
        <time>2021-03-25T11:00:54Z</time>
      </trkpt>
      <trkpt lat="45.54935" lon="6.80206">
        <ele>2601.6</ele>
        <time>2021-03-25T11:00:55Z</time>
      </trkpt>
      <trkpt lat="45.54934" lon="6.80207">
        <ele>2601.8</ele>
        <time>2021-03-25T11:00:56Z</time>
      </trkpt>
      <trkpt lat="45.54934" lon="6.80208">
        <ele>2601.9</ele>
        <time>2021-03-25T11:00:57Z</time>
      </trkpt>
      <trkpt lat="45.54934" lon="6.80208">
        <ele>2602.1</ele>
        <time>2021-03-25T11:00:58Z</time>
      </trkpt>
      <trkpt lat="45.54934" lon="6.80209">
        <ele>2602.2</ele>
        <time>2021-03-25T11:00:59Z</time>
      </trkpt>
      <trkpt lat="45.54933" lon="6.80209">
        <ele>2602.4</ele>
        <time>2021-03-25T11:01:09Z</time>
      </trkpt>
      <trkpt lat="45.54933" lon="6.8021">
        <ele>2602.5</ele>
        <time>2021-03-25T11:01:10Z</time>
      </trkpt>
      <trkpt lat="45.54933" lon="6.80211">
        <ele>2602.7</ele>
        <time>2021-03-25T11:01:11Z</time>
      </trkpt>
      <trkpt lat="45.54933" lon="6.80211">
        <ele>2602.9</ele>
        <time>2021-03-25T11:01:12Z</time>
      </trkpt>
      <trkpt lat="45.54932" lon="6.80212">
        <ele>2603</ele>
        <time>2021-03-25T11:01:13Z</time>
      </trkpt>
      <trkpt lat="45.54932" lon="6.80213">
        <ele>2603.2</ele>
        <time>2021-03-25T11:01:14Z</time>
      </trkpt>
      <trkpt lat="45.54932" lon="6.80213">
        <ele>2603.3</ele>
        <time>2021-03-25T11:01:15Z</time>
      </trkpt>
      <trkpt lat="45.54932" lon="6.80214">
        <ele>2603.5</ele>
        <time>2021-03-25T11:01:16Z</time>
      </trkpt>
      <trkpt lat="45.54931" lon="6.80214">
        <ele>2603.6</ele>
        <time>2021-03-25T11:01:17Z</time>
      </trkpt>
      <trkpt lat="45.54931" lon="6.80215">
        <ele>2603.8</ele>
        <time>2021-03-25T11:01:18Z</time>
      </trkpt>
      <trkpt lat="45.54931" lon="6.80215">
        <ele>2603.9</ele>
        <time>2021-03-25T11:01:19Z</time>
      </trkpt>
      <trkpt lat="45.54931" lon="6.80216">
        <ele>2604.1</ele>
        <time>2021-03-25T11:01:20Z</time>
      </trkpt>
      <trkpt lat="45.5493" lon="6.80216">
        <ele>2604.2</ele>
        <time>2021-03-25T11:01:21Z</time>
      </trkpt>
      <trkpt lat="45.5493" lon="6.80216">
        <ele>2604.3</ele>
        <time>2021-03-25T11:01:22Z</time>
      </trkpt>
      <trkpt lat="45.54931" lon="6.80217">
        <ele>2604.5</ele>
        <time>2021-03-25T11:01:23Z</time>
      </trkpt>
      <trkpt lat="45.54931" lon="6.80217">
        <ele>2604.6</ele>
        <time>2021-03-25T11:01:24Z</time>
      </trkpt>
      <trkpt lat="45.54931" lon="6.80218">
        <ele>2604.8</ele>
        <time>2021-03-25T11:01:25Z</time>
      </trkpt>
      <trkpt lat="45.54931" lon="6.80219">
        <ele>2605</ele>
        <time>2021-03-25T11:02:10Z</time>
      </trkpt>
      <trkpt lat="45.54932" lon="6.80219">
        <ele>2605.2</ele>
        <time>2021-03-25T11:02:11Z</time>
      </trkpt>
      <trkpt lat="45.54932" lon="6.8022">
        <ele>2605.3</ele>
        <time>2021-03-25T11:02:12Z</time>
      </trkpt>
      <trkpt lat="45.54932" lon="6.8022">
        <ele>2605.5</ele>
        <time>2021-03-25T11:02:13Z</time>
      </trkpt>
      <trkpt lat="45.54933" lon="6.80221">
        <ele>2605.7</ele>
        <time>2021-03-25T11:02:14Z</time>
      </trkpt>
      <trkpt lat="45.54933" lon="6.80221">
        <ele>2605.9</ele>
        <time>2021-03-25T11:02:15Z</time>
      </trkpt>
      <trkpt lat="45.54933" lon="6.80222">
        <ele>2606.1</ele>
        <time>2021-03-25T11:02:16Z</time>
      </trkpt>
      <trkpt lat="45.54933" lon="6.80223">
        <ele>2606.3</ele>
        <time>2021-03-25T11:02:17Z</time>
      </trkpt>
      <trkpt lat="45.54934" lon="6.80223">
        <ele>2606.5</ele>
        <time>2021-03-25T11:02:18Z</time>
      </trkpt>
      <trkpt lat="45.54934" lon="6.80224">
        <ele>2606.7</ele>
        <time>2021-03-25T11:02:19Z</time>
      </trkpt>
      <trkpt lat="45.54934" lon="6.80224">
        <ele>2606.9</ele>
        <time>2021-03-25T11:04:50Z</time>
      </trkpt>
      <trkpt lat="45.54935" lon="6.80225">
        <ele>2607.1</ele>
        <time>2021-03-25T11:04:51Z</time>
      </trkpt>
      <trkpt lat="45.54935" lon="6.80225">
        <ele>2607.3</ele>
        <time>2021-03-25T11:04:52Z</time>
      </trkpt>
      <trkpt lat="45.54935" lon="6.80226">
        <ele>2607.5</ele>
        <time>2021-03-25T11:04:53Z</time>
      </trkpt>
      <trkpt lat="45.54935" lon="6.80227">
        <ele>2607.7</ele>
        <time>2021-03-25T11:04:54Z</time>
      </trkpt>
      <trkpt lat="45.54936" lon="6.80226">
        <ele>2608</ele>
        <time>2021-03-25T11:04:55Z</time>
      </trkpt>
      <trkpt lat="45.54936" lon="6.80226">
        <ele>2608.3</ele>
        <time>2021-03-25T11:04:56Z</time>
      </trkpt>
      <trkpt lat="45.54937" lon="6.80226">
        <ele>2608.5</ele>
        <time>2021-03-25T11:04:57Z</time>
      </trkpt>
      <trkpt lat="45.54937" lon="6.80226">
        <ele>2608.7</ele>
        <time>2021-03-25T11:04:58Z</time>
      </trkpt>
      <trkpt lat="45.54938" lon="6.80225">
        <ele>2609</ele>
        <time>2021-03-25T11:04:59Z</time>
      </trkpt>
      <trkpt lat="45.54938" lon="6.80224">
        <ele>2609.3</ele>
        <time>2021-03-25T11:05:00Z</time>
      </trkpt>
      <trkpt lat="45.54938" lon="6.80224">
        <ele>2609.4</ele>
        <time>2021-03-25T11:05:01Z</time>
      </trkpt>
      <trkpt lat="45.54939" lon="6.80223">
        <ele>2609.5</ele>
        <time>2021-03-25T11:05:02Z</time>
      </trkpt>
      <trkpt lat="45.54939" lon="6.80224">
        <ele>2609.8</ele>
        <time>2021-03-25T11:05:03Z</time>
      </trkpt>
      <trkpt lat="45.5494" lon="6.80224">
        <ele>2610.1</ele>
        <time>2021-03-25T11:05:04Z</time>
      </trkpt>
      <trkpt lat="45.5494" lon="6.80224">
        <ele>2610.3</ele>
        <time>2021-03-25T11:05:05Z</time>
      </trkpt>
      <trkpt lat="45.54941" lon="6.80225">
        <ele>2610.6</ele>
        <time>2021-03-25T11:05:06Z</time>
      </trkpt>
      <trkpt lat="45.54941" lon="6.80227">
        <ele>2611.3</ele>
        <time>2021-03-25T11:05:07Z</time>
      </trkpt>
      <trkpt lat="45.5494" lon="6.80228">
        <ele>2611.8</ele>
        <time>2021-03-25T11:05:08Z</time>
      </trkpt>
      <trkpt lat="45.5494" lon="6.80229">
        <ele>2612.2</ele>
        <time>2021-03-25T11:05:09Z</time>
      </trkpt>
      <trkpt lat="45.54939" lon="6.80231">
        <ele>2612.7</ele>
        <time>2021-03-25T11:05:10Z</time>
      </trkpt>
      <trkpt lat="45.54938" lon="6.80232">
        <ele>2613.2</ele>
        <time>2021-03-25T11:05:15Z</time>
      </trkpt>
      <trkpt lat="45.54938" lon="6.80233">
        <ele>2613.6</ele>
        <time>2021-03-25T11:05:16Z</time>
      </trkpt>
      <trkpt lat="45.54937" lon="6.80234">
        <ele>2614.1</ele>
        <time>2021-03-25T11:05:17Z</time>
      </trkpt>
      <trkpt lat="45.54936" lon="6.80235">
        <ele>2614.6</ele>
        <time>2021-03-25T11:05:18Z</time>
      </trkpt>
      <trkpt lat="45.54936" lon="6.80236">
        <ele>2614.8</ele>
        <time>2021-03-25T11:05:19Z</time>
      </trkpt>
      <trkpt lat="45.54935" lon="6.80236">
        <ele>2614.9</ele>
        <time>2021-03-25T11:05:20Z</time>
      </trkpt>
      <trkpt lat="45.54934" lon="6.80237">
        <ele>2615.1</ele>
        <time>2021-03-25T11:05:21Z</time>
      </trkpt>
      <trkpt lat="45.54933" lon="6.80238">
        <ele>2615.3</ele>
        <time>2021-03-25T11:05:22Z</time>
      </trkpt>
      <trkpt lat="45.54932" lon="6.80238">
        <ele>2615.5</ele>
        <time>2021-03-25T11:05:23Z</time>
      </trkpt>
      <trkpt lat="45.54932" lon="6.80238">
        <ele>2615.6</ele>
        <time>2021-03-25T11:05:24Z</time>
      </trkpt>
      <trkpt lat="45.54931" lon="6.80238">
        <ele>2615.8</ele>
        <time>2021-03-25T11:05:25Z</time>
      </trkpt>
      <trkpt lat="45.54931" lon="6.80238">
        <ele>2615.9</ele>
        <time>2021-03-25T11:05:26Z</time>
      </trkpt>
      <trkpt lat="45.5493" lon="6.80238">
        <ele>2615.9</ele>
        <time>2021-03-25T11:05:27Z</time>
      </trkpt>
      <trkpt lat="45.54929" lon="6.80238">
        <ele>2616.1</ele>
        <time>2021-03-25T11:05:28Z</time>
      </trkpt>
      <trkpt lat="45.54929" lon="6.80238">
        <ele>2616.3</ele>
        <time>2021-03-25T11:05:29Z</time>
      </trkpt>
      <trkpt lat="45.54929" lon="6.80238">
        <ele>2616.3</ele>
        <time>2021-03-25T11:05:30Z</time>
      </trkpt>
      <trkpt lat="45.54928" lon="6.80238">
        <ele>2616.4</ele>
        <time>2021-03-25T11:05:31Z</time>
      </trkpt>
      <trkpt lat="45.54927" lon="6.80238">
        <ele>2616.6</ele>
        <time>2021-03-25T11:05:32Z</time>
      </trkpt>
      <trkpt lat="45.54927" lon="6.80239">
        <ele>2616.7</ele>
        <time>2021-03-25T11:05:33Z</time>
      </trkpt>
      <trkpt lat="45.54927" lon="6.8024">
        <ele>2616.8</ele>
        <time>2021-03-25T11:05:34Z</time>
      </trkpt>
      <trkpt lat="45.54926" lon="6.80241">
        <ele>2617</ele>
        <time>2021-03-25T11:05:35Z</time>
      </trkpt>
      <trkpt lat="45.54926" lon="6.80242">
        <ele>2617.1</ele>
        <time>2021-03-25T11:05:36Z</time>
      </trkpt>
      <trkpt lat="45.54925" lon="6.80242">
        <ele>2617.3</ele>
        <time>2021-03-25T11:05:37Z</time>
      </trkpt>
      <trkpt lat="45.54925" lon="6.80243">
        <ele>2617.4</ele>
        <time>2021-03-25T11:05:38Z</time>
      </trkpt>
      <trkpt lat="45.54925" lon="6.80244">
        <ele>2617.6</ele>
        <time>2021-03-25T11:05:39Z</time>
      </trkpt>
      <trkpt lat="45.54924" lon="6.80245">
        <ele>2617.7</ele>
        <time>2021-03-25T11:05:40Z</time>
      </trkpt>
      <trkpt lat="45.54924" lon="6.80246">
        <ele>2617.8</ele>
        <time>2021-03-25T11:05:41Z</time>
      </trkpt>
      <trkpt lat="45.54924" lon="6.80247">
        <ele>2618</ele>
        <time>2021-03-25T11:05:42Z</time>
      </trkpt>
      <trkpt lat="45.54923" lon="6.80248">
        <ele>2618.1</ele>
        <time>2021-03-25T11:05:43Z</time>
      </trkpt>
      <trkpt lat="45.54923" lon="6.80248">
        <ele>2618.3</ele>
        <time>2021-03-25T11:05:44Z</time>
      </trkpt>
      <trkpt lat="45.54922" lon="6.80249">
        <ele>2618.4</ele>
        <time>2021-03-25T11:06:23Z</time>
      </trkpt>
      <trkpt lat="45.54922" lon="6.8025">
        <ele>2618.6</ele>
        <time>2021-03-25T11:06:24Z</time>
      </trkpt>
      <trkpt lat="45.54922" lon="6.80251">
        <ele>2618.7</ele>
        <time>2021-03-25T11:06:25Z</time>
      </trkpt>
      <trkpt lat="45.54921" lon="6.80252">
        <ele>2618.9</ele>
        <time>2021-03-25T11:06:26Z</time>
      </trkpt>
      <trkpt lat="45.54921" lon="6.80253">
        <ele>2619</ele>
        <time>2021-03-25T11:06:27Z</time>
      </trkpt>
      <trkpt lat="45.54921" lon="6.80254">
        <ele>2619.2</ele>
        <time>2021-03-25T11:06:28Z</time>
      </trkpt>
      <trkpt lat="45.54921" lon="6.80255">
        <ele>2619.3</ele>
        <time>2021-03-25T11:06:29Z</time>
      </trkpt>
      <trkpt lat="45.54922" lon="6.80256">
        <ele>2619.5</ele>
        <time>2021-03-25T11:06:30Z</time>
      </trkpt>
      <trkpt lat="45.54922" lon="6.80257">
        <ele>2619.7</ele>
        <time>2021-03-25T11:06:31Z</time>
      </trkpt>
      <trkpt lat="45.54922" lon="6.80258">
        <ele>2619.8</ele>
        <time>2021-03-25T11:06:32Z</time>
      </trkpt>
      <trkpt lat="45.54922" lon="6.80259">
        <ele>2620</ele>
        <time>2021-03-25T11:06:33Z</time>
      </trkpt>
      <trkpt lat="45.54922" lon="6.8026">
        <ele>2620.1</ele>
        <time>2021-03-25T11:06:34Z</time>
      </trkpt>
      <trkpt lat="45.54922" lon="6.80261">
        <ele>2620.2</ele>
        <time>2021-03-25T11:06:35Z</time>
      </trkpt>
      <trkpt lat="45.54922" lon="6.80261">
        <ele>2620.3</ele>
        <time>2021-03-25T11:06:36Z</time>
      </trkpt>
      <trkpt lat="45.54921" lon="6.80261">
        <ele>2620.4</ele>
        <time>2021-03-25T11:06:37Z</time>
      </trkpt>
      <trkpt lat="45.54921" lon="6.80262">
        <ele>2620.5</ele>
        <time>2021-03-25T11:06:38Z</time>
      </trkpt>
      <trkpt lat="45.5492" lon="6.80262">
        <ele>2620.6</ele>
        <time>2021-03-25T11:06:39Z</time>
      </trkpt>
      <trkpt lat="45.54919" lon="6.80262">
        <ele>2620.8</ele>
        <time>2021-03-25T11:06:40Z</time>
      </trkpt>
      <trkpt lat="45.54919" lon="6.80262">
        <ele>2620.9</ele>
        <time>2021-03-25T11:06:41Z</time>
      </trkpt>
      <trkpt lat="45.54918" lon="6.80262">
        <ele>2621</ele>
        <time>2021-03-25T11:06:42Z</time>
      </trkpt>
      <trkpt lat="45.54917" lon="6.80263">
        <ele>2621.2</ele>
        <time>2021-03-25T11:06:43Z</time>
      </trkpt>
      <trkpt lat="45.54916" lon="6.80264">
        <ele>2621.4</ele>
        <time>2021-03-25T11:06:44Z</time>
      </trkpt>
      <trkpt lat="45.54916" lon="6.80264">
        <ele>2621.5</ele>
        <time>2021-03-25T11:06:45Z</time>
      </trkpt>
      <trkpt lat="45.54915" lon="6.80265">
        <ele>2621.6</ele>
        <time>2021-03-25T11:06:46Z</time>
      </trkpt>
      <trkpt lat="45.54915" lon="6.80265">
        <ele>2621.7</ele>
        <time>2021-03-25T11:06:47Z</time>
      </trkpt>
      <trkpt lat="45.54914" lon="6.80265">
        <ele>2621.8</ele>
        <time>2021-03-25T11:06:48Z</time>
      </trkpt>
      <trkpt lat="45.54914" lon="6.80266">
        <ele>2621.9</ele>
        <time>2021-03-25T11:06:49Z</time>
      </trkpt>
      <trkpt lat="45.54914" lon="6.80266">
        <ele>2622</ele>
        <time>2021-03-25T11:06:50Z</time>
      </trkpt>
      <trkpt lat="45.54914" lon="6.80267">
        <ele>2622</ele>
        <time>2021-03-25T11:06:51Z</time>
      </trkpt>
      <trkpt lat="45.54913" lon="6.80267">
        <ele>2622.1</ele>
        <time>2021-03-25T11:06:52Z</time>
      </trkpt>
      <trkpt lat="45.54913" lon="6.80268">
        <ele>2622.2</ele>
        <time>2021-03-25T11:06:53Z</time>
      </trkpt>
      <trkpt lat="45.54913" lon="6.80269">
        <ele>2622.4</ele>
        <time>2021-03-25T11:06:54Z</time>
      </trkpt>
      <trkpt lat="45.54913" lon="6.8027">
        <ele>2622.5</ele>
        <time>2021-03-25T11:06:55Z</time>
      </trkpt>
      <trkpt lat="45.54912" lon="6.80271">
        <ele>2622.6</ele>
        <time>2021-03-25T11:06:56Z</time>
      </trkpt>
      <trkpt lat="45.54912" lon="6.80271">
        <ele>2622.7</ele>
        <time>2021-03-25T11:06:57Z</time>
      </trkpt>
      <trkpt lat="45.54912" lon="6.80272">
        <ele>2622.8</ele>
        <time>2021-03-25T11:06:58Z</time>
      </trkpt>
      <trkpt lat="45.54911" lon="6.80273">
        <ele>2623</ele>
        <time>2021-03-25T11:06:59Z</time>
      </trkpt>
      <trkpt lat="45.54911" lon="6.80274">
        <ele>2623.1</ele>
        <time>2021-03-25T11:07:00Z</time>
      </trkpt>
      <trkpt lat="45.54911" lon="6.80275">
        <ele>2623.2</ele>
        <time>2021-03-25T11:07:01Z</time>
      </trkpt>
      <trkpt lat="45.5491" lon="6.80275">
        <ele>2623.3</ele>
        <time>2021-03-25T11:07:02Z</time>
      </trkpt>
      <trkpt lat="45.5491" lon="6.80276">
        <ele>2623.4</ele>
        <time>2021-03-25T11:07:03Z</time>
      </trkpt>
      <trkpt lat="45.54909" lon="6.80277">
        <ele>2623.5</ele>
        <time>2021-03-25T11:07:04Z</time>
      </trkpt>
      <trkpt lat="45.54909" lon="6.80278">
        <ele>2623.6</ele>
        <time>2021-03-25T11:07:05Z</time>
      </trkpt>
      <trkpt lat="45.54909" lon="6.80279">
        <ele>2623.8</ele>
        <time>2021-03-25T11:07:06Z</time>
      </trkpt>
      <trkpt lat="45.54908" lon="6.8028">
        <ele>2623.9</ele>
        <time>2021-03-25T11:07:07Z</time>
      </trkpt>
      <trkpt lat="45.54908" lon="6.80281">
        <ele>2624.1</ele>
        <time>2021-03-25T11:07:08Z</time>
      </trkpt>
      <trkpt lat="45.54907" lon="6.80281">
        <ele>2624.2</ele>
        <time>2021-03-25T11:07:09Z</time>
      </trkpt>
      <trkpt lat="45.54906" lon="6.80282">
        <ele>2624.3</ele>
        <time>2021-03-25T11:07:10Z</time>
      </trkpt>
      <trkpt lat="45.54906" lon="6.80282">
        <ele>2624.4</ele>
        <time>2021-03-25T11:07:11Z</time>
      </trkpt>
      <trkpt lat="45.54905" lon="6.80283">
        <ele>2624.6</ele>
        <time>2021-03-25T11:07:12Z</time>
      </trkpt>
      <trkpt lat="45.54905" lon="6.80283">
        <ele>2624.7</ele>
        <time>2021-03-25T11:07:13Z</time>
      </trkpt>
      <trkpt lat="45.54904" lon="6.80284">
        <ele>2624.8</ele>
        <time>2021-03-25T11:07:14Z</time>
      </trkpt>
      <trkpt lat="45.54904" lon="6.80285">
        <ele>2624.8</ele>
        <time>2021-03-25T11:07:15Z</time>
      </trkpt>
      <trkpt lat="45.54903" lon="6.80285">
        <ele>2624.9</ele>
        <time>2021-03-25T11:07:16Z</time>
      </trkpt>
      <trkpt lat="45.54903" lon="6.80286">
        <ele>2625</ele>
        <time>2021-03-25T11:07:17Z</time>
      </trkpt>
      <trkpt lat="45.54902" lon="6.80285">
        <ele>2625.1</ele>
        <time>2021-03-25T11:07:18Z</time>
      </trkpt>
      <trkpt lat="45.54902" lon="6.80285">
        <ele>2625.1</ele>
        <time>2021-03-25T11:07:19Z</time>
      </trkpt>
      <trkpt lat="45.54902" lon="6.80285">
        <ele>2625.1</ele>
        <time>2021-03-25T11:07:20Z</time>
      </trkpt>
      <trkpt lat="45.54901" lon="6.80284">
        <ele>2625.3</ele>
        <time>2021-03-25T11:07:21Z</time>
      </trkpt>
      <trkpt lat="45.54901" lon="6.80284">
        <ele>2625.3</ele>
        <time>2021-03-25T11:07:22Z</time>
      </trkpt>
      <trkpt lat="45.54902" lon="6.80283">
        <ele>2625.5</ele>
        <time>2021-03-25T11:07:23Z</time>
      </trkpt>
      <trkpt lat="45.54902" lon="6.80282">
        <ele>2625.6</ele>
        <time>2021-03-25T11:07:24Z</time>
      </trkpt>
      <trkpt lat="45.54903" lon="6.80281">
        <ele>2625.8</ele>
        <time>2021-03-25T11:07:25Z</time>
      </trkpt>
      <trkpt lat="45.54904" lon="6.80279">
        <ele>2625.9</ele>
        <time>2021-03-25T11:07:26Z</time>
      </trkpt>
      <trkpt lat="45.54904" lon="6.80278">
        <ele>2626.1</ele>
        <time>2021-03-25T11:07:40Z</time>
      </trkpt>
      <trkpt lat="45.54905" lon="6.80277">
        <ele>2626.2</ele>
        <time>2021-03-25T11:07:41Z</time>
      </trkpt>
      <trkpt lat="45.54905" lon="6.80276">
        <ele>2626.4</ele>
        <time>2021-03-25T11:07:42Z</time>
      </trkpt>
      <trkpt lat="45.54906" lon="6.80275">
        <ele>2626.5</ele>
        <time>2021-03-25T11:07:43Z</time>
      </trkpt>
      <trkpt lat="45.54907" lon="6.80273">
        <ele>2626.6</ele>
        <time>2021-03-25T11:07:44Z</time>
      </trkpt>
      <trkpt lat="45.54907" lon="6.80273">
        <ele>2626.8</ele>
        <time>2021-03-25T11:07:45Z</time>
      </trkpt>
      <trkpt lat="45.54908" lon="6.80273">
        <ele>2626.9</ele>
        <time>2021-03-25T11:07:46Z</time>
      </trkpt>
      <trkpt lat="45.54909" lon="6.80272">
        <ele>2627</ele>
        <time>2021-03-25T11:07:47Z</time>
      </trkpt>
      <trkpt lat="45.5491" lon="6.80272">
        <ele>2627.1</ele>
        <time>2021-03-25T11:07:48Z</time>
      </trkpt>
      <trkpt lat="45.54911" lon="6.80271">
        <ele>2627.3</ele>
        <time>2021-03-25T11:07:49Z</time>
      </trkpt>
      <trkpt lat="45.54911" lon="6.80271">
        <ele>2627.4</ele>
        <time>2021-03-25T11:07:50Z</time>
      </trkpt>
      <trkpt lat="45.54912" lon="6.80271">
        <ele>2627.5</ele>
        <time>2021-03-25T11:07:51Z</time>
      </trkpt>
      <trkpt lat="45.54913" lon="6.80271">
        <ele>2627.6</ele>
        <time>2021-03-25T11:07:52Z</time>
      </trkpt>
      <trkpt lat="45.54913" lon="6.80271">
        <ele>2627.7</ele>
        <time>2021-03-25T11:07:53Z</time>
      </trkpt>
      <trkpt lat="45.54914" lon="6.80271">
        <ele>2627.8</ele>
        <time>2021-03-25T11:07:54Z</time>
      </trkpt>
      <trkpt lat="45.54915" lon="6.8027">
        <ele>2627.9</ele>
        <time>2021-03-25T11:07:55Z</time>
      </trkpt>
      <trkpt lat="45.54915" lon="6.8027">
        <ele>2627.9</ele>
        <time>2021-03-25T11:07:56Z</time>
      </trkpt>
      <trkpt lat="45.54916" lon="6.80269">
        <ele>2628</ele>
        <time>2021-03-25T11:07:57Z</time>
      </trkpt>
      <trkpt lat="45.54916" lon="6.80271">
        <ele>2628.1</ele>
        <time>2021-03-25T11:07:58Z</time>
      </trkpt>
      <trkpt lat="45.54915" lon="6.80272">
        <ele>2628.3</ele>
        <time>2021-03-25T11:07:59Z</time>
      </trkpt>
      <trkpt lat="45.54915" lon="6.80274">
        <ele>2628.5</ele>
        <time>2021-03-25T11:08:00Z</time>
      </trkpt>
      <trkpt lat="45.54915" lon="6.80276">
        <ele>2628.7</ele>
        <time>2021-03-25T11:08:01Z</time>
      </trkpt>
      <trkpt lat="45.54914" lon="6.80277">
        <ele>2628.8</ele>
        <time>2021-03-25T11:08:02Z</time>
      </trkpt>
      <trkpt lat="45.54914" lon="6.80279">
        <ele>2629</ele>
        <time>2021-03-25T11:08:03Z</time>
      </trkpt>
      <trkpt lat="45.54914" lon="6.80281">
        <ele>2629.2</ele>
        <time>2021-03-25T11:08:04Z</time>
      </trkpt>
      <trkpt lat="45.54913" lon="6.80282">
        <ele>2629.4</ele>
        <time>2021-03-25T11:08:05Z</time>
      </trkpt>
      <trkpt lat="45.54913" lon="6.80284">
        <ele>2629.5</ele>
        <time>2021-03-25T11:08:06Z</time>
      </trkpt>
      <trkpt lat="45.54913" lon="6.80286">
        <ele>2629.7</ele>
        <time>2021-03-25T11:08:07Z</time>
      </trkpt>
      <trkpt lat="45.54912" lon="6.80287">
        <ele>2629.9</ele>
        <time>2021-03-25T11:09:09Z</time>
      </trkpt>
      <trkpt lat="45.54912" lon="6.80289">
        <ele>2630.1</ele>
        <time>2021-03-25T11:09:10Z</time>
      </trkpt>
      <trkpt lat="45.54912" lon="6.80291">
        <ele>2630.2</ele>
        <time>2021-03-25T11:09:11Z</time>
      </trkpt>
      <trkpt lat="45.54911" lon="6.80292">
        <ele>2630.4</ele>
        <time>2021-03-25T11:09:12Z</time>
      </trkpt>
      <trkpt lat="45.5491" lon="6.80293">
        <ele>2630.5</ele>
        <time>2021-03-25T11:09:13Z</time>
      </trkpt>
      <trkpt lat="45.54909" lon="6.80293">
        <ele>2630.7</ele>
        <time>2021-03-25T11:09:14Z</time>
      </trkpt>
      <trkpt lat="45.54909" lon="6.80294">
        <ele>2630.8</ele>
        <time>2021-03-25T11:09:15Z</time>
      </trkpt>
      <trkpt lat="45.54908" lon="6.80294">
        <ele>2630.9</ele>
        <time>2021-03-25T11:09:16Z</time>
      </trkpt>
      <trkpt lat="45.54908" lon="6.80295">
        <ele>2631</ele>
        <time>2021-03-25T11:09:17Z</time>
      </trkpt>
      <trkpt lat="45.54907" lon="6.80296">
        <ele>2631.1</ele>
        <time>2021-03-25T11:09:18Z</time>
      </trkpt>
      <trkpt lat="45.54906" lon="6.80296">
        <ele>2631.3</ele>
        <time>2021-03-25T11:09:19Z</time>
      </trkpt>
      <trkpt lat="45.54905" lon="6.80296">
        <ele>2631.4</ele>
        <time>2021-03-25T11:09:20Z</time>
      </trkpt>
      <trkpt lat="45.54904" lon="6.80297">
        <ele>2631.5</ele>
        <time>2021-03-25T11:09:21Z</time>
      </trkpt>
      <trkpt lat="45.54903" lon="6.80297">
        <ele>2631.6</ele>
        <time>2021-03-25T11:09:22Z</time>
      </trkpt>
      <trkpt lat="45.54902" lon="6.80298">
        <ele>2631.9</ele>
        <time>2021-03-25T11:09:23Z</time>
      </trkpt>
      <trkpt lat="45.54901" lon="6.80298">
        <ele>2632</ele>
        <time>2021-03-25T11:09:24Z</time>
      </trkpt>
      <trkpt lat="45.54901" lon="6.80298">
        <ele>2632.1</ele>
        <time>2021-03-25T11:09:25Z</time>
      </trkpt>
      <trkpt lat="45.549" lon="6.80298">
        <ele>2632.1</ele>
        <time>2021-03-25T11:09:26Z</time>
      </trkpt>
      <trkpt lat="45.54899" lon="6.80299">
        <ele>2632.2</ele>
        <time>2021-03-25T11:09:27Z</time>
      </trkpt>
      <trkpt lat="45.54899" lon="6.80299">
        <ele>2632.3</ele>
        <time>2021-03-25T11:09:28Z</time>
      </trkpt>
      <trkpt lat="45.54899" lon="6.803">
        <ele>2632.4</ele>
        <time>2021-03-25T11:09:29Z</time>
      </trkpt>
      <trkpt lat="45.54898" lon="6.803">
        <ele>2632.5</ele>
        <time>2021-03-25T11:09:30Z</time>
      </trkpt>
      <trkpt lat="45.54898" lon="6.80301">
        <ele>2632.6</ele>
        <time>2021-03-25T11:09:31Z</time>
      </trkpt>
      <trkpt lat="45.54897" lon="6.80302">
        <ele>2632.7</ele>
        <time>2021-03-25T11:09:32Z</time>
      </trkpt>
      <trkpt lat="45.54897" lon="6.80303">
        <ele>2632.8</ele>
        <time>2021-03-25T11:09:33Z</time>
      </trkpt>
      <trkpt lat="45.54896" lon="6.80304">
        <ele>2633</ele>
        <time>2021-03-25T11:09:34Z</time>
      </trkpt>
      <trkpt lat="45.54896" lon="6.80305">
        <ele>2633.1</ele>
        <time>2021-03-25T11:09:35Z</time>
      </trkpt>
      <trkpt lat="45.54896" lon="6.80306">
        <ele>2633.2</ele>
        <time>2021-03-25T11:09:36Z</time>
      </trkpt>
      <trkpt lat="45.54896" lon="6.80307">
        <ele>2633.3</ele>
        <time>2021-03-25T11:09:37Z</time>
      </trkpt>
      <trkpt lat="45.54895" lon="6.80308">
        <ele>2633.4</ele>
        <time>2021-03-25T11:09:38Z</time>
      </trkpt>
      <trkpt lat="45.54895" lon="6.80309">
        <ele>2633.5</ele>
        <time>2021-03-25T11:09:39Z</time>
      </trkpt>
      <trkpt lat="45.54895" lon="6.80309">
        <ele>2633.5</ele>
        <time>2021-03-25T11:09:40Z</time>
      </trkpt>
      <trkpt lat="45.54895" lon="6.8031">
        <ele>2633.6</ele>
        <time>2021-03-25T11:09:41Z</time>
      </trkpt>
      <trkpt lat="45.54895" lon="6.8031">
        <ele>2633.6</ele>
        <time>2021-03-25T11:09:42Z</time>
      </trkpt>
      <trkpt lat="45.54894" lon="6.8031">
        <ele>2633.7</ele>
        <time>2021-03-25T11:09:43Z</time>
      </trkpt>
      <trkpt lat="45.54894" lon="6.80311">
        <ele>2633.8</ele>
        <time>2021-03-25T11:09:44Z</time>
      </trkpt>
      <trkpt lat="45.54894" lon="6.80311">
        <ele>2633.8</ele>
        <time>2021-03-25T11:09:45Z</time>
      </trkpt>
      <trkpt lat="45.54893" lon="6.80311">
        <ele>2633.9</ele>
        <time>2021-03-25T11:09:46Z</time>
      </trkpt>
      <trkpt lat="45.54893" lon="6.80311">
        <ele>2633.9</ele>
        <time>2021-03-25T11:09:47Z</time>
      </trkpt>
      <trkpt lat="45.54893" lon="6.80311">
        <ele>2634</ele>
        <time>2021-03-25T11:09:48Z</time>
      </trkpt>
      <trkpt lat="45.54893" lon="6.80312">
        <ele>2634</ele>
        <time>2021-03-25T11:09:49Z</time>
      </trkpt>
      <trkpt lat="45.54892" lon="6.80312">
        <ele>2634.1</ele>
        <time>2021-03-25T11:09:50Z</time>
      </trkpt>
      <trkpt lat="45.54892" lon="6.80312">
        <ele>2634.2</ele>
        <time>2021-03-25T11:09:51Z</time>
      </trkpt>
      <trkpt lat="45.54891" lon="6.80312">
        <ele>2634.3</ele>
        <time>2021-03-25T11:09:52Z</time>
      </trkpt>
      <trkpt lat="45.5489" lon="6.80313">
        <ele>2634.4</ele>
        <time>2021-03-25T11:09:53Z</time>
      </trkpt>
      <trkpt lat="45.5489" lon="6.80313">
        <ele>2634.5</ele>
        <time>2021-03-25T11:09:54Z</time>
      </trkpt>
      <trkpt lat="45.54889" lon="6.80314">
        <ele>2634.6</ele>
        <time>2021-03-25T11:09:55Z</time>
      </trkpt>
      <trkpt lat="45.54888" lon="6.80314">
        <ele>2634.7</ele>
        <time>2021-03-25T11:09:56Z</time>
      </trkpt>
      <trkpt lat="45.54888" lon="6.80314">
        <ele>2634.8</ele>
        <time>2021-03-25T11:09:57Z</time>
      </trkpt>
      <trkpt lat="45.54887" lon="6.80314">
        <ele>2634.9</ele>
        <time>2021-03-25T11:09:58Z</time>
      </trkpt>
      <trkpt lat="45.54886" lon="6.80314">
        <ele>2635</ele>
        <time>2021-03-25T11:09:59Z</time>
      </trkpt>
      <trkpt lat="45.54886" lon="6.80315">
        <ele>2635</ele>
        <time>2021-03-25T11:10:00Z</time>
      </trkpt>
      <trkpt lat="45.54886" lon="6.80315">
        <ele>2635.1</ele>
        <time>2021-03-25T11:10:01Z</time>
      </trkpt>
      <trkpt lat="45.54886" lon="6.80316">
        <ele>2635.2</ele>
        <time>2021-03-25T11:10:02Z</time>
      </trkpt>
      <trkpt lat="45.54886" lon="6.80316">
        <ele>2635.2</ele>
        <time>2021-03-25T11:10:03Z</time>
      </trkpt>
      <trkpt lat="45.54885" lon="6.80316">
        <ele>2635.2</ele>
        <time>2021-03-25T11:10:04Z</time>
      </trkpt>
      <trkpt lat="45.54885" lon="6.80317">
        <ele>2635.3</ele>
        <time>2021-03-25T11:10:05Z</time>
      </trkpt>
      <trkpt lat="45.54885" lon="6.80317">
        <ele>2635.4</ele>
        <time>2021-03-25T11:10:06Z</time>
      </trkpt>
      <trkpt lat="45.54884" lon="6.80317">
        <ele>2635.5</ele>
        <time>2021-03-25T11:10:07Z</time>
      </trkpt>
      <trkpt lat="45.54883" lon="6.80318">
        <ele>2635.6</ele>
        <time>2021-03-25T11:10:08Z</time>
      </trkpt>
      <trkpt lat="45.54883" lon="6.80319">
        <ele>2635.7</ele>
        <time>2021-03-25T11:10:09Z</time>
      </trkpt>
      <trkpt lat="45.54883" lon="6.80319">
        <ele>2635.7</ele>
        <time>2021-03-25T11:10:10Z</time>
      </trkpt>
      <trkpt lat="45.54883" lon="6.8032">
        <ele>2635.8</ele>
        <time>2021-03-25T11:10:11Z</time>
      </trkpt>
      <trkpt lat="45.54882" lon="6.8032">
        <ele>2635.9</ele>
        <time>2021-03-25T11:10:12Z</time>
      </trkpt>
      <trkpt lat="45.54882" lon="6.80321">
        <ele>2636</ele>
        <time>2021-03-25T11:10:13Z</time>
      </trkpt>
      <trkpt lat="45.54882" lon="6.80322">
        <ele>2636</ele>
        <time>2021-03-25T11:10:14Z</time>
      </trkpt>
      <trkpt lat="45.54881" lon="6.80322">
        <ele>2636.1</ele>
        <time>2021-03-25T11:10:15Z</time>
      </trkpt>
      <trkpt lat="45.54881" lon="6.80323">
        <ele>2636.2</ele>
        <time>2021-03-25T11:10:16Z</time>
      </trkpt>
      <trkpt lat="45.54881" lon="6.80323">
        <ele>2636.2</ele>
        <time>2021-03-25T11:10:17Z</time>
      </trkpt>
      <trkpt lat="45.54881" lon="6.80323">
        <ele>2636.3</ele>
        <time>2021-03-25T11:10:18Z</time>
      </trkpt>
      <trkpt lat="45.54881" lon="6.80324">
        <ele>2636.3</ele>
        <time>2021-03-25T11:10:19Z</time>
      </trkpt>
      <trkpt lat="45.5488" lon="6.80324">
        <ele>2636.4</ele>
        <time>2021-03-25T11:10:20Z</time>
      </trkpt>
      <trkpt lat="45.5488" lon="6.80324">
        <ele>2636.4</ele>
        <time>2021-03-25T11:10:21Z</time>
      </trkpt>
      <trkpt lat="45.5488" lon="6.80325">
        <ele>2636.5</ele>
        <time>2021-03-25T11:10:22Z</time>
      </trkpt>
      <trkpt lat="45.5488" lon="6.80325">
        <ele>2636.5</ele>
        <time>2021-03-25T11:10:23Z</time>
      </trkpt>
      <trkpt lat="45.54879" lon="6.80325">
        <ele>2636.6</ele>
        <time>2021-03-25T11:10:24Z</time>
      </trkpt>
      <trkpt lat="45.54879" lon="6.80326">
        <ele>2636.6</ele>
        <time>2021-03-25T11:10:25Z</time>
      </trkpt>
      <trkpt lat="45.54879" lon="6.80326">
        <ele>2636.7</ele>
        <time>2021-03-25T11:10:26Z</time>
      </trkpt>
      <trkpt lat="45.54879" lon="6.80326">
        <ele>2636.7</ele>
        <time>2021-03-25T11:10:27Z</time>
      </trkpt>
      <trkpt lat="45.54879" lon="6.80327">
        <ele>2636.8</ele>
        <time>2021-03-25T11:10:28Z</time>
      </trkpt>
      <trkpt lat="45.54879" lon="6.80327">
        <ele>2636.8</ele>
        <time>2021-03-25T11:10:29Z</time>
      </trkpt>
      <trkpt lat="45.54878" lon="6.80327">
        <ele>2636.8</ele>
        <time>2021-03-25T11:10:30Z</time>
      </trkpt>
      <trkpt lat="45.54878" lon="6.80327">
        <ele>2636.8</ele>
        <time>2021-03-25T11:10:31Z</time>
      </trkpt>
      <trkpt lat="45.54879" lon="6.80326">
        <ele>2636.9</ele>
        <time>2021-03-25T11:10:32Z</time>
      </trkpt>
      <trkpt lat="45.54879" lon="6.80326">
        <ele>2637</ele>
        <time>2021-03-25T11:10:33Z</time>
      </trkpt>
      <trkpt lat="45.5488" lon="6.80325">
        <ele>2637.1</ele>
        <time>2021-03-25T11:10:34Z</time>
      </trkpt>
      <trkpt lat="45.5488" lon="6.80324">
        <ele>2637.2</ele>
        <time>2021-03-25T11:10:35Z</time>
      </trkpt>
      <trkpt lat="45.54881" lon="6.80324">
        <ele>2637.3</ele>
        <time>2021-03-25T11:10:36Z</time>
      </trkpt>
      <trkpt lat="45.54881" lon="6.80323">
        <ele>2637.4</ele>
        <time>2021-03-25T11:10:37Z</time>
      </trkpt>
      <trkpt lat="45.54881" lon="6.80322">
        <ele>2637.5</ele>
        <time>2021-03-25T11:10:38Z</time>
      </trkpt>
      <trkpt lat="45.54882" lon="6.80322">
        <ele>2637.5</ele>
        <time>2021-03-25T11:10:39Z</time>
      </trkpt>
      <trkpt lat="45.54882" lon="6.80321">
        <ele>2637.6</ele>
        <time>2021-03-25T11:10:40Z</time>
      </trkpt>
      <trkpt lat="45.54883" lon="6.8032">
        <ele>2637.7</ele>
        <time>2021-03-25T11:10:41Z</time>
      </trkpt>
      <trkpt lat="45.54883" lon="6.8032">
        <ele>2637.8</ele>
        <time>2021-03-25T11:11:38Z</time>
      </trkpt>
      <trkpt lat="45.54883" lon="6.80319">
        <ele>2637.9</ele>
        <time>2021-03-25T11:11:39Z</time>
      </trkpt>
      <trkpt lat="45.54884" lon="6.80318">
        <ele>2638</ele>
        <time>2021-03-25T11:11:40Z</time>
      </trkpt>
      <trkpt lat="45.54884" lon="6.80318">
        <ele>2638.1</ele>
        <time>2021-03-25T11:11:41Z</time>
      </trkpt>
      <trkpt lat="45.54885" lon="6.80317">
        <ele>2638.2</ele>
        <time>2021-03-25T11:11:42Z</time>
      </trkpt>
      <trkpt lat="45.54885" lon="6.80316">
        <ele>2638.3</ele>
        <time>2021-03-25T11:11:43Z</time>
      </trkpt>
      <trkpt lat="45.54885" lon="6.80316">
        <ele>2638.4</ele>
        <time>2021-03-25T11:11:44Z</time>
      </trkpt>
      <trkpt lat="45.54886" lon="6.80315">
        <ele>2638.5</ele>
        <time>2021-03-25T11:11:45Z</time>
      </trkpt>
      <trkpt lat="45.54886" lon="6.80314">
        <ele>2638.6</ele>
        <time>2021-03-25T11:11:46Z</time>
      </trkpt>
      <trkpt lat="45.54888" lon="6.80316">
        <ele>2638.9</ele>
        <time>2021-03-25T11:11:47Z</time>
      </trkpt>
      <trkpt lat="45.5489" lon="6.80318">
        <ele>2639.2</ele>
        <time>2021-03-25T11:11:48Z</time>
      </trkpt>
      <trkpt lat="45.54891" lon="6.8032">
        <ele>2639.5</ele>
        <time>2021-03-25T11:12:31Z</time>
      </trkpt>
      <trkpt lat="45.54893" lon="6.80322">
        <ele>2639.8</ele>
        <time>2021-03-25T11:12:32Z</time>
      </trkpt>
      <trkpt lat="45.54894" lon="6.80324">
        <ele>2640.1</ele>
        <time>2021-03-25T11:12:33Z</time>
      </trkpt>
      <trkpt lat="45.54894" lon="6.80326">
        <ele>2640.3</ele>
        <time>2021-03-25T11:12:34Z</time>
      </trkpt>
      <trkpt lat="45.54894" lon="6.80327">
        <ele>2640.4</ele>
        <time>2021-03-25T11:12:35Z</time>
      </trkpt>
      <trkpt lat="45.54894" lon="6.80328">
        <ele>2640.5</ele>
        <time>2021-03-25T11:12:36Z</time>
      </trkpt>
      <trkpt lat="45.54894" lon="6.80329">
        <ele>2640.7</ele>
        <time>2021-03-25T11:12:37Z</time>
      </trkpt>
      <trkpt lat="45.54894" lon="6.80331">
        <ele>2640.8</ele>
        <time>2021-03-25T11:12:38Z</time>
      </trkpt>
      <trkpt lat="45.54894" lon="6.80332">
        <ele>2640.9</ele>
        <time>2021-03-25T11:12:39Z</time>
      </trkpt>
      <trkpt lat="45.54893" lon="6.80333">
        <ele>2641.1</ele>
        <time>2021-03-25T11:12:40Z</time>
      </trkpt>
      <trkpt lat="45.54893" lon="6.80334">
        <ele>2641.2</ele>
        <time>2021-03-25T11:12:41Z</time>
      </trkpt>
      <trkpt lat="45.54893" lon="6.80335">
        <ele>2641.3</ele>
        <time>2021-03-25T11:12:42Z</time>
      </trkpt>
      <trkpt lat="45.54893" lon="6.80336">
        <ele>2641.4</ele>
        <time>2021-03-25T11:12:43Z</time>
      </trkpt>
      <trkpt lat="45.54893" lon="6.80337">
        <ele>2641.5</ele>
        <time>2021-03-25T11:12:44Z</time>
      </trkpt>
      <trkpt lat="45.54892" lon="6.80337">
        <ele>2641.5</ele>
        <time>2021-03-25T11:12:45Z</time>
      </trkpt>
      <trkpt lat="45.54892" lon="6.80338">
        <ele>2641.6</ele>
        <time>2021-03-25T11:12:46Z</time>
      </trkpt>
      <trkpt lat="45.54892" lon="6.80338">
        <ele>2641.7</ele>
        <time>2021-03-25T11:12:47Z</time>
      </trkpt>
      <trkpt lat="45.54891" lon="6.80338">
        <ele>2641.7</ele>
        <time>2021-03-25T11:12:48Z</time>
      </trkpt>
      <trkpt lat="45.54891" lon="6.80339">
        <ele>2641.8</ele>
        <time>2021-03-25T11:12:49Z</time>
      </trkpt>
      <trkpt lat="45.5489" lon="6.80339">
        <ele>2641.9</ele>
        <time>2021-03-25T11:12:50Z</time>
      </trkpt>
      <trkpt lat="45.5489" lon="6.8034">
        <ele>2642</ele>
        <time>2021-03-25T11:12:51Z</time>
      </trkpt>
      <trkpt lat="45.5489" lon="6.8034">
        <ele>2642.1</ele>
        <time>2021-03-25T11:12:52Z</time>
      </trkpt>
      <trkpt lat="45.54889" lon="6.80341">
        <ele>2642.1</ele>
        <time>2021-03-25T11:12:53Z</time>
      </trkpt>
      <trkpt lat="45.54889" lon="6.80341">
        <ele>2642.2</ele>
        <time>2021-03-25T11:12:54Z</time>
      </trkpt>
      <trkpt lat="45.54889" lon="6.80342">
        <ele>2642.3</ele>
        <time>2021-03-25T11:12:55Z</time>
      </trkpt>
      <trkpt lat="45.54889" lon="6.80343">
        <ele>2642.4</ele>
        <time>2021-03-25T11:12:56Z</time>
      </trkpt>
      <trkpt lat="45.54889" lon="6.80344">
        <ele>2642.5</ele>
        <time>2021-03-25T11:12:57Z</time>
      </trkpt>
      <trkpt lat="45.54889" lon="6.80344">
        <ele>2642.6</ele>
        <time>2021-03-25T11:12:58Z</time>
      </trkpt>
      <trkpt lat="45.54888" lon="6.80345">
        <ele>2642.6</ele>
        <time>2021-03-25T11:12:59Z</time>
      </trkpt>
      <trkpt lat="45.54888" lon="6.80346">
        <ele>2642.7</ele>
        <time>2021-03-25T11:13:00Z</time>
      </trkpt>
      <trkpt lat="45.54887" lon="6.80346">
        <ele>2642.8</ele>
        <time>2021-03-25T11:13:01Z</time>
      </trkpt>
      <trkpt lat="45.54887" lon="6.80347">
        <ele>2642.9</ele>
        <time>2021-03-25T11:13:02Z</time>
      </trkpt>
      <trkpt lat="45.54887" lon="6.80347">
        <ele>2643</ele>
        <time>2021-03-25T11:13:03Z</time>
      </trkpt>
      <trkpt lat="45.54887" lon="6.80348">
        <ele>2643</ele>
        <time>2021-03-25T11:13:04Z</time>
      </trkpt>
      <trkpt lat="45.54886" lon="6.80348">
        <ele>2643.1</ele>
        <time>2021-03-25T11:13:05Z</time>
      </trkpt>
      <trkpt lat="45.54886" lon="6.80349">
        <ele>2643.2</ele>
        <time>2021-03-25T11:13:06Z</time>
      </trkpt>
      <trkpt lat="45.54886" lon="6.80349">
        <ele>2643.3</ele>
        <time>2021-03-25T11:13:07Z</time>
      </trkpt>
      <trkpt lat="45.54886" lon="6.8035">
        <ele>2643.3</ele>
        <time>2021-03-25T11:13:08Z</time>
      </trkpt>
      <trkpt lat="45.54886" lon="6.80351">
        <ele>2643.4</ele>
        <time>2021-03-25T11:13:09Z</time>
      </trkpt>
      <trkpt lat="45.54885" lon="6.80352">
        <ele>2643.5</ele>
        <time>2021-03-25T11:13:10Z</time>
      </trkpt>
      <trkpt lat="45.54885" lon="6.80352">
        <ele>2643.6</ele>
        <time>2021-03-25T11:13:11Z</time>
      </trkpt>
      <trkpt lat="45.54885" lon="6.80353">
        <ele>2643.7</ele>
        <time>2021-03-25T11:13:12Z</time>
      </trkpt>
      <trkpt lat="45.54885" lon="6.80354">
        <ele>2643.8</ele>
        <time>2021-03-25T11:13:13Z</time>
      </trkpt>
      <trkpt lat="45.54884" lon="6.80355">
        <ele>2643.9</ele>
        <time>2021-03-25T11:13:14Z</time>
      </trkpt>
      <trkpt lat="45.54884" lon="6.80356">
        <ele>2644</ele>
        <time>2021-03-25T11:13:15Z</time>
      </trkpt>
      <trkpt lat="45.54884" lon="6.80357">
        <ele>2644.2</ele>
        <time>2021-03-25T11:13:16Z</time>
      </trkpt>
      <trkpt lat="45.54883" lon="6.80358">
        <ele>2644.3</ele>
        <time>2021-03-25T11:13:17Z</time>
      </trkpt>
      <trkpt lat="45.54883" lon="6.80359">
        <ele>2644.4</ele>
        <time>2021-03-25T11:13:18Z</time>
      </trkpt>
      <trkpt lat="45.54883" lon="6.8036">
        <ele>2644.6</ele>
        <time>2021-03-25T11:13:19Z</time>
      </trkpt>
      <trkpt lat="45.54883" lon="6.80361">
        <ele>2644.7</ele>
        <time>2021-03-25T11:13:20Z</time>
      </trkpt>
      <trkpt lat="45.54882" lon="6.80361">
        <ele>2644.8</ele>
        <time>2021-03-25T11:13:21Z</time>
      </trkpt>
      <trkpt lat="45.54882" lon="6.80362">
        <ele>2644.8</ele>
        <time>2021-03-25T11:13:22Z</time>
      </trkpt>
      <trkpt lat="45.54882" lon="6.80362">
        <ele>2644.9</ele>
        <time>2021-03-25T11:13:23Z</time>
      </trkpt>
      <trkpt lat="45.54882" lon="6.80363">
        <ele>2645</ele>
        <time>2021-03-25T11:13:24Z</time>
      </trkpt>
      <trkpt lat="45.54881" lon="6.80364">
        <ele>2645.1</ele>
        <time>2021-03-25T11:13:25Z</time>
      </trkpt>
      <trkpt lat="45.54881" lon="6.80365">
        <ele>2645.2</ele>
        <time>2021-03-25T11:13:26Z</time>
      </trkpt>
      <trkpt lat="45.54881" lon="6.80366">
        <ele>2645.3</ele>
        <time>2021-03-25T11:13:27Z</time>
      </trkpt>
      <trkpt lat="45.54881" lon="6.80367">
        <ele>2645.4</ele>
        <time>2021-03-25T11:13:28Z</time>
      </trkpt>
      <trkpt lat="45.54881" lon="6.80367">
        <ele>2645.5</ele>
        <time>2021-03-25T11:13:29Z</time>
      </trkpt>
      <trkpt lat="45.54881" lon="6.80368">
        <ele>2645.6</ele>
        <time>2021-03-25T11:13:30Z</time>
      </trkpt>
      <trkpt lat="45.54881" lon="6.80369">
        <ele>2645.7</ele>
        <time>2021-03-25T11:13:31Z</time>
      </trkpt>
      <trkpt lat="45.5488" lon="6.80369">
        <ele>2645.8</ele>
        <time>2021-03-25T11:13:32Z</time>
      </trkpt>
      <trkpt lat="45.5488" lon="6.8037">
        <ele>2645.9</ele>
        <time>2021-03-25T11:13:33Z</time>
      </trkpt>
      <trkpt lat="45.5488" lon="6.80371">
        <ele>2646</ele>
        <time>2021-03-25T11:13:34Z</time>
      </trkpt>
      <trkpt lat="45.54879" lon="6.80372">
        <ele>2646.1</ele>
        <time>2021-03-25T11:13:35Z</time>
      </trkpt>
      <trkpt lat="45.54879" lon="6.80372">
        <ele>2646.2</ele>
        <time>2021-03-25T11:13:36Z</time>
      </trkpt>
      <trkpt lat="45.54879" lon="6.80373">
        <ele>2646.3</ele>
        <time>2021-03-25T11:13:37Z</time>
      </trkpt>
      <trkpt lat="45.54879" lon="6.80374">
        <ele>2646.3</ele>
        <time>2021-03-25T11:13:38Z</time>
      </trkpt>
      <trkpt lat="45.54879" lon="6.80374">
        <ele>2646.4</ele>
        <time>2021-03-25T11:13:39Z</time>
      </trkpt>
      <trkpt lat="45.54878" lon="6.80375">
        <ele>2646.5</ele>
        <time>2021-03-25T11:13:40Z</time>
      </trkpt>
      <trkpt lat="45.54878" lon="6.80375">
        <ele>2646.6</ele>
        <time>2021-03-25T11:13:41Z</time>
      </trkpt>
      <trkpt lat="45.54878" lon="6.80376">
        <ele>2646.7</ele>
        <time>2021-03-25T11:13:42Z</time>
      </trkpt>
      <trkpt lat="45.54878" lon="6.80377">
        <ele>2646.8</ele>
        <time>2021-03-25T11:13:43Z</time>
      </trkpt>
      <trkpt lat="45.54877" lon="6.80377">
        <ele>2646.8</ele>
        <time>2021-03-25T11:13:44Z</time>
      </trkpt>
      <trkpt lat="45.54877" lon="6.80378">
        <ele>2646.9</ele>
        <time>2021-03-25T11:13:45Z</time>
      </trkpt>
      <trkpt lat="45.54877" lon="6.80379">
        <ele>2647</ele>
        <time>2021-03-25T11:13:46Z</time>
      </trkpt>
      <trkpt lat="45.54877" lon="6.8038">
        <ele>2647.2</ele>
        <time>2021-03-25T11:13:47Z</time>
      </trkpt>
      <trkpt lat="45.54877" lon="6.80381">
        <ele>2647.3</ele>
        <time>2021-03-25T11:13:48Z</time>
      </trkpt>
      <trkpt lat="45.54877" lon="6.80382">
        <ele>2647.4</ele>
        <time>2021-03-25T11:13:49Z</time>
      </trkpt>
      <trkpt lat="45.54877" lon="6.80383">
        <ele>2647.5</ele>
        <time>2021-03-25T11:13:50Z</time>
      </trkpt>
      <trkpt lat="45.54876" lon="6.80384">
        <ele>2647.6</ele>
        <time>2021-03-25T11:13:51Z</time>
      </trkpt>
      <trkpt lat="45.54876" lon="6.80385">
        <ele>2647.7</ele>
        <time>2021-03-25T11:13:52Z</time>
      </trkpt>
      <trkpt lat="45.54876" lon="6.80386">
        <ele>2647.9</ele>
        <time>2021-03-25T11:13:53Z</time>
      </trkpt>
      <trkpt lat="45.54876" lon="6.80387">
        <ele>2648</ele>
        <time>2021-03-25T11:13:54Z</time>
      </trkpt>
      <trkpt lat="45.54876" lon="6.80388">
        <ele>2648.1</ele>
        <time>2021-03-25T11:13:55Z</time>
      </trkpt>
      <trkpt lat="45.54875" lon="6.80389">
        <ele>2648.2</ele>
        <time>2021-03-25T11:13:56Z</time>
      </trkpt>
      <trkpt lat="45.54875" lon="6.8039">
        <ele>2648.3</ele>
        <time>2021-03-25T11:13:57Z</time>
      </trkpt>
      <trkpt lat="45.54875" lon="6.80391">
        <ele>2648.5</ele>
        <time>2021-03-25T11:13:58Z</time>
      </trkpt>
      <trkpt lat="45.54875" lon="6.80392">
        <ele>2648.6</ele>
        <time>2021-03-25T11:13:59Z</time>
      </trkpt>
      <trkpt lat="45.54875" lon="6.80393">
        <ele>2648.8</ele>
        <time>2021-03-25T11:14:00Z</time>
      </trkpt>
      <trkpt lat="45.54875" lon="6.80394">
        <ele>2648.8</ele>
        <time>2021-03-25T11:14:01Z</time>
      </trkpt>
      <trkpt lat="45.54874" lon="6.80395">
        <ele>2649</ele>
        <time>2021-03-25T11:14:02Z</time>
      </trkpt>
      <trkpt lat="45.54874" lon="6.80395">
        <ele>2649</ele>
        <time>2021-03-25T11:14:03Z</time>
      </trkpt>
      <trkpt lat="45.54874" lon="6.80396">
        <ele>2649.1</ele>
        <time>2021-03-25T11:14:04Z</time>
      </trkpt>
      <trkpt lat="45.54874" lon="6.80397">
        <ele>2649.2</ele>
        <time>2021-03-25T11:14:05Z</time>
      </trkpt>
      <trkpt lat="45.54874" lon="6.80398">
        <ele>2649.4</ele>
        <time>2021-03-25T11:14:06Z</time>
      </trkpt>
      <trkpt lat="45.54874" lon="6.80399">
        <ele>2649.5</ele>
        <time>2021-03-25T11:14:07Z</time>
      </trkpt>
      <trkpt lat="45.54873" lon="6.804">
        <ele>2649.6</ele>
        <time>2021-03-25T11:14:08Z</time>
      </trkpt>
      <trkpt lat="45.54873" lon="6.80401">
        <ele>2649.7</ele>
        <time>2021-03-25T11:14:09Z</time>
      </trkpt>
      <trkpt lat="45.54874" lon="6.80402">
        <ele>2649.9</ele>
        <time>2021-03-25T11:14:10Z</time>
      </trkpt>
      <trkpt lat="45.54874" lon="6.80404">
        <ele>2650.1</ele>
        <time>2021-03-25T11:14:11Z</time>
      </trkpt>
      <trkpt lat="45.54874" lon="6.80404">
        <ele>2650.2</ele>
        <time>2021-03-25T11:14:12Z</time>
      </trkpt>
      <trkpt lat="45.54874" lon="6.80405">
        <ele>2650.2</ele>
        <time>2021-03-25T11:14:13Z</time>
      </trkpt>
      <trkpt lat="45.54874" lon="6.80406">
        <ele>2650.3</ele>
        <time>2021-03-25T11:14:14Z</time>
      </trkpt>
      <trkpt lat="45.54874" lon="6.80406">
        <ele>2650.4</ele>
        <time>2021-03-25T11:14:15Z</time>
      </trkpt>
      <trkpt lat="45.54873" lon="6.80407">
        <ele>2650.5</ele>
        <time>2021-03-25T11:14:16Z</time>
      </trkpt>
      <trkpt lat="45.54873" lon="6.80407">
        <ele>2650.5</ele>
        <time>2021-03-25T11:14:17Z</time>
      </trkpt>
      <trkpt lat="45.54873" lon="6.80407">
        <ele>2650.6</ele>
        <time>2021-03-25T11:14:18Z</time>
      </trkpt>
      <trkpt lat="45.54873" lon="6.80406">
        <ele>2650.7</ele>
        <time>2021-03-25T11:14:19Z</time>
      </trkpt>
      <trkpt lat="45.54874" lon="6.80405">
        <ele>2650.8</ele>
        <time>2021-03-25T11:14:20Z</time>
      </trkpt>
      <trkpt lat="45.54874" lon="6.80404">
        <ele>2651</ele>
        <time>2021-03-25T11:14:21Z</time>
      </trkpt>
      <trkpt lat="45.54874" lon="6.80403">
        <ele>2651.1</ele>
        <time>2021-03-25T11:14:22Z</time>
      </trkpt>
      <trkpt lat="45.54875" lon="6.80402">
        <ele>2651.2</ele>
        <time>2021-03-25T11:14:23Z</time>
      </trkpt>
      <trkpt lat="45.54875" lon="6.80401">
        <ele>2651.4</ele>
        <time>2021-03-25T11:14:24Z</time>
      </trkpt>
      <trkpt lat="45.54876" lon="6.80401">
        <ele>2651.5</ele>
        <time>2021-03-25T11:14:25Z</time>
      </trkpt>
      <trkpt lat="45.54876" lon="6.804">
        <ele>2651.6</ele>
        <time>2021-03-25T11:14:26Z</time>
      </trkpt>
      <trkpt lat="45.54876" lon="6.80399">
        <ele>2651.8</ele>
        <time>2021-03-25T11:14:42Z</time>
      </trkpt>
      <trkpt lat="45.54877" lon="6.80398">
        <ele>2651.9</ele>
        <time>2021-03-25T11:14:43Z</time>
      </trkpt>
      <trkpt lat="45.54877" lon="6.80397">
        <ele>2652</ele>
        <time>2021-03-25T11:14:44Z</time>
      </trkpt>
      <trkpt lat="45.54878" lon="6.80396">
        <ele>2652.2</ele>
        <time>2021-03-25T11:14:45Z</time>
      </trkpt>
      <trkpt lat="45.54878" lon="6.80395">
        <ele>2652.3</ele>
        <time>2021-03-25T11:14:46Z</time>
      </trkpt>
      <trkpt lat="45.54878" lon="6.80394">
        <ele>2652.4</ele>
        <time>2021-03-25T11:14:47Z</time>
      </trkpt>
      <trkpt lat="45.54879" lon="6.80393">
        <ele>2652.6</ele>
        <time>2021-03-25T11:14:48Z</time>
      </trkpt>
      <trkpt lat="45.54879" lon="6.80392">
        <ele>2652.7</ele>
        <time>2021-03-25T11:14:49Z</time>
      </trkpt>
      <trkpt lat="45.5488" lon="6.80392">
        <ele>2652.8</ele>
        <time>2021-03-25T11:14:50Z</time>
      </trkpt>
      <trkpt lat="45.5488" lon="6.80392">
        <ele>2652.9</ele>
        <time>2021-03-25T11:14:51Z</time>
      </trkpt>
      <trkpt lat="45.5488" lon="6.80391">
        <ele>2652.9</ele>
        <time>2021-03-25T11:14:52Z</time>
      </trkpt>
      <trkpt lat="45.54881" lon="6.8039">
        <ele>2653.1</ele>
        <time>2021-03-25T11:14:53Z</time>
      </trkpt>
      <trkpt lat="45.54881" lon="6.8039">
        <ele>2653.2</ele>
        <time>2021-03-25T11:14:54Z</time>
      </trkpt>
      <trkpt lat="45.54882" lon="6.80389">
        <ele>2653.3</ele>
        <time>2021-03-25T11:14:55Z</time>
      </trkpt>
      <trkpt lat="45.54882" lon="6.80388">
        <ele>2653.4</ele>
        <time>2021-03-25T11:14:56Z</time>
      </trkpt>
      <trkpt lat="45.54883" lon="6.80387">
        <ele>2653.5</ele>
        <time>2021-03-25T11:14:57Z</time>
      </trkpt>
      <trkpt lat="45.54883" lon="6.80387">
        <ele>2653.6</ele>
        <time>2021-03-25T11:14:58Z</time>
      </trkpt>
      <trkpt lat="45.54883" lon="6.80386">
        <ele>2653.8</ele>
        <time>2021-03-25T11:14:59Z</time>
      </trkpt>
      <trkpt lat="45.54884" lon="6.80386">
        <ele>2653.8</ele>
        <time>2021-03-25T11:15:00Z</time>
      </trkpt>
      <trkpt lat="45.54884" lon="6.80385">
        <ele>2654</ele>
        <time>2021-03-25T11:15:01Z</time>
      </trkpt>
      <trkpt lat="45.54885" lon="6.80384">
        <ele>2654.1</ele>
        <time>2021-03-25T11:15:02Z</time>
      </trkpt>
      <trkpt lat="45.54885" lon="6.80386">
        <ele>2654.3</ele>
        <time>2021-03-25T11:15:03Z</time>
      </trkpt>
      <trkpt lat="45.54885" lon="6.80388">
        <ele>2654.6</ele>
        <time>2021-03-25T11:15:04Z</time>
      </trkpt>
      <trkpt lat="45.54885" lon="6.8039">
        <ele>2654.9</ele>
        <time>2021-03-25T11:15:05Z</time>
      </trkpt>
      <trkpt lat="45.54884" lon="6.80392">
        <ele>2655.2</ele>
        <time>2021-03-25T11:15:06Z</time>
      </trkpt>
      <trkpt lat="45.54884" lon="6.80394">
        <ele>2655.4</ele>
        <time>2021-03-25T11:15:07Z</time>
      </trkpt>
      <trkpt lat="45.54884" lon="6.80396">
        <ele>2655.7</ele>
        <time>2021-03-25T11:15:08Z</time>
      </trkpt>
      <trkpt lat="45.54884" lon="6.80398">
        <ele>2656</ele>
        <time>2021-03-25T11:15:09Z</time>
      </trkpt>
      <trkpt lat="45.54884" lon="6.80401">
        <ele>2656.3</ele>
        <time>2021-03-25T11:15:10Z</time>
      </trkpt>
      <trkpt lat="45.54883" lon="6.80403">
        <ele>2656.6</ele>
        <time>2021-03-25T11:15:11Z</time>
      </trkpt>
      <trkpt lat="45.54883" lon="6.80405">
        <ele>2656.9</ele>
        <time>2021-03-25T11:15:12Z</time>
      </trkpt>
      <trkpt lat="45.54883" lon="6.80407">
        <ele>2657.2</ele>
        <time>2021-03-25T11:15:13Z</time>
      </trkpt>
      <trkpt lat="45.54883" lon="6.80409">
        <ele>2657.5</ele>
        <time>2021-03-25T11:15:53Z</time>
      </trkpt>
      <trkpt lat="45.54882" lon="6.80411">
        <ele>2657.8</ele>
        <time>2021-03-25T11:15:54Z</time>
      </trkpt>
      <trkpt lat="45.54882" lon="6.80413">
        <ele>2658.1</ele>
        <time>2021-03-25T11:15:55Z</time>
      </trkpt>
      <trkpt lat="45.54882" lon="6.80415">
        <ele>2658.4</ele>
        <time>2021-03-25T11:15:56Z</time>
      </trkpt>
      <trkpt lat="45.54882" lon="6.80418">
        <ele>2658.7</ele>
        <time>2021-03-25T11:15:57Z</time>
      </trkpt>
      <trkpt lat="45.54881" lon="6.80419">
        <ele>2659.3</ele>
        <time>2021-03-25T11:15:58Z</time>
      </trkpt>
      <trkpt lat="45.54881" lon="6.80419">
        <ele>2659.3</ele>
        <time>2021-03-25T11:15:59Z</time>
      </trkpt>
      <trkpt lat="45.5488" lon="6.8042">
        <ele>2659.3</ele>
        <time>2021-03-25T11:16:00Z</time>
      </trkpt>
      <trkpt lat="45.5488" lon="6.80421">
        <ele>2659.3</ele>
        <time>2021-03-25T11:16:01Z</time>
      </trkpt>
      <trkpt lat="45.5488" lon="6.80422">
        <ele>2658.8</ele>
        <time>2021-03-25T11:16:02Z</time>
      </trkpt>
      <trkpt lat="45.54879" lon="6.80422">
        <ele>2658.8</ele>
        <time>2021-03-25T11:16:03Z</time>
      </trkpt>
      <trkpt lat="45.54879" lon="6.80423">
        <ele>2659.4</ele>
        <time>2021-03-25T11:16:04Z</time>
      </trkpt>
      <trkpt lat="45.54878" lon="6.80424">
        <ele>2659.4</ele>
        <time>2021-03-25T11:16:05Z</time>
      </trkpt>
      <trkpt lat="45.54878" lon="6.80424">
        <ele>2659.4</ele>
        <time>2021-03-25T11:16:06Z</time>
      </trkpt>
      <trkpt lat="45.54877" lon="6.80425">
        <ele>2659.4</ele>
        <time>2021-03-25T11:16:07Z</time>
      </trkpt>
      <trkpt lat="45.54877" lon="6.80426">
        <ele>2659.4</ele>
        <time>2021-03-25T11:16:08Z</time>
      </trkpt>
      <trkpt lat="45.54877" lon="6.80427">
        <ele>2658.8</ele>
        <time>2021-03-25T11:16:09Z</time>
      </trkpt>
      <trkpt lat="45.54876" lon="6.80427">
        <ele>2659.4</ele>
        <time>2021-03-25T11:16:10Z</time>
      </trkpt>
      <trkpt lat="45.54876" lon="6.80427">
        <ele>2659.4</ele>
        <time>2021-03-25T11:16:11Z</time>
      </trkpt>
      <trkpt lat="45.54876" lon="6.80428">
        <ele>2659.4</ele>
        <time>2021-03-25T11:16:12Z</time>
      </trkpt>
      <trkpt lat="45.54876" lon="6.80427">
        <ele>2659.4</ele>
        <time>2021-03-25T11:16:13Z</time>
      </trkpt>
      <trkpt lat="45.54877" lon="6.80427">
        <ele>2658.8</ele>
        <time>2021-03-25T11:16:14Z</time>
      </trkpt>
      <trkpt lat="45.54878" lon="6.80427">
        <ele>2659.4</ele>
        <time>2021-03-25T11:16:15Z</time>
      </trkpt>
      <trkpt lat="45.54878" lon="6.80427">
        <ele>2659.4</ele>
        <time>2021-03-25T11:16:16Z</time>
      </trkpt>
      <trkpt lat="45.54879" lon="6.80426">
        <ele>2659.4</ele>
        <time>2021-03-25T11:16:17Z</time>
      </trkpt>
      <trkpt lat="45.54879" lon="6.80426">
        <ele>2659.4</ele>
        <time>2021-03-25T11:16:18Z</time>
      </trkpt>
      <trkpt lat="45.5488" lon="6.80426">
        <ele>2659.9</ele>
        <time>2021-03-25T11:16:19Z</time>
      </trkpt>
      <trkpt lat="45.54881" lon="6.80426">
        <ele>2659.9</ele>
        <time>2021-03-25T11:16:20Z</time>
      </trkpt>
      <trkpt lat="45.54881" lon="6.80425">
        <ele>2659.9</ele>
        <time>2021-03-25T11:16:21Z</time>
      </trkpt>
      <trkpt lat="45.54882" lon="6.80425">
        <ele>2659.9</ele>
        <time>2021-03-25T11:16:38Z</time>
      </trkpt>
      <trkpt lat="45.54882" lon="6.80425">
        <ele>2659.9</ele>
        <time>2021-03-25T11:16:39Z</time>
      </trkpt>
      <trkpt lat="45.54883" lon="6.80425">
        <ele>2660.3</ele>
        <time>2021-03-25T11:16:40Z</time>
      </trkpt>
      <trkpt lat="45.54884" lon="6.80424">
        <ele>2660.3</ele>
        <time>2021-03-25T11:16:41Z</time>
      </trkpt>
      <trkpt lat="45.54884" lon="6.80424">
        <ele>2660.3</ele>
        <time>2021-03-25T11:16:42Z</time>
      </trkpt>
      <trkpt lat="45.54885" lon="6.80424">
        <ele>2660.3</ele>
        <time>2021-03-25T11:16:43Z</time>
      </trkpt>
      <trkpt lat="45.54885" lon="6.80423">
        <ele>2660.3</ele>
        <time>2021-03-25T11:16:44Z</time>
      </trkpt>
      <trkpt lat="45.54886" lon="6.80423">
        <ele>2660.2</ele>
        <time>2021-03-25T11:16:45Z</time>
      </trkpt>
      <trkpt lat="45.54886" lon="6.80422">
        <ele>2660.2</ele>
        <time>2021-03-25T11:16:46Z</time>
      </trkpt>
      <trkpt lat="45.54887" lon="6.80421">
        <ele>2660.2</ele>
        <time>2021-03-25T11:16:47Z</time>
      </trkpt>
      <trkpt lat="45.54887" lon="6.80421">
        <ele>2660.2</ele>
        <time>2021-03-25T11:16:48Z</time>
      </trkpt>
      <trkpt lat="45.54888" lon="6.8042">
        <ele>2660.2</ele>
        <time>2021-03-25T11:16:49Z</time>
      </trkpt>
      <trkpt lat="45.54888" lon="6.80419">
        <ele>2660.2</ele>
        <time>2021-03-25T11:16:50Z</time>
      </trkpt>
      <trkpt lat="45.54889" lon="6.80419">
        <ele>2660.2</ele>
        <time>2021-03-25T11:16:51Z</time>
      </trkpt>
      <trkpt lat="45.54889" lon="6.80418">
        <ele>2659.9</ele>
        <time>2021-03-25T11:16:52Z</time>
      </trkpt>
      <trkpt lat="45.5489" lon="6.80417">
        <ele>2659.9</ele>
        <time>2021-03-25T11:16:53Z</time>
      </trkpt>
      <trkpt lat="45.5489" lon="6.80417">
        <ele>2659.9</ele>
        <time>2021-03-25T11:16:54Z</time>
      </trkpt>
      <trkpt lat="45.5489" lon="6.80416">
        <ele>2659.9</ele>
        <time>2021-03-25T11:16:55Z</time>
      </trkpt>
      <trkpt lat="45.5489" lon="6.80416">
        <ele>2659.9</ele>
        <time>2021-03-25T11:16:56Z</time>
      </trkpt>
      <trkpt lat="45.54891" lon="6.80416">
        <ele>2659.9</ele>
        <time>2021-03-25T11:16:57Z</time>
      </trkpt>
      <trkpt lat="45.54891" lon="6.80416">
        <ele>2659.9</ele>
        <time>2021-03-25T11:16:58Z</time>
      </trkpt>
      <trkpt lat="45.54891" lon="6.80415">
        <ele>2659.9</ele>
        <time>2021-03-25T11:16:59Z</time>
      </trkpt>
      <trkpt lat="45.54891" lon="6.80415">
        <ele>2659.9</ele>
        <time>2021-03-25T11:17:00Z</time>
      </trkpt>
      <trkpt lat="45.54891" lon="6.80415">
        <ele>2659.9</ele>
        <time>2021-03-25T11:17:01Z</time>
      </trkpt>
      <trkpt lat="45.54892" lon="6.80415">
        <ele>2659.9</ele>
        <time>2021-03-25T11:17:02Z</time>
      </trkpt>
      <trkpt lat="45.54892" lon="6.80414">
        <ele>2659.9</ele>
        <time>2021-03-25T11:17:03Z</time>
      </trkpt>
      <trkpt lat="45.54892" lon="6.80414">
        <ele>2659.6</ele>
        <time>2021-03-25T11:17:04Z</time>
      </trkpt>
      <trkpt lat="45.54892" lon="6.80414">
        <ele>2659.6</ele>
        <time>2021-03-25T11:17:09Z</time>
      </trkpt>
      <trkpt lat="45.54893" lon="6.80414">
        <ele>2659.6</ele>
        <time>2021-03-25T11:17:10Z</time>
      </trkpt>
      <trkpt lat="45.54893" lon="6.80413">
        <ele>2659.6</ele>
        <time>2021-03-25T11:17:11Z</time>
      </trkpt>
      <trkpt lat="45.54893" lon="6.80413">
        <ele>2659.6</ele>
        <time>2021-03-25T11:17:12Z</time>
      </trkpt>
      <trkpt lat="45.54893" lon="6.80413">
        <ele>2659.6</ele>
        <time>2021-03-25T11:17:13Z</time>
      </trkpt>
      <trkpt lat="45.54893" lon="6.80412">
        <ele>2659.6</ele>
        <time>2021-03-25T11:17:14Z</time>
      </trkpt>
      <trkpt lat="45.54894" lon="6.80412">
        <ele>2659.6</ele>
        <time>2021-03-25T11:17:15Z</time>
      </trkpt>
      <trkpt lat="45.54894" lon="6.80411">
        <ele>2659.6</ele>
        <time>2021-03-25T11:17:16Z</time>
      </trkpt>
      <trkpt lat="45.54895" lon="6.80411">
        <ele>2659.6</ele>
        <time>2021-03-25T11:17:17Z</time>
      </trkpt>
      <trkpt lat="45.54895" lon="6.8041">
        <ele>2659.8</ele>
        <time>2021-03-25T11:17:18Z</time>
      </trkpt>
      <trkpt lat="45.54896" lon="6.8041">
        <ele>2659.2</ele>
        <time>2021-03-25T11:17:19Z</time>
      </trkpt>
      <trkpt lat="45.54896" lon="6.80409">
        <ele>2659.2</ele>
        <time>2021-03-25T11:17:20Z</time>
      </trkpt>
      <trkpt lat="45.54897" lon="6.80409">
        <ele>2659.2</ele>
        <time>2021-03-25T11:17:21Z</time>
      </trkpt>
      <trkpt lat="45.54897" lon="6.80408">
        <ele>2659.2</ele>
        <time>2021-03-25T11:17:22Z</time>
      </trkpt>
      <trkpt lat="45.54898" lon="6.80407">
        <ele>2659.2</ele>
        <time>2021-03-25T11:17:23Z</time>
      </trkpt>
      <trkpt lat="45.54898" lon="6.80406">
        <ele>2659.3</ele>
        <time>2021-03-25T11:17:24Z</time>
      </trkpt>
      <trkpt lat="45.54899" lon="6.80405">
        <ele>2658.7</ele>
        <time>2021-03-25T11:17:25Z</time>
      </trkpt>
      <trkpt lat="45.54899" lon="6.80405">
        <ele>2658.7</ele>
        <time>2021-03-25T11:17:26Z</time>
      </trkpt>
      <trkpt lat="45.54899" lon="6.80405">
        <ele>2658.7</ele>
        <time>2021-03-25T11:17:27Z</time>
      </trkpt>
      <trkpt lat="45.54899" lon="6.80404">
        <ele>2658.7</ele>
        <time>2021-03-25T11:17:28Z</time>
      </trkpt>
      <trkpt lat="45.54899" lon="6.80404">
        <ele>2658.7</ele>
        <time>2021-03-25T11:17:29Z</time>
      </trkpt>
      <trkpt lat="45.54899" lon="6.80404">
        <ele>2658.7</ele>
        <time>2021-03-25T11:17:30Z</time>
      </trkpt>
      <trkpt lat="45.54899" lon="6.80404">
        <ele>2658.7</ele>
        <time>2021-03-25T11:17:31Z</time>
      </trkpt>
      <trkpt lat="45.549" lon="6.80406">
        <ele>2658.7</ele>
        <time>2021-03-25T11:17:32Z</time>
      </trkpt>
      <trkpt lat="45.54901" lon="6.80406">
        <ele>2659.3</ele>
        <time>2021-03-25T11:17:33Z</time>
      </trkpt>
      <trkpt lat="45.549" lon="6.80407">
        <ele>2659.3</ele>
        <time>2021-03-25T11:17:34Z</time>
      </trkpt>
      <trkpt lat="45.549" lon="6.80409">
        <ele>2659.3</ele>
        <time>2021-03-25T11:17:35Z</time>
      </trkpt>
      <trkpt lat="45.549" lon="6.8041">
        <ele>2659.8</ele>
        <time>2021-03-25T11:17:36Z</time>
      </trkpt>
      <trkpt lat="45.549" lon="6.80412">
        <ele>2659.8</ele>
        <time>2021-03-25T11:17:37Z</time>
      </trkpt>
      <trkpt lat="45.549" lon="6.80413">
        <ele>2659.8</ele>
        <time>2021-03-25T11:17:46Z</time>
      </trkpt>
      <trkpt lat="45.54899" lon="6.80414">
        <ele>2660.3</ele>
        <time>2021-03-25T11:17:47Z</time>
      </trkpt>
      <trkpt lat="45.54899" lon="6.80416">
        <ele>2660.3</ele>
        <time>2021-03-25T11:17:48Z</time>
      </trkpt>
      <trkpt lat="45.54899" lon="6.80417">
        <ele>2660.3</ele>
        <time>2021-03-25T11:17:49Z</time>
      </trkpt>
      <trkpt lat="45.54899" lon="6.80419">
        <ele>2660.7</ele>
        <time>2021-03-25T11:17:50Z</time>
      </trkpt>
      <trkpt lat="45.54898" lon="6.8042">
        <ele>2660.7</ele>
        <time>2021-03-25T11:17:51Z</time>
      </trkpt>
      <trkpt lat="45.54898" lon="6.80421">
        <ele>2660.7</ele>
        <time>2021-03-25T11:17:52Z</time>
      </trkpt>
      <trkpt lat="45.54898" lon="6.80422">
        <ele>2660.7</ele>
        <time>2021-03-25T11:17:53Z</time>
      </trkpt>
      <trkpt lat="45.54898" lon="6.80423">
        <ele>2660.7</ele>
        <time>2021-03-25T11:17:54Z</time>
      </trkpt>
      <trkpt lat="45.54898" lon="6.80424">
        <ele>2661</ele>
        <time>2021-03-25T11:17:55Z</time>
      </trkpt>
      <trkpt lat="45.54898" lon="6.80425">
        <ele>2661</ele>
        <time>2021-03-25T11:17:56Z</time>
      </trkpt>
      <trkpt lat="45.54898" lon="6.80426">
        <ele>2661</ele>
        <time>2021-03-25T11:17:57Z</time>
      </trkpt>
      <trkpt lat="45.54898" lon="6.80427">
        <ele>2661</ele>
        <time>2021-03-25T11:17:58Z</time>
      </trkpt>
      <trkpt lat="45.54898" lon="6.80428">
        <ele>2661.2</ele>
        <time>2021-03-25T11:17:59Z</time>
      </trkpt>
      <trkpt lat="45.54898" lon="6.80429">
        <ele>2661.2</ele>
        <time>2021-03-25T11:18:00Z</time>
      </trkpt>
      <trkpt lat="45.54898" lon="6.8043">
        <ele>2661.2</ele>
        <time>2021-03-25T11:18:01Z</time>
      </trkpt>
      <trkpt lat="45.54898" lon="6.80431">
        <ele>2661.2</ele>
        <time>2021-03-25T11:18:02Z</time>
      </trkpt>
      <trkpt lat="45.54898" lon="6.80432">
        <ele>2661.4</ele>
        <time>2021-03-25T11:18:03Z</time>
      </trkpt>
      <trkpt lat="45.54898" lon="6.80433">
        <ele>2661.4</ele>
        <time>2021-03-25T11:18:04Z</time>
      </trkpt>
      <trkpt lat="45.54898" lon="6.80434">
        <ele>2661.4</ele>
        <time>2021-03-25T11:18:05Z</time>
      </trkpt>
      <trkpt lat="45.54898" lon="6.80435">
        <ele>2661.4</ele>
        <time>2021-03-25T11:18:06Z</time>
      </trkpt>
      <trkpt lat="45.54898" lon="6.80435">
        <ele>2661.4</ele>
        <time>2021-03-25T11:18:07Z</time>
      </trkpt>
      <trkpt lat="45.54897" lon="6.80436">
        <ele>2661.5</ele>
        <time>2021-03-25T11:18:08Z</time>
      </trkpt>
      <trkpt lat="45.54897" lon="6.80437">
        <ele>2661.5</ele>
        <time>2021-03-25T11:18:09Z</time>
      </trkpt>
      <trkpt lat="45.54897" lon="6.80438">
        <ele>2661.5</ele>
        <time>2021-03-25T11:18:10Z</time>
      </trkpt>
      <trkpt lat="45.54897" lon="6.80438">
        <ele>2661.5</ele>
        <time>2021-03-25T11:18:11Z</time>
      </trkpt>
      <trkpt lat="45.54897" lon="6.80439">
        <ele>2661.5</ele>
        <time>2021-03-25T11:18:12Z</time>
      </trkpt>
      <trkpt lat="45.54897" lon="6.8044">
        <ele>2661.5</ele>
        <time>2021-03-25T11:18:13Z</time>
      </trkpt>
      <trkpt lat="45.54897" lon="6.8044">
        <ele>2661.6</ele>
        <time>2021-03-25T11:18:14Z</time>
      </trkpt>
      <trkpt lat="45.54897" lon="6.80441">
        <ele>2661.6</ele>
        <time>2021-03-25T11:18:15Z</time>
      </trkpt>
      <trkpt lat="45.54897" lon="6.80442">
        <ele>2661.6</ele>
        <time>2021-03-25T11:18:16Z</time>
      </trkpt>
      <trkpt lat="45.54896" lon="6.80443">
        <ele>2661.6</ele>
        <time>2021-03-25T11:18:17Z</time>
      </trkpt>
      <trkpt lat="45.54896" lon="6.80444">
        <ele>2661.6</ele>
        <time>2021-03-25T11:18:18Z</time>
      </trkpt>
      <trkpt lat="45.54896" lon="6.80445">
        <ele>2661.6</ele>
        <time>2021-03-25T11:18:19Z</time>
      </trkpt>
      <trkpt lat="45.54896" lon="6.80446">
        <ele>2661.6</ele>
        <time>2021-03-25T11:18:20Z</time>
      </trkpt>
      <trkpt lat="45.54895" lon="6.80447">
        <ele>2661.6</ele>
        <time>2021-03-25T11:18:21Z</time>
      </trkpt>
      <trkpt lat="45.54895" lon="6.80448">
        <ele>2661.6</ele>
        <time>2021-03-25T11:18:22Z</time>
      </trkpt>
      <trkpt lat="45.54895" lon="6.80449">
        <ele>2661.9</ele>
        <time>2021-03-25T11:18:23Z</time>
      </trkpt>
      <trkpt lat="45.54895" lon="6.8045">
        <ele>2661.9</ele>
        <time>2021-03-25T11:18:24Z</time>
      </trkpt>
      <trkpt lat="45.54894" lon="6.80451">
        <ele>2661.9</ele>
        <time>2021-03-25T11:18:25Z</time>
      </trkpt>
      <trkpt lat="45.54894" lon="6.80452">
        <ele>2661.9</ele>
        <time>2021-03-25T11:18:26Z</time>
      </trkpt>
      <trkpt lat="45.54894" lon="6.80453">
        <ele>2661.9</ele>
        <time>2021-03-25T11:18:27Z</time>
      </trkpt>
      <trkpt lat="45.54894" lon="6.80453">
        <ele>2661.9</ele>
        <time>2021-03-25T11:18:28Z</time>
      </trkpt>
      <trkpt lat="45.54893" lon="6.80454">
        <ele>2661.9</ele>
        <time>2021-03-25T11:18:29Z</time>
      </trkpt>
      <trkpt lat="45.54893" lon="6.80455">
        <ele>2661.9</ele>
        <time>2021-03-25T11:18:30Z</time>
      </trkpt>
      <trkpt lat="45.54893" lon="6.80455">
        <ele>2661.9</ele>
        <time>2021-03-25T11:18:31Z</time>
      </trkpt>
      <trkpt lat="45.54893" lon="6.80456">
        <ele>2661.9</ele>
        <time>2021-03-25T11:18:32Z</time>
      </trkpt>
      <trkpt lat="45.54892" lon="6.80456">
        <ele>2661.9</ele>
        <time>2021-03-25T11:18:33Z</time>
      </trkpt>
      <trkpt lat="45.54892" lon="6.80457">
        <ele>2661.9</ele>
        <time>2021-03-25T11:18:34Z</time>
      </trkpt>
      <trkpt lat="45.54892" lon="6.80458">
        <ele>2662.2</ele>
        <time>2021-03-25T11:18:35Z</time>
      </trkpt>
      <trkpt lat="45.54891" lon="6.80459">
        <ele>2662.2</ele>
        <time>2021-03-25T11:18:36Z</time>
      </trkpt>
      <trkpt lat="45.54891" lon="6.8046">
        <ele>2662.2</ele>
        <time>2021-03-25T11:18:37Z</time>
      </trkpt>
      <trkpt lat="45.54891" lon="6.8046">
        <ele>2662.2</ele>
        <time>2021-03-25T11:18:38Z</time>
      </trkpt>
      <trkpt lat="45.54891" lon="6.80461">
        <ele>2662.2</ele>
        <time>2021-03-25T11:18:39Z</time>
      </trkpt>
      <trkpt lat="45.54891" lon="6.80462">
        <ele>2662.2</ele>
        <time>2021-03-25T11:18:40Z</time>
      </trkpt>
      <trkpt lat="45.5489" lon="6.80462">
        <ele>2662.2</ele>
        <time>2021-03-25T11:18:41Z</time>
      </trkpt>
      <trkpt lat="45.5489" lon="6.80463">
        <ele>2662.2</ele>
        <time>2021-03-25T11:18:42Z</time>
      </trkpt>
      <trkpt lat="45.5489" lon="6.80464">
        <ele>2662.2</ele>
        <time>2021-03-25T11:18:43Z</time>
      </trkpt>
      <trkpt lat="45.54889" lon="6.80465">
        <ele>2662.2</ele>
        <time>2021-03-25T11:18:44Z</time>
      </trkpt>
      <trkpt lat="45.54889" lon="6.80465">
        <ele>2662.2</ele>
        <time>2021-03-25T11:18:45Z</time>
      </trkpt>
      <trkpt lat="45.54889" lon="6.80466">
        <ele>2662.5</ele>
        <time>2021-03-25T11:18:46Z</time>
      </trkpt>
      <trkpt lat="45.54889" lon="6.80467">
        <ele>2662.5</ele>
        <time>2021-03-25T11:18:47Z</time>
      </trkpt>
      <trkpt lat="45.54888" lon="6.80468">
        <ele>2662.5</ele>
        <time>2021-03-25T11:18:48Z</time>
      </trkpt>
      <trkpt lat="45.54888" lon="6.80468">
        <ele>2662.5</ele>
        <time>2021-03-25T11:18:49Z</time>
      </trkpt>
      <trkpt lat="45.54888" lon="6.80469">
        <ele>2662.5</ele>
        <time>2021-03-25T11:18:50Z</time>
      </trkpt>
      <trkpt lat="45.54888" lon="6.8047">
        <ele>2662.5</ele>
        <time>2021-03-25T11:18:51Z</time>
      </trkpt>
      <trkpt lat="45.54888" lon="6.80471">
        <ele>2662.4</ele>
        <time>2021-03-25T11:18:52Z</time>
      </trkpt>
      <trkpt lat="45.54887" lon="6.80471">
        <ele>2662.4</ele>
        <time>2021-03-25T11:18:53Z</time>
      </trkpt>
      <trkpt lat="45.54887" lon="6.80472">
        <ele>2662.4</ele>
        <time>2021-03-25T11:18:54Z</time>
      </trkpt>
      <trkpt lat="45.54887" lon="6.80473">
        <ele>2662.4</ele>
        <time>2021-03-25T11:18:55Z</time>
      </trkpt>
      <trkpt lat="45.54887" lon="6.80473">
        <ele>2662.4</ele>
        <time>2021-03-25T11:18:56Z</time>
      </trkpt>
      <trkpt lat="45.54887" lon="6.80474">
        <ele>2662.4</ele>
        <time>2021-03-25T11:18:57Z</time>
      </trkpt>
      <trkpt lat="45.54887" lon="6.80475">
        <ele>2662.3</ele>
        <time>2021-03-25T11:18:58Z</time>
      </trkpt>
      <trkpt lat="45.54887" lon="6.80475">
        <ele>2662.3</ele>
        <time>2021-03-25T11:18:59Z</time>
      </trkpt>
      <trkpt lat="45.54887" lon="6.80476">
        <ele>2662.3</ele>
        <time>2021-03-25T11:19:00Z</time>
      </trkpt>
      <trkpt lat="45.54887" lon="6.80477">
        <ele>2662.3</ele>
        <time>2021-03-25T11:19:01Z</time>
      </trkpt>
      <trkpt lat="45.54887" lon="6.80477">
        <ele>2662.3</ele>
        <time>2021-03-25T11:19:02Z</time>
      </trkpt>
      <trkpt lat="45.54888" lon="6.80478">
        <ele>2662.3</ele>
        <time>2021-03-25T11:19:03Z</time>
      </trkpt>
      <trkpt lat="45.54888" lon="6.80478">
        <ele>2662.3</ele>
        <time>2021-03-25T11:19:04Z</time>
      </trkpt>
      <trkpt lat="45.54888" lon="6.80479">
        <ele>2662.1</ele>
        <time>2021-03-25T11:19:05Z</time>
      </trkpt>
      <trkpt lat="45.54888" lon="6.80479">
        <ele>2662.1</ele>
        <time>2021-03-25T11:19:06Z</time>
      </trkpt>
      <trkpt lat="45.54888" lon="6.8048">
        <ele>2662.1</ele>
        <time>2021-03-25T11:19:07Z</time>
      </trkpt>
      <trkpt lat="45.54888" lon="6.8048">
        <ele>2662.1</ele>
        <time>2021-03-25T11:19:08Z</time>
      </trkpt>
      <trkpt lat="45.54888" lon="6.80481">
        <ele>2662.1</ele>
        <time>2021-03-25T11:19:09Z</time>
      </trkpt>
      <trkpt lat="45.54888" lon="6.80482">
        <ele>2662.1</ele>
        <time>2021-03-25T11:19:10Z</time>
      </trkpt>
      <trkpt lat="45.54888" lon="6.80483">
        <ele>2662.1</ele>
        <time>2021-03-25T11:19:11Z</time>
      </trkpt>
      <trkpt lat="45.54889" lon="6.80483">
        <ele>2661.8</ele>
        <time>2021-03-25T11:19:12Z</time>
      </trkpt>
      <trkpt lat="45.54889" lon="6.80483">
        <ele>2661.8</ele>
        <time>2021-03-25T11:19:13Z</time>
      </trkpt>
      <trkpt lat="45.54889" lon="6.80483">
        <ele>2661.4</ele>
        <time>2021-03-25T11:19:14Z</time>
      </trkpt>
      <trkpt lat="45.5489" lon="6.80483">
        <ele>2661.4</ele>
        <time>2021-03-25T11:19:15Z</time>
      </trkpt>
      <trkpt lat="45.5489" lon="6.80483">
        <ele>2661.7</ele>
        <time>2021-03-25T11:19:16Z</time>
      </trkpt>
      <trkpt lat="45.54891" lon="6.80482">
        <ele>2661.7</ele>
        <time>2021-03-25T11:19:17Z</time>
      </trkpt>
      <trkpt lat="45.54891" lon="6.80482">
        <ele>2661.7</ele>
        <time>2021-03-25T11:19:18Z</time>
      </trkpt>
      <trkpt lat="45.54892" lon="6.80482">
        <ele>2661.7</ele>
        <time>2021-03-25T11:19:19Z</time>
      </trkpt>
      <trkpt lat="45.54892" lon="6.80481">
        <ele>2661.2</ele>
        <time>2021-03-25T11:19:20Z</time>
      </trkpt>
      <trkpt lat="45.54892" lon="6.80481">
        <ele>2661.2</ele>
        <time>2021-03-25T11:19:21Z</time>
      </trkpt>
      <trkpt lat="45.54893" lon="6.8048">
        <ele>2661.2</ele>
        <time>2021-03-25T11:19:22Z</time>
      </trkpt>
      <trkpt lat="45.54893" lon="6.8048">
        <ele>2661.2</ele>
        <time>2021-03-25T11:19:23Z</time>
      </trkpt>
      <trkpt lat="45.54894" lon="6.80479">
        <ele>2661.2</ele>
        <time>2021-03-25T11:19:24Z</time>
      </trkpt>
      <trkpt lat="45.54894" lon="6.80479">
        <ele>2661.2</ele>
        <time>2021-03-25T11:19:25Z</time>
      </trkpt>
      <trkpt lat="45.54895" lon="6.80479">
        <ele>2661.2</ele>
        <time>2021-03-25T11:19:26Z</time>
      </trkpt>
      <trkpt lat="45.54895" lon="6.80479">
        <ele>2660.9</ele>
        <time>2021-03-25T11:19:27Z</time>
      </trkpt>
      <trkpt lat="45.54895" lon="6.80478">
        <ele>2660.9</ele>
        <time>2021-03-25T11:19:28Z</time>
      </trkpt>
      <trkpt lat="45.54896" lon="6.80477">
        <ele>2660.9</ele>
        <time>2021-03-25T11:19:29Z</time>
      </trkpt>
      <trkpt lat="45.54897" lon="6.80475">
        <ele>2660.9</ele>
        <time>2021-03-25T11:19:30Z</time>
      </trkpt>
      <trkpt lat="45.54898" lon="6.80474">
        <ele>2660.6</ele>
        <time>2021-03-25T11:19:31Z</time>
      </trkpt>
      <trkpt lat="45.54899" lon="6.80472">
        <ele>2660.6</ele>
        <time>2021-03-25T11:19:32Z</time>
      </trkpt>
      <trkpt lat="45.549" lon="6.80471">
        <ele>2660.6</ele>
        <time>2021-03-25T11:19:33Z</time>
      </trkpt>
      <trkpt lat="45.54901" lon="6.8047">
        <ele>2660.8</ele>
        <time>2021-03-25T11:19:34Z</time>
      </trkpt>
      <trkpt lat="45.54902" lon="6.80468">
        <ele>2660.3</ele>
        <time>2021-03-25T11:19:35Z</time>
      </trkpt>
      <trkpt lat="45.54903" lon="6.80467">
        <ele>2660.3</ele>
        <time>2021-03-25T11:19:36Z</time>
      </trkpt>
      <trkpt lat="45.54904" lon="6.80465">
        <ele>2660.5</ele>
        <time>2021-03-25T11:26:00Z</time>
      </trkpt>
      <trkpt lat="45.54904" lon="6.80464">
        <ele>2659.9</ele>
        <time>2021-03-25T11:26:01Z</time>
      </trkpt>
      <trkpt lat="45.54906" lon="6.80462">
        <ele>2659.9</ele>
        <time>2021-03-25T11:26:02Z</time>
      </trkpt>
      <trkpt lat="45.54907" lon="6.80461">
        <ele>2660.1</ele>
        <time>2021-03-25T11:26:03Z</time>
      </trkpt>
      <trkpt lat="45.54907" lon="6.8046">
        <ele>2659.4</ele>
        <time>2021-03-25T11:26:04Z</time>
      </trkpt>
      <trkpt lat="45.54909" lon="6.80458">
        <ele>2659.4</ele>
        <time>2021-03-25T11:26:05Z</time>
      </trkpt>
      <trkpt lat="45.54909" lon="6.80457">
        <ele>2659.6</ele>
        <time>2021-03-25T11:26:06Z</time>
      </trkpt>
      <trkpt lat="45.5491" lon="6.80455">
        <ele>2659.6</ele>
        <time>2021-03-25T11:26:07Z</time>
      </trkpt>
      <trkpt lat="45.5491" lon="6.80454">
        <ele>2658.9</ele>
        <time>2021-03-25T11:26:08Z</time>
      </trkpt>
      <trkpt lat="45.54911" lon="6.80453">
        <ele>2659.1</ele>
        <time>2021-03-25T11:26:09Z</time>
      </trkpt>
      <trkpt lat="45.54912" lon="6.80452">
        <ele>2659.1</ele>
        <time>2021-03-25T11:26:10Z</time>
      </trkpt>
      <trkpt lat="45.54912" lon="6.8045">
        <ele>2659.1</ele>
        <time>2021-03-25T11:26:11Z</time>
      </trkpt>
      <trkpt lat="45.54913" lon="6.80449">
        <ele>2659.1</ele>
        <time>2021-03-25T11:26:12Z</time>
      </trkpt>
      <trkpt lat="45.54913" lon="6.80448">
        <ele>2658.3</ele>
        <time>2021-03-25T11:26:13Z</time>
      </trkpt>
      <trkpt lat="45.54914" lon="6.80447">
        <ele>2658.3</ele>
        <time>2021-03-25T11:26:14Z</time>
      </trkpt>
      <trkpt lat="45.54914" lon="6.80445">
        <ele>2658.3</ele>
        <time>2021-03-25T11:26:15Z</time>
      </trkpt>
      <trkpt lat="45.54915" lon="6.80444">
        <ele>2658.5</ele>
        <time>2021-03-25T11:26:16Z</time>
      </trkpt>
      <trkpt lat="45.54915" lon="6.80443">
        <ele>2658.5</ele>
        <time>2021-03-25T11:26:17Z</time>
      </trkpt>
      <trkpt lat="45.54916" lon="6.80441">
        <ele>2658.5</ele>
        <time>2021-03-25T11:26:18Z</time>
      </trkpt>
      <trkpt lat="45.54916" lon="6.8044">
        <ele>2657.5</ele>
        <time>2021-03-25T11:26:19Z</time>
      </trkpt>
      <trkpt lat="45.54917" lon="6.80439">
        <ele>2657.7</ele>
        <time>2021-03-25T11:26:20Z</time>
      </trkpt>
      <trkpt lat="45.54917" lon="6.80438">
        <ele>2657.7</ele>
        <time>2021-03-25T11:26:21Z</time>
      </trkpt>
      <trkpt lat="45.54918" lon="6.80437">
        <ele>2657.7</ele>
        <time>2021-03-25T11:26:22Z</time>
      </trkpt>
      <trkpt lat="45.54918" lon="6.80436">
        <ele>2657.7</ele>
        <time>2021-03-25T11:26:23Z</time>
      </trkpt>
      <trkpt lat="45.54919" lon="6.80436">
        <ele>2657.8</ele>
        <time>2021-03-25T11:26:24Z</time>
      </trkpt>
      <trkpt lat="45.54919" lon="6.80435">
        <ele>2656.8</ele>
        <time>2021-03-25T11:26:25Z</time>
      </trkpt>
      <trkpt lat="45.5492" lon="6.80434">
        <ele>2656.8</ele>
        <time>2021-03-25T11:26:26Z</time>
      </trkpt>
      <trkpt lat="45.5492" lon="6.80434">
        <ele>2656.8</ele>
        <time>2021-03-25T11:26:27Z</time>
      </trkpt>
      <trkpt lat="45.54921" lon="6.80433">
        <ele>2656.8</ele>
        <time>2021-03-25T11:26:28Z</time>
      </trkpt>
      <trkpt lat="45.54922" lon="6.80432">
        <ele>2656.8</ele>
        <time>2021-03-25T11:26:29Z</time>
      </trkpt>
      <trkpt lat="45.54922" lon="6.80432">
        <ele>2655.7</ele>
        <time>2021-03-25T11:26:30Z</time>
      </trkpt>
      <trkpt lat="45.54923" lon="6.80431">
        <ele>2655.9</ele>
        <time>2021-03-25T11:26:31Z</time>
      </trkpt>
      <trkpt lat="45.54924" lon="6.8043">
        <ele>2655.9</ele>
        <time>2021-03-25T11:26:32Z</time>
      </trkpt>
      <trkpt lat="45.54924" lon="6.8043">
        <ele>2655.9</ele>
        <time>2021-03-25T11:26:33Z</time>
      </trkpt>
      <trkpt lat="45.54925" lon="6.80429">
        <ele>2655.9</ele>
        <time>2021-03-25T11:26:34Z</time>
      </trkpt>
      <trkpt lat="45.54926" lon="6.80428">
        <ele>2654.8</ele>
        <time>2021-03-25T11:26:35Z</time>
      </trkpt>
      <trkpt lat="45.54926" lon="6.80427">
        <ele>2654.9</ele>
        <time>2021-03-25T11:26:36Z</time>
      </trkpt>
      <trkpt lat="45.54927" lon="6.80426">
        <ele>2654.9</ele>
        <time>2021-03-25T11:26:37Z</time>
      </trkpt>
      <trkpt lat="45.54928" lon="6.80426">
        <ele>2654.9</ele>
        <time>2021-03-25T11:26:38Z</time>
      </trkpt>
      <trkpt lat="45.54928" lon="6.80425">
        <ele>2653.8</ele>
        <time>2021-03-25T11:26:39Z</time>
      </trkpt>
      <trkpt lat="45.54929" lon="6.80425">
        <ele>2653.8</ele>
        <time>2021-03-25T11:26:40Z</time>
      </trkpt>
      <trkpt lat="45.5493" lon="6.80424">
        <ele>2653.8</ele>
        <time>2021-03-25T11:26:41Z</time>
      </trkpt>
      <trkpt lat="45.5493" lon="6.80423">
        <ele>2653.8</ele>
        <time>2021-03-25T11:26:42Z</time>
      </trkpt>
      <trkpt lat="45.54931" lon="6.80423">
        <ele>2653.9</ele>
        <time>2021-03-25T11:26:43Z</time>
      </trkpt>
      <trkpt lat="45.54931" lon="6.80422">
        <ele>2652.7</ele>
        <time>2021-03-25T11:26:44Z</time>
      </trkpt>
      <trkpt lat="45.54932" lon="6.80421">
        <ele>2652.7</ele>
        <time>2021-03-25T11:26:45Z</time>
      </trkpt>
      <trkpt lat="45.54932" lon="6.80421">
        <ele>2652.7</ele>
        <time>2021-03-25T11:26:46Z</time>
      </trkpt>
      <trkpt lat="45.54933" lon="6.8042">
        <ele>2652.7</ele>
        <time>2021-03-25T11:26:47Z</time>
      </trkpt>
      <trkpt lat="45.54933" lon="6.80419">
        <ele>2652.7</ele>
        <time>2021-03-25T11:26:48Z</time>
      </trkpt>
      <trkpt lat="45.54934" lon="6.80418">
        <ele>2652.7</ele>
        <time>2021-03-25T11:26:49Z</time>
      </trkpt>
      <trkpt lat="45.54934" lon="6.80417">
        <ele>2651.4</ele>
        <time>2021-03-25T11:26:50Z</time>
      </trkpt>
      <trkpt lat="45.54935" lon="6.80416">
        <ele>2651.4</ele>
        <time>2021-03-25T11:26:51Z</time>
      </trkpt>
      <trkpt lat="45.54935" lon="6.80416">
        <ele>2651.4</ele>
        <time>2021-03-25T11:26:52Z</time>
      </trkpt>
      <trkpt lat="45.54936" lon="6.80415">
        <ele>2651.4</ele>
        <time>2021-03-25T11:26:53Z</time>
      </trkpt>
      <trkpt lat="45.54936" lon="6.80414">
        <ele>2651.3</ele>
        <time>2021-03-25T11:26:54Z</time>
      </trkpt>
      <trkpt lat="45.54937" lon="6.80413">
        <ele>2651.3</ele>
        <time>2021-03-25T11:26:55Z</time>
      </trkpt>
      <trkpt lat="45.54937" lon="6.80413">
        <ele>2651.3</ele>
        <time>2021-03-25T11:26:56Z</time>
      </trkpt>
      <trkpt lat="45.54937" lon="6.80412">
        <ele>2649.9</ele>
        <time>2021-03-25T11:26:57Z</time>
      </trkpt>
      <trkpt lat="45.54938" lon="6.80411">
        <ele>2649.9</ele>
        <time>2021-03-25T11:26:58Z</time>
      </trkpt>
      <trkpt lat="45.54938" lon="6.80411">
        <ele>2649.9</ele>
        <time>2021-03-25T11:26:59Z</time>
      </trkpt>
      <trkpt lat="45.54939" lon="6.8041">
        <ele>2649.9</ele>
        <time>2021-03-25T11:27:00Z</time>
      </trkpt>
      <trkpt lat="45.54939" lon="6.8041">
        <ele>2649.9</ele>
        <time>2021-03-25T11:27:01Z</time>
      </trkpt>
      <trkpt lat="45.54939" lon="6.8041">
        <ele>2649.9</ele>
        <time>2021-03-25T11:27:02Z</time>
      </trkpt>
      <trkpt lat="45.5494" lon="6.80411">
        <ele>2649.9</ele>
        <time>2021-03-25T11:27:03Z</time>
      </trkpt>
      <trkpt lat="45.5494" lon="6.80411">
        <ele>2649.9</ele>
        <time>2021-03-25T11:27:04Z</time>
      </trkpt>
      <trkpt lat="45.5494" lon="6.80411">
        <ele>2648.4</ele>
        <time>2021-03-25T11:27:05Z</time>
      </trkpt>
      <trkpt lat="45.5494" lon="6.80411">
        <ele>2648.4</ele>
        <time>2021-03-25T11:27:06Z</time>
      </trkpt>
      <trkpt lat="45.54941" lon="6.80411">
        <ele>2648.4</ele>
        <time>2021-03-25T11:27:07Z</time>
      </trkpt>
      <trkpt lat="45.54941" lon="6.80411">
        <ele>2648.4</ele>
        <time>2021-03-25T11:27:08Z</time>
      </trkpt>
      <trkpt lat="45.54941" lon="6.80411">
        <ele>2648.4</ele>
        <time>2021-03-25T11:27:09Z</time>
      </trkpt>
      <trkpt lat="45.54941" lon="6.80411">
        <ele>2648.4</ele>
        <time>2021-03-25T11:27:52Z</time>
      </trkpt>
      <trkpt lat="45.54942" lon="6.80411">
        <ele>2648.4</ele>
        <time>2021-03-25T11:27:53Z</time>
      </trkpt>
      <trkpt lat="45.54942" lon="6.80411">
        <ele>2648.4</ele>
        <time>2021-03-25T11:27:54Z</time>
      </trkpt>
      <trkpt lat="45.54942" lon="6.80411">
        <ele>2648.4</ele>
        <time>2021-03-25T11:27:55Z</time>
      </trkpt>
      <trkpt lat="45.54942" lon="6.80411">
        <ele>2648.4</ele>
        <time>2021-03-25T11:27:56Z</time>
      </trkpt>
      <trkpt lat="45.54943" lon="6.80412">
        <ele>2648.4</ele>
        <time>2021-03-25T11:27:57Z</time>
      </trkpt>
      <trkpt lat="45.54943" lon="6.80412">
        <ele>2648.4</ele>
        <time>2021-03-25T11:27:58Z</time>
      </trkpt>
      <trkpt lat="45.54943" lon="6.80412">
        <ele>2646.8</ele>
        <time>2021-03-25T11:27:59Z</time>
      </trkpt>
      <trkpt lat="45.54943" lon="6.80412">
        <ele>2646.8</ele>
        <time>2021-03-25T11:28:00Z</time>
      </trkpt>
      <trkpt lat="45.54944" lon="6.80412">
        <ele>2646.8</ele>
        <time>2021-03-25T11:28:01Z</time>
      </trkpt>
      <trkpt lat="45.54944" lon="6.80412">
        <ele>2646.8</ele>
        <time>2021-03-25T11:44:25Z</time>
      </trkpt>
      <trkpt lat="45.54944" lon="6.80412">
        <ele>2646.8</ele>
        <time>2021-03-25T11:44:26Z</time>
      </trkpt>
      <trkpt lat="45.54944" lon="6.80412">
        <ele>2646.8</ele>
        <time>2021-03-25T11:44:27Z</time>
      </trkpt>
      <trkpt lat="45.54945" lon="6.80412">
        <ele>2646.8</ele>
        <time>2021-03-25T11:44:28Z</time>
      </trkpt>
      <trkpt lat="45.54945" lon="6.80412">
        <ele>2646.8</ele>
        <time>2021-03-25T11:44:29Z</time>
      </trkpt>
      <trkpt lat="45.54945" lon="6.80412">
        <ele>2646.8</ele>
        <time>2021-03-25T11:44:30Z</time>
      </trkpt>
      <trkpt lat="45.54946" lon="6.80413">
        <ele>2646.8</ele>
        <time>2021-03-25T11:44:31Z</time>
      </trkpt>
      <trkpt lat="45.54946" lon="6.80413">
        <ele>2646.8</ele>
        <time>2021-03-25T11:44:32Z</time>
      </trkpt>
      <trkpt lat="45.54946" lon="6.80413">
        <ele>2645.2</ele>
        <time>2021-03-25T11:44:33Z</time>
      </trkpt>
      <trkpt lat="45.54946" lon="6.80413">
        <ele>2645.2</ele>
        <time>2021-03-25T11:44:34Z</time>
      </trkpt>
      <trkpt lat="45.54947" lon="6.80413">
        <ele>2645.2</ele>
        <time>2021-03-25T11:44:35Z</time>
      </trkpt>
      <trkpt lat="45.54947" lon="6.80413">
        <ele>2645.2</ele>
        <time>2021-03-25T12:13:31Z</time>
      </trkpt>
      <trkpt lat="45.54947" lon="6.80413">
        <ele>2645.2</ele>
        <time>2021-03-25T12:13:32Z</time>
      </trkpt>
      <trkpt lat="45.54944" lon="6.80415">
        <ele>2646.8</ele>
        <time>2021-03-25T12:13:33Z</time>
      </trkpt>
      <trkpt lat="45.54941" lon="6.80418">
        <ele>2648.4</ele>
        <time>2021-03-25T12:13:34Z</time>
      </trkpt>
      <trkpt lat="45.54938" lon="6.80422">
        <ele>2649.9</ele>
        <time>2021-03-25T12:13:35Z</time>
      </trkpt>
      <trkpt lat="45.54936" lon="6.80425">
        <ele>2651.3</ele>
        <time>2021-03-25T12:13:36Z</time>
      </trkpt>
      <trkpt lat="45.54935" lon="6.80428">
        <ele>2651.1</ele>
        <time>2021-03-25T12:13:37Z</time>
      </trkpt>
      <trkpt lat="45.54933" lon="6.80431">
        <ele>2652.5</ele>
        <time>2021-03-25T12:13:38Z</time>
      </trkpt>
      <trkpt lat="45.54931" lon="6.80434">
        <ele>2653.5</ele>
        <time>2021-03-25T12:13:39Z</time>
      </trkpt>
      <trkpt lat="45.54928" lon="6.80438">
        <ele>2653.3</ele>
        <time>2021-03-25T12:13:40Z</time>
      </trkpt>
      <trkpt lat="45.54927" lon="6.8044">
        <ele>2654.5</ele>
        <time>2021-03-25T12:13:41Z</time>
      </trkpt>
      <trkpt lat="45.54925" lon="6.80443">
        <ele>2655.4</ele>
        <time>2021-03-25T12:13:42Z</time>
      </trkpt>
      <trkpt lat="45.54922" lon="6.80447">
        <ele>2655.1</ele>
        <time>2021-03-25T12:13:43Z</time>
      </trkpt>
      <trkpt lat="45.54918" lon="6.80452">
        <ele>2657.1</ele>
        <time>2021-03-25T12:13:44Z</time>
      </trkpt>
      <trkpt lat="45.54913" lon="6.80457">
        <ele>2657.7</ele>
        <time>2021-03-25T12:13:45Z</time>
      </trkpt>
      <trkpt lat="45.54907" lon="6.80463">
        <ele>2659.2</ele>
        <time>2021-03-25T12:13:46Z</time>
      </trkpt>
      <trkpt lat="45.54904" lon="6.80468">
        <ele>2660.3</ele>
        <time>2021-03-25T12:13:47Z</time>
      </trkpt>
      <trkpt lat="45.54904" lon="6.80473">
        <ele>2659.4</ele>
        <time>2021-03-25T12:13:48Z</time>
      </trkpt>
      <trkpt lat="45.54903" lon="6.80473">
        <ele>2660</ele>
        <time>2021-03-25T12:13:49Z</time>
      </trkpt>
      <trkpt lat="45.54902" lon="6.80472">
        <ele>2660</ele>
        <time>2021-03-25T12:13:50Z</time>
      </trkpt>
      <trkpt lat="45.54901" lon="6.80473">
        <ele>2660</ele>
        <time>2021-03-25T12:13:51Z</time>
      </trkpt>
      <trkpt lat="45.54901" lon="6.80474">
        <ele>2660.3</ele>
        <time>2021-03-25T12:13:52Z</time>
      </trkpt>
      <trkpt lat="45.549" lon="6.80479">
        <ele>2660.1</ele>
        <time>2021-03-25T12:13:53Z</time>
      </trkpt>
      <trkpt lat="45.549" lon="6.8048">
        <ele>2660.1</ele>
        <time>2021-03-25T12:13:54Z</time>
      </trkpt>
      <trkpt lat="45.549" lon="6.80482">
        <ele>2660.1</ele>
        <time>2021-03-25T12:13:55Z</time>
      </trkpt>
      <trkpt lat="45.549" lon="6.80483">
        <ele>2659.7</ele>
        <time>2021-03-25T12:13:56Z</time>
      </trkpt>
      <trkpt lat="45.549" lon="6.80484">
        <ele>2659.7</ele>
        <time>2021-03-25T12:13:57Z</time>
      </trkpt>
      <trkpt lat="45.549" lon="6.80486">
        <ele>2659.7</ele>
        <time>2021-03-25T12:13:58Z</time>
      </trkpt>
      <trkpt lat="45.54899" lon="6.80487">
        <ele>2659.3</ele>
        <time>2021-03-25T12:13:59Z</time>
      </trkpt>
      <trkpt lat="45.54899" lon="6.80489">
        <ele>2659.3</ele>
        <time>2021-03-25T12:14:00Z</time>
      </trkpt>
      <trkpt lat="45.54899" lon="6.8049">
        <ele>2659.3</ele>
        <time>2021-03-25T12:14:01Z</time>
      </trkpt>
      <trkpt lat="45.54899" lon="6.80492">
        <ele>2658.8</ele>
        <time>2021-03-25T12:14:02Z</time>
      </trkpt>
      <trkpt lat="45.54899" lon="6.80493">
        <ele>2658.8</ele>
        <time>2021-03-25T12:15:05Z</time>
      </trkpt>
      <trkpt lat="45.54899" lon="6.80495">
        <ele>2658.8</ele>
        <time>2021-03-25T12:15:06Z</time>
      </trkpt>
      <trkpt lat="45.54899" lon="6.80496">
        <ele>2658.1</ele>
        <time>2021-03-25T12:15:07Z</time>
      </trkpt>
      <trkpt lat="45.54897" lon="6.80497">
        <ele>2658.7</ele>
        <time>2021-03-25T12:15:08Z</time>
      </trkpt>
      <trkpt lat="45.54897" lon="6.80497">
        <ele>2658.7</ele>
        <time>2021-03-25T12:15:09Z</time>
      </trkpt>
      <trkpt lat="45.54897" lon="6.80497">
        <ele>2658.7</ele>
        <time>2021-03-25T12:15:10Z</time>
      </trkpt>
      <trkpt lat="45.54897" lon="6.80497">
        <ele>2658.7</ele>
        <time>2021-03-25T12:15:11Z</time>
      </trkpt>
      <trkpt lat="45.54897" lon="6.80497">
        <ele>2658.7</ele>
        <time>2021-03-25T12:15:12Z</time>
      </trkpt>
      <trkpt lat="45.54897" lon="6.80497">
        <ele>2658.7</ele>
        <time>2021-03-25T12:15:13Z</time>
      </trkpt>
      <trkpt lat="45.54897" lon="6.80497">
        <ele>2658.7</ele>
        <time>2021-03-25T12:15:14Z</time>
      </trkpt>
      <trkpt lat="45.54897" lon="6.80497">
        <ele>2658.7</ele>
        <time>2021-03-25T12:15:15Z</time>
      </trkpt>
      <trkpt lat="45.54895" lon="6.80496">
        <ele>2658.7</ele>
        <time>2021-03-25T12:15:16Z</time>
      </trkpt>
      <trkpt lat="45.54895" lon="6.80496">
        <ele>2659.3</ele>
        <time>2021-03-25T12:15:17Z</time>
      </trkpt>
      <trkpt lat="45.54894" lon="6.80496">
        <ele>2660</ele>
        <time>2021-03-25T12:15:18Z</time>
      </trkpt>
      <trkpt lat="45.54893" lon="6.80495">
        <ele>2660</ele>
        <time>2021-03-25T12:15:19Z</time>
      </trkpt>
      <trkpt lat="45.54892" lon="6.80495">
        <ele>2660</ele>
        <time>2021-03-25T12:15:20Z</time>
      </trkpt>
      <trkpt lat="45.54892" lon="6.80494">
        <ele>2660.5</ele>
        <time>2021-03-25T12:15:21Z</time>
      </trkpt>
      <trkpt lat="45.54891" lon="6.80494">
        <ele>2660.5</ele>
        <time>2021-03-25T12:15:22Z</time>
      </trkpt>
      <trkpt lat="45.54889" lon="6.80494">
        <ele>2660.5</ele>
        <time>2021-03-25T12:15:23Z</time>
      </trkpt>
      <trkpt lat="45.54886" lon="6.80495">
        <ele>2661.3</ele>
        <time>2021-03-25T12:15:24Z</time>
      </trkpt>
      <trkpt lat="45.54885" lon="6.80495">
        <ele>2661.3</ele>
        <time>2021-03-25T12:15:25Z</time>
      </trkpt>
      <trkpt lat="45.54881" lon="6.80498">
        <ele>2660.9</ele>
        <time>2021-03-25T12:15:26Z</time>
      </trkpt>
      <trkpt lat="45.5488" lon="6.805">
        <ele>2660.9</ele>
        <time>2021-03-25T12:15:27Z</time>
      </trkpt>
      <trkpt lat="45.5488" lon="6.80504">
        <ele>2660.3</ele>
        <time>2021-03-25T12:15:28Z</time>
      </trkpt>
      <trkpt lat="45.54881" lon="6.8051">
        <ele>2658.6</ele>
        <time>2021-03-25T12:15:29Z</time>
      </trkpt>
      <trkpt lat="45.54884" lon="6.80516">
        <ele>2657.5</ele>
        <time>2021-03-25T12:15:30Z</time>
      </trkpt>
      <trkpt lat="45.54888" lon="6.80519">
        <ele>2656.3</ele>
        <time>2021-03-25T12:15:31Z</time>
      </trkpt>
      <trkpt lat="45.54893" lon="6.8052">
        <ele>2655.3</ele>
        <time>2021-03-25T12:15:32Z</time>
      </trkpt>
      <trkpt lat="45.54898" lon="6.80519">
        <ele>2654.7</ele>
        <time>2021-03-25T12:15:33Z</time>
      </trkpt>
      <trkpt lat="45.549" lon="6.80517">
        <ele>2654</ele>
        <time>2021-03-25T12:15:34Z</time>
      </trkpt>
      <trkpt lat="45.54902" lon="6.80516">
        <ele>2654.3</ele>
        <time>2021-03-25T12:15:35Z</time>
      </trkpt>
      <trkpt lat="45.54903" lon="6.80515">
        <ele>2654.3</ele>
        <time>2021-03-25T12:15:36Z</time>
      </trkpt>
      <trkpt lat="45.54903" lon="6.80514">
        <ele>2654.3</ele>
        <time>2021-03-25T12:15:37Z</time>
      </trkpt>
      <trkpt lat="45.54904" lon="6.80513">
        <ele>2654.3</ele>
        <time>2021-03-25T12:15:38Z</time>
      </trkpt>
      <trkpt lat="45.54904" lon="6.80513">
        <ele>2654.5</ele>
        <time>2021-03-25T12:15:39Z</time>
      </trkpt>
      <trkpt lat="45.54905" lon="6.80512">
        <ele>2654.5</ele>
        <time>2021-03-25T12:15:40Z</time>
      </trkpt>
      <trkpt lat="45.54905" lon="6.80511">
        <ele>2654.5</ele>
        <time>2021-03-25T12:15:41Z</time>
      </trkpt>
      <trkpt lat="45.54906" lon="6.8051">
        <ele>2654.5</ele>
        <time>2021-03-25T12:15:42Z</time>
      </trkpt>
      <trkpt lat="45.54906" lon="6.8051">
        <ele>2654.5</ele>
        <time>2021-03-25T12:15:43Z</time>
      </trkpt>
      <trkpt lat="45.54907" lon="6.80509">
        <ele>2654.5</ele>
        <time>2021-03-25T12:15:44Z</time>
      </trkpt>
      <trkpt lat="45.54907" lon="6.80508">
        <ele>2654.5</ele>
        <time>2021-03-25T12:15:45Z</time>
      </trkpt>
      <trkpt lat="45.54908" lon="6.80507">
        <ele>2654.5</ele>
        <time>2021-03-25T12:17:11Z</time>
      </trkpt>
      <trkpt lat="45.54908" lon="6.80507">
        <ele>2654.5</ele>
        <time>2021-03-25T12:17:12Z</time>
      </trkpt>
      <trkpt lat="45.54909" lon="6.80506">
        <ele>2654.5</ele>
        <time>2021-03-25T12:17:13Z</time>
      </trkpt>
      <trkpt lat="45.54909" lon="6.80505">
        <ele>2654.5</ele>
        <time>2021-03-25T12:17:14Z</time>
      </trkpt>
      <trkpt lat="45.5491" lon="6.80505">
        <ele>2654.5</ele>
        <time>2021-03-25T12:17:15Z</time>
      </trkpt>
      <trkpt lat="45.5491" lon="6.80504">
        <ele>2654.3</ele>
        <time>2021-03-25T12:17:16Z</time>
      </trkpt>
      <trkpt lat="45.54911" lon="6.80503">
        <ele>2654.3</ele>
        <time>2021-03-25T12:17:17Z</time>
      </trkpt>
      <trkpt lat="45.54911" lon="6.80503">
        <ele>2654.3</ele>
        <time>2021-03-25T12:17:18Z</time>
      </trkpt>
      <trkpt lat="45.54912" lon="6.80502">
        <ele>2654.3</ele>
        <time>2021-03-25T12:17:19Z</time>
      </trkpt>
      <trkpt lat="45.54913" lon="6.80501">
        <ele>2654.3</ele>
        <time>2021-03-25T12:17:20Z</time>
      </trkpt>
      <trkpt lat="45.54913" lon="6.80501">
        <ele>2653.1</ele>
        <time>2021-03-25T12:17:21Z</time>
      </trkpt>
      <trkpt lat="45.54914" lon="6.805">
        <ele>2653.9</ele>
        <time>2021-03-25T12:17:22Z</time>
      </trkpt>
      <trkpt lat="45.54914" lon="6.80499">
        <ele>2653.9</ele>
        <time>2021-03-25T12:18:01Z</time>
      </trkpt>
      <trkpt lat="45.54915" lon="6.80499">
        <ele>2653.9</ele>
        <time>2021-03-25T12:18:02Z</time>
      </trkpt>
      <trkpt lat="45.54916" lon="6.80497">
        <ele>2652.7</ele>
        <time>2021-03-25T12:18:03Z</time>
      </trkpt>
      <trkpt lat="45.54917" lon="6.80496">
        <ele>2653.4</ele>
        <time>2021-03-25T12:18:04Z</time>
      </trkpt>
      <trkpt lat="45.54917" lon="6.80495">
        <ele>2653.4</ele>
        <time>2021-03-25T12:18:05Z</time>
      </trkpt>
      <trkpt lat="45.54918" lon="6.80495">
        <ele>2653.4</ele>
        <time>2021-03-25T12:18:06Z</time>
      </trkpt>
      <trkpt lat="45.54918" lon="6.80495">
        <ele>2653.4</ele>
        <time>2021-03-25T12:18:07Z</time>
      </trkpt>
      <trkpt lat="45.54919" lon="6.80495">
        <ele>2653.4</ele>
        <time>2021-03-25T12:18:08Z</time>
      </trkpt>
      <trkpt lat="45.54919" lon="6.80494">
        <ele>2653.4</ele>
        <time>2021-03-25T12:18:09Z</time>
      </trkpt>
      <trkpt lat="45.54919" lon="6.80494">
        <ele>2652.1</ele>
        <time>2021-03-25T12:18:10Z</time>
      </trkpt>
      <trkpt lat="45.5492" lon="6.80494">
        <ele>2652.1</ele>
        <time>2021-03-25T12:18:11Z</time>
      </trkpt>
      <trkpt lat="45.5492" lon="6.80494">
        <ele>2652.1</ele>
        <time>2021-03-25T12:18:12Z</time>
      </trkpt>
      <trkpt lat="45.54921" lon="6.80494">
        <ele>2652.1</ele>
        <time>2021-03-25T12:18:13Z</time>
      </trkpt>
      <trkpt lat="45.54921" lon="6.80493">
        <ele>2652.1</ele>
        <time>2021-03-25T12:18:14Z</time>
      </trkpt>
      <trkpt lat="45.54921" lon="6.80493">
        <ele>2652.1</ele>
        <time>2021-03-25T12:18:21Z</time>
      </trkpt>
      <trkpt lat="45.54922" lon="6.80493">
        <ele>2652.1</ele>
        <time>2021-03-25T12:18:22Z</time>
      </trkpt>
      <trkpt lat="45.54922" lon="6.80493">
        <ele>2650.8</ele>
        <time>2021-03-25T12:18:23Z</time>
      </trkpt>
      <trkpt lat="45.54923" lon="6.80492">
        <ele>2650.8</ele>
        <time>2021-03-25T12:18:24Z</time>
      </trkpt>
      <trkpt lat="45.54923" lon="6.80492">
        <ele>2650.8</ele>
        <time>2021-03-25T12:18:25Z</time>
      </trkpt>
      <trkpt lat="45.54923" lon="6.80492">
        <ele>2650.8</ele>
        <time>2021-03-25T12:18:26Z</time>
      </trkpt>
      <trkpt lat="45.54923" lon="6.80497">
        <ele>2650.1</ele>
        <time>2021-03-25T12:18:27Z</time>
      </trkpt>
      <trkpt lat="45.54923" lon="6.80499">
        <ele>2650.1</ele>
        <time>2021-03-25T12:18:28Z</time>
      </trkpt>
      <trkpt lat="45.54922" lon="6.80503">
        <ele>2649.3</ele>
        <time>2021-03-25T12:18:29Z</time>
      </trkpt>
      <trkpt lat="45.54922" lon="6.80505">
        <ele>2648.5</ele>
        <time>2021-03-25T12:18:30Z</time>
      </trkpt>
      <trkpt lat="45.54922" lon="6.80508">
        <ele>2648.5</ele>
        <time>2021-03-25T12:18:31Z</time>
      </trkpt>
      <trkpt lat="45.54925" lon="6.8051">
        <ele>2646.4</ele>
        <time>2021-03-25T12:18:32Z</time>
      </trkpt>
      <trkpt lat="45.54926" lon="6.80511">
        <ele>2646.4</ele>
        <time>2021-03-25T12:18:33Z</time>
      </trkpt>
      <trkpt lat="45.54927" lon="6.8051">
        <ele>2646.6</ele>
        <time>2021-03-25T12:18:34Z</time>
      </trkpt>
      <trkpt lat="45.54928" lon="6.80509">
        <ele>2645.5</ele>
        <time>2021-03-25T12:18:35Z</time>
      </trkpt>
      <trkpt lat="45.54929" lon="6.80509">
        <ele>2645.6</ele>
        <time>2021-03-25T12:18:36Z</time>
      </trkpt>
      <trkpt lat="45.5493" lon="6.80509">
        <ele>2645.8</ele>
        <time>2021-03-25T12:18:37Z</time>
      </trkpt>
      <trkpt lat="45.5493" lon="6.8051">
        <ele>2646</ele>
        <time>2021-03-25T12:18:38Z</time>
      </trkpt>
      <trkpt lat="45.54931" lon="6.80511">
        <ele>2646.1</ele>
        <time>2021-03-25T12:18:39Z</time>
      </trkpt>
      <trkpt lat="45.54931" lon="6.80512">
        <ele>2646.3</ele>
        <time>2021-03-25T12:18:40Z</time>
      </trkpt>
      <trkpt lat="45.54931" lon="6.80512">
        <ele>2646.5</ele>
        <time>2021-03-25T12:18:41Z</time>
      </trkpt>
      <trkpt lat="45.54931" lon="6.80513">
        <ele>2645.3</ele>
        <time>2021-03-25T12:18:42Z</time>
      </trkpt>
      <trkpt lat="45.54932" lon="6.80513">
        <ele>2645.4</ele>
        <time>2021-03-25T12:18:43Z</time>
      </trkpt>
      <trkpt lat="45.54932" lon="6.80513">
        <ele>2644.7</ele>
        <time>2021-03-25T12:18:44Z</time>
      </trkpt>
      <trkpt lat="45.54932" lon="6.80514">
        <ele>2644.9</ele>
        <time>2021-03-25T12:18:45Z</time>
      </trkpt>
      <trkpt lat="45.54932" lon="6.80514">
        <ele>2645.1</ele>
        <time>2021-03-25T12:18:46Z</time>
      </trkpt>
      <trkpt lat="45.54933" lon="6.80514">
        <ele>2645.2</ele>
        <time>2021-03-25T12:18:47Z</time>
      </trkpt>
      <trkpt lat="45.54933" lon="6.80515">
        <ele>2645.4</ele>
        <time>2021-03-25T12:18:48Z</time>
      </trkpt>
      <trkpt lat="45.54933" lon="6.80515">
        <ele>2645.6</ele>
        <time>2021-03-25T12:18:49Z</time>
      </trkpt>
      <trkpt lat="45.54934" lon="6.80515">
        <ele>2645.7</ele>
        <time>2021-03-25T12:18:52Z</time>
      </trkpt>
      <trkpt lat="45.54934" lon="6.80515">
        <ele>2644.4</ele>
        <time>2021-03-25T12:18:53Z</time>
      </trkpt>
      <trkpt lat="45.54934" lon="6.80516">
        <ele>2644.6</ele>
        <time>2021-03-25T12:18:54Z</time>
      </trkpt>
      <trkpt lat="45.54935" lon="6.80516">
        <ele>2644.7</ele>
        <time>2021-03-25T12:18:55Z</time>
      </trkpt>
      <trkpt lat="45.54936" lon="6.80517">
        <ele>2644</ele>
        <time>2021-03-25T12:18:56Z</time>
      </trkpt>
      <trkpt lat="45.54937" lon="6.80518">
        <ele>2642.5</ele>
        <time>2021-03-25T12:18:57Z</time>
      </trkpt>
      <trkpt lat="45.54939" lon="6.80517">
        <ele>2643.6</ele>
        <time>2021-03-25T12:18:58Z</time>
      </trkpt>
      <trkpt lat="45.5494" lon="6.80516">
        <ele>2641.9</ele>
        <time>2021-03-25T12:18:59Z</time>
      </trkpt>
      <trkpt lat="45.5494" lon="6.80516">
        <ele>2643.9</ele>
        <time>2021-03-25T12:19:00Z</time>
      </trkpt>
      <trkpt lat="45.5494" lon="6.80517">
        <ele>2644</ele>
        <time>2021-03-25T12:19:01Z</time>
      </trkpt>
      <trkpt lat="45.54939" lon="6.80518">
        <ele>2643.3</ele>
        <time>2021-03-25T12:19:02Z</time>
      </trkpt>
      <trkpt lat="45.54939" lon="6.80519">
        <ele>2643.5</ele>
        <time>2021-03-25T12:19:03Z</time>
      </trkpt>
      <trkpt lat="45.54939" lon="6.8052">
        <ele>2643.7</ele>
        <time>2021-03-25T12:19:04Z</time>
      </trkpt>
      <trkpt lat="45.54939" lon="6.80521">
        <ele>2643.8</ele>
        <time>2021-03-25T12:19:05Z</time>
      </trkpt>
      <trkpt lat="45.54939" lon="6.80522">
        <ele>2643.2</ele>
        <time>2021-03-25T12:19:06Z</time>
      </trkpt>
      <trkpt lat="45.54938" lon="6.80527">
        <ele>2642.4</ele>
        <time>2021-03-25T12:19:07Z</time>
      </trkpt>
      <trkpt lat="45.54938" lon="6.80528">
        <ele>2642.6</ele>
        <time>2021-03-25T12:19:08Z</time>
      </trkpt>
      <trkpt lat="45.54938" lon="6.8053">
        <ele>2642.7</ele>
        <time>2021-03-25T12:19:09Z</time>
      </trkpt>
      <trkpt lat="45.54938" lon="6.8053">
        <ele>2642.9</ele>
        <time>2021-03-25T12:19:10Z</time>
      </trkpt>
      <trkpt lat="45.54938" lon="6.8053">
        <ele>2642.1</ele>
        <time>2021-03-25T12:19:11Z</time>
      </trkpt>
      <trkpt lat="45.5494" lon="6.80531">
        <ele>2640.6</ele>
        <time>2021-03-25T12:19:12Z</time>
      </trkpt>
      <trkpt lat="45.54943" lon="6.80531">
        <ele>2638.8</ele>
        <time>2021-03-25T12:19:13Z</time>
      </trkpt>
      <trkpt lat="45.54946" lon="6.8053">
        <ele>2639.9</ele>
        <time>2021-03-25T12:19:14Z</time>
      </trkpt>
      <trkpt lat="45.54947" lon="6.80529">
        <ele>2638.2</ele>
        <time>2021-03-25T12:19:15Z</time>
      </trkpt>
      <trkpt lat="45.54947" lon="6.8053">
        <ele>2637.4</ele>
        <time>2021-03-25T12:19:16Z</time>
      </trkpt>
      <trkpt lat="45.54946" lon="6.80531">
        <ele>2637.6</ele>
        <time>2021-03-25T12:19:17Z</time>
      </trkpt>
      <trkpt lat="45.54946" lon="6.80532">
        <ele>2637.8</ele>
        <time>2021-03-25T12:19:18Z</time>
      </trkpt>
      <trkpt lat="45.54946" lon="6.80533">
        <ele>2637.9</ele>
        <time>2021-03-25T12:19:19Z</time>
      </trkpt>
      <trkpt lat="45.54946" lon="6.80534">
        <ele>2640</ele>
        <time>2021-03-25T12:19:20Z</time>
      </trkpt>
      <trkpt lat="45.54946" lon="6.80534">
        <ele>2639.2</ele>
        <time>2021-03-25T12:19:21Z</time>
      </trkpt>
      <trkpt lat="45.54946" lon="6.80535">
        <ele>2639.3</ele>
        <time>2021-03-25T12:19:22Z</time>
      </trkpt>
      <trkpt lat="45.54945" lon="6.80537">
        <ele>2639.5</ele>
        <time>2021-03-25T12:19:23Z</time>
      </trkpt>
      <trkpt lat="45.54944" lon="6.80537">
        <ele>2639.7</ele>
        <time>2021-03-25T12:19:24Z</time>
      </trkpt>
      <trkpt lat="45.54943" lon="6.80538">
        <ele>2639.8</ele>
        <time>2021-03-25T12:19:25Z</time>
      </trkpt>
      <trkpt lat="45.54942" lon="6.80539">
        <ele>2640.8</ele>
        <time>2021-03-25T12:19:26Z</time>
      </trkpt>
      <trkpt lat="45.54943" lon="6.8054">
        <ele>2640.9</ele>
        <time>2021-03-25T12:19:27Z</time>
      </trkpt>
      <trkpt lat="45.54944" lon="6.80539">
        <ele>2639.3</ele>
        <time>2021-03-25T12:19:28Z</time>
      </trkpt>
      <trkpt lat="45.54945" lon="6.80538">
        <ele>2640.5</ele>
        <time>2021-03-25T12:19:29Z</time>
      </trkpt>
      <trkpt lat="45.54946" lon="6.80538">
        <ele>2640.6</ele>
        <time>2021-03-25T12:19:30Z</time>
      </trkpt>
      <trkpt lat="45.54946" lon="6.80537">
        <ele>2640.7</ele>
        <time>2021-03-25T12:19:31Z</time>
      </trkpt>
      <trkpt lat="45.54946" lon="6.80537">
        <ele>2639.1</ele>
        <time>2021-03-25T12:19:32Z</time>
      </trkpt>
      <trkpt lat="45.54946" lon="6.80537">
        <ele>2639.2</ele>
        <time>2021-03-25T12:19:33Z</time>
      </trkpt>
      <trkpt lat="45.54946" lon="6.80538">
        <ele>2641.2</ele>
        <time>2021-03-25T12:19:34Z</time>
      </trkpt>
      <trkpt lat="45.54946" lon="6.80541">
        <ele>2640.4</ele>
        <time>2021-03-25T12:19:35Z</time>
      </trkpt>
      <trkpt lat="45.54946" lon="6.80542">
        <ele>2640.6</ele>
        <time>2021-03-25T12:19:36Z</time>
      </trkpt>
      <trkpt lat="45.54946" lon="6.80543">
        <ele>2640.7</ele>
        <time>2021-03-25T12:19:37Z</time>
      </trkpt>
      <trkpt lat="45.54945" lon="6.80543">
        <ele>2640.8</ele>
        <time>2021-03-25T12:19:38Z</time>
      </trkpt>
      <trkpt lat="45.54945" lon="6.80544">
        <ele>2640</ele>
        <time>2021-03-25T12:19:39Z</time>
      </trkpt>
      <trkpt lat="45.54945" lon="6.80545">
        <ele>2640.2</ele>
        <time>2021-03-25T12:19:40Z</time>
      </trkpt>
      <trkpt lat="45.54945" lon="6.80545">
        <ele>2640.3</ele>
        <time>2021-03-25T12:19:41Z</time>
      </trkpt>
      <trkpt lat="45.54945" lon="6.80546">
        <ele>2640.5</ele>
        <time>2021-03-25T12:19:42Z</time>
      </trkpt>
      <trkpt lat="45.54945" lon="6.80547">
        <ele>2640.7</ele>
        <time>2021-03-25T12:19:43Z</time>
      </trkpt>
      <trkpt lat="45.54945" lon="6.80549">
        <ele>2639.8</ele>
        <time>2021-03-25T12:19:44Z</time>
      </trkpt>
      <trkpt lat="45.54945" lon="6.8055">
        <ele>2639.9</ele>
        <time>2021-03-25T12:19:45Z</time>
      </trkpt>
      <trkpt lat="45.54944" lon="6.8055">
        <ele>2640.1</ele>
        <time>2021-03-25T12:19:46Z</time>
      </trkpt>
      <trkpt lat="45.54945" lon="6.80552">
        <ele>2639.3</ele>
        <time>2021-03-25T12:19:47Z</time>
      </trkpt>
      <trkpt lat="45.54946" lon="6.80554">
        <ele>2639.4</ele>
        <time>2021-03-25T12:19:48Z</time>
      </trkpt>
      <trkpt lat="45.54947" lon="6.80555">
        <ele>2637.8</ele>
        <time>2021-03-25T12:19:49Z</time>
      </trkpt>
      <trkpt lat="45.54948" lon="6.80556">
        <ele>2637</ele>
        <time>2021-03-25T12:19:50Z</time>
      </trkpt>
      <trkpt lat="45.54948" lon="6.80557">
        <ele>2637.2</ele>
        <time>2021-03-25T12:19:51Z</time>
      </trkpt>
      <trkpt lat="45.54949" lon="6.80559">
        <ele>2635.7</ele>
        <time>2021-03-25T12:19:52Z</time>
      </trkpt>
      <trkpt lat="45.54952" lon="6.8056">
        <ele>2633.3</ele>
        <time>2021-03-25T12:19:53Z</time>
      </trkpt>
      <trkpt lat="45.54953" lon="6.80561">
        <ele>2633.4</ele>
        <time>2021-03-25T12:19:54Z</time>
      </trkpt>
      <trkpt lat="45.54953" lon="6.80561">
        <ele>2633.6</ele>
        <time>2021-03-25T12:19:55Z</time>
      </trkpt>
      <trkpt lat="45.54954" lon="6.80562">
        <ele>2633.7</ele>
        <time>2021-03-25T12:19:56Z</time>
      </trkpt>
      <trkpt lat="45.54954" lon="6.80563">
        <ele>2633.8</ele>
        <time>2021-03-25T12:19:57Z</time>
      </trkpt>
      <trkpt lat="45.54954" lon="6.80564">
        <ele>2634</ele>
        <time>2021-03-25T12:19:58Z</time>
      </trkpt>
      <trkpt lat="45.54955" lon="6.80564">
        <ele>2634.1</ele>
        <time>2021-03-25T12:19:59Z</time>
      </trkpt>
      <trkpt lat="45.54955" lon="6.80565">
        <ele>2631.8</ele>
        <time>2021-03-25T12:20:00Z</time>
      </trkpt>
      <trkpt lat="45.54956" lon="6.80566">
        <ele>2632</ele>
        <time>2021-03-25T12:20:01Z</time>
      </trkpt>
      <trkpt lat="45.54956" lon="6.80567">
        <ele>2632.1</ele>
        <time>2021-03-25T12:20:02Z</time>
      </trkpt>
      <trkpt lat="45.54956" lon="6.80568">
        <ele>2632.2</ele>
        <time>2021-03-25T12:20:03Z</time>
      </trkpt>
      <trkpt lat="45.54957" lon="6.80568">
        <ele>2632.4</ele>
        <time>2021-03-25T12:20:24Z</time>
      </trkpt>
      <trkpt lat="45.54957" lon="6.80569">
        <ele>2631.8</ele>
        <time>2021-03-25T12:20:25Z</time>
      </trkpt>
      <trkpt lat="45.54956" lon="6.80572">
        <ele>2631.9</ele>
        <time>2021-03-25T12:20:26Z</time>
      </trkpt>
      <trkpt lat="45.54956" lon="6.80574">
        <ele>2631.3</ele>
        <time>2021-03-25T12:20:27Z</time>
      </trkpt>
      <trkpt lat="45.54958" lon="6.80576">
        <ele>2631.4</ele>
        <time>2021-03-25T12:20:28Z</time>
      </trkpt>
      <trkpt lat="45.54959" lon="6.80576">
        <ele>2629.9</ele>
        <time>2021-03-25T12:20:29Z</time>
      </trkpt>
      <trkpt lat="45.5496" lon="6.80576">
        <ele>2630.1</ele>
        <time>2021-03-25T12:20:30Z</time>
      </trkpt>
      <trkpt lat="45.54962" lon="6.80575">
        <ele>2628.6</ele>
        <time>2021-03-25T12:20:31Z</time>
      </trkpt>
      <trkpt lat="45.54963" lon="6.80574">
        <ele>2628.6</ele>
        <time>2021-03-25T12:20:32Z</time>
      </trkpt>
      <trkpt lat="45.54964" lon="6.80574">
        <ele>2627.1</ele>
        <time>2021-03-25T12:20:33Z</time>
      </trkpt>
      <trkpt lat="45.54965" lon="6.80574">
        <ele>2627.2</ele>
        <time>2021-03-25T12:20:34Z</time>
      </trkpt>
      <trkpt lat="45.54965" lon="6.80575">
        <ele>2627.4</ele>
        <time>2021-03-25T12:20:35Z</time>
      </trkpt>
      <trkpt lat="45.54966" lon="6.80576">
        <ele>2627.3</ele>
        <time>2021-03-25T12:20:36Z</time>
      </trkpt>
      <trkpt lat="45.54967" lon="6.80578">
        <ele>2624.8</ele>
        <time>2021-03-25T12:20:37Z</time>
      </trkpt>
      <trkpt lat="45.54968" lon="6.80579">
        <ele>2624.8</ele>
        <time>2021-03-25T12:20:38Z</time>
      </trkpt>
      <trkpt lat="45.54969" lon="6.8058">
        <ele>2624.8</ele>
        <time>2021-03-25T12:20:39Z</time>
      </trkpt>
      <trkpt lat="45.5497" lon="6.8058">
        <ele>2622.9</ele>
        <time>2021-03-25T12:20:40Z</time>
      </trkpt>
      <trkpt lat="45.54971" lon="6.8058">
        <ele>2622.8</ele>
        <time>2021-03-25T12:20:41Z</time>
      </trkpt>
      <trkpt lat="45.54971" lon="6.8058">
        <ele>2622.8</ele>
        <time>2021-03-25T12:20:42Z</time>
      </trkpt>
      <trkpt lat="45.54972" lon="6.8058">
        <ele>2622.8</ele>
        <time>2021-03-25T12:20:43Z</time>
      </trkpt>
      <trkpt lat="45.54973" lon="6.8058">
        <ele>2622.8</ele>
        <time>2021-03-25T12:20:44Z</time>
      </trkpt>
      <trkpt lat="45.54973" lon="6.80581">
        <ele>2620.8</ele>
        <time>2021-03-25T12:20:45Z</time>
      </trkpt>
      <trkpt lat="45.54972" lon="6.80582">
        <ele>2622.1</ele>
        <time>2021-03-25T12:20:46Z</time>
      </trkpt>
      <trkpt lat="45.54972" lon="6.80582">
        <ele>2622</ele>
        <time>2021-03-25T12:20:47Z</time>
      </trkpt>
      <trkpt lat="45.54972" lon="6.80582">
        <ele>2622</ele>
        <time>2021-03-25T12:20:48Z</time>
      </trkpt>
      <trkpt lat="45.54972" lon="6.80582">
        <ele>2622</ele>
        <time>2021-03-25T12:20:49Z</time>
      </trkpt>
      <trkpt lat="45.5497" lon="6.80583">
        <ele>2623.9</ele>
        <time>2021-03-25T12:20:50Z</time>
      </trkpt>
      <trkpt lat="45.54971" lon="6.80584">
        <ele>2622</ele>
        <time>2021-03-25T12:20:51Z</time>
      </trkpt>
      <trkpt lat="45.54972" lon="6.80585">
        <ele>2621.9</ele>
        <time>2021-03-25T12:20:52Z</time>
      </trkpt>
      <trkpt lat="45.54972" lon="6.80585">
        <ele>2621.9</ele>
        <time>2021-03-25T12:20:53Z</time>
      </trkpt>
      <trkpt lat="45.54973" lon="6.80585">
        <ele>2621.9</ele>
        <time>2021-03-25T12:20:54Z</time>
      </trkpt>
      <trkpt lat="45.54973" lon="6.80586">
        <ele>2619.3</ele>
        <time>2021-03-25T12:20:55Z</time>
      </trkpt>
      <trkpt lat="45.54974" lon="6.80587">
        <ele>2619.3</ele>
        <time>2021-03-25T12:20:56Z</time>
      </trkpt>
      <trkpt lat="45.54975" lon="6.80588">
        <ele>2619.2</ele>
        <time>2021-03-25T12:20:57Z</time>
      </trkpt>
      <trkpt lat="45.54978" lon="6.80588">
        <ele>2617.3</ele>
        <time>2021-03-25T12:20:58Z</time>
      </trkpt>
      <trkpt lat="45.54979" lon="6.80588">
        <ele>2617.2</ele>
        <time>2021-03-25T12:20:59Z</time>
      </trkpt>
      <trkpt lat="45.5498" lon="6.80589">
        <ele>2615.3</ele>
        <time>2021-03-25T12:21:00Z</time>
      </trkpt>
      <trkpt lat="45.54981" lon="6.80589">
        <ele>2615.3</ele>
        <time>2021-03-25T12:21:01Z</time>
      </trkpt>
      <trkpt lat="45.54982" lon="6.8059">
        <ele>2614.7</ele>
        <time>2021-03-25T12:21:02Z</time>
      </trkpt>
      <trkpt lat="45.54981" lon="6.80591">
        <ele>2614.7</ele>
        <time>2021-03-25T12:21:03Z</time>
      </trkpt>
      <trkpt lat="45.54981" lon="6.80591">
        <ele>2614.6</ele>
        <time>2021-03-25T12:21:04Z</time>
      </trkpt>
      <trkpt lat="45.5498" lon="6.80595">
        <ele>2614.1</ele>
        <time>2021-03-25T12:21:05Z</time>
      </trkpt>
      <trkpt lat="45.54982" lon="6.806">
        <ele>2613.6</ele>
        <time>2021-03-25T12:21:06Z</time>
      </trkpt>
      <trkpt lat="45.54983" lon="6.80605">
        <ele>2611.5</ele>
        <time>2021-03-25T12:21:07Z</time>
      </trkpt>
      <trkpt lat="45.54984" lon="6.80607">
        <ele>2611.4</ele>
        <time>2021-03-25T12:21:08Z</time>
      </trkpt>
      <trkpt lat="45.54985" lon="6.80608">
        <ele>2609.4</ele>
        <time>2021-03-25T12:21:09Z</time>
      </trkpt>
      <trkpt lat="45.54988" lon="6.80606">
        <ele>2609.7</ele>
        <time>2021-03-25T12:21:10Z</time>
      </trkpt>
      <trkpt lat="45.5499" lon="6.80604">
        <ele>2608</ele>
        <time>2021-03-25T12:21:11Z</time>
      </trkpt>
      <trkpt lat="45.54993" lon="6.806">
        <ele>2606.6</ele>
        <time>2021-03-25T12:21:12Z</time>
      </trkpt>
      <trkpt lat="45.54993" lon="6.80599">
        <ele>2606.6</ele>
        <time>2021-03-25T12:21:13Z</time>
      </trkpt>
      <trkpt lat="45.54994" lon="6.80599">
        <ele>2605</ele>
        <time>2021-03-25T12:21:14Z</time>
      </trkpt>
      <trkpt lat="45.54995" lon="6.806">
        <ele>2604.6</ele>
        <time>2021-03-25T12:21:15Z</time>
      </trkpt>
      <trkpt lat="45.54995" lon="6.80601">
        <ele>2604.6</ele>
        <time>2021-03-25T12:21:16Z</time>
      </trkpt>
      <trkpt lat="45.54996" lon="6.80602">
        <ele>2604.6</ele>
        <time>2021-03-25T12:21:17Z</time>
      </trkpt>
      <trkpt lat="45.54996" lon="6.80602">
        <ele>2604.6</ele>
        <time>2021-03-25T12:21:18Z</time>
      </trkpt>
      <trkpt lat="45.54997" lon="6.80605">
        <ele>2602.1</ele>
        <time>2021-03-25T12:21:19Z</time>
      </trkpt>
      <trkpt lat="45.54998" lon="6.80606">
        <ele>2602.1</ele>
        <time>2021-03-25T12:21:20Z</time>
      </trkpt>
      <trkpt lat="45.54999" lon="6.80607">
        <ele>2602.1</ele>
        <time>2021-03-25T12:21:21Z</time>
      </trkpt>
      <trkpt lat="45.55002" lon="6.80607">
        <ele>2599.8</ele>
        <time>2021-03-25T12:21:22Z</time>
      </trkpt>
      <trkpt lat="45.55003" lon="6.80607">
        <ele>2599.8</ele>
        <time>2021-03-25T12:21:23Z</time>
      </trkpt>
      <trkpt lat="45.55004" lon="6.80605">
        <ele>2597.6</ele>
        <time>2021-03-25T12:21:24Z</time>
      </trkpt>
      <trkpt lat="45.55005" lon="6.80604">
        <ele>2597.6</ele>
        <time>2021-03-25T12:21:25Z</time>
      </trkpt>
      <trkpt lat="45.55006" lon="6.80604">
        <ele>2595.5</ele>
        <time>2021-03-25T12:21:26Z</time>
      </trkpt>
      <trkpt lat="45.55007" lon="6.80605">
        <ele>2595.5</ele>
        <time>2021-03-25T12:21:27Z</time>
      </trkpt>
      <trkpt lat="45.55009" lon="6.80606">
        <ele>2595.5</ele>
        <time>2021-03-25T12:21:28Z</time>
      </trkpt>
      <trkpt lat="45.5501" lon="6.80607">
        <ele>2593.6</ele>
        <time>2021-03-25T12:21:29Z</time>
      </trkpt>
      <trkpt lat="45.55011" lon="6.80606">
        <ele>2593.6</ele>
        <time>2021-03-25T12:21:30Z</time>
      </trkpt>
      <trkpt lat="45.55012" lon="6.80605">
        <ele>2593.5</ele>
        <time>2021-03-25T12:21:31Z</time>
      </trkpt>
      <trkpt lat="45.55013" lon="6.80606">
        <ele>2591.7</ele>
        <time>2021-03-25T12:21:32Z</time>
      </trkpt>
      <trkpt lat="45.55014" lon="6.80608">
        <ele>2591.4</ele>
        <time>2021-03-25T12:21:33Z</time>
      </trkpt>
      <trkpt lat="45.55014" lon="6.8061">
        <ele>2591.3</ele>
        <time>2021-03-25T12:21:34Z</time>
      </trkpt>
      <trkpt lat="45.55014" lon="6.80614">
        <ele>2591</ele>
        <time>2021-03-25T12:21:35Z</time>
      </trkpt>
      <trkpt lat="45.55015" lon="6.80619">
        <ele>2590.7</ele>
        <time>2021-03-25T12:21:36Z</time>
      </trkpt>
      <trkpt lat="45.55016" lon="6.8062">
        <ele>2588.5</ele>
        <time>2021-03-25T12:21:37Z</time>
      </trkpt>
      <trkpt lat="45.55018" lon="6.8062">
        <ele>2588.4</ele>
        <time>2021-03-25T12:21:38Z</time>
      </trkpt>
      <trkpt lat="45.55018" lon="6.80619">
        <ele>2588.8</ele>
        <time>2021-03-25T12:21:39Z</time>
      </trkpt>
      <trkpt lat="45.55018" lon="6.80618">
        <ele>2588.7</ele>
        <time>2021-03-25T12:21:40Z</time>
      </trkpt>
      <trkpt lat="45.55019" lon="6.80617">
        <ele>2586.7</ele>
        <time>2021-03-25T12:21:41Z</time>
      </trkpt>
      <trkpt lat="45.5502" lon="6.80617">
        <ele>2586.7</ele>
        <time>2021-03-25T12:21:42Z</time>
      </trkpt>
      <trkpt lat="45.55022" lon="6.80619">
        <ele>2584.4</ele>
        <time>2021-03-25T12:21:43Z</time>
      </trkpt>
      <trkpt lat="45.55023" lon="6.80621">
        <ele>2584.1</ele>
        <time>2021-03-25T12:21:44Z</time>
      </trkpt>
      <trkpt lat="45.55024" lon="6.80625">
        <ele>2581.4</ele>
        <time>2021-03-25T12:21:45Z</time>
      </trkpt>
      <trkpt lat="45.55025" lon="6.80626">
        <ele>2581.4</ele>
        <time>2021-03-25T12:21:46Z</time>
      </trkpt>
      <trkpt lat="45.55028" lon="6.80628">
        <ele>2579</ele>
        <time>2021-03-25T12:21:47Z</time>
      </trkpt>
      <trkpt lat="45.55029" lon="6.80627">
        <ele>2579</ele>
        <time>2021-03-25T12:21:48Z</time>
      </trkpt>
      <trkpt lat="45.55031" lon="6.80624">
        <ele>2577.2</ele>
        <time>2021-03-25T12:21:49Z</time>
      </trkpt>
      <trkpt lat="45.55032" lon="6.8062">
        <ele>2577.6</ele>
        <time>2021-03-25T12:21:50Z</time>
      </trkpt>
      <trkpt lat="45.55034" lon="6.80615">
        <ele>2575.8</ele>
        <time>2021-03-25T12:21:51Z</time>
      </trkpt>
      <trkpt lat="45.55037" lon="6.80612">
        <ele>2574.2</ele>
        <time>2021-03-25T12:21:52Z</time>
      </trkpt>
      <trkpt lat="45.5504" lon="6.80611">
        <ele>2572.2</ele>
        <time>2021-03-25T12:21:53Z</time>
      </trkpt>
      <trkpt lat="45.55044" lon="6.8061">
        <ele>2570.3</ele>
        <time>2021-03-25T12:21:54Z</time>
      </trkpt>
      <trkpt lat="45.55049" lon="6.8061">
        <ele>2566.4</ele>
        <time>2021-03-25T12:21:55Z</time>
      </trkpt>
      <trkpt lat="45.55053" lon="6.80609">
        <ele>2564.4</ele>
        <time>2021-03-25T12:21:56Z</time>
      </trkpt>
      <trkpt lat="45.55058" lon="6.8061">
        <ele>2560.4</ele>
        <time>2021-03-25T12:21:57Z</time>
      </trkpt>
      <trkpt lat="45.55062" lon="6.80611">
        <ele>2558.3</ele>
        <time>2021-03-25T12:21:58Z</time>
      </trkpt>
      <trkpt lat="45.55065" lon="6.80611">
        <ele>2556.3</ele>
        <time>2021-03-25T12:21:59Z</time>
      </trkpt>
      <trkpt lat="45.55068" lon="6.80607">
        <ele>2555</ele>
        <time>2021-03-25T12:22:00Z</time>
      </trkpt>
      <trkpt lat="45.55071" lon="6.806">
        <ele>2553.7</ele>
        <time>2021-03-25T12:22:01Z</time>
      </trkpt>
      <trkpt lat="45.55074" lon="6.80592">
        <ele>2553</ele>
        <time>2021-03-25T12:22:02Z</time>
      </trkpt>
      <trkpt lat="45.55077" lon="6.80583">
        <ele>2552.3</ele>
        <time>2021-03-25T12:22:03Z</time>
      </trkpt>
      <trkpt lat="45.5508" lon="6.80576">
        <ele>2551.2</ele>
        <time>2021-03-25T12:22:04Z</time>
      </trkpt>
      <trkpt lat="45.55083" lon="6.80578">
        <ele>2548.8</ele>
        <time>2021-03-25T12:22:05Z</time>
      </trkpt>
      <trkpt lat="45.55086" lon="6.80577">
        <ele>2547.2</ele>
        <time>2021-03-25T12:22:06Z</time>
      </trkpt>
      <trkpt lat="45.5509" lon="6.80572">
        <ele>2543.7</ele>
        <time>2021-03-25T12:22:07Z</time>
      </trkpt>
      <trkpt lat="45.55096" lon="6.80568">
        <ele>2542.4</ele>
        <time>2021-03-25T12:22:08Z</time>
      </trkpt>
      <trkpt lat="45.55099" lon="6.80569">
        <ele>2540.5</ele>
        <time>2021-03-25T12:22:09Z</time>
      </trkpt>
      <trkpt lat="45.55103" lon="6.80569">
        <ele>2537.7</ele>
        <time>2021-03-25T12:22:10Z</time>
      </trkpt>
      <trkpt lat="45.551" lon="6.80574">
        <ele>2538.5</ele>
        <time>2021-03-25T12:22:11Z</time>
      </trkpt>
      <trkpt lat="45.55099" lon="6.80575">
        <ele>2538.5</ele>
        <time>2021-03-25T12:22:12Z</time>
      </trkpt>
      <trkpt lat="45.55099" lon="6.80575">
        <ele>2540</ele>
        <time>2021-03-25T12:22:13Z</time>
      </trkpt>
      <trkpt lat="45.55099" lon="6.80575">
        <ele>2540</ele>
        <time>2021-03-25T12:22:14Z</time>
      </trkpt>
      <trkpt lat="45.55098" lon="6.80576">
        <ele>2540</ele>
        <time>2021-03-25T12:22:15Z</time>
      </trkpt>
      <trkpt lat="45.55098" lon="6.80576">
        <ele>2540</ele>
        <time>2021-03-25T12:22:16Z</time>
      </trkpt>
      <trkpt lat="45.55097" lon="6.80577">
        <ele>2540</ele>
        <time>2021-03-25T12:22:17Z</time>
      </trkpt>
      <trkpt lat="45.55097" lon="6.80577">
        <ele>2539.9</ele>
        <time>2021-03-25T12:22:18Z</time>
      </trkpt>
      <trkpt lat="45.55096" lon="6.80577">
        <ele>2539.5</ele>
        <time>2021-03-25T12:22:19Z</time>
      </trkpt>
      <trkpt lat="45.55096" lon="6.80578">
        <ele>2541</ele>
        <time>2021-03-25T12:22:20Z</time>
      </trkpt>
      <trkpt lat="45.55099" lon="6.80578">
        <ele>2539.4</ele>
        <time>2021-03-25T12:22:21Z</time>
      </trkpt>
      <trkpt lat="45.55102" lon="6.80579">
        <ele>2536.2</ele>
        <time>2021-03-25T12:25:22Z</time>
      </trkpt>
      <trkpt lat="45.55106" lon="6.80579">
        <ele>2534.5</ele>
        <time>2021-03-25T12:25:23Z</time>
      </trkpt>
      <trkpt lat="45.55112" lon="6.80572">
        <ele>2532</ele>
        <time>2021-03-25T12:25:24Z</time>
      </trkpt>
      <trkpt lat="45.55121" lon="6.80563">
        <ele>2528.7</ele>
        <time>2021-03-25T12:25:25Z</time>
      </trkpt>
      <trkpt lat="45.55129" lon="6.80557">
        <ele>2526.8</ele>
        <time>2021-03-25T12:25:26Z</time>
      </trkpt>
      <trkpt lat="45.55136" lon="6.8055">
        <ele>2524.4</ele>
        <time>2021-03-25T12:25:27Z</time>
      </trkpt>
      <trkpt lat="45.55144" lon="6.80545">
        <ele>2522.7</ele>
        <time>2021-03-25T12:25:28Z</time>
      </trkpt>
      <trkpt lat="45.55152" lon="6.8054">
        <ele>2520</ele>
        <time>2021-03-25T12:25:29Z</time>
      </trkpt>
      <trkpt lat="45.55159" lon="6.80539">
        <ele>2518.1</ele>
        <time>2021-03-25T12:25:30Z</time>
      </trkpt>
      <trkpt lat="45.55165" lon="6.80537">
        <ele>2516.9</ele>
        <time>2021-03-25T12:25:31Z</time>
      </trkpt>
      <trkpt lat="45.55172" lon="6.80537">
        <ele>2513.8</ele>
        <time>2021-03-25T12:25:32Z</time>
      </trkpt>
      <trkpt lat="45.55176" lon="6.80541">
        <ele>2512.2</ele>
        <time>2021-03-25T12:25:33Z</time>
      </trkpt>
      <trkpt lat="45.55182" lon="6.80543">
        <ele>2510.7</ele>
        <time>2021-03-25T12:25:34Z</time>
      </trkpt>
      <trkpt lat="45.55186" lon="6.80543">
        <ele>2509.3</ele>
        <time>2021-03-25T12:25:35Z</time>
      </trkpt>
      <trkpt lat="45.55191" lon="6.80544">
        <ele>2507.7</ele>
        <time>2021-03-25T12:25:36Z</time>
      </trkpt>
      <trkpt lat="45.55197" lon="6.80545">
        <ele>2505.8</ele>
        <time>2021-03-25T12:25:37Z</time>
      </trkpt>
      <trkpt lat="45.55202" lon="6.80545">
        <ele>2504.1</ele>
        <time>2021-03-25T12:25:38Z</time>
      </trkpt>
      <trkpt lat="45.55207" lon="6.80543">
        <ele>2504</ele>
        <time>2021-03-25T12:25:39Z</time>
      </trkpt>
      <trkpt lat="45.55212" lon="6.80543">
        <ele>2502.5</ele>
        <time>2021-03-25T12:25:40Z</time>
      </trkpt>
      <trkpt lat="45.55215" lon="6.80547">
        <ele>2501.1</ele>
        <time>2021-03-25T12:25:41Z</time>
      </trkpt>
      <trkpt lat="45.55215" lon="6.80553">
        <ele>2499.8</ele>
        <time>2021-03-25T12:25:42Z</time>
      </trkpt>
      <trkpt lat="45.55211" lon="6.80564">
        <ele>2499.4</ele>
        <time>2021-03-25T12:25:43Z</time>
      </trkpt>
      <trkpt lat="45.55212" lon="6.80571">
        <ele>2498.1</ele>
        <time>2021-03-25T12:25:44Z</time>
      </trkpt>
      <trkpt lat="45.55213" lon="6.80578">
        <ele>2496.7</ele>
        <time>2021-03-25T12:25:45Z</time>
      </trkpt>
      <trkpt lat="45.55214" lon="6.80586">
        <ele>2494.6</ele>
        <time>2021-03-25T12:25:46Z</time>
      </trkpt>
      <trkpt lat="45.55212" lon="6.80597">
        <ele>2494</ele>
        <time>2021-03-25T12:25:47Z</time>
      </trkpt>
      <trkpt lat="45.55218" lon="6.80606">
        <ele>2491.5</ele>
        <time>2021-03-25T12:25:48Z</time>
      </trkpt>
      <trkpt lat="45.55228" lon="6.80601">
        <ele>2489.8</ele>
        <time>2021-03-25T12:25:49Z</time>
      </trkpt>
      <trkpt lat="45.55234" lon="6.806">
        <ele>2488.3</ele>
        <time>2021-03-25T12:25:50Z</time>
      </trkpt>
      <trkpt lat="45.5524" lon="6.80596">
        <ele>2487.3</ele>
        <time>2021-03-25T12:25:51Z</time>
      </trkpt>
      <trkpt lat="45.55245" lon="6.80591">
        <ele>2486.3</ele>
        <time>2021-03-25T12:25:52Z</time>
      </trkpt>
      <trkpt lat="45.5525" lon="6.80588">
        <ele>2485.1</ele>
        <time>2021-03-25T12:25:53Z</time>
      </trkpt>
      <trkpt lat="45.55256" lon="6.80585">
        <ele>2483.2</ele>
        <time>2021-03-25T12:25:54Z</time>
      </trkpt>
      <trkpt lat="45.55261" lon="6.80582">
        <ele>2482.5</ele>
        <time>2021-03-25T12:25:55Z</time>
      </trkpt>
      <trkpt lat="45.55266" lon="6.80579">
        <ele>2482.1</ele>
        <time>2021-03-25T12:25:56Z</time>
      </trkpt>
      <trkpt lat="45.5527" lon="6.80575">
        <ele>2481.7</ele>
        <time>2021-03-25T12:25:57Z</time>
      </trkpt>
      <trkpt lat="45.55275" lon="6.80573">
        <ele>2481.4</ele>
        <time>2021-03-25T12:25:58Z</time>
      </trkpt>
      <trkpt lat="45.55279" lon="6.80572">
        <ele>2481</ele>
        <time>2021-03-25T12:25:59Z</time>
      </trkpt>
      <trkpt lat="45.55284" lon="6.8057">
        <ele>2480.6</ele>
        <time>2021-03-25T12:26:00Z</time>
      </trkpt>
      <trkpt lat="45.55288" lon="6.80569">
        <ele>2480.3</ele>
        <time>2021-03-25T12:26:01Z</time>
      </trkpt>
      <trkpt lat="45.55292" lon="6.80567">
        <ele>2480</ele>
        <time>2021-03-25T12:26:02Z</time>
      </trkpt>
      <trkpt lat="45.55296" lon="6.80565">
        <ele>2479.6</ele>
        <time>2021-03-25T12:26:03Z</time>
      </trkpt>
      <trkpt lat="45.553" lon="6.80564">
        <ele>2479.3</ele>
        <time>2021-03-25T12:26:04Z</time>
      </trkpt>
      <trkpt lat="45.55304" lon="6.80562">
        <ele>2478.9</ele>
        <time>2021-03-25T12:26:05Z</time>
      </trkpt>
      <trkpt lat="45.55308" lon="6.80561">
        <ele>2478.5</ele>
        <time>2021-03-25T12:26:06Z</time>
      </trkpt>
      <trkpt lat="45.55313" lon="6.80561">
        <ele>2478.1</ele>
        <time>2021-03-25T12:26:07Z</time>
      </trkpt>
      <trkpt lat="45.55317" lon="6.8056">
        <ele>2477.7</ele>
        <time>2021-03-25T12:26:08Z</time>
      </trkpt>
      <trkpt lat="45.55317" lon="6.80561">
        <ele>2477.6</ele>
        <time>2021-03-25T12:26:09Z</time>
      </trkpt>
      <trkpt lat="45.55319" lon="6.80561">
        <ele>2477.4</ele>
        <time>2021-03-25T12:26:10Z</time>
      </trkpt>
      <trkpt lat="45.55319" lon="6.8056">
        <ele>2477.4</ele>
        <time>2021-03-25T12:26:11Z</time>
      </trkpt>
      <trkpt lat="45.5532" lon="6.8056">
        <ele>2477.2</ele>
        <time>2021-03-25T12:26:12Z</time>
      </trkpt>
      <trkpt lat="45.55321" lon="6.8056">
        <ele>2477.1</ele>
        <time>2021-03-25T12:26:13Z</time>
      </trkpt>
      <trkpt lat="45.55323" lon="6.8056">
        <ele>2477</ele>
        <time>2021-03-25T12:26:14Z</time>
      </trkpt>
      <trkpt lat="45.55324" lon="6.8056">
        <ele>2476.9</ele>
        <time>2021-03-25T12:26:15Z</time>
      </trkpt>
      <trkpt lat="45.55325" lon="6.8056">
        <ele>2476.8</ele>
        <time>2021-03-25T12:26:16Z</time>
      </trkpt>
      <trkpt lat="45.55326" lon="6.8056">
        <ele>2476.6</ele>
        <time>2021-03-25T12:26:17Z</time>
      </trkpt>
      <trkpt lat="45.55327" lon="6.80559">
        <ele>2476.5</ele>
        <time>2021-03-25T12:26:18Z</time>
      </trkpt>
      <trkpt lat="45.55328" lon="6.80559">
        <ele>2476.4</ele>
        <time>2021-03-25T12:26:19Z</time>
      </trkpt>
      <trkpt lat="45.5533" lon="6.80559">
        <ele>2476.3</ele>
        <time>2021-03-25T12:26:20Z</time>
      </trkpt>
      <trkpt lat="45.55331" lon="6.80559">
        <ele>2476.1</ele>
        <time>2021-03-25T12:26:34Z</time>
      </trkpt>
      <trkpt lat="45.55332" lon="6.80559">
        <ele>2476</ele>
        <time>2021-03-25T12:26:35Z</time>
      </trkpt>
      <trkpt lat="45.55337" lon="6.80557">
        <ele>2475.4</ele>
        <time>2021-03-25T12:26:36Z</time>
      </trkpt>
      <trkpt lat="45.55343" lon="6.80554">
        <ele>2474.7</ele>
        <time>2021-03-25T12:26:37Z</time>
      </trkpt>
      <trkpt lat="45.55349" lon="6.80548">
        <ele>2473.8</ele>
        <time>2021-03-25T12:26:38Z</time>
      </trkpt>
      <trkpt lat="45.55355" lon="6.80545">
        <ele>2473</ele>
        <time>2021-03-25T12:26:39Z</time>
      </trkpt>
      <trkpt lat="45.55361" lon="6.80542">
        <ele>2472.1</ele>
        <time>2021-03-25T12:26:40Z</time>
      </trkpt>
      <trkpt lat="45.55365" lon="6.80541">
        <ele>2471.4</ele>
        <time>2021-03-25T12:26:41Z</time>
      </trkpt>
      <trkpt lat="45.5537" lon="6.80538">
        <ele>2470.6</ele>
        <time>2021-03-25T12:26:42Z</time>
      </trkpt>
      <trkpt lat="45.55374" lon="6.80537">
        <ele>2469.9</ele>
        <time>2021-03-25T12:26:43Z</time>
      </trkpt>
      <trkpt lat="45.55378" lon="6.80537">
        <ele>2469.3</ele>
        <time>2021-03-25T12:26:44Z</time>
      </trkpt>
      <trkpt lat="45.5538" lon="6.80537">
        <ele>2468.7</ele>
        <time>2021-03-25T12:26:45Z</time>
      </trkpt>
      <trkpt lat="45.55386" lon="6.80537">
        <ele>2467.7</ele>
        <time>2021-03-25T12:26:46Z</time>
      </trkpt>
      <trkpt lat="45.55391" lon="6.80534">
        <ele>2466.7</ele>
        <time>2021-03-25T12:26:47Z</time>
      </trkpt>
      <trkpt lat="45.55396" lon="6.80532">
        <ele>2465.5</ele>
        <time>2021-03-25T12:26:48Z</time>
      </trkpt>
      <trkpt lat="45.55402" lon="6.80529">
        <ele>2464.3</ele>
        <time>2021-03-25T12:26:49Z</time>
      </trkpt>
      <trkpt lat="45.55406" lon="6.80536">
        <ele>2463.1</ele>
        <time>2021-03-25T12:26:50Z</time>
      </trkpt>
      <trkpt lat="45.55409" lon="6.80534">
        <ele>2462.3</ele>
        <time>2021-03-25T12:26:51Z</time>
      </trkpt>
      <trkpt lat="45.55413" lon="6.8053">
        <ele>2461.5</ele>
        <time>2021-03-25T12:26:52Z</time>
      </trkpt>
      <trkpt lat="45.55417" lon="6.80534">
        <ele>2460.4</ele>
        <time>2021-03-25T12:26:53Z</time>
      </trkpt>
      <trkpt lat="45.55422" lon="6.80537">
        <ele>2459.3</ele>
        <time>2021-03-25T12:26:54Z</time>
      </trkpt>
      <trkpt lat="45.55427" lon="6.80539">
        <ele>2458.2</ele>
        <time>2021-03-25T12:26:55Z</time>
      </trkpt>
      <trkpt lat="45.55434" lon="6.80532">
        <ele>2456.4</ele>
        <time>2021-03-25T12:26:56Z</time>
      </trkpt>
      <trkpt lat="45.5544" lon="6.80532">
        <ele>2455.2</ele>
        <time>2021-03-25T12:26:57Z</time>
      </trkpt>
      <trkpt lat="45.55447" lon="6.80529">
        <ele>2453.9</ele>
        <time>2021-03-25T12:26:58Z</time>
      </trkpt>
      <trkpt lat="45.55451" lon="6.80525">
        <ele>2452.8</ele>
        <time>2021-03-25T12:26:59Z</time>
      </trkpt>
      <trkpt lat="45.55455" lon="6.80523">
        <ele>2452.1</ele>
        <time>2021-03-25T12:27:00Z</time>
      </trkpt>
      <trkpt lat="45.5546" lon="6.80519">
        <ele>2451</ele>
        <time>2021-03-25T12:27:01Z</time>
      </trkpt>
      <trkpt lat="45.55466" lon="6.80516">
        <ele>2449.8</ele>
        <time>2021-03-25T12:27:02Z</time>
      </trkpt>
      <trkpt lat="45.55472" lon="6.80514">
        <ele>2448.7</ele>
        <time>2021-03-25T12:27:03Z</time>
      </trkpt>
      <trkpt lat="45.55476" lon="6.80512">
        <ele>2447.9</ele>
        <time>2021-03-25T12:27:04Z</time>
      </trkpt>
      <trkpt lat="45.55481" lon="6.80515">
        <ele>2446.9</ele>
        <time>2021-03-25T12:27:05Z</time>
      </trkpt>
      <trkpt lat="45.55486" lon="6.80517">
        <ele>2446</ele>
        <time>2021-03-25T12:27:06Z</time>
      </trkpt>
      <trkpt lat="45.55491" lon="6.80518">
        <ele>2445.1</ele>
        <time>2021-03-25T12:27:07Z</time>
      </trkpt>
      <trkpt lat="45.55496" lon="6.8052">
        <ele>2444.3</ele>
        <time>2021-03-25T12:27:08Z</time>
      </trkpt>
      <trkpt lat="45.55504" lon="6.80518">
        <ele>2443.1</ele>
        <time>2021-03-25T12:27:09Z</time>
      </trkpt>
      <trkpt lat="45.55511" lon="6.80518">
        <ele>2442</ele>
        <time>2021-03-25T12:27:10Z</time>
      </trkpt>
      <trkpt lat="45.55518" lon="6.80517">
        <ele>2441.1</ele>
        <time>2021-03-25T12:27:11Z</time>
      </trkpt>
      <trkpt lat="45.55525" lon="6.80516">
        <ele>2440.3</ele>
        <time>2021-03-25T12:27:12Z</time>
      </trkpt>
      <trkpt lat="45.55533" lon="6.80507">
        <ele>2439.1</ele>
        <time>2021-03-25T12:27:13Z</time>
      </trkpt>
      <trkpt lat="45.55539" lon="6.80507">
        <ele>2438.4</ele>
        <time>2021-03-25T12:27:14Z</time>
      </trkpt>
      <trkpt lat="45.55545" lon="6.80506">
        <ele>2437.8</ele>
        <time>2021-03-25T12:27:15Z</time>
      </trkpt>
      <trkpt lat="45.55551" lon="6.80506">
        <ele>2437.1</ele>
        <time>2021-03-25T12:27:16Z</time>
      </trkpt>
      <trkpt lat="45.55558" lon="6.80503">
        <ele>2436.5</ele>
        <time>2021-03-25T12:27:17Z</time>
      </trkpt>
      <trkpt lat="45.55564" lon="6.80503">
        <ele>2435.8</ele>
        <time>2021-03-25T12:27:18Z</time>
      </trkpt>
      <trkpt lat="45.5557" lon="6.80499">
        <ele>2435.2</ele>
        <time>2021-03-25T12:27:19Z</time>
      </trkpt>
      <trkpt lat="45.55576" lon="6.80496">
        <ele>2434.6</ele>
        <time>2021-03-25T12:27:20Z</time>
      </trkpt>
      <trkpt lat="45.55581" lon="6.80494">
        <ele>2434</ele>
        <time>2021-03-25T12:27:21Z</time>
      </trkpt>
      <trkpt lat="45.55586" lon="6.80491">
        <ele>2433.5</ele>
        <time>2021-03-25T12:27:22Z</time>
      </trkpt>
      <trkpt lat="45.55591" lon="6.80489">
        <ele>2432.9</ele>
        <time>2021-03-25T12:27:23Z</time>
      </trkpt>
      <trkpt lat="45.55597" lon="6.80485">
        <ele>2432.1</ele>
        <time>2021-03-25T12:27:24Z</time>
      </trkpt>
      <trkpt lat="45.55602" lon="6.80482">
        <ele>2431.4</ele>
        <time>2021-03-25T12:27:25Z</time>
      </trkpt>
      <trkpt lat="45.55607" lon="6.80477">
        <ele>2430.6</ele>
        <time>2021-03-25T12:27:26Z</time>
      </trkpt>
      <trkpt lat="45.55613" lon="6.80474">
        <ele>2429.9</ele>
        <time>2021-03-25T12:27:27Z</time>
      </trkpt>
      <trkpt lat="45.55619" lon="6.80473">
        <ele>2429</ele>
        <time>2021-03-25T12:27:28Z</time>
      </trkpt>
      <trkpt lat="45.55626" lon="6.8047">
        <ele>2428.1</ele>
        <time>2021-03-25T12:27:29Z</time>
      </trkpt>
      <trkpt lat="45.55633" lon="6.80468">
        <ele>2427.1</ele>
        <time>2021-03-25T12:27:30Z</time>
      </trkpt>
      <trkpt lat="45.5564" lon="6.80466">
        <ele>2426.2</ele>
        <time>2021-03-25T12:27:31Z</time>
      </trkpt>
      <trkpt lat="45.55648" lon="6.80465">
        <ele>2425.1</ele>
        <time>2021-03-25T12:27:32Z</time>
      </trkpt>
      <trkpt lat="45.55656" lon="6.80462">
        <ele>2424</ele>
        <time>2021-03-25T12:27:33Z</time>
      </trkpt>
      <trkpt lat="45.55663" lon="6.80463">
        <ele>2423</ele>
        <time>2021-03-25T12:27:34Z</time>
      </trkpt>
      <trkpt lat="45.55671" lon="6.80463">
        <ele>2422</ele>
        <time>2021-03-25T12:27:35Z</time>
      </trkpt>
      <trkpt lat="45.55679" lon="6.80462">
        <ele>2421.1</ele>
        <time>2021-03-25T12:27:36Z</time>
      </trkpt>
      <trkpt lat="45.55687" lon="6.8046">
        <ele>2420.2</ele>
        <time>2021-03-25T12:27:37Z</time>
      </trkpt>
      <trkpt lat="45.55694" lon="6.80459">
        <ele>2419.4</ele>
        <time>2021-03-25T12:27:38Z</time>
      </trkpt>
      <trkpt lat="45.55701" lon="6.80459">
        <ele>2418.8</ele>
        <time>2021-03-25T12:27:39Z</time>
      </trkpt>
      <trkpt lat="45.55706" lon="6.80458">
        <ele>2418.3</ele>
        <time>2021-03-25T12:27:40Z</time>
      </trkpt>
      <trkpt lat="45.55711" lon="6.80456">
        <ele>2417.8</ele>
        <time>2021-03-25T12:27:41Z</time>
      </trkpt>
      <trkpt lat="45.55715" lon="6.80454">
        <ele>2417.3</ele>
        <time>2021-03-25T12:27:42Z</time>
      </trkpt>
      <trkpt lat="45.5572" lon="6.80451">
        <ele>2416.9</ele>
        <time>2021-03-25T12:27:43Z</time>
      </trkpt>
      <trkpt lat="45.55725" lon="6.80448">
        <ele>2416.4</ele>
        <time>2021-03-25T12:27:44Z</time>
      </trkpt>
      <trkpt lat="45.55731" lon="6.80446">
        <ele>2415.8</ele>
        <time>2021-03-25T12:27:45Z</time>
      </trkpt>
      <trkpt lat="45.55736" lon="6.80444">
        <ele>2415.4</ele>
        <time>2021-03-25T12:27:46Z</time>
      </trkpt>
      <trkpt lat="45.55739" lon="6.80443">
        <ele>2415</ele>
        <time>2021-03-25T12:27:47Z</time>
      </trkpt>
      <trkpt lat="45.55741" lon="6.80436">
        <ele>2414.5</ele>
        <time>2021-03-25T12:27:48Z</time>
      </trkpt>
      <trkpt lat="45.55742" lon="6.80432">
        <ele>2414.2</ele>
        <time>2021-03-25T12:27:49Z</time>
      </trkpt>
      <trkpt lat="45.55742" lon="6.80431">
        <ele>2414.2</ele>
        <time>2021-03-25T12:27:50Z</time>
      </trkpt>
      <trkpt lat="45.55742" lon="6.80431">
        <ele>2414.2</ele>
        <time>2021-03-25T12:27:51Z</time>
      </trkpt>
      <trkpt lat="45.55742" lon="6.80431">
        <ele>2414.2</ele>
        <time>2021-03-25T12:27:52Z</time>
      </trkpt>
      <trkpt lat="45.55742" lon="6.80431">
        <ele>2414.2</ele>
        <time>2021-03-25T12:27:53Z</time>
      </trkpt>
      <trkpt lat="45.55742" lon="6.80431">
        <ele>2414.2</ele>
        <time>2021-03-25T12:27:54Z</time>
      </trkpt>
      <trkpt lat="45.55743" lon="6.80435">
        <ele>2413.9</ele>
        <time>2021-03-25T12:27:55Z</time>
      </trkpt>
      <trkpt lat="45.55744" lon="6.80434">
        <ele>2413.8</ele>
        <time>2021-03-25T12:27:56Z</time>
      </trkpt>
      <trkpt lat="45.55744" lon="6.80432">
        <ele>2413.7</ele>
        <time>2021-03-25T12:27:57Z</time>
      </trkpt>
      <trkpt lat="45.55745" lon="6.80431">
        <ele>2413.5</ele>
        <time>2021-03-25T12:27:58Z</time>
      </trkpt>
      <trkpt lat="45.55745" lon="6.8043">
        <ele>2413.4</ele>
        <time>2021-03-25T12:27:59Z</time>
      </trkpt>
      <trkpt lat="45.55745" lon="6.80428">
        <ele>2413.3</ele>
        <time>2021-03-25T12:28:00Z</time>
      </trkpt>
      <trkpt lat="45.55746" lon="6.80427">
        <ele>2413.2</ele>
        <time>2021-03-25T12:29:35Z</time>
      </trkpt>
      <trkpt lat="45.55746" lon="6.80426">
        <ele>2413.1</ele>
        <time>2021-03-25T12:29:36Z</time>
      </trkpt>
      <trkpt lat="45.55748" lon="6.80421">
        <ele>2412.6</ele>
        <time>2021-03-25T12:29:37Z</time>
      </trkpt>
      <trkpt lat="45.55748" lon="6.80419">
        <ele>2412.5</ele>
        <time>2021-03-25T12:29:38Z</time>
      </trkpt>
      <trkpt lat="45.55749" lon="6.80415">
        <ele>2412</ele>
        <time>2021-03-25T12:29:39Z</time>
      </trkpt>
      <trkpt lat="45.5575" lon="6.80409">
        <ele>2411.5</ele>
        <time>2021-03-25T12:29:40Z</time>
      </trkpt>
      <trkpt lat="45.55751" lon="6.80403">
        <ele>2411</ele>
        <time>2021-03-25T12:29:41Z</time>
      </trkpt>
      <trkpt lat="45.55752" lon="6.80397">
        <ele>2410.3</ele>
        <time>2021-03-25T12:29:42Z</time>
      </trkpt>
      <trkpt lat="45.55752" lon="6.80391">
        <ele>2409.8</ele>
        <time>2021-03-25T12:29:43Z</time>
      </trkpt>
      <trkpt lat="45.55747" lon="6.80383">
        <ele>2408.8</ele>
        <time>2021-03-25T12:29:44Z</time>
      </trkpt>
      <trkpt lat="45.55745" lon="6.80376">
        <ele>2408.1</ele>
        <time>2021-03-25T12:29:45Z</time>
      </trkpt>
      <trkpt lat="45.55745" lon="6.8037">
        <ele>2407.6</ele>
        <time>2021-03-25T12:29:46Z</time>
      </trkpt>
      <trkpt lat="45.55745" lon="6.80363">
        <ele>2406.9</ele>
        <time>2021-03-25T12:29:47Z</time>
      </trkpt>
      <trkpt lat="45.55747" lon="6.80357">
        <ele>2406.2</ele>
        <time>2021-03-25T12:29:48Z</time>
      </trkpt>
      <trkpt lat="45.55747" lon="6.80351">
        <ele>2405.6</ele>
        <time>2021-03-25T12:29:49Z</time>
      </trkpt>
      <trkpt lat="45.55743" lon="6.80347">
        <ele>2404.9</ele>
        <time>2021-03-25T12:29:50Z</time>
      </trkpt>
      <trkpt lat="45.55741" lon="6.80346">
        <ele>2404.5</ele>
        <time>2021-03-25T12:29:51Z</time>
      </trkpt>
      <trkpt lat="45.55737" lon="6.80342">
        <ele>2403.5</ele>
        <time>2021-03-25T12:29:52Z</time>
      </trkpt>
      <trkpt lat="45.55737" lon="6.80336">
        <ele>2402.7</ele>
        <time>2021-03-25T12:29:53Z</time>
      </trkpt>
      <trkpt lat="45.55734" lon="6.8033">
        <ele>2401.5</ele>
        <time>2021-03-25T12:29:54Z</time>
      </trkpt>
      <trkpt lat="45.55731" lon="6.80324">
        <ele>2399.8</ele>
        <time>2021-03-25T12:29:55Z</time>
      </trkpt>
      <trkpt lat="45.55728" lon="6.8032">
        <ele>2398.3</ele>
        <time>2021-03-25T12:29:56Z</time>
      </trkpt>
      <trkpt lat="45.55726" lon="6.80319">
        <ele>2397.5</ele>
        <time>2021-03-25T12:29:57Z</time>
      </trkpt>
      <trkpt lat="45.55722" lon="6.80315">
        <ele>2395.3</ele>
        <time>2021-03-25T12:29:58Z</time>
      </trkpt>
      <trkpt lat="45.55718" lon="6.8031">
        <ele>2393.3</ele>
        <time>2021-03-25T12:29:59Z</time>
      </trkpt>
      <trkpt lat="45.55714" lon="6.80307">
        <ele>2392</ele>
        <time>2021-03-25T12:30:00Z</time>
      </trkpt>
      <trkpt lat="45.55712" lon="6.80301">
        <ele>2390.6</ele>
        <time>2021-03-25T12:30:01Z</time>
      </trkpt>
      <trkpt lat="45.55707" lon="6.80296">
        <ele>2389</ele>
        <time>2021-03-25T12:30:02Z</time>
      </trkpt>
      <trkpt lat="45.55704" lon="6.80292">
        <ele>2387.9</ele>
        <time>2021-03-25T12:30:03Z</time>
      </trkpt>
      <trkpt lat="45.55701" lon="6.80288">
        <ele>2386.8</ele>
        <time>2021-03-25T12:30:04Z</time>
      </trkpt>
      <trkpt lat="45.55697" lon="6.80286">
        <ele>2385.5</ele>
        <time>2021-03-25T12:30:05Z</time>
      </trkpt>
      <trkpt lat="45.55693" lon="6.80283">
        <ele>2384.2</ele>
        <time>2021-03-25T12:30:06Z</time>
      </trkpt>
      <trkpt lat="45.5569" lon="6.80279">
        <ele>2383</ele>
        <time>2021-03-25T12:30:07Z</time>
      </trkpt>
      <trkpt lat="45.55693" lon="6.80269">
        <ele>2380.7</ele>
        <time>2021-03-25T12:30:08Z</time>
      </trkpt>
      <trkpt lat="45.55689" lon="6.80264">
        <ele>2379</ele>
        <time>2021-03-25T12:30:09Z</time>
      </trkpt>
      <trkpt lat="45.55684" lon="6.80261">
        <ele>2377.2</ele>
        <time>2021-03-25T12:30:10Z</time>
      </trkpt>
      <trkpt lat="45.5568" lon="6.80257">
        <ele>2375.6</ele>
        <time>2021-03-25T12:30:11Z</time>
      </trkpt>
      <trkpt lat="45.55683" lon="6.80251">
        <ele>2373.6</ele>
        <time>2021-03-25T12:30:12Z</time>
      </trkpt>
      <trkpt lat="45.55681" lon="6.80246">
        <ele>2372</ele>
        <time>2021-03-25T12:30:13Z</time>
      </trkpt>
      <trkpt lat="45.55677" lon="6.80242">
        <ele>2370.3</ele>
        <time>2021-03-25T12:30:14Z</time>
      </trkpt>
      <trkpt lat="45.55673" lon="6.80239">
        <ele>2368.4</ele>
        <time>2021-03-25T12:30:15Z</time>
      </trkpt>
      <trkpt lat="45.55667" lon="6.80235">
        <ele>2366.1</ele>
        <time>2021-03-25T12:30:16Z</time>
      </trkpt>
      <trkpt lat="45.55673" lon="6.80225">
        <ele>2362.6</ele>
        <time>2021-03-25T12:30:17Z</time>
      </trkpt>
      <trkpt lat="45.55676" lon="6.80221">
        <ele>2360.8</ele>
        <time>2021-03-25T12:30:18Z</time>
      </trkpt>
      <trkpt lat="45.55671" lon="6.80217">
        <ele>2358.6</ele>
        <time>2021-03-25T12:30:19Z</time>
      </trkpt>
      <trkpt lat="45.55669" lon="6.80212">
        <ele>2357.2</ele>
        <time>2021-03-25T12:30:20Z</time>
      </trkpt>
      <trkpt lat="45.55665" lon="6.80205">
        <ele>2355.4</ele>
        <time>2021-03-25T12:30:21Z</time>
      </trkpt>
      <trkpt lat="45.55675" lon="6.80202">
        <ele>2352.3</ele>
        <time>2021-03-25T12:30:22Z</time>
      </trkpt>
      <trkpt lat="45.55679" lon="6.80196">
        <ele>2350.4</ele>
        <time>2021-03-25T12:30:23Z</time>
      </trkpt>
      <trkpt lat="45.55678" lon="6.8019">
        <ele>2349.1</ele>
        <time>2021-03-25T12:30:24Z</time>
      </trkpt>
      <trkpt lat="45.55675" lon="6.80184">
        <ele>2347.4</ele>
        <time>2021-03-25T12:30:25Z</time>
      </trkpt>
      <trkpt lat="45.55671" lon="6.8018">
        <ele>2346</ele>
        <time>2021-03-25T12:30:26Z</time>
      </trkpt>
      <trkpt lat="45.55669" lon="6.80176">
        <ele>2344.7</ele>
        <time>2021-03-25T12:30:27Z</time>
      </trkpt>
      <trkpt lat="45.55667" lon="6.8017">
        <ele>2343.3</ele>
        <time>2021-03-25T12:30:28Z</time>
      </trkpt>
      <trkpt lat="45.55666" lon="6.80166">
        <ele>2342.5</ele>
        <time>2021-03-25T12:30:29Z</time>
      </trkpt>
      <trkpt lat="45.55665" lon="6.80158">
        <ele>2341</ele>
        <time>2021-03-25T12:30:30Z</time>
      </trkpt>
      <trkpt lat="45.55663" lon="6.80154">
        <ele>2340</ele>
        <time>2021-03-25T12:30:31Z</time>
      </trkpt>
      <trkpt lat="45.5566" lon="6.80149">
        <ele>2338.8</ele>
        <time>2021-03-25T12:30:32Z</time>
      </trkpt>
      <trkpt lat="45.55658" lon="6.80145">
        <ele>2337.8</ele>
        <time>2021-03-25T12:30:33Z</time>
      </trkpt>
      <trkpt lat="45.55657" lon="6.8014">
        <ele>2336.9</ele>
        <time>2021-03-25T12:30:34Z</time>
      </trkpt>
      <trkpt lat="45.55656" lon="6.80136">
        <ele>2336.1</ele>
        <time>2021-03-25T12:30:35Z</time>
      </trkpt>
      <trkpt lat="45.55655" lon="6.80131">
        <ele>2335.2</ele>
        <time>2021-03-25T12:30:36Z</time>
      </trkpt>
      <trkpt lat="45.55654" lon="6.80124">
        <ele>2334</ele>
        <time>2021-03-25T12:30:37Z</time>
      </trkpt>
      <trkpt lat="45.55651" lon="6.80118">
        <ele>2332.9</ele>
        <time>2021-03-25T12:30:38Z</time>
      </trkpt>
      <trkpt lat="45.55651" lon="6.80112">
        <ele>2332</ele>
        <time>2021-03-25T12:30:39Z</time>
      </trkpt>
      <trkpt lat="45.55649" lon="6.80107">
        <ele>2331.2</ele>
        <time>2021-03-25T12:30:40Z</time>
      </trkpt>
      <trkpt lat="45.55648" lon="6.80102">
        <ele>2330.4</ele>
        <time>2021-03-25T12:30:41Z</time>
      </trkpt>
      <trkpt lat="45.55647" lon="6.80098">
        <ele>2329.6</ele>
        <time>2021-03-25T12:30:42Z</time>
      </trkpt>
      <trkpt lat="45.55646" lon="6.80093">
        <ele>2329</ele>
        <time>2021-03-25T12:30:43Z</time>
      </trkpt>
      <trkpt lat="45.55645" lon="6.8009">
        <ele>2328.4</ele>
        <time>2021-03-25T12:30:44Z</time>
      </trkpt>
      <trkpt lat="45.55643" lon="6.80085">
        <ele>2327.5</ele>
        <time>2021-03-25T12:30:45Z</time>
      </trkpt>
      <trkpt lat="45.55642" lon="6.80083">
        <ele>2327.1</ele>
        <time>2021-03-25T12:30:46Z</time>
      </trkpt>
      <trkpt lat="45.55641" lon="6.80079">
        <ele>2326.4</ele>
        <time>2021-03-25T12:30:47Z</time>
      </trkpt>
      <trkpt lat="45.55639" lon="6.80075">
        <ele>2325.6</ele>
        <time>2021-03-25T12:30:48Z</time>
      </trkpt>
      <trkpt lat="45.55636" lon="6.8007">
        <ele>2324.8</ele>
        <time>2021-03-25T12:30:49Z</time>
      </trkpt>
      <trkpt lat="45.55634" lon="6.80064">
        <ele>2323.9</ele>
        <time>2021-03-25T12:30:50Z</time>
      </trkpt>
      <trkpt lat="45.55631" lon="6.80059">
        <ele>2323</ele>
        <time>2021-03-25T12:30:51Z</time>
      </trkpt>
      <trkpt lat="45.55629" lon="6.80053">
        <ele>2322.3</ele>
        <time>2021-03-25T12:30:52Z</time>
      </trkpt>
      <trkpt lat="45.55628" lon="6.80047">
        <ele>2321.5</ele>
        <time>2021-03-25T12:30:53Z</time>
      </trkpt>
      <trkpt lat="45.55626" lon="6.80041">
        <ele>2320.8</ele>
        <time>2021-03-25T12:30:54Z</time>
      </trkpt>
      <trkpt lat="45.55624" lon="6.80036">
        <ele>2320.2</ele>
        <time>2021-03-25T12:30:55Z</time>
      </trkpt>
      <trkpt lat="45.55623" lon="6.80032">
        <ele>2319.8</ele>
        <time>2021-03-25T12:30:56Z</time>
      </trkpt>
      <trkpt lat="45.55622" lon="6.80027">
        <ele>2319.2</ele>
        <time>2021-03-25T12:30:57Z</time>
      </trkpt>
      <trkpt lat="45.55622" lon="6.80026">
        <ele>2319.1</ele>
        <time>2021-03-25T12:30:58Z</time>
      </trkpt>
      <trkpt lat="45.55621" lon="6.80022">
        <ele>2318.6</ele>
        <time>2021-03-25T12:30:59Z</time>
      </trkpt>
      <trkpt lat="45.55621" lon="6.80021">
        <ele>2318.4</ele>
        <time>2021-03-25T12:31:00Z</time>
      </trkpt>
      <trkpt lat="45.55619" lon="6.80015">
        <ele>2317.7</ele>
        <time>2021-03-25T12:31:01Z</time>
      </trkpt>
      <trkpt lat="45.55619" lon="6.80014">
        <ele>2317.5</ele>
        <time>2021-03-25T12:31:02Z</time>
      </trkpt>
      <trkpt lat="45.55618" lon="6.8001">
        <ele>2317</ele>
        <time>2021-03-25T12:31:03Z</time>
      </trkpt>
      <trkpt lat="45.55618" lon="6.80005">
        <ele>2316.4</ele>
        <time>2021-03-25T12:31:04Z</time>
      </trkpt>
      <trkpt lat="45.55618" lon="6.79998">
        <ele>2315.7</ele>
        <time>2021-03-25T12:31:05Z</time>
      </trkpt>
      <trkpt lat="45.55621" lon="6.79991">
        <ele>2314.9</ele>
        <time>2021-03-25T12:31:06Z</time>
      </trkpt>
      <trkpt lat="45.55623" lon="6.79984">
        <ele>2314.3</ele>
        <time>2021-03-25T12:31:07Z</time>
      </trkpt>
      <trkpt lat="45.55626" lon="6.79975">
        <ele>2313.5</ele>
        <time>2021-03-25T12:31:08Z</time>
      </trkpt>
      <trkpt lat="45.55626" lon="6.79965">
        <ele>2312.9</ele>
        <time>2021-03-25T12:31:09Z</time>
      </trkpt>
      <trkpt lat="45.55625" lon="6.79956">
        <ele>2312.3</ele>
        <time>2021-03-25T12:31:10Z</time>
      </trkpt>
      <trkpt lat="45.55625" lon="6.79948">
        <ele>2311.8</ele>
        <time>2021-03-25T12:31:11Z</time>
      </trkpt>
      <trkpt lat="45.55623" lon="6.7994">
        <ele>2310.5</ele>
        <time>2021-03-25T12:31:12Z</time>
      </trkpt>
      <trkpt lat="45.55622" lon="6.79932">
        <ele>2309.5</ele>
        <time>2021-03-25T12:31:13Z</time>
      </trkpt>
      <trkpt lat="45.5562" lon="6.79924">
        <ele>2307.9</ele>
        <time>2021-03-25T12:31:14Z</time>
      </trkpt>
      <trkpt lat="45.55619" lon="6.79915">
        <ele>2306.5</ele>
        <time>2021-03-25T12:31:15Z</time>
      </trkpt>
      <trkpt lat="45.55618" lon="6.79908">
        <ele>2304.8</ele>
        <time>2021-03-25T12:31:16Z</time>
      </trkpt>
      <trkpt lat="45.55617" lon="6.79899">
        <ele>2303.2</ele>
        <time>2021-03-25T12:31:17Z</time>
      </trkpt>
      <trkpt lat="45.55615" lon="6.79892">
        <ele>2302.6</ele>
        <time>2021-03-25T12:31:18Z</time>
      </trkpt>
      <trkpt lat="45.55614" lon="6.79885">
        <ele>2301</ele>
        <time>2021-03-25T12:31:19Z</time>
      </trkpt>
      <trkpt lat="45.55615" lon="6.79878">
        <ele>2299.3</ele>
        <time>2021-03-25T12:31:20Z</time>
      </trkpt>
      <trkpt lat="45.55612" lon="6.79873">
        <ele>2298.4</ele>
        <time>2021-03-25T12:31:21Z</time>
      </trkpt>
      <trkpt lat="45.5561" lon="6.79872">
        <ele>2298.4</ele>
        <time>2021-03-25T12:31:22Z</time>
      </trkpt>
      <trkpt lat="45.55606" lon="6.79873">
        <ele>2298.4</ele>
        <time>2021-03-25T12:31:23Z</time>
      </trkpt>
      <trkpt lat="45.55605" lon="6.79872">
        <ele>2298.3</ele>
        <time>2021-03-25T12:31:24Z</time>
      </trkpt>
      <trkpt lat="45.55604" lon="6.79872">
        <ele>2298.2</ele>
        <time>2021-03-25T12:31:25Z</time>
      </trkpt>
      <trkpt lat="45.55604" lon="6.79872">
        <ele>2298.1</ele>
        <time>2021-03-25T12:31:26Z</time>
      </trkpt>
      <trkpt lat="45.55603" lon="6.79871">
        <ele>2298</ele>
        <time>2021-03-25T12:31:27Z</time>
      </trkpt>
      <trkpt lat="45.55603" lon="6.79871">
        <ele>2297.9</ele>
        <time>2021-03-25T12:31:28Z</time>
      </trkpt>
      <trkpt lat="45.55602" lon="6.79871">
        <ele>2297.8</ele>
        <time>2021-03-25T12:31:29Z</time>
      </trkpt>
      <trkpt lat="45.55602" lon="6.79871">
        <ele>2297.8</ele>
        <time>2021-03-25T12:31:30Z</time>
      </trkpt>
      <trkpt lat="45.55601" lon="6.7987">
        <ele>2297.7</ele>
        <time>2021-03-25T12:31:31Z</time>
      </trkpt>
      <trkpt lat="45.55601" lon="6.7987">
        <ele>2297.5</ele>
        <time>2021-03-25T12:31:32Z</time>
      </trkpt>
      <trkpt lat="45.556" lon="6.7987">
        <ele>2297.4</ele>
        <time>2021-03-25T12:31:33Z</time>
      </trkpt>
      <trkpt lat="45.556" lon="6.79869">
        <ele>2297.3</ele>
        <time>2021-03-25T12:31:34Z</time>
      </trkpt>
      <trkpt lat="45.55599" lon="6.79869">
        <ele>2296.3</ele>
        <time>2021-03-25T12:31:48Z</time>
      </trkpt>
      <trkpt lat="45.55599" lon="6.79869">
        <ele>2296.2</ele>
        <time>2021-03-25T12:31:49Z</time>
      </trkpt>
      <trkpt lat="45.55595" lon="6.79867">
        <ele>2295.9</ele>
        <time>2021-03-25T12:31:50Z</time>
      </trkpt>
      <trkpt lat="45.55592" lon="6.79865">
        <ele>2295.4</ele>
        <time>2021-03-25T12:31:51Z</time>
      </trkpt>
      <trkpt lat="45.55587" lon="6.79863">
        <ele>2294</ele>
        <time>2021-03-25T12:31:52Z</time>
      </trkpt>
      <trkpt lat="45.55581" lon="6.7986">
        <ele>2292.9</ele>
        <time>2021-03-25T12:31:53Z</time>
      </trkpt>
      <trkpt lat="45.55575" lon="6.79858">
        <ele>2292</ele>
        <time>2021-03-25T12:31:54Z</time>
      </trkpt>
      <trkpt lat="45.55569" lon="6.79854">
        <ele>2291</ele>
        <time>2021-03-25T12:31:55Z</time>
      </trkpt>
      <trkpt lat="45.55563" lon="6.79847">
        <ele>2289.8</ele>
        <time>2021-03-25T12:31:56Z</time>
      </trkpt>
      <trkpt lat="45.55557" lon="6.79843">
        <ele>2288.6</ele>
        <time>2021-03-25T12:31:57Z</time>
      </trkpt>
      <trkpt lat="45.5555" lon="6.7984">
        <ele>2287.4</ele>
        <time>2021-03-25T12:31:58Z</time>
      </trkpt>
      <trkpt lat="45.55542" lon="6.79834">
        <ele>2285.9</ele>
        <time>2021-03-25T12:31:59Z</time>
      </trkpt>
      <trkpt lat="45.55535" lon="6.79828">
        <ele>2284.4</ele>
        <time>2021-03-25T12:32:00Z</time>
      </trkpt>
      <trkpt lat="45.55526" lon="6.79823">
        <ele>2282.8</ele>
        <time>2021-03-25T12:32:01Z</time>
      </trkpt>
      <trkpt lat="45.55523" lon="6.7981">
        <ele>2281.3</ele>
        <time>2021-03-25T12:32:02Z</time>
      </trkpt>
      <trkpt lat="45.55515" lon="6.79801">
        <ele>2279.6</ele>
        <time>2021-03-25T12:32:03Z</time>
      </trkpt>
      <trkpt lat="45.55507" lon="6.79796">
        <ele>2278.1</ele>
        <time>2021-03-25T12:32:04Z</time>
      </trkpt>
      <trkpt lat="45.55498" lon="6.79791">
        <ele>2276.6</ele>
        <time>2021-03-25T12:32:05Z</time>
      </trkpt>
      <trkpt lat="45.55493" lon="6.79779">
        <ele>2275</ele>
        <time>2021-03-25T12:32:06Z</time>
      </trkpt>
      <trkpt lat="45.55482" lon="6.79776">
        <ele>2273.2</ele>
        <time>2021-03-25T12:32:07Z</time>
      </trkpt>
      <trkpt lat="45.55472" lon="6.79771">
        <ele>2271.5</ele>
        <time>2021-03-25T12:32:08Z</time>
      </trkpt>
      <trkpt lat="45.55466" lon="6.79754">
        <ele>2269.5</ele>
        <time>2021-03-25T12:32:09Z</time>
      </trkpt>
      <trkpt lat="45.5546" lon="6.79738">
        <ele>2267.5</ele>
        <time>2021-03-25T12:32:10Z</time>
      </trkpt>
      <trkpt lat="45.55453" lon="6.79725">
        <ele>2265.7</ele>
        <time>2021-03-25T12:32:11Z</time>
      </trkpt>
      <trkpt lat="45.55446" lon="6.79712">
        <ele>2263.7</ele>
        <time>2021-03-25T12:32:12Z</time>
      </trkpt>
      <trkpt lat="45.55448" lon="6.79698">
        <ele>2262.1</ele>
        <time>2021-03-25T12:32:13Z</time>
      </trkpt>
      <trkpt lat="45.55443" lon="6.79684">
        <ele>2260.1</ele>
        <time>2021-03-25T12:32:14Z</time>
      </trkpt>
      <trkpt lat="45.55433" lon="6.79676">
        <ele>2258</ele>
        <time>2021-03-25T12:32:15Z</time>
      </trkpt>
      <trkpt lat="45.55422" lon="6.79669">
        <ele>2256.1</ele>
        <time>2021-03-25T12:32:16Z</time>
      </trkpt>
      <trkpt lat="45.5542" lon="6.79656">
        <ele>2254.5</ele>
        <time>2021-03-25T12:32:17Z</time>
      </trkpt>
      <trkpt lat="45.55414" lon="6.79641">
        <ele>2252.7</ele>
        <time>2021-03-25T12:32:18Z</time>
      </trkpt>
      <trkpt lat="45.55408" lon="6.79626">
        <ele>2251</ele>
        <time>2021-03-25T12:32:19Z</time>
      </trkpt>
      <trkpt lat="45.55404" lon="6.7961">
        <ele>2249.1</ele>
        <time>2021-03-25T12:32:20Z</time>
      </trkpt>
      <trkpt lat="45.55397" lon="6.79593">
        <ele>2246.3</ele>
        <time>2021-03-25T12:32:21Z</time>
      </trkpt>
      <trkpt lat="45.55393" lon="6.79582">
        <ele>2244.7</ele>
        <time>2021-03-25T12:32:22Z</time>
      </trkpt>
      <trkpt lat="45.55383" lon="6.79571">
        <ele>2243.9</ele>
        <time>2021-03-25T12:32:23Z</time>
      </trkpt>
      <trkpt lat="45.55376" lon="6.79562">
        <ele>2243</ele>
        <time>2021-03-25T12:32:24Z</time>
      </trkpt>
      <trkpt lat="45.55371" lon="6.79552">
        <ele>2241.8</ele>
        <time>2021-03-25T12:32:25Z</time>
      </trkpt>
      <trkpt lat="45.55366" lon="6.79544">
        <ele>2240.7</ele>
        <time>2021-03-25T12:32:26Z</time>
      </trkpt>
      <trkpt lat="45.55362" lon="6.79534">
        <ele>2239</ele>
        <time>2021-03-25T12:32:27Z</time>
      </trkpt>
      <trkpt lat="45.55358" lon="6.79525">
        <ele>2237.8</ele>
        <time>2021-03-25T12:32:28Z</time>
      </trkpt>
      <trkpt lat="45.55354" lon="6.79517">
        <ele>2236.8</ele>
        <time>2021-03-25T12:32:29Z</time>
      </trkpt>
      <trkpt lat="45.55346" lon="6.79508">
        <ele>2235.8</ele>
        <time>2021-03-25T12:32:30Z</time>
      </trkpt>
      <trkpt lat="45.55341" lon="6.79501">
        <ele>2235.4</ele>
        <time>2021-03-25T12:32:31Z</time>
      </trkpt>
      <trkpt lat="45.55338" lon="6.79495">
        <ele>2234.2</ele>
        <time>2021-03-25T12:32:32Z</time>
      </trkpt>
      <trkpt lat="45.55332" lon="6.79486">
        <ele>2233.2</ele>
        <time>2021-03-25T12:32:33Z</time>
      </trkpt>
      <trkpt lat="45.55326" lon="6.79479">
        <ele>2232.9</ele>
        <time>2021-03-25T12:32:34Z</time>
      </trkpt>
      <trkpt lat="45.55321" lon="6.7947">
        <ele>2231.1</ele>
        <time>2021-03-25T12:32:35Z</time>
      </trkpt>
      <trkpt lat="45.5532" lon="6.79458">
        <ele>2229.7</ele>
        <time>2021-03-25T12:32:36Z</time>
      </trkpt>
      <trkpt lat="45.55317" lon="6.79448">
        <ele>2227.7</ele>
        <time>2021-03-25T12:32:37Z</time>
      </trkpt>
      <trkpt lat="45.55312" lon="6.79437">
        <ele>2226.4</ele>
        <time>2021-03-25T12:32:38Z</time>
      </trkpt>
      <trkpt lat="45.55308" lon="6.79426">
        <ele>2224.3</ele>
        <time>2021-03-25T12:32:39Z</time>
      </trkpt>
      <trkpt lat="45.55306" lon="6.79412">
        <ele>2222.2</ele>
        <time>2021-03-25T12:32:40Z</time>
      </trkpt>
      <trkpt lat="45.55301" lon="6.79397">
        <ele>2219.7</ele>
        <time>2021-03-25T12:32:41Z</time>
      </trkpt>
      <trkpt lat="45.55296" lon="6.79385">
        <ele>2218.2</ele>
        <time>2021-03-25T12:32:42Z</time>
      </trkpt>
      <trkpt lat="45.55292" lon="6.79373">
        <ele>2215.9</ele>
        <time>2021-03-25T12:32:43Z</time>
      </trkpt>
      <trkpt lat="45.55299" lon="6.79356">
        <ele>2213</ele>
        <time>2021-03-25T12:32:44Z</time>
      </trkpt>
      <trkpt lat="45.55297" lon="6.79343">
        <ele>2210.8</ele>
        <time>2021-03-25T12:32:45Z</time>
      </trkpt>
      <trkpt lat="45.5529" lon="6.79332">
        <ele>2208.5</ele>
        <time>2021-03-25T12:32:46Z</time>
      </trkpt>
      <trkpt lat="45.55283" lon="6.79322">
        <ele>2207.1</ele>
        <time>2021-03-25T12:32:47Z</time>
      </trkpt>
      <trkpt lat="45.55286" lon="6.79307">
        <ele>2204.7</ele>
        <time>2021-03-25T12:32:48Z</time>
      </trkpt>
      <trkpt lat="45.55286" lon="6.79294">
        <ele>2202.8</ele>
        <time>2021-03-25T12:32:49Z</time>
      </trkpt>
      <trkpt lat="45.55285" lon="6.79282">
        <ele>2201.4</ele>
        <time>2021-03-25T12:32:50Z</time>
      </trkpt>
      <trkpt lat="45.55285" lon="6.79269">
        <ele>2199.3</ele>
        <time>2021-03-25T12:32:51Z</time>
      </trkpt>
      <trkpt lat="45.55284" lon="6.79254">
        <ele>2196.7</ele>
        <time>2021-03-25T12:32:52Z</time>
      </trkpt>
      <trkpt lat="45.55279" lon="6.7924">
        <ele>2194.7</ele>
        <time>2021-03-25T12:32:53Z</time>
      </trkpt>
      <trkpt lat="45.55274" lon="6.79229">
        <ele>2192.8</ele>
        <time>2021-03-25T12:32:54Z</time>
      </trkpt>
      <trkpt lat="45.55269" lon="6.79218">
        <ele>2191.6</ele>
        <time>2021-03-25T12:32:55Z</time>
      </trkpt>
      <trkpt lat="45.55273" lon="6.79202">
        <ele>2188.9</ele>
        <time>2021-03-25T12:32:56Z</time>
      </trkpt>
      <trkpt lat="45.5527" lon="6.79189">
        <ele>2186.8</ele>
        <time>2021-03-25T12:32:57Z</time>
      </trkpt>
      <trkpt lat="45.55265" lon="6.79174">
        <ele>2185</ele>
        <time>2021-03-25T12:32:58Z</time>
      </trkpt>
      <trkpt lat="45.55261" lon="6.79161">
        <ele>2183.4</ele>
        <time>2021-03-25T12:32:59Z</time>
      </trkpt>
      <trkpt lat="45.55269" lon="6.79148">
        <ele>2180.7</ele>
        <time>2021-03-25T12:33:00Z</time>
      </trkpt>
      <trkpt lat="45.55265" lon="6.79134">
        <ele>2179</ele>
        <time>2021-03-25T12:33:01Z</time>
      </trkpt>
      <trkpt lat="45.55261" lon="6.79121">
        <ele>2177.7</ele>
        <time>2021-03-25T12:33:02Z</time>
      </trkpt>
      <trkpt lat="45.55262" lon="6.7911">
        <ele>2175.7</ele>
        <time>2021-03-25T12:33:03Z</time>
      </trkpt>
      <trkpt lat="45.5526" lon="6.79096">
        <ele>2174.1</ele>
        <time>2021-03-25T12:33:04Z</time>
      </trkpt>
      <trkpt lat="45.5526" lon="6.79083">
        <ele>2172.5</ele>
        <time>2021-03-25T12:33:05Z</time>
      </trkpt>
      <trkpt lat="45.5526" lon="6.79072">
        <ele>2171.2</ele>
        <time>2021-03-25T12:33:06Z</time>
      </trkpt>
      <trkpt lat="45.55261" lon="6.7906">
        <ele>2169</ele>
        <time>2021-03-25T12:33:07Z</time>
      </trkpt>
      <trkpt lat="45.55258" lon="6.79046">
        <ele>2166.9</ele>
        <time>2021-03-25T12:33:08Z</time>
      </trkpt>
      <trkpt lat="45.55257" lon="6.79036">
        <ele>2164.5</ele>
        <time>2021-03-25T12:33:09Z</time>
      </trkpt>
      <trkpt lat="45.55256" lon="6.79028">
        <ele>2162.8</ele>
        <time>2021-03-25T12:33:10Z</time>
      </trkpt>
      <trkpt lat="45.55246" lon="6.79014">
        <ele>2162.1</ele>
        <time>2021-03-25T12:33:11Z</time>
      </trkpt>
      <trkpt lat="45.55238" lon="6.79002">
        <ele>2160.1</ele>
        <time>2021-03-25T12:33:12Z</time>
      </trkpt>
      <trkpt lat="45.55227" lon="6.78992">
        <ele>2159.4</ele>
        <time>2021-03-25T12:33:13Z</time>
      </trkpt>
      <trkpt lat="45.55221" lon="6.78983">
        <ele>2157.9</ele>
        <time>2021-03-25T12:33:14Z</time>
      </trkpt>
      <trkpt lat="45.55207" lon="6.78984">
        <ele>2158.8</ele>
        <time>2021-03-25T12:33:15Z</time>
      </trkpt>
      <trkpt lat="45.55194" lon="6.78983">
        <ele>2159.3</ele>
        <time>2021-03-25T12:33:16Z</time>
      </trkpt>
      <trkpt lat="45.55184" lon="6.78977">
        <ele>2158.3</ele>
        <time>2021-03-25T12:33:17Z</time>
      </trkpt>
      <trkpt lat="45.55175" lon="6.78978">
        <ele>2158.1</ele>
        <time>2021-03-25T12:33:18Z</time>
      </trkpt>
      <trkpt lat="45.55165" lon="6.78974">
        <ele>2156.4</ele>
        <time>2021-03-25T12:33:19Z</time>
      </trkpt>
      <trkpt lat="45.55157" lon="6.78967">
        <ele>2153.4</ele>
        <time>2021-03-25T12:33:20Z</time>
      </trkpt>
      <trkpt lat="45.55149" lon="6.7896">
        <ele>2152.1</ele>
        <time>2021-03-25T12:33:21Z</time>
      </trkpt>
      <trkpt lat="45.55142" lon="6.78951">
        <ele>2149.4</ele>
        <time>2021-03-25T12:33:22Z</time>
      </trkpt>
      <trkpt lat="45.55135" lon="6.78944">
        <ele>2148</ele>
        <time>2021-03-25T12:33:23Z</time>
      </trkpt>
      <trkpt lat="45.55128" lon="6.78938">
        <ele>2147.6</ele>
        <time>2021-03-25T12:33:24Z</time>
      </trkpt>
      <trkpt lat="45.55122" lon="6.78934">
        <ele>2146.2</ele>
        <time>2021-03-25T12:33:25Z</time>
      </trkpt>
      <trkpt lat="45.55115" lon="6.78927">
        <ele>2145.9</ele>
        <time>2021-03-25T12:33:26Z</time>
      </trkpt>
      <trkpt lat="45.55109" lon="6.78921">
        <ele>2145.8</ele>
        <time>2021-03-25T12:33:27Z</time>
      </trkpt>
      <trkpt lat="45.55102" lon="6.78917">
        <ele>2146.4</ele>
        <time>2021-03-25T12:33:28Z</time>
      </trkpt>
      <trkpt lat="45.55096" lon="6.78913">
        <ele>2146.7</ele>
        <time>2021-03-25T12:33:29Z</time>
      </trkpt>
      <trkpt lat="45.55091" lon="6.78907">
        <ele>2146</ele>
        <time>2021-03-25T12:33:30Z</time>
      </trkpt>
      <trkpt lat="45.55087" lon="6.78901">
        <ele>2146.6</ele>
        <time>2021-03-25T12:33:31Z</time>
      </trkpt>
      <trkpt lat="45.55087" lon="6.78899">
        <ele>2145.3</ele>
        <time>2021-03-25T12:33:32Z</time>
      </trkpt>
      <trkpt lat="45.55087" lon="6.78899">
        <ele>2146</ele>
        <time>2021-03-25T12:33:33Z</time>
      </trkpt>
      <trkpt lat="45.55086" lon="6.78899">
        <ele>2146</ele>
        <time>2021-03-25T12:33:34Z</time>
      </trkpt>
      <trkpt lat="45.55086" lon="6.78899">
        <ele>2146</ele>
        <time>2021-03-25T12:33:35Z</time>
      </trkpt>
      <trkpt lat="45.55085" lon="6.78899">
        <ele>2146</ele>
        <time>2021-03-25T12:33:36Z</time>
      </trkpt>
      <trkpt lat="45.55085" lon="6.78899">
        <ele>2146.6</ele>
        <time>2021-03-25T12:33:37Z</time>
      </trkpt>
      <trkpt lat="45.55084" lon="6.789">
        <ele>2146.6</ele>
        <time>2021-03-25T12:33:38Z</time>
      </trkpt>
      <trkpt lat="45.55084" lon="6.789">
        <ele>2147.3</ele>
        <time>2021-03-25T12:33:39Z</time>
      </trkpt>
      <trkpt lat="45.55083" lon="6.789">
        <ele>2147.3</ele>
        <time>2021-03-25T12:33:40Z</time>
      </trkpt>
      <trkpt lat="45.55083" lon="6.789">
        <ele>2147.2</ele>
        <time>2021-03-25T12:33:41Z</time>
      </trkpt>
      <trkpt lat="45.55082" lon="6.789">
        <ele>2147.2</ele>
        <time>2021-03-25T12:33:42Z</time>
      </trkpt>
      <trkpt lat="45.55082" lon="6.789">
        <ele>2147.2</ele>
        <time>2021-03-25T12:33:43Z</time>
      </trkpt>
      <trkpt lat="45.55081" lon="6.789">
        <ele>2147.2</ele>
        <time>2021-03-25T12:34:04Z</time>
      </trkpt>
      <trkpt lat="45.55081" lon="6.789">
        <ele>2147.9</ele>
        <time>2021-03-25T12:34:05Z</time>
      </trkpt>
      <trkpt lat="45.5508" lon="6.78901">
        <ele>2147.9</ele>
        <time>2021-03-25T12:34:06Z</time>
      </trkpt>
      <trkpt lat="45.5508" lon="6.78901">
        <ele>2147.9</ele>
        <time>2021-03-25T12:34:07Z</time>
      </trkpt>
      <trkpt lat="45.55079" lon="6.78901">
        <ele>2147.9</ele>
        <time>2021-03-25T12:34:08Z</time>
      </trkpt>
      <trkpt lat="45.55079" lon="6.78901">
        <ele>2147.9</ele>
        <time>2021-03-25T12:34:09Z</time>
      </trkpt>
      <trkpt lat="45.55078" lon="6.78901">
        <ele>2147.9</ele>
        <time>2021-03-25T12:34:10Z</time>
      </trkpt>
      <trkpt lat="45.55078" lon="6.78901">
        <ele>2148.5</ele>
        <time>2021-03-25T12:34:11Z</time>
      </trkpt>
      <trkpt lat="45.55077" lon="6.78901">
        <ele>2148.5</ele>
        <time>2021-03-25T12:34:12Z</time>
      </trkpt>
      <trkpt lat="45.55077" lon="6.78901">
        <ele>2148.5</ele>
        <time>2021-03-25T12:34:13Z</time>
      </trkpt>
      <trkpt lat="45.55076" lon="6.78902">
        <ele>2148.5</ele>
        <time>2021-03-25T12:35:18Z</time>
      </trkpt>
      <trkpt lat="45.55076" lon="6.78902">
        <ele>2148.5</ele>
        <time>2021-03-25T12:35:19Z</time>
      </trkpt>
      <trkpt lat="45.55073" lon="6.78898">
        <ele>2148.4</ele>
        <time>2021-03-25T12:35:20Z</time>
      </trkpt>
      <trkpt lat="45.55071" lon="6.78893">
        <ele>2148.2</ele>
        <time>2021-03-25T12:35:21Z</time>
      </trkpt>
      <trkpt lat="45.55068" lon="6.78887">
        <ele>2148</ele>
        <time>2021-03-25T12:35:22Z</time>
      </trkpt>
      <trkpt lat="45.55064" lon="6.78881">
        <ele>2147.1</ele>
        <time>2021-03-25T12:35:23Z</time>
      </trkpt>
      <trkpt lat="45.5506" lon="6.78874">
        <ele>2147.1</ele>
        <time>2021-03-25T12:35:24Z</time>
      </trkpt>
      <trkpt lat="45.55059" lon="6.78869">
        <ele>2146.5</ele>
        <time>2021-03-25T12:35:25Z</time>
      </trkpt>
      <trkpt lat="45.55058" lon="6.78866">
        <ele>2146.5</ele>
        <time>2021-03-25T12:35:26Z</time>
      </trkpt>
      <trkpt lat="45.55059" lon="6.78865">
        <ele>2146.5</ele>
        <time>2021-03-25T12:35:27Z</time>
      </trkpt>
      <trkpt lat="45.55059" lon="6.78865">
        <ele>2146.5</ele>
        <time>2021-03-25T12:35:28Z</time>
      </trkpt>
      <trkpt lat="45.55059" lon="6.78865">
        <ele>2145.8</ele>
        <time>2021-03-25T12:35:29Z</time>
      </trkpt>
      <trkpt lat="45.5506" lon="6.78865">
        <ele>2145.8</ele>
        <time>2021-03-25T12:35:30Z</time>
      </trkpt>
      <trkpt lat="45.5506" lon="6.78865">
        <ele>2145.2</ele>
        <time>2021-03-25T12:35:31Z</time>
      </trkpt>
      <trkpt lat="45.55061" lon="6.78864">
        <ele>2145.2</ele>
        <time>2021-03-25T12:35:32Z</time>
      </trkpt>
      <trkpt lat="45.55061" lon="6.78864">
        <ele>2145.2</ele>
        <time>2021-03-25T12:35:33Z</time>
      </trkpt>
      <trkpt lat="45.55061" lon="6.78864">
        <ele>2145.2</ele>
        <time>2021-03-25T12:35:34Z</time>
      </trkpt>
      <trkpt lat="45.55062" lon="6.78864">
        <ele>2145.2</ele>
        <time>2021-03-25T12:35:35Z</time>
      </trkpt>
      <trkpt lat="45.55062" lon="6.78864">
        <ele>2145.2</ele>
        <time>2021-03-25T12:35:36Z</time>
      </trkpt>
      <trkpt lat="45.55063" lon="6.78863">
        <ele>2145.2</ele>
        <time>2021-03-25T12:35:37Z</time>
      </trkpt>
      <trkpt lat="45.55063" lon="6.78863">
        <ele>2145.1</ele>
        <time>2021-03-25T12:37:24Z</time>
      </trkpt>
      <trkpt lat="45.55063" lon="6.78863">
        <ele>2144.5</ele>
        <time>2021-03-25T12:37:25Z</time>
      </trkpt>
      <trkpt lat="45.55064" lon="6.78859">
        <ele>2143.9</ele>
        <time>2021-03-25T12:37:26Z</time>
      </trkpt>
      <trkpt lat="45.55064" lon="6.78857">
        <ele>2143.9</ele>
        <time>2021-03-25T12:37:27Z</time>
      </trkpt>
      <trkpt lat="45.55063" lon="6.78853">
        <ele>2143.3</ele>
        <time>2021-03-25T12:37:28Z</time>
      </trkpt>
      <trkpt lat="45.55062" lon="6.78849">
        <ele>2143.3</ele>
        <time>2021-03-25T12:37:29Z</time>
      </trkpt>
      <trkpt lat="45.55061" lon="6.78843">
        <ele>2142</ele>
        <time>2021-03-25T12:37:30Z</time>
      </trkpt>
      <trkpt lat="45.55059" lon="6.78836">
        <ele>2141.7</ele>
        <time>2021-03-25T12:37:31Z</time>
      </trkpt>
      <trkpt lat="45.55056" lon="6.78828">
        <ele>2140.6</ele>
        <time>2021-03-25T12:37:32Z</time>
      </trkpt>
      <trkpt lat="45.55049" lon="6.78821">
        <ele>2140</ele>
        <time>2021-03-25T12:37:33Z</time>
      </trkpt>
      <trkpt lat="45.55045" lon="6.78814">
        <ele>2140.2</ele>
        <time>2021-03-25T12:37:34Z</time>
      </trkpt>
      <trkpt lat="45.55041" lon="6.78807">
        <ele>2139.1</ele>
        <time>2021-03-25T12:37:35Z</time>
      </trkpt>
      <trkpt lat="45.55036" lon="6.78802">
        <ele>2138.8</ele>
        <time>2021-03-25T12:37:36Z</time>
      </trkpt>
      <trkpt lat="45.55035" lon="6.78795">
        <ele>2137.6</ele>
        <time>2021-03-25T12:37:37Z</time>
      </trkpt>
      <trkpt lat="45.55035" lon="6.7879">
        <ele>2136.7</ele>
        <time>2021-03-25T12:37:38Z</time>
      </trkpt>
      <trkpt lat="45.55039" lon="6.78785">
        <ele>2135.5</ele>
        <time>2021-03-25T12:37:39Z</time>
      </trkpt>
      <trkpt lat="45.5504" lon="6.78778">
        <ele>2133.4</ele>
        <time>2021-03-25T12:37:40Z</time>
      </trkpt>
      <trkpt lat="45.5504" lon="6.78772">
        <ele>2132.7</ele>
        <time>2021-03-25T12:37:41Z</time>
      </trkpt>
      <trkpt lat="45.55042" lon="6.78767">
        <ele>2131.9</ele>
        <time>2021-03-25T12:37:42Z</time>
      </trkpt>
      <trkpt lat="45.55044" lon="6.78761">
        <ele>2129.9</ele>
        <time>2021-03-25T12:37:43Z</time>
      </trkpt>
      <trkpt lat="45.55043" lon="6.78755">
        <ele>2129.1</ele>
        <time>2021-03-25T12:37:44Z</time>
      </trkpt>
      <trkpt lat="45.55039" lon="6.78747">
        <ele>2127.7</ele>
        <time>2021-03-25T12:37:45Z</time>
      </trkpt>
      <trkpt lat="45.55037" lon="6.78741">
        <ele>2127.2</ele>
        <time>2021-03-25T12:37:46Z</time>
      </trkpt>
      <trkpt lat="45.55033" lon="6.78734">
        <ele>2126.1</ele>
        <time>2021-03-25T12:37:47Z</time>
      </trkpt>
      <trkpt lat="45.55031" lon="6.78727">
        <ele>2125.1</ele>
        <time>2021-03-25T12:37:48Z</time>
      </trkpt>
      <trkpt lat="45.55032" lon="6.78721">
        <ele>2124.5</ele>
        <time>2021-03-25T12:37:49Z</time>
      </trkpt>
      <trkpt lat="45.55035" lon="6.78717">
        <ele>2123.5</ele>
        <time>2021-03-25T12:37:50Z</time>
      </trkpt>
      <trkpt lat="45.55034" lon="6.78709">
        <ele>2122.1</ele>
        <time>2021-03-25T12:37:51Z</time>
      </trkpt>
      <trkpt lat="45.55031" lon="6.78704">
        <ele>2121.6</ele>
        <time>2021-03-25T12:37:52Z</time>
      </trkpt>
      <trkpt lat="45.55033" lon="6.78699">
        <ele>2120.8</ele>
        <time>2021-03-25T12:37:53Z</time>
      </trkpt>
      <trkpt lat="45.55031" lon="6.78693">
        <ele>2119.3</ele>
        <time>2021-03-25T12:37:54Z</time>
      </trkpt>
      <trkpt lat="45.55032" lon="6.78687">
        <ele>2118.6</ele>
        <time>2021-03-25T12:37:55Z</time>
      </trkpt>
      <trkpt lat="45.55034" lon="6.78681">
        <ele>2117.7</ele>
        <time>2021-03-25T12:37:56Z</time>
      </trkpt>
      <trkpt lat="45.55034" lon="6.78676">
        <ele>2116.4</ele>
        <time>2021-03-25T12:37:57Z</time>
      </trkpt>
      <trkpt lat="45.55031" lon="6.78672">
        <ele>2116.6</ele>
        <time>2021-03-25T12:37:58Z</time>
      </trkpt>
      <trkpt lat="45.5503" lon="6.78671">
        <ele>2116.2</ele>
        <time>2021-03-25T12:37:59Z</time>
      </trkpt>
      <trkpt lat="45.55026" lon="6.78665">
        <ele>2115.7</ele>
        <time>2021-03-25T12:38:00Z</time>
      </trkpt>
      <trkpt lat="45.55024" lon="6.7866">
        <ele>2115.1</ele>
        <time>2021-03-25T12:38:01Z</time>
      </trkpt>
      <trkpt lat="45.55022" lon="6.78655">
        <ele>2114.3</ele>
        <time>2021-03-25T12:38:02Z</time>
      </trkpt>
      <trkpt lat="45.55022" lon="6.7865">
        <ele>2112.8</ele>
        <time>2021-03-25T12:38:03Z</time>
      </trkpt>
      <trkpt lat="45.55022" lon="6.78644">
        <ele>2112.1</ele>
        <time>2021-03-25T12:38:04Z</time>
      </trkpt>
      <trkpt lat="45.55024" lon="6.78637">
        <ele>2110.6</ele>
        <time>2021-03-25T12:38:05Z</time>
      </trkpt>
      <trkpt lat="45.55025" lon="6.7863">
        <ele>2109.6</ele>
        <time>2021-03-25T12:38:06Z</time>
      </trkpt>
      <trkpt lat="45.55024" lon="6.78634">
        <ele>2110.6</ele>
        <time>2021-03-25T12:38:07Z</time>
      </trkpt>
      <trkpt lat="45.55024" lon="6.78633">
        <ele>2109.6</ele>
        <time>2021-03-25T12:38:08Z</time>
      </trkpt>
      <trkpt lat="45.55025" lon="6.78632">
        <ele>2109.6</ele>
        <time>2021-03-25T12:38:09Z</time>
      </trkpt>
      <trkpt lat="45.55025" lon="6.78632">
        <ele>2109.6</ele>
        <time>2021-03-25T12:38:10Z</time>
      </trkpt>
      <trkpt lat="45.55025" lon="6.78631">
        <ele>2109.6</ele>
        <time>2021-03-25T12:38:11Z</time>
      </trkpt>
      <trkpt lat="45.55025" lon="6.7863">
        <ele>2109.6</ele>
        <time>2021-03-25T12:38:12Z</time>
      </trkpt>
      <trkpt lat="45.55026" lon="6.7863">
        <ele>2109.5</ele>
        <time>2021-03-25T12:38:13Z</time>
      </trkpt>
      <trkpt lat="45.55026" lon="6.78629">
        <ele>2109.5</ele>
        <time>2021-03-25T12:38:14Z</time>
      </trkpt>
      <trkpt lat="45.55026" lon="6.78628">
        <ele>2108.8</ele>
        <time>2021-03-25T12:38:15Z</time>
      </trkpt>
      <trkpt lat="45.55026" lon="6.78628">
        <ele>2108.7</ele>
        <time>2021-03-25T12:38:16Z</time>
      </trkpt>
      <trkpt lat="45.55026" lon="6.78627">
        <ele>2108.7</ele>
        <time>2021-03-25T12:39:32Z</time>
      </trkpt>
      <trkpt lat="45.55027" lon="6.78626">
        <ele>2108.7</ele>
        <time>2021-03-25T12:39:33Z</time>
      </trkpt>
      <trkpt lat="45.55027" lon="6.78626">
        <ele>2108.7</ele>
        <time>2021-03-25T12:39:34Z</time>
      </trkpt>
      <trkpt lat="45.55026" lon="6.78625">
        <ele>2108.7</ele>
        <time>2021-03-25T12:39:35Z</time>
      </trkpt>
      <trkpt lat="45.55026" lon="6.78625">
        <ele>2108.7</ele>
        <time>2021-03-25T12:39:36Z</time>
      </trkpt>
      <trkpt lat="45.55026" lon="6.78625">
        <ele>2108.7</ele>
        <time>2021-03-25T12:39:37Z</time>
      </trkpt>
      <trkpt lat="45.55026" lon="6.78625">
        <ele>2108.7</ele>
        <time>2021-03-25T12:39:38Z</time>
      </trkpt>
      <trkpt lat="45.55026" lon="6.78625">
        <ele>2108.7</ele>
        <time>2021-03-25T12:39:39Z</time>
      </trkpt>
      <trkpt lat="45.55026" lon="6.78625">
        <ele>2108.7</ele>
        <time>2021-03-25T12:39:40Z</time>
      </trkpt>
      <trkpt lat="45.55027" lon="6.78624">
        <ele>2107.9</ele>
        <time>2021-03-25T12:39:41Z</time>
      </trkpt>
      <trkpt lat="45.55027" lon="6.78624">
        <ele>2107.9</ele>
        <time>2021-03-25T12:39:42Z</time>
      </trkpt>
      <trkpt lat="45.55027" lon="6.78623">
        <ele>2107.9</ele>
        <time>2021-03-25T12:39:43Z</time>
      </trkpt>
      <trkpt lat="45.55027" lon="6.78623">
        <ele>2107.9</ele>
        <time>2021-03-25T12:39:44Z</time>
      </trkpt>
      <trkpt lat="45.55027" lon="6.78623">
        <ele>2107.9</ele>
        <time>2021-03-25T12:39:45Z</time>
      </trkpt>
      <trkpt lat="45.55026" lon="6.7861">
        <ele>2105.2</ele>
        <time>2021-03-25T12:39:53Z</time>
      </trkpt>
      <trkpt lat="45.55024" lon="6.78603">
        <ele>2104.6</ele>
        <time>2021-03-25T12:39:54Z</time>
      </trkpt>
      <trkpt lat="45.55024" lon="6.78598">
        <ele>2102.5</ele>
        <time>2021-03-25T12:39:55Z</time>
      </trkpt>
      <trkpt lat="45.55027" lon="6.78592">
        <ele>2101.7</ele>
        <time>2021-03-25T12:39:56Z</time>
      </trkpt>
      <trkpt lat="45.55031" lon="6.78588">
        <ele>2100.4</ele>
        <time>2021-03-25T12:39:57Z</time>
      </trkpt>
      <trkpt lat="45.55035" lon="6.78583">
        <ele>2099.4</ele>
        <time>2021-03-25T12:39:58Z</time>
      </trkpt>
      <trkpt lat="45.5504" lon="6.78577">
        <ele>2097.7</ele>
        <time>2021-03-25T12:39:59Z</time>
      </trkpt>
      <trkpt lat="45.55044" lon="6.78571">
        <ele>2096.9</ele>
        <time>2021-03-25T12:40:00Z</time>
      </trkpt>
      <trkpt lat="45.55048" lon="6.78564">
        <ele>2095.1</ele>
        <time>2021-03-25T12:40:01Z</time>
      </trkpt>
      <trkpt lat="45.55051" lon="6.78557">
        <ele>2094.3</ele>
        <time>2021-03-25T12:40:02Z</time>
      </trkpt>
      <trkpt lat="45.55052" lon="6.78549">
        <ele>2092.4</ele>
        <time>2021-03-25T12:40:03Z</time>
      </trkpt>
      <trkpt lat="45.55053" lon="6.78542">
        <ele>2090.7</ele>
        <time>2021-03-25T12:40:04Z</time>
      </trkpt>
      <trkpt lat="45.55056" lon="6.78536">
        <ele>2089.5</ele>
        <time>2021-03-25T12:40:05Z</time>
      </trkpt>
      <trkpt lat="45.55058" lon="6.78529">
        <ele>2087.2</ele>
        <time>2021-03-25T12:40:06Z</time>
      </trkpt>
      <trkpt lat="45.55056" lon="6.78523">
        <ele>2086.4</ele>
        <time>2021-03-25T12:40:07Z</time>
      </trkpt>
      <trkpt lat="45.55058" lon="6.78517">
        <ele>2084</ele>
        <time>2021-03-25T12:40:08Z</time>
      </trkpt>
      <trkpt lat="45.55061" lon="6.78509">
        <ele>2082.6</ele>
        <time>2021-03-25T12:40:09Z</time>
      </trkpt>
      <trkpt lat="45.5506" lon="6.78499">
        <ele>2080</ele>
        <time>2021-03-25T12:40:10Z</time>
      </trkpt>
      <trkpt lat="45.55059" lon="6.78492">
        <ele>2079</ele>
        <time>2021-03-25T12:40:11Z</time>
      </trkpt>
      <trkpt lat="45.55058" lon="6.78486">
        <ele>2076.9</ele>
        <time>2021-03-25T12:40:12Z</time>
      </trkpt>
      <trkpt lat="45.55058" lon="6.78484">
        <ele>2076.9</ele>
        <time>2021-03-25T12:40:13Z</time>
      </trkpt>
      <trkpt lat="45.55061" lon="6.78475">
        <ele>2074.4</ele>
        <time>2021-03-25T12:40:14Z</time>
      </trkpt>
      <trkpt lat="45.55064" lon="6.78466">
        <ele>2071.9</ele>
        <time>2021-03-25T12:40:15Z</time>
      </trkpt>
      <trkpt lat="45.55066" lon="6.78459">
        <ele>2069.8</ele>
        <time>2021-03-25T12:40:16Z</time>
      </trkpt>
      <trkpt lat="45.5507" lon="6.78456">
        <ele>2068.2</ele>
        <time>2021-03-25T12:40:17Z</time>
      </trkpt>
      <trkpt lat="45.55069" lon="6.78441">
        <ele>2065.4</ele>
        <time>2021-03-25T12:40:18Z</time>
      </trkpt>
      <trkpt lat="45.5507" lon="6.78431">
        <ele>2062.6</ele>
        <time>2021-03-25T12:40:19Z</time>
      </trkpt>
      <trkpt lat="45.55078" lon="6.78425">
        <ele>2060.9</ele>
        <time>2021-03-25T12:40:20Z</time>
      </trkpt>
      <trkpt lat="45.55082" lon="6.78415">
        <ele>2059.2</ele>
        <time>2021-03-25T12:40:21Z</time>
      </trkpt>
      <trkpt lat="45.55075" lon="6.78403">
        <ele>2058</ele>
        <time>2021-03-25T12:40:22Z</time>
      </trkpt>
      <trkpt lat="45.5508" lon="6.78396">
        <ele>2056.1</ele>
        <time>2021-03-25T12:40:23Z</time>
      </trkpt>
      <trkpt lat="45.55083" lon="6.78387">
        <ele>2054.2</ele>
        <time>2021-03-25T12:40:24Z</time>
      </trkpt>
      <trkpt lat="45.55082" lon="6.78377">
        <ele>2052.6</ele>
        <time>2021-03-25T12:40:25Z</time>
      </trkpt>
      <trkpt lat="45.55082" lon="6.78367">
        <ele>2050.5</ele>
        <time>2021-03-25T12:40:26Z</time>
      </trkpt>
      <trkpt lat="45.55086" lon="6.7836">
        <ele>2049.6</ele>
        <time>2021-03-25T12:40:27Z</time>
      </trkpt>
      <trkpt lat="45.55081" lon="6.78349">
        <ele>2047.8</ele>
        <time>2021-03-25T12:40:28Z</time>
      </trkpt>
      <trkpt lat="45.5508" lon="6.78343">
        <ele>2047</ele>
        <time>2021-03-25T12:40:29Z</time>
      </trkpt>
      <trkpt lat="45.55081" lon="6.78335">
        <ele>2045.5</ele>
        <time>2021-03-25T12:40:30Z</time>
      </trkpt>
      <trkpt lat="45.55083" lon="6.78328">
        <ele>2043.8</ele>
        <time>2021-03-25T12:40:31Z</time>
      </trkpt>
      <trkpt lat="45.55084" lon="6.7832">
        <ele>2042.4</ele>
        <time>2021-03-25T12:40:32Z</time>
      </trkpt>
      <trkpt lat="45.55084" lon="6.78313">
        <ele>2041.7</ele>
        <time>2021-03-25T12:40:33Z</time>
      </trkpt>
      <trkpt lat="45.55082" lon="6.78304">
        <ele>2040.3</ele>
        <time>2021-03-25T12:40:34Z</time>
      </trkpt>
      <trkpt lat="45.55086" lon="6.78291">
        <ele>2038</ele>
        <time>2021-03-25T12:40:35Z</time>
      </trkpt>
      <trkpt lat="45.55087" lon="6.78281">
        <ele>2036.3</ele>
        <time>2021-03-25T12:40:36Z</time>
      </trkpt>
      <trkpt lat="45.55092" lon="6.7827">
        <ele>2034.7</ele>
        <time>2021-03-25T12:40:37Z</time>
      </trkpt>
      <trkpt lat="45.55093" lon="6.78258">
        <ele>2032.8</ele>
        <time>2021-03-25T12:40:38Z</time>
      </trkpt>
      <trkpt lat="45.55094" lon="6.78244">
        <ele>2030.3</ele>
        <time>2021-03-25T12:40:39Z</time>
      </trkpt>
      <trkpt lat="45.55098" lon="6.78233">
        <ele>2028.1</ele>
        <time>2021-03-25T12:40:40Z</time>
      </trkpt>
      <trkpt lat="45.55101" lon="6.78223">
        <ele>2026.8</ele>
        <time>2021-03-25T12:40:41Z</time>
      </trkpt>
      <trkpt lat="45.551" lon="6.78212">
        <ele>2025.3</ele>
        <time>2021-03-25T12:40:42Z</time>
      </trkpt>
      <trkpt lat="45.55089" lon="6.78196">
        <ele>2024.8</ele>
        <time>2021-03-25T12:40:43Z</time>
      </trkpt>
      <trkpt lat="45.55088" lon="6.78184">
        <ele>2023.5</ele>
        <time>2021-03-25T12:40:44Z</time>
      </trkpt>
      <trkpt lat="45.5509" lon="6.78174">
        <ele>2022.3</ele>
        <time>2021-03-25T12:40:45Z</time>
      </trkpt>
      <trkpt lat="45.55086" lon="6.78163">
        <ele>2021.7</ele>
        <time>2021-03-25T12:40:46Z</time>
      </trkpt>
      <trkpt lat="45.55085" lon="6.78153">
        <ele>2020.9</ele>
        <time>2021-03-25T12:40:47Z</time>
      </trkpt>
      <trkpt lat="45.55084" lon="6.78141">
        <ele>2020.2</ele>
        <time>2021-03-25T12:40:48Z</time>
      </trkpt>
      <trkpt lat="45.55082" lon="6.78131">
        <ele>2019.6</ele>
        <time>2021-03-25T12:40:49Z</time>
      </trkpt>
      <trkpt lat="45.55082" lon="6.78121">
        <ele>2018.7</ele>
        <time>2021-03-25T12:40:50Z</time>
      </trkpt>
      <trkpt lat="45.55081" lon="6.78111">
        <ele>2018.2</ele>
        <time>2021-03-25T12:40:51Z</time>
      </trkpt>
      <trkpt lat="45.55079" lon="6.78101">
        <ele>2017.4</ele>
        <time>2021-03-25T12:40:52Z</time>
      </trkpt>
      <trkpt lat="45.5508" lon="6.78091">
        <ele>2015.9</ele>
        <time>2021-03-25T12:40:53Z</time>
      </trkpt>
      <trkpt lat="45.55078" lon="6.78084">
        <ele>2015.5</ele>
        <time>2021-03-25T12:40:54Z</time>
      </trkpt>
      <trkpt lat="45.55076" lon="6.78078">
        <ele>2014</ele>
        <time>2021-03-25T12:40:55Z</time>
      </trkpt>
      <trkpt lat="45.55075" lon="6.78072">
        <ele>2013.3</ele>
        <time>2021-03-25T12:40:56Z</time>
      </trkpt>
      <trkpt lat="45.55073" lon="6.78064">
        <ele>2011.6</ele>
        <time>2021-03-25T12:40:57Z</time>
      </trkpt>
      <trkpt lat="45.55067" lon="6.78055">
        <ele>2010.2</ele>
        <time>2021-03-25T12:40:58Z</time>
      </trkpt>
      <trkpt lat="45.55063" lon="6.78047">
        <ele>2008.9</ele>
        <time>2021-03-25T12:40:59Z</time>
      </trkpt>
      <trkpt lat="45.55064" lon="6.7804">
        <ele>2007</ele>
        <time>2021-03-25T12:41:00Z</time>
      </trkpt>
      <trkpt lat="45.55062" lon="6.78034">
        <ele>2006.3</ele>
        <time>2021-03-25T12:41:01Z</time>
      </trkpt>
      <trkpt lat="45.55059" lon="6.78027">
        <ele>2004.7</ele>
        <time>2021-03-25T12:41:02Z</time>
      </trkpt>
      <trkpt lat="45.55054" lon="6.78019">
        <ele>2003.3</ele>
        <time>2021-03-25T12:41:03Z</time>
      </trkpt>
      <trkpt lat="45.55048" lon="6.78013">
        <ele>2002.6</ele>
        <time>2021-03-25T12:41:04Z</time>
      </trkpt>
      <trkpt lat="45.55043" lon="6.78006">
        <ele>2001.2</ele>
        <time>2021-03-25T12:41:05Z</time>
      </trkpt>
      <trkpt lat="45.55036" lon="6.78001">
        <ele>2000.7</ele>
        <time>2021-03-25T12:41:06Z</time>
      </trkpt>
      <trkpt lat="45.5503" lon="6.77995">
        <ele>2000.2</ele>
        <time>2021-03-25T12:41:07Z</time>
      </trkpt>
      <trkpt lat="45.55025" lon="6.77991">
        <ele>1999.8</ele>
        <time>2021-03-25T12:41:08Z</time>
      </trkpt>
      <trkpt lat="45.55021" lon="6.77986">
        <ele>1999.3</ele>
        <time>2021-03-25T12:41:09Z</time>
      </trkpt>
      <trkpt lat="45.55016" lon="6.77983">
        <ele>1998.6</ele>
        <time>2021-03-25T12:41:10Z</time>
      </trkpt>
      <trkpt lat="45.55015" lon="6.77979">
        <ele>1997.7</ele>
        <time>2021-03-25T12:41:11Z</time>
      </trkpt>
      <trkpt lat="45.55015" lon="6.77978">
        <ele>1997.7</ele>
        <time>2021-03-25T12:41:12Z</time>
      </trkpt>
      <trkpt lat="45.55016" lon="6.77979">
        <ele>1997.7</ele>
        <time>2021-03-25T12:41:13Z</time>
      </trkpt>
      <trkpt lat="45.55016" lon="6.77978">
        <ele>1997.7</ele>
        <time>2021-03-25T12:41:14Z</time>
      </trkpt>
      <trkpt lat="45.55017" lon="6.77977">
        <ele>1997.7</ele>
        <time>2021-03-25T12:41:15Z</time>
      </trkpt>
      <trkpt lat="45.55017" lon="6.77976">
        <ele>1996.8</ele>
        <time>2021-03-25T12:41:16Z</time>
      </trkpt>
      <trkpt lat="45.55017" lon="6.77975">
        <ele>1996.8</ele>
        <time>2021-03-25T12:41:17Z</time>
      </trkpt>
      <trkpt lat="45.55018" lon="6.77975">
        <ele>1996.8</ele>
        <time>2021-03-25T12:41:18Z</time>
      </trkpt>
      <trkpt lat="45.55018" lon="6.77974">
        <ele>1996.8</ele>
        <time>2021-03-25T12:41:19Z</time>
      </trkpt>
      <trkpt lat="45.55019" lon="6.77973">
        <ele>1996.7</ele>
        <time>2021-03-25T12:41:20Z</time>
      </trkpt>
      <trkpt lat="45.55019" lon="6.77972">
        <ele>1995.8</ele>
        <time>2021-03-25T12:41:21Z</time>
      </trkpt>
      <trkpt lat="45.55019" lon="6.77971">
        <ele>1995.8</ele>
        <time>2021-03-25T12:41:22Z</time>
      </trkpt>
      <trkpt lat="45.5502" lon="6.7797">
        <ele>1995.8</ele>
        <time>2021-03-25T12:41:48Z</time>
      </trkpt>
      <trkpt lat="45.5502" lon="6.77969">
        <ele>1995.8</ele>
        <time>2021-03-25T12:41:49Z</time>
      </trkpt>
      <trkpt lat="45.55019" lon="6.77963">
        <ele>1994.1</ele>
        <time>2021-03-25T12:41:50Z</time>
      </trkpt>
      <trkpt lat="45.55017" lon="6.77956">
        <ele>1993.4</ele>
        <time>2021-03-25T12:41:51Z</time>
      </trkpt>
      <trkpt lat="45.55018" lon="6.7795">
        <ele>1991.7</ele>
        <time>2021-03-25T12:41:52Z</time>
      </trkpt>
      <trkpt lat="45.55021" lon="6.77942">
        <ele>1989.7</ele>
        <time>2021-03-25T12:41:53Z</time>
      </trkpt>
      <trkpt lat="45.55024" lon="6.77935">
        <ele>1988.7</ele>
        <time>2021-03-25T12:41:54Z</time>
      </trkpt>
      <trkpt lat="45.55026" lon="6.77927">
        <ele>1986.6</ele>
        <time>2021-03-25T12:41:55Z</time>
      </trkpt>
      <trkpt lat="45.55029" lon="6.77921">
        <ele>1984.6</ele>
        <time>2021-03-25T12:41:56Z</time>
      </trkpt>
      <trkpt lat="45.55033" lon="6.77914">
        <ele>1983.5</ele>
        <time>2021-03-25T12:41:57Z</time>
      </trkpt>
      <trkpt lat="45.55037" lon="6.77911">
        <ele>1982.2</ele>
        <time>2021-03-25T12:41:58Z</time>
      </trkpt>
      <trkpt lat="45.55037" lon="6.77903">
        <ele>1980.4</ele>
        <time>2021-03-25T12:41:59Z</time>
      </trkpt>
      <trkpt lat="45.55042" lon="6.77898">
        <ele>1978.8</ele>
        <time>2021-03-25T12:42:00Z</time>
      </trkpt>
      <trkpt lat="45.55046" lon="6.77891">
        <ele>1977.4</ele>
        <time>2021-03-25T12:42:01Z</time>
      </trkpt>
      <trkpt lat="45.55048" lon="6.77879">
        <ele>1973.9</ele>
        <time>2021-03-25T12:42:02Z</time>
      </trkpt>
      <trkpt lat="45.55052" lon="6.7787">
        <ele>1971.1</ele>
        <time>2021-03-25T12:42:03Z</time>
      </trkpt>
      <trkpt lat="45.55055" lon="6.77862">
        <ele>1968.6</ele>
        <time>2021-03-25T12:42:04Z</time>
      </trkpt>
      <trkpt lat="45.55046" lon="6.77848">
        <ele>1965.3</ele>
        <time>2021-03-25T12:42:05Z</time>
      </trkpt>
      <trkpt lat="45.55043" lon="6.77838">
        <ele>1962.3</ele>
        <time>2021-03-25T12:42:06Z</time>
      </trkpt>
      <trkpt lat="45.55045" lon="6.77828">
        <ele>1960.2</ele>
        <time>2021-03-25T12:42:07Z</time>
      </trkpt>
      <trkpt lat="45.5505" lon="6.77822">
        <ele>1958.5</ele>
        <time>2021-03-25T12:42:08Z</time>
      </trkpt>
      <trkpt lat="45.55053" lon="6.77815">
        <ele>1956</ele>
        <time>2021-03-25T12:42:09Z</time>
      </trkpt>
      <trkpt lat="45.55046" lon="6.77804">
        <ele>1953</ele>
        <time>2021-03-25T12:42:10Z</time>
      </trkpt>
      <trkpt lat="45.55047" lon="6.77795">
        <ele>1950.7</ele>
        <time>2021-03-25T12:42:11Z</time>
      </trkpt>
      <trkpt lat="45.55052" lon="6.77788">
        <ele>1949.1</ele>
        <time>2021-03-25T12:42:12Z</time>
      </trkpt>
      <trkpt lat="45.55052" lon="6.77779">
        <ele>1946.2</ele>
        <time>2021-03-25T12:42:13Z</time>
      </trkpt>
      <trkpt lat="45.55052" lon="6.77768">
        <ele>1944.3</ele>
        <time>2021-03-25T12:42:14Z</time>
      </trkpt>
      <trkpt lat="45.5506" lon="6.77761">
        <ele>1941.8</ele>
        <time>2021-03-25T12:42:15Z</time>
      </trkpt>
      <trkpt lat="45.55057" lon="6.77747">
        <ele>1939.2</ele>
        <time>2021-03-25T12:42:16Z</time>
      </trkpt>
      <trkpt lat="45.55057" lon="6.77735">
        <ele>1936.6</ele>
        <time>2021-03-25T12:42:17Z</time>
      </trkpt>
      <trkpt lat="45.55066" lon="6.77728">
        <ele>1933.9</ele>
        <time>2021-03-25T12:42:18Z</time>
      </trkpt>
      <trkpt lat="45.55071" lon="6.77717">
        <ele>1931.3</ele>
        <time>2021-03-25T12:42:19Z</time>
      </trkpt>
      <trkpt lat="45.55078" lon="6.77706">
        <ele>1927.9</ele>
        <time>2021-03-25T12:42:20Z</time>
      </trkpt>
      <trkpt lat="45.55085" lon="6.77695">
        <ele>1925.2</ele>
        <time>2021-03-25T12:42:21Z</time>
      </trkpt>
      <trkpt lat="45.55092" lon="6.77683">
        <ele>1922.1</ele>
        <time>2021-03-25T12:42:22Z</time>
      </trkpt>
      <trkpt lat="45.55089" lon="6.77665">
        <ele>1919</ele>
        <time>2021-03-25T12:42:23Z</time>
      </trkpt>
      <trkpt lat="45.5509" lon="6.77651">
        <ele>1916.8</ele>
        <time>2021-03-25T12:42:24Z</time>
      </trkpt>
      <trkpt lat="45.55088" lon="6.77633">
        <ele>1914.5</ele>
        <time>2021-03-25T12:42:25Z</time>
      </trkpt>
      <trkpt lat="45.5509" lon="6.77619">
        <ele>1911.8</ele>
        <time>2021-03-25T12:42:26Z</time>
      </trkpt>
      <trkpt lat="45.55092" lon="6.77601">
        <ele>1908.8</ele>
        <time>2021-03-25T12:42:27Z</time>
      </trkpt>
      <trkpt lat="45.55094" lon="6.77585">
        <ele>1905.6</ele>
        <time>2021-03-25T12:42:28Z</time>
      </trkpt>
      <trkpt lat="45.55094" lon="6.7757">
        <ele>1903.4</ele>
        <time>2021-03-25T12:42:29Z</time>
      </trkpt>
      <trkpt lat="45.55096" lon="6.77555">
        <ele>1900.8</ele>
        <time>2021-03-25T12:42:30Z</time>
      </trkpt>
      <trkpt lat="45.55098" lon="6.77542">
        <ele>1898.5</ele>
        <time>2021-03-25T12:42:31Z</time>
      </trkpt>
      <trkpt lat="45.55099" lon="6.7753">
        <ele>1895.7</ele>
        <time>2021-03-25T12:42:32Z</time>
      </trkpt>
      <trkpt lat="45.55103" lon="6.77521">
        <ele>1893.6</ele>
        <time>2021-03-25T12:42:33Z</time>
      </trkpt>
      <trkpt lat="45.55106" lon="6.77509">
        <ele>1891.7</ele>
        <time>2021-03-25T12:42:34Z</time>
      </trkpt>
      <trkpt lat="45.5511" lon="6.77496">
        <ele>1889.2</ele>
        <time>2021-03-25T12:42:35Z</time>
      </trkpt>
      <trkpt lat="45.55114" lon="6.77484">
        <ele>1886.7</ele>
        <time>2021-03-25T12:42:36Z</time>
      </trkpt>
      <trkpt lat="45.55123" lon="6.77474">
        <ele>1883.2</ele>
        <time>2021-03-25T12:42:37Z</time>
      </trkpt>
      <trkpt lat="45.55128" lon="6.77461">
        <ele>1880.3</ele>
        <time>2021-03-25T12:42:38Z</time>
      </trkpt>
      <trkpt lat="45.55134" lon="6.77447">
        <ele>1877.3</ele>
        <time>2021-03-25T12:42:39Z</time>
      </trkpt>
      <trkpt lat="45.55135" lon="6.77434">
        <ele>1875.3</ele>
        <time>2021-03-25T12:42:40Z</time>
      </trkpt>
      <trkpt lat="45.55141" lon="6.77423">
        <ele>1872.6</ele>
        <time>2021-03-25T12:42:41Z</time>
      </trkpt>
      <trkpt lat="45.55146" lon="6.77411">
        <ele>1870.4</ele>
        <time>2021-03-25T12:42:42Z</time>
      </trkpt>
      <trkpt lat="45.55148" lon="6.77402">
        <ele>1868.7</ele>
        <time>2021-03-25T12:42:43Z</time>
      </trkpt>
      <trkpt lat="45.55157" lon="6.77389">
        <ele>1865.4</ele>
        <time>2021-03-25T12:42:44Z</time>
      </trkpt>
      <trkpt lat="45.55163" lon="6.7738">
        <ele>1862.7</ele>
        <time>2021-03-25T12:42:45Z</time>
      </trkpt>
      <trkpt lat="45.55171" lon="6.77371">
        <ele>1860.7</ele>
        <time>2021-03-25T12:42:46Z</time>
      </trkpt>
      <trkpt lat="45.55176" lon="6.7736">
        <ele>1858.6</ele>
        <time>2021-03-25T12:42:47Z</time>
      </trkpt>
      <trkpt lat="45.55184" lon="6.77351">
        <ele>1856.3</ele>
        <time>2021-03-25T12:42:48Z</time>
      </trkpt>
      <trkpt lat="45.55189" lon="6.77348">
        <ele>1855.3</ele>
        <time>2021-03-25T12:42:49Z</time>
      </trkpt>
      <trkpt lat="45.55191" lon="6.77343">
        <ele>1854.3</ele>
        <time>2021-03-25T12:42:50Z</time>
      </trkpt>
      <trkpt lat="45.55195" lon="6.77337">
        <ele>1852.7</ele>
        <time>2021-03-25T12:42:51Z</time>
      </trkpt>
      <trkpt lat="45.55195" lon="6.77329">
        <ele>1852.1</ele>
        <time>2021-03-25T12:42:52Z</time>
      </trkpt>
      <trkpt lat="45.55197" lon="6.77323">
        <ele>1850.4</ele>
        <time>2021-03-25T12:42:53Z</time>
      </trkpt>
      <trkpt lat="45.55196" lon="6.77326">
        <ele>1851</ele>
        <time>2021-03-25T12:42:54Z</time>
      </trkpt>
      <trkpt lat="45.55194" lon="6.77326">
        <ele>1851.4</ele>
        <time>2021-03-25T12:42:55Z</time>
      </trkpt>
      <trkpt lat="45.55193" lon="6.77326">
        <ele>1851.4</ele>
        <time>2021-03-25T12:42:56Z</time>
      </trkpt>
      <trkpt lat="45.55193" lon="6.77327">
        <ele>1851.4</ele>
        <time>2021-03-25T12:42:57Z</time>
      </trkpt>
      <trkpt lat="45.55193" lon="6.77327">
        <ele>1851.4</ele>
        <time>2021-03-25T12:42:58Z</time>
      </trkpt>
      <trkpt lat="45.55192" lon="6.77328">
        <ele>1851.9</ele>
        <time>2021-03-25T12:42:59Z</time>
      </trkpt>
      <trkpt lat="45.55192" lon="6.77328">
        <ele>1851.9</ele>
        <time>2021-03-25T12:43:00Z</time>
      </trkpt>
      <trkpt lat="45.55191" lon="6.77326">
        <ele>1851.9</ele>
        <time>2021-03-25T12:43:01Z</time>
      </trkpt>
      <trkpt lat="45.55191" lon="6.77323">
        <ele>1851.2</ele>
        <time>2021-03-25T12:43:02Z</time>
      </trkpt>
      <trkpt lat="45.5519" lon="6.77321">
        <ele>1851.2</ele>
        <time>2021-03-25T12:43:03Z</time>
      </trkpt>
      <trkpt lat="45.5519" lon="6.77318">
        <ele>1850.6</ele>
        <time>2021-03-25T12:43:04Z</time>
      </trkpt>
      <trkpt lat="45.5519" lon="6.77315">
        <ele>1850</ele>
        <time>2021-03-25T12:43:20Z</time>
      </trkpt>
      <trkpt lat="45.55189" lon="6.77313">
        <ele>1850.4</ele>
        <time>2021-03-25T12:43:21Z</time>
      </trkpt>
      <trkpt lat="45.5519" lon="6.77306">
        <ele>1848.7</ele>
        <time>2021-03-25T12:43:22Z</time>
      </trkpt>
      <trkpt lat="45.552" lon="6.77305">
        <ele>1847.3</ele>
        <time>2021-03-25T12:43:23Z</time>
      </trkpt>
      <trkpt lat="45.55204" lon="6.77297">
        <ele>1845.7</ele>
        <time>2021-03-25T12:43:24Z</time>
      </trkpt>
      <trkpt lat="45.55207" lon="6.77289">
        <ele>1844.4</ele>
        <time>2021-03-25T12:43:25Z</time>
      </trkpt>
      <trkpt lat="45.55211" lon="6.77282">
        <ele>1843.2</ele>
        <time>2021-03-25T12:43:26Z</time>
      </trkpt>
      <trkpt lat="45.55213" lon="6.77273">
        <ele>1842.1</ele>
        <time>2021-03-25T12:43:27Z</time>
      </trkpt>
      <trkpt lat="45.55216" lon="6.77263">
        <ele>1839.7</ele>
        <time>2021-03-25T12:43:28Z</time>
      </trkpt>
      <trkpt lat="45.5522" lon="6.77256">
        <ele>1838.2</ele>
        <time>2021-03-25T12:43:29Z</time>
      </trkpt>
      <trkpt lat="45.55225" lon="6.77251">
        <ele>1836.3</ele>
        <time>2021-03-25T12:43:30Z</time>
      </trkpt>
      <trkpt lat="45.55228" lon="6.77244">
        <ele>1835.2</ele>
        <time>2021-03-25T12:43:31Z</time>
      </trkpt>
      <trkpt lat="45.55225" lon="6.77236">
        <ele>1834.2</ele>
        <time>2021-03-25T12:43:32Z</time>
      </trkpt>
      <trkpt lat="45.55224" lon="6.77228">
        <ele>1832.8</ele>
        <time>2021-03-25T12:43:33Z</time>
      </trkpt>
      <trkpt lat="45.55231" lon="6.77224">
        <ele>1831.2</ele>
        <time>2021-03-25T12:43:34Z</time>
      </trkpt>
      <trkpt lat="45.55234" lon="6.77225">
        <ele>1830.9</ele>
        <time>2021-03-25T12:43:35Z</time>
      </trkpt>
      <trkpt lat="45.55234" lon="6.77214">
        <ele>1829.3</ele>
        <time>2021-03-25T12:43:36Z</time>
      </trkpt>
      <trkpt lat="45.55234" lon="6.77205">
        <ele>1827.9</ele>
        <time>2021-03-25T12:43:37Z</time>
      </trkpt>
      <trkpt lat="45.55233" lon="6.77197">
        <ele>1826.5</ele>
        <time>2021-03-25T12:43:38Z</time>
      </trkpt>
      <trkpt lat="45.55242" lon="6.77193">
        <ele>1825</ele>
        <time>2021-03-25T12:43:39Z</time>
      </trkpt>
      <trkpt lat="45.55249" lon="6.7719">
        <ele>1823.7</ele>
        <time>2021-03-25T12:43:40Z</time>
      </trkpt>
      <trkpt lat="45.55255" lon="6.77184">
        <ele>1822.1</ele>
        <time>2021-03-25T12:43:41Z</time>
      </trkpt>
      <trkpt lat="45.55255" lon="6.77175">
        <ele>1820.5</ele>
        <time>2021-03-25T12:43:42Z</time>
      </trkpt>
      <trkpt lat="45.55258" lon="6.77166">
        <ele>1818.5</ele>
        <time>2021-03-25T12:43:43Z</time>
      </trkpt>
      <trkpt lat="45.55261" lon="6.77158">
        <ele>1816.6</ele>
        <time>2021-03-25T12:43:44Z</time>
      </trkpt>
      <trkpt lat="45.55257" lon="6.77145">
        <ele>1814.8</ele>
        <time>2021-03-25T12:43:45Z</time>
      </trkpt>
      <trkpt lat="45.55259" lon="6.77141">
        <ele>1813.9</ele>
        <time>2021-03-25T12:43:46Z</time>
      </trkpt>
      <trkpt lat="45.55259" lon="6.77132">
        <ele>1812.4</ele>
        <time>2021-03-25T12:43:47Z</time>
      </trkpt>
      <trkpt lat="45.55257" lon="6.77123">
        <ele>1811.1</ele>
        <time>2021-03-25T12:43:48Z</time>
      </trkpt>
      <trkpt lat="45.55257" lon="6.77115">
        <ele>1809.5</ele>
        <time>2021-03-25T12:43:49Z</time>
      </trkpt>
      <trkpt lat="45.55263" lon="6.7711">
        <ele>1807.6</ele>
        <time>2021-03-25T12:43:50Z</time>
      </trkpt>
      <trkpt lat="45.55262" lon="6.771">
        <ele>1806</ele>
        <time>2021-03-25T12:43:51Z</time>
      </trkpt>
      <trkpt lat="45.55257" lon="6.77091">
        <ele>1804.6</ele>
        <time>2021-03-25T12:43:52Z</time>
      </trkpt>
      <trkpt lat="45.55256" lon="6.77082">
        <ele>1802.7</ele>
        <time>2021-03-25T12:43:53Z</time>
      </trkpt>
      <trkpt lat="45.55259" lon="6.77075">
        <ele>1800.7</ele>
        <time>2021-03-25T12:43:54Z</time>
      </trkpt>
      <trkpt lat="45.55262" lon="6.77068">
        <ele>1799.7</ele>
        <time>2021-03-25T12:43:55Z</time>
      </trkpt>
      <trkpt lat="45.55263" lon="6.7706">
        <ele>1797.9</ele>
        <time>2021-03-25T12:43:56Z</time>
      </trkpt>
      <trkpt lat="45.55267" lon="6.77052">
        <ele>1796</ele>
        <time>2021-03-25T12:43:57Z</time>
      </trkpt>
      <trkpt lat="45.55271" lon="6.77048">
        <ele>1794.9</ele>
        <time>2021-03-25T12:43:58Z</time>
      </trkpt>
      <trkpt lat="45.55269" lon="6.77039">
        <ele>1792.9</ele>
        <time>2021-03-25T12:43:59Z</time>
      </trkpt>
      <trkpt lat="45.55267" lon="6.7703">
        <ele>1790.9</ele>
        <time>2021-03-25T12:44:00Z</time>
      </trkpt>
      <trkpt lat="45.55265" lon="6.77022">
        <ele>1788.8</ele>
        <time>2021-03-25T12:44:01Z</time>
      </trkpt>
      <trkpt lat="45.5527" lon="6.77016">
        <ele>1787.8</ele>
        <time>2021-03-25T12:44:02Z</time>
      </trkpt>
      <trkpt lat="45.55269" lon="6.77007">
        <ele>1785.8</ele>
        <time>2021-03-25T12:44:03Z</time>
      </trkpt>
      <trkpt lat="45.55267" lon="6.76999">
        <ele>1783.6</ele>
        <time>2021-03-25T12:44:04Z</time>
      </trkpt>
      <trkpt lat="45.55269" lon="6.76992">
        <ele>1781.1</ele>
        <time>2021-03-25T12:44:05Z</time>
      </trkpt>
      <trkpt lat="45.55269" lon="6.76985">
        <ele>1778.7</ele>
        <time>2021-03-25T12:44:06Z</time>
      </trkpt>
      <trkpt lat="45.55269" lon="6.76978">
        <ele>1777.6</ele>
        <time>2021-03-25T12:44:07Z</time>
      </trkpt>
      <trkpt lat="45.55272" lon="6.76974">
        <ele>1776.4</ele>
        <time>2021-03-25T12:44:08Z</time>
      </trkpt>
      <trkpt lat="45.55274" lon="6.76967">
        <ele>1774.2</ele>
        <time>2021-03-25T12:44:09Z</time>
      </trkpt>
      <trkpt lat="45.55276" lon="6.7696">
        <ele>1773.1</ele>
        <time>2021-03-25T12:44:10Z</time>
      </trkpt>
      <trkpt lat="45.55282" lon="6.76959">
        <ele>1771.6</ele>
        <time>2021-03-25T12:44:11Z</time>
      </trkpt>
      <trkpt lat="45.55272" lon="6.76947">
        <ele>1769.5</ele>
        <time>2021-03-25T12:44:12Z</time>
      </trkpt>
      <trkpt lat="45.55272" lon="6.7694">
        <ele>1766.9</ele>
        <time>2021-03-25T12:44:13Z</time>
      </trkpt>
      <trkpt lat="45.55271" lon="6.76934">
        <ele>1764.4</ele>
        <time>2021-03-25T12:44:14Z</time>
      </trkpt>
      <trkpt lat="45.55273" lon="6.76928">
        <ele>1763.3</ele>
        <time>2021-03-25T12:44:15Z</time>
      </trkpt>
      <trkpt lat="45.55266" lon="6.76923">
        <ele>1761.9</ele>
        <time>2021-03-25T12:44:16Z</time>
      </trkpt>
      <trkpt lat="45.55267" lon="6.76916">
        <ele>1759.5</ele>
        <time>2021-03-25T12:44:17Z</time>
      </trkpt>
      <trkpt lat="45.5527" lon="6.7691">
        <ele>1758.4</ele>
        <time>2021-03-25T12:44:18Z</time>
      </trkpt>
      <trkpt lat="45.55269" lon="6.76905">
        <ele>1757.2</ele>
        <time>2021-03-25T12:44:19Z</time>
      </trkpt>
      <trkpt lat="45.5527" lon="6.76902">
        <ele>1755.9</ele>
        <time>2021-03-25T12:44:20Z</time>
      </trkpt>
      <trkpt lat="45.55271" lon="6.76896">
        <ele>1754.8</ele>
        <time>2021-03-25T12:44:21Z</time>
      </trkpt>
      <trkpt lat="45.55273" lon="6.76889">
        <ele>1752.4</ele>
        <time>2021-03-25T12:44:22Z</time>
      </trkpt>
      <trkpt lat="45.55275" lon="6.76882">
        <ele>1751.3</ele>
        <time>2021-03-25T12:44:23Z</time>
      </trkpt>
      <trkpt lat="45.55278" lon="6.76876">
        <ele>1749</ele>
        <time>2021-03-25T12:44:24Z</time>
      </trkpt>
      <trkpt lat="45.55279" lon="6.76868">
        <ele>1746.5</ele>
        <time>2021-03-25T12:44:25Z</time>
      </trkpt>
      <trkpt lat="45.55281" lon="6.76862">
        <ele>1745.1</ele>
        <time>2021-03-25T12:44:26Z</time>
      </trkpt>
      <trkpt lat="45.55282" lon="6.76855">
        <ele>1742.4</ele>
        <time>2021-03-25T12:44:27Z</time>
      </trkpt>
      <trkpt lat="45.55283" lon="6.76849">
        <ele>1741</ele>
        <time>2021-03-25T12:44:28Z</time>
      </trkpt>
      <trkpt lat="45.55284" lon="6.76844">
        <ele>1738.5</ele>
        <time>2021-03-25T12:44:29Z</time>
      </trkpt>
      <trkpt lat="45.55286" lon="6.76838">
        <ele>1737.2</ele>
        <time>2021-03-25T12:44:30Z</time>
      </trkpt>
      <trkpt lat="45.55288" lon="6.76833">
        <ele>1736</ele>
        <time>2021-03-25T12:44:31Z</time>
      </trkpt>
      <trkpt lat="45.5529" lon="6.76827">
        <ele>1734.7</ele>
        <time>2021-03-25T12:44:32Z</time>
      </trkpt>
      <trkpt lat="45.55293" lon="6.76821">
        <ele>1732</ele>
        <time>2021-03-25T12:44:33Z</time>
      </trkpt>
      <trkpt lat="45.55294" lon="6.76814">
        <ele>1730.7</ele>
        <time>2021-03-25T12:44:34Z</time>
      </trkpt>
      <trkpt lat="45.55295" lon="6.76807">
        <ele>1727.9</ele>
        <time>2021-03-25T12:44:35Z</time>
      </trkpt>
      <trkpt lat="45.55295" lon="6.768">
        <ele>1725.4</ele>
        <time>2021-03-25T12:44:36Z</time>
      </trkpt>
      <trkpt lat="45.55294" lon="6.76794">
        <ele>1724.2</ele>
        <time>2021-03-25T12:44:37Z</time>
      </trkpt>
      <trkpt lat="45.55294" lon="6.76787">
        <ele>1721.8</ele>
        <time>2021-03-25T12:44:38Z</time>
      </trkpt>
      <trkpt lat="45.55294" lon="6.7678">
        <ele>1720.6</ele>
        <time>2021-03-25T12:44:39Z</time>
      </trkpt>
      <trkpt lat="45.55296" lon="6.76772">
        <ele>1717.7</ele>
        <time>2021-03-25T12:44:40Z</time>
      </trkpt>
      <trkpt lat="45.55296" lon="6.76764">
        <ele>1714.9</ele>
        <time>2021-03-25T12:44:41Z</time>
      </trkpt>
      <trkpt lat="45.55297" lon="6.76757">
        <ele>1711.2</ele>
        <time>2021-03-25T12:44:42Z</time>
      </trkpt>
      <trkpt lat="45.55296" lon="6.76747">
        <ele>1708.4</ele>
        <time>2021-03-25T12:44:43Z</time>
      </trkpt>
      <trkpt lat="45.55297" lon="6.76742">
        <ele>1707.1</ele>
        <time>2021-03-25T12:44:44Z</time>
      </trkpt>
      <trkpt lat="45.55292" lon="6.76733">
        <ele>1704.3</ele>
        <time>2021-03-25T12:44:45Z</time>
      </trkpt>
      <trkpt lat="45.5529" lon="6.76725">
        <ele>1701.4</ele>
        <time>2021-03-25T12:44:46Z</time>
      </trkpt>
      <trkpt lat="45.5528" lon="6.76716">
        <ele>1698.7</ele>
        <time>2021-03-25T12:44:47Z</time>
      </trkpt>
      <trkpt lat="45.55275" lon="6.76711">
        <ele>1697.5</ele>
        <time>2021-03-25T12:44:48Z</time>
      </trkpt>
      <trkpt lat="45.55271" lon="6.76708">
        <ele>1696.2</ele>
        <time>2021-03-25T12:44:49Z</time>
      </trkpt>
      <trkpt lat="45.55267" lon="6.76707">
        <ele>1696.1</ele>
        <time>2021-03-25T12:44:50Z</time>
      </trkpt>
      <trkpt lat="45.55265" lon="6.76705">
        <ele>1694.8</ele>
        <time>2021-03-25T12:44:51Z</time>
      </trkpt>
      <trkpt lat="45.55264" lon="6.76705">
        <ele>1694.8</ele>
        <time>2021-03-25T12:44:52Z</time>
      </trkpt>
      <trkpt lat="45.55263" lon="6.76706">
        <ele>1694.8</ele>
        <time>2021-03-25T12:44:53Z</time>
      </trkpt>
      <trkpt lat="45.55263" lon="6.76706">
        <ele>1694.8</ele>
        <time>2021-03-25T12:44:54Z</time>
      </trkpt>
      <trkpt lat="45.55263" lon="6.76706">
        <ele>1694.8</ele>
        <time>2021-03-25T12:44:55Z</time>
      </trkpt>
      <trkpt lat="45.55263" lon="6.76706">
        <ele>1694.8</ele>
        <time>2021-03-25T12:44:56Z</time>
      </trkpt>
      <trkpt lat="45.55263" lon="6.76706">
        <ele>1694.8</ele>
        <time>2021-03-25T12:44:57Z</time>
      </trkpt>
      <trkpt lat="45.55263" lon="6.76706">
        <ele>1694.8</ele>
        <time>2021-03-25T12:44:58Z</time>
      </trkpt>
      <trkpt lat="45.55263" lon="6.76706">
        <ele>1694.8</ele>
        <time>2021-03-25T12:44:59Z</time>
      </trkpt>
      <trkpt lat="45.55263" lon="6.76706">
        <ele>1694.8</ele>
        <time>2021-03-25T12:45:00Z</time>
      </trkpt>
      <trkpt lat="45.55263" lon="6.76706">
        <ele>1694.8</ele>
        <time>2021-03-25T12:45:01Z</time>
      </trkpt>
      <trkpt lat="45.55263" lon="6.76706">
        <ele>1694.8</ele>
        <time>2021-03-25T12:45:02Z</time>
      </trkpt>
      <trkpt lat="45.55263" lon="6.76706">
        <ele>1694.7</ele>
        <time>2021-03-25T12:45:03Z</time>
      </trkpt>
      <trkpt lat="45.55263" lon="6.76706">
        <ele>1694.7</ele>
        <time>2021-03-25T12:45:04Z</time>
      </trkpt>
      <trkpt lat="45.55258" lon="6.76697">
        <ele>1692.1</ele>
        <time>2021-03-25T12:45:15Z</time>
      </trkpt>
      <trkpt lat="45.55256" lon="6.76691">
        <ele>1690.9</ele>
        <time>2021-03-25T12:45:16Z</time>
      </trkpt>
      <trkpt lat="45.55254" lon="6.76686">
        <ele>1689.5</ele>
        <time>2021-03-25T12:45:17Z</time>
      </trkpt>
      <trkpt lat="45.55252" lon="6.7668">
        <ele>1686.8</ele>
        <time>2021-03-25T12:45:18Z</time>
      </trkpt>
      <trkpt lat="45.55249" lon="6.76676">
        <ele>1685.4</ele>
        <time>2021-03-25T12:45:19Z</time>
      </trkpt>
      <trkpt lat="45.55247" lon="6.76671">
        <ele>1684.3</ele>
        <time>2021-03-25T12:45:20Z</time>
      </trkpt>
      <trkpt lat="45.55244" lon="6.76666">
        <ele>1682.9</ele>
        <time>2021-03-25T12:45:21Z</time>
      </trkpt>
      <trkpt lat="45.55246" lon="6.76658">
        <ele>1680.8</ele>
        <time>2021-03-25T12:45:22Z</time>
      </trkpt>
      <trkpt lat="45.55246" lon="6.76651">
        <ele>1679.8</ele>
        <time>2021-03-25T12:45:23Z</time>
      </trkpt>
      <trkpt lat="45.55245" lon="6.76645">
        <ele>1677.6</ele>
        <time>2021-03-25T12:45:24Z</time>
      </trkpt>
      <trkpt lat="45.55244" lon="6.7664">
        <ele>1676.4</ele>
        <time>2021-03-25T12:45:25Z</time>
      </trkpt>
      <trkpt lat="45.55244" lon="6.76633">
        <ele>1673.9</ele>
        <time>2021-03-25T12:45:26Z</time>
      </trkpt>
      <trkpt lat="45.55242" lon="6.76626">
        <ele>1672.8</ele>
        <time>2021-03-25T12:45:27Z</time>
      </trkpt>
      <trkpt lat="45.5524" lon="6.7662">
        <ele>1670.6</ele>
        <time>2021-03-25T12:45:28Z</time>
      </trkpt>
      <trkpt lat="45.55238" lon="6.76612">
        <ele>1668.7</ele>
        <time>2021-03-25T12:45:29Z</time>
      </trkpt>
      <trkpt lat="45.55237" lon="6.76606">
        <ele>1667.6</ele>
        <time>2021-03-25T12:45:30Z</time>
      </trkpt>
      <trkpt lat="45.55237" lon="6.76599">
        <ele>1666.5</ele>
        <time>2021-03-25T12:45:31Z</time>
      </trkpt>
      <trkpt lat="45.55231" lon="6.76592">
        <ele>1663.9</ele>
        <time>2021-03-25T12:45:32Z</time>
      </trkpt>
      <trkpt lat="45.55229" lon="6.76586">
        <ele>1661.6</ele>
        <time>2021-03-25T12:45:33Z</time>
      </trkpt>
      <trkpt lat="45.55229" lon="6.76577">
        <ele>1659.5</ele>
        <time>2021-03-25T12:45:34Z</time>
      </trkpt>
      <trkpt lat="45.55227" lon="6.76571">
        <ele>1658.3</ele>
        <time>2021-03-25T12:45:35Z</time>
      </trkpt>
      <trkpt lat="45.55223" lon="6.76564">
        <ele>1656.1</ele>
        <time>2021-03-25T12:45:36Z</time>
      </trkpt>
      <trkpt lat="45.5522" lon="6.7656">
        <ele>1654.8</ele>
        <time>2021-03-25T12:45:37Z</time>
      </trkpt>
      <trkpt lat="45.55215" lon="6.76558">
        <ele>1654.3</ele>
        <time>2021-03-25T12:45:38Z</time>
      </trkpt>
      <trkpt lat="45.55212" lon="6.76553">
        <ele>1652.8</ele>
        <time>2021-03-25T12:45:39Z</time>
      </trkpt>
      <trkpt lat="45.55206" lon="6.76547">
        <ele>1649.6</ele>
        <time>2021-03-25T12:45:40Z</time>
      </trkpt>
      <trkpt lat="45.552" lon="6.7654">
        <ele>1647.7</ele>
        <time>2021-03-25T12:45:41Z</time>
      </trkpt>
      <trkpt lat="45.55191" lon="6.76537">
        <ele>1645.3</ele>
        <time>2021-03-25T12:45:42Z</time>
      </trkpt>
      <trkpt lat="45.55182" lon="6.76536">
        <ele>1644.2</ele>
        <time>2021-03-25T12:45:43Z</time>
      </trkpt>
      <trkpt lat="45.55174" lon="6.76535">
        <ele>1643.2</ele>
        <time>2021-03-25T12:45:44Z</time>
      </trkpt>
      <trkpt lat="45.55165" lon="6.76533">
        <ele>1643</ele>
        <time>2021-03-25T12:45:45Z</time>
      </trkpt>
      <trkpt lat="45.55158" lon="6.76528">
        <ele>1642.8</ele>
        <time>2021-03-25T12:45:46Z</time>
      </trkpt>
      <trkpt lat="45.55149" lon="6.76521">
        <ele>1642.2</ele>
        <time>2021-03-25T12:45:47Z</time>
      </trkpt>
      <trkpt lat="45.5514" lon="6.76517">
        <ele>1641.5</ele>
        <time>2021-03-25T12:45:48Z</time>
      </trkpt>
      <trkpt lat="45.55131" lon="6.76514">
        <ele>1640.8</ele>
        <time>2021-03-25T12:45:49Z</time>
      </trkpt>
      <trkpt lat="45.55125" lon="6.76515">
        <ele>1640.2</ele>
        <time>2021-03-25T12:45:50Z</time>
      </trkpt>
      <trkpt lat="45.55118" lon="6.76515">
        <ele>1639.6</ele>
        <time>2021-03-25T12:45:51Z</time>
      </trkpt>
      <trkpt lat="45.55112" lon="6.76511">
        <ele>1639.1</ele>
        <time>2021-03-25T12:45:52Z</time>
      </trkpt>
      <trkpt lat="45.55107" lon="6.76503">
        <ele>1638.6</ele>
        <time>2021-03-25T12:45:53Z</time>
      </trkpt>
      <trkpt lat="45.55101" lon="6.765">
        <ele>1638.3</ele>
        <time>2021-03-25T12:45:54Z</time>
      </trkpt>
      <trkpt lat="45.55096" lon="6.76499">
        <ele>1637.9</ele>
        <time>2021-03-25T12:45:55Z</time>
      </trkpt>
      <trkpt lat="45.55092" lon="6.76496">
        <ele>1637.5</ele>
        <time>2021-03-25T12:45:56Z</time>
      </trkpt>
      <trkpt lat="45.55088" lon="6.76495">
        <ele>1637.1</ele>
        <time>2021-03-25T12:45:57Z</time>
      </trkpt>
      <trkpt lat="45.55086" lon="6.76494">
        <ele>1637</ele>
        <time>2021-03-25T12:45:58Z</time>
      </trkpt>
      <trkpt lat="45.55083" lon="6.76491">
        <ele>1636.6</ele>
        <time>2021-03-25T12:45:59Z</time>
      </trkpt>
      <trkpt lat="45.55081" lon="6.7649">
        <ele>1636.5</ele>
        <time>2021-03-25T12:46:00Z</time>
      </trkpt>
      <trkpt lat="45.55077" lon="6.76486">
        <ele>1636.1</ele>
        <time>2021-03-25T12:46:01Z</time>
      </trkpt>
      <trkpt lat="45.55073" lon="6.76481">
        <ele>1635.6</ele>
        <time>2021-03-25T12:46:02Z</time>
      </trkpt>
      <trkpt lat="45.55068" lon="6.76476">
        <ele>1635.2</ele>
        <time>2021-03-25T12:46:03Z</time>
      </trkpt>
      <trkpt lat="45.55064" lon="6.76472">
        <ele>1634.8</ele>
        <time>2021-03-25T12:46:04Z</time>
      </trkpt>
      <trkpt lat="45.55061" lon="6.7647">
        <ele>1634.5</ele>
        <time>2021-03-25T12:46:05Z</time>
      </trkpt>
      <trkpt lat="45.55059" lon="6.76464">
        <ele>1634.1</ele>
        <time>2021-03-25T12:46:06Z</time>
      </trkpt>
      <trkpt lat="45.55056" lon="6.76458">
        <ele>1633.6</ele>
        <time>2021-03-25T12:46:07Z</time>
      </trkpt>
      <trkpt lat="45.55056" lon="6.76447">
        <ele>1633.1</ele>
        <time>2021-03-25T12:46:08Z</time>
      </trkpt>
      <trkpt lat="45.55055" lon="6.76438">
        <ele>1632.6</ele>
        <time>2021-03-25T12:46:09Z</time>
      </trkpt>
      <trkpt lat="45.55051" lon="6.76436">
        <ele>1632.4</ele>
        <time>2021-03-25T12:46:10Z</time>
      </trkpt>
      <trkpt lat="45.55049" lon="6.76433">
        <ele>1632.1</ele>
        <time>2021-03-25T12:46:11Z</time>
      </trkpt>
      <trkpt lat="45.55046" lon="6.7643">
        <ele>1631.9</ele>
        <time>2021-03-25T12:46:12Z</time>
      </trkpt>
      <trkpt lat="45.55043" lon="6.76429">
        <ele>1631.8</ele>
        <time>2021-03-25T12:46:13Z</time>
      </trkpt>
      <trkpt lat="45.55042" lon="6.76428">
        <ele>1631.7</ele>
        <time>2021-03-25T12:46:14Z</time>
      </trkpt>
      <trkpt lat="45.5504" lon="6.76427">
        <ele>1631.6</ele>
        <time>2021-03-25T12:46:15Z</time>
      </trkpt>
      <trkpt lat="45.5504" lon="6.76427">
        <ele>1631.6</ele>
        <time>2021-03-25T12:46:16Z</time>
      </trkpt>
      <trkpt lat="45.5504" lon="6.76427">
        <ele>1631.6</ele>
        <time>2021-03-25T12:46:17Z</time>
      </trkpt>
      <trkpt lat="45.5504" lon="6.76427">
        <ele>1631.6</ele>
        <time>2021-03-25T12:46:18Z</time>
      </trkpt>
      <trkpt lat="45.5504" lon="6.76427">
        <ele>1631.6</ele>
        <time>2021-03-25T12:46:19Z</time>
      </trkpt>
      <trkpt lat="45.5504" lon="6.76427">
        <ele>1631.6</ele>
        <time>2021-03-25T12:46:20Z</time>
      </trkpt>
      <trkpt lat="45.5504" lon="6.76427">
        <ele>1631.6</ele>
        <time>2021-03-25T12:46:21Z</time>
      </trkpt>
      <trkpt lat="45.5504" lon="6.76427">
        <ele>1631.6</ele>
        <time>2021-03-25T12:46:22Z</time>
      </trkpt>
      <trkpt lat="45.55039" lon="6.7643">
        <ele>1631.5</ele>
        <time>2021-03-25T12:46:23Z</time>
      </trkpt>
      <trkpt lat="45.55042" lon="6.7643">
        <ele>1631.4</ele>
        <time>2021-03-25T12:46:24Z</time>
      </trkpt>
      <trkpt lat="45.55043" lon="6.7643">
        <ele>1631.4</ele>
        <time>2021-03-25T12:46:25Z</time>
      </trkpt>
      <trkpt lat="45.55044" lon="6.7643">
        <ele>1631.3</ele>
        <time>2021-03-25T12:46:26Z</time>
      </trkpt>
      <trkpt lat="45.55045" lon="6.7643">
        <ele>1631.3</ele>
        <time>2021-03-25T12:46:27Z</time>
      </trkpt>
      <trkpt lat="45.55046" lon="6.7643">
        <ele>1631.2</ele>
        <time>2021-03-25T12:46:28Z</time>
      </trkpt>
      <trkpt lat="45.55046" lon="6.76428">
        <ele>1631.2</ele>
        <time>2021-03-25T12:46:29Z</time>
      </trkpt>
      <trkpt lat="45.55045" lon="6.76427">
        <ele>1631.1</ele>
        <time>2021-03-25T12:46:30Z</time>
      </trkpt>
      <trkpt lat="45.55045" lon="6.76427">
        <ele>1631.1</ele>
        <time>2021-03-25T12:46:31Z</time>
      </trkpt>
      <trkpt lat="45.55046" lon="6.76426">
        <ele>1631.1</ele>
        <time>2021-03-25T12:46:32Z</time>
      </trkpt>
      <trkpt lat="45.55047" lon="6.76423">
        <ele>1631</ele>
        <time>2021-03-25T12:46:33Z</time>
      </trkpt>
      <trkpt lat="45.55047" lon="6.76422">
        <ele>1630.9</ele>
        <time>2021-03-25T12:46:34Z</time>
      </trkpt>
      <trkpt lat="45.55048" lon="6.76421">
        <ele>1630.9</ele>
        <time>2021-03-25T12:46:35Z</time>
      </trkpt>
      <trkpt lat="45.55047" lon="6.76416">
        <ele>1630.7</ele>
        <time>2021-03-25T12:46:36Z</time>
      </trkpt>
      <trkpt lat="45.55046" lon="6.76414">
        <ele>1630.7</ele>
        <time>2021-03-25T12:46:37Z</time>
      </trkpt>
      <trkpt lat="45.55044" lon="6.76411">
        <ele>1630.6</ele>
        <time>2021-03-25T12:46:38Z</time>
      </trkpt>
      <trkpt lat="45.55044" lon="6.7641">
        <ele>1630.5</ele>
        <time>2021-03-25T12:46:39Z</time>
      </trkpt>
      <trkpt lat="45.55043" lon="6.76411">
        <ele>1630.5</ele>
        <time>2021-03-25T12:46:40Z</time>
      </trkpt>
      <trkpt lat="45.55043" lon="6.76412">
        <ele>1630.5</ele>
        <time>2021-03-25T12:46:41Z</time>
      </trkpt>
      <trkpt lat="45.55042" lon="6.76412">
        <ele>1630.5</ele>
        <time>2021-03-25T12:46:42Z</time>
      </trkpt>
      <trkpt lat="45.55042" lon="6.76412">
        <ele>1630.4</ele>
        <time>2021-03-25T12:46:43Z</time>
      </trkpt>
      <trkpt lat="45.55041" lon="6.76412">
        <ele>1630.4</ele>
        <time>2021-03-25T12:46:44Z</time>
      </trkpt>
      <trkpt lat="45.55041" lon="6.76413">
        <ele>1630.4</ele>
        <time>2021-03-25T12:46:45Z</time>
      </trkpt>
      <trkpt lat="45.5504" lon="6.76413">
        <ele>1630.4</ele>
        <time>2021-03-25T12:46:46Z</time>
      </trkpt>
      <trkpt lat="45.5504" lon="6.76413">
        <ele>1630.4</ele>
        <time>2021-03-25T12:46:47Z</time>
      </trkpt>
      <trkpt lat="45.55039" lon="6.76413">
        <ele>1630.3</ele>
        <time>2021-03-25T12:46:48Z</time>
      </trkpt>
      <trkpt lat="45.55039" lon="6.76414">
        <ele>1630.3</ele>
        <time>2021-03-25T12:47:40Z</time>
      </trkpt>
      <trkpt lat="45.55038" lon="6.76414">
        <ele>1630.3</ele>
        <time>2021-03-25T12:47:41Z</time>
      </trkpt>
      <trkpt lat="45.55038" lon="6.76414">
        <ele>1630.3</ele>
        <time>2021-03-25T12:47:42Z</time>
      </trkpt>
      <trkpt lat="45.55037" lon="6.76414">
        <ele>1630.2</ele>
        <time>2021-03-25T12:47:43Z</time>
      </trkpt>
      <trkpt lat="45.55035" lon="6.76414">
        <ele>1630.2</ele>
        <time>2021-03-25T12:47:44Z</time>
      </trkpt>
      <trkpt lat="45.55035" lon="6.76414">
        <ele>1630.1</ele>
        <time>2021-03-25T12:47:45Z</time>
      </trkpt>
      <trkpt lat="45.55034" lon="6.76414">
        <ele>1630.1</ele>
        <time>2021-03-25T12:47:46Z</time>
      </trkpt>
      <trkpt lat="45.55033" lon="6.76414">
        <ele>1630.1</ele>
        <time>2021-03-25T12:47:47Z</time>
      </trkpt>
      <trkpt lat="45.55032" lon="6.76414">
        <ele>1630</ele>
        <time>2021-03-25T12:47:48Z</time>
      </trkpt>
      <trkpt lat="45.55031" lon="6.76415">
        <ele>1630</ele>
        <time>2021-03-25T12:47:49Z</time>
      </trkpt>
      <trkpt lat="45.5503" lon="6.76415">
        <ele>1630</ele>
        <time>2021-03-25T12:47:50Z</time>
      </trkpt>
      <trkpt lat="45.55029" lon="6.76415">
        <ele>1629.9</ele>
        <time>2021-03-25T12:47:51Z</time>
      </trkpt>
      <trkpt lat="45.55028" lon="6.76416">
        <ele>1629.9</ele>
        <time>2021-03-25T12:47:52Z</time>
      </trkpt>
      <trkpt lat="45.55027" lon="6.76416">
        <ele>1629.8</ele>
        <time>2021-03-25T12:47:53Z</time>
      </trkpt>
      <trkpt lat="45.55027" lon="6.76416">
        <ele>1629.8</ele>
        <time>2021-03-25T12:47:54Z</time>
      </trkpt>
      <trkpt lat="45.55027" lon="6.76417">
        <ele>1629.8</ele>
        <time>2021-03-25T12:47:55Z</time>
      </trkpt>
      <trkpt lat="45.55027" lon="6.76417">
        <ele>1629.8</ele>
        <time>2021-03-25T12:47:56Z</time>
      </trkpt>
      <trkpt lat="45.55026" lon="6.76417">
        <ele>1629.8</ele>
        <time>2021-03-25T12:47:57Z</time>
      </trkpt>
      <trkpt lat="45.55025" lon="6.76418">
        <ele>1629.8</ele>
        <time>2021-03-25T12:47:58Z</time>
      </trkpt>
      <trkpt lat="45.55024" lon="6.76419">
        <ele>1629.7</ele>
        <time>2021-03-25T12:47:59Z</time>
      </trkpt>
      <trkpt lat="45.55023" lon="6.76419">
        <ele>1629.7</ele>
        <time>2021-03-25T12:48:00Z</time>
      </trkpt>
      <trkpt lat="45.55023" lon="6.7642">
        <ele>1629.6</ele>
        <time>2021-03-25T12:48:01Z</time>
      </trkpt>
      <trkpt lat="45.55021" lon="6.7642">
        <ele>1629.6</ele>
        <time>2021-03-25T12:48:02Z</time>
      </trkpt>
      <trkpt lat="45.5502" lon="6.76421">
        <ele>1629.5</ele>
        <time>2021-03-25T12:48:03Z</time>
      </trkpt>
      <trkpt lat="45.55019" lon="6.76422">
        <ele>1629.5</ele>
        <time>2021-03-25T12:48:04Z</time>
      </trkpt>
      <trkpt lat="45.55018" lon="6.76422">
        <ele>1629.5</ele>
        <time>2021-03-25T12:48:05Z</time>
      </trkpt>
      <trkpt lat="45.55017" lon="6.76423">
        <ele>1629.4</ele>
        <time>2021-03-25T12:48:06Z</time>
      </trkpt>
      <trkpt lat="45.55016" lon="6.76423">
        <ele>1629.4</ele>
        <time>2021-03-25T12:48:07Z</time>
      </trkpt>
      <trkpt lat="45.55016" lon="6.76423">
        <ele>1629.4</ele>
        <time>2021-03-25T12:48:08Z</time>
      </trkpt>
      <trkpt lat="45.55015" lon="6.76424">
        <ele>1629.4</ele>
        <time>2021-03-25T12:48:09Z</time>
      </trkpt>
      <trkpt lat="45.55013" lon="6.76424">
        <ele>1629.3</ele>
        <time>2021-03-25T12:48:10Z</time>
      </trkpt>
      <trkpt lat="45.55013" lon="6.76425">
        <ele>1629.3</ele>
        <time>2021-03-25T12:48:11Z</time>
      </trkpt>
      <trkpt lat="45.55012" lon="6.76425">
        <ele>1629.3</ele>
        <time>2021-03-25T12:48:12Z</time>
      </trkpt>
      <trkpt lat="45.55011" lon="6.76425">
        <ele>1629.2</ele>
        <time>2021-03-25T12:48:13Z</time>
      </trkpt>
      <trkpt lat="45.5501" lon="6.76425">
        <ele>1629.2</ele>
        <time>2021-03-25T12:48:14Z</time>
      </trkpt>
      <trkpt lat="45.55009" lon="6.76426">
        <ele>1629.2</ele>
        <time>2021-03-25T12:48:15Z</time>
      </trkpt>
      <trkpt lat="45.55008" lon="6.76427">
        <ele>1629.1</ele>
        <time>2021-03-25T12:48:16Z</time>
      </trkpt>
      <trkpt lat="45.55007" lon="6.76428">
        <ele>1629.1</ele>
        <time>2021-03-25T12:48:17Z</time>
      </trkpt>
      <trkpt lat="45.55007" lon="6.76428">
        <ele>1629.1</ele>
        <time>2021-03-25T12:48:18Z</time>
      </trkpt>
      <trkpt lat="45.55006" lon="6.76429">
        <ele>1629</ele>
        <time>2021-03-25T12:48:19Z</time>
      </trkpt>
      <trkpt lat="45.55005" lon="6.7643">
        <ele>1629</ele>
        <time>2021-03-25T12:48:20Z</time>
      </trkpt>
      <trkpt lat="45.55004" lon="6.76431">
        <ele>1629</ele>
        <time>2021-03-25T12:48:21Z</time>
      </trkpt>
      <trkpt lat="45.55003" lon="6.76431">
        <ele>1629</ele>
        <time>2021-03-25T12:48:22Z</time>
      </trkpt>
      <trkpt lat="45.55002" lon="6.76432">
        <ele>1629</ele>
        <time>2021-03-25T12:48:23Z</time>
      </trkpt>
      <trkpt lat="45.55001" lon="6.76433">
        <ele>1628.9</ele>
        <time>2021-03-25T12:48:24Z</time>
      </trkpt>
      <trkpt lat="45.55" lon="6.76433">
        <ele>1628.9</ele>
        <time>2021-03-25T12:48:25Z</time>
      </trkpt>
      <trkpt lat="45.54999" lon="6.76434">
        <ele>1628.9</ele>
        <time>2021-03-25T12:48:26Z</time>
      </trkpt>
      <trkpt lat="45.54998" lon="6.76435">
        <ele>1628.9</ele>
        <time>2021-03-25T12:48:27Z</time>
      </trkpt>
      <trkpt lat="45.54997" lon="6.76436">
        <ele>1628.8</ele>
        <time>2021-03-25T12:48:28Z</time>
      </trkpt>
      <trkpt lat="45.54997" lon="6.76436">
        <ele>1628.8</ele>
        <time>2021-03-25T12:48:29Z</time>
      </trkpt>
      <trkpt lat="45.54996" lon="6.76437">
        <ele>1628.8</ele>
        <time>2021-03-25T12:48:30Z</time>
      </trkpt>
      <trkpt lat="45.54995" lon="6.76438">
        <ele>1628.8</ele>
        <time>2021-03-25T12:48:31Z</time>
      </trkpt>
      <trkpt lat="45.54994" lon="6.76438">
        <ele>1628.8</ele>
        <time>2021-03-25T12:48:32Z</time>
      </trkpt>
      <trkpt lat="45.54993" lon="6.76438">
        <ele>1628.7</ele>
        <time>2021-03-25T12:48:33Z</time>
      </trkpt>
      <trkpt lat="45.54992" lon="6.76439">
        <ele>1628.7</ele>
        <time>2021-03-25T12:48:34Z</time>
      </trkpt>
      <trkpt lat="45.54991" lon="6.76439">
        <ele>1628.7</ele>
        <time>2021-03-25T12:48:35Z</time>
      </trkpt>
      <trkpt lat="45.5499" lon="6.76439">
        <ele>1628.7</ele>
        <time>2021-03-25T12:48:36Z</time>
      </trkpt>
      <trkpt lat="45.54989" lon="6.7644">
        <ele>1628.5</ele>
        <time>2021-03-25T12:48:37Z</time>
      </trkpt>
      <trkpt lat="45.54989" lon="6.76441">
        <ele>1628.5</ele>
        <time>2021-03-25T12:48:38Z</time>
      </trkpt>
      <trkpt lat="45.54988" lon="6.76442">
        <ele>1628.5</ele>
        <time>2021-03-25T12:48:39Z</time>
      </trkpt>
      <trkpt lat="45.54987" lon="6.76442">
        <ele>1628.5</ele>
        <time>2021-03-25T12:48:40Z</time>
      </trkpt>
      <trkpt lat="45.54986" lon="6.76443">
        <ele>1628.5</ele>
        <time>2021-03-25T12:48:41Z</time>
      </trkpt>
      <trkpt lat="45.54985" lon="6.76443">
        <ele>1628.6</ele>
        <time>2021-03-25T12:48:42Z</time>
      </trkpt>
      <trkpt lat="45.54984" lon="6.76443">
        <ele>1628.6</ele>
        <time>2021-03-25T12:48:43Z</time>
      </trkpt>
      <trkpt lat="45.54983" lon="6.76444">
        <ele>1628.6</ele>
        <time>2021-03-25T12:48:44Z</time>
      </trkpt>
      <trkpt lat="45.54982" lon="6.76444">
        <ele>1628.6</ele>
        <time>2021-03-25T12:48:45Z</time>
      </trkpt>
      <trkpt lat="45.54981" lon="6.76444">
        <ele>1628.6</ele>
        <time>2021-03-25T12:48:46Z</time>
      </trkpt>
      <trkpt lat="45.5498" lon="6.76445">
        <ele>1628.6</ele>
        <time>2021-03-25T12:48:47Z</time>
      </trkpt>
      <trkpt lat="45.54979" lon="6.76445">
        <ele>1628.7</ele>
        <time>2021-03-25T12:48:48Z</time>
      </trkpt>
      <trkpt lat="45.54978" lon="6.76445">
        <ele>1628.7</ele>
        <time>2021-03-25T12:48:49Z</time>
      </trkpt>
      <trkpt lat="45.54977" lon="6.76445">
        <ele>1628.7</ele>
        <time>2021-03-25T12:48:50Z</time>
      </trkpt>
      <trkpt lat="45.54976" lon="6.76445">
        <ele>1628.7</ele>
        <time>2021-03-25T12:48:51Z</time>
      </trkpt>
      <trkpt lat="45.54975" lon="6.76446">
        <ele>1628.7</ele>
        <time>2021-03-25T12:48:52Z</time>
      </trkpt>
      <trkpt lat="45.54975" lon="6.76446">
        <ele>1628.7</ele>
        <time>2021-03-25T12:48:53Z</time>
      </trkpt>
      <trkpt lat="45.54974" lon="6.76447">
        <ele>1628.7</ele>
        <time>2021-03-25T12:48:54Z</time>
      </trkpt>
      <trkpt lat="45.54973" lon="6.76448">
        <ele>1628.8</ele>
        <time>2021-03-25T12:48:55Z</time>
      </trkpt>
      <trkpt lat="45.54972" lon="6.76448">
        <ele>1628.8</ele>
        <time>2021-03-25T12:48:56Z</time>
      </trkpt>
      <trkpt lat="45.54971" lon="6.76449">
        <ele>1628.8</ele>
        <time>2021-03-25T12:48:57Z</time>
      </trkpt>
      <trkpt lat="45.54971" lon="6.76449">
        <ele>1628.8</ele>
        <time>2021-03-25T12:48:58Z</time>
      </trkpt>
      <trkpt lat="45.5497" lon="6.76449">
        <ele>1628.8</ele>
        <time>2021-03-25T12:48:59Z</time>
      </trkpt>
      <trkpt lat="45.5497" lon="6.76449">
        <ele>1628.8</ele>
        <time>2021-03-25T12:49:00Z</time>
      </trkpt>
      <trkpt lat="45.5497" lon="6.76449">
        <ele>1628.8</ele>
        <time>2021-03-25T12:49:01Z</time>
      </trkpt>
      <trkpt lat="45.5497" lon="6.76449">
        <ele>1628.8</ele>
        <time>2021-03-25T12:49:02Z</time>
      </trkpt>
      <trkpt lat="45.5497" lon="6.76449">
        <ele>1628.8</ele>
        <time>2021-03-25T12:49:03Z</time>
      </trkpt>
      <trkpt lat="45.5497" lon="6.76449">
        <ele>1628.8</ele>
        <time>2021-03-25T12:49:04Z</time>
      </trkpt>
      <trkpt lat="45.5497" lon="6.76449">
        <ele>1628.8</ele>
        <time>2021-03-25T12:49:05Z</time>
      </trkpt>
      <trkpt lat="45.5497" lon="6.76448">
        <ele>1628.8</ele>
        <time>2021-03-25T12:49:06Z</time>
      </trkpt>
      <trkpt lat="45.5497" lon="6.76446">
        <ele>1628.9</ele>
        <time>2021-03-25T12:49:07Z</time>
      </trkpt>
      <trkpt lat="45.5497" lon="6.76445">
        <ele>1628.9</ele>
        <time>2021-03-25T12:49:08Z</time>
      </trkpt>
      <trkpt lat="45.5497" lon="6.76443">
        <ele>1628.9</ele>
        <time>2021-03-25T12:49:09Z</time>
      </trkpt>
      <trkpt lat="45.5497" lon="6.76442">
        <ele>1628.9</ele>
        <time>2021-03-25T12:49:10Z</time>
      </trkpt>
      <trkpt lat="45.5497" lon="6.7644">
        <ele>1628.9</ele>
        <time>2021-03-25T12:49:11Z</time>
      </trkpt>
      <trkpt lat="45.5497" lon="6.76439">
        <ele>1629</ele>
        <time>2021-03-25T12:49:12Z</time>
      </trkpt>
      <trkpt lat="45.5497" lon="6.76437">
        <ele>1629</ele>
        <time>2021-03-25T12:49:13Z</time>
      </trkpt>
      <trkpt lat="45.5497" lon="6.76436">
        <ele>1629</ele>
        <time>2021-03-25T12:49:14Z</time>
      </trkpt>
      <trkpt lat="45.5497" lon="6.76434">
        <ele>1629</ele>
        <time>2021-03-25T12:49:21Z</time>
      </trkpt>
      <trkpt lat="45.5497" lon="6.76432">
        <ele>1629</ele>
        <time>2021-03-25T12:49:22Z</time>
      </trkpt>
      <trkpt lat="45.5497" lon="6.76431">
        <ele>1629.1</ele>
        <time>2021-03-25T12:49:23Z</time>
      </trkpt>
      <trkpt lat="45.5497" lon="6.7643">
        <ele>1629.1</ele>
        <time>2021-03-25T12:49:24Z</time>
      </trkpt>
      <trkpt lat="45.5497" lon="6.7643">
        <ele>1629.1</ele>
        <time>2021-03-25T12:49:25Z</time>
      </trkpt>
      <trkpt lat="45.5497" lon="6.76429">
        <ele>1629.1</ele>
        <time>2021-03-25T12:49:26Z</time>
      </trkpt>
      <trkpt lat="45.5497" lon="6.76428">
        <ele>1629.1</ele>
        <time>2021-03-25T12:49:27Z</time>
      </trkpt>
      <trkpt lat="45.5497" lon="6.76428">
        <ele>1629.1</ele>
        <time>2021-03-25T12:49:28Z</time>
      </trkpt>
      <trkpt lat="45.5497" lon="6.76428">
        <ele>1629.1</ele>
        <time>2021-03-25T12:49:29Z</time>
      </trkpt>
      <trkpt lat="45.54969" lon="6.76427">
        <ele>1629.1</ele>
        <time>2021-03-25T12:49:30Z</time>
      </trkpt>
      <trkpt lat="45.54969" lon="6.76427">
        <ele>1629.1</ele>
        <time>2021-03-25T12:49:31Z</time>
      </trkpt>
      <trkpt lat="45.5497" lon="6.76426">
        <ele>1629.1</ele>
        <time>2021-03-25T12:49:32Z</time>
      </trkpt>
      <trkpt lat="45.5497" lon="6.76426">
        <ele>1629.1</ele>
        <time>2021-03-25T12:49:33Z</time>
      </trkpt>
      <trkpt lat="45.54971" lon="6.76422">
        <ele>1629.2</ele>
        <time>2021-03-25T12:50:01Z</time>
      </trkpt>
      <trkpt lat="45.54971" lon="6.76422">
        <ele>1629.2</ele>
        <time>2021-03-25T12:50:02Z</time>
      </trkpt>
      <trkpt lat="45.54971" lon="6.76422">
        <ele>1629.2</ele>
        <time>2021-03-25T12:50:03Z</time>
      </trkpt>
      <trkpt lat="45.54971" lon="6.76421">
        <ele>1629.2</ele>
        <time>2021-03-25T12:50:04Z</time>
      </trkpt>
      <trkpt lat="45.54971" lon="6.76421">
        <ele>1629.2</ele>
        <time>2021-03-25T12:50:05Z</time>
      </trkpt>
      <trkpt lat="45.54971" lon="6.76421">
        <ele>1629.2</ele>
        <time>2021-03-25T12:50:06Z</time>
      </trkpt>
      <trkpt lat="45.54971" lon="6.76422">
        <ele>1629.2</ele>
        <time>2021-03-25T12:50:07Z</time>
      </trkpt>
      <trkpt lat="45.54971" lon="6.76422">
        <ele>1629.2</ele>
        <time>2021-03-25T12:50:08Z</time>
      </trkpt>
      <trkpt lat="45.54971" lon="6.76422">
        <ele>1629.2</ele>
        <time>2021-03-25T12:50:09Z</time>
      </trkpt>
      <trkpt lat="45.54971" lon="6.76422">
        <ele>1629.2</ele>
        <time>2021-03-25T12:50:10Z</time>
      </trkpt>
      <trkpt lat="45.54971" lon="6.76422">
        <ele>1629.2</ele>
        <time>2021-03-25T12:50:11Z</time>
      </trkpt>
      <trkpt lat="45.54967" lon="6.76433">
        <ele>1629.4</ele>
        <time>2021-03-25T12:50:44Z</time>
      </trkpt>
      <trkpt lat="45.54967" lon="6.76433">
        <ele>1629.4</ele>
        <time>2021-03-25T12:50:45Z</time>
      </trkpt>
      <trkpt lat="45.54967" lon="6.76432">
        <ele>1629.4</ele>
        <time>2021-03-25T12:50:46Z</time>
      </trkpt>
      <trkpt lat="45.54967" lon="6.76432">
        <ele>1629.4</ele>
        <time>2021-03-25T12:50:47Z</time>
      </trkpt>
      <trkpt lat="45.54967" lon="6.76432">
        <ele>1629.4</ele>
        <time>2021-03-25T12:50:48Z</time>
      </trkpt>
      <trkpt lat="45.54967" lon="6.76432">
        <ele>1629.4</ele>
        <time>2021-03-25T12:50:49Z</time>
      </trkpt>
      <trkpt lat="45.54967" lon="6.76432">
        <ele>1629.4</ele>
        <time>2021-03-25T12:50:50Z</time>
      </trkpt>
      <trkpt lat="45.54967" lon="6.76432">
        <ele>1629.4</ele>
        <time>2021-03-25T12:50:51Z</time>
      </trkpt>
      <trkpt lat="45.54967" lon="6.76432">
        <ele>1629.4</ele>
        <time>2021-03-25T12:50:52Z</time>
      </trkpt>
      <trkpt lat="45.54967" lon="6.76432">
        <ele>1629.4</ele>
        <time>2021-03-25T12:50:53Z</time>
      </trkpt>
    </trkseg>
  </trk>
</gpx>